<?xml version='1.0' encoding='UTF-8'?><gpx version="1.1" creator="JPX - https://github.com/jenetics/jpx" xmlns="http://www.topografix.com/GPX/1/1"><trk><trkseg><trkpt lat="44.7938933" lon="9.8094283"><ele>254.00000000000003</ele><time>2026-03-28T08:28:31.667Z</time></trkpt><trkpt lat="44.7939667" lon="9.8094967"><ele>254.0</ele><time>2026-03-28T08:28:33.666Z</time></trkpt><trkpt lat="44.794005" lon="9.8095833"><ele>254.0</ele><time>2026-03-28T08:28:35.667Z</time></trkpt><trkpt lat="44.7939667" lon="9.8097017"><ele>254.0</ele><time>2026-03-28T08:28:38.667Z</time></trkpt><trkpt lat="44.793885" lon="9.8097"><ele>254.00000000000003</ele><time>2026-03-28T08:28:40.666Z</time></trkpt><trkpt lat="44.7938083" lon="9.809635"><ele>254.0</ele><time>2026-03-28T08:28:42.666Z</time></trkpt><trkpt lat="44.7937433" lon="9.8095367"><ele>254.0</ele><time>2026-03-28T08:28:44.667Z</time></trkpt><trkpt lat="44.793685" lon="9.809465"><ele>253.99999999999997</ele><time>2026-03-28T08:28:46.666Z</time></trkpt><trkpt lat="44.7936267" lon="9.8094117"><ele>253.99999999999997</ele><time>2026-03-28T08:28:49.666Z</time></trkpt><trkpt lat="44.7935683" lon="9.8093067"><ele>254.0</ele><time>2026-03-28T08:29:07.668Z</time></trkpt><trkpt lat="44.7934967" lon="9.8091917"><ele>254.0</ele><time>2026-03-28T08:29:09.666Z</time></trkpt><trkpt lat="44.793405" lon="9.809085"><ele>254.33333333333334</ele><time>2026-03-28T08:29:11.667Z</time></trkpt><trkpt lat="44.79332" lon="9.8089683"><ele>254.66666666666669</ele><time>2026-03-28T08:29:13.666Z</time></trkpt><trkpt lat="44.7932367" lon="9.808845"><ele>255.0</ele><time>2026-03-28T08:29:15.667Z</time></trkpt><trkpt lat="44.7931933" lon="9.8087783"><ele>255.33333333333331</ele><time>2026-03-28T08:29:16.667Z</time></trkpt><trkpt lat="44.793145" lon="9.8087117"><ele>255.66666666666666</ele><time>2026-03-28T08:29:17.667Z</time></trkpt><trkpt lat="44.7930983" lon="9.808645"><ele>256.0</ele><time>2026-03-28T08:29:18.666Z</time></trkpt><trkpt lat="44.7930483" lon="9.8085817"><ele>255.99999999999997</ele><time>2026-03-28T08:29:19.666Z</time></trkpt><trkpt lat="44.7929983" lon="9.8085167"><ele>256.0</ele><time>2026-03-28T08:29:20.667Z</time></trkpt><trkpt lat="44.79295" lon="9.8084533"><ele>256.0</ele><time>2026-03-28T08:29:21.666Z</time></trkpt><trkpt lat="44.7928933" lon="9.808375"><ele>256.0</ele><time>2026-03-28T08:29:22.665Z</time></trkpt><trkpt lat="44.7928367" lon="9.80829"><ele>255.99999999999997</ele><time>2026-03-28T08:29:23.666Z</time></trkpt><trkpt lat="44.7927783" lon="9.8082067"><ele>256.0</ele><time>2026-03-28T08:29:24.665Z</time></trkpt><trkpt lat="44.7927217" lon="9.80812"><ele>255.83333333333331</ele><time>2026-03-28T08:29:25.666Z</time></trkpt><trkpt lat="44.792665" lon="9.8080333"><ele>255.66666666666666</ele><time>2026-03-28T08:29:26.666Z</time></trkpt><trkpt lat="44.7926117" lon="9.80795"><ele>255.5</ele><time>2026-03-28T08:29:27.666Z</time></trkpt><trkpt lat="44.7925617" lon="9.8078733"><ele>255.33333333333331</ele><time>2026-03-28T08:29:28.667Z</time></trkpt><trkpt lat="44.7925133" lon="9.8078"><ele>255.16666666666666</ele><time>2026-03-28T08:29:29.668Z</time></trkpt><trkpt lat="44.79246" lon="9.8077283"><ele>255.0</ele><time>2026-03-28T08:29:30.667Z</time></trkpt><trkpt lat="44.7924" lon="9.807655"><ele>255.0</ele><time>2026-03-28T08:29:31.664Z</time></trkpt><trkpt lat="44.7923283" lon="9.8075833"><ele>255.0</ele><time>2026-03-28T08:29:32.666Z</time></trkpt><trkpt lat="44.792255" lon="9.80751"><ele>255.0</ele><time>2026-03-28T08:29:33.665Z</time></trkpt><trkpt lat="44.79219" lon="9.807435"><ele>255.0</ele><time>2026-03-28T08:29:34.665Z</time></trkpt><trkpt lat="44.7921317" lon="9.8073617"><ele>255.0</ele><time>2026-03-28T08:29:35.666Z</time></trkpt><trkpt lat="44.7920767" lon="9.8073017"><ele>255.0</ele><time>2026-03-28T08:29:36.667Z</time></trkpt><trkpt lat="44.79202" lon="9.8072583"><ele>255.0</ele><time>2026-03-28T08:29:37.667Z</time></trkpt><trkpt lat="44.79196" lon="9.80722"><ele>255.0</ele><time>2026-03-28T08:29:38.667Z</time></trkpt><trkpt lat="44.7919017" lon="9.807175"><ele>255.0</ele><time>2026-03-28T08:29:39.667Z</time></trkpt><trkpt lat="44.7918467" lon="9.8071283"><ele>255.0</ele><time>2026-03-28T08:29:40.666Z</time></trkpt><trkpt lat="44.79175" lon="9.8070433"><ele>255.0</ele><time>2026-03-28T08:29:42.666Z</time></trkpt><trkpt lat="44.7916517" lon="9.8069667"><ele>255.0</ele><time>2026-03-28T08:29:44.667Z</time></trkpt><trkpt lat="44.791545" lon="9.80687"><ele>255.2</ele><time>2026-03-28T08:29:46.667Z</time></trkpt><trkpt lat="44.7914817" lon="9.8067933"><ele>255.4</ele><time>2026-03-28T08:29:47.666Z</time></trkpt><trkpt lat="44.79141" lon="9.8067017"><ele>255.60000000000002</ele><time>2026-03-28T08:29:48.665Z</time></trkpt><trkpt lat="44.7913317" lon="9.8065983"><ele>255.8</ele><time>2026-03-28T08:29:49.666Z</time></trkpt><trkpt lat="44.7912467" lon="9.80648"><ele>256.0</ele><time>2026-03-28T08:29:50.666Z</time></trkpt><trkpt lat="44.791165" lon="9.8063667"><ele>256.0</ele><time>2026-03-28T08:29:51.666Z</time></trkpt><trkpt lat="44.79109" lon="9.8062633"><ele>256.0</ele><time>2026-03-28T08:29:52.667Z</time></trkpt><trkpt lat="44.79102" lon="9.806175"><ele>256.0</ele><time>2026-03-28T08:29:53.667Z</time></trkpt><trkpt lat="44.7909583" lon="9.8061017"><ele>256.0</ele><time>2026-03-28T08:29:54.666Z</time></trkpt><trkpt lat="44.7909" lon="9.8060467"><ele>256.0</ele><time>2026-03-28T08:29:55.668Z</time></trkpt><trkpt lat="44.7907967" lon="9.806065"><ele>257.40000000000003</ele><time>2026-03-28T08:29:57.666Z</time></trkpt><trkpt lat="44.7907083" lon="9.8061783"><ele>258.8</ele><time>2026-03-28T08:29:59.667Z</time></trkpt><trkpt lat="44.7906617" lon="9.80624"><ele>260.20000000000005</ele><time>2026-03-28T08:30:00.667Z</time></trkpt><trkpt lat="44.7905617" lon="9.8063217"><ele>261.6</ele><time>2026-03-28T08:30:02.667Z</time></trkpt><trkpt lat="44.7904733" lon="9.806345"><ele>263.0</ele><time>2026-03-28T08:30:04.668Z</time></trkpt><trkpt lat="44.7903617" lon="9.80631"><ele>263.0</ele><time>2026-03-28T08:30:06.668Z</time></trkpt><trkpt lat="44.790275" lon="9.8062033"><ele>263.0</ele><time>2026-03-28T08:30:08.668Z</time></trkpt><trkpt lat="44.7902317" lon="9.8061367"><ele>263.0</ele><time>2026-03-28T08:30:09.667Z</time></trkpt><trkpt lat="44.790175" lon="9.8060683"><ele>263.0</ele><time>2026-03-28T08:30:10.667Z</time></trkpt><trkpt lat="44.790115" lon="9.80601"><ele>263.0</ele><time>2026-03-28T08:30:11.666Z</time></trkpt><trkpt lat="44.7900533" lon="9.805975"><ele>263.0</ele><time>2026-03-28T08:30:12.667Z</time></trkpt><trkpt lat="44.7899867" lon="9.8059617"><ele>263.83333333333337</ele><time>2026-03-28T08:30:13.666Z</time></trkpt><trkpt lat="44.78992" lon="9.8059583"><ele>264.6666666666667</ele><time>2026-03-28T08:30:14.667Z</time></trkpt><trkpt lat="44.7897917" lon="9.8059467"><ele>265.5</ele><time>2026-03-28T08:30:16.665Z</time></trkpt><trkpt lat="44.7897267" lon="9.8059433"><ele>266.3333333333333</ele><time>2026-03-28T08:30:17.665Z</time></trkpt><trkpt lat="44.789655" lon="9.8059417"><ele>267.16666666666663</ele><time>2026-03-28T08:30:18.666Z</time></trkpt><trkpt lat="44.7895783" lon="9.8059433"><ele>268.0</ele><time>2026-03-28T08:30:19.666Z</time></trkpt><trkpt lat="44.789495" lon="9.8059633"><ele>268.0</ele><time>2026-03-28T08:30:20.667Z</time></trkpt><trkpt lat="44.7894083" lon="9.8059933"><ele>268.0</ele><time>2026-03-28T08:30:21.666Z</time></trkpt><trkpt lat="44.7893267" lon="9.8060167"><ele>268.0</ele><time>2026-03-28T08:30:22.664Z</time></trkpt><trkpt lat="44.7892517" lon="9.806035"><ele>268.0</ele><time>2026-03-28T08:30:23.669Z</time></trkpt><trkpt lat="44.7891767" lon="9.8060517"><ele>268.0</ele><time>2026-03-28T08:30:24.667Z</time></trkpt><trkpt lat="44.7890967" lon="9.806075"><ele>268.0</ele><time>2026-03-28T08:30:25.665Z</time></trkpt><trkpt lat="44.7890283" lon="9.8061"><ele>273.0</ele><time>2026-03-28T08:30:26.668Z</time></trkpt><trkpt lat="44.78895" lon="9.80613"><ele>278.0</ele><time>2026-03-28T08:30:28.666Z</time></trkpt><trkpt lat="44.7888417" lon="9.806175"><ele>283.0</ele><time>2026-03-28T08:30:31.667Z</time></trkpt><trkpt lat="44.788745" lon="9.80623"><ele>288.0</ele><time>2026-03-28T08:30:33.667Z</time></trkpt><trkpt lat="44.7886767" lon="9.806285"><ele>293.0</ele><time>2026-03-28T08:30:35.667Z</time></trkpt><trkpt lat="44.7886167" lon="9.8063467"><ele>293.0</ele><time>2026-03-28T08:30:37.667Z</time></trkpt><trkpt lat="44.7885633" lon="9.8064"><ele>293.0</ele><time>2026-03-28T08:30:39.667Z</time></trkpt><trkpt lat="44.788505" lon="9.8064867"><ele>293.0</ele><time>2026-03-28T08:30:41.668Z</time></trkpt><trkpt lat="44.78846" lon="9.806625"><ele>293.0</ele><time>2026-03-28T08:30:43.667Z</time></trkpt><trkpt lat="44.78841" lon="9.8067833"><ele>293.0</ele><time>2026-03-28T08:30:45.666Z</time></trkpt><trkpt lat="44.7883883" lon="9.8068683"><ele>293.0</ele><time>2026-03-28T08:30:46.666Z</time></trkpt><trkpt lat="44.78835" lon="9.8070017"><ele>297.0</ele><time>2026-03-28T08:30:48.665Z</time></trkpt><trkpt lat="44.7883567" lon="9.8071"><ele>301.0</ele><time>2026-03-28T08:30:50.667Z</time></trkpt><trkpt lat="44.7884167" lon="9.8072333"><ele>305.0</ele><time>2026-03-28T08:30:52.665Z</time></trkpt><trkpt lat="44.78849" lon="9.8073817"><ele>309.0</ele><time>2026-03-28T08:30:54.665Z</time></trkpt><trkpt lat="44.78853" lon="9.8074583"><ele>313.0</ele><time>2026-03-28T08:30:55.666Z</time></trkpt><trkpt lat="44.7886067" lon="9.8075967"><ele>314.66666666666663</ele><time>2026-03-28T08:30:57.666Z</time></trkpt><trkpt lat="44.7886533" lon="9.8076633"><ele>316.3333333333333</ele><time>2026-03-28T08:30:58.667Z</time></trkpt><trkpt lat="44.7887067" lon="9.8077267"><ele>318.0</ele><time>2026-03-28T08:30:59.666Z</time></trkpt><trkpt lat="44.788765" lon="9.8077833"><ele>319.6666666666667</ele><time>2026-03-28T08:31:00.665Z</time></trkpt><trkpt lat="44.7888214" lon="9.8078318"><ele>321.33333333333337</ele><time>2026-03-28T08:31:01.665Z</time></trkpt><trkpt lat="44.7888886" lon="9.8079479"><ele>323.0</ele><time>2026-03-28T08:31:03.667Z</time></trkpt><trkpt lat="44.7888947" lon="9.8080758"><ele>323.0</ele><time>2026-03-28T08:31:05.667Z</time></trkpt><trkpt lat="44.7888692" lon="9.8081571"><ele>323.0</ele><time>2026-03-28T08:31:07.668Z</time></trkpt><trkpt lat="44.7888399" lon="9.8082384"><ele>323.0</ele><time>2026-03-28T08:32:41.667Z</time></trkpt><trkpt lat="44.7887588" lon="9.8083801"><ele>323.0</ele><time>2026-03-28T08:32:43.666Z</time></trkpt><trkpt lat="44.7887122" lon="9.8084621"><ele>323.0</ele><time>2026-03-28T08:32:44.667Z</time></trkpt><trkpt lat="44.7886724" lon="9.8085458"><ele>323.0</ele><time>2026-03-28T08:32:45.666Z</time></trkpt><trkpt lat="44.7886423" lon="9.8086306"><ele>324.1666666666667</ele><time>2026-03-28T08:32:46.667Z</time></trkpt><trkpt lat="44.7886185" lon="9.8087248"><ele>325.33333333333337</ele><time>2026-03-28T08:32:47.664Z</time></trkpt><trkpt lat="44.7886062" lon="9.8088363"><ele>326.5</ele><time>2026-03-28T08:32:48.665Z</time></trkpt><trkpt lat="44.7885972" lon="9.8089655"><ele>327.6666666666667</ele><time>2026-03-28T08:32:49.664Z</time></trkpt><trkpt lat="44.7885901" lon="9.8091025"><ele>328.8333333333333</ele><time>2026-03-28T08:32:50.665Z</time></trkpt><trkpt lat="44.7885954" lon="9.8092396"><ele>330.0</ele><time>2026-03-28T08:32:51.665Z</time></trkpt><trkpt lat="44.7886088" lon="9.809367"><ele>331.6666666666667</ele><time>2026-03-28T08:32:52.665Z</time></trkpt><trkpt lat="44.7886232" lon="9.8094869"><ele>333.3333333333333</ele><time>2026-03-28T08:32:53.665Z</time></trkpt><trkpt lat="44.7886291" lon="9.8095881"><ele>335.0</ele><time>2026-03-28T08:32:54.664Z</time></trkpt><trkpt lat="44.7886222" lon="9.8096826"><ele>336.66666666666663</ele><time>2026-03-28T08:32:55.666Z</time></trkpt><trkpt lat="44.7886016" lon="9.8097746"><ele>338.3333333333333</ele><time>2026-03-28T08:32:56.667Z</time></trkpt><trkpt lat="44.7885673" lon="9.8098739"><ele>340.0</ele><time>2026-03-28T08:32:57.665Z</time></trkpt><trkpt lat="44.7885105" lon="9.8099915"><ele>343.5</ele><time>2026-03-28T08:32:58.664Z</time></trkpt><trkpt lat="44.7884425" lon="9.8101215"><ele>347.0</ele><time>2026-03-28T08:32:59.665Z</time></trkpt><trkpt lat="44.7883729" lon="9.8102543"><ele>350.5</ele><time>2026-03-28T08:33:00.665Z</time></trkpt><trkpt lat="44.7883095" lon="9.8103886"><ele>354.0</ele><time>2026-03-28T08:33:01.665Z</time></trkpt><trkpt lat="44.7882576" lon="9.8105268"><ele>355.6</ele><time>2026-03-28T08:33:02.667Z</time></trkpt><trkpt lat="44.7882183" lon="9.8106709"><ele>357.2</ele><time>2026-03-28T08:33:03.665Z</time></trkpt><trkpt lat="44.7881896" lon="9.8108058"><ele>358.8</ele><time>2026-03-28T08:33:04.664Z</time></trkpt><trkpt lat="44.7881718" lon="9.8109356"><ele>360.40000000000003</ele><time>2026-03-28T08:33:05.665Z</time></trkpt><trkpt lat="44.7881635" lon="9.811067"><ele>362.0</ele><time>2026-03-28T08:33:06.666Z</time></trkpt><trkpt lat="44.788154" lon="9.8111947"><ele>363.0</ele><time>2026-03-28T08:33:07.666Z</time></trkpt><trkpt lat="44.7881317" lon="9.8113172"><ele>364.0</ele><time>2026-03-28T08:33:08.666Z</time></trkpt><trkpt lat="44.7881085" lon="9.811437"><ele>365.0</ele><time>2026-03-28T08:33:09.666Z</time></trkpt><trkpt lat="44.7880922" lon="9.8115589"><ele>366.0</ele><time>2026-03-28T08:33:10.667Z</time></trkpt><trkpt lat="44.7880815" lon="9.811683"><ele>367.0</ele><time>2026-03-28T08:33:11.666Z</time></trkpt><trkpt lat="44.7880807" lon="9.8117995"><ele>368.0</ele><time>2026-03-28T08:33:12.666Z</time></trkpt><trkpt lat="44.7880733" lon="9.8119147"><ele>369.4</ele><time>2026-03-28T08:33:13.666Z</time></trkpt><trkpt lat="44.7880559" lon="9.8120413"><ele>370.79999999999995</ele><time>2026-03-28T08:33:14.668Z</time></trkpt><trkpt lat="44.7880288" lon="9.8121741"><ele>372.2</ele><time>2026-03-28T08:33:15.665Z</time></trkpt><trkpt lat="44.7879915" lon="9.8122939"><ele>373.6</ele><time>2026-03-28T08:33:16.666Z</time></trkpt><trkpt lat="44.7879429" lon="9.8123953"><ele>375.0</ele><time>2026-03-28T08:33:17.665Z</time></trkpt><trkpt lat="44.7878886" lon="9.8124926"><ele>375.0</ele><time>2026-03-28T08:33:18.664Z</time></trkpt><trkpt lat="44.7878379" lon="9.8125978"><ele>375.0</ele><time>2026-03-28T08:33:19.665Z</time></trkpt><trkpt lat="44.7878005" lon="9.8127254"><ele>375.0</ele><time>2026-03-28T08:33:20.664Z</time></trkpt><trkpt lat="44.7877717" lon="9.8128763"><ele>375.0</ele><time>2026-03-28T08:33:21.665Z</time></trkpt><trkpt lat="44.7877453" lon="9.8130443"><ele>375.0</ele><time>2026-03-28T08:33:22.666Z</time></trkpt><trkpt lat="44.7877113" lon="9.8132104"><ele>377.6</ele><time>2026-03-28T08:33:23.664Z</time></trkpt><trkpt lat="44.7876728" lon="9.8133629"><ele>380.2</ele><time>2026-03-28T08:33:24.665Z</time></trkpt><trkpt lat="44.7876327" lon="9.8135109"><ele>382.79999999999995</ele><time>2026-03-28T08:33:25.665Z</time></trkpt><trkpt lat="44.7875956" lon="9.8136564"><ele>385.4</ele><time>2026-03-28T08:33:26.665Z</time></trkpt><trkpt lat="44.787569" lon="9.813795"><ele>388.0</ele><time>2026-03-28T08:33:27.666Z</time></trkpt><trkpt lat="44.7875515" lon="9.8139353"><ele>389.59999999999997</ele><time>2026-03-28T08:33:28.666Z</time></trkpt><trkpt lat="44.7875362" lon="9.8140774"><ele>391.2</ele><time>2026-03-28T08:33:29.665Z</time></trkpt><trkpt lat="44.7875218" lon="9.8142242"><ele>392.8</ele><time>2026-03-28T08:33:30.665Z</time></trkpt><trkpt lat="44.787502" lon="9.8143654"><ele>394.4</ele><time>2026-03-28T08:33:31.666Z</time></trkpt><trkpt lat="44.7874696" lon="9.8144951"><ele>396.0</ele><time>2026-03-28T08:33:32.668Z</time></trkpt><trkpt lat="44.7874317" lon="9.8146292"><ele>396.8333333333333</ele><time>2026-03-28T08:33:33.667Z</time></trkpt><trkpt lat="44.7873944" lon="9.8147556"><ele>397.66666666666663</ele><time>2026-03-28T08:33:34.666Z</time></trkpt><trkpt lat="44.7873567" lon="9.81487"><ele>398.5</ele><time>2026-03-28T08:33:35.664Z</time></trkpt><trkpt lat="44.7873115" lon="9.8149688"><ele>399.3333333333333</ele><time>2026-03-28T08:33:36.665Z</time></trkpt><trkpt lat="44.7872606" lon="9.8150469"><ele>400.16666666666663</ele><time>2026-03-28T08:33:37.665Z</time></trkpt><trkpt lat="44.7871951" lon="9.8151012"><ele>401.0</ele><time>2026-03-28T08:33:38.666Z</time></trkpt><trkpt lat="44.7871082" lon="9.8151517"><ele>402.0</ele><time>2026-03-28T08:33:39.666Z</time></trkpt><trkpt lat="44.7870132" lon="9.8152191"><ele>403.0</ele><time>2026-03-28T08:33:40.666Z</time></trkpt><trkpt lat="44.7869088" lon="9.8153057"><ele>404.0</ele><time>2026-03-28T08:33:41.664Z</time></trkpt><trkpt lat="44.7868074" lon="9.8153977"><ele>405.0</ele><time>2026-03-28T08:33:42.665Z</time></trkpt><trkpt lat="44.786713" lon="9.8154908"><ele>406.4</ele><time>2026-03-28T08:33:43.665Z</time></trkpt><trkpt lat="44.7866172" lon="9.8155928"><ele>407.8</ele><time>2026-03-28T08:33:44.665Z</time></trkpt><trkpt lat="44.7865376" lon="9.8156988"><ele>409.20000000000005</ele><time>2026-03-28T08:33:45.665Z</time></trkpt><trkpt lat="44.7864661" lon="9.8158017"><ele>410.6</ele><time>2026-03-28T08:33:46.664Z</time></trkpt><trkpt lat="44.786404" lon="9.8159115"><ele>412.0</ele><time>2026-03-28T08:33:47.664Z</time></trkpt><trkpt lat="44.7863641" lon="9.8160248"><ele>412.85714285714283</ele><time>2026-03-28T08:33:48.665Z</time></trkpt><trkpt lat="44.7863464" lon="9.8161407"><ele>413.7142857142857</ele><time>2026-03-28T08:33:49.664Z</time></trkpt><trkpt lat="44.7863329" lon="9.8162478"><ele>414.57142857142856</ele><time>2026-03-28T08:33:50.665Z</time></trkpt><trkpt lat="44.7863139" lon="9.8163407"><ele>415.42857142857144</ele><time>2026-03-28T08:33:51.665Z</time></trkpt><trkpt lat="44.7862896" lon="9.8164272"><ele>416.2857142857143</ele><time>2026-03-28T08:33:52.665Z</time></trkpt><trkpt lat="44.7862588" lon="9.8165118"><ele>417.1428571428571</ele><time>2026-03-28T08:33:53.666Z</time></trkpt><trkpt lat="44.7862086" lon="9.8165989"><ele>418.0</ele><time>2026-03-28T08:33:54.665Z</time></trkpt><trkpt lat="44.7861452" lon="9.8166805"><ele>418.00000000000006</ele><time>2026-03-28T08:33:55.664Z</time></trkpt><trkpt lat="44.7860934" lon="9.8167609"><ele>418.0</ele><time>2026-03-28T08:33:56.666Z</time></trkpt><trkpt lat="44.7860564" lon="9.8168328"><ele>418.0</ele><time>2026-03-28T08:33:57.667Z</time></trkpt><trkpt lat="44.7859905" lon="9.8168879"><ele>418.0</ele><time>2026-03-28T08:33:59.666Z</time></trkpt><trkpt lat="44.7859105" lon="9.8168806"><ele>418.00000000000006</ele><time>2026-03-28T08:34:01.665Z</time></trkpt><trkpt lat="44.7857937" lon="9.816888"><ele>418.0</ele><time>2026-03-28T08:34:03.666Z</time></trkpt><trkpt lat="44.7857236" lon="9.816926"><ele>420.6666666666667</ele><time>2026-03-28T08:34:04.667Z</time></trkpt><trkpt lat="44.7856688" lon="9.8169907"><ele>423.33333333333337</ele><time>2026-03-28T08:34:05.665Z</time></trkpt><trkpt lat="44.7856231" lon="9.8171247"><ele>426.0</ele><time>2026-03-28T08:34:07.666Z</time></trkpt><trkpt lat="44.7855988" lon="9.8172327"><ele>428.66666666666663</ele><time>2026-03-28T08:34:09.666Z</time></trkpt><trkpt lat="44.78555" lon="9.8173718"><ele>431.3333333333333</ele><time>2026-03-28T08:34:11.665Z</time></trkpt><trkpt lat="44.7855215" lon="9.817454"><ele>434.0</ele><time>2026-03-28T08:34:12.666Z</time></trkpt><trkpt lat="44.7854863" lon="9.817534"><ele>434.0</ele><time>2026-03-28T08:34:13.666Z</time></trkpt><trkpt lat="44.7854478" lon="9.8176151"><ele>434.0</ele><time>2026-03-28T08:34:14.666Z</time></trkpt><trkpt lat="44.7854152" lon="9.8176993"><ele>434.0</ele><time>2026-03-28T08:34:15.664Z</time></trkpt><trkpt lat="44.7853888" lon="9.8177847"><ele>434.0</ele><time>2026-03-28T08:34:16.664Z</time></trkpt><trkpt lat="44.7853653" lon="9.8178773"><ele>434.0</ele><time>2026-03-28T08:34:17.665Z</time></trkpt><trkpt lat="44.7853481" lon="9.8179759"><ele>434.0</ele><time>2026-03-28T08:34:18.666Z</time></trkpt><trkpt lat="44.7853461" lon="9.8180944"><ele>434.0</ele><time>2026-03-28T08:34:19.665Z</time></trkpt><trkpt lat="44.7853508" lon="9.8182102"><ele>434.16666666666663</ele><time>2026-03-28T08:34:20.666Z</time></trkpt><trkpt lat="44.7853587" lon="9.8183206"><ele>434.3333333333333</ele><time>2026-03-28T08:34:21.664Z</time></trkpt><trkpt lat="44.7853627" lon="9.8184325"><ele>434.5</ele><time>2026-03-28T08:34:22.665Z</time></trkpt><trkpt lat="44.7853629" lon="9.8185475"><ele>434.66666666666663</ele><time>2026-03-28T08:34:23.665Z</time></trkpt><trkpt lat="44.7853624" lon="9.8186718"><ele>434.8333333333333</ele><time>2026-03-28T08:34:24.665Z</time></trkpt><trkpt lat="44.7853624" lon="9.8188008"><ele>435.0</ele><time>2026-03-28T08:34:25.665Z</time></trkpt><trkpt lat="44.7853588" lon="9.8189259"><ele>434.7142857142857</ele><time>2026-03-28T08:34:26.665Z</time></trkpt><trkpt lat="44.7853498" lon="9.8190404"><ele>434.42857142857144</ele><time>2026-03-28T08:34:27.666Z</time></trkpt><trkpt lat="44.7853319" lon="9.8191452"><ele>434.1428571428571</ele><time>2026-03-28T08:34:28.666Z</time></trkpt><trkpt lat="44.7853097" lon="9.8192468"><ele>433.8571428571429</ele><time>2026-03-28T08:34:29.666Z</time></trkpt><trkpt lat="44.7852763" lon="9.8193327"><ele>433.57142857142856</ele><time>2026-03-28T08:34:30.665Z</time></trkpt><trkpt lat="44.7852381" lon="9.8194054"><ele>433.2857142857143</ele><time>2026-03-28T08:34:31.666Z</time></trkpt><trkpt lat="44.7851904" lon="9.8194685"><ele>433.0</ele><time>2026-03-28T08:34:32.665Z</time></trkpt><trkpt lat="44.785131" lon="9.8195285"><ele>436.59999999999997</ele><time>2026-03-28T08:34:33.665Z</time></trkpt><trkpt lat="44.7850673" lon="9.8195989"><ele>440.19999999999993</ele><time>2026-03-28T08:34:34.665Z</time></trkpt><trkpt lat="44.7849948" lon="9.819674"><ele>443.8</ele><time>2026-03-28T08:34:35.665Z</time></trkpt><trkpt lat="44.7849144" lon="9.8197644"><ele>447.4</ele><time>2026-03-28T08:34:36.666Z</time></trkpt><trkpt lat="44.7848362" lon="9.8198594"><ele>451.0</ele><time>2026-03-28T08:34:37.665Z</time></trkpt><trkpt lat="44.7847602" lon="9.8199499"><ele>451.0</ele><time>2026-03-28T08:34:38.666Z</time></trkpt><trkpt lat="44.7846811" lon="9.820041"><ele>451.0</ele><time>2026-03-28T08:34:39.666Z</time></trkpt><trkpt lat="44.7846027" lon="9.8201306"><ele>451.0</ele><time>2026-03-28T08:34:40.667Z</time></trkpt><trkpt lat="44.784523" lon="9.820222"><ele>451.0</ele><time>2026-03-28T08:34:41.664Z</time></trkpt><trkpt lat="44.7844518" lon="9.8203088"><ele>451.0</ele><time>2026-03-28T08:34:42.666Z</time></trkpt><trkpt lat="44.7843909" lon="9.8203835"><ele>452.00000000000006</ele><time>2026-03-28T08:34:43.664Z</time></trkpt><trkpt lat="44.7843379" lon="9.8204516"><ele>453.0</ele><time>2026-03-28T08:34:44.665Z</time></trkpt><trkpt lat="44.7842816" lon="9.8205286"><ele>454.0</ele><time>2026-03-28T08:34:45.664Z</time></trkpt><trkpt lat="44.7842237" lon="9.8206178"><ele>455.0</ele><time>2026-03-28T08:34:46.666Z</time></trkpt><trkpt lat="44.7841697" lon="9.8207279"><ele>456.00000000000006</ele><time>2026-03-28T08:34:47.665Z</time></trkpt><trkpt lat="44.7841306" lon="9.8208531"><ele>457.0</ele><time>2026-03-28T08:34:48.666Z</time></trkpt><trkpt lat="44.7841156" lon="9.8209805"><ele>457.33333333333337</ele><time>2026-03-28T08:34:49.665Z</time></trkpt><trkpt lat="44.7841195" lon="9.8211076"><ele>457.6666666666667</ele><time>2026-03-28T08:34:50.665Z</time></trkpt><trkpt lat="44.7841321" lon="9.8212248"><ele>458.0</ele><time>2026-03-28T08:34:51.666Z</time></trkpt><trkpt lat="44.7841466" lon="9.8213309"><ele>458.33333333333337</ele><time>2026-03-28T08:34:52.667Z</time></trkpt><trkpt lat="44.7841578" lon="9.8214225"><ele>458.6666666666667</ele><time>2026-03-28T08:34:53.667Z</time></trkpt><trkpt lat="44.7841463" lon="9.8215776"><ele>459.0</ele><time>2026-03-28T08:34:55.664Z</time></trkpt><trkpt lat="44.7840658" lon="9.821723"><ele>459.0</ele><time>2026-03-28T08:34:57.664Z</time></trkpt><trkpt lat="44.7840193" lon="9.8218001"><ele>459.0</ele><time>2026-03-28T08:34:58.665Z</time></trkpt><trkpt lat="44.7839628" lon="9.8218771"><ele>459.0</ele><time>2026-03-28T08:34:59.664Z</time></trkpt><trkpt lat="44.7839077" lon="9.8219449"><ele>459.0</ele><time>2026-03-28T08:35:00.664Z</time></trkpt><trkpt lat="44.7837926" lon="9.8220004"><ele>459.0</ele><time>2026-03-28T08:35:02.665Z</time></trkpt><trkpt lat="44.7837228" lon="9.8219938"><ele>459.0</ele><time>2026-03-28T08:35:03.665Z</time></trkpt><trkpt lat="44.783641" lon="9.8219966"><ele>459.0</ele><time>2026-03-28T08:35:04.666Z</time></trkpt><trkpt lat="44.7835455" lon="9.8220033"><ele>459.0</ele><time>2026-03-28T08:35:05.665Z</time></trkpt><trkpt lat="44.7834422" lon="9.8220039"><ele>459.0</ele><time>2026-03-28T08:35:06.665Z</time></trkpt><trkpt lat="44.7833368" lon="9.82201"><ele>459.0</ele><time>2026-03-28T08:35:07.665Z</time></trkpt><trkpt lat="44.7832389" lon="9.8220322"><ele>459.0</ele><time>2026-03-28T08:35:08.666Z</time></trkpt><trkpt lat="44.7831495" lon="9.8220628"><ele>462.2</ele><time>2026-03-28T08:35:09.665Z</time></trkpt><trkpt lat="44.7830673" lon="9.822093"><ele>465.4</ele><time>2026-03-28T08:35:10.667Z</time></trkpt><trkpt lat="44.7829862" lon="9.822117"><ele>468.6</ele><time>2026-03-28T08:35:11.665Z</time></trkpt><trkpt lat="44.7828946" lon="9.8221293"><ele>471.8</ele><time>2026-03-28T08:35:12.665Z</time></trkpt><trkpt lat="44.7827938" lon="9.8221226"><ele>475.0</ele><time>2026-03-28T08:35:13.665Z</time></trkpt><trkpt lat="44.7826936" lon="9.8220984"><ele>474.4</ele><time>2026-03-28T08:35:14.666Z</time></trkpt><trkpt lat="44.7825959" lon="9.8220743"><ele>473.8</ele><time>2026-03-28T08:35:15.664Z</time></trkpt><trkpt lat="44.7824991" lon="9.8220774"><ele>473.20000000000005</ele><time>2026-03-28T08:35:16.665Z</time></trkpt><trkpt lat="44.7824059" lon="9.8221096"><ele>472.6</ele><time>2026-03-28T08:35:17.665Z</time></trkpt><trkpt lat="44.7823046" lon="9.8221497"><ele>472.0</ele><time>2026-03-28T08:35:18.665Z</time></trkpt><trkpt lat="44.782204" lon="9.8221699"><ele>472.0</ele><time>2026-03-28T08:35:19.667Z</time></trkpt><trkpt lat="44.7821077" lon="9.8221696"><ele>472.00000000000006</ele><time>2026-03-28T08:35:20.666Z</time></trkpt><trkpt lat="44.7820105" lon="9.8221565"><ele>472.00000000000006</ele><time>2026-03-28T08:35:21.667Z</time></trkpt><trkpt lat="44.781905" lon="9.8221303"><ele>472.0</ele><time>2026-03-28T08:35:22.667Z</time></trkpt><trkpt lat="44.7817978" lon="9.8220869"><ele>472.0</ele><time>2026-03-28T08:35:23.667Z</time></trkpt><trkpt lat="44.7816949" lon="9.8220322"><ele>472.20000000000005</ele><time>2026-03-28T08:35:24.664Z</time></trkpt><trkpt lat="44.7815984" lon="9.8219799"><ele>472.40000000000003</ele><time>2026-03-28T08:35:25.665Z</time></trkpt><trkpt lat="44.7815098" lon="9.8219172"><ele>472.59999999999997</ele><time>2026-03-28T08:35:26.666Z</time></trkpt><trkpt lat="44.7814219" lon="9.8218413"><ele>472.79999999999995</ele><time>2026-03-28T08:35:27.665Z</time></trkpt><trkpt lat="44.7813346" lon="9.8217737"><ele>473.0</ele><time>2026-03-28T08:35:28.665Z</time></trkpt><trkpt lat="44.7812483" lon="9.8217243"><ele>473.0</ele><time>2026-03-28T08:35:29.664Z</time></trkpt><trkpt lat="44.7811631" lon="9.821697"><ele>472.99999999999994</ele><time>2026-03-28T08:35:30.665Z</time></trkpt><trkpt lat="44.7810885" lon="9.8216904"><ele>472.99999999999994</ele><time>2026-03-28T08:35:31.666Z</time></trkpt><trkpt lat="44.7810252" lon="9.8216864"><ele>473.0</ele><time>2026-03-28T08:35:32.667Z</time></trkpt><trkpt lat="44.780933" lon="9.8215997"><ele>473.0</ele><time>2026-03-28T08:35:34.667Z</time></trkpt><trkpt lat="44.7809048" lon="9.8214324"><ele>472.99999999999994</ele><time>2026-03-28T08:35:36.667Z</time></trkpt><trkpt lat="44.7808936" lon="9.8213443"><ele>473.0</ele><time>2026-03-28T08:35:37.667Z</time></trkpt><trkpt lat="44.7808723" lon="9.8212597"><ele>473.0</ele><time>2026-03-28T08:35:38.667Z</time></trkpt><trkpt lat="44.7808412" lon="9.8211615"><ele>473.0</ele><time>2026-03-28T08:35:39.666Z</time></trkpt><trkpt lat="44.7807968" lon="9.8210673"><ele>472.99999999999994</ele><time>2026-03-28T08:35:40.666Z</time></trkpt><trkpt lat="44.780739" lon="9.8209683"><ele>473.0</ele><time>2026-03-28T08:35:41.667Z</time></trkpt><trkpt lat="44.780685" lon="9.8208674"><ele>470.99999999999994</ele><time>2026-03-28T08:35:42.667Z</time></trkpt><trkpt lat="44.7806383" lon="9.8207453"><ele>469.0</ele><time>2026-03-28T08:35:43.667Z</time></trkpt><trkpt lat="44.7806045" lon="9.8206229"><ele>467.0</ele><time>2026-03-28T08:35:44.668Z</time></trkpt><trkpt lat="44.7805886" lon="9.8205078"><ele>465.0</ele><time>2026-03-28T08:35:45.667Z</time></trkpt><trkpt lat="44.7805879" lon="9.8203984"><ele>462.99999999999994</ele><time>2026-03-28T08:35:46.666Z</time></trkpt><trkpt lat="44.7805986" lon="9.8202946"><ele>461.0</ele><time>2026-03-28T08:35:47.664Z</time></trkpt><trkpt lat="44.7806126" lon="9.8201995"><ele>460.3333333333333</ele><time>2026-03-28T08:35:48.664Z</time></trkpt><trkpt lat="44.7806276" lon="9.8201094"><ele>459.66666666666663</ele><time>2026-03-28T08:35:49.666Z</time></trkpt><trkpt lat="44.7806458" lon="9.8200109"><ele>459.0</ele><time>2026-03-28T08:35:50.666Z</time></trkpt><trkpt lat="44.7806741" lon="9.8199086"><ele>458.33333333333337</ele><time>2026-03-28T08:35:51.666Z</time></trkpt><trkpt lat="44.7807141" lon="9.8197936"><ele>457.6666666666667</ele><time>2026-03-28T08:35:52.668Z</time></trkpt><trkpt lat="44.7807523" lon="9.8196754"><ele>457.0</ele><time>2026-03-28T08:35:53.667Z</time></trkpt><trkpt lat="44.7807812" lon="9.8195558"><ele>457.0</ele><time>2026-03-28T08:35:54.666Z</time></trkpt><trkpt lat="44.7807967" lon="9.819435"><ele>457.00000000000006</ele><time>2026-03-28T08:35:55.665Z</time></trkpt><trkpt lat="44.7807983" lon="9.8193056"><ele>457.00000000000006</ele><time>2026-03-28T08:35:56.665Z</time></trkpt><trkpt lat="44.7807968" lon="9.8191667"><ele>457.0</ele><time>2026-03-28T08:35:57.665Z</time></trkpt><trkpt lat="44.7808001" lon="9.8190309"><ele>457.0</ele><time>2026-03-28T08:35:58.664Z</time></trkpt><trkpt lat="44.7808096" lon="9.8189015"><ele>457.20000000000005</ele><time>2026-03-28T08:35:59.664Z</time></trkpt><trkpt lat="44.7808134" lon="9.8187791"><ele>457.40000000000003</ele><time>2026-03-28T08:36:00.665Z</time></trkpt><trkpt lat="44.7808168" lon="9.8186652"><ele>457.59999999999997</ele><time>2026-03-28T08:36:01.666Z</time></trkpt><trkpt lat="44.7808175" lon="9.8185645"><ele>457.79999999999995</ele><time>2026-03-28T08:36:02.667Z</time></trkpt><trkpt lat="44.7807881" lon="9.8184047"><ele>458.0</ele><time>2026-03-28T08:36:04.666Z</time></trkpt><trkpt lat="44.7806918" lon="9.8183121"><ele>456.49999999999994</ele><time>2026-03-28T08:36:06.664Z</time></trkpt><trkpt lat="44.7806262" lon="9.818298"><ele>455.0</ele><time>2026-03-28T08:36:07.665Z</time></trkpt><trkpt lat="44.7805512" lon="9.81831"><ele>453.5</ele><time>2026-03-28T08:36:08.666Z</time></trkpt><trkpt lat="44.7804793" lon="9.8183418"><ele>452.0</ele><time>2026-03-28T08:36:09.666Z</time></trkpt><trkpt lat="44.7804178" lon="9.8183864"><ele>450.49999999999994</ele><time>2026-03-28T08:36:10.666Z</time></trkpt><trkpt lat="44.7803126" lon="9.8184168"><ele>449.0</ele><time>2026-03-28T08:36:12.665Z</time></trkpt><trkpt lat="44.7802035" lon="9.8183554"><ele>449.99999999999994</ele><time>2026-03-28T08:36:14.666Z</time></trkpt><trkpt lat="44.7801424" lon="9.8182802"><ele>451.0</ele><time>2026-03-28T08:36:15.664Z</time></trkpt><trkpt lat="44.7800857" lon="9.8181791"><ele>452.0</ele><time>2026-03-28T08:36:16.665Z</time></trkpt><trkpt lat="44.7800418" lon="9.8180627"><ele>453.0</ele><time>2026-03-28T08:36:17.666Z</time></trkpt><trkpt lat="44.7800124" lon="9.8179396"><ele>453.99999999999994</ele><time>2026-03-28T08:36:18.665Z</time></trkpt><trkpt lat="44.7800014" lon="9.8178191"><ele>455.0</ele><time>2026-03-28T08:36:19.665Z</time></trkpt><trkpt lat="44.7800121" lon="9.8177031"><ele>452.99999999999994</ele><time>2026-03-28T08:36:20.666Z</time></trkpt><trkpt lat="44.7800467" lon="9.8175962"><ele>451.0</ele><time>2026-03-28T08:36:21.665Z</time></trkpt><trkpt lat="44.7800886" lon="9.8174928"><ele>449.0</ele><time>2026-03-28T08:36:22.665Z</time></trkpt><trkpt lat="44.7801314" lon="9.8173968"><ele>447.0</ele><time>2026-03-28T08:36:23.666Z</time></trkpt><trkpt lat="44.7801754" lon="9.8173164"><ele>444.99999999999994</ele><time>2026-03-28T08:36:24.665Z</time></trkpt><trkpt lat="44.780211" lon="9.8172417"><ele>443.0</ele><time>2026-03-28T08:36:25.665Z</time></trkpt><trkpt lat="44.7802152" lon="9.8170877"><ele>442.99999999999994</ele><time>2026-03-28T08:36:27.664Z</time></trkpt><trkpt lat="44.7801638" lon="9.8170032"><ele>443.0</ele><time>2026-03-28T08:36:29.665Z</time></trkpt><trkpt lat="44.7800762" lon="9.8169821"><ele>443.0</ele><time>2026-03-28T08:36:31.666Z</time></trkpt><trkpt lat="44.7800067" lon="9.816959"><ele>443.0</ele><time>2026-03-28T08:36:32.667Z</time></trkpt><trkpt lat="44.7799286" lon="9.8169225"><ele>442.99999999999994</ele><time>2026-03-28T08:36:33.666Z</time></trkpt><trkpt lat="44.7798381" lon="9.8168745"><ele>443.0</ele><time>2026-03-28T08:36:34.664Z</time></trkpt><trkpt lat="44.77973" lon="9.8168139"><ele>441.99999999999994</ele><time>2026-03-28T08:36:35.666Z</time></trkpt><trkpt lat="44.779638" lon="9.816753"><ele>441.0</ele><time>2026-03-28T08:36:36.665Z</time></trkpt><trkpt lat="44.7795555" lon="9.8166972"><ele>440.0</ele><time>2026-03-28T08:36:37.664Z</time></trkpt><trkpt lat="44.7794792" lon="9.8166737"><ele>439.0</ele><time>2026-03-28T08:36:38.666Z</time></trkpt><trkpt lat="44.7794037" lon="9.8166681"><ele>437.99999999999994</ele><time>2026-03-28T08:36:39.665Z</time></trkpt><trkpt lat="44.7793195" lon="9.8167192"><ele>437.0</ele><time>2026-03-28T08:36:40.664Z</time></trkpt><trkpt lat="44.7792464" lon="9.8167799"><ele>440.16666666666663</ele><time>2026-03-28T08:36:41.667Z</time></trkpt><trkpt lat="44.7791772" lon="9.8168433"><ele>443.3333333333333</ele><time>2026-03-28T08:36:42.665Z</time></trkpt><trkpt lat="44.7791115" lon="9.8168995"><ele>446.5</ele><time>2026-03-28T08:36:43.665Z</time></trkpt><trkpt lat="44.7790521" lon="9.8169405"><ele>449.66666666666663</ele><time>2026-03-28T08:36:44.666Z</time></trkpt><trkpt lat="44.7789257" lon="9.8169413"><ele>452.8333333333333</ele><time>2026-03-28T08:36:46.664Z</time></trkpt><trkpt lat="44.7788605" lon="9.8169121"><ele>456.0</ele><time>2026-03-28T08:36:47.666Z</time></trkpt><trkpt lat="44.7787919" lon="9.8168861"><ele>456.0</ele><time>2026-03-28T08:36:48.664Z</time></trkpt><trkpt lat="44.7787329" lon="9.8168465"><ele>456.0</ele><time>2026-03-28T08:36:49.666Z</time></trkpt><trkpt lat="44.7786628" lon="9.8167283"><ele>456.0</ele><time>2026-03-28T08:36:51.666Z</time></trkpt><trkpt lat="44.7786299" lon="9.8165767"><ele>456.0</ele><time>2026-03-28T08:36:53.667Z</time></trkpt><trkpt lat="44.7785798" lon="9.8164394"><ele>456.0</ele><time>2026-03-28T08:36:55.665Z</time></trkpt><trkpt lat="44.7784778" lon="9.8163425"><ele>458.20000000000005</ele><time>2026-03-28T08:36:57.664Z</time></trkpt><trkpt lat="44.7784041" lon="9.8163138"><ele>460.40000000000003</ele><time>2026-03-28T08:36:58.666Z</time></trkpt><trkpt lat="44.7783186" lon="9.8162792"><ele>462.6</ele><time>2026-03-28T08:36:59.667Z</time></trkpt><trkpt lat="44.778231" lon="9.8162441"><ele>464.8</ele><time>2026-03-28T08:37:00.666Z</time></trkpt><trkpt lat="44.7781432" lon="9.8161942"><ele>467.0</ele><time>2026-03-28T08:37:01.664Z</time></trkpt><trkpt lat="44.778053" lon="9.8161278"><ele>467.0</ele><time>2026-03-28T08:37:02.665Z</time></trkpt><trkpt lat="44.7779546" lon="9.8160707"><ele>467.00000000000006</ele><time>2026-03-28T08:37:03.666Z</time></trkpt><trkpt lat="44.7778526" lon="9.8160304"><ele>467.00000000000006</ele><time>2026-03-28T08:37:04.665Z</time></trkpt><trkpt lat="44.7777609" lon="9.8159952"><ele>467.0</ele><time>2026-03-28T08:37:05.666Z</time></trkpt><trkpt lat="44.7776879" lon="9.8159502"><ele>467.0</ele><time>2026-03-28T08:37:06.664Z</time></trkpt><trkpt lat="44.7776251" lon="9.8158849"><ele>470.66666666666663</ele><time>2026-03-28T08:37:07.665Z</time></trkpt><trkpt lat="44.7775633" lon="9.8158076"><ele>474.3333333333333</ele><time>2026-03-28T08:37:08.665Z</time></trkpt><trkpt lat="44.7775064" lon="9.8157217"><ele>478.0</ele><time>2026-03-28T08:37:09.664Z</time></trkpt><trkpt lat="44.7774495" lon="9.8156281"><ele>481.66666666666663</ele><time>2026-03-28T08:37:10.664Z</time></trkpt><trkpt lat="44.7773972" lon="9.815529"><ele>485.3333333333333</ele><time>2026-03-28T08:37:11.667Z</time></trkpt><trkpt lat="44.7773504" lon="9.8154356"><ele>489.0</ele><time>2026-03-28T08:37:12.664Z</time></trkpt><trkpt lat="44.7772989" lon="9.8153402"><ele>489.0</ele><time>2026-03-28T08:37:13.665Z</time></trkpt><trkpt lat="44.7772384" lon="9.8152536"><ele>489.0</ele><time>2026-03-28T08:37:14.666Z</time></trkpt><trkpt lat="44.7771572" lon="9.8151811"><ele>489.0</ele><time>2026-03-28T08:37:15.666Z</time></trkpt><trkpt lat="44.7770777" lon="9.8151088"><ele>489.0</ele><time>2026-03-28T08:37:16.665Z</time></trkpt><trkpt lat="44.7770088" lon="9.8150368"><ele>489.0</ele><time>2026-03-28T08:37:17.667Z</time></trkpt><trkpt lat="44.7769522" lon="9.8149607"><ele>489.0</ele><time>2026-03-28T08:37:18.666Z</time></trkpt><trkpt lat="44.7769138" lon="9.8148644"><ele>489.8333333333333</ele><time>2026-03-28T08:37:19.669Z</time></trkpt><trkpt lat="44.776883" lon="9.8147548"><ele>490.66666666666663</ele><time>2026-03-28T08:37:20.667Z</time></trkpt><trkpt lat="44.77685" lon="9.8146565"><ele>491.5</ele><time>2026-03-28T08:37:21.669Z</time></trkpt><trkpt lat="44.7768167" lon="9.8145648"><ele>492.3333333333333</ele><time>2026-03-28T08:37:22.667Z</time></trkpt><trkpt lat="44.7767726" lon="9.8144328"><ele>493.16666666666663</ele><time>2026-03-28T08:37:24.666Z</time></trkpt><trkpt lat="44.7767045" lon="9.8144018"><ele>494.0</ele><time>2026-03-28T08:37:27.666Z</time></trkpt><trkpt lat="44.7766547" lon="9.8144686"><ele>498.4</ele><time>2026-03-28T08:37:29.666Z</time></trkpt><trkpt lat="44.7766028" lon="9.81462"><ele>502.79999999999995</ele><time>2026-03-28T08:37:31.664Z</time></trkpt><trkpt lat="44.7765489" lon="9.8147521"><ele>507.20000000000005</ele><time>2026-03-28T08:37:33.665Z</time></trkpt><trkpt lat="44.7765033" lon="9.8148433"><ele>511.6</ele><time>2026-03-28T08:37:35.666Z</time></trkpt><trkpt lat="44.7764333" lon="9.8148017"><ele>516.0</ele><time>2026-03-28T08:37:38.667Z</time></trkpt><trkpt lat="44.7763733" lon="9.8146783"><ele>516.0</ele><time>2026-03-28T08:37:40.665Z</time></trkpt><trkpt lat="44.776325" lon="9.8146133"><ele>516.0</ele><time>2026-03-28T08:37:41.666Z</time></trkpt><trkpt lat="44.77627" lon="9.8145617"><ele>516.0</ele><time>2026-03-28T08:37:42.665Z</time></trkpt><trkpt lat="44.7762117" lon="9.814515"><ele>516.0</ele><time>2026-03-28T08:37:43.665Z</time></trkpt><trkpt lat="44.7761167" lon="9.81444"><ele>516.0</ele><time>2026-03-28T08:37:45.666Z</time></trkpt><trkpt lat="44.7760083" lon="9.8144483"><ele>516.0</ele><time>2026-03-28T08:37:47.666Z</time></trkpt><trkpt lat="44.7759117" lon="9.8145267"><ele>519.1666666666666</ele><time>2026-03-28T08:37:49.666Z</time></trkpt><trkpt lat="44.7758583" lon="9.8145767"><ele>522.3333333333334</ele><time>2026-03-28T08:37:50.665Z</time></trkpt><trkpt lat="44.7758" lon="9.814625"><ele>525.5</ele><time>2026-03-28T08:37:51.666Z</time></trkpt><trkpt lat="44.7757433" lon="9.8146683"><ele>528.6666666666667</ele><time>2026-03-28T08:37:52.665Z</time></trkpt><trkpt lat="44.7756567" lon="9.814745"><ele>531.8333333333334</ele><time>2026-03-28T08:37:54.664Z</time></trkpt><trkpt lat="44.7755767" lon="9.8148033"><ele>535.0</ele><time>2026-03-28T08:38:04.664Z</time></trkpt><trkpt lat="44.7756117" lon="9.8147"><ele>535.0</ele><time>2026-03-28T08:38:09.665Z</time></trkpt><trkpt lat="44.7756767" lon="9.8146417"><ele>535.0</ele><time>2026-03-28T08:38:11.666Z</time></trkpt><trkpt lat="44.77573" lon="9.8145617"><ele>535.0</ele><time>2026-03-28T08:38:13.667Z</time></trkpt><trkpt lat="44.7757783" lon="9.8144333"><ele>535.0</ele><time>2026-03-28T08:38:15.666Z</time></trkpt><trkpt lat="44.7757667" lon="9.8142733"><ele>535.0</ele><time>2026-03-28T08:38:17.666Z</time></trkpt><trkpt lat="44.7757433" lon="9.8141733"><ele>535.0</ele><time>2026-03-28T08:38:18.666Z</time></trkpt><trkpt lat="44.7757067" lon="9.814055"><ele>536.6</ele><time>2026-03-28T08:38:19.666Z</time></trkpt><trkpt lat="44.7756667" lon="9.8139333"><ele>538.2</ele><time>2026-03-28T08:38:20.666Z</time></trkpt><trkpt lat="44.775625" lon="9.813795"><ele>539.8</ele><time>2026-03-28T08:38:21.667Z</time></trkpt><trkpt lat="44.7756017" lon="9.8136483"><ele>541.4</ele><time>2026-03-28T08:38:22.665Z</time></trkpt><trkpt lat="44.7755933" lon="9.8135183"><ele>543.0</ele><time>2026-03-28T08:38:23.666Z</time></trkpt><trkpt lat="44.7756033" lon="9.81341"><ele>544.1999999999999</ele><time>2026-03-28T08:38:24.666Z</time></trkpt><trkpt lat="44.77564" lon="9.81331"><ele>545.4</ele><time>2026-03-28T08:38:25.664Z</time></trkpt><trkpt lat="44.7756917" lon="9.813215"><ele>546.5999999999999</ele><time>2026-03-28T08:38:26.666Z</time></trkpt><trkpt lat="44.7757583" lon="9.8131217"><ele>547.8</ele><time>2026-03-28T08:38:27.665Z</time></trkpt><trkpt lat="44.7758417" lon="9.8130217"><ele>549.0</ele><time>2026-03-28T08:38:28.664Z</time></trkpt><trkpt lat="44.7759283" lon="9.8129083"><ele>548.2</ele><time>2026-03-28T08:38:29.665Z</time></trkpt><trkpt lat="44.7760217" lon="9.8127883"><ele>547.4</ele><time>2026-03-28T08:38:30.666Z</time></trkpt><trkpt lat="44.7761117" lon="9.81267"><ele>546.6</ele><time>2026-03-28T08:38:31.665Z</time></trkpt><trkpt lat="44.776185" lon="9.8125667"><ele>545.8</ele><time>2026-03-28T08:38:32.666Z</time></trkpt><trkpt lat="44.77625" lon="9.8124733"><ele>545.0</ele><time>2026-03-28T08:38:33.666Z</time></trkpt><trkpt lat="44.7763117" lon="9.81239"><ele>545.0</ele><time>2026-03-28T08:38:34.665Z</time></trkpt><trkpt lat="44.7763667" lon="9.8123233"><ele>545.0</ele><time>2026-03-28T08:38:35.665Z</time></trkpt><trkpt lat="44.7764333" lon="9.812215"><ele>545.0</ele><time>2026-03-28T08:38:37.664Z</time></trkpt><trkpt lat="44.7764217" lon="9.812075"><ele>545.0</ele><time>2026-03-28T08:38:40.666Z</time></trkpt><trkpt lat="44.7764033" lon="9.811985"><ele>545.0</ele><time>2026-03-28T08:38:42.666Z</time></trkpt><trkpt lat="44.7763833" lon="9.8118667"><ele>545.0</ele><time>2026-03-28T08:38:45.667Z</time></trkpt><trkpt lat="44.7763083" lon="9.8118367"><ele>545.0</ele><time>2026-03-28T08:38:47.665Z</time></trkpt><trkpt lat="44.7761867" lon="9.8118483"><ele>545.0</ele><time>2026-03-28T08:38:49.665Z</time></trkpt><trkpt lat="44.77612" lon="9.8118533"><ele>545.0</ele><time>2026-03-28T08:38:50.666Z</time></trkpt><trkpt lat="44.776" lon="9.81187"><ele>545.0</ele><time>2026-03-28T08:38:52.665Z</time></trkpt><trkpt lat="44.7758817" lon="9.8118933"><ele>545.0</ele><time>2026-03-28T08:38:54.665Z</time></trkpt><trkpt lat="44.7757717" lon="9.811875"><ele>548.6</ele><time>2026-03-28T08:38:56.666Z</time></trkpt><trkpt lat="44.7756967" lon="9.81184"><ele>552.2</ele><time>2026-03-28T08:38:58.665Z</time></trkpt><trkpt lat="44.77562" lon="9.81183"><ele>555.8</ele><time>2026-03-28T08:39:31.665Z</time></trkpt><trkpt lat="44.7755167" lon="9.8118"><ele>559.4</ele><time>2026-03-28T08:39:33.697Z</time></trkpt><trkpt lat="44.775385" lon="9.81178"><ele>563.0</ele><time>2026-03-28T08:39:35.665Z</time></trkpt><trkpt lat="44.775315" lon="9.811775"><ele>563.0</ele><time>2026-03-28T08:39:36.667Z</time></trkpt><trkpt lat="44.77525" lon="9.8117733"><ele>563.0</ele><time>2026-03-28T08:39:37.667Z</time></trkpt><trkpt lat="44.7751317" lon="9.8117933"><ele>563.0</ele><time>2026-03-28T08:39:39.665Z</time></trkpt><trkpt lat="44.7750583" lon="9.81181"><ele>563.0</ele><time>2026-03-28T08:39:40.666Z</time></trkpt><trkpt lat="44.77498" lon="9.8118183"><ele>563.0</ele><time>2026-03-28T08:39:41.665Z</time></trkpt><trkpt lat="44.7748983" lon="9.8118183"><ele>563.0</ele><time>2026-03-28T08:39:42.665Z</time></trkpt><trkpt lat="44.77481" lon="9.8118267"><ele>567.4</ele><time>2026-03-28T08:39:43.664Z</time></trkpt><trkpt lat="44.7747133" lon="9.81185"><ele>571.8</ele><time>2026-03-28T08:39:44.666Z</time></trkpt><trkpt lat="44.7746183" lon="9.8118883"><ele>576.2</ele><time>2026-03-28T08:39:45.665Z</time></trkpt><trkpt lat="44.774535" lon="9.81193"><ele>580.6</ele><time>2026-03-28T08:39:46.665Z</time></trkpt><trkpt lat="44.77445" lon="9.8119733"><ele>585.0</ele><time>2026-03-28T08:39:47.667Z</time></trkpt><trkpt lat="44.7743667" lon="9.8120167"><ele>585.8333333333334</ele><time>2026-03-28T08:39:48.666Z</time></trkpt><trkpt lat="44.7742933" lon="9.812045"><ele>586.6666666666666</ele><time>2026-03-28T08:39:49.667Z</time></trkpt><trkpt lat="44.7741867" lon="9.81206"><ele>587.5</ele><time>2026-03-28T08:39:51.669Z</time></trkpt><trkpt lat="44.774115" lon="9.8120533"><ele>588.3333333333333</ele><time>2026-03-28T08:39:53.667Z</time></trkpt><trkpt lat="44.7741917" lon="9.8121333"><ele>589.1666666666666</ele><time>2026-03-28T08:40:04.665Z</time></trkpt><trkpt lat="44.7742817" lon="9.8121667"><ele>590.0</ele><time>2026-03-28T08:40:06.665Z</time></trkpt><trkpt lat="44.774295" lon="9.8122717"><ele>590.0</ele><time>2026-03-28T08:40:09.664Z</time></trkpt><trkpt lat="44.7742333" lon="9.8123333"><ele>590.0</ele><time>2026-03-28T08:40:12.664Z</time></trkpt><trkpt lat="44.7741317" lon="9.812395"><ele>590.0</ele><time>2026-03-28T08:40:15.665Z</time></trkpt><trkpt lat="44.774075" lon="9.8124367"><ele>590.0</ele><time>2026-03-28T08:40:16.666Z</time></trkpt><trkpt lat="44.774015" lon="9.812485"><ele>590.0</ele><time>2026-03-28T08:40:17.666Z</time></trkpt><trkpt lat="44.7739083" lon="9.8125667"><ele>590.0</ele><time>2026-03-28T08:40:19.667Z</time></trkpt><trkpt lat="44.7738483" lon="9.8126133"><ele>589.0</ele><time>2026-03-28T08:40:20.668Z</time></trkpt><trkpt lat="44.77379" lon="9.8126783"><ele>588.0</ele><time>2026-03-28T08:40:21.667Z</time></trkpt><trkpt lat="44.7737433" lon="9.81275"><ele>587.0</ele><time>2026-03-28T08:40:22.667Z</time></trkpt><trkpt lat="44.7736667" lon="9.8128683"><ele>586.0</ele><time>2026-03-28T08:40:24.667Z</time></trkpt><trkpt lat="44.7736083" lon="9.8129367"><ele>585.0</ele><time>2026-03-28T08:40:26.669Z</time></trkpt><trkpt lat="44.7736367" lon="9.8128467"><ele>584.0</ele><time>2026-03-28T08:40:59.664Z</time></trkpt><trkpt lat="44.7737017" lon="9.812735"><ele>585.0</ele><time>2026-03-28T08:41:11.665Z</time></trkpt><trkpt lat="44.7737983" lon="9.81263"><ele>586.0</ele><time>2026-03-28T08:41:13.666Z</time></trkpt><trkpt lat="44.7738583" lon="9.8125733"><ele>587.0</ele><time>2026-03-28T08:41:14.667Z</time></trkpt><trkpt lat="44.7739133" lon="9.8125267"><ele>588.0</ele><time>2026-03-28T08:41:15.665Z</time></trkpt><trkpt lat="44.773975" lon="9.8124867"><ele>589.0</ele><time>2026-03-28T08:41:16.666Z</time></trkpt><trkpt lat="44.7740783" lon="9.8124267"><ele>590.0</ele><time>2026-03-28T08:41:18.666Z</time></trkpt><trkpt lat="44.7741333" lon="9.81237"><ele>590.0</ele><time>2026-03-28T08:41:20.668Z</time></trkpt><trkpt lat="44.77408" lon="9.81231"><ele>590.0</ele><time>2026-03-28T08:41:23.666Z</time></trkpt><trkpt lat="44.773995" lon="9.81233"><ele>590.0</ele><time>2026-03-28T08:41:25.666Z</time></trkpt><trkpt lat="44.7738867" lon="9.8123283"><ele>590.0</ele><time>2026-03-28T08:41:27.665Z</time></trkpt><trkpt lat="44.7738133" lon="9.8123433"><ele>590.0</ele><time>2026-03-28T08:41:28.667Z</time></trkpt><trkpt lat="44.7737417" lon="9.8123617"><ele>590.0</ele><time>2026-03-28T08:41:29.664Z</time></trkpt><trkpt lat="44.7736667" lon="9.8123617"><ele>590.0</ele><time>2026-03-28T08:41:30.665Z</time></trkpt><trkpt lat="44.773585" lon="9.81236"><ele>590.0</ele><time>2026-03-28T08:41:31.666Z</time></trkpt><trkpt lat="44.7734967" lon="9.8123683"><ele>590.0</ele><time>2026-03-28T08:41:32.666Z</time></trkpt><trkpt lat="44.7734033" lon="9.8123717"><ele>590.0</ele><time>2026-03-28T08:41:33.666Z</time></trkpt><trkpt lat="44.7733283" lon="9.81236"><ele>590.0</ele><time>2026-03-28T08:41:34.664Z</time></trkpt><trkpt lat="44.7732617" lon="9.8123567"><ele>590.0</ele><time>2026-03-28T08:41:35.665Z</time></trkpt><trkpt lat="44.7731917" lon="9.8123617"><ele>594.6</ele><time>2026-03-28T08:41:36.664Z</time></trkpt><trkpt lat="44.7731167" lon="9.8123583"><ele>599.2</ele><time>2026-03-28T08:41:37.666Z</time></trkpt><trkpt lat="44.7729983" lon="9.8123383"><ele>603.8</ele><time>2026-03-28T08:41:39.665Z</time></trkpt><trkpt lat="44.77289" lon="9.812365"><ele>608.4</ele><time>2026-03-28T08:41:41.666Z</time></trkpt><trkpt lat="44.772865" lon="9.812465"><ele>613.0</ele><time>2026-03-28T08:42:31.665Z</time></trkpt><trkpt lat="44.772875" lon="9.81261"><ele>612.4</ele><time>2026-03-28T08:42:33.664Z</time></trkpt><trkpt lat="44.7728383" lon="9.8127333"><ele>611.8</ele><time>2026-03-28T08:42:35.666Z</time></trkpt><trkpt lat="44.7727333" lon="9.8128467"><ele>611.2</ele><time>2026-03-28T08:42:37.665Z</time></trkpt><trkpt lat="44.7726783" lon="9.812905"><ele>610.6</ele><time>2026-03-28T08:42:38.664Z</time></trkpt><trkpt lat="44.7726217" lon="9.8129517"><ele>610.0</ele><time>2026-03-28T08:42:39.664Z</time></trkpt><trkpt lat="44.7725067" lon="9.812975"><ele>616.3333333333334</ele><time>2026-03-28T08:42:41.665Z</time></trkpt><trkpt lat="44.7724433" lon="9.8129783"><ele>622.6666666666667</ele><time>2026-03-28T08:42:42.664Z</time></trkpt><trkpt lat="44.772375" lon="9.812995"><ele>629.0</ele><time>2026-03-28T08:42:43.666Z</time></trkpt><trkpt lat="44.772295" lon="9.8130283"><ele>635.3333333333334</ele><time>2026-03-28T08:42:44.665Z</time></trkpt><trkpt lat="44.772215" lon="9.8130583"><ele>641.6666666666666</ele><time>2026-03-28T08:42:45.665Z</time></trkpt><trkpt lat="44.7721333" lon="9.8130933"><ele>648.0</ele><time>2026-03-28T08:42:46.666Z</time></trkpt><trkpt lat="44.7720583" lon="9.8131167"><ele>648.0</ele><time>2026-03-28T08:42:47.665Z</time></trkpt><trkpt lat="44.7719933" lon="9.8131367"><ele>648.0</ele><time>2026-03-28T08:42:48.666Z</time></trkpt><trkpt lat="44.771935" lon="9.8131717"><ele>648.0</ele><time>2026-03-28T08:42:49.665Z</time></trkpt><trkpt lat="44.77188" lon="9.813225"><ele>648.0</ele><time>2026-03-28T08:42:50.666Z</time></trkpt><trkpt lat="44.7718317" lon="9.81334"><ele>648.0</ele><time>2026-03-28T08:42:52.666Z</time></trkpt><trkpt lat="44.77181" lon="9.8134517"><ele>648.0</ele><time>2026-03-28T08:42:55.668Z</time></trkpt><trkpt lat="44.77176" lon="9.8135567"><ele>651.3333333333334</ele><time>2026-03-28T08:42:58.666Z</time></trkpt><trkpt lat="44.7717217" lon="9.8136467"><ele>654.6666666666666</ele><time>2026-03-28T08:43:00.666Z</time></trkpt><trkpt lat="44.7716583" lon="9.813745"><ele>658.0</ele><time>2026-03-28T08:43:02.667Z</time></trkpt><trkpt lat="44.7716033" lon="9.813835"><ele>661.3333333333333</ele><time>2026-03-28T08:43:04.664Z</time></trkpt><trkpt lat="44.7715383" lon="9.8138983"><ele>664.6666666666666</ele><time>2026-03-28T08:43:06.665Z</time></trkpt><trkpt lat="44.77144" lon="9.8138983"><ele>668.0</ele><time>2026-03-28T08:43:08.666Z</time></trkpt><trkpt lat="44.77135" lon="9.813825"><ele>668.0</ele><time>2026-03-28T08:43:10.667Z</time></trkpt><trkpt lat="44.7712617" lon="9.8137867"><ele>668.0</ele><time>2026-03-28T08:43:12.665Z</time></trkpt><trkpt lat="44.771185" lon="9.813855"><ele>668.0</ele><time>2026-03-28T08:43:14.667Z</time></trkpt><trkpt lat="44.77111" lon="9.8139767"><ele>668.0</ele><time>2026-03-28T08:43:16.666Z</time></trkpt><trkpt lat="44.7710583" lon="9.8140367"><ele>668.0</ele><time>2026-03-28T08:43:17.666Z</time></trkpt><trkpt lat="44.7709883" lon="9.8141"><ele>668.0</ele><time>2026-03-28T08:43:18.664Z</time></trkpt><trkpt lat="44.7709183" lon="9.8141633"><ele>670.8</ele><time>2026-03-28T08:43:19.665Z</time></trkpt><trkpt lat="44.7708667" lon="9.8142217"><ele>673.5999999999999</ele><time>2026-03-28T08:43:20.666Z</time></trkpt><trkpt lat="44.77083" lon="9.8143467"><ele>676.4000000000001</ele><time>2026-03-28T08:43:22.664Z</time></trkpt><trkpt lat="44.7707867" lon="9.8144767"><ele>679.2</ele><time>2026-03-28T08:43:24.665Z</time></trkpt><trkpt lat="44.7707267" lon="9.8146533"><ele>682.0</ele><time>2026-03-28T08:43:26.665Z</time></trkpt><trkpt lat="44.77069" lon="9.8147617"><ele>685.5</ele><time>2026-03-28T08:43:27.665Z</time></trkpt><trkpt lat="44.7706533" lon="9.814865"><ele>689.0</ele><time>2026-03-28T08:43:28.665Z</time></trkpt><trkpt lat="44.7706267" lon="9.81497"><ele>692.5</ele><time>2026-03-28T08:43:29.665Z</time></trkpt><trkpt lat="44.7705967" lon="9.815055"><ele>696.0</ele><time>2026-03-28T08:43:30.666Z</time></trkpt><trkpt lat="44.77058" lon="9.815185"><ele>699.5</ele><time>2026-03-28T08:43:32.665Z</time></trkpt><trkpt lat="44.7705842" lon="9.8152836"><ele>703.0</ele><time>2026-03-28T08:43:45.739Z</time></trkpt><trkpt lat="44.7705457" lon="9.8153656"><ele>703.8333333333334</ele><time>2026-03-28T08:43:50.732Z</time></trkpt><trkpt lat="44.7704629" lon="9.8154665"><ele>704.6666666666667</ele><time>2026-03-28T08:44:01.665Z</time></trkpt><trkpt lat="44.7704169" lon="9.8155298"><ele>705.5</ele><time>2026-03-28T08:44:04.668Z</time></trkpt><trkpt lat="44.7704603" lon="9.8154258"><ele>706.3333333333334</ele><time>2026-03-28T08:55:11.722Z</time></trkpt><trkpt lat="44.7705154" lon="9.8153733"><ele>707.1666666666666</ele><time>2026-03-28T08:55:33.668Z</time></trkpt><trkpt lat="44.7705746" lon="9.8152766"><ele>708.0</ele><time>2026-03-28T08:55:34.707Z</time></trkpt><trkpt lat="44.77066" lon="9.815165"><ele>707.2857142857143</ele><time>2026-03-28T08:55:46.665Z</time></trkpt><trkpt lat="44.77067" lon="9.81507"><ele>706.5714285714286</ele><time>2026-03-28T08:55:49.666Z</time></trkpt><trkpt lat="44.77069" lon="9.8149433"><ele>705.8571428571429</ele><time>2026-03-28T08:55:52.665Z</time></trkpt><trkpt lat="44.7707167" lon="9.8148617"><ele>705.1428571428571</ele><time>2026-03-28T08:55:55.666Z</time></trkpt><trkpt lat="44.77073" lon="9.8147667"><ele>704.4285714285714</ele><time>2026-03-28T08:56:18.664Z</time></trkpt><trkpt lat="44.77077" lon="9.8146867"><ele>703.7142857142857</ele><time>2026-03-28T08:56:20.666Z</time></trkpt><trkpt lat="44.77081" lon="9.8145883"><ele>703.0</ele><time>2026-03-28T08:56:22.665Z</time></trkpt><trkpt lat="44.7708533" lon="9.814485"><ele>703.0</ele><time>2026-03-28T08:56:24.665Z</time></trkpt><trkpt lat="44.77089" lon="9.8143883"><ele>703.0</ele><time>2026-03-28T08:56:26.665Z</time></trkpt><trkpt lat="44.7708917" lon="9.8142517"><ele>703.0</ele><time>2026-03-28T08:56:33.666Z</time></trkpt><trkpt lat="44.77094" lon="9.8141833"><ele>703.0</ele><time>2026-03-28T08:56:35.665Z</time></trkpt><trkpt lat="44.7710067" lon="9.8141017"><ele>703.0</ele><time>2026-03-28T08:56:37.665Z</time></trkpt><trkpt lat="44.7710817" lon="9.8140217"><ele>703.0</ele><time>2026-03-28T08:56:39.666Z</time></trkpt><trkpt lat="44.7711383" lon="9.8139467"><ele>698.0</ele><time>2026-03-28T08:56:41.666Z</time></trkpt><trkpt lat="44.771185" lon="9.813875"><ele>693.0</ele><time>2026-03-28T08:56:43.665Z</time></trkpt><trkpt lat="44.7712433" lon="9.8138033"><ele>688.0</ele><time>2026-03-28T08:56:46.665Z</time></trkpt><trkpt lat="44.77131" lon="9.8137967"><ele>683.0</ele><time>2026-03-28T08:57:25.664Z</time></trkpt><trkpt lat="44.7713717" lon="9.81386"><ele>678.0</ele><time>2026-03-28T08:57:27.665Z</time></trkpt><trkpt lat="44.7714367" lon="9.813925"><ele>673.0</ele><time>2026-03-28T08:57:29.664Z</time></trkpt><trkpt lat="44.7715083" lon="9.813935"><ele>668.0</ele><time>2026-03-28T08:57:31.665Z</time></trkpt><trkpt lat="44.7716033" lon="9.8138683"><ele>668.0</ele><time>2026-03-28T08:57:33.666Z</time></trkpt><trkpt lat="44.771695" lon="9.813745"><ele>668.0</ele><time>2026-03-28T08:57:35.666Z</time></trkpt><trkpt lat="44.7717717" lon="9.8136183"><ele>668.0</ele><time>2026-03-28T08:57:37.665Z</time></trkpt><trkpt lat="44.77184" lon="9.8134783"><ele>668.0</ele><time>2026-03-28T08:57:39.666Z</time></trkpt><trkpt lat="44.771905" lon="9.8133433"><ele>664.6666666666666</ele><time>2026-03-28T08:57:41.665Z</time></trkpt><trkpt lat="44.7719567" lon="9.8132117"><ele>661.3333333333333</ele><time>2026-03-28T08:57:43.665Z</time></trkpt><trkpt lat="44.7720233" lon="9.8131"><ele>658.0</ele><time>2026-03-28T08:57:45.666Z</time></trkpt><trkpt lat="44.7720783" lon="9.8130533"><ele>654.6666666666666</ele><time>2026-03-28T08:57:46.664Z</time></trkpt><trkpt lat="44.77215" lon="9.8130167"><ele>651.3333333333334</ele><time>2026-03-28T08:57:47.665Z</time></trkpt><trkpt lat="44.7722133" lon="9.8129833"><ele>648.0</ele><time>2026-03-28T08:57:48.665Z</time></trkpt><trkpt lat="44.772275" lon="9.8129483"><ele>648.0</ele><time>2026-03-28T08:57:49.665Z</time></trkpt><trkpt lat="44.7723333" lon="9.8129117"><ele>648.0</ele><time>2026-03-28T08:57:50.665Z</time></trkpt><trkpt lat="44.772435" lon="9.8128583"><ele>648.0</ele><time>2026-03-28T08:57:52.664Z</time></trkpt><trkpt lat="44.772525" lon="9.8128417"><ele>648.0</ele><time>2026-03-28T08:57:54.665Z</time></trkpt><trkpt lat="44.7726133" lon="9.8127917"><ele>648.0</ele><time>2026-03-28T08:57:56.665Z</time></trkpt><trkpt lat="44.7726933" lon="9.8127117"><ele>642.1666666666666</ele><time>2026-03-28T08:57:58.666Z</time></trkpt><trkpt lat="44.77276" lon="9.8126417"><ele>636.3333333333334</ele><time>2026-03-28T08:58:00.666Z</time></trkpt><trkpt lat="44.7727983" lon="9.812565"><ele>630.5</ele><time>2026-03-28T08:58:02.665Z</time></trkpt><trkpt lat="44.7727867" lon="9.812475"><ele>624.6666666666667</ele><time>2026-03-28T08:58:04.665Z</time></trkpt><trkpt lat="44.7727817" lon="9.812365"><ele>618.8333333333334</ele><time>2026-03-28T08:58:06.665Z</time></trkpt><trkpt lat="44.772865" lon="9.8123067"><ele>613.0</ele><time>2026-03-28T08:58:09.665Z</time></trkpt><trkpt lat="44.7729433" lon="9.8122683"><ele>613.0</ele><time>2026-03-28T08:58:11.666Z</time></trkpt><trkpt lat="44.7730167" lon="9.812275"><ele>613.0</ele><time>2026-03-28T08:58:13.666Z</time></trkpt><trkpt lat="44.7731" lon="9.8123017"><ele>613.0</ele><time>2026-03-28T08:58:15.665Z</time></trkpt><trkpt lat="44.7732" lon="9.812305"><ele>613.0</ele><time>2026-03-28T08:58:17.666Z</time></trkpt><trkpt lat="44.773315" lon="9.812295"><ele>613.0</ele><time>2026-03-28T08:58:19.664Z</time></trkpt><trkpt lat="44.77344" lon="9.8123117"><ele>613.0</ele><time>2026-03-28T08:58:21.754Z</time></trkpt><trkpt lat="44.77351" lon="9.8123117"><ele>613.0</ele><time>2026-03-28T08:58:22.667Z</time></trkpt><trkpt lat="44.77358" lon="9.8123117"><ele>613.0</ele><time>2026-03-28T08:58:23.664Z</time></trkpt><trkpt lat="44.7736517" lon="9.81232"><ele>613.0</ele><time>2026-03-28T08:58:24.664Z</time></trkpt><trkpt lat="44.7737217" lon="9.8123167"><ele>613.0</ele><time>2026-03-28T08:58:25.665Z</time></trkpt><trkpt lat="44.77379" lon="9.8122967"><ele>613.0</ele><time>2026-03-28T08:58:26.668Z</time></trkpt><trkpt lat="44.77386" lon="9.81228"><ele>613.0</ele><time>2026-03-28T08:58:27.665Z</time></trkpt><trkpt lat="44.7739783" lon="9.812305"><ele>609.1666666666667</ele><time>2026-03-28T08:58:29.665Z</time></trkpt><trkpt lat="44.7740883" lon="9.8123"><ele>605.3333333333334</ele><time>2026-03-28T08:58:31.666Z</time></trkpt><trkpt lat="44.77415" lon="9.812335"><ele>601.5</ele><time>2026-03-28T08:58:33.666Z</time></trkpt><trkpt lat="44.7740917" lon="9.8124317"><ele>597.6666666666666</ele><time>2026-03-28T08:58:37.665Z</time></trkpt><trkpt lat="44.7739933" lon="9.8125017"><ele>593.8333333333333</ele><time>2026-03-28T08:58:39.666Z</time></trkpt><trkpt lat="44.773935" lon="9.81254"><ele>590.0</ele><time>2026-03-28T08:58:40.666Z</time></trkpt><trkpt lat="44.7738317" lon="9.812615"><ele>589.0</ele><time>2026-03-28T08:58:42.666Z</time></trkpt><trkpt lat="44.7737817" lon="9.81267"><ele>588.0</ele><time>2026-03-28T08:58:43.664Z</time></trkpt><trkpt lat="44.7737367" lon="9.8127383"><ele>587.0</ele><time>2026-03-28T08:58:44.666Z</time></trkpt><trkpt lat="44.7736967" lon="9.8128083"><ele>586.0</ele><time>2026-03-28T08:58:45.665Z</time></trkpt><trkpt lat="44.7736317" lon="9.8129283"><ele>585.0</ele><time>2026-03-28T08:58:47.665Z</time></trkpt><trkpt lat="44.7735683" lon="9.81306"><ele>584.0</ele><time>2026-03-28T08:58:49.667Z</time></trkpt><trkpt lat="44.7735333" lon="9.8131467"><ele>586.8333333333333</ele><time>2026-03-28T08:58:50.666Z</time></trkpt><trkpt lat="44.7734867" lon="9.813235"><ele>589.6666666666666</ele><time>2026-03-28T08:58:51.667Z</time></trkpt><trkpt lat="44.773435" lon="9.8133217"><ele>592.5</ele><time>2026-03-28T08:58:52.667Z</time></trkpt><trkpt lat="44.77338" lon="9.8134133"><ele>595.3333333333334</ele><time>2026-03-28T08:58:53.666Z</time></trkpt><trkpt lat="44.7733217" lon="9.813515"><ele>598.1666666666667</ele><time>2026-03-28T08:58:54.664Z</time></trkpt><trkpt lat="44.7732633" lon="9.8136217"><ele>601.0</ele><time>2026-03-28T08:58:55.664Z</time></trkpt><trkpt lat="44.7732117" lon="9.8137217"><ele>601.0</ele><time>2026-03-28T08:58:56.666Z</time></trkpt><trkpt lat="44.773165" lon="9.8138067"><ele>601.0</ele><time>2026-03-28T08:58:57.666Z</time></trkpt><trkpt lat="44.7731083" lon="9.813875"><ele>601.0</ele><time>2026-03-28T08:58:58.665Z</time></trkpt><trkpt lat="44.773045" lon="9.8139283"><ele>601.0</ele><time>2026-03-28T08:58:59.664Z</time></trkpt><trkpt lat="44.7729767" lon="9.8139717"><ele>601.0</ele><time>2026-03-28T08:59:00.665Z</time></trkpt><trkpt lat="44.7729133" lon="9.8140217"><ele>601.0</ele><time>2026-03-28T08:59:01.665Z</time></trkpt><trkpt lat="44.7728583" lon="9.814085"><ele>601.0</ele><time>2026-03-28T08:59:02.666Z</time></trkpt><trkpt lat="44.7728467" lon="9.8142133"><ele>600.6666666666667</ele><time>2026-03-28T08:59:04.665Z</time></trkpt><trkpt lat="44.7728767" lon="9.8143817"><ele>600.3333333333334</ele><time>2026-03-28T08:59:06.666Z</time></trkpt><trkpt lat="44.7729067" lon="9.814465"><ele>600.0</ele><time>2026-03-28T08:59:07.665Z</time></trkpt><trkpt lat="44.7729283" lon="9.8145533"><ele>599.6666666666666</ele><time>2026-03-28T08:59:08.665Z</time></trkpt><trkpt lat="44.7729317" lon="9.8146467"><ele>599.3333333333333</ele><time>2026-03-28T08:59:09.666Z</time></trkpt><trkpt lat="44.772925" lon="9.8147517"><ele>599.0</ele><time>2026-03-28T08:59:10.664Z</time></trkpt><trkpt lat="44.77291" lon="9.81486"><ele>599.0</ele><time>2026-03-28T08:59:11.665Z</time></trkpt><trkpt lat="44.7729017" lon="9.8149767"><ele>599.0</ele><time>2026-03-28T08:59:12.665Z</time></trkpt><trkpt lat="44.7729083" lon="9.8150933"><ele>599.0</ele><time>2026-03-28T08:59:13.666Z</time></trkpt><trkpt lat="44.7729117" lon="9.8151933"><ele>599.0</ele><time>2026-03-28T08:59:14.665Z</time></trkpt><trkpt lat="44.7729033" lon="9.8152867"><ele>599.0</ele><time>2026-03-28T08:59:15.666Z</time></trkpt><trkpt lat="44.77289" lon="9.81538"><ele>599.0</ele><time>2026-03-28T08:59:16.664Z</time></trkpt><trkpt lat="44.7728883" lon="9.815485"><ele>599.0</ele><time>2026-03-28T08:59:17.665Z</time></trkpt><trkpt lat="44.7728933" lon="9.8155983"><ele>598.5714285714286</ele><time>2026-03-28T08:59:18.666Z</time></trkpt><trkpt lat="44.7728867" lon="9.8156983"><ele>598.1428571428571</ele><time>2026-03-28T08:59:19.665Z</time></trkpt><trkpt lat="44.77287" lon="9.81579"><ele>597.7142857142857</ele><time>2026-03-28T08:59:20.666Z</time></trkpt><trkpt lat="44.7728333" lon="9.8158833"><ele>597.2857142857142</ele><time>2026-03-28T08:59:21.665Z</time></trkpt><trkpt lat="44.772795" lon="9.815975"><ele>596.8571428571428</ele><time>2026-03-28T08:59:22.665Z</time></trkpt><trkpt lat="44.7727567" lon="9.8160533"><ele>596.4285714285714</ele><time>2026-03-28T08:59:23.666Z</time></trkpt><trkpt lat="44.772715" lon="9.8161217"><ele>596.0</ele><time>2026-03-28T08:59:24.664Z</time></trkpt><trkpt lat="44.7726517" lon="9.8162433"><ele>601.8333333333333</ele><time>2026-03-28T08:59:26.665Z</time></trkpt><trkpt lat="44.7725983" lon="9.8163383"><ele>607.6666666666666</ele><time>2026-03-28T08:59:28.666Z</time></trkpt><trkpt lat="44.7725467" lon="9.816435"><ele>613.5</ele><time>2026-03-28T08:59:30.666Z</time></trkpt><trkpt lat="44.7725317" lon="9.8165383"><ele>619.3333333333334</ele><time>2026-03-28T08:59:32.665Z</time></trkpt><trkpt lat="44.772515" lon="9.8166383"><ele>625.1666666666667</ele><time>2026-03-28T08:59:34.666Z</time></trkpt><trkpt lat="44.77253" lon="9.816735"><ele>631.0</ele><time>2026-03-28T08:59:36.665Z</time></trkpt><trkpt lat="44.7725617" lon="9.8168617"><ele>633.6666666666667</ele><time>2026-03-28T08:59:39.666Z</time></trkpt><trkpt lat="44.7726067" lon="9.8169667"><ele>636.3333333333334</ele><time>2026-03-28T08:59:41.665Z</time></trkpt><trkpt lat="44.7726617" lon="9.8170867"><ele>639.0</ele><time>2026-03-28T08:59:43.666Z</time></trkpt><trkpt lat="44.7727167" lon="9.8171633"><ele>641.6666666666666</ele><time>2026-03-28T08:59:45.665Z</time></trkpt><trkpt lat="44.77278" lon="9.81721"><ele>644.3333333333333</ele><time>2026-03-28T08:59:47.665Z</time></trkpt><trkpt lat="44.7728317" lon="9.8173067"><ele>647.0</ele><time>2026-03-28T08:59:49.666Z</time></trkpt><trkpt lat="44.7728817" lon="9.8174133"><ele>642.5</ele><time>2026-03-28T08:59:51.664Z</time></trkpt><trkpt lat="44.7729167" lon="9.8175217"><ele>638.0</ele><time>2026-03-28T08:59:53.665Z</time></trkpt><trkpt lat="44.772995" lon="9.8175817"><ele>633.5</ele><time>2026-03-28T08:59:56.737Z</time></trkpt><trkpt lat="44.773065" lon="9.8176217"><ele>629.0</ele><time>2026-03-28T08:59:58.666Z</time></trkpt><trkpt lat="44.7731317" lon="9.8176333"><ele>624.5</ele><time>2026-03-28T09:00:00.665Z</time></trkpt><trkpt lat="44.7732183" lon="9.817695"><ele>620.0</ele><time>2026-03-28T09:00:03.666Z</time></trkpt><trkpt lat="44.7733" lon="9.8178217"><ele>620.0</ele><time>2026-03-28T09:00:05.665Z</time></trkpt><trkpt lat="44.7733967" lon="9.81794"><ele>620.0</ele><time>2026-03-28T09:00:07.666Z</time></trkpt><trkpt lat="44.773455" lon="9.8180767"><ele>620.0</ele><time>2026-03-28T09:00:09.665Z</time></trkpt><trkpt lat="44.773475" lon="9.8182283"><ele>620.0</ele><time>2026-03-28T09:00:11.664Z</time></trkpt><trkpt lat="44.7734733" lon="9.8183567"><ele>620.0</ele><time>2026-03-28T09:00:13.664Z</time></trkpt><trkpt lat="44.77344" lon="9.8184667"><ele>622.6</ele><time>2026-03-28T09:00:15.665Z</time></trkpt><trkpt lat="44.7733883" lon="9.8185417"><ele>625.2</ele><time>2026-03-28T09:00:17.665Z</time></trkpt><trkpt lat="44.7733033" lon="9.8186133"><ele>627.8</ele><time>2026-03-28T09:00:19.666Z</time></trkpt><trkpt lat="44.77322" lon="9.81872"><ele>630.4</ele><time>2026-03-28T09:00:21.666Z</time></trkpt><trkpt lat="44.773165" lon="9.8188467"><ele>633.0</ele><time>2026-03-28T09:00:23.666Z</time></trkpt><trkpt lat="44.7731317" lon="9.8189967"><ele>633.0</ele><time>2026-03-28T09:00:25.666Z</time></trkpt><trkpt lat="44.7731183" lon="9.819155"><ele>633.0</ele><time>2026-03-28T09:00:27.664Z</time></trkpt><trkpt lat="44.773115" lon="9.8192967"><ele>633.0</ele><time>2026-03-28T09:00:29.664Z</time></trkpt><trkpt lat="44.772985" lon="9.8194183"><ele>633.0</ele><time>2026-03-28T09:01:37.666Z</time></trkpt><trkpt lat="44.7730083" lon="9.819295"><ele>633.0</ele><time>2026-03-28T09:02:40.664Z</time></trkpt><trkpt lat="44.7730367" lon="9.8192033"><ele>633.0</ele><time>2026-03-28T09:02:42.665Z</time></trkpt><trkpt lat="44.7730683" lon="9.8191033"><ele>633.0</ele><time>2026-03-28T09:02:44.666Z</time></trkpt><trkpt lat="44.77309" lon="9.8189933"><ele>633.0</ele><time>2026-03-28T09:02:46.664Z</time></trkpt><trkpt lat="44.7731117" lon="9.8188617"><ele>633.0</ele><time>2026-03-28T09:02:49.665Z</time></trkpt><trkpt lat="44.7731517" lon="9.8187383"><ele>633.0</ele><time>2026-03-28T09:02:52.666Z</time></trkpt><trkpt lat="44.7732083" lon="9.8186333"><ele>633.0</ele><time>2026-03-28T09:02:55.664Z</time></trkpt><trkpt lat="44.77326" lon="9.81858"><ele>633.0</ele><time>2026-03-28T09:02:57.664Z</time></trkpt><trkpt lat="44.773315" lon="9.8185233"><ele>633.0</ele><time>2026-03-28T09:02:59.665Z</time></trkpt><trkpt lat="44.7733983" lon="9.818485"><ele>633.0</ele><time>2026-03-28T09:03:02.665Z</time></trkpt><trkpt lat="44.7734717" lon="9.8183483"><ele>633.0</ele><time>2026-03-28T09:03:13.665Z</time></trkpt><trkpt lat="44.7735283" lon="9.8182217"><ele>633.0</ele><time>2026-03-28T09:04:12.665Z</time></trkpt><trkpt lat="44.7735683" lon="9.8183033"><ele>633.0</ele><time>2026-03-28T09:04:26.666Z</time></trkpt><trkpt lat="44.7735083" lon="9.8183933"><ele>633.0</ele><time>2026-03-28T09:04:29.664Z</time></trkpt><trkpt lat="44.773435" lon="9.818465"><ele>633.0</ele><time>2026-03-28T09:04:31.665Z</time></trkpt><trkpt lat="44.7733567" lon="9.8185517"><ele>633.0</ele><time>2026-03-28T09:04:33.665Z</time></trkpt><trkpt lat="44.7732867" lon="9.818675"><ele>633.0</ele><time>2026-03-28T09:04:35.665Z</time></trkpt><trkpt lat="44.7732383" lon="9.818815"><ele>633.0</ele><time>2026-03-28T09:04:37.666Z</time></trkpt><trkpt lat="44.7732183" lon="9.818955"><ele>633.0</ele><time>2026-03-28T09:04:39.665Z</time></trkpt><trkpt lat="44.773195" lon="9.8190567"><ele>633.0</ele><time>2026-03-28T09:04:41.665Z</time></trkpt><trkpt lat="44.773155" lon="9.8191567"><ele>633.0</ele><time>2026-03-28T09:04:43.667Z</time></trkpt><trkpt lat="44.77305" lon="9.8193583"><ele>633.0</ele><time>2026-03-28T09:05:35.664Z</time></trkpt><trkpt lat="44.77298" lon="9.819455"><ele>634.4</ele><time>2026-03-28T09:05:38.666Z</time></trkpt><trkpt lat="44.7729133" lon="9.819555"><ele>635.8</ele><time>2026-03-28T09:05:40.665Z</time></trkpt><trkpt lat="44.7728283" lon="9.8196383"><ele>637.2</ele><time>2026-03-28T09:05:42.665Z</time></trkpt><trkpt lat="44.77277" lon="9.8197367"><ele>638.6</ele><time>2026-03-28T09:05:45.664Z</time></trkpt><trkpt lat="44.7727283" lon="9.81982"><ele>640.0</ele><time>2026-03-28T09:05:47.664Z</time></trkpt><trkpt lat="44.772675" lon="9.819915"><ele>645.3333333333334</ele><time>2026-03-28T09:05:49.666Z</time></trkpt><trkpt lat="44.7726317" lon="9.8199867"><ele>650.6666666666667</ele><time>2026-03-28T09:05:51.665Z</time></trkpt><trkpt lat="44.7726083" lon="9.8200917"><ele>656.0</ele><time>2026-03-28T09:05:54.666Z</time></trkpt><trkpt lat="44.7725333" lon="9.8202133"><ele>661.3333333333334</ele><time>2026-03-28T09:12:05.664Z</time></trkpt><trkpt lat="44.7725167" lon="9.8203233"><ele>666.6666666666666</ele><time>2026-03-28T09:12:14.665Z</time></trkpt><trkpt lat="44.7724917" lon="9.8204383"><ele>672.0</ele><time>2026-03-28T09:12:16.665Z</time></trkpt><trkpt lat="44.7724517" lon="9.8205383"><ele>672.0</ele><time>2026-03-28T09:12:18.666Z</time></trkpt><trkpt lat="44.7723917" lon="9.8205933"><ele>672.0</ele><time>2026-03-28T09:12:21.667Z</time></trkpt><trkpt lat="44.772345" lon="9.8205317"><ele>672.0</ele><time>2026-03-28T09:12:23.666Z</time></trkpt><trkpt lat="44.7723067" lon="9.82042"><ele>672.0</ele><time>2026-03-28T09:12:25.664Z</time></trkpt><trkpt lat="44.772255" lon="9.820335"><ele>672.0</ele><time>2026-03-28T09:12:27.665Z</time></trkpt><trkpt lat="44.7722017" lon="9.8202517"><ele>672.0</ele><time>2026-03-28T09:12:29.664Z</time></trkpt><trkpt lat="44.7721433" lon="9.820205"><ele>672.0</ele><time>2026-03-28T09:12:31.665Z</time></trkpt><trkpt lat="44.7720517" lon="9.8202083"><ele>672.0</ele><time>2026-03-28T09:12:33.665Z</time></trkpt><trkpt lat="44.77195" lon="9.8202017"><ele>672.0</ele><time>2026-03-28T09:12:35.665Z</time></trkpt><trkpt lat="44.7718833" lon="9.82019"><ele>672.0</ele><time>2026-03-28T09:12:36.665Z</time></trkpt><trkpt lat="44.77178" lon="9.82015"><ele>672.0</ele><time>2026-03-28T09:12:38.666Z</time></trkpt><trkpt lat="44.771675" lon="9.8200783"><ele>678.75</ele><time>2026-03-28T09:12:40.665Z</time></trkpt><trkpt lat="44.77156" lon="9.8200483"><ele>685.5</ele><time>2026-03-28T09:12:42.665Z</time></trkpt><trkpt lat="44.7714483" lon="9.8200033"><ele>692.25</ele><time>2026-03-28T09:12:44.665Z</time></trkpt><trkpt lat="44.771335" lon="9.81995"><ele>699.0</ele><time>2026-03-28T09:12:46.665Z</time></trkpt><trkpt lat="44.771245" lon="9.81989"><ele>699.0</ele><time>2026-03-28T09:12:48.665Z</time></trkpt><trkpt lat="44.7711383" lon="9.819835"><ele>699.0</ele><time>2026-03-28T09:12:50.665Z</time></trkpt><trkpt lat="44.7710417" lon="9.81976"><ele>699.0</ele><time>2026-03-28T09:12:52.665Z</time></trkpt><trkpt lat="44.7709633" lon="9.819665"><ele>699.0</ele><time>2026-03-28T09:12:54.665Z</time></trkpt><trkpt lat="44.7709167" lon="9.8195983"><ele>699.0</ele><time>2026-03-28T09:12:55.664Z</time></trkpt><trkpt lat="44.770875" lon="9.8195283"><ele>700.5</ele><time>2026-03-28T09:12:56.664Z</time></trkpt><trkpt lat="44.7707883" lon="9.819425"><ele>702.0</ele><time>2026-03-28T09:12:58.665Z</time></trkpt><trkpt lat="44.7706817" lon="9.8193533"><ele>703.5</ele><time>2026-03-28T09:13:00.664Z</time></trkpt><trkpt lat="44.77058" lon="9.8192633"><ele>705.0</ele><time>2026-03-28T09:13:02.665Z</time></trkpt><trkpt lat="44.7704783" lon="9.819185"><ele>710.4</ele><time>2026-03-28T09:13:04.665Z</time></trkpt><trkpt lat="44.7703933" lon="9.819105"><ele>715.8</ele><time>2026-03-28T09:13:06.664Z</time></trkpt><trkpt lat="44.7703367" lon="9.8189917"><ele>721.2</ele><time>2026-03-28T09:13:08.665Z</time></trkpt><trkpt lat="44.77031" lon="9.8188483"><ele>726.6</ele><time>2026-03-28T09:13:10.665Z</time></trkpt><trkpt lat="44.7703217" lon="9.818675"><ele>732.0</ele><time>2026-03-28T09:13:12.664Z</time></trkpt><trkpt lat="44.770345" lon="9.8184967"><ele>734.6</ele><time>2026-03-28T09:13:14.665Z</time></trkpt><trkpt lat="44.7703683" lon="9.8183483"><ele>737.2</ele><time>2026-03-28T09:13:16.665Z</time></trkpt><trkpt lat="44.7703833" lon="9.8182083"><ele>739.8</ele><time>2026-03-28T09:13:18.664Z</time></trkpt><trkpt lat="44.7703733" lon="9.8180633"><ele>742.4</ele><time>2026-03-28T09:13:20.665Z</time></trkpt><trkpt lat="44.77034" lon="9.8179433"><ele>745.0</ele><time>2026-03-28T09:13:22.664Z</time></trkpt><trkpt lat="44.7703533" lon="9.8178417"><ele>745.0</ele><time>2026-03-28T09:13:24.664Z</time></trkpt><trkpt lat="44.7703733" lon="9.8177167"><ele>745.0</ele><time>2026-03-28T09:13:26.666Z</time></trkpt><trkpt lat="44.7703583" lon="9.8175767"><ele>745.0</ele><time>2026-03-28T09:13:28.665Z</time></trkpt><trkpt lat="44.7702983" lon="9.8174417"><ele>745.0</ele><time>2026-03-28T09:13:30.664Z</time></trkpt><trkpt lat="44.7701933" lon="9.8173167"><ele>745.0</ele><time>2026-03-28T09:13:32.666Z</time></trkpt><trkpt lat="44.77014" lon="9.81726"><ele>745.6666666666667</ele><time>2026-03-28T09:13:33.664Z</time></trkpt><trkpt lat="44.7700867" lon="9.81721"><ele>746.3333333333334</ele><time>2026-03-28T09:13:34.664Z</time></trkpt><trkpt lat="44.770035" lon="9.8171583"><ele>747.0</ele><time>2026-03-28T09:13:35.665Z</time></trkpt><trkpt lat="44.7699867" lon="9.8170817"><ele>747.6666666666666</ele><time>2026-03-28T09:13:37.665Z</time></trkpt><trkpt lat="44.769935" lon="9.8169867"><ele>748.3333333333333</ele><time>2026-03-28T09:13:39.666Z</time></trkpt><trkpt lat="44.7698817" lon="9.8168683"><ele>749.0</ele><time>2026-03-28T09:13:41.665Z</time></trkpt><trkpt lat="44.76984" lon="9.8167617"><ele>749.1666666666666</ele><time>2026-03-28T09:13:43.666Z</time></trkpt><trkpt lat="44.7698" lon="9.8166567"><ele>749.3333333333333</ele><time>2026-03-28T09:13:45.664Z</time></trkpt><trkpt lat="44.7697517" lon="9.8165383"><ele>749.5</ele><time>2026-03-28T09:13:47.665Z</time></trkpt><trkpt lat="44.769675" lon="9.8164367"><ele>749.6666666666666</ele><time>2026-03-28T09:13:49.664Z</time></trkpt><trkpt lat="44.7696067" lon="9.816365"><ele>749.8333333333334</ele><time>2026-03-28T09:13:51.664Z</time></trkpt><trkpt lat="44.7695317" lon="9.8163383"><ele>750.0</ele><time>2026-03-28T09:14:30.664Z</time></trkpt><trkpt lat="44.7694183" lon="9.8162933"><ele>749.5</ele><time>2026-03-28T09:14:32.665Z</time></trkpt><trkpt lat="44.76934" lon="9.8162367"><ele>749.0</ele><time>2026-03-28T09:14:34.665Z</time></trkpt><trkpt lat="44.7693267" lon="9.8161433"><ele>748.5</ele><time>2026-03-28T09:14:36.665Z</time></trkpt><trkpt lat="44.769385" lon="9.8159783"><ele>748.0</ele><time>2026-03-28T09:14:38.666Z</time></trkpt><trkpt lat="44.7694183" lon="9.815885"><ele>747.5</ele><time>2026-03-28T09:14:39.664Z</time></trkpt><trkpt lat="44.769445" lon="9.8158017"><ele>747.0</ele><time>2026-03-28T09:14:40.664Z</time></trkpt><trkpt lat="44.7694667" lon="9.8157167"><ele>747.0</ele><time>2026-03-28T09:14:41.664Z</time></trkpt><trkpt lat="44.76947" lon="9.8155483"><ele>747.0</ele><time>2026-03-28T09:14:43.665Z</time></trkpt><trkpt lat="44.7694333" lon="9.8154633"><ele>747.0</ele><time>2026-03-28T09:14:44.664Z</time></trkpt><trkpt lat="44.7693817" lon="9.8153883"><ele>747.0</ele><time>2026-03-28T09:14:45.665Z</time></trkpt><trkpt lat="44.7693233" lon="9.8153267"><ele>747.0</ele><time>2026-03-28T09:14:46.665Z</time></trkpt><trkpt lat="44.7691967" lon="9.8152317"><ele>749.5</ele><time>2026-03-28T09:14:48.665Z</time></trkpt><trkpt lat="44.7691283" lon="9.8152133"><ele>752.0</ele><time>2026-03-28T09:14:49.665Z</time></trkpt><trkpt lat="44.7690183" lon="9.8151433"><ele>754.5</ele><time>2026-03-28T09:14:51.664Z</time></trkpt><trkpt lat="44.7689583" lon="9.8150933"><ele>757.0</ele><time>2026-03-28T09:14:52.666Z</time></trkpt><trkpt lat="44.768895" lon="9.815035"><ele>759.5</ele><time>2026-03-28T09:14:53.665Z</time></trkpt><trkpt lat="44.7688333" lon="9.8149817"><ele>762.0</ele><time>2026-03-28T09:14:54.665Z</time></trkpt><trkpt lat="44.7687633" lon="9.81494"><ele>762.0</ele><time>2026-03-28T09:14:55.665Z</time></trkpt><trkpt lat="44.7686967" lon="9.814905"><ele>762.0</ele><time>2026-03-28T09:14:56.666Z</time></trkpt><trkpt lat="44.7686267" lon="9.814865"><ele>762.0</ele><time>2026-03-28T09:14:57.664Z</time></trkpt><trkpt lat="44.7685633" lon="9.814825"><ele>762.0</ele><time>2026-03-28T09:14:58.668Z</time></trkpt><trkpt lat="44.7684983" lon="9.8147917"><ele>762.0</ele><time>2026-03-28T09:14:59.665Z</time></trkpt><trkpt lat="44.7683783" lon="9.81476"><ele>762.0</ele><time>2026-03-28T09:15:01.664Z</time></trkpt><trkpt lat="44.768315" lon="9.8147483"><ele>763.8</ele><time>2026-03-28T09:15:02.665Z</time></trkpt><trkpt lat="44.768225" lon="9.8147333"><ele>765.6</ele><time>2026-03-28T09:15:04.668Z</time></trkpt><trkpt lat="44.7681" lon="9.81474"><ele>767.4</ele><time>2026-03-28T09:15:06.664Z</time></trkpt><trkpt lat="44.7680217" lon="9.8147333"><ele>769.1999999999999</ele><time>2026-03-28T09:15:07.666Z</time></trkpt><trkpt lat="44.76794" lon="9.8147317"><ele>771.0</ele><time>2026-03-28T09:15:08.664Z</time></trkpt><trkpt lat="44.76786" lon="9.8147367"><ele>771.0</ele><time>2026-03-28T09:15:09.665Z</time></trkpt><trkpt lat="44.76778" lon="9.8147617"><ele>771.0</ele><time>2026-03-28T09:15:10.664Z</time></trkpt><trkpt lat="44.7677167" lon="9.8147917"><ele>771.0</ele><time>2026-03-28T09:15:11.666Z</time></trkpt><trkpt lat="44.767605" lon="9.8147933"><ele>771.0</ele><time>2026-03-28T09:15:13.665Z</time></trkpt><trkpt lat="44.7675417" lon="9.814785"><ele>771.0</ele><time>2026-03-28T09:15:14.666Z</time></trkpt><trkpt lat="44.767475" lon="9.8147817"><ele>771.0</ele><time>2026-03-28T09:15:15.664Z</time></trkpt><trkpt lat="44.7674083" lon="9.8147933"><ele>773.5</ele><time>2026-03-28T09:15:16.666Z</time></trkpt><trkpt lat="44.7673333" lon="9.8148167"><ele>776.0</ele><time>2026-03-28T09:15:17.666Z</time></trkpt><trkpt lat="44.7672667" lon="9.81485"><ele>778.5</ele><time>2026-03-28T09:15:18.666Z</time></trkpt><trkpt lat="44.76719" lon="9.8148833"><ele>781.0</ele><time>2026-03-28T09:15:19.666Z</time></trkpt><trkpt lat="44.7671017" lon="9.8149033"><ele>783.5</ele><time>2026-03-28T09:15:20.668Z</time></trkpt><trkpt lat="44.7670167" lon="9.8149183"><ele>786.0</ele><time>2026-03-28T09:15:21.668Z</time></trkpt><trkpt lat="44.766945" lon="9.8149217"><ele>787.8</ele><time>2026-03-28T09:15:22.667Z</time></trkpt><trkpt lat="44.7668383" lon="9.81491"><ele>789.5999999999999</ele><time>2026-03-28T09:15:24.667Z</time></trkpt><trkpt lat="44.7667667" lon="9.8148933"><ele>791.4</ele><time>2026-03-28T09:15:26.667Z</time></trkpt><trkpt lat="44.7666883" lon="9.8148367"><ele>793.2</ele><time>2026-03-28T09:15:28.668Z</time></trkpt><trkpt lat="44.7666" lon="9.8147717"><ele>795.0</ele><time>2026-03-28T09:15:30.668Z</time></trkpt><trkpt lat="44.7665033" lon="9.8147183"><ele>795.0</ele><time>2026-03-28T09:15:32.667Z</time></trkpt><trkpt lat="44.7664183" lon="9.8146517"><ele>795.0</ele><time>2026-03-28T09:15:34.666Z</time></trkpt><trkpt lat="44.7663233" lon="9.8145967"><ele>795.0</ele><time>2026-03-28T09:15:36.665Z</time></trkpt><trkpt lat="44.7662283" lon="9.8145267"><ele>795.0</ele><time>2026-03-28T09:15:38.667Z</time></trkpt><trkpt lat="44.76617" lon="9.814485"><ele>795.0</ele><time>2026-03-28T09:15:39.666Z</time></trkpt><trkpt lat="44.766085" lon="9.8144017"><ele>791.6666666666666</ele><time>2026-03-28T09:15:41.666Z</time></trkpt><trkpt lat="44.7660083" lon="9.814375"><ele>788.3333333333333</ele><time>2026-03-28T09:15:43.667Z</time></trkpt><trkpt lat="44.765935" lon="9.8143433"><ele>785.0</ele><time>2026-03-28T09:15:45.665Z</time></trkpt><trkpt lat="44.765865" lon="9.8142533"><ele>781.6666666666666</ele><time>2026-03-28T09:15:47.667Z</time></trkpt><trkpt lat="44.7657883" lon="9.8142017"><ele>778.3333333333333</ele><time>2026-03-28T09:15:49.665Z</time></trkpt><trkpt lat="44.7657017" lon="9.8141717"><ele>775.0</ele><time>2026-03-28T09:15:51.668Z</time></trkpt><trkpt lat="44.7656183" lon="9.8141517"><ele>774.9999999999999</ele><time>2026-03-28T09:15:53.668Z</time></trkpt><trkpt lat="44.76552" lon="9.8141267"><ele>775.0</ele><time>2026-03-28T09:15:55.668Z</time></trkpt><trkpt lat="44.76544" lon="9.814095"><ele>775.0</ele><time>2026-03-28T09:15:57.668Z</time></trkpt><trkpt lat="44.765345" lon="9.8140833"><ele>775.0</ele><time>2026-03-28T09:15:59.666Z</time></trkpt><trkpt lat="44.7652817" lon="9.8140767"><ele>774.9999999999999</ele><time>2026-03-28T09:16:00.665Z</time></trkpt><trkpt lat="44.7652133" lon="9.8140683"><ele>775.0</ele><time>2026-03-28T09:16:01.666Z</time></trkpt><trkpt lat="44.7651367" lon="9.8140683"><ele>773.8333333333333</ele><time>2026-03-28T09:16:02.666Z</time></trkpt><trkpt lat="44.7650633" lon="9.8140817"><ele>772.6666666666666</ele><time>2026-03-28T09:16:03.666Z</time></trkpt><trkpt lat="44.7649583" lon="9.814085"><ele>771.5</ele><time>2026-03-28T09:16:05.665Z</time></trkpt><trkpt lat="44.76484" lon="9.8140317"><ele>770.3333333333333</ele><time>2026-03-28T09:16:07.665Z</time></trkpt><trkpt lat="44.764775" lon="9.8140183"><ele>769.1666666666666</ele><time>2026-03-28T09:16:08.667Z</time></trkpt><trkpt lat="44.76471" lon="9.8140017"><ele>768.0</ele><time>2026-03-28T09:16:09.668Z</time></trkpt><trkpt lat="44.7645933" lon="9.8139283"><ele>768.0</ele><time>2026-03-28T09:16:11.666Z</time></trkpt><trkpt lat="44.7645267" lon="9.813895"><ele>768.0</ele><time>2026-03-28T09:16:12.666Z</time></trkpt><trkpt lat="44.7644633" lon="9.813885"><ele>768.0</ele><time>2026-03-28T09:16:13.665Z</time></trkpt><trkpt lat="44.7643633" lon="9.8138817"><ele>768.0</ele><time>2026-03-28T09:16:15.67Z</time></trkpt><trkpt lat="44.764255" lon="9.81382"><ele>768.0</ele><time>2026-03-28T09:16:17.667Z</time></trkpt><trkpt lat="44.7641817" lon="9.81377"><ele>768.0</ele><time>2026-03-28T09:16:18.666Z</time></trkpt><trkpt lat="44.7641" lon="9.8137183"><ele>766.5</ele><time>2026-03-28T09:16:19.67Z</time></trkpt><trkpt lat="44.7640233" lon="9.8136683"><ele>765.0</ele><time>2026-03-28T09:16:20.668Z</time></trkpt><trkpt lat="44.7639517" lon="9.8136167"><ele>763.5</ele><time>2026-03-28T09:16:21.668Z</time></trkpt><trkpt lat="44.7638833" lon="9.8135667"><ele>762.0</ele><time>2026-03-28T09:16:22.667Z</time></trkpt><trkpt lat="44.7638133" lon="9.81352"><ele>760.5</ele><time>2026-03-28T09:16:23.669Z</time></trkpt><trkpt lat="44.7637467" lon="9.8134733"><ele>759.0</ele><time>2026-03-28T09:16:24.668Z</time></trkpt><trkpt lat="44.763685" lon="9.8134233"><ele>757.75</ele><time>2026-03-28T09:16:25.668Z</time></trkpt><trkpt lat="44.7635867" lon="9.8133283"><ele>756.5</ele><time>2026-03-28T09:16:27.668Z</time></trkpt><trkpt lat="44.7634867" lon="9.8132433"><ele>755.25</ele><time>2026-03-28T09:16:29.665Z</time></trkpt><trkpt lat="44.763385" lon="9.8131533"><ele>754.0</ele><time>2026-03-28T09:16:31.665Z</time></trkpt><trkpt lat="44.7632733" lon="9.8130917"><ele>753.8000000000001</ele><time>2026-03-28T09:16:33.667Z</time></trkpt><trkpt lat="44.7631767" lon="9.8130367"><ele>753.6</ele><time>2026-03-28T09:16:35.666Z</time></trkpt><trkpt lat="44.7630967" lon="9.8129733"><ele>753.4</ele><time>2026-03-28T09:16:37.667Z</time></trkpt><trkpt lat="44.7629833" lon="9.81288"><ele>753.2</ele><time>2026-03-28T09:16:39.665Z</time></trkpt><trkpt lat="44.7629233" lon="9.812835"><ele>753.0</ele><time>2026-03-28T09:16:40.667Z</time></trkpt><trkpt lat="44.76285" lon="9.8128"><ele>753.0</ele><time>2026-03-28T09:16:41.665Z</time></trkpt><trkpt lat="44.7627767" lon="9.8127867"><ele>753.0</ele><time>2026-03-28T09:16:42.666Z</time></trkpt><trkpt lat="44.762695" lon="9.8127833"><ele>753.0</ele><time>2026-03-28T09:16:43.666Z</time></trkpt><trkpt lat="44.7626267" lon="9.8127833"><ele>753.0</ele><time>2026-03-28T09:16:44.666Z</time></trkpt><trkpt lat="44.7625167" lon="9.812735"><ele>753.0</ele><time>2026-03-28T09:16:46.666Z</time></trkpt><trkpt lat="44.7624183" lon="9.812705"><ele>753.0</ele><time>2026-03-28T09:16:48.665Z</time></trkpt><trkpt lat="44.76232" lon="9.812725"><ele>753.8</ele><time>2026-03-28T09:16:50.665Z</time></trkpt><trkpt lat="44.762225" lon="9.8127983"><ele>754.5999999999999</ele><time>2026-03-28T09:16:52.667Z</time></trkpt><trkpt lat="44.7621183" lon="9.8128733"><ele>755.4000000000001</ele><time>2026-03-28T09:16:54.667Z</time></trkpt><trkpt lat="44.762055" lon="9.8128983"><ele>756.2</ele><time>2026-03-28T09:16:55.667Z</time></trkpt><trkpt lat="44.761995" lon="9.8129267"><ele>757.0</ele><time>2026-03-28T09:16:56.668Z</time></trkpt><trkpt lat="44.7618933" lon="9.8129717"><ele>759.1666666666667</ele><time>2026-03-28T09:16:58.668Z</time></trkpt><trkpt lat="44.761815" lon="9.813"><ele>761.3333333333334</ele><time>2026-03-28T09:17:00.665Z</time></trkpt><trkpt lat="44.76175" lon="9.813045"><ele>763.5</ele><time>2026-03-28T09:17:02.667Z</time></trkpt><trkpt lat="44.7616817" lon="9.8131017"><ele>765.6666666666667</ele><time>2026-03-28T09:17:04.665Z</time></trkpt><trkpt lat="44.7616017" lon="9.8131517"><ele>767.8333333333334</ele><time>2026-03-28T09:17:07.667Z</time></trkpt><trkpt lat="44.7615267" lon="9.813165"><ele>770.0</ele><time>2026-03-28T09:17:10.665Z</time></trkpt><trkpt lat="44.761465" lon="9.8131983"><ele>770.0</ele><time>2026-03-28T09:17:12.665Z</time></trkpt><trkpt lat="44.7614" lon="9.8132483"><ele>770.0</ele><time>2026-03-28T09:17:14.665Z</time></trkpt><trkpt lat="44.7613267" lon="9.8132733"><ele>770.0</ele><time>2026-03-28T09:17:16.666Z</time></trkpt><trkpt lat="44.7612587" lon="9.8132478"><ele>770.0</ele><time>2026-03-28T09:17:18.753Z</time></trkpt><trkpt lat="44.7611953" lon="9.8132571"><ele>770.0</ele><time>2026-03-28T09:17:20.704Z</time></trkpt><trkpt lat="44.7611214" lon="9.8132321"><ele>770.0</ele><time>2026-03-28T09:17:23.72Z</time></trkpt><trkpt lat="44.7610385" lon="9.8132582"><ele>770.0</ele><time>2026-03-28T09:17:25.692Z</time></trkpt><trkpt lat="44.7609363" lon="9.8132567"><ele>771.25</ele><time>2026-03-28T09:17:27.671Z</time></trkpt><trkpt lat="44.7608232" lon="9.8132601"><ele>772.5</ele><time>2026-03-28T09:17:29.666Z</time></trkpt><trkpt lat="44.7607208" lon="9.8132904"><ele>773.75</ele><time>2026-03-28T09:17:31.665Z</time></trkpt><trkpt lat="44.7606016" lon="9.8133109"><ele>775.0</ele><time>2026-03-28T09:17:33.666Z</time></trkpt><trkpt lat="44.7604859" lon="9.8133202"><ele>774.9999999999999</ele><time>2026-03-28T09:17:35.665Z</time></trkpt><trkpt lat="44.7603763" lon="9.8133496"><ele>775.0</ele><time>2026-03-28T09:17:37.666Z</time></trkpt><trkpt lat="44.7602976" lon="9.8134059"><ele>775.0</ele><time>2026-03-28T09:17:39.665Z</time></trkpt><trkpt lat="44.7602388" lon="9.8134806"><ele>775.0</ele><time>2026-03-28T09:17:41.666Z</time></trkpt><trkpt lat="44.7601696" lon="9.8135428"><ele>774.9999999999999</ele><time>2026-03-28T09:17:43.666Z</time></trkpt><trkpt lat="44.7601008" lon="9.8135906"><ele>775.0</ele><time>2026-03-28T09:17:45.665Z</time></trkpt><trkpt lat="44.7600324" lon="9.8136337"><ele>771.8333333333333</ele><time>2026-03-28T09:17:47.666Z</time></trkpt><trkpt lat="44.7599683" lon="9.8137195"><ele>768.6666666666666</ele><time>2026-03-28T09:17:49.667Z</time></trkpt><trkpt lat="44.7599174" lon="9.813813"><ele>765.5</ele><time>2026-03-28T09:17:51.667Z</time></trkpt><trkpt lat="44.7598305" lon="9.8138496"><ele>762.3333333333333</ele><time>2026-03-28T09:17:54.665Z</time></trkpt><trkpt lat="44.7597403" lon="9.8138246"><ele>759.1666666666666</ele><time>2026-03-28T09:17:56.665Z</time></trkpt><trkpt lat="44.7596638" lon="9.8137989"><ele>756.0</ele><time>2026-03-28T09:17:58.666Z</time></trkpt><trkpt lat="44.75959" lon="9.8137795"><ele>756.0</ele><time>2026-03-28T09:18:00.665Z</time></trkpt><trkpt lat="44.7595233" lon="9.81375"><ele>756.0</ele><time>2026-03-28T09:18:02.666Z</time></trkpt><trkpt lat="44.75943" lon="9.813715"><ele>756.0</ele><time>2026-03-28T09:18:04.666Z</time></trkpt><trkpt lat="44.7593533" lon="9.8137033"><ele>756.0</ele><time>2026-03-28T09:18:06.667Z</time></trkpt><trkpt lat="44.7592767" lon="9.8137033"><ele>756.0</ele><time>2026-03-28T09:18:08.667Z</time></trkpt><trkpt lat="44.7592167" lon="9.8136617"><ele>756.0</ele><time>2026-03-28T09:18:10.668Z</time></trkpt><trkpt lat="44.7591717" lon="9.813595"><ele>752.6666666666666</ele><time>2026-03-28T09:18:13.667Z</time></trkpt><trkpt lat="44.75911" lon="9.8135267"><ele>749.3333333333334</ele><time>2026-03-28T09:18:16.665Z</time></trkpt><trkpt lat="44.7590517" lon="9.81347"><ele>746.0</ele><time>2026-03-28T09:18:19.665Z</time></trkpt><trkpt lat="44.7589583" lon="9.8134593"><ele>742.6666666666667</ele><time>2026-03-28T09:18:22.744Z</time></trkpt><trkpt lat="44.7588708" lon="9.8134341"><ele>739.3333333333334</ele><time>2026-03-28T09:18:24.719Z</time></trkpt><trkpt lat="44.7588012" lon="9.8134481"><ele>736.0</ele><time>2026-03-28T09:18:26.695Z</time></trkpt><trkpt lat="44.7587239" lon="9.813407"><ele>735.3333333333334</ele><time>2026-03-28T09:18:29.712Z</time></trkpt><trkpt lat="44.7587034" lon="9.8132957"><ele>734.6666666666667</ele><time>2026-03-28T09:18:32.728Z</time></trkpt><trkpt lat="44.7586372" lon="9.8132518"><ele>734.0</ele><time>2026-03-28T09:18:34.704Z</time></trkpt><trkpt lat="44.7585639" lon="9.8132179"><ele>733.3333333333334</ele><time>2026-03-28T09:18:36.68Z</time></trkpt><trkpt lat="44.7585061" lon="9.8131391"><ele>732.6666666666666</ele><time>2026-03-28T09:18:38.666Z</time></trkpt><trkpt lat="44.7584291" lon="9.8130959"><ele>732.0</ele><time>2026-03-28T09:18:40.734Z</time></trkpt><trkpt lat="44.7583617" lon="9.81307"><ele>728.6666666666666</ele><time>2026-03-28T09:18:42.666Z</time></trkpt><trkpt lat="44.7582967" lon="9.8130267"><ele>725.3333333333334</ele><time>2026-03-28T09:18:44.666Z</time></trkpt><trkpt lat="44.7582233" lon="9.8130067"><ele>722.0</ele><time>2026-03-28T09:18:46.668Z</time></trkpt><trkpt lat="44.7581433" lon="9.81295"><ele>718.6666666666667</ele><time>2026-03-28T09:18:49.666Z</time></trkpt><trkpt lat="44.7581" lon="9.8128533"><ele>715.3333333333334</ele><time>2026-03-28T09:18:51.665Z</time></trkpt><trkpt lat="44.758065" lon="9.8127633"><ele>712.0</ele><time>2026-03-28T09:18:53.665Z</time></trkpt><trkpt lat="44.75801" lon="9.812695"><ele>708.1666666666667</ele><time>2026-03-28T09:18:55.665Z</time></trkpt><trkpt lat="44.7579467" lon="9.8126283"><ele>704.3333333333334</ele><time>2026-03-28T09:18:57.665Z</time></trkpt><trkpt lat="44.7578733" lon="9.8125583"><ele>700.5</ele><time>2026-03-28T09:18:59.666Z</time></trkpt><trkpt lat="44.7578033" lon="9.812495"><ele>696.6666666666666</ele><time>2026-03-28T09:19:01.667Z</time></trkpt><trkpt lat="44.7577233" lon="9.8124483"><ele>692.8333333333333</ele><time>2026-03-28T09:19:03.667Z</time></trkpt><trkpt lat="44.7576433" lon="9.8123933"><ele>689.0</ele><time>2026-03-28T09:19:05.665Z</time></trkpt><trkpt lat="44.7575733" lon="9.81233"><ele>688.0</ele><time>2026-03-28T09:19:07.665Z</time></trkpt><trkpt lat="44.757495" lon="9.81229"><ele>687.0</ele><time>2026-03-28T09:19:09.665Z</time></trkpt><trkpt lat="44.7574283" lon="9.8123017"><ele>686.0</ele><time>2026-03-28T09:19:11.667Z</time></trkpt><trkpt lat="44.7573833" lon="9.812415"><ele>685.0</ele><time>2026-03-28T09:19:14.667Z</time></trkpt><trkpt lat="44.7573783" lon="9.8125217"><ele>684.0</ele><time>2026-03-28T09:19:16.666Z</time></trkpt><trkpt lat="44.7573717" lon="9.8126317"><ele>683.0</ele><time>2026-03-28T09:19:18.665Z</time></trkpt><trkpt lat="44.75735" lon="9.8127233"><ele>683.0</ele><time>2026-03-28T09:19:20.666Z</time></trkpt><trkpt lat="44.75728" lon="9.81273"><ele>683.0</ele><time>2026-03-28T09:19:23.666Z</time></trkpt><trkpt lat="44.75722" lon="9.8126533"><ele>683.0</ele><time>2026-03-28T09:21:13.667Z</time></trkpt><trkpt lat="44.7571283" lon="9.812615"><ele>683.0</ele><time>2026-03-28T09:21:15.666Z</time></trkpt><trkpt lat="44.7570667" lon="9.812595"><ele>683.0</ele><time>2026-03-28T09:21:16.666Z</time></trkpt><trkpt lat="44.7569517" lon="9.8125567"><ele>683.0</ele><time>2026-03-28T09:21:18.665Z</time></trkpt><trkpt lat="44.756835" lon="9.812545"><ele>683.1666666666666</ele><time>2026-03-28T09:21:20.666Z</time></trkpt><trkpt lat="44.7567217" lon="9.8125433"><ele>683.3333333333333</ele><time>2026-03-28T09:21:22.665Z</time></trkpt><trkpt lat="44.7566467" lon="9.8125733"><ele>683.5</ele><time>2026-03-28T09:21:24.666Z</time></trkpt><trkpt lat="44.756645" lon="9.81268"><ele>683.6666666666666</ele><time>2026-03-28T09:21:27.665Z</time></trkpt><trkpt lat="44.7566817" lon="9.8127733"><ele>683.8333333333334</ele><time>2026-03-28T09:21:29.665Z</time></trkpt><trkpt lat="44.75673" lon="9.8128367"><ele>684.0</ele><time>2026-03-28T09:21:31.666Z</time></trkpt><trkpt lat="44.7567767" lon="9.8129433"><ele>684.0</ele><time>2026-03-28T09:21:33.666Z</time></trkpt><trkpt lat="44.7568017" lon="9.81307"><ele>684.0</ele><time>2026-03-28T09:21:35.665Z</time></trkpt><trkpt lat="44.7568533" lon="9.8131983"><ele>684.0</ele><time>2026-03-28T09:21:37.666Z</time></trkpt><trkpt lat="44.7569167" lon="9.8133417"><ele>684.0</ele><time>2026-03-28T09:21:39.666Z</time></trkpt><trkpt lat="44.7569533" lon="9.813425"><ele>684.0</ele><time>2026-03-28T09:21:40.666Z</time></trkpt><trkpt lat="44.7569883" lon="9.813515"><ele>682.0</ele><time>2026-03-28T09:21:41.666Z</time></trkpt><trkpt lat="44.75702" lon="9.8136117"><ele>680.0</ele><time>2026-03-28T09:21:42.667Z</time></trkpt><trkpt lat="44.7570567" lon="9.8137033"><ele>678.0</ele><time>2026-03-28T09:21:43.666Z</time></trkpt><trkpt lat="44.7570883" lon="9.8138033"><ele>676.0</ele><time>2026-03-28T09:21:44.668Z</time></trkpt><trkpt lat="44.757125" lon="9.8139017"><ele>674.0</ele><time>2026-03-28T09:21:45.666Z</time></trkpt><trkpt lat="44.7571583" lon="9.8139983"><ele>672.0</ele><time>2026-03-28T09:21:46.665Z</time></trkpt><trkpt lat="44.7571883" lon="9.8140933"><ele>672.0</ele><time>2026-03-28T09:21:47.665Z</time></trkpt><trkpt lat="44.75721" lon="9.814185"><ele>672.0</ele><time>2026-03-28T09:21:48.665Z</time></trkpt><trkpt lat="44.7572617" lon="9.8143333"><ele>672.0</ele><time>2026-03-28T09:21:50.666Z</time></trkpt><trkpt lat="44.75727" lon="9.8144667"><ele>672.0</ele><time>2026-03-28T09:21:52.665Z</time></trkpt><trkpt lat="44.7571917" lon="9.814565"><ele>672.0</ele><time>2026-03-28T09:21:54.666Z</time></trkpt><trkpt lat="44.7571067" lon="9.8146433"><ele>668.8333333333334</ele><time>2026-03-28T09:21:56.665Z</time></trkpt><trkpt lat="44.7570317" lon="9.8147167"><ele>665.6666666666666</ele><time>2026-03-28T09:21:58.665Z</time></trkpt><trkpt lat="44.7570283" lon="9.814845"><ele>662.5</ele><time>2026-03-28T09:22:01.665Z</time></trkpt><trkpt lat="44.7570283" lon="9.8149783"><ele>659.3333333333333</ele><time>2026-03-28T09:22:03.665Z</time></trkpt><trkpt lat="44.7570183" lon="9.815095"><ele>656.1666666666666</ele><time>2026-03-28T09:22:05.666Z</time></trkpt><trkpt lat="44.756995" lon="9.8151867"><ele>653.0</ele><time>2026-03-28T09:22:08.667Z</time></trkpt><trkpt lat="44.7569683" lon="9.8152683"><ele>655.0</ele><time>2026-03-28T09:22:11.667Z</time></trkpt><trkpt lat="44.7569267" lon="9.8153783"><ele>657.0</ele><time>2026-03-28T09:22:14.666Z</time></trkpt><trkpt lat="44.756855" lon="9.8154083"><ele>659.0</ele><time>2026-03-28T09:22:16.667Z</time></trkpt><trkpt lat="44.75678" lon="9.8154483"><ele>661.0</ele><time>2026-03-28T09:22:19.665Z</time></trkpt><trkpt lat="44.7568067" lon="9.8155633"><ele>663.0</ele><time>2026-03-28T09:22:22.665Z</time></trkpt><trkpt lat="44.7568667" lon="9.8156683"><ele>665.0</ele><time>2026-03-28T09:22:24.665Z</time></trkpt><trkpt lat="44.756945" lon="9.815765"><ele>662.1666666666666</ele><time>2026-03-28T09:22:26.667Z</time></trkpt><trkpt lat="44.757035" lon="9.8158667"><ele>659.3333333333333</ele><time>2026-03-28T09:22:28.666Z</time></trkpt><trkpt lat="44.7570833" lon="9.815925"><ele>656.5</ele><time>2026-03-28T09:22:29.665Z</time></trkpt><trkpt lat="44.75715" lon="9.8160567"><ele>653.6666666666666</ele><time>2026-03-28T09:22:31.666Z</time></trkpt><trkpt lat="44.757175" lon="9.8161417"><ele>650.8333333333334</ele><time>2026-03-28T09:22:32.666Z</time></trkpt><trkpt lat="44.7571983" lon="9.8162383"><ele>648.0</ele><time>2026-03-28T09:22:33.665Z</time></trkpt><trkpt lat="44.7572133" lon="9.8163417"><ele>648.0</ele><time>2026-03-28T09:22:34.665Z</time></trkpt><trkpt lat="44.7572317" lon="9.81644"><ele>648.0</ele><time>2026-03-28T09:22:35.665Z</time></trkpt><trkpt lat="44.7572517" lon="9.8165317"><ele>648.0</ele><time>2026-03-28T09:22:36.666Z</time></trkpt><trkpt lat="44.7573283" lon="9.816655"><ele>648.0</ele><time>2026-03-28T09:22:38.666Z</time></trkpt><trkpt lat="44.7573967" lon="9.81666"><ele>648.0</ele><time>2026-03-28T09:22:39.665Z</time></trkpt><trkpt lat="44.7574733" lon="9.8167067"><ele>648.0</ele><time>2026-03-28T09:22:41.666Z</time></trkpt><trkpt lat="44.7575317" lon="9.81674"><ele>648.0</ele><time>2026-03-28T09:22:42.666Z</time></trkpt><trkpt lat="44.7575933" lon="9.8167733"><ele>648.0</ele><time>2026-03-28T09:22:43.666Z</time></trkpt><trkpt lat="44.7576983" lon="9.8168733"><ele>648.0</ele><time>2026-03-28T09:22:45.665Z</time></trkpt><trkpt lat="44.7577467" lon="9.8169817"><ele>648.0</ele><time>2026-03-28T09:22:47.667Z</time></trkpt><trkpt lat="44.7577683" lon="9.817145"><ele>648.0</ele><time>2026-03-28T09:22:53.667Z</time></trkpt><trkpt lat="44.75777" lon="9.817275"><ele>647.0</ele><time>2026-03-28T09:22:55.666Z</time></trkpt><trkpt lat="44.7577833" lon="9.8174533"><ele>646.0</ele><time>2026-03-28T09:22:57.665Z</time></trkpt><trkpt lat="44.7578133" lon="9.8175783"><ele>645.0</ele><time>2026-03-28T09:22:58.666Z</time></trkpt><trkpt lat="44.7578383" lon="9.81771"><ele>644.0</ele><time>2026-03-28T09:22:59.665Z</time></trkpt><trkpt lat="44.757865" lon="9.8178417"><ele>643.0</ele><time>2026-03-28T09:23:00.669Z</time></trkpt><trkpt lat="44.7578983" lon="9.8179767"><ele>643.0</ele><time>2026-03-28T09:23:01.666Z</time></trkpt><trkpt lat="44.7579367" lon="9.8181333"><ele>643.0</ele><time>2026-03-28T09:23:02.665Z</time></trkpt><trkpt lat="44.7579783" lon="9.81829"><ele>643.0</ele><time>2026-03-28T09:23:03.665Z</time></trkpt><trkpt lat="44.7580183" lon="9.81844"><ele>643.0</ele><time>2026-03-28T09:23:04.667Z</time></trkpt><trkpt lat="44.7580533" lon="9.8185733"><ele>646.6666666666667</ele><time>2026-03-28T09:23:05.667Z</time></trkpt><trkpt lat="44.75807" lon="9.81869"><ele>650.3333333333334</ele><time>2026-03-28T09:23:06.666Z</time></trkpt><trkpt lat="44.7580967" lon="9.818795"><ele>654.0</ele><time>2026-03-28T09:23:07.665Z</time></trkpt><trkpt lat="44.7581183" lon="9.8189017"><ele>657.6666666666666</ele><time>2026-03-28T09:23:08.666Z</time></trkpt><trkpt lat="44.7581383" lon="9.8190117"><ele>661.3333333333333</ele><time>2026-03-28T09:23:09.666Z</time></trkpt><trkpt lat="44.7581733" lon="9.81912"><ele>665.0</ele><time>2026-03-28T09:23:10.665Z</time></trkpt><trkpt lat="44.7582" lon="9.8192367"><ele>669.1666666666666</ele><time>2026-03-28T09:23:11.665Z</time></trkpt><trkpt lat="44.7582267" lon="9.8193667"><ele>673.3333333333333</ele><time>2026-03-28T09:23:12.666Z</time></trkpt><trkpt lat="44.7582633" lon="9.8194833"><ele>677.5</ele><time>2026-03-28T09:23:13.666Z</time></trkpt><trkpt lat="44.7583017" lon="9.8195833"><ele>681.6666666666666</ele><time>2026-03-28T09:23:14.666Z</time></trkpt><trkpt lat="44.758335" lon="9.81967"><ele>685.8333333333334</ele><time>2026-03-28T09:23:15.666Z</time></trkpt><trkpt lat="44.7583583" lon="9.8197667"><ele>690.0</ele><time>2026-03-28T09:23:16.666Z</time></trkpt><trkpt lat="44.7583833" lon="9.8198767"><ele>690.0</ele><time>2026-03-28T09:23:17.667Z</time></trkpt><trkpt lat="44.7584267" lon="9.8199917"><ele>690.0</ele><time>2026-03-28T09:23:18.666Z</time></trkpt><trkpt lat="44.75847" lon="9.8201033"><ele>690.0</ele><time>2026-03-28T09:23:19.665Z</time></trkpt><trkpt lat="44.7585133" lon="9.8202217"><ele>690.0</ele><time>2026-03-28T09:23:20.666Z</time></trkpt><trkpt lat="44.7585583" lon="9.8203383"><ele>690.0</ele><time>2026-03-28T09:23:21.665Z</time></trkpt><trkpt lat="44.7586033" lon="9.820455"><ele>685.6666666666666</ele><time>2026-03-28T09:23:22.666Z</time></trkpt><trkpt lat="44.758665" lon="9.82056"><ele>681.3333333333334</ele><time>2026-03-28T09:23:23.665Z</time></trkpt><trkpt lat="44.7586983" lon="9.8206417"><ele>677.0</ele><time>2026-03-28T09:23:24.666Z</time></trkpt><trkpt lat="44.7587217" lon="9.8207767"><ele>672.6666666666667</ele><time>2026-03-28T09:23:26.665Z</time></trkpt><trkpt lat="44.7587717" lon="9.8208933"><ele>668.3333333333334</ele><time>2026-03-28T09:23:35.666Z</time></trkpt><trkpt lat="44.7587583" lon="9.8210067"><ele>664.0</ele><time>2026-03-28T09:23:37.666Z</time></trkpt><trkpt lat="44.758675" lon="9.8211433"><ele>661.8333333333334</ele><time>2026-03-28T09:23:39.665Z</time></trkpt><trkpt lat="44.75863" lon="9.821225"><ele>659.6666666666667</ele><time>2026-03-28T09:23:40.666Z</time></trkpt><trkpt lat="44.758595" lon="9.8213317"><ele>657.5</ele><time>2026-03-28T09:23:41.665Z</time></trkpt><trkpt lat="44.7585667" lon="9.8214517"><ele>655.3333333333334</ele><time>2026-03-28T09:23:42.666Z</time></trkpt><trkpt lat="44.7585333" lon="9.82156"><ele>653.1666666666666</ele><time>2026-03-28T09:23:43.665Z</time></trkpt><trkpt lat="44.758505" lon="9.821675"><ele>651.0</ele><time>2026-03-28T09:23:44.666Z</time></trkpt><trkpt lat="44.7584883" lon="9.8217967"><ele>654.0</ele><time>2026-03-28T09:23:45.667Z</time></trkpt><trkpt lat="44.7584683" lon="9.8219183"><ele>657.0</ele><time>2026-03-28T09:23:46.666Z</time></trkpt><trkpt lat="44.7584417" lon="9.822035"><ele>660.0</ele><time>2026-03-28T09:23:47.666Z</time></trkpt><trkpt lat="44.7584083" lon="9.8221517"><ele>663.0</ele><time>2026-03-28T09:23:48.665Z</time></trkpt><trkpt lat="44.7583783" lon="9.8222733"><ele>666.0</ele><time>2026-03-28T09:23:49.668Z</time></trkpt><trkpt lat="44.7583483" lon="9.8223917"><ele>669.0</ele><time>2026-03-28T09:23:50.665Z</time></trkpt><trkpt lat="44.7582917" lon="9.8225133"><ele>665.6</ele><time>2026-03-28T09:23:52.666Z</time></trkpt><trkpt lat="44.7582533" lon="9.8226483"><ele>662.2</ele><time>2026-03-28T09:24:48.665Z</time></trkpt><trkpt lat="44.7581817" lon="9.82274"><ele>658.8000000000001</ele><time>2026-03-28T09:24:57.666Z</time></trkpt><trkpt lat="44.7581733" lon="9.8228617"><ele>655.4000000000001</ele><time>2026-03-28T09:25:01.665Z</time></trkpt><trkpt lat="44.758075" lon="9.82301"><ele>652.0</ele><time>2026-03-28T09:30:49.667Z</time></trkpt><trkpt lat="44.7580683" lon="9.8231117"><ele>652.0</ele><time>2026-03-28T09:30:52.665Z</time></trkpt><trkpt lat="44.7580583" lon="9.823225"><ele>652.0</ele><time>2026-03-28T09:32:35.666Z</time></trkpt><trkpt lat="44.758125" lon="9.8232517"><ele>652.0</ele><time>2026-03-28T09:32:38.666Z</time></trkpt><trkpt lat="44.7581983" lon="9.8232267"><ele>652.0</ele><time>2026-03-28T09:32:41.665Z</time></trkpt><trkpt lat="44.75827" lon="9.8232117"><ele>652.0</ele><time>2026-03-28T09:32:44.665Z</time></trkpt><trkpt lat="44.7583033" lon="9.8233017"><ele>652.0</ele><time>2026-03-28T09:32:48.665Z</time></trkpt><trkpt lat="44.75831" lon="9.8234233"><ele>652.0</ele><time>2026-03-28T09:33:12.665Z</time></trkpt><trkpt lat="44.75834" lon="9.8235217"><ele>652.0</ele><time>2026-03-28T09:33:52.665Z</time></trkpt><trkpt lat="44.75841" lon="9.8235733"><ele>652.0</ele><time>2026-03-28T09:33:55.665Z</time></trkpt><trkpt lat="44.7584717" lon="9.8235967"><ele>652.0</ele><time>2026-03-28T09:34:01.666Z</time></trkpt><trkpt lat="44.7585733" lon="9.8236317"><ele>652.0</ele><time>2026-03-28T09:34:10.665Z</time></trkpt><trkpt lat="44.75867" lon="9.8236"><ele>652.0</ele><time>2026-03-28T09:34:13.665Z</time></trkpt><trkpt lat="44.75875" lon="9.823555"><ele>652.0</ele><time>2026-03-28T09:34:15.664Z</time></trkpt><trkpt lat="44.7588033" lon="9.8235033"><ele>652.0</ele><time>2026-03-28T09:34:17.666Z</time></trkpt><trkpt lat="44.7588433" lon="9.8234267"><ele>652.0</ele><time>2026-03-28T09:34:19.665Z</time></trkpt><trkpt lat="44.7588683" lon="9.8233283"><ele>652.0</ele><time>2026-03-28T09:34:21.664Z</time></trkpt><trkpt lat="44.75888" lon="9.82322"><ele>652.0</ele><time>2026-03-28T09:34:23.665Z</time></trkpt><trkpt lat="44.7589083" lon="9.823125"><ele>652.0</ele><time>2026-03-28T09:34:26.665Z</time></trkpt><trkpt lat="44.7589917" lon="9.8231017"><ele>652.0</ele><time>2026-03-28T09:34:29.665Z</time></trkpt><trkpt lat="44.759065" lon="9.8230767"><ele>649.6666666666667</ele><time>2026-03-28T09:34:31.666Z</time></trkpt><trkpt lat="44.75913" lon="9.8230283"><ele>647.3333333333334</ele><time>2026-03-28T09:34:33.664Z</time></trkpt><trkpt lat="44.7591983" lon="9.8229867"><ele>645.0</ele><time>2026-03-28T09:34:35.665Z</time></trkpt><trkpt lat="44.75926" lon="9.8229133"><ele>642.6666666666666</ele><time>2026-03-28T09:34:37.664Z</time></trkpt><trkpt lat="44.7593117" lon="9.82286"><ele>640.3333333333333</ele><time>2026-03-28T09:34:39.667Z</time></trkpt><trkpt lat="44.7593967" lon="9.8228417"><ele>638.0</ele><time>2026-03-28T09:34:42.665Z</time></trkpt><trkpt lat="44.7594567" lon="9.8227433"><ele>636.7142857142858</ele><time>2026-03-28T09:34:45.664Z</time></trkpt><trkpt lat="44.7594833" lon="9.8226567"><ele>635.4285714285713</ele><time>2026-03-28T09:34:47.665Z</time></trkpt><trkpt lat="44.7595417" lon="9.82256"><ele>634.1428571428571</ele><time>2026-03-28T09:34:50.669Z</time></trkpt><trkpt lat="44.7595967" lon="9.822515"><ele>632.8571428571429</ele><time>2026-03-28T09:34:52.667Z</time></trkpt><trkpt lat="44.7596583" lon="9.8224617"><ele>631.5714285714287</ele><time>2026-03-28T09:34:54.665Z</time></trkpt><trkpt lat="44.759715" lon="9.82241"><ele>630.2857142857142</ele><time>2026-03-28T09:34:56.666Z</time></trkpt><trkpt lat="44.75977" lon="9.822325"><ele>629.0</ele><time>2026-03-28T09:34:59.665Z</time></trkpt><trkpt lat="44.7598283" lon="9.8222717"><ele>625.3333333333333</ele><time>2026-03-28T09:35:03.664Z</time></trkpt><trkpt lat="44.7598983" lon="9.8223183"><ele>621.6666666666666</ele><time>2026-03-28T09:35:07.666Z</time></trkpt><trkpt lat="44.7599783" lon="9.82228"><ele>618.0</ele><time>2026-03-28T09:36:12.667Z</time></trkpt><trkpt lat="44.76004" lon="9.8222067"><ele>614.3333333333334</ele><time>2026-03-28T09:36:15.666Z</time></trkpt><trkpt lat="44.7601017" lon="9.8221517"><ele>610.6666666666667</ele><time>2026-03-28T09:36:18.666Z</time></trkpt><trkpt lat="44.7601633" lon="9.8220833"><ele>607.0</ele><time>2026-03-28T09:36:24.666Z</time></trkpt><trkpt lat="44.7602417" lon="9.8220783"><ele>607.0</ele><time>2026-03-28T09:36:28.667Z</time></trkpt><trkpt lat="44.7602933" lon="9.822025"><ele>607.0</ele><time>2026-03-28T09:36:31.664Z</time></trkpt><trkpt lat="44.7603633" lon="9.821975"><ele>607.0</ele><time>2026-03-28T09:36:34.665Z</time></trkpt><trkpt lat="44.7604467" lon="9.8219683"><ele>607.0</ele><time>2026-03-28T09:36:37.665Z</time></trkpt><trkpt lat="44.7604883" lon="9.82206"><ele>607.0</ele><time>2026-03-28T09:36:41.665Z</time></trkpt><trkpt lat="44.7606083" lon="9.82205"><ele>607.0</ele><time>2026-03-28T09:36:59.665Z</time></trkpt><trkpt lat="44.7606983" lon="9.8219317"><ele>607.0</ele><time>2026-03-28T09:37:55.665Z</time></trkpt><trkpt lat="44.7607667" lon="9.8218617"><ele>607.0</ele><time>2026-03-28T09:37:59.666Z</time></trkpt><trkpt lat="44.7608017" lon="9.821765"><ele>607.0</ele><time>2026-03-28T09:38:02.666Z</time></trkpt><trkpt lat="44.7608233" lon="9.8216617"><ele>607.0</ele><time>2026-03-28T09:38:06.668Z</time></trkpt><trkpt lat="44.76083" lon="9.8215533"><ele>607.0</ele><time>2026-03-28T09:38:10.665Z</time></trkpt><trkpt lat="44.7608817" lon="9.8214267"><ele>607.0</ele><time>2026-03-28T09:38:13.666Z</time></trkpt><trkpt lat="44.7609283" lon="9.8212733"><ele>601.4</ele><time>2026-03-28T09:38:15.666Z</time></trkpt><trkpt lat="44.76099" lon="9.8211467"><ele>595.8000000000001</ele><time>2026-03-28T09:38:17.666Z</time></trkpt><trkpt lat="44.7610467" lon="9.8210633"><ele>590.2</ele><time>2026-03-28T09:38:19.664Z</time></trkpt><trkpt lat="44.7611183" lon="9.8209833"><ele>584.6</ele><time>2026-03-28T09:38:21.666Z</time></trkpt><trkpt lat="44.761205" lon="9.8209367"><ele>579.0</ele><time>2026-03-28T09:38:23.665Z</time></trkpt><trkpt lat="44.7612867" lon="9.8208917"><ele>573.6</ele><time>2026-03-28T09:38:25.665Z</time></trkpt><trkpt lat="44.7613683" lon="9.8208817"><ele>568.2</ele><time>2026-03-28T09:38:27.666Z</time></trkpt><trkpt lat="44.76146" lon="9.820895"><ele>562.8000000000001</ele><time>2026-03-28T09:38:29.665Z</time></trkpt><trkpt lat="44.7615567" lon="9.8209"><ele>557.4</ele><time>2026-03-28T09:38:31.665Z</time></trkpt><trkpt lat="44.7616467" lon="9.82089"><ele>552.0</ele><time>2026-03-28T09:38:33.664Z</time></trkpt><trkpt lat="44.761745" lon="9.8208683"><ele>552.0</ele><time>2026-03-28T09:38:35.665Z</time></trkpt><trkpt lat="44.7618217" lon="9.8208567"><ele>552.0</ele><time>2026-03-28T09:38:37.665Z</time></trkpt><trkpt lat="44.7619083" lon="9.82083"><ele>552.0</ele><time>2026-03-28T09:38:40.667Z</time></trkpt><trkpt lat="44.7619717" lon="9.8208033"><ele>552.0</ele><time>2026-03-28T09:38:44.666Z</time></trkpt><trkpt lat="44.76204" lon="9.8207583"><ele>552.0</ele><time>2026-03-28T09:38:49.666Z</time></trkpt><trkpt lat="44.7621117" lon="9.8207283"><ele>552.0</ele><time>2026-03-28T09:38:53.665Z</time></trkpt><trkpt lat="44.7621933" lon="9.8207267"><ele>551.0</ele><time>2026-03-28T09:38:55.666Z</time></trkpt><trkpt lat="44.7622633" lon="9.8207167"><ele>550.0</ele><time>2026-03-28T09:38:56.666Z</time></trkpt><trkpt lat="44.76233" lon="9.8206967"><ele>549.0</ele><time>2026-03-28T09:38:57.666Z</time></trkpt><trkpt lat="44.7623967" lon="9.8206717"><ele>548.0</ele><time>2026-03-28T09:38:58.666Z</time></trkpt><trkpt lat="44.7624617" lon="9.82065"><ele>547.0</ele><time>2026-03-28T09:38:59.666Z</time></trkpt><trkpt lat="44.7625917" lon="9.82062"><ele>546.0</ele><time>2026-03-28T09:39:01.666Z</time></trkpt><trkpt lat="44.7626567" lon="9.820605"><ele>543.5</ele><time>2026-03-28T09:39:02.665Z</time></trkpt><trkpt lat="44.7627683" lon="9.82058"><ele>541.0</ele><time>2026-03-28T09:39:04.666Z</time></trkpt><trkpt lat="44.7628883" lon="9.82054"><ele>538.5</ele><time>2026-03-28T09:39:06.666Z</time></trkpt><trkpt lat="44.762985" lon="9.820545"><ele>536.0</ele><time>2026-03-28T09:39:08.667Z</time></trkpt><trkpt lat="44.7631083" lon="9.8206083"><ele>536.0</ele><time>2026-03-28T09:39:10.665Z</time></trkpt><trkpt lat="44.763215" lon="9.82067"><ele>536.0</ele><time>2026-03-28T09:39:12.665Z</time></trkpt><trkpt lat="44.7633183" lon="9.820745"><ele>536.0</ele><time>2026-03-28T09:39:14.666Z</time></trkpt><trkpt lat="44.763385" lon="9.8207933"><ele>536.0</ele><time>2026-03-28T09:39:15.666Z</time></trkpt><trkpt lat="44.7634767" lon="9.82089"><ele>536.0</ele><time>2026-03-28T09:39:17.666Z</time></trkpt><trkpt lat="44.7635517" lon="9.8209383"><ele>534.6</ele><time>2026-03-28T09:39:19.666Z</time></trkpt><trkpt lat="44.763595" lon="9.82102"><ele>533.2</ele><time>2026-03-28T09:39:22.665Z</time></trkpt><trkpt lat="44.763675" lon="9.8211617"><ele>531.8</ele><time>2026-03-28T09:39:36.666Z</time></trkpt><trkpt lat="44.76373" lon="9.821225"><ele>530.4</ele><time>2026-03-28T09:39:40.664Z</time></trkpt><trkpt lat="44.7637883" lon="9.8213567"><ele>529.0</ele><time>2026-03-28T09:39:43.665Z</time></trkpt><trkpt lat="44.7638233" lon="9.8214967"><ele>529.0</ele><time>2026-03-28T09:39:45.665Z</time></trkpt><trkpt lat="44.7638567" lon="9.8216417"><ele>529.0</ele><time>2026-03-28T09:39:47.666Z</time></trkpt><trkpt lat="44.76389" lon="9.8218217"><ele>529.0</ele><time>2026-03-28T09:39:49.666Z</time></trkpt><trkpt lat="44.763925" lon="9.8219717"><ele>529.0</ele><time>2026-03-28T09:39:51.665Z</time></trkpt><trkpt lat="44.7639467" lon="9.8221017"><ele>529.0</ele><time>2026-03-28T09:39:53.666Z</time></trkpt><trkpt lat="44.764005" lon="9.8221767"><ele>528.3333333333334</ele><time>2026-03-28T09:39:56.666Z</time></trkpt><trkpt lat="44.764095" lon="9.822165"><ele>527.6666666666667</ele><time>2026-03-28T09:40:15.666Z</time></trkpt><trkpt lat="44.7641717" lon="9.8221733"><ele>527.0</ele><time>2026-03-28T09:40:19.665Z</time></trkpt><trkpt lat="44.764255" lon="9.82221"><ele>526.3333333333334</ele><time>2026-03-28T09:40:21.666Z</time></trkpt><trkpt lat="44.7643367" lon="9.822265"><ele>525.6666666666666</ele><time>2026-03-28T09:40:23.665Z</time></trkpt><trkpt lat="44.7644017" lon="9.8223283"><ele>525.0</ele><time>2026-03-28T09:40:25.665Z</time></trkpt><trkpt lat="44.7644467" lon="9.8224117"><ele>523.5</ele><time>2026-03-28T09:40:27.666Z</time></trkpt><trkpt lat="44.764515" lon="9.8225083"><ele>522.0</ele><time>2026-03-28T09:40:30.665Z</time></trkpt><trkpt lat="44.7645667" lon="9.8225783"><ele>520.5</ele><time>2026-03-28T09:40:32.665Z</time></trkpt><trkpt lat="44.76462" lon="9.8226517"><ele>519.0</ele><time>2026-03-28T09:40:34.666Z</time></trkpt><trkpt lat="44.76468" lon="9.8226933"><ele>517.5</ele><time>2026-03-28T09:40:37.665Z</time></trkpt><trkpt lat="44.7647483" lon="9.8227433"><ele>516.0</ele><time>2026-03-28T09:40:40.666Z</time></trkpt><trkpt lat="44.7648167" lon="9.8227417"><ele>514.8</ele><time>2026-03-28T09:40:43.665Z</time></trkpt><trkpt lat="44.7649" lon="9.8227833"><ele>513.6</ele><time>2026-03-28T09:40:52.666Z</time></trkpt><trkpt lat="44.765005" lon="9.8227767"><ele>512.4</ele><time>2026-03-28T09:41:57.664Z</time></trkpt><trkpt lat="44.7650883" lon="9.822805"><ele>511.2</ele><time>2026-03-28T09:41:59.665Z</time></trkpt><trkpt lat="44.7651533" lon="9.82286"><ele>510.0</ele><time>2026-03-28T09:42:00.666Z</time></trkpt><trkpt lat="44.7652467" lon="9.8229833"><ele>507.8333333333333</ele><time>2026-03-28T09:42:02.665Z</time></trkpt><trkpt lat="44.7652967" lon="9.82304"><ele>505.66666666666663</ele><time>2026-03-28T09:42:03.666Z</time></trkpt><trkpt lat="44.7653533" lon="9.82309"><ele>503.5</ele><time>2026-03-28T09:42:04.666Z</time></trkpt><trkpt lat="44.7654767" lon="9.82315"><ele>501.3333333333333</ele><time>2026-03-28T09:42:06.665Z</time></trkpt><trkpt lat="44.7655517" lon="9.8231733"><ele>499.16666666666663</ele><time>2026-03-28T09:42:07.665Z</time></trkpt><trkpt lat="44.765625" lon="9.8231967"><ele>497.0</ele><time>2026-03-28T09:42:08.666Z</time></trkpt><trkpt lat="44.7657133" lon="9.8232267"><ele>496.99999999999994</ele><time>2026-03-28T09:42:09.665Z</time></trkpt><trkpt lat="44.7658017" lon="9.823245"><ele>497.0</ele><time>2026-03-28T09:42:10.665Z</time></trkpt><trkpt lat="44.7658767" lon="9.823255"><ele>497.0</ele><time>2026-03-28T09:42:11.665Z</time></trkpt><trkpt lat="44.7659617" lon="9.8232883"><ele>497.0</ele><time>2026-03-28T09:42:12.664Z</time></trkpt><trkpt lat="44.7660333" lon="9.8233167"><ele>496.99999999999994</ele><time>2026-03-28T09:42:13.666Z</time></trkpt><trkpt lat="44.7661133" lon="9.8234383"><ele>497.0</ele><time>2026-03-28T09:42:15.664Z</time></trkpt><trkpt lat="44.7661617" lon="9.8235983"><ele>495.6</ele><time>2026-03-28T09:42:17.666Z</time></trkpt><trkpt lat="44.7662" lon="9.823715"><ele>494.20000000000005</ele><time>2026-03-28T09:42:19.665Z</time></trkpt><trkpt lat="44.7662833" lon="9.8237317"><ele>492.8</ele><time>2026-03-28T09:42:22.664Z</time></trkpt><trkpt lat="44.7664317" lon="9.8236317"><ele>491.4</ele><time>2026-03-28T09:42:37.666Z</time></trkpt><trkpt lat="44.7664867" lon="9.8235817"><ele>490.0</ele><time>2026-03-28T09:42:39.664Z</time></trkpt><trkpt lat="44.7665517" lon="9.8235633"><ele>490.00000000000006</ele><time>2026-03-28T09:42:41.666Z</time></trkpt><trkpt lat="44.76663" lon="9.8235583"><ele>490.0</ele><time>2026-03-28T09:42:45.666Z</time></trkpt><trkpt lat="44.7667117" lon="9.823555"><ele>490.0</ele><time>2026-03-28T09:42:48.664Z</time></trkpt><trkpt lat="44.7667783" lon="9.8235983"><ele>490.0</ele><time>2026-03-28T09:43:06.666Z</time></trkpt><trkpt lat="44.7668417" lon="9.8236517"><ele>490.00000000000006</ele><time>2026-03-28T09:43:08.665Z</time></trkpt><trkpt lat="44.7669617" lon="9.823725"><ele>490.0</ele><time>2026-03-28T09:43:10.666Z</time></trkpt><trkpt lat="44.7670233" lon="9.8237633"><ele>490.6</ele><time>2026-03-28T09:43:11.666Z</time></trkpt><trkpt lat="44.7670867" lon="9.823815"><ele>491.2</ele><time>2026-03-28T09:43:12.665Z</time></trkpt><trkpt lat="44.7671767" lon="9.8239067"><ele>491.79999999999995</ele><time>2026-03-28T09:43:14.666Z</time></trkpt><trkpt lat="44.7672683" lon="9.8239267"><ele>492.4</ele><time>2026-03-28T09:43:16.665Z</time></trkpt><trkpt lat="44.7673583" lon="9.8239417"><ele>493.0</ele><time>2026-03-28T09:43:18.666Z</time></trkpt><trkpt lat="44.7674217" lon="9.8240433"><ele>493.00000000000006</ele><time>2026-03-28T09:43:20.665Z</time></trkpt><trkpt lat="44.7674967" lon="9.82419"><ele>493.0</ele><time>2026-03-28T09:43:22.665Z</time></trkpt><trkpt lat="44.76754" lon="9.8242717"><ele>493.0</ele><time>2026-03-28T09:43:23.665Z</time></trkpt><trkpt lat="44.7675883" lon="9.82436"><ele>493.0</ele><time>2026-03-28T09:43:24.666Z</time></trkpt><trkpt lat="44.7676433" lon="9.8244517"><ele>493.00000000000006</ele><time>2026-03-28T09:43:25.666Z</time></trkpt><trkpt lat="44.7677" lon="9.82453"><ele>493.0</ele><time>2026-03-28T09:43:26.667Z</time></trkpt><trkpt lat="44.76775" lon="9.8246117"><ele>491.00000000000006</ele><time>2026-03-28T09:43:27.665Z</time></trkpt><trkpt lat="44.7677883" lon="9.8246933"><ele>489.0</ele><time>2026-03-28T09:43:28.666Z</time></trkpt><trkpt lat="44.7678633" lon="9.8248267"><ele>487.0</ele><time>2026-03-28T09:43:30.665Z</time></trkpt><trkpt lat="44.767915" lon="9.8248867"><ele>485.0</ele><time>2026-03-28T09:43:31.666Z</time></trkpt><trkpt lat="44.7679883" lon="9.8249467"><ele>483.00000000000006</ele><time>2026-03-28T09:43:32.666Z</time></trkpt><trkpt lat="44.7680617" lon="9.824995"><ele>481.0</ele><time>2026-03-28T09:43:33.664Z</time></trkpt><trkpt lat="44.768135" lon="9.8250383"><ele>481.00000000000006</ele><time>2026-03-28T09:43:34.665Z</time></trkpt><trkpt lat="44.76821" lon="9.8250667"><ele>481.0</ele><time>2026-03-28T09:43:35.664Z</time></trkpt><trkpt lat="44.7682867" lon="9.8250833"><ele>481.0</ele><time>2026-03-28T09:43:36.665Z</time></trkpt><trkpt lat="44.7683667" lon="9.8251167"><ele>481.0</ele><time>2026-03-28T09:43:37.666Z</time></trkpt><trkpt lat="44.768445" lon="9.8251517"><ele>481.00000000000006</ele><time>2026-03-28T09:43:38.666Z</time></trkpt><trkpt lat="44.768515" lon="9.8251683"><ele>481.0</ele><time>2026-03-28T09:43:39.665Z</time></trkpt><trkpt lat="44.7685767" lon="9.8251933"><ele>479.1666666666667</ele><time>2026-03-28T09:43:40.665Z</time></trkpt><trkpt lat="44.7687033" lon="9.82527"><ele>477.33333333333337</ele><time>2026-03-28T09:43:42.666Z</time></trkpt><trkpt lat="44.7687767" lon="9.8252967"><ele>475.5</ele><time>2026-03-28T09:43:43.664Z</time></trkpt><trkpt lat="44.76884" lon="9.8253133"><ele>473.66666666666663</ele><time>2026-03-28T09:43:44.665Z</time></trkpt><trkpt lat="44.7689067" lon="9.8253183"><ele>471.8333333333333</ele><time>2026-03-28T09:43:45.665Z</time></trkpt><trkpt lat="44.7689767" lon="9.8253217"><ele>470.0</ele><time>2026-03-28T09:43:46.665Z</time></trkpt><trkpt lat="44.7690467" lon="9.82533"><ele>469.99999999999994</ele><time>2026-03-28T09:43:47.67Z</time></trkpt><trkpt lat="44.7691217" lon="9.8253467"><ele>470.0</ele><time>2026-03-28T09:43:48.666Z</time></trkpt><trkpt lat="44.769205" lon="9.8253717"><ele>470.0</ele><time>2026-03-28T09:43:49.665Z</time></trkpt><trkpt lat="44.7693017" lon="9.8253967"><ele>470.0</ele><time>2026-03-28T09:43:50.666Z</time></trkpt><trkpt lat="44.7693767" lon="9.8254083"><ele>469.99999999999994</ele><time>2026-03-28T09:43:51.665Z</time></trkpt><trkpt lat="44.76948" lon="9.8254317"><ele>470.0</ele><time>2026-03-28T09:43:53.665Z</time></trkpt><trkpt lat="44.76958" lon="9.8254533"><ele>470.0</ele><time>2026-03-28T09:43:55.665Z</time></trkpt><trkpt lat="44.76969" lon="9.8254667"><ele>470.0</ele><time>2026-03-28T09:43:57.666Z</time></trkpt><trkpt lat="44.7698217" lon="9.8255033"><ele>470.0</ele><time>2026-03-28T09:43:59.665Z</time></trkpt><trkpt lat="44.7698933" lon="9.825545"><ele>470.0</ele><time>2026-03-28T09:44:00.666Z</time></trkpt><trkpt lat="44.76996" lon="9.8255783"><ele>470.0</ele><time>2026-03-28T09:44:01.667Z</time></trkpt><trkpt lat="44.7700267" lon="9.8255967"><ele>469.99999999999994</ele><time>2026-03-28T09:44:02.664Z</time></trkpt><trkpt lat="44.7700917" lon="9.8256033"><ele>470.0</ele><time>2026-03-28T09:44:03.666Z</time></trkpt><trkpt lat="44.7701617" lon="9.8256117"><ele>470.0</ele><time>2026-03-28T09:44:04.665Z</time></trkpt><trkpt lat="44.7702383" lon="9.8256267"><ele>470.0</ele><time>2026-03-28T09:44:05.665Z</time></trkpt><trkpt lat="44.7703267" lon="9.825655"><ele>469.99999999999994</ele><time>2026-03-28T09:44:07.666Z</time></trkpt><trkpt lat="44.77039" lon="9.8256583"><ele>470.0</ele><time>2026-03-28T09:44:44.665Z</time></trkpt><trkpt lat="44.770425" lon="9.8257733"><ele>469.2</ele><time>2026-03-28T09:44:47.665Z</time></trkpt><trkpt lat="44.77041" lon="9.8259067"><ele>468.4</ele><time>2026-03-28T09:44:49.666Z</time></trkpt><trkpt lat="44.770365" lon="9.82605"><ele>467.6</ele><time>2026-03-28T09:44:51.666Z</time></trkpt><trkpt lat="44.770375" lon="9.8261833"><ele>466.8</ele><time>2026-03-28T09:44:53.665Z</time></trkpt><trkpt lat="44.7703767" lon="9.8262933"><ele>466.0</ele><time>2026-03-28T09:44:55.666Z</time></trkpt><trkpt lat="44.7703583" lon="9.8264033"><ele>466.00000000000006</ele><time>2026-03-28T09:44:57.665Z</time></trkpt><trkpt lat="44.77033" lon="9.8265067"><ele>466.0</ele><time>2026-03-28T09:44:59.665Z</time></trkpt><trkpt lat="44.7703067" lon="9.826615"><ele>466.0</ele><time>2026-03-28T09:45:01.665Z</time></trkpt><trkpt lat="44.7702917" lon="9.82672"><ele>466.0</ele><time>2026-03-28T09:45:03.665Z</time></trkpt><trkpt lat="44.7703517" lon="9.8267567"><ele>466.00000000000006</ele><time>2026-03-28T09:45:06.666Z</time></trkpt><trkpt lat="44.7704417" lon="9.82675"><ele>466.0</ele><time>2026-03-28T09:45:08.667Z</time></trkpt><trkpt lat="44.770535" lon="9.8267783"><ele>464.4</ele><time>2026-03-28T09:45:10.666Z</time></trkpt><trkpt lat="44.77061" lon="9.8269183"><ele>462.8</ele><time>2026-03-28T09:45:12.666Z</time></trkpt><trkpt lat="44.7706367" lon="9.8270067"><ele>461.19999999999993</ele><time>2026-03-28T09:45:13.666Z</time></trkpt><trkpt lat="44.7706817" lon="9.827145"><ele>459.59999999999997</ele><time>2026-03-28T09:45:15.666Z</time></trkpt><trkpt lat="44.770745" lon="9.8273"><ele>458.0</ele><time>2026-03-28T09:45:17.665Z</time></trkpt><trkpt lat="44.7707833" lon="9.8274417"><ele>457.99999999999994</ele><time>2026-03-28T09:45:19.665Z</time></trkpt><trkpt lat="44.7708217" lon="9.827515"><ele>458.0</ele><time>2026-03-28T09:45:21.665Z</time></trkpt><trkpt lat="44.7709183" lon="9.8274917"><ele>458.0</ele><time>2026-03-28T09:45:23.665Z</time></trkpt><trkpt lat="44.7709983" lon="9.8274683"><ele>458.0</ele><time>2026-03-28T09:45:24.666Z</time></trkpt><trkpt lat="44.77107" lon="9.8274583"><ele>457.99999999999994</ele><time>2026-03-28T09:45:25.665Z</time></trkpt><trkpt lat="44.7711883" lon="9.827455"><ele>458.0</ele><time>2026-03-28T09:45:27.665Z</time></trkpt><trkpt lat="44.77125" lon="9.8274767"><ele>457.0</ele><time>2026-03-28T09:45:28.666Z</time></trkpt><trkpt lat="44.7713667" lon="9.8275183"><ele>456.0</ele><time>2026-03-28T09:45:30.665Z</time></trkpt><trkpt lat="44.7714567" lon="9.8276233"><ele>455.0</ele><time>2026-03-28T09:45:32.668Z</time></trkpt><trkpt lat="44.77151" lon="9.8277533"><ele>454.0</ele><time>2026-03-28T09:45:34.665Z</time></trkpt><trkpt lat="44.7715683" lon="9.8278833"><ele>454.79999999999995</ele><time>2026-03-28T09:45:36.665Z</time></trkpt><trkpt lat="44.7716117" lon="9.8280133"><ele>455.59999999999997</ele><time>2026-03-28T09:45:38.666Z</time></trkpt><trkpt lat="44.7716683" lon="9.828145"><ele>456.4</ele><time>2026-03-28T09:45:40.666Z</time></trkpt><trkpt lat="44.7717417" lon="9.8282733"><ele>457.2</ele><time>2026-03-28T09:45:42.667Z</time></trkpt><trkpt lat="44.7718083" lon="9.828395"><ele>458.0</ele><time>2026-03-28T09:45:44.667Z</time></trkpt><trkpt lat="44.7718467" lon="9.828525"><ele>453.4</ele><time>2026-03-28T09:45:46.666Z</time></trkpt><trkpt lat="44.77188" lon="9.8286883"><ele>448.79999999999995</ele><time>2026-03-28T09:45:48.666Z</time></trkpt><trkpt lat="44.7719283" lon="9.8288283"><ele>444.2</ele><time>2026-03-28T09:45:50.666Z</time></trkpt><trkpt lat="44.771995" lon="9.8289333"><ele>439.6</ele><time>2026-03-28T09:45:52.666Z</time></trkpt><trkpt lat="44.7720783" lon="9.8290367"><ele>435.0</ele><time>2026-03-28T09:45:54.666Z</time></trkpt><trkpt lat="44.7721333" lon="9.8290817"><ele>435.0</ele><time>2026-03-28T09:45:55.666Z</time></trkpt><trkpt lat="44.7722533" lon="9.829145"><ele>435.0</ele><time>2026-03-28T09:45:57.665Z</time></trkpt><trkpt lat="44.7723167" lon="9.8291667"><ele>435.0</ele><time>2026-03-28T09:45:58.666Z</time></trkpt><trkpt lat="44.7724033" lon="9.829205"><ele>435.0</ele><time>2026-03-28T09:46:00.666Z</time></trkpt><trkpt lat="44.7724617" lon="9.829265"><ele>435.0</ele><time>2026-03-28T09:46:03.665Z</time></trkpt><trkpt lat="44.77248" lon="9.8293967"><ele>435.8</ele><time>2026-03-28T09:46:06.665Z</time></trkpt><trkpt lat="44.7724967" lon="9.8294867"><ele>436.6</ele><time>2026-03-28T09:46:08.666Z</time></trkpt><trkpt lat="44.77253" lon="9.8296183"><ele>437.4</ele><time>2026-03-28T09:46:10.666Z</time></trkpt><trkpt lat="44.7725517" lon="9.82971"><ele>438.2</ele><time>2026-03-28T09:46:11.666Z</time></trkpt><trkpt lat="44.7726067" lon="9.8298233"><ele>439.0</ele><time>2026-03-28T09:46:12.666Z</time></trkpt><trkpt lat="44.7726633" lon="9.8299767"><ele>436.6</ele><time>2026-03-28T09:46:13.666Z</time></trkpt><trkpt lat="44.772725" lon="9.830095"><ele>434.2</ele><time>2026-03-28T09:46:14.666Z</time></trkpt><trkpt lat="44.7727817" lon="9.83019"><ele>431.80000000000007</ele><time>2026-03-28T09:46:15.667Z</time></trkpt><trkpt lat="44.7728583" lon="9.830265"><ele>429.40000000000003</ele><time>2026-03-28T09:46:16.665Z</time></trkpt><trkpt lat="44.7729333" lon="9.8303433"><ele>427.0</ele><time>2026-03-28T09:46:17.665Z</time></trkpt><trkpt lat="44.7729933" lon="9.830415"><ele>426.0</ele><time>2026-03-28T09:46:18.665Z</time></trkpt><trkpt lat="44.77305" lon="9.8304767"><ele>425.00000000000006</ele><time>2026-03-28T09:46:19.665Z</time></trkpt><trkpt lat="44.7731383" lon="9.8305817"><ele>424.0</ele><time>2026-03-28T09:46:21.666Z</time></trkpt><trkpt lat="44.7731983" lon="9.8307333"><ele>423.0</ele><time>2026-03-28T09:46:23.665Z</time></trkpt><trkpt lat="44.7732133" lon="9.830825"><ele>422.0</ele><time>2026-03-28T09:46:24.666Z</time></trkpt><trkpt lat="44.7732283" lon="9.8309867"><ele>421.99999999999994</ele><time>2026-03-28T09:46:26.667Z</time></trkpt><trkpt lat="44.77323" lon="9.8311217"><ele>422.0</ele><time>2026-03-28T09:46:28.666Z</time></trkpt><trkpt lat="44.77323" lon="9.8312333"><ele>422.0</ele><time>2026-03-28T09:46:30.666Z</time></trkpt><trkpt lat="44.7732733" lon="9.8313067"><ele>422.0</ele><time>2026-03-28T09:46:32.667Z</time></trkpt><trkpt lat="44.7733517" lon="9.831325"><ele>421.99999999999994</ele><time>2026-03-28T09:46:35.665Z</time></trkpt><trkpt lat="44.7734517" lon="9.831345"><ele>422.0</ele><time>2026-03-28T09:46:38.667Z</time></trkpt><trkpt lat="44.7735117" lon="9.8313967"><ele>422.16666666666663</ele><time>2026-03-28T09:46:40.665Z</time></trkpt><trkpt lat="44.7735633" lon="9.8314917"><ele>422.3333333333333</ele><time>2026-03-28T09:46:42.665Z</time></trkpt><trkpt lat="44.7736133" lon="9.8315983"><ele>422.5</ele><time>2026-03-28T09:46:44.666Z</time></trkpt><trkpt lat="44.77367" lon="9.8316967"><ele>422.66666666666663</ele><time>2026-03-28T09:46:46.666Z</time></trkpt><trkpt lat="44.77373" lon="9.8317683"><ele>422.8333333333333</ele><time>2026-03-28T09:46:48.667Z</time></trkpt><trkpt lat="44.773815" lon="9.8318417"><ele>423.0</ele><time>2026-03-28T09:47:06.665Z</time></trkpt><trkpt lat="44.7738633" lon="9.83192"><ele>420.6666666666667</ele><time>2026-03-28T09:47:08.738Z</time></trkpt><trkpt lat="44.7738933" lon="9.8320083"><ele>418.33333333333337</ele><time>2026-03-28T09:47:10.666Z</time></trkpt><trkpt lat="44.7739517" lon="9.8321183"><ele>416.0</ele><time>2026-03-28T09:47:13.666Z</time></trkpt><trkpt lat="44.773985" lon="9.8322167"><ele>413.6666666666667</ele><time>2026-03-28T09:47:16.667Z</time></trkpt><trkpt lat="44.7739983" lon="9.8323367"><ele>411.33333333333337</ele><time>2026-03-28T09:47:19.666Z</time></trkpt><trkpt lat="44.7740133" lon="9.8324283"><ele>409.0</ele><time>2026-03-28T09:47:21.665Z</time></trkpt><trkpt lat="44.77404" lon="9.83252"><ele>409.0</ele><time>2026-03-28T09:47:23.666Z</time></trkpt><trkpt lat="44.7740817" lon="9.8326133"><ele>409.0</ele><time>2026-03-28T09:47:25.665Z</time></trkpt><trkpt lat="44.7741417" lon="9.8327083"><ele>409.0</ele><time>2026-03-28T09:47:27.665Z</time></trkpt><trkpt lat="44.7742167" lon="9.832815"><ele>409.0</ele><time>2026-03-28T09:47:29.665Z</time></trkpt><trkpt lat="44.7742867" lon="9.832965"><ele>409.0</ele><time>2026-03-28T09:47:31.665Z</time></trkpt><trkpt lat="44.7743133" lon="9.8330517"><ele>408.4</ele><time>2026-03-28T09:47:32.666Z</time></trkpt><trkpt lat="44.7743433" lon="9.8331317"><ele>407.79999999999995</ele><time>2026-03-28T09:47:33.666Z</time></trkpt><trkpt lat="44.774415" lon="9.8332517"><ele>407.20000000000005</ele><time>2026-03-28T09:47:35.666Z</time></trkpt><trkpt lat="44.7745067" lon="9.833335"><ele>406.6</ele><time>2026-03-28T09:47:37.666Z</time></trkpt><trkpt lat="44.7745667" lon="9.8334383"><ele>406.0</ele><time>2026-03-28T09:47:39.666Z</time></trkpt><trkpt lat="44.7745917" lon="9.8336083"><ele>406.00000000000006</ele><time>2026-03-28T09:47:41.666Z</time></trkpt><trkpt lat="44.7745783" lon="9.8336983"><ele>406.0</ele><time>2026-03-28T09:47:42.665Z</time></trkpt><trkpt lat="44.7745567" lon="9.8337833"><ele>406.0</ele><time>2026-03-28T09:47:43.667Z</time></trkpt><trkpt lat="44.7745283" lon="9.83387"><ele>406.0</ele><time>2026-03-28T09:47:44.667Z</time></trkpt><trkpt lat="44.7745067" lon="9.8340333"><ele>406.00000000000006</ele><time>2026-03-28T09:47:46.667Z</time></trkpt><trkpt lat="44.7745767" lon="9.8341483"><ele>406.0</ele><time>2026-03-28T09:47:48.665Z</time></trkpt><trkpt lat="44.7746883" lon="9.834225"><ele>404.6666666666667</ele><time>2026-03-28T09:47:50.665Z</time></trkpt><trkpt lat="44.77478" lon="9.834345"><ele>403.33333333333337</ele><time>2026-03-28T09:47:52.666Z</time></trkpt><trkpt lat="44.7748033" lon="9.8344333"><ele>402.0</ele><time>2026-03-28T09:47:53.665Z</time></trkpt><trkpt lat="44.7748167" lon="9.834525"><ele>400.66666666666663</ele><time>2026-03-28T09:47:54.666Z</time></trkpt><trkpt lat="44.7748133" lon="9.83463"><ele>399.3333333333333</ele><time>2026-03-28T09:47:55.666Z</time></trkpt><trkpt lat="44.7748333" lon="9.8347217"><ele>398.0</ele><time>2026-03-28T09:47:56.665Z</time></trkpt><trkpt lat="44.7748633" lon="9.83481"><ele>397.99999999999994</ele><time>2026-03-28T09:47:57.667Z</time></trkpt><trkpt lat="44.77493" lon="9.8348867"><ele>398.0</ele><time>2026-03-28T09:47:58.668Z</time></trkpt><trkpt lat="44.7749983" lon="9.834945"><ele>398.0</ele><time>2026-03-28T09:47:59.666Z</time></trkpt><trkpt lat="44.77506" lon="9.834985"><ele>398.0</ele><time>2026-03-28T09:48:00.666Z</time></trkpt><trkpt lat="44.775125" lon="9.8350367"><ele>397.99999999999994</ele><time>2026-03-28T09:48:02.666Z</time></trkpt><trkpt lat="44.77502" lon="9.834945"><ele>398.0</ele><time>2026-03-28T09:48:40.666Z</time></trkpt><trkpt lat="44.7749617" lon="9.8348983"><ele>397.99999999999994</ele><time>2026-03-28T09:48:41.665Z</time></trkpt><trkpt lat="44.7749083" lon="9.834835"><ele>398.0</ele><time>2026-03-28T09:48:42.666Z</time></trkpt><trkpt lat="44.774865" lon="9.834765"><ele>398.0</ele><time>2026-03-28T09:48:43.666Z</time></trkpt><trkpt lat="44.7748233" lon="9.8346917"><ele>398.0</ele><time>2026-03-28T09:48:44.666Z</time></trkpt><trkpt lat="44.7748" lon="9.834605"><ele>398.0</ele><time>2026-03-28T09:48:45.666Z</time></trkpt><trkpt lat="44.774785" lon="9.8345083"><ele>397.99999999999994</ele><time>2026-03-28T09:48:46.666Z</time></trkpt><trkpt lat="44.774775" lon="9.8344083"><ele>398.0</ele><time>2026-03-28T09:48:47.665Z</time></trkpt><trkpt lat="44.774765" lon="9.8343183"><ele>399.59999999999997</ele><time>2026-03-28T09:48:48.666Z</time></trkpt><trkpt lat="44.774715" lon="9.8341933"><ele>401.2</ele><time>2026-03-28T09:48:50.666Z</time></trkpt><trkpt lat="44.77461" lon="9.8341417"><ele>402.8</ele><time>2026-03-28T09:48:52.665Z</time></trkpt><trkpt lat="44.7745317" lon="9.8340733"><ele>404.4</ele><time>2026-03-28T09:48:54.665Z</time></trkpt><trkpt lat="44.7745167" lon="9.8339417"><ele>406.0</ele><time>2026-03-28T09:48:57.665Z</time></trkpt><trkpt lat="44.7745583" lon="9.833835"><ele>406.00000000000006</ele><time>2026-03-28T09:48:59.666Z</time></trkpt><trkpt lat="44.7745833" lon="9.8337433"><ele>406.0</ele><time>2026-03-28T09:49:01.666Z</time></trkpt><trkpt lat="44.77459" lon="9.8336033"><ele>406.0</ele><time>2026-03-28T09:49:08.665Z</time></trkpt><trkpt lat="44.774555" lon="9.8334833"><ele>406.0</ele><time>2026-03-28T09:49:10.666Z</time></trkpt><trkpt lat="44.7744917" lon="9.833385"><ele>406.00000000000006</ele><time>2026-03-28T09:49:12.666Z</time></trkpt><trkpt lat="44.7744283" lon="9.8333167"><ele>406.0</ele><time>2026-03-28T09:49:14.666Z</time></trkpt><trkpt lat="44.7743817" lon="9.8332533"><ele>406.0</ele><time>2026-03-28T09:49:16.664Z</time></trkpt><trkpt lat="44.774405" lon="9.8333433"><ele>406.0</ele><time>2026-03-28T09:49:21.666Z</time></trkpt><trkpt lat="44.774455" lon="9.83345"><ele>406.0</ele><time>2026-03-28T09:49:23.666Z</time></trkpt><trkpt lat="44.7744717" lon="9.8335983"><ele>406.0</ele><time>2026-03-28T09:49:25.665Z</time></trkpt><trkpt lat="44.77445" lon="9.8337417"><ele>406.0</ele><time>2026-03-28T09:49:27.665Z</time></trkpt><trkpt lat="44.7743983" lon="9.83388"><ele>406.00000000000006</ele><time>2026-03-28T09:49:29.665Z</time></trkpt><trkpt lat="44.7743733" lon="9.8339617"><ele>406.0</ele><time>2026-03-28T09:49:30.665Z</time></trkpt><trkpt lat="44.7743417" lon="9.8341083"><ele>406.0</ele><time>2026-03-28T09:49:32.665Z</time></trkpt><trkpt lat="44.7743267" lon="9.8342067"><ele>406.0</ele><time>2026-03-28T09:49:34.666Z</time></trkpt><trkpt lat="44.77429" lon="9.8343133"><ele>406.00000000000006</ele><time>2026-03-28T09:49:36.665Z</time></trkpt><trkpt lat="44.7742417" lon="9.834385"><ele>406.0</ele><time>2026-03-28T09:49:38.667Z</time></trkpt><trkpt lat="44.77416" lon="9.8344117"><ele>408.0</ele><time>2026-03-28T09:53:22.665Z</time></trkpt><trkpt lat="44.7740667" lon="9.8344017"><ele>410.0</ele><time>2026-03-28T09:53:24.666Z</time></trkpt><trkpt lat="44.7739483" lon="9.8343817"><ele>412.0</ele><time>2026-03-28T09:53:26.665Z</time></trkpt><trkpt lat="44.773885" lon="9.8343767"><ele>414.0</ele><time>2026-03-28T09:53:27.665Z</time></trkpt><trkpt lat="44.77377" lon="9.8343933"><ele>416.0</ele><time>2026-03-28T09:53:29.665Z</time></trkpt><trkpt lat="44.7736867" lon="9.83438"><ele>415.99999999999994</ele><time>2026-03-28T09:53:31.664Z</time></trkpt><trkpt lat="44.7735833" lon="9.83432"><ele>416.0</ele><time>2026-03-28T09:53:33.664Z</time></trkpt><trkpt lat="44.7735183" lon="9.8343133"><ele>416.0</ele><time>2026-03-28T09:53:34.665Z</time></trkpt><trkpt lat="44.7734467" lon="9.8343217"><ele>416.0</ele><time>2026-03-28T09:53:35.666Z</time></trkpt><trkpt lat="44.7733283" lon="9.8343367"><ele>415.99999999999994</ele><time>2026-03-28T09:53:37.664Z</time></trkpt><trkpt lat="44.7732633" lon="9.8343583"><ele>416.0</ele><time>2026-03-28T09:53:38.666Z</time></trkpt><trkpt lat="44.7731967" lon="9.8343917"><ele>418.99999999999994</ele><time>2026-03-28T09:53:39.665Z</time></trkpt><trkpt lat="44.7730767" lon="9.8344633"><ele>422.0</ele><time>2026-03-28T09:53:41.665Z</time></trkpt><trkpt lat="44.7730067" lon="9.83451"><ele>425.0</ele><time>2026-03-28T09:53:42.665Z</time></trkpt><trkpt lat="44.7729367" lon="9.8345467"><ele>428.0</ele><time>2026-03-28T09:53:43.664Z</time></trkpt><trkpt lat="44.7728667" lon="9.83458"><ele>430.99999999999994</ele><time>2026-03-28T09:53:44.665Z</time></trkpt><trkpt lat="44.7727967" lon="9.83461"><ele>434.0</ele><time>2026-03-28T09:53:45.665Z</time></trkpt><trkpt lat="44.7727233" lon="9.834645"><ele>437.6</ele><time>2026-03-28T09:53:46.665Z</time></trkpt><trkpt lat="44.77266" lon="9.8346983"><ele>441.2</ele><time>2026-03-28T09:53:47.668Z</time></trkpt><trkpt lat="44.772605" lon="9.8347683"><ele>444.80000000000007</ele><time>2026-03-28T09:53:48.666Z</time></trkpt><trkpt lat="44.7725417" lon="9.8349083"><ele>448.40000000000003</ele><time>2026-03-28T09:53:50.667Z</time></trkpt><trkpt lat="44.77253" lon="9.8350483"><ele>452.0</ele><time>2026-03-28T09:53:52.667Z</time></trkpt><trkpt lat="44.772535" lon="9.8351683"><ele>451.99999999999994</ele><time>2026-03-28T09:53:54.665Z</time></trkpt><trkpt lat="44.7724417" lon="9.835235"><ele>452.0</ele><time>2026-03-28T09:53:56.665Z</time></trkpt><trkpt lat="44.7723767" lon="9.83524"><ele>452.0</ele><time>2026-03-28T09:53:57.665Z</time></trkpt><trkpt lat="44.7723067" lon="9.8352183"><ele>452.0</ele><time>2026-03-28T09:53:58.665Z</time></trkpt><trkpt lat="44.772235" lon="9.83519"><ele>451.99999999999994</ele><time>2026-03-28T09:53:59.665Z</time></trkpt><trkpt lat="44.7721767" lon="9.8351467"><ele>452.0</ele><time>2026-03-28T09:54:00.665Z</time></trkpt><trkpt lat="44.7721133" lon="9.8351033"><ele>452.0</ele><time>2026-03-28T09:54:02.665Z</time></trkpt><trkpt lat="44.7720183" lon="9.8351417"><ele>452.00000000000006</ele><time>2026-03-28T09:54:07.665Z</time></trkpt><trkpt lat="44.7719167" lon="9.8351783"><ele>452.00000000000006</ele><time>2026-03-28T09:54:09.665Z</time></trkpt><trkpt lat="44.7717933" lon="9.8352633"><ele>452.0</ele><time>2026-03-28T09:54:11.665Z</time></trkpt><trkpt lat="44.7717183" lon="9.835315"><ele>452.0</ele><time>2026-03-28T09:54:12.664Z</time></trkpt><trkpt lat="44.7716433" lon="9.8353733"><ele>451.99999999999994</ele><time>2026-03-28T09:54:13.664Z</time></trkpt><trkpt lat="44.77157" lon="9.8354317"><ele>452.0</ele><time>2026-03-28T09:54:14.665Z</time></trkpt><trkpt lat="44.7715" lon="9.8354917"><ele>452.0</ele><time>2026-03-28T09:54:15.665Z</time></trkpt><trkpt lat="44.7714417" lon="9.8355567"><ele>452.0</ele><time>2026-03-28T09:54:16.664Z</time></trkpt><trkpt lat="44.7713867" lon="9.8356183"><ele>451.99999999999994</ele><time>2026-03-28T09:54:17.666Z</time></trkpt><trkpt lat="44.7712983" lon="9.8357067"><ele>452.0</ele><time>2026-03-28T09:54:19.665Z</time></trkpt><trkpt lat="44.7712433" lon="9.8357867"><ele>451.99999999999994</ele><time>2026-03-28T09:54:21.666Z</time></trkpt><trkpt lat="44.7711933" lon="9.83591"><ele>452.0</ele><time>2026-03-28T09:54:23.665Z</time></trkpt><trkpt lat="44.7711583" lon="9.83599"><ele>452.0</ele><time>2026-03-28T09:54:24.665Z</time></trkpt><trkpt lat="44.7711067" lon="9.836085"><ele>452.0</ele><time>2026-03-28T09:54:25.665Z</time></trkpt><trkpt lat="44.77105" lon="9.8361767"><ele>451.99999999999994</ele><time>2026-03-28T09:54:26.665Z</time></trkpt><trkpt lat="44.7709933" lon="9.8362817"><ele>452.0</ele><time>2026-03-28T09:54:27.665Z</time></trkpt><trkpt lat="44.7709433" lon="9.8363917"><ele>452.99999999999994</ele><time>2026-03-28T09:54:28.665Z</time></trkpt><trkpt lat="44.7709033" lon="9.8364983"><ele>454.0</ele><time>2026-03-28T09:54:29.668Z</time></trkpt><trkpt lat="44.7708617" lon="9.8365883"><ele>455.0</ele><time>2026-03-28T09:54:30.664Z</time></trkpt><trkpt lat="44.7708117" lon="9.8366667"><ele>456.0</ele><time>2026-03-28T09:54:31.665Z</time></trkpt><trkpt lat="44.7707583" lon="9.8367333"><ele>456.99999999999994</ele><time>2026-03-28T09:54:32.666Z</time></trkpt><trkpt lat="44.770695" lon="9.8368067"><ele>458.0</ele><time>2026-03-28T09:54:33.664Z</time></trkpt><trkpt lat="44.7706217" lon="9.8368683"><ele>455.2</ele><time>2026-03-28T09:54:34.665Z</time></trkpt><trkpt lat="44.7705483" lon="9.836925"><ele>452.4</ele><time>2026-03-28T09:54:35.666Z</time></trkpt><trkpt lat="44.7704833" lon="9.8369883"><ele>449.59999999999997</ele><time>2026-03-28T09:54:36.664Z</time></trkpt><trkpt lat="44.7704083" lon="9.8371217"><ele>446.79999999999995</ele><time>2026-03-28T09:54:38.666Z</time></trkpt><trkpt lat="44.7703167" lon="9.8371667"><ele>444.0</ele><time>2026-03-28T09:54:40.664Z</time></trkpt><trkpt lat="44.770215" lon="9.8371567"><ele>446.4</ele><time>2026-03-28T09:54:42.664Z</time></trkpt><trkpt lat="44.7701317" lon="9.8371317"><ele>448.79999999999995</ele><time>2026-03-28T09:54:44.665Z</time></trkpt><trkpt lat="44.7700533" lon="9.83707"><ele>451.20000000000005</ele><time>2026-03-28T09:54:46.671Z</time></trkpt><trkpt lat="44.7699383" lon="9.8370867"><ele>453.6</ele><time>2026-03-28T09:54:48.665Z</time></trkpt><trkpt lat="44.7698617" lon="9.8371883"><ele>456.0</ele><time>2026-03-28T09:54:49.665Z</time></trkpt><trkpt lat="44.7697867" lon="9.837295"><ele>456.0</ele><time>2026-03-28T09:54:50.665Z</time></trkpt><trkpt lat="44.7697267" lon="9.837375"><ele>456.0</ele><time>2026-03-28T09:54:51.666Z</time></trkpt><trkpt lat="44.7696717" lon="9.8374333"><ele>456.0</ele><time>2026-03-28T09:54:52.665Z</time></trkpt><trkpt lat="44.769605" lon="9.8374783"><ele>456.0</ele><time>2026-03-28T09:54:53.666Z</time></trkpt><trkpt lat="44.7695217" lon="9.8375067"><ele>456.0</ele><time>2026-03-28T09:54:54.666Z</time></trkpt><trkpt lat="44.769435" lon="9.837535"><ele>456.0</ele><time>2026-03-28T09:54:55.664Z</time></trkpt><trkpt lat="44.7693317" lon="9.8375617"><ele>459.4</ele><time>2026-03-28T09:54:56.665Z</time></trkpt><trkpt lat="44.76922" lon="9.837605"><ele>462.8</ele><time>2026-03-28T09:54:57.666Z</time></trkpt><trkpt lat="44.7691317" lon="9.8376567"><ele>466.19999999999993</ele><time>2026-03-28T09:54:58.665Z</time></trkpt><trkpt lat="44.7690533" lon="9.8377083"><ele>469.59999999999997</ele><time>2026-03-28T09:54:59.664Z</time></trkpt><trkpt lat="44.768975" lon="9.83775"><ele>473.0</ele><time>2026-03-28T09:55:00.664Z</time></trkpt><trkpt lat="44.7688933" lon="9.8377833"><ele>473.0</ele><time>2026-03-28T09:55:01.665Z</time></trkpt><trkpt lat="44.7688017" lon="9.8378083"><ele>472.99999999999994</ele><time>2026-03-28T09:55:02.665Z</time></trkpt><trkpt lat="44.7687117" lon="9.8378367"><ele>472.99999999999994</ele><time>2026-03-28T09:55:03.666Z</time></trkpt><trkpt lat="44.7686233" lon="9.8378733"><ele>473.0</ele><time>2026-03-28T09:55:04.665Z</time></trkpt><trkpt lat="44.768535" lon="9.8379033"><ele>473.0</ele><time>2026-03-28T09:55:05.665Z</time></trkpt><trkpt lat="44.768445" lon="9.8379183"><ele>476.59999999999997</ele><time>2026-03-28T09:55:06.665Z</time></trkpt><trkpt lat="44.7683617" lon="9.8379"><ele>480.19999999999993</ele><time>2026-03-28T09:55:07.664Z</time></trkpt><trkpt lat="44.7682867" lon="9.8378883"><ele>483.8</ele><time>2026-03-28T09:55:08.666Z</time></trkpt><trkpt lat="44.7682067" lon="9.8378817"><ele>487.4</ele><time>2026-03-28T09:55:09.665Z</time></trkpt><trkpt lat="44.7681383" lon="9.8378883"><ele>491.0</ele><time>2026-03-28T09:55:10.665Z</time></trkpt><trkpt lat="44.7679967" lon="9.8378867"><ele>490.99999999999994</ele><time>2026-03-28T09:55:12.666Z</time></trkpt><trkpt lat="44.7679117" lon="9.837885"><ele>491.0</ele><time>2026-03-28T09:55:13.666Z</time></trkpt><trkpt lat="44.7678167" lon="9.8378833"><ele>491.0</ele><time>2026-03-28T09:55:14.666Z</time></trkpt><trkpt lat="44.7677333" lon="9.83788"><ele>491.0</ele><time>2026-03-28T09:55:15.665Z</time></trkpt><trkpt lat="44.76765" lon="9.8378883"><ele>490.99999999999994</ele><time>2026-03-28T09:55:16.666Z</time></trkpt><trkpt lat="44.7675833" lon="9.8379033"><ele>491.0</ele><time>2026-03-28T09:55:17.665Z</time></trkpt><trkpt lat="44.7675167" lon="9.837925"><ele>492.8333333333333</ele><time>2026-03-28T09:55:18.666Z</time></trkpt><trkpt lat="44.7674" lon="9.83797"><ele>494.66666666666663</ele><time>2026-03-28T09:55:20.666Z</time></trkpt><trkpt lat="44.7673383" lon="9.837995"><ele>496.5</ele><time>2026-03-28T09:55:22.666Z</time></trkpt><trkpt lat="44.76725" lon="9.8380067"><ele>498.33333333333337</ele><time>2026-03-28T09:56:02.665Z</time></trkpt><trkpt lat="44.7671883" lon="9.838045"><ele>500.1666666666667</ele><time>2026-03-28T09:56:03.666Z</time></trkpt><trkpt lat="44.7671217" lon="9.838075"><ele>502.0</ele><time>2026-03-28T09:56:04.666Z</time></trkpt><trkpt lat="44.7670567" lon="9.8380933"><ele>502.00000000000006</ele><time>2026-03-28T09:56:05.666Z</time></trkpt><trkpt lat="44.7669833" lon="9.8380967"><ele>502.0</ele><time>2026-03-28T09:56:06.665Z</time></trkpt><trkpt lat="44.7669117" lon="9.8380767"><ele>502.0</ele><time>2026-03-28T09:56:07.664Z</time></trkpt><trkpt lat="44.7668417" lon="9.83805"><ele>502.0</ele><time>2026-03-28T09:56:08.665Z</time></trkpt><trkpt lat="44.766755" lon="9.8380117"><ele>502.00000000000006</ele><time>2026-03-28T09:56:09.666Z</time></trkpt><trkpt lat="44.76667" lon="9.8379783"><ele>502.0</ele><time>2026-03-28T09:56:10.666Z</time></trkpt><trkpt lat="44.7665733" lon="9.8379467"><ele>504.00000000000006</ele><time>2026-03-28T09:56:11.666Z</time></trkpt><trkpt lat="44.7664683" lon="9.8379133"><ele>506.0</ele><time>2026-03-28T09:56:12.665Z</time></trkpt><trkpt lat="44.7663817" lon="9.837875"><ele>508.0</ele><time>2026-03-28T09:56:13.665Z</time></trkpt><trkpt lat="44.766305" lon="9.8378583"><ele>510.0</ele><time>2026-03-28T09:56:14.665Z</time></trkpt><trkpt lat="44.7662283" lon="9.837845"><ele>512.0</ele><time>2026-03-28T09:56:15.664Z</time></trkpt><trkpt lat="44.7661483" lon="9.8378267"><ele>514.0</ele><time>2026-03-28T09:56:16.664Z</time></trkpt><trkpt lat="44.766065" lon="9.83781"><ele>516.3333333333334</ele><time>2026-03-28T09:56:17.668Z</time></trkpt><trkpt lat="44.7659783" lon="9.837805"><ele>518.6666666666667</ele><time>2026-03-28T09:56:18.665Z</time></trkpt><trkpt lat="44.7658933" lon="9.8378017"><ele>521.0</ele><time>2026-03-28T09:56:19.665Z</time></trkpt><trkpt lat="44.7658167" lon="9.8377867"><ele>523.3333333333334</ele><time>2026-03-28T09:56:20.666Z</time></trkpt><trkpt lat="44.7657467" lon="9.8377583"><ele>525.6666666666666</ele><time>2026-03-28T09:56:21.665Z</time></trkpt><trkpt lat="44.7656783" lon="9.83772"><ele>528.0</ele><time>2026-03-28T09:56:22.665Z</time></trkpt><trkpt lat="44.765615" lon="9.8376683"><ele>529.8333333333334</ele><time>2026-03-28T09:56:23.666Z</time></trkpt><trkpt lat="44.7655467" lon="9.837625"><ele>531.6666666666666</ele><time>2026-03-28T09:56:24.666Z</time></trkpt><trkpt lat="44.76548" lon="9.8375717"><ele>533.5</ele><time>2026-03-28T09:56:25.665Z</time></trkpt><trkpt lat="44.7654" lon="9.8375267"><ele>535.3333333333333</ele><time>2026-03-28T09:56:26.665Z</time></trkpt><trkpt lat="44.76532" lon="9.837465"><ele>537.1666666666666</ele><time>2026-03-28T09:56:27.664Z</time></trkpt><trkpt lat="44.7652417" lon="9.837405"><ele>539.0</ele><time>2026-03-28T09:56:28.665Z</time></trkpt><trkpt lat="44.76516" lon="9.8373667"><ele>539.0</ele><time>2026-03-28T09:56:29.666Z</time></trkpt><trkpt lat="44.7650933" lon="9.8373233"><ele>539.0</ele><time>2026-03-28T09:56:30.669Z</time></trkpt><trkpt lat="44.76504" lon="9.8372717"><ele>539.0</ele><time>2026-03-28T09:56:31.664Z</time></trkpt><trkpt lat="44.764985" lon="9.8372033"><ele>539.0</ele><time>2026-03-28T09:56:32.666Z</time></trkpt><trkpt lat="44.764935" lon="9.837125"><ele>539.0</ele><time>2026-03-28T09:56:33.666Z</time></trkpt><trkpt lat="44.7648667" lon="9.8370533"><ele>539.0</ele><time>2026-03-28T09:56:34.665Z</time></trkpt><trkpt lat="44.7647933" lon="9.836995"><ele>539.0</ele><time>2026-03-28T09:56:35.665Z</time></trkpt><trkpt lat="44.7647167" lon="9.8369533"><ele>539.0</ele><time>2026-03-28T09:56:36.664Z</time></trkpt><trkpt lat="44.76464" lon="9.836935"><ele>539.0</ele><time>2026-03-28T09:56:37.666Z</time></trkpt><trkpt lat="44.76457" lon="9.836915"><ele>539.0</ele><time>2026-03-28T09:56:38.665Z</time></trkpt><trkpt lat="44.7645" lon="9.83689"><ele>539.0</ele><time>2026-03-28T09:56:39.664Z</time></trkpt><trkpt lat="44.7644317" lon="9.8368617"><ele>539.0</ele><time>2026-03-28T09:56:40.665Z</time></trkpt><trkpt lat="44.7643567" lon="9.8368067"><ele>543.0</ele><time>2026-03-28T09:56:41.666Z</time></trkpt><trkpt lat="44.76428" lon="9.8367367"><ele>547.0</ele><time>2026-03-28T09:56:42.665Z</time></trkpt><trkpt lat="44.7641967" lon="9.83667"><ele>551.0</ele><time>2026-03-28T09:56:43.665Z</time></trkpt><trkpt lat="44.7641117" lon="9.8366"><ele>555.0</ele><time>2026-03-28T09:56:44.666Z</time></trkpt><trkpt lat="44.7640383" lon="9.836545"><ele>559.0</ele><time>2026-03-28T09:56:45.665Z</time></trkpt><trkpt lat="44.763965" lon="9.8364967"><ele>559.0</ele><time>2026-03-28T09:56:46.666Z</time></trkpt><trkpt lat="44.7638733" lon="9.836455"><ele>559.0</ele><time>2026-03-28T09:56:47.666Z</time></trkpt><trkpt lat="44.7637883" lon="9.8364183"><ele>559.0</ele><time>2026-03-28T09:56:48.664Z</time></trkpt><trkpt lat="44.7637083" lon="9.8364017"><ele>559.0</ele><time>2026-03-28T09:56:49.666Z</time></trkpt><trkpt lat="44.7636433" lon="9.8363867"><ele>559.0</ele><time>2026-03-28T09:56:50.666Z</time></trkpt><trkpt lat="44.76356" lon="9.8363867"><ele>559.0</ele><time>2026-03-28T09:56:51.669Z</time></trkpt><trkpt lat="44.76349" lon="9.83641"><ele>560.8333333333334</ele><time>2026-03-28T09:56:52.667Z</time></trkpt><trkpt lat="44.7634183" lon="9.83643"><ele>562.6666666666667</ele><time>2026-03-28T09:56:53.665Z</time></trkpt><trkpt lat="44.763355" lon="9.8364383"><ele>564.5</ele><time>2026-03-28T09:56:54.665Z</time></trkpt><trkpt lat="44.7632433" lon="9.8364717"><ele>566.3333333333334</ele><time>2026-03-28T09:56:56.666Z</time></trkpt><trkpt lat="44.76316" lon="9.8365033"><ele>568.1666666666666</ele><time>2026-03-28T09:56:58.665Z</time></trkpt><trkpt lat="44.7630883" lon="9.83651"><ele>570.0</ele><time>2026-03-28T09:57:00.666Z</time></trkpt><trkpt lat="44.763025" lon="9.8365067"><ele>570.0</ele><time>2026-03-28T09:57:02.665Z</time></trkpt><trkpt lat="44.76297" lon="9.83646"><ele>570.0</ele><time>2026-03-28T09:57:04.665Z</time></trkpt><trkpt lat="44.7629017" lon="9.8363933"><ele>570.0</ele><time>2026-03-28T09:57:06.666Z</time></trkpt><trkpt lat="44.762785" lon="9.836325"><ele>570.0</ele><time>2026-03-28T09:57:08.67Z</time></trkpt><trkpt lat="44.7627" lon="9.8362917"><ele>570.0</ele><time>2026-03-28T09:57:09.667Z</time></trkpt><trkpt lat="44.7626183" lon="9.836275"><ele>570.0</ele><time>2026-03-28T09:57:10.666Z</time></trkpt><trkpt lat="44.7625417" lon="9.8362467"><ele>571.5</ele><time>2026-03-28T09:57:11.666Z</time></trkpt><trkpt lat="44.762475" lon="9.8362217"><ele>573.0</ele><time>2026-03-28T09:57:12.665Z</time></trkpt><trkpt lat="44.76241" lon="9.8361867"><ele>574.5</ele><time>2026-03-28T09:57:13.664Z</time></trkpt><trkpt lat="44.7623317" lon="9.8361567"><ele>576.0</ele><time>2026-03-28T09:57:14.666Z</time></trkpt><trkpt lat="44.7622533" lon="9.83611"><ele>577.5</ele><time>2026-03-28T09:57:15.665Z</time></trkpt><trkpt lat="44.762175" lon="9.83606"><ele>579.0</ele><time>2026-03-28T09:57:16.666Z</time></trkpt><trkpt lat="44.7620883" lon="9.83601"><ele>580.8</ele><time>2026-03-28T09:57:17.665Z</time></trkpt><trkpt lat="44.7620033" lon="9.83597"><ele>582.5999999999999</ele><time>2026-03-28T09:57:18.664Z</time></trkpt><trkpt lat="44.7618983" lon="9.835925"><ele>584.4</ele><time>2026-03-28T09:57:19.666Z</time></trkpt><trkpt lat="44.7618133" lon="9.8358633"><ele>586.1999999999999</ele><time>2026-03-28T09:57:20.666Z</time></trkpt><trkpt lat="44.761745" lon="9.8357917"><ele>588.0</ele><time>2026-03-28T09:57:21.665Z</time></trkpt><trkpt lat="44.76168" lon="9.835735"><ele>588.1666666666666</ele><time>2026-03-28T09:57:22.666Z</time></trkpt><trkpt lat="44.7616167" lon="9.8356967"><ele>588.3333333333334</ele><time>2026-03-28T09:57:23.666Z</time></trkpt><trkpt lat="44.7615567" lon="9.8356633"><ele>588.5</ele><time>2026-03-28T09:57:24.665Z</time></trkpt><trkpt lat="44.7614583" lon="9.835615"><ele>588.6666666666667</ele><time>2026-03-28T09:57:26.665Z</time></trkpt><trkpt lat="44.7613767" lon="9.8355433"><ele>588.8333333333334</ele><time>2026-03-28T09:57:28.665Z</time></trkpt><trkpt lat="44.7613167" lon="9.8355067"><ele>589.0</ele><time>2026-03-28T09:57:29.665Z</time></trkpt><trkpt lat="44.7611983" lon="9.8354483"><ele>589.0</ele><time>2026-03-28T09:57:31.666Z</time></trkpt><trkpt lat="44.76113" lon="9.8354283"><ele>589.0</ele><time>2026-03-28T09:57:32.666Z</time></trkpt><trkpt lat="44.7610433" lon="9.8354017"><ele>589.0</ele><time>2026-03-28T09:57:33.665Z</time></trkpt><trkpt lat="44.7609533" lon="9.83537"><ele>589.0</ele><time>2026-03-28T09:57:34.664Z</time></trkpt><trkpt lat="44.7608683" lon="9.8353567"><ele>589.0</ele><time>2026-03-28T09:57:35.665Z</time></trkpt><trkpt lat="44.7607867" lon="9.83535"><ele>589.0</ele><time>2026-03-28T09:57:36.664Z</time></trkpt><trkpt lat="44.7606983" lon="9.8353333"><ele>592.0</ele><time>2026-03-28T09:57:37.664Z</time></trkpt><trkpt lat="44.7606183" lon="9.8353233"><ele>595.0</ele><time>2026-03-28T09:57:38.664Z</time></trkpt><trkpt lat="44.7605517" lon="9.8353133"><ele>598.0</ele><time>2026-03-28T09:57:39.664Z</time></trkpt><trkpt lat="44.760455" lon="9.83531"><ele>601.0</ele><time>2026-03-28T09:57:41.664Z</time></trkpt><trkpt lat="44.7603883" lon="9.8353017"><ele>604.0</ele><time>2026-03-28T09:57:43.665Z</time></trkpt><trkpt lat="44.7602967" lon="9.8352933"><ele>607.0</ele><time>2026-03-28T09:57:45.665Z</time></trkpt><trkpt lat="44.760235" lon="9.835265"><ele>610.0</ele><time>2026-03-28T09:57:46.665Z</time></trkpt><trkpt lat="44.76016" lon="9.835235"><ele>613.0</ele><time>2026-03-28T09:57:47.664Z</time></trkpt><trkpt lat="44.7600717" lon="9.8351983"><ele>616.0</ele><time>2026-03-28T09:57:48.665Z</time></trkpt><trkpt lat="44.7599833" lon="9.835165"><ele>619.0</ele><time>2026-03-28T09:57:49.666Z</time></trkpt><trkpt lat="44.7599" lon="9.8351333"><ele>622.0</ele><time>2026-03-28T09:57:50.665Z</time></trkpt><trkpt lat="44.7598233" lon="9.835095"><ele>625.0</ele><time>2026-03-28T09:57:51.666Z</time></trkpt><trkpt lat="44.7597417" lon="9.8350667"><ele>625.0</ele><time>2026-03-28T09:57:52.665Z</time></trkpt><trkpt lat="44.7596633" lon="9.83504"><ele>625.0</ele><time>2026-03-28T09:57:53.666Z</time></trkpt><trkpt lat="44.7595817" lon="9.8350317"><ele>625.0</ele><time>2026-03-28T09:57:54.665Z</time></trkpt><trkpt lat="44.7595183" lon="9.8350067"><ele>625.0</ele><time>2026-03-28T09:57:55.666Z</time></trkpt><trkpt lat="44.7594067" lon="9.8349517"><ele>625.0</ele><time>2026-03-28T09:57:57.665Z</time></trkpt><trkpt lat="44.7593383" lon="9.8349183"><ele>625.0</ele><time>2026-03-28T09:57:58.666Z</time></trkpt><trkpt lat="44.7592767" lon="9.8348917"><ele>630.0</ele><time>2026-03-28T09:57:59.665Z</time></trkpt><trkpt lat="44.7591967" lon="9.8348717"><ele>635.0</ele><time>2026-03-28T09:58:01.666Z</time></trkpt><trkpt lat="44.7591233" lon="9.834815"><ele>640.0</ele><time>2026-03-28T09:58:08.665Z</time></trkpt><trkpt lat="44.7590083" lon="9.834715"><ele>645.0</ele><time>2026-03-28T09:58:22.665Z</time></trkpt><trkpt lat="44.7589267" lon="9.83464"><ele>650.0</ele><time>2026-03-28T09:58:25.665Z</time></trkpt><trkpt lat="44.758855" lon="9.8345667"><ele>650.0</ele><time>2026-03-28T09:58:27.666Z</time></trkpt><trkpt lat="44.7587933" lon="9.8345217"><ele>650.0</ele><time>2026-03-28T09:58:29.666Z</time></trkpt><trkpt lat="44.7587167" lon="9.8344083"><ele>650.0</ele><time>2026-03-28T09:59:29.664Z</time></trkpt><trkpt lat="44.7586317" lon="9.83437"><ele>650.0</ele><time>2026-03-28T09:59:31.665Z</time></trkpt><trkpt lat="44.7585517" lon="9.834385"><ele>650.0</ele><time>2026-03-28T09:59:33.664Z</time></trkpt><trkpt lat="44.7584733" lon="9.8344233"><ele>650.0</ele><time>2026-03-28T09:59:35.665Z</time></trkpt><trkpt lat="44.75841" lon="9.8344333"><ele>652.0</ele><time>2026-03-28T09:59:36.664Z</time></trkpt><trkpt lat="44.7583367" lon="9.8343317"><ele>654.0</ele><time>2026-03-28T09:59:38.667Z</time></trkpt><trkpt lat="44.75827" lon="9.8342567"><ele>656.0</ele><time>2026-03-28T09:59:40.666Z</time></trkpt><trkpt lat="44.758165" lon="9.83418"><ele>658.0</ele><time>2026-03-28T09:59:42.665Z</time></trkpt><trkpt lat="44.7580967" lon="9.83413"><ele>660.0</ele><time>2026-03-28T09:59:43.665Z</time></trkpt><trkpt lat="44.7580383" lon="9.834095"><ele>662.0</ele><time>2026-03-28T09:59:44.665Z</time></trkpt><trkpt lat="44.75792" lon="9.8340517"><ele>662.0</ele><time>2026-03-28T09:59:46.665Z</time></trkpt><trkpt lat="44.7578183" lon="9.8340367"><ele>662.0</ele><time>2026-03-28T09:59:48.664Z</time></trkpt><trkpt lat="44.7577217" lon="9.8339933"><ele>662.0</ele><time>2026-03-28T09:59:50.667Z</time></trkpt><trkpt lat="44.75765" lon="9.83397"><ele>662.0</ele><time>2026-03-28T09:59:51.664Z</time></trkpt><trkpt lat="44.757585" lon="9.83395"><ele>662.0</ele><time>2026-03-28T09:59:52.664Z</time></trkpt><trkpt lat="44.7574667" lon="9.8339083"><ele>666.0</ele><time>2026-03-28T09:59:54.665Z</time></trkpt><trkpt lat="44.757375" lon="9.833835"><ele>670.0</ele><time>2026-03-28T09:59:56.665Z</time></trkpt><trkpt lat="44.7573" lon="9.833725"><ele>674.0</ele><time>2026-03-28T09:59:58.666Z</time></trkpt><trkpt lat="44.7572133" lon="9.8336333"><ele>678.0</ele><time>2026-03-28T10:00:00.665Z</time></trkpt><trkpt lat="44.7571367" lon="9.8335967"><ele>682.0</ele><time>2026-03-28T10:00:02.666Z</time></trkpt><trkpt lat="44.7570783" lon="9.83356"><ele>682.0</ele><time>2026-03-28T10:00:04.666Z</time></trkpt><trkpt lat="44.7570133" lon="9.8335317"><ele>682.0</ele><time>2026-03-28T10:00:06.664Z</time></trkpt><trkpt lat="44.7569417" lon="9.8334867"><ele>682.0</ele><time>2026-03-28T10:00:08.665Z</time></trkpt><trkpt lat="44.7568733" lon="9.8334417"><ele>682.0</ele><time>2026-03-28T10:00:10.665Z</time></trkpt><trkpt lat="44.7568183" lon="9.83338"><ele>682.0</ele><time>2026-03-28T10:00:12.665Z</time></trkpt><trkpt lat="44.7567367" lon="9.8333383"><ele>682.0</ele><time>2026-03-28T10:00:14.665Z</time></trkpt><trkpt lat="44.7566617" lon="9.8333233"><ele>683.5</ele><time>2026-03-28T10:00:16.667Z</time></trkpt><trkpt lat="44.7565817" lon="9.8333483"><ele>685.0</ele><time>2026-03-28T10:00:21.666Z</time></trkpt><trkpt lat="44.7565183" lon="9.83337"><ele>686.5</ele><time>2026-03-28T10:00:24.667Z</time></trkpt><trkpt lat="44.75644" lon="9.8333367"><ele>688.0</ele><time>2026-03-28T10:00:27.665Z</time></trkpt><trkpt lat="44.7563233" lon="9.8333167"><ele>689.5</ele><time>2026-03-28T10:00:49.666Z</time></trkpt><trkpt lat="44.7562533" lon="9.8333267"><ele>691.0</ele><time>2026-03-28T10:00:53.667Z</time></trkpt><trkpt lat="44.756195" lon="9.8332917"><ele>690.9999999999999</ele><time>2026-03-28T10:00:56.668Z</time></trkpt><trkpt lat="44.7561317" lon="9.833225"><ele>691.0</ele><time>2026-03-28T10:00:59.666Z</time></trkpt><trkpt lat="44.7560833" lon="9.8331667"><ele>691.0</ele><time>2026-03-28T10:01:01.667Z</time></trkpt><trkpt lat="44.756015" lon="9.83312"><ele>691.0</ele><time>2026-03-28T10:01:04.668Z</time></trkpt><trkpt lat="44.7559633" lon="9.833025"><ele>691.0</ele><time>2026-03-28T10:02:33.666Z</time></trkpt><trkpt lat="44.755895" lon="9.8329917"><ele>690.9999999999999</ele><time>2026-03-28T10:02:35.665Z</time></trkpt><trkpt lat="44.7558367" lon="9.8329517"><ele>691.0</ele><time>2026-03-28T10:02:37.665Z</time></trkpt><trkpt lat="44.7557733" lon="9.832915"><ele>694.6666666666667</ele><time>2026-03-28T10:02:39.666Z</time></trkpt><trkpt lat="44.7557" lon="9.8328717"><ele>698.3333333333334</ele><time>2026-03-28T10:02:41.666Z</time></trkpt><trkpt lat="44.7556283" lon="9.832825"><ele>702.0</ele><time>2026-03-28T10:02:43.666Z</time></trkpt><trkpt lat="44.7555367" lon="9.8327783"><ele>705.6666666666666</ele><time>2026-03-28T10:02:45.666Z</time></trkpt><trkpt lat="44.7554633" lon="9.8327167"><ele>709.3333333333333</ele><time>2026-03-28T10:02:47.665Z</time></trkpt><trkpt lat="44.75539" lon="9.8326783"><ele>713.0</ele><time>2026-03-28T10:02:49.665Z</time></trkpt><trkpt lat="44.7553333" lon="9.8326333"><ele>713.5</ele><time>2026-03-28T10:02:53.665Z</time></trkpt><trkpt lat="44.7552733" lon="9.83257"><ele>714.0</ele><time>2026-03-28T10:02:55.665Z</time></trkpt><trkpt lat="44.75522" lon="9.8325017"><ele>714.5</ele><time>2026-03-28T10:02:57.666Z</time></trkpt><trkpt lat="44.7551767" lon="9.8324183"><ele>715.0</ele><time>2026-03-28T10:02:59.666Z</time></trkpt><trkpt lat="44.755125" lon="9.8323183"><ele>715.5</ele><time>2026-03-28T10:03:02.665Z</time></trkpt><trkpt lat="44.7550733" lon="9.83225"><ele>716.0</ele><time>2026-03-28T10:03:04.667Z</time></trkpt><trkpt lat="44.7550083" lon="9.83217"><ele>719.3333333333333</ele><time>2026-03-28T10:03:06.664Z</time></trkpt><trkpt lat="44.75496" lon="9.83206"><ele>722.6666666666666</ele><time>2026-03-28T10:03:08.666Z</time></trkpt><trkpt lat="44.7549117" lon="9.8319667"><ele>726.0</ele><time>2026-03-28T10:03:10.665Z</time></trkpt><trkpt lat="44.7548933" lon="9.8318433"><ele>729.3333333333334</ele><time>2026-03-28T10:03:13.665Z</time></trkpt><trkpt lat="44.75491" lon="9.83175"><ele>732.6666666666667</ele><time>2026-03-28T10:03:15.665Z</time></trkpt><trkpt lat="44.7549117" lon="9.831655"><ele>736.0</ele><time>2026-03-28T10:03:17.666Z</time></trkpt><trkpt lat="44.7548406" lon="9.8315615"><ele>736.0</ele><time>2026-03-28T10:03:20.755Z</time></trkpt><trkpt lat="44.7547846" lon="9.8314949"><ele>736.0</ele><time>2026-03-28T10:03:24.707Z</time></trkpt><trkpt lat="44.7547254" lon="9.8315993"><ele>736.0</ele><time>2026-03-28T10:03:47.692Z</time></trkpt><trkpt lat="44.7546897" lon="9.8318487"><ele>736.0</ele><time>2026-03-28T10:03:50.718Z</time></trkpt><trkpt lat="44.7546885" lon="9.8320422"><ele>736.0</ele><time>2026-03-28T10:03:51.666Z</time></trkpt><trkpt lat="44.7546865" lon="9.8321679"><ele>736.0</ele><time>2026-03-28T10:03:52.665Z</time></trkpt><trkpt lat="44.7546807" lon="9.8322707"><ele>736.0</ele><time>2026-03-28T10:03:53.665Z</time></trkpt><trkpt lat="44.7546533" lon="9.8323811"><ele>736.0</ele><time>2026-03-28T10:03:54.666Z</time></trkpt><trkpt lat="44.7546378" lon="9.8324865"><ele>736.0</ele><time>2026-03-28T10:03:55.665Z</time></trkpt><trkpt lat="44.7546308" lon="9.8325861"><ele>736.0</ele><time>2026-03-28T10:03:56.665Z</time></trkpt><trkpt lat="44.7546217" lon="9.8326889"><ele>738.0</ele><time>2026-03-28T10:03:57.665Z</time></trkpt><trkpt lat="44.7546039" lon="9.8327893"><ele>740.0</ele><time>2026-03-28T10:03:58.666Z</time></trkpt><trkpt lat="44.7545939" lon="9.8328839"><ele>742.0</ele><time>2026-03-28T10:03:59.666Z</time></trkpt><trkpt lat="44.7545828" lon="9.8329734"><ele>744.0</ele><time>2026-03-28T10:04:00.664Z</time></trkpt><trkpt lat="44.7545871" lon="9.8330658"><ele>746.0</ele><time>2026-03-28T10:04:01.666Z</time></trkpt><trkpt lat="44.7545988" lon="9.8331546"><ele>748.0</ele><time>2026-03-28T10:04:02.665Z</time></trkpt><trkpt lat="44.7545897" lon="9.8332825"><ele>750.0</ele><time>2026-03-28T10:04:04.665Z</time></trkpt><trkpt lat="44.7545088" lon="9.8332828"><ele>750.0</ele><time>2026-03-28T10:04:06.666Z</time></trkpt><trkpt lat="44.7543934" lon="9.8332033"><ele>750.0</ele><time>2026-03-28T10:04:08.667Z</time></trkpt><trkpt lat="44.7542972" lon="9.8332054"><ele>750.0</ele><time>2026-03-28T10:04:10.665Z</time></trkpt><trkpt lat="44.7542169" lon="9.8332213"><ele>750.0</ele><time>2026-03-28T10:04:13.666Z</time></trkpt><trkpt lat="44.7541395" lon="9.8332253"><ele>750.0</ele><time>2026-03-28T10:04:15.665Z</time></trkpt><trkpt lat="44.7540235" lon="9.8332634"><ele>753.0</ele><time>2026-03-28T10:04:17.664Z</time></trkpt><trkpt lat="44.7539525" lon="9.8332859"><ele>756.0</ele><time>2026-03-28T10:04:18.665Z</time></trkpt><trkpt lat="44.7538784" lon="9.833306"><ele>759.0</ele><time>2026-03-28T10:04:19.666Z</time></trkpt><trkpt lat="44.7537957" lon="9.8333356"><ele>762.0</ele><time>2026-03-28T10:04:20.666Z</time></trkpt><trkpt lat="44.7537085" lon="9.8333653"><ele>765.0</ele><time>2026-03-28T10:04:21.667Z</time></trkpt><trkpt lat="44.7536156" lon="9.8333954"><ele>768.0</ele><time>2026-03-28T10:04:22.666Z</time></trkpt><trkpt lat="44.753525" lon="9.8334111"><ele>769.5999999999999</ele><time>2026-03-28T10:04:23.665Z</time></trkpt><trkpt lat="44.7534287" lon="9.8334104"><ele>771.1999999999999</ele><time>2026-03-28T10:04:24.665Z</time></trkpt><trkpt lat="44.7533246" lon="9.833398"><ele>772.8</ele><time>2026-03-28T10:04:25.665Z</time></trkpt><trkpt lat="44.7532215" lon="9.8333813"><ele>774.4</ele><time>2026-03-28T10:04:26.667Z</time></trkpt><trkpt lat="44.7531271" lon="9.8333683"><ele>776.0</ele><time>2026-03-28T10:04:27.665Z</time></trkpt><trkpt lat="44.7530432" lon="9.8333698"><ele>776.0</ele><time>2026-03-28T10:04:28.665Z</time></trkpt><trkpt lat="44.7529725" lon="9.8333883"><ele>776.0</ele><time>2026-03-28T10:04:29.665Z</time></trkpt><trkpt lat="44.752858" lon="9.8334612"><ele>776.0</ele><time>2026-03-28T10:04:31.666Z</time></trkpt><trkpt lat="44.7527597" lon="9.8335538"><ele>776.0</ele><time>2026-03-28T10:04:33.666Z</time></trkpt><trkpt lat="44.7526989" lon="9.8335885"><ele>776.0</ele><time>2026-03-28T10:04:34.665Z</time></trkpt><trkpt lat="44.7526269" lon="9.8336135"><ele>775.8333333333334</ele><time>2026-03-28T10:04:35.666Z</time></trkpt><trkpt lat="44.7525638" lon="9.8336324"><ele>775.6666666666667</ele><time>2026-03-28T10:04:36.666Z</time></trkpt><trkpt lat="44.7524653" lon="9.8336686"><ele>775.5</ele><time>2026-03-28T10:04:38.665Z</time></trkpt><trkpt lat="44.7523776" lon="9.8336238"><ele>775.3333333333333</ele><time>2026-03-28T10:04:40.664Z</time></trkpt><trkpt lat="44.7523431" lon="9.8335348"><ele>775.1666666666666</ele><time>2026-03-28T10:04:41.666Z</time></trkpt><trkpt lat="44.7523142" lon="9.8334337"><ele>775.0</ele><time>2026-03-28T10:04:42.665Z</time></trkpt><trkpt lat="44.7522844" lon="9.8333321"><ele>775.0</ele><time>2026-03-28T10:04:43.665Z</time></trkpt><trkpt lat="44.7522574" lon="9.8332148"><ele>775.0</ele><time>2026-03-28T10:04:44.664Z</time></trkpt><trkpt lat="44.7522338" lon="9.8330802"><ele>775.0</ele><time>2026-03-28T10:04:45.665Z</time></trkpt><trkpt lat="44.7522181" lon="9.8329404"><ele>775.0</ele><time>2026-03-28T10:04:46.666Z</time></trkpt><trkpt lat="44.752211" lon="9.8328131"><ele>775.0</ele><time>2026-03-28T10:04:47.666Z</time></trkpt><trkpt lat="44.7522065" lon="9.8326971"><ele>779.3333333333333</ele><time>2026-03-28T10:04:48.666Z</time></trkpt><trkpt lat="44.7521972" lon="9.8325852"><ele>783.6666666666666</ele><time>2026-03-28T10:04:49.666Z</time></trkpt><trkpt lat="44.7521721" lon="9.832476"><ele>788.0</ele><time>2026-03-28T10:04:50.665Z</time></trkpt><trkpt lat="44.7521307" lon="9.8323672"><ele>792.3333333333333</ele><time>2026-03-28T10:04:51.666Z</time></trkpt><trkpt lat="44.7520847" lon="9.8322594"><ele>796.6666666666666</ele><time>2026-03-28T10:04:52.666Z</time></trkpt><trkpt lat="44.7520398" lon="9.8321687"><ele>801.0</ele><time>2026-03-28T10:04:53.666Z</time></trkpt><trkpt lat="44.7519925" lon="9.8320983"><ele>801.0</ele><time>2026-03-28T10:04:54.665Z</time></trkpt><trkpt lat="44.7518999" lon="9.8319879"><ele>801.0</ele><time>2026-03-28T10:04:56.666Z</time></trkpt><trkpt lat="44.7518348" lon="9.8319694"><ele>801.0</ele><time>2026-03-28T10:04:57.666Z</time></trkpt><trkpt lat="44.7517623" lon="9.831983"><ele>801.0</ele><time>2026-03-28T10:04:58.665Z</time></trkpt><trkpt lat="44.7516979" lon="9.8319821"><ele>801.0</ele><time>2026-03-28T10:04:59.666Z</time></trkpt><trkpt lat="44.7515916" lon="9.8319358"><ele>801.0</ele><time>2026-03-28T10:05:01.666Z</time></trkpt><trkpt lat="44.7514902" lon="9.8318069"><ele>801.6666666666666</ele><time>2026-03-28T10:05:03.664Z</time></trkpt><trkpt lat="44.7514135" lon="9.8317481"><ele>802.3333333333333</ele><time>2026-03-28T10:05:04.666Z</time></trkpt><trkpt lat="44.7513319" lon="9.8317118"><ele>803.0</ele><time>2026-03-28T10:05:05.666Z</time></trkpt><trkpt lat="44.7512507" lon="9.8316972"><ele>803.6666666666666</ele><time>2026-03-28T10:05:06.665Z</time></trkpt><trkpt lat="44.751178" lon="9.8317172"><ele>804.3333333333333</ele><time>2026-03-28T10:05:07.664Z</time></trkpt><trkpt lat="44.7511138" lon="9.8317594"><ele>805.0</ele><time>2026-03-28T10:05:08.665Z</time></trkpt><trkpt lat="44.7510523" lon="9.8318157"><ele>801.4</ele><time>2026-03-28T10:05:09.665Z</time></trkpt><trkpt lat="44.7510026" lon="9.8318827"><ele>797.8</ele><time>2026-03-28T10:05:10.666Z</time></trkpt><trkpt lat="44.75091" lon="9.831987"><ele>794.2</ele><time>2026-03-28T10:05:12.666Z</time></trkpt><trkpt lat="44.7508138" lon="9.8320583"><ele>790.6</ele><time>2026-03-28T10:05:14.666Z</time></trkpt><trkpt lat="44.7507292" lon="9.8321395"><ele>787.0</ele><time>2026-03-28T10:05:16.665Z</time></trkpt><trkpt lat="44.7506471" lon="9.8322405"><ele>787.0</ele><time>2026-03-28T10:05:18.668Z</time></trkpt><trkpt lat="44.75056" lon="9.83235"><ele>787.0</ele><time>2026-03-28T10:05:20.665Z</time></trkpt><trkpt lat="44.75052" lon="9.8324233"><ele>787.0</ele><time>2026-03-28T10:05:21.666Z</time></trkpt><trkpt lat="44.7504717" lon="9.8325183"><ele>787.0</ele><time>2026-03-28T10:05:22.666Z</time></trkpt><trkpt lat="44.750425" lon="9.8326133"><ele>787.0</ele><time>2026-03-28T10:05:23.665Z</time></trkpt><trkpt lat="44.75035" lon="9.83273"><ele>787.4000000000001</ele><time>2026-03-28T10:05:25.665Z</time></trkpt><trkpt lat="44.7502833" lon="9.832825"><ele>787.8000000000001</ele><time>2026-03-28T10:05:27.664Z</time></trkpt><trkpt lat="44.7502283" lon="9.832965"><ele>788.2</ele><time>2026-03-28T10:05:29.666Z</time></trkpt><trkpt lat="44.750195" lon="9.83305"><ele>788.6</ele><time>2026-03-28T10:05:30.664Z</time></trkpt><trkpt lat="44.7501217" lon="9.8331867"><ele>789.0</ele><time>2026-03-28T10:05:32.667Z</time></trkpt><trkpt lat="44.7500583" lon="9.8333317"><ele>784.2</ele><time>2026-03-28T10:05:34.664Z</time></trkpt><trkpt lat="44.7500033" lon="9.8334817"><ele>779.4000000000001</ele><time>2026-03-28T10:05:36.664Z</time></trkpt><trkpt lat="44.7499233" lon="9.8336067"><ele>774.6</ele><time>2026-03-28T10:05:38.667Z</time></trkpt><trkpt lat="44.749875" lon="9.833665"><ele>769.8</ele><time>2026-03-28T10:05:39.666Z</time></trkpt><trkpt lat="44.7497817" lon="9.8337617"><ele>765.0</ele><time>2026-03-28T10:05:41.665Z</time></trkpt><trkpt lat="44.749705" lon="9.8338633"><ele>765.0</ele><time>2026-03-28T10:05:43.666Z</time></trkpt><trkpt lat="44.7496167" lon="9.8340117"><ele>765.0</ele><time>2026-03-28T10:05:45.666Z</time></trkpt><trkpt lat="44.7495683" lon="9.8340867"><ele>765.0</ele><time>2026-03-28T10:05:46.666Z</time></trkpt><trkpt lat="44.749515" lon="9.8341533"><ele>765.0</ele><time>2026-03-28T10:05:47.666Z</time></trkpt><trkpt lat="44.7494633" lon="9.8342233"><ele>765.0</ele><time>2026-03-28T10:05:48.666Z</time></trkpt><trkpt lat="44.7494167" lon="9.8342867"><ele>765.0</ele><time>2026-03-28T10:05:49.667Z</time></trkpt><trkpt lat="44.749375" lon="9.83436"><ele>763.0</ele><time>2026-03-28T10:05:50.665Z</time></trkpt><trkpt lat="44.7492917" lon="9.834465"><ele>761.0</ele><time>2026-03-28T10:05:52.665Z</time></trkpt><trkpt lat="44.7491817" lon="9.8345133"><ele>759.0</ele><time>2026-03-28T10:05:54.664Z</time></trkpt><trkpt lat="44.7490633" lon="9.8345317"><ele>757.0</ele><time>2026-03-28T10:05:56.665Z</time></trkpt><trkpt lat="44.7489533" lon="9.83456"><ele>757.0</ele><time>2026-03-28T10:05:58.664Z</time></trkpt><trkpt lat="44.7488517" lon="9.8346433"><ele>757.0</ele><time>2026-03-28T10:06:00.665Z</time></trkpt><trkpt lat="44.7488017" lon="9.8346983"><ele>757.0</ele><time>2026-03-28T10:06:01.666Z</time></trkpt><trkpt lat="44.7487433" lon="9.834765"><ele>757.0</ele><time>2026-03-28T10:06:02.665Z</time></trkpt><trkpt lat="44.7486883" lon="9.834845"><ele>757.0</ele><time>2026-03-28T10:06:03.665Z</time></trkpt><trkpt lat="44.748635" lon="9.834935"><ele>757.0</ele><time>2026-03-28T10:06:04.665Z</time></trkpt><trkpt lat="44.7485733" lon="9.83503"><ele>757.1666666666667</ele><time>2026-03-28T10:06:05.665Z</time></trkpt><trkpt lat="44.74851" lon="9.835115"><ele>757.3333333333334</ele><time>2026-03-28T10:06:06.666Z</time></trkpt><trkpt lat="44.7484533" lon="9.8351833"><ele>757.5</ele><time>2026-03-28T10:06:07.665Z</time></trkpt><trkpt lat="44.748395" lon="9.83524"><ele>757.6666666666666</ele><time>2026-03-28T10:06:08.666Z</time></trkpt><trkpt lat="44.7483367" lon="9.8352833"><ele>757.8333333333333</ele><time>2026-03-28T10:06:09.665Z</time></trkpt><trkpt lat="44.7482417" lon="9.8353567"><ele>758.0</ele><time>2026-03-28T10:06:11.664Z</time></trkpt><trkpt lat="44.7481733" lon="9.8354467"><ele>758.0</ele><time>2026-03-28T10:06:13.665Z</time></trkpt><trkpt lat="44.7481033" lon="9.8355417"><ele>758.0</ele><time>2026-03-28T10:06:15.665Z</time></trkpt><trkpt lat="44.7480383" lon="9.8355"><ele>758.0</ele><time>2026-03-28T10:06:18.665Z</time></trkpt><trkpt lat="44.74802" lon="9.8353633"><ele>758.0</ele><time>2026-03-28T10:06:20.666Z</time></trkpt><trkpt lat="44.7480117" lon="9.8352733"><ele>758.0</ele><time>2026-03-28T10:06:21.665Z</time></trkpt><trkpt lat="44.7480067" lon="9.8351717"><ele>758.0</ele><time>2026-03-28T10:06:22.664Z</time></trkpt><trkpt lat="44.7480083" lon="9.835055"><ele>758.0</ele><time>2026-03-28T10:06:23.665Z</time></trkpt><trkpt lat="44.7480017" lon="9.8349367"><ele>758.0</ele><time>2026-03-28T10:06:24.665Z</time></trkpt><trkpt lat="44.7479767" lon="9.8348317"><ele>758.0</ele><time>2026-03-28T10:06:25.666Z</time></trkpt><trkpt lat="44.7479433" lon="9.834725"><ele>758.0</ele><time>2026-03-28T10:06:26.665Z</time></trkpt><trkpt lat="44.7478983" lon="9.8346233"><ele>758.0</ele><time>2026-03-28T10:06:27.665Z</time></trkpt><trkpt lat="44.7478483" lon="9.8345283"><ele>758.0</ele><time>2026-03-28T10:06:28.668Z</time></trkpt><trkpt lat="44.7477967" lon="9.8344483"><ele>758.0</ele><time>2026-03-28T10:06:29.666Z</time></trkpt><trkpt lat="44.7477267" lon="9.8343817"><ele>758.0</ele><time>2026-03-28T10:06:30.665Z</time></trkpt><trkpt lat="44.7476633" lon="9.83432"><ele>758.0</ele><time>2026-03-28T10:06:31.665Z</time></trkpt><trkpt lat="44.7476017" lon="9.8342717"><ele>758.0</ele><time>2026-03-28T10:06:32.665Z</time></trkpt><trkpt lat="44.74754" lon="9.83421"><ele>758.0</ele><time>2026-03-28T10:06:33.666Z</time></trkpt><trkpt lat="44.74748" lon="9.834145"><ele>758.0</ele><time>2026-03-28T10:06:34.664Z</time></trkpt><trkpt lat="44.7474033" lon="9.8340933"><ele>756.5999999999999</ele><time>2026-03-28T10:06:35.665Z</time></trkpt><trkpt lat="44.747315" lon="9.8340267"><ele>755.1999999999999</ele><time>2026-03-28T10:06:36.664Z</time></trkpt><trkpt lat="44.7472217" lon="9.83395"><ele>753.8</ele><time>2026-03-28T10:06:37.664Z</time></trkpt><trkpt lat="44.7471367" lon="9.83387"><ele>752.4</ele><time>2026-03-28T10:06:38.665Z</time></trkpt><trkpt lat="44.747055" lon="9.8338017"><ele>751.0</ele><time>2026-03-28T10:06:39.665Z</time></trkpt><trkpt lat="44.7469833" lon="9.833745"><ele>751.0</ele><time>2026-03-28T10:06:40.667Z</time></trkpt><trkpt lat="44.7469283" lon="9.8336917"><ele>751.0</ele><time>2026-03-28T10:06:41.665Z</time></trkpt><trkpt lat="44.746895" lon="9.8335317"><ele>751.0</ele><time>2026-03-28T10:06:43.664Z</time></trkpt><trkpt lat="44.7469033" lon="9.8334333"><ele>751.0</ele><time>2026-03-28T10:06:44.664Z</time></trkpt><trkpt lat="44.74693" lon="9.8333383"><ele>751.0</ele><time>2026-03-28T10:06:45.665Z</time></trkpt><trkpt lat="44.7469667" lon="9.833235"><ele>751.0</ele><time>2026-03-28T10:06:46.665Z</time></trkpt><trkpt lat="44.7470067" lon="9.833125"><ele>752.8</ele><time>2026-03-28T10:06:47.665Z</time></trkpt><trkpt lat="44.74705" lon="9.8330117"><ele>754.5999999999999</ele><time>2026-03-28T10:06:48.666Z</time></trkpt><trkpt lat="44.7470917" lon="9.8329067"><ele>756.4</ele><time>2026-03-28T10:06:49.665Z</time></trkpt><trkpt lat="44.7471267" lon="9.8327967"><ele>758.2</ele><time>2026-03-28T10:06:50.665Z</time></trkpt><trkpt lat="44.7471683" lon="9.8326717"><ele>760.0</ele><time>2026-03-28T10:06:51.666Z</time></trkpt><trkpt lat="44.7472133" lon="9.83256"><ele>760.0</ele><time>2026-03-28T10:06:52.664Z</time></trkpt><trkpt lat="44.7472467" lon="9.8324533"><ele>760.0</ele><time>2026-03-28T10:06:53.664Z</time></trkpt><trkpt lat="44.74727" lon="9.8323583"><ele>760.0</ele><time>2026-03-28T10:06:54.666Z</time></trkpt><trkpt lat="44.747285" lon="9.8322617"><ele>760.0</ele><time>2026-03-28T10:06:55.665Z</time></trkpt><trkpt lat="44.7473017" lon="9.8321517"><ele>760.0</ele><time>2026-03-28T10:06:56.667Z</time></trkpt><trkpt lat="44.7473167" lon="9.8320367"><ele>760.0</ele><time>2026-03-28T10:06:57.665Z</time></trkpt><trkpt lat="44.74734" lon="9.831925"><ele>760.0</ele><time>2026-03-28T10:06:58.665Z</time></trkpt><trkpt lat="44.7473717" lon="9.83182"><ele>760.0</ele><time>2026-03-28T10:06:59.667Z</time></trkpt><trkpt lat="44.7474017" lon="9.831715"><ele>760.0</ele><time>2026-03-28T10:07:00.665Z</time></trkpt><trkpt lat="44.74743" lon="9.8316083"><ele>760.0</ele><time>2026-03-28T10:07:01.666Z</time></trkpt><trkpt lat="44.7474533" lon="9.8314933"><ele>760.0</ele><time>2026-03-28T10:07:02.665Z</time></trkpt><trkpt lat="44.7474783" lon="9.8313833"><ele>760.0</ele><time>2026-03-28T10:07:03.665Z</time></trkpt><trkpt lat="44.7475083" lon="9.8312933"><ele>757.0</ele><time>2026-03-28T10:07:04.666Z</time></trkpt><trkpt lat="44.7475383" lon="9.831205"><ele>754.0</ele><time>2026-03-28T10:07:05.665Z</time></trkpt><trkpt lat="44.7475667" lon="9.8311217"><ele>751.0</ele><time>2026-03-28T10:07:06.665Z</time></trkpt><trkpt lat="44.74761" lon="9.83096"><ele>748.0</ele><time>2026-03-28T10:07:08.665Z</time></trkpt><trkpt lat="44.7476267" lon="9.8307917"><ele>745.0</ele><time>2026-03-28T10:07:10.67Z</time></trkpt><trkpt lat="44.74763" lon="9.8306233"><ele>743.4285714285714</ele><time>2026-03-28T10:07:12.666Z</time></trkpt><trkpt lat="44.74763" lon="9.83053"><ele>741.8571428571429</ele><time>2026-03-28T10:07:13.665Z</time></trkpt><trkpt lat="44.74763" lon="9.8304317"><ele>740.2857142857142</ele><time>2026-03-28T10:07:14.664Z</time></trkpt><trkpt lat="44.747625" lon="9.83033"><ele>738.7142857142858</ele><time>2026-03-28T10:07:15.664Z</time></trkpt><trkpt lat="44.74762" lon="9.8302233"><ele>737.1428571428572</ele><time>2026-03-28T10:07:16.665Z</time></trkpt><trkpt lat="44.7476133" lon="9.83012"><ele>735.5714285714286</ele><time>2026-03-28T10:07:17.665Z</time></trkpt><trkpt lat="44.7476017" lon="9.83002"><ele>734.0</ele><time>2026-03-28T10:07:18.665Z</time></trkpt><trkpt lat="44.7475833" lon="9.8299183"><ele>733.1666666666666</ele><time>2026-03-28T10:07:19.665Z</time></trkpt><trkpt lat="44.7475633" lon="9.8298183"><ele>732.3333333333333</ele><time>2026-03-28T10:07:20.666Z</time></trkpt><trkpt lat="44.7475483" lon="9.8297083"><ele>731.5</ele><time>2026-03-28T10:07:21.666Z</time></trkpt><trkpt lat="44.7475283" lon="9.829595"><ele>730.6666666666666</ele><time>2026-03-28T10:07:22.664Z</time></trkpt><trkpt lat="44.74752" lon="9.8294667"><ele>729.8333333333334</ele><time>2026-03-28T10:07:23.665Z</time></trkpt><trkpt lat="44.74751" lon="9.8293417"><ele>729.0</ele><time>2026-03-28T10:07:24.665Z</time></trkpt><trkpt lat="44.7475017" lon="9.8292333"><ele>729.0</ele><time>2026-03-28T10:07:25.668Z</time></trkpt><trkpt lat="44.7474833" lon="9.829135"><ele>729.0</ele><time>2026-03-28T10:07:26.667Z</time></trkpt><trkpt lat="44.7474117" lon="9.8289983"><ele>729.0</ele><time>2026-03-28T10:07:28.665Z</time></trkpt><trkpt lat="44.7473267" lon="9.82888"><ele>729.0</ele><time>2026-03-28T10:07:30.666Z</time></trkpt><trkpt lat="44.7472967" lon="9.8287183"><ele>729.0</ele><time>2026-03-28T10:07:32.666Z</time></trkpt><trkpt lat="44.7473" lon="9.828625"><ele>731.2</ele><time>2026-03-28T10:07:33.665Z</time></trkpt><trkpt lat="44.74729" lon="9.82846"><ele>733.4000000000001</ele><time>2026-03-28T10:07:35.665Z</time></trkpt><trkpt lat="44.74725" lon="9.828365"><ele>735.6</ele><time>2026-03-28T10:07:37.666Z</time></trkpt><trkpt lat="44.747135" lon="9.8283367"><ele>737.8</ele><time>2026-03-28T10:07:39.666Z</time></trkpt><trkpt lat="44.7470417" lon="9.828325"><ele>740.0</ele><time>2026-03-28T10:07:40.666Z</time></trkpt><trkpt lat="44.7469517" lon="9.8283017"><ele>735.0</ele><time>2026-03-28T10:07:41.665Z</time></trkpt><trkpt lat="44.7468517" lon="9.82827"><ele>730.0</ele><time>2026-03-28T10:07:42.665Z</time></trkpt><trkpt lat="44.746755" lon="9.8282467"><ele>725.0</ele><time>2026-03-28T10:07:43.665Z</time></trkpt><trkpt lat="44.7466667" lon="9.82821"><ele>720.0</ele><time>2026-03-28T10:07:44.665Z</time></trkpt><trkpt lat="44.7466033" lon="9.82819"><ele>715.0</ele><time>2026-03-28T10:07:45.665Z</time></trkpt><trkpt lat="44.7465117" lon="9.8281283"><ele>715.0</ele><time>2026-03-28T10:07:47.665Z</time></trkpt><trkpt lat="44.7464567" lon="9.8280033"><ele>715.0</ele><time>2026-03-28T10:07:49.666Z</time></trkpt><trkpt lat="44.746395" lon="9.82785"><ele>715.0</ele><time>2026-03-28T10:07:51.666Z</time></trkpt><trkpt lat="44.74638" lon="9.8277033"><ele>715.0</ele><time>2026-03-28T10:07:53.666Z</time></trkpt><trkpt lat="44.7463783" lon="9.827545"><ele>715.0</ele><time>2026-03-28T10:07:55.665Z</time></trkpt><trkpt lat="44.746365" lon="9.8274583"><ele>717.2</ele><time>2026-03-28T10:07:56.666Z</time></trkpt><trkpt lat="44.746345" lon="9.8273733"><ele>719.4</ele><time>2026-03-28T10:07:57.667Z</time></trkpt><trkpt lat="44.746315" lon="9.82723"><ele>721.5999999999999</ele><time>2026-03-28T10:07:59.665Z</time></trkpt><trkpt lat="44.7463167" lon="9.8270583"><ele>723.8</ele><time>2026-03-28T10:08:01.671Z</time></trkpt><trkpt lat="44.7463133" lon="9.8269683"><ele>726.0</ele><time>2026-03-28T10:08:02.665Z</time></trkpt><trkpt lat="44.7462833" lon="9.8268183"><ele>726.5999999999999</ele><time>2026-03-28T10:08:04.665Z</time></trkpt><trkpt lat="44.7462483" lon="9.8266633"><ele>727.2</ele><time>2026-03-28T10:08:06.665Z</time></trkpt><trkpt lat="44.7462167" lon="9.8265833"><ele>727.8</ele><time>2026-03-28T10:08:07.666Z</time></trkpt><trkpt lat="44.7461417" lon="9.826445"><ele>728.4000000000001</ele><time>2026-03-28T10:08:09.666Z</time></trkpt><trkpt lat="44.7460717" lon="9.8263017"><ele>729.0</ele><time>2026-03-28T10:08:11.665Z</time></trkpt><trkpt lat="44.7460317" lon="9.8262083"><ele>725.1428571428572</ele><time>2026-03-28T10:08:12.666Z</time></trkpt><trkpt lat="44.7459983" lon="9.8261267"><ele>721.2857142857142</ele><time>2026-03-28T10:08:13.667Z</time></trkpt><trkpt lat="44.7459533" lon="9.8260533"><ele>717.4285714285714</ele><time>2026-03-28T10:08:14.665Z</time></trkpt><trkpt lat="44.7459033" lon="9.8259867"><ele>713.5714285714287</ele><time>2026-03-28T10:08:15.666Z</time></trkpt><trkpt lat="44.7458567" lon="9.8259217"><ele>709.7142857142858</ele><time>2026-03-28T10:08:16.665Z</time></trkpt><trkpt lat="44.7458133" lon="9.8258533"><ele>705.8571428571429</ele><time>2026-03-28T10:08:17.664Z</time></trkpt><trkpt lat="44.745775" lon="9.8257817"><ele>702.0</ele><time>2026-03-28T10:08:18.666Z</time></trkpt><trkpt lat="44.7457283" lon="9.8256783"><ele>702.0</ele><time>2026-03-28T10:08:20.666Z</time></trkpt><trkpt lat="44.7456783" lon="9.8255717"><ele>702.0</ele><time>2026-03-28T10:08:22.665Z</time></trkpt><trkpt lat="44.7456167" lon="9.82543"><ele>702.0</ele><time>2026-03-28T10:08:24.665Z</time></trkpt><trkpt lat="44.7455267" lon="9.8253267"><ele>702.0</ele><time>2026-03-28T10:08:26.668Z</time></trkpt><trkpt lat="44.7454317" lon="9.8252883"><ele>702.0</ele><time>2026-03-28T10:08:28.664Z</time></trkpt><trkpt lat="44.7453317" lon="9.8252483"><ele>702.0</ele><time>2026-03-28T10:08:30.665Z</time></trkpt><trkpt lat="44.7452483" lon="9.825165"><ele>702.0</ele><time>2026-03-28T10:08:32.665Z</time></trkpt><trkpt lat="44.74521" lon="9.82507"><ele>702.0</ele><time>2026-03-28T10:08:34.665Z</time></trkpt><trkpt lat="44.745145" lon="9.8249933"><ele>702.0</ele><time>2026-03-28T10:08:36.665Z</time></trkpt><trkpt lat="44.7450683" lon="9.8249317"><ele>702.0</ele><time>2026-03-28T10:08:38.665Z</time></trkpt><trkpt lat="44.7449917" lon="9.82494"><ele>702.0</ele><time>2026-03-28T10:08:40.665Z</time></trkpt><trkpt lat="44.7448933" lon="9.8249733"><ele>702.4000000000001</ele><time>2026-03-28T10:08:42.665Z</time></trkpt><trkpt lat="44.7447733" lon="9.824995"><ele>702.8000000000001</ele><time>2026-03-28T10:08:44.666Z</time></trkpt><trkpt lat="44.7447117" lon="9.825015"><ele>703.2</ele><time>2026-03-28T10:08:45.665Z</time></trkpt><trkpt lat="44.7446117" lon="9.8250633"><ele>703.6</ele><time>2026-03-28T10:08:47.665Z</time></trkpt><trkpt lat="44.744515" lon="9.8251183"><ele>704.0</ele><time>2026-03-28T10:08:49.666Z</time></trkpt><trkpt lat="44.74441" lon="9.8251733"><ele>700.8000000000001</ele><time>2026-03-28T10:08:51.664Z</time></trkpt><trkpt lat="44.7442983" lon="9.825225"><ele>697.6</ele><time>2026-03-28T10:08:53.666Z</time></trkpt><trkpt lat="44.7441817" lon="9.8252633"><ele>694.4</ele><time>2026-03-28T10:08:55.666Z</time></trkpt><trkpt lat="44.7441117" lon="9.8252817"><ele>691.2</ele><time>2026-03-28T10:08:56.666Z</time></trkpt><trkpt lat="44.7440367" lon="9.8253"><ele>688.0</ele><time>2026-03-28T10:08:57.666Z</time></trkpt><trkpt lat="44.7439717" lon="9.82531"><ele>688.0</ele><time>2026-03-28T10:08:58.665Z</time></trkpt><trkpt lat="44.743905" lon="9.8253083"><ele>688.0</ele><time>2026-03-28T10:08:59.664Z</time></trkpt><trkpt lat="44.7438383" lon="9.8253067"><ele>688.0</ele><time>2026-03-28T10:09:00.666Z</time></trkpt><trkpt lat="44.74371" lon="9.8252967"><ele>688.0</ele><time>2026-03-28T10:09:02.666Z</time></trkpt><trkpt lat="44.7435817" lon="9.82528"><ele>688.0</ele><time>2026-03-28T10:09:04.664Z</time></trkpt><trkpt lat="44.7434567" lon="9.82528"><ele>686.0</ele><time>2026-03-28T10:09:06.664Z</time></trkpt><trkpt lat="44.74339" lon="9.82529"><ele>684.0</ele><time>2026-03-28T10:09:07.664Z</time></trkpt><trkpt lat="44.7433033" lon="9.8253117"><ele>682.0</ele><time>2026-03-28T10:09:08.665Z</time></trkpt><trkpt lat="44.7432233" lon="9.8253317"><ele>680.0</ele><time>2026-03-28T10:09:09.665Z</time></trkpt><trkpt lat="44.743145" lon="9.8253517"><ele>678.0</ele><time>2026-03-28T10:09:10.666Z</time></trkpt><trkpt lat="44.7430767" lon="9.8253667"><ele>676.0</ele><time>2026-03-28T10:09:11.665Z</time></trkpt><trkpt lat="44.742995" lon="9.8253917"><ele>676.0</ele><time>2026-03-28T10:09:12.664Z</time></trkpt><trkpt lat="44.7429117" lon="9.82542"><ele>676.0</ele><time>2026-03-28T10:09:13.665Z</time></trkpt><trkpt lat="44.7428433" lon="9.8254517"><ele>676.0</ele><time>2026-03-28T10:09:14.666Z</time></trkpt><trkpt lat="44.7427417" lon="9.8254967"><ele>676.0</ele><time>2026-03-28T10:09:16.664Z</time></trkpt><trkpt lat="44.742665" lon="9.8255233"><ele>676.0</ele><time>2026-03-28T10:09:18.664Z</time></trkpt><trkpt lat="44.7425483" lon="9.8255583"><ele>675.8</ele><time>2026-03-28T10:09:20.666Z</time></trkpt><trkpt lat="44.7424817" lon="9.8255783"><ele>675.5999999999999</ele><time>2026-03-28T10:09:21.665Z</time></trkpt><trkpt lat="44.7423567" lon="9.825655"><ele>675.4</ele><time>2026-03-28T10:09:23.666Z</time></trkpt><trkpt lat="44.742285" lon="9.8257133"><ele>675.2</ele><time>2026-03-28T10:09:24.665Z</time></trkpt><trkpt lat="44.74221" lon="9.825775"><ele>675.0</ele><time>2026-03-28T10:09:25.666Z</time></trkpt><trkpt lat="44.7421367" lon="9.8258417"><ele>675.0</ele><time>2026-03-28T10:09:26.666Z</time></trkpt><trkpt lat="44.7420617" lon="9.8259"><ele>675.0</ele><time>2026-03-28T10:09:27.666Z</time></trkpt><trkpt lat="44.7419883" lon="9.8259533"><ele>675.0</ele><time>2026-03-28T10:09:28.666Z</time></trkpt><trkpt lat="44.74192" lon="9.8260033"><ele>675.0</ele><time>2026-03-28T10:09:29.665Z</time></trkpt><trkpt lat="44.74185" lon="9.8260517"><ele>675.0</ele><time>2026-03-28T10:09:30.665Z</time></trkpt><trkpt lat="44.7417817" lon="9.8261033"><ele>675.0</ele><time>2026-03-28T10:09:31.666Z</time></trkpt><trkpt lat="44.74172" lon="9.8261367"><ele>672.0</ele><time>2026-03-28T10:09:32.666Z</time></trkpt><trkpt lat="44.7416483" lon="9.8261517"><ele>669.0</ele><time>2026-03-28T10:09:33.666Z</time></trkpt><trkpt lat="44.7415717" lon="9.8261417"><ele>666.0</ele><time>2026-03-28T10:09:34.666Z</time></trkpt><trkpt lat="44.7414967" lon="9.8261283"><ele>663.0</ele><time>2026-03-28T10:09:35.665Z</time></trkpt><trkpt lat="44.741425" lon="9.8261083"><ele>660.0</ele><time>2026-03-28T10:09:36.665Z</time></trkpt><trkpt lat="44.7413467" lon="9.8260867"><ele>657.0</ele><time>2026-03-28T10:09:37.666Z</time></trkpt><trkpt lat="44.7412633" lon="9.8260583"><ele>657.0</ele><time>2026-03-28T10:09:38.667Z</time></trkpt><trkpt lat="44.7411783" lon="9.8260267"><ele>657.0</ele><time>2026-03-28T10:09:39.666Z</time></trkpt><trkpt lat="44.741095" lon="9.8260117"><ele>657.0</ele><time>2026-03-28T10:09:40.667Z</time></trkpt><trkpt lat="44.74102" lon="9.8259933"><ele>657.0</ele><time>2026-03-28T10:09:41.666Z</time></trkpt><trkpt lat="44.7409517" lon="9.82598"><ele>657.0</ele><time>2026-03-28T10:09:42.666Z</time></trkpt><trkpt lat="44.7408583" lon="9.8259417"><ele>657.0</ele><time>2026-03-28T10:09:44.666Z</time></trkpt><trkpt lat="44.7408067" lon="9.825835"><ele>657.1666666666666</ele><time>2026-03-28T10:09:47.664Z</time></trkpt><trkpt lat="44.740775" lon="9.8257117"><ele>657.3333333333334</ele><time>2026-03-28T10:09:49.665Z</time></trkpt><trkpt lat="44.7407367" lon="9.825545"><ele>657.5</ele><time>2026-03-28T10:09:51.664Z</time></trkpt><trkpt lat="44.740705" lon="9.8254583"><ele>657.6666666666667</ele><time>2026-03-28T10:09:52.666Z</time></trkpt><trkpt lat="44.740675" lon="9.8253733"><ele>657.8333333333334</ele><time>2026-03-28T10:09:53.666Z</time></trkpt><trkpt lat="44.74065" lon="9.82529"><ele>658.0</ele><time>2026-03-28T10:09:54.666Z</time></trkpt><trkpt lat="44.7406217" lon="9.8252"><ele>659.0</ele><time>2026-03-28T10:09:55.665Z</time></trkpt><trkpt lat="44.7405917" lon="9.8251083"><ele>660.0</ele><time>2026-03-28T10:09:56.665Z</time></trkpt><trkpt lat="44.7405633" lon="9.825025"><ele>661.0</ele><time>2026-03-28T10:09:57.666Z</time></trkpt><trkpt lat="44.74051" lon="9.82488"><ele>662.0</ele><time>2026-03-28T10:09:59.667Z</time></trkpt><trkpt lat="44.7404383" lon="9.82482"><ele>663.0</ele><time>2026-03-28T10:10:01.666Z</time></trkpt><trkpt lat="44.74034" lon="9.8248467"><ele>664.0</ele><time>2026-03-28T10:10:03.666Z</time></trkpt><trkpt lat="44.7402233" lon="9.8248267"><ele>659.6666666666667</ele><time>2026-03-28T10:10:05.664Z</time></trkpt><trkpt lat="44.7401683" lon="9.82478"><ele>655.3333333333334</ele><time>2026-03-28T10:10:06.666Z</time></trkpt><trkpt lat="44.7401067" lon="9.8247233"><ele>651.0</ele><time>2026-03-28T10:10:07.665Z</time></trkpt><trkpt lat="44.7400483" lon="9.8246717"><ele>646.6666666666666</ele><time>2026-03-28T10:10:08.666Z</time></trkpt><trkpt lat="44.739945" lon="9.824575"><ele>642.3333333333333</ele><time>2026-03-28T10:10:10.666Z</time></trkpt><trkpt lat="44.7398817" lon="9.82454"><ele>638.0</ele><time>2026-03-28T10:10:11.666Z</time></trkpt><trkpt lat="44.7398067" lon="9.8245183"><ele>638.0</ele><time>2026-03-28T10:10:12.666Z</time></trkpt><trkpt lat="44.7397333" lon="9.8245067"><ele>638.0</ele><time>2026-03-28T10:10:13.665Z</time></trkpt><trkpt lat="44.7396617" lon="9.8245017"><ele>638.0</ele><time>2026-03-28T10:10:14.665Z</time></trkpt><trkpt lat="44.7395417" lon="9.824535"><ele>638.0</ele><time>2026-03-28T10:10:16.665Z</time></trkpt><trkpt lat="44.73948" lon="9.824565"><ele>638.0</ele><time>2026-03-28T10:10:17.666Z</time></trkpt><trkpt lat="44.7393767" lon="9.824555"><ele>638.0</ele><time>2026-03-28T10:10:19.664Z</time></trkpt><trkpt lat="44.7393083" lon="9.8244333"><ele>636.1666666666666</ele><time>2026-03-28T10:10:21.666Z</time></trkpt><trkpt lat="44.7392317" lon="9.824335"><ele>634.3333333333333</ele><time>2026-03-28T10:10:23.665Z</time></trkpt><trkpt lat="44.739155" lon="9.8243517"><ele>632.5</ele><time>2026-03-28T10:10:25.665Z</time></trkpt><trkpt lat="44.7390967" lon="9.8244133"><ele>630.6666666666666</ele><time>2026-03-28T10:10:26.666Z</time></trkpt><trkpt lat="44.7390383" lon="9.82448"><ele>628.8333333333334</ele><time>2026-03-28T10:10:27.667Z</time></trkpt><trkpt lat="44.7389733" lon="9.8245417"><ele>627.0</ele><time>2026-03-28T10:10:28.665Z</time></trkpt><trkpt lat="44.7389" lon="9.824585"><ele>627.0</ele><time>2026-03-28T10:10:29.667Z</time></trkpt><trkpt lat="44.7388267" lon="9.8246017"><ele>627.0</ele><time>2026-03-28T10:10:30.667Z</time></trkpt><trkpt lat="44.7387567" lon="9.8246083"><ele>627.0</ele><time>2026-03-28T10:10:31.664Z</time></trkpt><trkpt lat="44.738695" lon="9.82463"><ele>627.0</ele><time>2026-03-28T10:10:32.666Z</time></trkpt><trkpt lat="44.7386333" lon="9.8246683"><ele>627.0</ele><time>2026-03-28T10:10:33.664Z</time></trkpt><trkpt lat="44.7385733" lon="9.82473"><ele>627.0</ele><time>2026-03-28T10:10:34.666Z</time></trkpt><trkpt lat="44.73852" lon="9.8248033"><ele>627.0</ele><time>2026-03-28T10:10:35.666Z</time></trkpt><trkpt lat="44.7384617" lon="9.8248817"><ele>627.3333333333334</ele><time>2026-03-28T10:10:36.665Z</time></trkpt><trkpt lat="44.7384067" lon="9.8249467"><ele>627.6666666666666</ele><time>2026-03-28T10:10:37.665Z</time></trkpt><trkpt lat="44.7383417" lon="9.825"><ele>628.0</ele><time>2026-03-28T10:10:38.666Z</time></trkpt><trkpt lat="44.738275" lon="9.8250317"><ele>628.3333333333333</ele><time>2026-03-28T10:10:39.665Z</time></trkpt><trkpt lat="44.7381517" lon="9.8250433"><ele>628.6666666666666</ele><time>2026-03-28T10:10:41.666Z</time></trkpt><trkpt lat="44.7380867" lon="9.8250333"><ele>629.0</ele><time>2026-03-28T10:10:42.666Z</time></trkpt><trkpt lat="44.7380217" lon="9.8250233"><ele>629.0</ele><time>2026-03-28T10:10:43.665Z</time></trkpt><trkpt lat="44.7379517" lon="9.825"><ele>629.0</ele><time>2026-03-28T10:10:44.666Z</time></trkpt><trkpt lat="44.7378817" lon="9.824965"><ele>629.0</ele><time>2026-03-28T10:10:45.665Z</time></trkpt><trkpt lat="44.7378117" lon="9.82494"><ele>629.0</ele><time>2026-03-28T10:10:46.668Z</time></trkpt><trkpt lat="44.7377383" lon="9.82493"><ele>629.0</ele><time>2026-03-28T10:10:47.668Z</time></trkpt><trkpt lat="44.7376533" lon="9.8249383"><ele>629.0</ele><time>2026-03-28T10:10:48.667Z</time></trkpt><trkpt lat="44.7375683" lon="9.8249633"><ele>629.2</ele><time>2026-03-28T10:10:49.668Z</time></trkpt><trkpt lat="44.7374817" lon="9.825005"><ele>629.4</ele><time>2026-03-28T10:10:50.667Z</time></trkpt><trkpt lat="44.7373967" lon="9.8250667"><ele>629.6</ele><time>2026-03-28T10:10:51.667Z</time></trkpt><trkpt lat="44.7373183" lon="9.8251467"><ele>629.8</ele><time>2026-03-28T10:10:52.666Z</time></trkpt><trkpt lat="44.73724" lon="9.8252267"><ele>630.0</ele><time>2026-03-28T10:10:53.668Z</time></trkpt><trkpt lat="44.7371583" lon="9.8253067"><ele>629.3333333333334</ele><time>2026-03-28T10:10:54.665Z</time></trkpt><trkpt lat="44.737085" lon="9.8253833"><ele>628.6666666666666</ele><time>2026-03-28T10:10:55.665Z</time></trkpt><trkpt lat="44.737015" lon="9.8254517"><ele>628.0</ele><time>2026-03-28T10:10:56.666Z</time></trkpt><trkpt lat="44.7369517" lon="9.82551"><ele>627.3333333333333</ele><time>2026-03-28T10:10:57.665Z</time></trkpt><trkpt lat="44.7368833" lon="9.8255683"><ele>626.6666666666666</ele><time>2026-03-28T10:10:58.664Z</time></trkpt><trkpt lat="44.736815" lon="9.8256333"><ele>626.0</ele><time>2026-03-28T10:10:59.666Z</time></trkpt><trkpt lat="44.7367417" lon="9.825705"><ele>626.0</ele><time>2026-03-28T10:11:00.666Z</time></trkpt><trkpt lat="44.7366633" lon="9.8257783"><ele>626.0</ele><time>2026-03-28T10:11:01.665Z</time></trkpt><trkpt lat="44.736585" lon="9.8258517"><ele>626.0</ele><time>2026-03-28T10:11:02.666Z</time></trkpt><trkpt lat="44.7365033" lon="9.82592"><ele>626.0</ele><time>2026-03-28T10:11:03.665Z</time></trkpt><trkpt lat="44.7364217" lon="9.8259833"><ele>626.0</ele><time>2026-03-28T10:11:04.666Z</time></trkpt><trkpt lat="44.7363417" lon="9.826045"><ele>624.4</ele><time>2026-03-28T10:11:05.665Z</time></trkpt><trkpt lat="44.736265" lon="9.8261017"><ele>622.8</ele><time>2026-03-28T10:11:06.668Z</time></trkpt><trkpt lat="44.73618" lon="9.8261533"><ele>621.1999999999999</ele><time>2026-03-28T10:11:07.665Z</time></trkpt><trkpt lat="44.73609" lon="9.8261933"><ele>619.6</ele><time>2026-03-28T10:11:08.666Z</time></trkpt><trkpt lat="44.7359983" lon="9.8262083"><ele>618.0</ele><time>2026-03-28T10:11:09.666Z</time></trkpt><trkpt lat="44.7359033" lon="9.826215"><ele>617.6666666666666</ele><time>2026-03-28T10:11:10.666Z</time></trkpt><trkpt lat="44.7358083" lon="9.8262217"><ele>617.3333333333334</ele><time>2026-03-28T10:11:11.666Z</time></trkpt><trkpt lat="44.7357167" lon="9.82623"><ele>617.0</ele><time>2026-03-28T10:11:12.666Z</time></trkpt><trkpt lat="44.7356483" lon="9.8262333"><ele>616.6666666666667</ele><time>2026-03-28T10:11:13.667Z</time></trkpt><trkpt lat="44.735575" lon="9.8262433"><ele>616.3333333333334</ele><time>2026-03-28T10:11:15.665Z</time></trkpt><trkpt lat="44.7355083" lon="9.8263583"><ele>616.0</ele><time>2026-03-28T10:11:18.665Z</time></trkpt><trkpt lat="44.73547" lon="9.82653"><ele>616.0</ele><time>2026-03-28T10:11:20.667Z</time></trkpt><trkpt lat="44.735455" lon="9.8266383"><ele>616.0</ele><time>2026-03-28T10:11:21.665Z</time></trkpt><trkpt lat="44.73544" lon="9.8267567"><ele>616.0</ele><time>2026-03-28T10:11:22.665Z</time></trkpt><trkpt lat="44.73543" lon="9.8268783"><ele>616.0</ele><time>2026-03-28T10:11:23.667Z</time></trkpt><trkpt lat="44.7354217" lon="9.82701"><ele>616.0</ele><time>2026-03-28T10:11:24.666Z</time></trkpt><trkpt lat="44.7354167" lon="9.827155"><ele>616.0</ele><time>2026-03-28T10:11:25.666Z</time></trkpt><trkpt lat="44.735415" lon="9.827305"><ele>614.6</ele><time>2026-03-28T10:11:26.666Z</time></trkpt><trkpt lat="44.7354133" lon="9.8274583"><ele>613.2</ele><time>2026-03-28T10:11:27.665Z</time></trkpt><trkpt lat="44.735415" lon="9.82761"><ele>611.8</ele><time>2026-03-28T10:11:28.666Z</time></trkpt><trkpt lat="44.7354133" lon="9.8277683"><ele>610.4</ele><time>2026-03-28T10:11:29.666Z</time></trkpt><trkpt lat="44.7354117" lon="9.8279283"><ele>609.0</ele><time>2026-03-28T10:11:30.666Z</time></trkpt><trkpt lat="44.73541" lon="9.828085"><ele>607.4</ele><time>2026-03-28T10:11:31.665Z</time></trkpt><trkpt lat="44.73541" lon="9.8282383"><ele>605.8</ele><time>2026-03-28T10:11:32.665Z</time></trkpt><trkpt lat="44.7354117" lon="9.8283833"><ele>604.2</ele><time>2026-03-28T10:11:33.666Z</time></trkpt><trkpt lat="44.7354117" lon="9.8285167"><ele>602.6</ele><time>2026-03-28T10:11:34.665Z</time></trkpt><trkpt lat="44.735415" lon="9.8286317"><ele>601.0</ele><time>2026-03-28T10:11:35.664Z</time></trkpt><trkpt lat="44.7354283" lon="9.828765"><ele>600.1428571428571</ele><time>2026-03-28T10:11:37.666Z</time></trkpt><trkpt lat="44.7354933" lon="9.8287683"><ele>599.2857142857143</ele><time>2026-03-28T10:11:40.666Z</time></trkpt><trkpt lat="44.7355733" lon="9.8288017"><ele>598.4285714285714</ele><time>2026-03-28T10:11:42.665Z</time></trkpt><trkpt lat="44.735645" lon="9.828815"><ele>597.5714285714286</ele><time>2026-03-28T10:11:44.666Z</time></trkpt><trkpt lat="44.7356967" lon="9.8287517"><ele>596.7142857142858</ele><time>2026-03-28T10:11:46.665Z</time></trkpt><trkpt lat="44.7357417" lon="9.8286667"><ele>595.8571428571429</ele><time>2026-03-28T10:11:48.666Z</time></trkpt><trkpt lat="44.735815" lon="9.8287083"><ele>595.0</ele><time>2026-03-28T10:11:50.667Z</time></trkpt><trkpt lat="44.7358617" lon="9.82877"><ele>595.0</ele><time>2026-03-28T10:11:51.666Z</time></trkpt><trkpt lat="44.7359217" lon="9.828835"><ele>595.0</ele><time>2026-03-28T10:11:52.665Z</time></trkpt><trkpt lat="44.735985" lon="9.8289"><ele>595.0</ele><time>2026-03-28T10:11:53.666Z</time></trkpt><trkpt lat="44.736045" lon="9.8289717"><ele>595.0</ele><time>2026-03-28T10:11:54.665Z</time></trkpt><trkpt lat="44.7361083" lon="9.8290383"><ele>595.0</ele><time>2026-03-28T10:11:55.665Z</time></trkpt><trkpt lat="44.7361733" lon="9.8291"><ele>595.0</ele><time>2026-03-28T10:11:56.666Z</time></trkpt><trkpt lat="44.7362367" lon="9.829165"><ele>594.5</ele><time>2026-03-28T10:11:57.665Z</time></trkpt><trkpt lat="44.7362883" lon="9.8292333"><ele>594.0</ele><time>2026-03-28T10:11:58.665Z</time></trkpt><trkpt lat="44.7363317" lon="9.8292983"><ele>593.5</ele><time>2026-03-28T10:11:59.665Z</time></trkpt><trkpt lat="44.73641" lon="9.8294383"><ele>593.0</ele><time>2026-03-28T10:12:01.665Z</time></trkpt><trkpt lat="44.7364517" lon="9.8295217"><ele>592.5</ele><time>2026-03-28T10:12:02.666Z</time></trkpt><trkpt lat="44.736495" lon="9.82961"><ele>592.0</ele><time>2026-03-28T10:12:03.665Z</time></trkpt><trkpt lat="44.7365383" lon="9.8296967"><ele>590.7142857142858</ele><time>2026-03-28T10:12:04.666Z</time></trkpt><trkpt lat="44.73658" lon="9.82978"><ele>589.4285714285714</ele><time>2026-03-28T10:12:05.664Z</time></trkpt><trkpt lat="44.73662" lon="9.8298583"><ele>588.1428571428571</ele><time>2026-03-28T10:12:06.665Z</time></trkpt><trkpt lat="44.736665" lon="9.8299317"><ele>586.8571428571429</ele><time>2026-03-28T10:12:07.665Z</time></trkpt><trkpt lat="44.736715" lon="9.8300033"><ele>585.5714285714286</ele><time>2026-03-28T10:12:08.665Z</time></trkpt><trkpt lat="44.7367733" lon="9.83006"><ele>584.2857142857143</ele><time>2026-03-28T10:12:09.666Z</time></trkpt><trkpt lat="44.7368417" lon="9.8301033"><ele>583.0</ele><time>2026-03-28T10:12:10.665Z</time></trkpt><trkpt lat="44.7369133" lon="9.8301417"><ele>582.1666666666667</ele><time>2026-03-28T10:12:11.666Z</time></trkpt><trkpt lat="44.7369867" lon="9.8301883"><ele>581.3333333333334</ele><time>2026-03-28T10:12:12.667Z</time></trkpt><trkpt lat="44.7370567" lon="9.8302433"><ele>580.5</ele><time>2026-03-28T10:12:13.667Z</time></trkpt><trkpt lat="44.7371217" lon="9.8303133"><ele>579.6666666666666</ele><time>2026-03-28T10:12:14.665Z</time></trkpt><trkpt lat="44.7371833" lon="9.8304017"><ele>578.8333333333333</ele><time>2026-03-28T10:12:15.666Z</time></trkpt><trkpt lat="44.7372433" lon="9.8304967"><ele>578.0</ele><time>2026-03-28T10:12:16.666Z</time></trkpt><trkpt lat="44.7373" lon="9.8306017"><ele>578.0</ele><time>2026-03-28T10:12:17.666Z</time></trkpt><trkpt lat="44.7373617" lon="9.8307017"><ele>578.0</ele><time>2026-03-28T10:12:18.665Z</time></trkpt><trkpt lat="44.73742" lon="9.8308017"><ele>578.0</ele><time>2026-03-28T10:12:19.666Z</time></trkpt><trkpt lat="44.7374717" lon="9.8309067"><ele>578.0</ele><time>2026-03-28T10:12:20.666Z</time></trkpt><trkpt lat="44.7375217" lon="9.831005"><ele>578.0</ele><time>2026-03-28T10:12:21.665Z</time></trkpt><trkpt lat="44.737565" lon="9.831095"><ele>578.0</ele><time>2026-03-28T10:12:22.665Z</time></trkpt><trkpt lat="44.7375967" lon="9.8311717"><ele>576.25</ele><time>2026-03-28T10:12:23.666Z</time></trkpt><trkpt lat="44.7376817" lon="9.8312833"><ele>574.5</ele><time>2026-03-28T10:12:25.667Z</time></trkpt><trkpt lat="44.7377833" lon="9.8313667"><ele>572.75</ele><time>2026-03-28T10:12:27.664Z</time></trkpt><trkpt lat="44.7378683" lon="9.8314533"><ele>571.0</ele><time>2026-03-28T10:12:29.666Z</time></trkpt><trkpt lat="44.737945" lon="9.8315733"><ele>571.0</ele><time>2026-03-28T10:12:31.664Z</time></trkpt><trkpt lat="44.7379717" lon="9.8316617"><ele>571.0</ele><time>2026-03-28T10:12:32.665Z</time></trkpt><trkpt lat="44.7379817" lon="9.8317583"><ele>571.0</ele><time>2026-03-28T10:12:33.665Z</time></trkpt><trkpt lat="44.7379767" lon="9.8318717"><ele>571.0</ele><time>2026-03-28T10:12:34.666Z</time></trkpt><trkpt lat="44.7379733" lon="9.8319867"><ele>571.0</ele><time>2026-03-28T10:12:35.666Z</time></trkpt><trkpt lat="44.7379733" lon="9.8320983"><ele>571.0</ele><time>2026-03-28T10:12:36.666Z</time></trkpt><trkpt lat="44.737975" lon="9.8321967"><ele>571.0</ele><time>2026-03-28T10:12:37.664Z</time></trkpt><trkpt lat="44.7379783" lon="9.8322983"><ele>569.2</ele><time>2026-03-28T10:12:38.665Z</time></trkpt><trkpt lat="44.737975" lon="9.8323917"><ele>567.4000000000001</ele><time>2026-03-28T10:12:39.666Z</time></trkpt><trkpt lat="44.7379617" lon="9.832535"><ele>565.6</ele><time>2026-03-28T10:12:41.665Z</time></trkpt><trkpt lat="44.73795" lon="9.8326633"><ele>563.8000000000001</ele><time>2026-03-28T10:12:43.665Z</time></trkpt><trkpt lat="44.7379717" lon="9.83278"><ele>562.0</ele><time>2026-03-28T10:12:45.665Z</time></trkpt><trkpt lat="44.7379917" lon="9.83294"><ele>560.1666666666667</ele><time>2026-03-28T10:12:47.666Z</time></trkpt><trkpt lat="44.7379883" lon="9.833045"><ele>558.3333333333334</ele><time>2026-03-28T10:12:48.666Z</time></trkpt><trkpt lat="44.7379867" lon="9.8331483"><ele>556.5</ele><time>2026-03-28T10:12:49.665Z</time></trkpt><trkpt lat="44.7379833" lon="9.83326"><ele>554.6666666666666</ele><time>2026-03-28T10:12:50.668Z</time></trkpt><trkpt lat="44.7379917" lon="9.8333717"><ele>552.8333333333333</ele><time>2026-03-28T10:12:51.664Z</time></trkpt><trkpt lat="44.7379933" lon="9.833475"><ele>551.0</ele><time>2026-03-28T10:12:52.666Z</time></trkpt><trkpt lat="44.7379983" lon="9.833635"><ele>550.3333333333333</ele><time>2026-03-28T10:12:54.664Z</time></trkpt><trkpt lat="44.7380067" lon="9.8337667"><ele>549.6666666666666</ele><time>2026-03-28T10:12:56.666Z</time></trkpt><trkpt lat="44.7380183" lon="9.8338667"><ele>549.0</ele><time>2026-03-28T10:12:58.665Z</time></trkpt><trkpt lat="44.7380267" lon="9.8339683"><ele>548.3333333333334</ele><time>2026-03-28T10:13:01.664Z</time></trkpt><trkpt lat="44.7380417" lon="9.83407"><ele>547.6666666666667</ele><time>2026-03-28T10:13:04.666Z</time></trkpt><trkpt lat="44.7380633" lon="9.8341583"><ele>547.0</ele><time>2026-03-28T10:13:06.665Z</time></trkpt><trkpt lat="44.738085" lon="9.83428"><ele>545.8333333333334</ele><time>2026-03-28T10:13:08.666Z</time></trkpt><trkpt lat="44.7380867" lon="9.8343817"><ele>544.6666666666667</ele><time>2026-03-28T10:13:10.666Z</time></trkpt><trkpt lat="44.73809" lon="9.8344717"><ele>543.5</ele><time>2026-03-28T10:13:13.666Z</time></trkpt><trkpt lat="44.73811" lon="9.8346"><ele>542.3333333333334</ele><time>2026-03-28T10:13:18.666Z</time></trkpt><trkpt lat="44.7381217" lon="9.834705"><ele>541.1666666666666</ele><time>2026-03-28T10:13:20.665Z</time></trkpt><trkpt lat="44.7381717" lon="9.8348117"><ele>540.0</ele><time>2026-03-28T10:13:23.667Z</time></trkpt><trkpt lat="44.7382517" lon="9.8348633"><ele>540.0</ele><time>2026-03-28T10:13:25.664Z</time></trkpt><trkpt lat="44.7383667" lon="9.834905"><ele>540.0</ele><time>2026-03-28T10:13:27.759Z</time></trkpt><trkpt lat="44.7384367" lon="9.8349217"><ele>540.0</ele><time>2026-03-28T10:13:28.665Z</time></trkpt><trkpt lat="44.7385017" lon="9.83493"><ele>540.0</ele><time>2026-03-28T10:13:29.666Z</time></trkpt><trkpt lat="44.7386117" lon="9.8349667"><ele>540.0</ele><time>2026-03-28T10:13:31.666Z</time></trkpt><trkpt lat="44.738655" lon="9.835095"><ele>538.0</ele><time>2026-03-28T10:13:33.666Z</time></trkpt><trkpt lat="44.7386383" lon="9.8352533"><ele>536.0</ele><time>2026-03-28T10:13:35.665Z</time></trkpt><trkpt lat="44.7386417" lon="9.835425"><ele>534.0</ele><time>2026-03-28T10:13:37.666Z</time></trkpt><trkpt lat="44.7386517" lon="9.8355183"><ele>532.0</ele><time>2026-03-28T10:13:38.665Z</time></trkpt><trkpt lat="44.7386667" lon="9.8356117"><ele>530.0</ele><time>2026-03-28T10:13:39.664Z</time></trkpt><trkpt lat="44.7386717" lon="9.8357667"><ele>530.0</ele><time>2026-03-28T10:13:41.666Z</time></trkpt><trkpt lat="44.7386483" lon="9.8359417"><ele>530.0</ele><time>2026-03-28T10:13:43.665Z</time></trkpt><trkpt lat="44.73863" lon="9.83604"><ele>530.0</ele><time>2026-03-28T10:13:44.665Z</time></trkpt><trkpt lat="44.738615" lon="9.8361367"><ele>530.0</ele><time>2026-03-28T10:13:45.665Z</time></trkpt><trkpt lat="44.738615" lon="9.8362417"><ele>530.0</ele><time>2026-03-28T10:13:46.665Z</time></trkpt><trkpt lat="44.7386217" lon="9.83635"><ele>530.0</ele><time>2026-03-28T10:13:47.664Z</time></trkpt><trkpt lat="44.7386483" lon="9.8364483"><ele>528.9999999999999</ele><time>2026-03-28T10:13:48.664Z</time></trkpt><trkpt lat="44.738695" lon="9.836535"><ele>528.0</ele><time>2026-03-28T10:13:49.666Z</time></trkpt><trkpt lat="44.7387567" lon="9.8366033"><ele>527.0</ele><time>2026-03-28T10:13:50.665Z</time></trkpt><trkpt lat="44.738815" lon="9.8366633"><ele>526.0</ele><time>2026-03-28T10:13:51.666Z</time></trkpt><trkpt lat="44.7388767" lon="9.8367183"><ele>525.0</ele><time>2026-03-28T10:13:52.665Z</time></trkpt><trkpt lat="44.7389383" lon="9.8367767"><ele>523.9999999999999</ele><time>2026-03-28T10:13:53.665Z</time></trkpt><trkpt lat="44.738995" lon="9.8368317"><ele>523.0</ele><time>2026-03-28T10:13:54.665Z</time></trkpt><trkpt lat="44.73906" lon="9.8368933"><ele>522.0</ele><time>2026-03-28T10:13:55.666Z</time></trkpt><trkpt lat="44.739115" lon="9.83696"><ele>521.0</ele><time>2026-03-28T10:13:56.666Z</time></trkpt><trkpt lat="44.7391633" lon="9.83704"><ele>520.0</ele><time>2026-03-28T10:13:57.665Z</time></trkpt><trkpt lat="44.7392133" lon="9.8371317"><ele>519.0</ele><time>2026-03-28T10:13:58.665Z</time></trkpt><trkpt lat="44.7392617" lon="9.8372317"><ele>518.0</ele><time>2026-03-28T10:13:59.664Z</time></trkpt><trkpt lat="44.739295" lon="9.8373367"><ele>517.0</ele><time>2026-03-28T10:14:00.666Z</time></trkpt><trkpt lat="44.7393217" lon="9.8374467"><ele>517.0</ele><time>2026-03-28T10:14:01.664Z</time></trkpt><trkpt lat="44.7393533" lon="9.83756"><ele>517.0</ele><time>2026-03-28T10:14:02.665Z</time></trkpt><trkpt lat="44.73938" lon="9.8376717"><ele>517.0</ele><time>2026-03-28T10:14:03.665Z</time></trkpt><trkpt lat="44.7394033" lon="9.8377733"><ele>517.0</ele><time>2026-03-28T10:14:04.665Z</time></trkpt><trkpt lat="44.73943" lon="9.837875"><ele>517.0</ele><time>2026-03-28T10:14:05.666Z</time></trkpt><trkpt lat="44.739465" lon="9.837965"><ele>517.0</ele><time>2026-03-28T10:14:06.666Z</time></trkpt><trkpt lat="44.7395033" lon="9.8380533"><ele>513.5</ele><time>2026-03-28T10:14:07.666Z</time></trkpt><trkpt lat="44.739545" lon="9.83814"><ele>510.0</ele><time>2026-03-28T10:14:08.666Z</time></trkpt><trkpt lat="44.739595" lon="9.838225"><ele>506.5</ele><time>2026-03-28T10:14:09.664Z</time></trkpt><trkpt lat="44.7396467" lon="9.8383217"><ele>503.0</ele><time>2026-03-28T10:14:10.665Z</time></trkpt><trkpt lat="44.7396933" lon="9.8384233"><ele>499.50000000000006</ele><time>2026-03-28T10:14:11.665Z</time></trkpt><trkpt lat="44.73974" lon="9.8385133"><ele>496.0</ele><time>2026-03-28T10:14:12.666Z</time></trkpt><trkpt lat="44.739785" lon="9.8385933"><ele>494.20000000000005</ele><time>2026-03-28T10:14:13.665Z</time></trkpt><trkpt lat="44.739865" lon="9.8387067"><ele>492.40000000000003</ele><time>2026-03-28T10:14:15.665Z</time></trkpt><trkpt lat="44.7399267" lon="9.8388517"><ele>490.6</ele><time>2026-03-28T10:14:17.664Z</time></trkpt><trkpt lat="44.73997" lon="9.8389483"><ele>488.8</ele><time>2026-03-28T10:14:18.664Z</time></trkpt><trkpt lat="44.7400183" lon="9.83906"><ele>487.0</ele><time>2026-03-28T10:14:19.666Z</time></trkpt><trkpt lat="44.7400667" lon="9.839175"><ele>487.00000000000006</ele><time>2026-03-28T10:14:20.666Z</time></trkpt><trkpt lat="44.740115" lon="9.8392833"><ele>487.0</ele><time>2026-03-28T10:14:21.666Z</time></trkpt><trkpt lat="44.7401583" lon="9.839375"><ele>487.0</ele><time>2026-03-28T10:14:22.664Z</time></trkpt><trkpt lat="44.7402033" lon="9.839445"><ele>487.0</ele><time>2026-03-28T10:14:23.665Z</time></trkpt><trkpt lat="44.7402983" lon="9.839535"><ele>487.00000000000006</ele><time>2026-03-28T10:14:25.665Z</time></trkpt><trkpt lat="44.740345" lon="9.8396"><ele>487.0</ele><time>2026-03-28T10:14:27.665Z</time></trkpt><trkpt lat="44.740345" lon="9.83974"><ele>483.8</ele><time>2026-03-28T10:14:30.665Z</time></trkpt><trkpt lat="44.74035" lon="9.8398867"><ele>480.6</ele><time>2026-03-28T10:14:32.664Z</time></trkpt><trkpt lat="44.7403633" lon="9.839985"><ele>477.40000000000003</ele><time>2026-03-28T10:14:33.665Z</time></trkpt><trkpt lat="44.7403767" lon="9.8400783"><ele>474.20000000000005</ele><time>2026-03-28T10:14:34.665Z</time></trkpt><trkpt lat="44.7403883" lon="9.8402383"><ele>471.0</ele><time>2026-03-28T10:14:36.665Z</time></trkpt><trkpt lat="44.7404267" lon="9.8403933"><ele>469.4285714285715</ele><time>2026-03-28T10:14:38.666Z</time></trkpt><trkpt lat="44.7404667" lon="9.8404717"><ele>467.8571428571429</ele><time>2026-03-28T10:14:39.665Z</time></trkpt><trkpt lat="44.74051" lon="9.8405517"><ele>466.2857142857143</ele><time>2026-03-28T10:14:40.666Z</time></trkpt><trkpt lat="44.7405517" lon="9.8406217"><ele>464.7142857142857</ele><time>2026-03-28T10:14:41.665Z</time></trkpt><trkpt lat="44.740595" lon="9.8406883"><ele>463.1428571428571</ele><time>2026-03-28T10:14:42.665Z</time></trkpt><trkpt lat="44.7406333" lon="9.84077"><ele>461.5714285714285</ele><time>2026-03-28T10:14:43.665Z</time></trkpt><trkpt lat="44.74066" lon="9.8408517"><ele>459.99999999999994</ele><time>2026-03-28T10:14:44.666Z</time></trkpt><trkpt lat="44.74072" lon="9.8409767"><ele>460.0</ele><time>2026-03-28T10:14:46.666Z</time></trkpt><trkpt lat="44.74081" lon="9.8409433"><ele>460.0</ele><time>2026-03-28T10:14:49.665Z</time></trkpt><trkpt lat="44.7409" lon="9.8408317"><ele>460.0</ele><time>2026-03-28T10:14:51.665Z</time></trkpt><trkpt lat="44.7410133" lon="9.8407633"><ele>460.0</ele><time>2026-03-28T10:14:53.664Z</time></trkpt><trkpt lat="44.7410783" lon="9.8407267"><ele>460.0</ele><time>2026-03-28T10:14:54.664Z</time></trkpt><trkpt lat="44.741185" lon="9.8406683"><ele>456.0</ele><time>2026-03-28T10:14:56.666Z</time></trkpt><trkpt lat="44.74127" lon="9.8406383"><ele>452.0</ele><time>2026-03-28T10:14:58.664Z</time></trkpt><trkpt lat="44.7413583" lon="9.8406467"><ele>448.0</ele><time>2026-03-28T10:15:00.665Z</time></trkpt><trkpt lat="44.74146" lon="9.84067"><ele>444.0</ele><time>2026-03-28T10:15:02.665Z</time></trkpt><trkpt lat="44.7415517" lon="9.8407333"><ele>440.0</ele><time>2026-03-28T10:15:04.665Z</time></trkpt><trkpt lat="44.7415667" lon="9.8408733"><ele>438.6</ele><time>2026-03-28T10:15:06.666Z</time></trkpt><trkpt lat="44.7415633" lon="9.8410033"><ele>437.2</ele><time>2026-03-28T10:15:08.665Z</time></trkpt><trkpt lat="44.7416" lon="9.8411433"><ele>435.79999999999995</ele><time>2026-03-28T10:15:10.665Z</time></trkpt><trkpt lat="44.7416373" lon="9.8412856"><ele>434.4</ele><time>2026-03-28T10:15:12.665Z</time></trkpt><trkpt lat="44.7416501" lon="9.8414408"><ele>433.0</ele><time>2026-03-28T10:15:14.666Z</time></trkpt><trkpt lat="44.7416619" lon="9.8415884"><ele>433.00000000000006</ele><time>2026-03-28T10:15:16.665Z</time></trkpt><trkpt lat="44.7416936" lon="9.8417091"><ele>433.0</ele><time>2026-03-28T10:15:18.664Z</time></trkpt><trkpt lat="44.7417743" lon="9.8417842"><ele>433.0</ele><time>2026-03-28T10:15:29.667Z</time></trkpt><trkpt lat="44.7418204" lon="9.8418738"><ele>433.0</ele><time>2026-03-28T10:15:32.667Z</time></trkpt><trkpt lat="44.7418668" lon="9.8419714"><ele>433.00000000000006</ele><time>2026-03-28T10:15:34.667Z</time></trkpt><trkpt lat="44.7418974" lon="9.8420658"><ele>433.0</ele><time>2026-03-28T10:15:37.667Z</time></trkpt><trkpt lat="44.7419701" lon="9.8421219"><ele>432.33333333333337</ele><time>2026-03-28T10:16:26.666Z</time></trkpt><trkpt lat="44.7420378" lon="9.8421801"><ele>431.6666666666667</ele><time>2026-03-28T10:16:27.666Z</time></trkpt><trkpt lat="44.7421047" lon="9.8422273"><ele>431.0</ele><time>2026-03-28T10:16:28.671Z</time></trkpt><trkpt lat="44.7421808" lon="9.8422647"><ele>430.33333333333337</ele><time>2026-03-28T10:16:29.666Z</time></trkpt><trkpt lat="44.7422657" lon="9.8423083"><ele>429.6666666666667</ele><time>2026-03-28T10:16:30.665Z</time></trkpt><trkpt lat="44.7423481" lon="9.8423518"><ele>429.0</ele><time>2026-03-28T10:16:31.666Z</time></trkpt><trkpt lat="44.7424249" lon="9.8424119"><ele>429.0</ele><time>2026-03-28T10:16:32.666Z</time></trkpt><trkpt lat="44.7425018" lon="9.8424791"><ele>429.0</ele><time>2026-03-28T10:16:33.665Z</time></trkpt><trkpt lat="44.7425783" lon="9.8425348"><ele>429.0</ele><time>2026-03-28T10:16:34.665Z</time></trkpt><trkpt lat="44.7426496" lon="9.8425691"><ele>429.0</ele><time>2026-03-28T10:16:35.665Z</time></trkpt><trkpt lat="44.7427135" lon="9.8425602"><ele>429.0</ele><time>2026-03-28T10:16:36.666Z</time></trkpt><trkpt lat="44.74282" lon="9.84248"><ele>429.0</ele><time>2026-03-28T10:16:38.666Z</time></trkpt><trkpt lat="44.742875" lon="9.842435"><ele>429.0</ele><time>2026-03-28T10:16:39.666Z</time></trkpt><trkpt lat="44.74293" lon="9.84239"><ele>429.0</ele><time>2026-03-28T10:16:40.666Z</time></trkpt><trkpt lat="44.743015" lon="9.84226"><ele>429.0</ele><time>2026-03-28T10:16:42.664Z</time></trkpt><trkpt lat="44.74305" lon="9.8421633"><ele>429.0</ele><time>2026-03-28T10:16:43.666Z</time></trkpt><trkpt lat="44.743095" lon="9.8420367"><ele>429.0</ele><time>2026-03-28T10:16:44.666Z</time></trkpt><trkpt lat="44.7431467" lon="9.8419117"><ele>429.0</ele><time>2026-03-28T10:16:45.666Z</time></trkpt><trkpt lat="44.7432017" lon="9.841815"><ele>429.0</ele><time>2026-03-28T10:16:46.665Z</time></trkpt><trkpt lat="44.7432483" lon="9.8417433"><ele>429.0</ele><time>2026-03-28T10:16:47.666Z</time></trkpt><trkpt lat="44.7433233" lon="9.84168"><ele>429.0</ele><time>2026-03-28T10:16:49.665Z</time></trkpt><trkpt lat="44.7434267" lon="9.841665"><ele>429.0</ele><time>2026-03-28T10:16:51.666Z</time></trkpt><trkpt lat="44.7435283" lon="9.8416633"><ele>429.2</ele><time>2026-03-28T10:16:53.666Z</time></trkpt><trkpt lat="44.7436383" lon="9.8416817"><ele>429.4</ele><time>2026-03-28T10:16:55.666Z</time></trkpt><trkpt lat="44.7437317" lon="9.8417167"><ele>429.6</ele><time>2026-03-28T10:16:57.668Z</time></trkpt><trkpt lat="44.74384" lon="9.8417983"><ele>429.8</ele><time>2026-03-28T10:16:59.667Z</time></trkpt><trkpt lat="44.7438983" lon="9.84185"><ele>430.0</ele><time>2026-03-28T10:17:00.671Z</time></trkpt><trkpt lat="44.7439583" lon="9.8418933"><ele>430.00000000000006</ele><time>2026-03-28T10:17:01.665Z</time></trkpt><trkpt lat="44.7440233" lon="9.84192"><ele>430.0</ele><time>2026-03-28T10:17:02.664Z</time></trkpt><trkpt lat="44.7441033" lon="9.841935"><ele>430.0</ele><time>2026-03-28T10:17:03.665Z</time></trkpt><trkpt lat="44.7441917" lon="9.8419433"><ele>430.0</ele><time>2026-03-28T10:17:04.665Z</time></trkpt><trkpt lat="44.7442867" lon="9.8419433"><ele>430.00000000000006</ele><time>2026-03-28T10:17:05.664Z</time></trkpt><trkpt lat="44.7443683" lon="9.8419483"><ele>430.0</ele><time>2026-03-28T10:17:06.665Z</time></trkpt><trkpt lat="44.74445" lon="9.8419567"><ele>434.4</ele><time>2026-03-28T10:17:07.665Z</time></trkpt><trkpt lat="44.7445317" lon="9.8419767"><ele>438.8</ele><time>2026-03-28T10:17:08.666Z</time></trkpt><trkpt lat="44.7446067" lon="9.8420033"><ele>443.20000000000005</ele><time>2026-03-28T10:17:09.666Z</time></trkpt><trkpt lat="44.7446767" lon="9.8420233"><ele>447.6</ele><time>2026-03-28T10:17:10.665Z</time></trkpt><trkpt lat="44.74479" lon="9.8420683"><ele>452.0</ele><time>2026-03-28T10:17:12.666Z</time></trkpt><trkpt lat="44.7448683" lon="9.84219"><ele>452.0</ele><time>2026-03-28T10:17:14.665Z</time></trkpt><trkpt lat="44.7449533" lon="9.84232"><ele>452.00000000000006</ele><time>2026-03-28T10:17:16.666Z</time></trkpt><trkpt lat="44.7450483" lon="9.8423817"><ele>452.00000000000006</ele><time>2026-03-28T10:17:18.666Z</time></trkpt><trkpt lat="44.74513" lon="9.8424033"><ele>452.0</ele><time>2026-03-28T10:17:20.665Z</time></trkpt><trkpt lat="44.7452283" lon="9.84245"><ele>452.0</ele><time>2026-03-28T10:17:22.667Z</time></trkpt><trkpt lat="44.7452733" lon="9.8425133"><ele>452.66666666666663</ele><time>2026-03-28T10:17:23.668Z</time></trkpt><trkpt lat="44.7453083" lon="9.8425883"><ele>453.3333333333333</ele><time>2026-03-28T10:17:24.666Z</time></trkpt><trkpt lat="44.7453417" lon="9.8426767"><ele>454.0</ele><time>2026-03-28T10:17:25.665Z</time></trkpt><trkpt lat="44.7453967" lon="9.842785"><ele>454.66666666666663</ele><time>2026-03-28T10:17:27.665Z</time></trkpt><trkpt lat="44.7455033" lon="9.842715"><ele>455.3333333333333</ele><time>2026-03-28T10:17:30.666Z</time></trkpt><trkpt lat="44.745565" lon="9.842645"><ele>456.0</ele><time>2026-03-28T10:17:31.665Z</time></trkpt><trkpt lat="44.7456283" lon="9.8425617"><ele>458.4</ele><time>2026-03-28T10:17:32.666Z</time></trkpt><trkpt lat="44.7456983" lon="9.8424783"><ele>460.8</ele><time>2026-03-28T10:17:33.665Z</time></trkpt><trkpt lat="44.7457783" lon="9.8423917"><ele>463.19999999999993</ele><time>2026-03-28T10:17:34.667Z</time></trkpt><trkpt lat="44.7458517" lon="9.8423083"><ele>465.59999999999997</ele><time>2026-03-28T10:17:35.667Z</time></trkpt><trkpt lat="44.7459217" lon="9.84224"><ele>468.0</ele><time>2026-03-28T10:17:36.665Z</time></trkpt><trkpt lat="44.7459967" lon="9.8421833"><ele>471.14285714285717</ele><time>2026-03-28T10:17:37.665Z</time></trkpt><trkpt lat="44.7460733" lon="9.8421517"><ele>474.28571428571433</ele><time>2026-03-28T10:17:38.666Z</time></trkpt><trkpt lat="44.7461483" lon="9.8421283"><ele>477.42857142857144</ele><time>2026-03-28T10:17:39.666Z</time></trkpt><trkpt lat="44.7462217" lon="9.8421067"><ele>480.57142857142856</ele><time>2026-03-28T10:17:40.665Z</time></trkpt><trkpt lat="44.7462883" lon="9.842095"><ele>483.7142857142857</ele><time>2026-03-28T10:17:41.665Z</time></trkpt><trkpt lat="44.7463683" lon="9.8421167"><ele>486.8571428571429</ele><time>2026-03-28T10:17:43.667Z</time></trkpt><trkpt lat="44.7464067" lon="9.8421917"><ele>490.0</ele><time>2026-03-28T10:17:45.666Z</time></trkpt><trkpt lat="44.7463533" lon="9.8422683"><ele>490.0</ele><time>2026-03-28T10:17:47.665Z</time></trkpt><trkpt lat="44.7462833" lon="9.84233"><ele>490.0</ele><time>2026-03-28T10:17:49.666Z</time></trkpt><trkpt lat="44.7461983" lon="9.8424417"><ele>490.0</ele><time>2026-03-28T10:17:51.665Z</time></trkpt><trkpt lat="44.7461433" lon="9.8425517"><ele>490.0</ele><time>2026-03-28T10:17:53.665Z</time></trkpt><trkpt lat="44.746055" lon="9.8427183"><ele>490.0</ele><time>2026-03-28T10:17:55.665Z</time></trkpt><trkpt lat="44.745975" lon="9.8428517"><ele>483.2</ele><time>2026-03-28T10:17:57.666Z</time></trkpt><trkpt lat="44.7459333" lon="9.84292"><ele>476.4</ele><time>2026-03-28T10:17:58.666Z</time></trkpt><trkpt lat="44.7458867" lon="9.8429967"><ele>469.6</ele><time>2026-03-28T10:17:59.666Z</time></trkpt><trkpt lat="44.7458267" lon="9.84313"><ele>462.8</ele><time>2026-03-28T10:18:01.666Z</time></trkpt><trkpt lat="44.745775" lon="9.8432733"><ele>456.0</ele><time>2026-03-28T10:18:03.665Z</time></trkpt><trkpt lat="44.7457183" lon="9.8433967"><ele>453.20000000000005</ele><time>2026-03-28T10:18:05.666Z</time></trkpt><trkpt lat="44.7456583" lon="9.8435233"><ele>450.40000000000003</ele><time>2026-03-28T10:18:07.665Z</time></trkpt><trkpt lat="44.745625" lon="9.8436767"><ele>447.6</ele><time>2026-03-28T10:18:09.665Z</time></trkpt><trkpt lat="44.7456167" lon="9.843805"><ele>444.8</ele><time>2026-03-28T10:18:11.664Z</time></trkpt><trkpt lat="44.7456067" lon="9.8439217"><ele>442.0</ele><time>2026-03-28T10:18:13.666Z</time></trkpt><trkpt lat="44.745615" lon="9.84405"><ele>442.0</ele><time>2026-03-28T10:18:15.665Z</time></trkpt><trkpt lat="44.7456583" lon="9.8441933"><ele>442.00000000000006</ele><time>2026-03-28T10:18:17.666Z</time></trkpt><trkpt lat="44.745735" lon="9.84429"><ele>442.00000000000006</ele><time>2026-03-28T10:18:19.666Z</time></trkpt><trkpt lat="44.74584" lon="9.84434"><ele>442.0</ele><time>2026-03-28T10:18:21.666Z</time></trkpt><trkpt lat="44.7459567" lon="9.844365"><ele>442.0</ele><time>2026-03-28T10:18:23.666Z</time></trkpt><trkpt lat="44.7460717" lon="9.8444117"><ele>442.00000000000006</ele><time>2026-03-28T10:18:25.666Z</time></trkpt><trkpt lat="44.7461317" lon="9.84444"><ele>442.0</ele><time>2026-03-28T10:18:26.666Z</time></trkpt><trkpt lat="44.7462433" lon="9.8444867"><ele>442.0</ele><time>2026-03-28T10:18:28.666Z</time></trkpt><trkpt lat="44.7463067" lon="9.8445217"><ele>442.0</ele><time>2026-03-28T10:18:29.665Z</time></trkpt><trkpt lat="44.7463783" lon="9.8445583"><ele>442.00000000000006</ele><time>2026-03-28T10:18:30.665Z</time></trkpt><trkpt lat="44.7464667" lon="9.8446017"><ele>442.0</ele><time>2026-03-28T10:18:31.665Z</time></trkpt><trkpt lat="44.7465467" lon="9.8446417"><ele>442.00000000000006</ele><time>2026-03-28T10:18:32.665Z</time></trkpt><trkpt lat="44.7466267" lon="9.8446817"><ele>442.0</ele><time>2026-03-28T10:18:33.666Z</time></trkpt><trkpt lat="44.7466967" lon="9.84471"><ele>442.0</ele><time>2026-03-28T10:18:34.666Z</time></trkpt><trkpt lat="44.7467667" lon="9.844735"><ele>442.0</ele><time>2026-03-28T10:18:35.665Z</time></trkpt><trkpt lat="44.7468317" lon="9.8448083"><ele>442.00000000000006</ele><time>2026-03-28T10:18:36.667Z</time></trkpt><trkpt lat="44.746895" lon="9.8448517"><ele>442.0</ele><time>2026-03-28T10:18:37.667Z</time></trkpt><trkpt lat="44.7469583" lon="9.8449867"><ele>440.00000000000006</ele><time>2026-03-28T10:18:39.665Z</time></trkpt><trkpt lat="44.7469533" lon="9.84513"><ele>438.0</ele><time>2026-03-28T10:18:41.664Z</time></trkpt><trkpt lat="44.7469167" lon="9.8452683"><ele>436.0</ele><time>2026-03-28T10:18:43.665Z</time></trkpt><trkpt lat="44.7468783" lon="9.8453517"><ele>434.0</ele><time>2026-03-28T10:18:44.666Z</time></trkpt><trkpt lat="44.7468333" lon="9.84545"><ele>432.00000000000006</ele><time>2026-03-28T10:18:45.665Z</time></trkpt><trkpt lat="44.746795" lon="9.84554"><ele>430.0</ele><time>2026-03-28T10:18:46.666Z</time></trkpt><trkpt lat="44.7467667" lon="9.8456233"><ele>430.00000000000006</ele><time>2026-03-28T10:18:47.666Z</time></trkpt><trkpt lat="44.7467383" lon="9.8457267"><ele>430.0</ele><time>2026-03-28T10:18:49.665Z</time></trkpt><trkpt lat="44.746675" lon="9.845835"><ele>430.0</ele><time>2026-03-28T10:18:52.665Z</time></trkpt><trkpt lat="44.7466517" lon="9.8459183"><ele>430.0</ele><time>2026-03-28T10:18:54.666Z</time></trkpt><trkpt lat="44.74664" lon="9.8460317"><ele>430.00000000000006</ele><time>2026-03-28T10:18:57.666Z</time></trkpt><trkpt lat="44.74662" lon="9.8461517"><ele>430.0</ele><time>2026-03-28T10:19:00.665Z</time></trkpt><trkpt lat="44.7466217" lon="9.8462483"><ele>427.33333333333337</ele><time>2026-03-28T10:19:02.665Z</time></trkpt><trkpt lat="44.7465817" lon="9.8463367"><ele>424.6666666666667</ele><time>2026-03-28T10:19:04.664Z</time></trkpt><trkpt lat="44.7465167" lon="9.846395"><ele>422.0</ele><time>2026-03-28T10:19:06.665Z</time></trkpt><trkpt lat="44.746485" lon="9.8464967"><ele>419.33333333333337</ele><time>2026-03-28T10:19:09.665Z</time></trkpt><trkpt lat="44.7464967" lon="9.8465917"><ele>416.6666666666667</ele><time>2026-03-28T10:19:11.666Z</time></trkpt><trkpt lat="44.746505" lon="9.846695"><ele>414.0</ele><time>2026-03-28T10:19:19.665Z</time></trkpt><trkpt lat="44.7465267" lon="9.8468133"><ele>412.3333333333333</ele><time>2026-03-28T10:19:22.666Z</time></trkpt><trkpt lat="44.74657" lon="9.8469017"><ele>410.66666666666663</ele><time>2026-03-28T10:19:25.665Z</time></trkpt><trkpt lat="44.746635" lon="9.8470017"><ele>409.0</ele><time>2026-03-28T10:19:28.665Z</time></trkpt><trkpt lat="44.7467" lon="9.84708"><ele>407.3333333333333</ele><time>2026-03-28T10:19:30.665Z</time></trkpt><trkpt lat="44.7467717" lon="9.847165"><ele>405.66666666666663</ele><time>2026-03-28T10:19:32.666Z</time></trkpt><trkpt lat="44.7468167" lon="9.8472383"><ele>404.0</ele><time>2026-03-28T10:19:34.666Z</time></trkpt><trkpt lat="44.746855" lon="9.847335"><ele>403.4</ele><time>2026-03-28T10:19:36.666Z</time></trkpt><trkpt lat="44.74689" lon="9.8474617"><ele>402.79999999999995</ele><time>2026-03-28T10:19:38.667Z</time></trkpt><trkpt lat="44.7469167" lon="9.8475717"><ele>402.20000000000005</ele><time>2026-03-28T10:19:40.665Z</time></trkpt><trkpt lat="44.746965" lon="9.8477033"><ele>401.6</ele><time>2026-03-28T10:19:42.666Z</time></trkpt><trkpt lat="44.74704" lon="9.8478267"><ele>401.0</ele><time>2026-03-28T10:19:44.667Z</time></trkpt><trkpt lat="44.7470933" lon="9.84788"><ele>400.99999999999994</ele><time>2026-03-28T10:19:45.666Z</time></trkpt><trkpt lat="44.7471883" lon="9.8479667"><ele>401.0</ele><time>2026-03-28T10:19:47.667Z</time></trkpt><trkpt lat="44.7472683" lon="9.8480517"><ele>401.0</ele><time>2026-03-28T10:19:49.666Z</time></trkpt><trkpt lat="44.7473333" lon="9.8481433"><ele>401.0</ele><time>2026-03-28T10:19:51.666Z</time></trkpt><trkpt lat="44.7473883" lon="9.8481917"><ele>400.99999999999994</ele><time>2026-03-28T10:19:53.667Z</time></trkpt><trkpt lat="44.7474567" lon="9.8481933"><ele>401.0</ele><time>2026-03-28T10:19:55.665Z</time></trkpt><trkpt lat="44.74752" lon="9.848215"><ele>400.99999999999994</ele><time>2026-03-28T10:19:57.666Z</time></trkpt><trkpt lat="44.7475917" lon="9.848245"><ele>401.0</ele><time>2026-03-28T10:19:59.667Z</time></trkpt><trkpt lat="44.7476483" lon="9.848355"><ele>401.0</ele><time>2026-03-28T10:20:44.665Z</time></trkpt><trkpt lat="44.7476767" lon="9.848445"><ele>401.0</ele><time>2026-03-28T10:20:48.666Z</time></trkpt><trkpt lat="44.7477333" lon="9.848515"><ele>400.99999999999994</ele><time>2026-03-28T10:20:50.668Z</time></trkpt><trkpt lat="44.747805" lon="9.8486"><ele>401.0</ele><time>2026-03-28T10:20:52.667Z</time></trkpt><trkpt lat="44.7479117" lon="9.8486933"><ele>401.8</ele><time>2026-03-28T10:20:54.667Z</time></trkpt><trkpt lat="44.7480183" lon="9.84877"><ele>402.6</ele><time>2026-03-28T10:20:56.667Z</time></trkpt><trkpt lat="44.74811" lon="9.8488367"><ele>403.4</ele><time>2026-03-28T10:20:58.664Z</time></trkpt><trkpt lat="44.748185" lon="9.84888"><ele>404.2</ele><time>2026-03-28T10:21:00.666Z</time></trkpt><trkpt lat="44.7482617" lon="9.8489"><ele>405.0</ele><time>2026-03-28T10:21:02.667Z</time></trkpt><trkpt lat="44.74834" lon="9.848925"><ele>405.0</ele><time>2026-03-28T10:21:04.666Z</time></trkpt><trkpt lat="44.748415" lon="9.8489383"><ele>405.0</ele><time>2026-03-28T10:21:06.665Z</time></trkpt><trkpt lat="44.7485017" lon="9.8489233"><ele>405.0</ele><time>2026-03-28T10:21:09.666Z</time></trkpt><trkpt lat="44.7485717" lon="9.848885"><ele>405.0</ele><time>2026-03-28T10:21:12.665Z</time></trkpt><trkpt lat="44.748635" lon="9.8488667"><ele>405.0</ele><time>2026-03-28T10:21:14.668Z</time></trkpt><trkpt lat="44.7487067" lon="9.8488917"><ele>405.0</ele><time>2026-03-28T10:21:16.666Z</time></trkpt><trkpt lat="44.7487983" lon="9.8489433"><ele>404.25</ele><time>2026-03-28T10:21:18.666Z</time></trkpt><trkpt lat="44.748865" lon="9.8489917"><ele>403.5</ele><time>2026-03-28T10:21:20.667Z</time></trkpt><trkpt lat="44.749015" lon="9.84913"><ele>402.75</ele><time>2026-03-28T10:22:35.665Z</time></trkpt><trkpt lat="44.7490917" lon="9.8492283"><ele>402.0</ele><time>2026-03-28T10:22:37.665Z</time></trkpt><trkpt lat="44.7491733" lon="9.8493333"><ele>402.0</ele><time>2026-03-28T10:22:39.666Z</time></trkpt><trkpt lat="44.7492233" lon="9.8494517"><ele>402.0</ele><time>2026-03-28T10:22:41.666Z</time></trkpt><trkpt lat="44.74927" lon="9.8495267"><ele>402.0</ele><time>2026-03-28T10:22:44.666Z</time></trkpt><trkpt lat="44.7493167" lon="9.8496133"><ele>402.0</ele><time>2026-03-28T10:22:48.665Z</time></trkpt><trkpt lat="44.7493667" lon="9.8497283"><ele>402.0</ele><time>2026-03-28T10:22:51.666Z</time></trkpt><trkpt lat="44.7494383" lon="9.84984"><ele>402.0</ele><time>2026-03-28T10:22:53.666Z</time></trkpt><trkpt lat="44.7494833" lon="9.84997"><ele>402.0</ele><time>2026-03-28T10:22:55.667Z</time></trkpt><trkpt lat="44.7495533" lon="9.8500483"><ele>402.0</ele><time>2026-03-28T10:22:58.666Z</time></trkpt><trkpt lat="44.7496367" lon="9.8500483"><ele>402.0</ele><time>2026-03-28T10:23:01.667Z</time></trkpt><trkpt lat="44.74971" lon="9.8500833"><ele>402.0</ele><time>2026-03-28T10:23:04.667Z</time></trkpt><trkpt lat="44.7497717" lon="9.8501267"><ele>402.0</ele><time>2026-03-28T10:23:07.666Z</time></trkpt><trkpt lat="44.74986" lon="9.8501583"><ele>402.0</ele><time>2026-03-28T10:23:16.665Z</time></trkpt><trkpt lat="44.7499583" lon="9.8502017"><ele>402.0</ele><time>2026-03-28T10:23:18.667Z</time></trkpt><trkpt lat="44.75006" lon="9.850245"><ele>402.0</ele><time>2026-03-28T10:23:20.666Z</time></trkpt><trkpt lat="44.7501467" lon="9.8502667"><ele>402.0</ele><time>2026-03-28T10:23:22.667Z</time></trkpt><trkpt lat="44.75022" lon="9.8502883"><ele>402.0</ele><time>2026-03-28T10:23:25.666Z</time></trkpt><trkpt lat="44.7502933" lon="9.850255"><ele>402.0</ele><time>2026-03-28T10:23:29.666Z</time></trkpt><trkpt lat="44.7503333" lon="9.85017"><ele>402.0</ele><time>2026-03-28T10:23:32.667Z</time></trkpt><trkpt lat="44.7503583" lon="9.8500717"><ele>398.1666666666667</ele><time>2026-03-28T10:23:36.665Z</time></trkpt><trkpt lat="44.7504133" lon="9.84999"><ele>394.3333333333333</ele><time>2026-03-28T10:23:38.666Z</time></trkpt><trkpt lat="44.7504517" lon="9.8499017"><ele>390.5</ele><time>2026-03-28T10:23:40.665Z</time></trkpt><trkpt lat="44.750475" lon="9.8497867"><ele>386.66666666666663</ele><time>2026-03-28T10:23:42.665Z</time></trkpt><trkpt lat="44.7505017" lon="9.849675"><ele>382.8333333333333</ele><time>2026-03-28T10:23:44.667Z</time></trkpt><trkpt lat="44.75053" lon="9.8495783"><ele>379.0</ele><time>2026-03-28T10:23:46.665Z</time></trkpt><trkpt lat="44.7505367" lon="9.8494283"><ele>379.0</ele><time>2026-03-28T10:24:23.665Z</time></trkpt><trkpt lat="44.7505183" lon="9.84932"><ele>379.0</ele><time>2026-03-28T10:24:25.666Z</time></trkpt><trkpt lat="44.7505533" lon="9.8491683"><ele>379.0</ele><time>2026-03-28T10:24:31.666Z</time></trkpt><trkpt lat="44.7506283" lon="9.849105"><ele>379.0</ele><time>2026-03-28T10:24:34.665Z</time></trkpt><trkpt lat="44.750685" lon="9.8490533"><ele>379.0</ele><time>2026-03-28T10:24:36.666Z</time></trkpt><trkpt lat="44.750725" lon="9.84918"><ele>379.0</ele><time>2026-03-28T10:25:07.664Z</time></trkpt><trkpt lat="44.7507367" lon="9.8492983"><ele>379.0</ele><time>2026-03-28T10:25:09.666Z</time></trkpt><trkpt lat="44.750725" lon="9.8494367"><ele>379.0</ele><time>2026-03-28T10:25:11.666Z</time></trkpt><trkpt lat="44.7506917" lon="9.8496117"><ele>379.0</ele><time>2026-03-28T10:25:13.666Z</time></trkpt><trkpt lat="44.75067" lon="9.8497333"><ele>379.0</ele><time>2026-03-28T10:25:15.666Z</time></trkpt><trkpt lat="44.75074" lon="9.8497983"><ele>379.0</ele><time>2026-03-28T10:25:17.667Z</time></trkpt><trkpt lat="44.75082" lon="9.849855"><ele>379.00000000000006</ele><time>2026-03-28T10:25:19.666Z</time></trkpt><trkpt lat="44.7508767" lon="9.8497833"><ele>379.0</ele><time>2026-03-28T10:26:03.665Z</time></trkpt><trkpt lat="44.7509283" lon="9.8497217"><ele>379.0</ele><time>2026-03-28T10:26:06.665Z</time></trkpt><trkpt lat="44.7509917" lon="9.8498167"><ele>379.0</ele><time>2026-03-28T10:26:16.666Z</time></trkpt><trkpt lat="44.7510467" lon="9.8498883"><ele>379.0</ele><time>2026-03-28T10:26:22.668Z</time></trkpt><trkpt lat="44.7511033" lon="9.8499283"><ele>379.00000000000006</ele><time>2026-03-28T10:26:49.666Z</time></trkpt><trkpt lat="44.7511683" lon="9.8499417"><ele>379.0</ele><time>2026-03-28T10:26:52.666Z</time></trkpt><trkpt lat="44.7512467" lon="9.84997"><ele>378.8333333333333</ele><time>2026-03-28T10:26:56.665Z</time></trkpt><trkpt lat="44.7513" lon="9.8500283"><ele>378.66666666666663</ele><time>2026-03-28T10:26:59.665Z</time></trkpt><trkpt lat="44.7513867" lon="9.8500717"><ele>378.5</ele><time>2026-03-28T10:27:02.665Z</time></trkpt><trkpt lat="44.7514517" lon="9.8500983"><ele>378.3333333333333</ele><time>2026-03-28T10:27:04.668Z</time></trkpt><trkpt lat="44.7515283" lon="9.8501417"><ele>378.1666666666667</ele><time>2026-03-28T10:27:06.665Z</time></trkpt><trkpt lat="44.7516083" lon="9.850205"><ele>378.0</ele><time>2026-03-28T10:27:08.666Z</time></trkpt><trkpt lat="44.7516667" lon="9.85027"><ele>378.0</ele><time>2026-03-28T10:27:10.667Z</time></trkpt><trkpt lat="44.7517633" lon="9.85034"><ele>378.0</ele><time>2026-03-28T10:27:21.665Z</time></trkpt><trkpt lat="44.751825" lon="9.8504067"><ele>378.0</ele><time>2026-03-28T10:27:25.665Z</time></trkpt><trkpt lat="44.751895" lon="9.8504967"><ele>378.0</ele><time>2026-03-28T10:27:28.666Z</time></trkpt><trkpt lat="44.75195" lon="9.850585"><ele>378.0</ele><time>2026-03-28T10:27:30.666Z</time></trkpt><trkpt lat="44.7520233" lon="9.85071"><ele>379.2</ele><time>2026-03-28T10:27:32.666Z</time></trkpt><trkpt lat="44.7520517" lon="9.8507933"><ele>380.4</ele><time>2026-03-28T10:27:33.665Z</time></trkpt><trkpt lat="44.75211" lon="9.850905"><ele>381.59999999999997</ele><time>2026-03-28T10:27:35.664Z</time></trkpt><trkpt lat="44.7521633" lon="9.851025"><ele>382.79999999999995</ele><time>2026-03-28T10:27:37.666Z</time></trkpt><trkpt lat="44.7522083" lon="9.8511767"><ele>384.0</ele><time>2026-03-28T10:27:39.664Z</time></trkpt><trkpt lat="44.7522417" lon="9.85132"><ele>384.0</ele><time>2026-03-28T10:27:41.665Z</time></trkpt><trkpt lat="44.7522533" lon="9.851465"><ele>384.0</ele><time>2026-03-28T10:27:43.665Z</time></trkpt><trkpt lat="44.75227" lon="9.85159"><ele>384.0</ele><time>2026-03-28T10:27:45.665Z</time></trkpt><trkpt lat="44.752285" lon="9.8516833"><ele>384.0</ele><time>2026-03-28T10:27:48.665Z</time></trkpt><trkpt lat="44.7523283" lon="9.8517633"><ele>384.0</ele><time>2026-03-28T10:28:00.664Z</time></trkpt><trkpt lat="44.75239" lon="9.85185"><ele>384.0</ele><time>2026-03-28T10:28:04.665Z</time></trkpt><trkpt lat="44.7524233" lon="9.8519433"><ele>383.1666666666667</ele><time>2026-03-28T10:28:06.666Z</time></trkpt><trkpt lat="44.7524333" lon="9.852085"><ele>382.3333333333333</ele><time>2026-03-28T10:28:08.666Z</time></trkpt><trkpt lat="44.752445" lon="9.8521883"><ele>381.5</ele><time>2026-03-28T10:28:09.665Z</time></trkpt><trkpt lat="44.7524517" lon="9.8522833"><ele>380.66666666666663</ele><time>2026-03-28T10:28:10.664Z</time></trkpt><trkpt lat="44.7524567" lon="9.852375"><ele>379.8333333333333</ele><time>2026-03-28T10:28:11.665Z</time></trkpt><trkpt lat="44.752475" lon="9.852565"><ele>379.0</ele><time>2026-03-28T10:28:13.666Z</time></trkpt><trkpt lat="44.7524917" lon="9.852655"><ele>378.0</ele><time>2026-03-28T10:28:14.665Z</time></trkpt><trkpt lat="44.752515" lon="9.8527383"><ele>377.0</ele><time>2026-03-28T10:28:15.666Z</time></trkpt><trkpt lat="44.752565" lon="9.85288"><ele>376.0</ele><time>2026-03-28T10:28:17.664Z</time></trkpt><trkpt lat="44.7526183" lon="9.8529683"><ele>375.0</ele><time>2026-03-28T10:28:19.665Z</time></trkpt><trkpt lat="44.7526417" lon="9.8530767"><ele>374.0</ele><time>2026-03-28T10:28:22.666Z</time></trkpt><trkpt lat="44.7526783" lon="9.85315"><ele>373.0</ele><time>2026-03-28T10:28:25.666Z</time></trkpt><trkpt lat="44.7527283" lon="9.8532233"><ele>374.2</ele><time>2026-03-28T10:28:31.666Z</time></trkpt><trkpt lat="44.752775" lon="9.8533183"><ele>375.4</ele><time>2026-03-28T10:28:34.665Z</time></trkpt><trkpt lat="44.752815" lon="9.8534817"><ele>376.59999999999997</ele><time>2026-03-28T10:34:25.666Z</time></trkpt><trkpt lat="44.7528633" lon="9.8535733"><ele>377.79999999999995</ele><time>2026-03-28T10:34:27.666Z</time></trkpt><trkpt lat="44.7529117" lon="9.85367"><ele>379.0</ele><time>2026-03-28T10:34:29.665Z</time></trkpt><trkpt lat="44.7529683" lon="9.8537867"><ele>379.0</ele><time>2026-03-28T10:34:31.666Z</time></trkpt><trkpt lat="44.75302" lon="9.8538983"><ele>379.0</ele><time>2026-03-28T10:34:33.666Z</time></trkpt><trkpt lat="44.75306" lon="9.8540067"><ele>379.0</ele><time>2026-03-28T10:34:35.667Z</time></trkpt><trkpt lat="44.753085" lon="9.8541117"><ele>379.0</ele><time>2026-03-28T10:34:37.666Z</time></trkpt><trkpt lat="44.75309" lon="9.8542433"><ele>379.0</ele><time>2026-03-28T10:34:39.666Z</time></trkpt><trkpt lat="44.7530617" lon="9.8543283"><ele>379.0</ele><time>2026-03-28T10:34:41.667Z</time></trkpt><trkpt lat="44.753005" lon="9.8543683"><ele>378.16666666666663</ele><time>2026-03-28T10:34:43.666Z</time></trkpt><trkpt lat="44.752945" lon="9.8544567"><ele>377.3333333333333</ele><time>2026-03-28T10:34:47.667Z</time></trkpt><trkpt lat="44.7528917" lon="9.85453"><ele>376.5</ele><time>2026-03-28T10:34:49.666Z</time></trkpt><trkpt lat="44.75284" lon="9.8546"><ele>375.6666666666667</ele><time>2026-03-28T10:34:51.666Z</time></trkpt><trkpt lat="44.7527917" lon="9.8546733"><ele>374.83333333333337</ele><time>2026-03-28T10:34:55.667Z</time></trkpt><trkpt lat="44.7527217" lon="9.854725"><ele>374.0</ele><time>2026-03-28T10:34:58.666Z</time></trkpt><trkpt lat="44.752675" lon="9.85483"><ele>374.0</ele><time>2026-03-28T10:35:02.665Z</time></trkpt><trkpt lat="44.7526483" lon="9.854935"><ele>374.0</ele><time>2026-03-28T10:35:04.665Z</time></trkpt><trkpt lat="44.7526267" lon="9.855055"><ele>374.0</ele><time>2026-03-28T10:35:07.666Z</time></trkpt><trkpt lat="44.7525817" lon="9.8551467"><ele>374.0</ele><time>2026-03-28T10:35:11.665Z</time></trkpt><trkpt lat="44.7526567" lon="9.8551933"><ele>374.0</ele><time>2026-03-28T10:35:21.666Z</time></trkpt><trkpt lat="44.752725" lon="9.8551483"><ele>374.0</ele><time>2026-03-28T10:35:24.665Z</time></trkpt><trkpt lat="44.7527517" lon="9.855035"><ele>374.0</ele><time>2026-03-28T10:35:27.665Z</time></trkpt><trkpt lat="44.7527833" lon="9.8549567"><ele>374.0</ele><time>2026-03-28T10:35:29.666Z</time></trkpt><trkpt lat="44.7528417" lon="9.8548833"><ele>374.0</ele><time>2026-03-28T10:35:32.667Z</time></trkpt><trkpt lat="44.75291" lon="9.8547833"><ele>374.0</ele><time>2026-03-28T10:36:01.667Z</time></trkpt><trkpt lat="44.75294" lon="9.854895"><ele>374.0</ele><time>2026-03-28T10:36:05.667Z</time></trkpt><trkpt lat="44.7529683" lon="9.8549817"><ele>374.0</ele><time>2026-03-28T10:36:07.666Z</time></trkpt><trkpt lat="44.7530033" lon="9.8550567"><ele>372.0</ele><time>2026-03-28T10:36:10.667Z</time></trkpt><trkpt lat="44.7530283" lon="9.85516"><ele>370.0</ele><time>2026-03-28T10:36:14.665Z</time></trkpt><trkpt lat="44.7530583" lon="9.855275"><ele>368.0</ele><time>2026-03-28T10:36:17.665Z</time></trkpt><trkpt lat="44.7531283" lon="9.8553817"><ele>366.0</ele><time>2026-03-28T10:36:19.665Z</time></trkpt><trkpt lat="44.7532133" lon="9.8555133"><ele>364.0</ele><time>2026-03-28T10:36:21.666Z</time></trkpt><trkpt lat="44.7532583" lon="9.8555867"><ele>364.0</ele><time>2026-03-28T10:36:22.666Z</time></trkpt><trkpt lat="44.753305" lon="9.8556733"><ele>364.0</ele><time>2026-03-28T10:36:23.667Z</time></trkpt><trkpt lat="44.7533533" lon="9.855765"><ele>364.0</ele><time>2026-03-28T10:36:24.667Z</time></trkpt><trkpt lat="44.753405" lon="9.8558633"><ele>364.0</ele><time>2026-03-28T10:36:25.665Z</time></trkpt><trkpt lat="44.7534567" lon="9.85596"><ele>364.0</ele><time>2026-03-28T10:36:26.666Z</time></trkpt><trkpt lat="44.75351" lon="9.8560583"><ele>364.0</ele><time>2026-03-28T10:36:27.667Z</time></trkpt><trkpt lat="44.7535633" lon="9.8561567"><ele>363.6</ele><time>2026-03-28T10:36:28.667Z</time></trkpt><trkpt lat="44.7536217" lon="9.856255"><ele>363.2</ele><time>2026-03-28T10:36:29.666Z</time></trkpt><trkpt lat="44.753685" lon="9.8563567"><ele>362.8</ele><time>2026-03-28T10:36:30.667Z</time></trkpt><trkpt lat="44.75375" lon="9.856455"><ele>362.40000000000003</ele><time>2026-03-28T10:36:31.667Z</time></trkpt><trkpt lat="44.7538217" lon="9.856555"><ele>362.0</ele><time>2026-03-28T10:36:32.667Z</time></trkpt><trkpt lat="44.7538933" lon="9.8566533"><ele>362.0</ele><time>2026-03-28T10:36:33.666Z</time></trkpt><trkpt lat="44.7539667" lon="9.8567533"><ele>362.0</ele><time>2026-03-28T10:36:34.664Z</time></trkpt><trkpt lat="44.7540383" lon="9.8568583"><ele>362.0</ele><time>2026-03-28T10:36:35.665Z</time></trkpt><trkpt lat="44.7541083" lon="9.856955"><ele>362.0</ele><time>2026-03-28T10:36:36.665Z</time></trkpt><trkpt lat="44.7541767" lon="9.8570467"><ele>362.0</ele><time>2026-03-28T10:36:37.667Z</time></trkpt><trkpt lat="44.7542483" lon="9.85713"><ele>362.6</ele><time>2026-03-28T10:36:38.665Z</time></trkpt><trkpt lat="44.754325" lon="9.8572083"><ele>363.20000000000005</ele><time>2026-03-28T10:36:39.667Z</time></trkpt><trkpt lat="44.7544133" lon="9.8572733"><ele>363.8</ele><time>2026-03-28T10:36:40.666Z</time></trkpt><trkpt lat="44.754515" lon="9.8573317"><ele>364.4</ele><time>2026-03-28T10:36:41.666Z</time></trkpt><trkpt lat="44.7546183" lon="9.8573833"><ele>365.0</ele><time>2026-03-28T10:36:42.666Z</time></trkpt><trkpt lat="44.7547267" lon="9.8574283"><ele>363.25</ele><time>2026-03-28T10:36:43.665Z</time></trkpt><trkpt lat="44.7548367" lon="9.8574733"><ele>361.5</ele><time>2026-03-28T10:36:44.667Z</time></trkpt><trkpt lat="44.754945" lon="9.85752"><ele>359.75</ele><time>2026-03-28T10:36:45.664Z</time></trkpt><trkpt lat="44.755055" lon="9.8575683"><ele>358.0</ele><time>2026-03-28T10:36:46.665Z</time></trkpt><trkpt lat="44.755165" lon="9.8576217"><ele>358.5</ele><time>2026-03-28T10:36:47.666Z</time></trkpt><trkpt lat="44.755275" lon="9.857685"><ele>359.0</ele><time>2026-03-28T10:36:48.665Z</time></trkpt><trkpt lat="44.755385" lon="9.8577517"><ele>359.5</ele><time>2026-03-28T10:36:49.666Z</time></trkpt><trkpt lat="44.7554883" lon="9.8578283"><ele>360.0</ele><time>2026-03-28T10:36:50.666Z</time></trkpt><trkpt lat="44.755585" lon="9.8579117"><ele>360.0</ele><time>2026-03-28T10:36:51.665Z</time></trkpt><trkpt lat="44.75567" lon="9.8580083"><ele>360.0</ele><time>2026-03-28T10:36:52.666Z</time></trkpt><trkpt lat="44.7557383" lon="9.85811"><ele>360.0</ele><time>2026-03-28T10:36:53.666Z</time></trkpt><trkpt lat="44.755785" lon="9.8582167"><ele>360.0</ele><time>2026-03-28T10:36:54.666Z</time></trkpt><trkpt lat="44.7558233" lon="9.8583217"><ele>360.0</ele><time>2026-03-28T10:36:55.666Z</time></trkpt><trkpt lat="44.7558483" lon="9.8584267"><ele>360.0</ele><time>2026-03-28T10:36:56.666Z</time></trkpt><trkpt lat="44.755865" lon="9.8585333"><ele>360.0</ele><time>2026-03-28T10:36:57.665Z</time></trkpt><trkpt lat="44.7558917" lon="9.8586367"><ele>360.0</ele><time>2026-03-28T10:36:58.666Z</time></trkpt><trkpt lat="44.7559267" lon="9.8587383"><ele>360.0</ele><time>2026-03-28T10:36:59.667Z</time></trkpt><trkpt lat="44.7559767" lon="9.8588417"><ele>360.0</ele><time>2026-03-28T10:37:00.666Z</time></trkpt><trkpt lat="44.7560383" lon="9.858945"><ele>360.0</ele><time>2026-03-28T10:37:01.667Z</time></trkpt><trkpt lat="44.7561017" lon="9.8590483"><ele>360.0</ele><time>2026-03-28T10:37:02.667Z</time></trkpt><trkpt lat="44.7561583" lon="9.859145"><ele>360.0</ele><time>2026-03-28T10:37:03.665Z</time></trkpt><trkpt lat="44.7562133" lon="9.8592383"><ele>360.0</ele><time>2026-03-28T10:37:04.667Z</time></trkpt><trkpt lat="44.7562633" lon="9.85933"><ele>360.0</ele><time>2026-03-28T10:37:05.666Z</time></trkpt><trkpt lat="44.7563133" lon="9.8594333"><ele>360.0</ele><time>2026-03-28T10:37:06.666Z</time></trkpt><trkpt lat="44.7563683" lon="9.8595383"><ele>360.0</ele><time>2026-03-28T10:37:07.665Z</time></trkpt><trkpt lat="44.7564333" lon="9.859635"><ele>358.6666666666667</ele><time>2026-03-28T10:37:08.665Z</time></trkpt><trkpt lat="44.7565017" lon="9.859725"><ele>357.3333333333333</ele><time>2026-03-28T10:37:09.665Z</time></trkpt><trkpt lat="44.7565733" lon="9.85981"><ele>356.0</ele><time>2026-03-28T10:37:10.667Z</time></trkpt><trkpt lat="44.7566467" lon="9.859895"><ele>354.66666666666663</ele><time>2026-03-28T10:37:11.667Z</time></trkpt><trkpt lat="44.7567117" lon="9.8599667"><ele>353.3333333333333</ele><time>2026-03-28T10:37:12.666Z</time></trkpt><trkpt lat="44.75677" lon="9.8600417"><ele>352.0</ele><time>2026-03-28T10:37:13.666Z</time></trkpt><trkpt lat="44.7568317" lon="9.8601117"><ele>351.0</ele><time>2026-03-28T10:37:14.667Z</time></trkpt><trkpt lat="44.7568933" lon="9.8601817"><ele>350.0</ele><time>2026-03-28T10:37:15.666Z</time></trkpt><trkpt lat="44.7569517" lon="9.8602517"><ele>349.0</ele><time>2026-03-28T10:37:16.665Z</time></trkpt><trkpt lat="44.75701" lon="9.86032"><ele>348.0</ele><time>2026-03-28T10:37:17.665Z</time></trkpt><trkpt lat="44.7570617" lon="9.8603817"><ele>347.0</ele><time>2026-03-28T10:37:18.665Z</time></trkpt><trkpt lat="44.7571133" lon="9.8604383"><ele>346.0</ele><time>2026-03-28T10:37:19.665Z</time></trkpt><trkpt lat="44.7571717" lon="9.860495"><ele>345.0</ele><time>2026-03-28T10:37:20.667Z</time></trkpt><trkpt lat="44.757235" lon="9.8605517"><ele>345.0</ele><time>2026-03-28T10:37:21.669Z</time></trkpt><trkpt lat="44.757305" lon="9.8606167"><ele>345.0</ele><time>2026-03-28T10:37:22.667Z</time></trkpt><trkpt lat="44.7573733" lon="9.860685"><ele>345.0</ele><time>2026-03-28T10:37:23.665Z</time></trkpt><trkpt lat="44.757445" lon="9.86076"><ele>345.0</ele><time>2026-03-28T10:37:24.666Z</time></trkpt><trkpt lat="44.7575267" lon="9.8608267"><ele>345.0</ele><time>2026-03-28T10:37:25.665Z</time></trkpt><trkpt lat="44.7576283" lon="9.860885"><ele>345.4</ele><time>2026-03-28T10:37:26.666Z</time></trkpt><trkpt lat="44.7577467" lon="9.8609417"><ele>345.8</ele><time>2026-03-28T10:37:27.665Z</time></trkpt><trkpt lat="44.7578567" lon="9.8609867"><ele>346.20000000000005</ele><time>2026-03-28T10:37:28.666Z</time></trkpt><trkpt lat="44.7579583" lon="9.8610267"><ele>346.6</ele><time>2026-03-28T10:37:29.665Z</time></trkpt><trkpt lat="44.7580517" lon="9.8610583"><ele>347.0</ele><time>2026-03-28T10:37:30.666Z</time></trkpt><trkpt lat="44.7581333" lon="9.8610833"><ele>347.0</ele><time>2026-03-28T10:37:31.666Z</time></trkpt><trkpt lat="44.758205" lon="9.861095"><ele>347.0</ele><time>2026-03-28T10:37:32.667Z</time></trkpt><trkpt lat="44.7582717" lon="9.8610933"><ele>347.0</ele><time>2026-03-28T10:37:33.666Z</time></trkpt><trkpt lat="44.7583417" lon="9.86108"><ele>347.0</ele><time>2026-03-28T10:37:35.667Z</time></trkpt><trkpt lat="44.7584333" lon="9.8611033"><ele>347.0</ele><time>2026-03-28T10:37:43.666Z</time></trkpt><trkpt lat="44.7585283" lon="9.8611167"><ele>347.0</ele><time>2026-03-28T10:37:45.665Z</time></trkpt><trkpt lat="44.7586217" lon="9.8611833"><ele>345.0</ele><time>2026-03-28T10:37:47.666Z</time></trkpt><trkpt lat="44.7587317" lon="9.8612367"><ele>343.0</ele><time>2026-03-28T10:37:49.666Z</time></trkpt><trkpt lat="44.75885" lon="9.8612867"><ele>341.0</ele><time>2026-03-28T10:37:51.666Z</time></trkpt><trkpt lat="44.7589683" lon="9.8614"><ele>339.0</ele><time>2026-03-28T10:37:53.668Z</time></trkpt><trkpt lat="44.7590267" lon="9.8614717"><ele>339.0</ele><time>2026-03-28T10:37:54.666Z</time></trkpt><trkpt lat="44.7590967" lon="9.8615167"><ele>339.0</ele><time>2026-03-28T10:37:55.666Z</time></trkpt><trkpt lat="44.75917" lon="9.86155"><ele>339.0</ele><time>2026-03-28T10:37:56.667Z</time></trkpt><trkpt lat="44.7592417" lon="9.861595"><ele>339.0</ele><time>2026-03-28T10:37:57.666Z</time></trkpt><trkpt lat="44.7593067" lon="9.8616483"><ele>339.0</ele><time>2026-03-28T10:37:58.667Z</time></trkpt><trkpt lat="44.7593583" lon="9.8617167"><ele>339.0</ele><time>2026-03-28T10:37:59.665Z</time></trkpt><trkpt lat="44.7593933" lon="9.8618"><ele>339.0</ele><time>2026-03-28T10:38:00.665Z</time></trkpt><trkpt lat="44.7594233" lon="9.8619033"><ele>338.79999999999995</ele><time>2026-03-28T10:38:01.666Z</time></trkpt><trkpt lat="44.7594533" lon="9.86203"><ele>338.59999999999997</ele><time>2026-03-28T10:38:02.667Z</time></trkpt><trkpt lat="44.7594817" lon="9.8621633"><ele>338.4</ele><time>2026-03-28T10:38:03.667Z</time></trkpt><trkpt lat="44.7595117" lon="9.86229"><ele>338.2</ele><time>2026-03-28T10:38:04.666Z</time></trkpt><trkpt lat="44.7595333" lon="9.8624067"><ele>338.0</ele><time>2026-03-28T10:38:05.664Z</time></trkpt><trkpt lat="44.7595517" lon="9.8625117"><ele>337.59999999999997</ele><time>2026-03-28T10:38:06.666Z</time></trkpt><trkpt lat="44.7595883" lon="9.8626433"><ele>337.2</ele><time>2026-03-28T10:38:08.666Z</time></trkpt><trkpt lat="44.7596833" lon="9.862685"><ele>336.8</ele><time>2026-03-28T10:38:11.665Z</time></trkpt><trkpt lat="44.7597617" lon="9.86271"><ele>336.4</ele><time>2026-03-28T10:38:13.665Z</time></trkpt><trkpt lat="44.7598217" lon="9.8628033"><ele>336.0</ele><time>2026-03-28T10:38:15.665Z</time></trkpt><trkpt lat="44.759885" lon="9.8628867"><ele>336.0</ele><time>2026-03-28T10:38:17.665Z</time></trkpt><trkpt lat="44.7599767" lon="9.8629167"><ele>336.0</ele><time>2026-03-28T10:38:19.666Z</time></trkpt><trkpt lat="44.7600683" lon="9.862925"><ele>336.0</ele><time>2026-03-28T10:38:21.666Z</time></trkpt><trkpt lat="44.760145" lon="9.8629433"><ele>336.0</ele><time>2026-03-28T10:38:23.667Z</time></trkpt><trkpt lat="44.76022" lon="9.8630017"><ele>336.0</ele><time>2026-03-28T10:38:25.666Z</time></trkpt><trkpt lat="44.760285" lon="9.8630033"><ele>336.0</ele><time>2026-03-28T10:38:27.666Z</time></trkpt><trkpt lat="44.76035" lon="9.863015"><ele>336.0</ele><time>2026-03-28T10:38:29.666Z</time></trkpt><trkpt lat="44.760425" lon="9.8630567"><ele>336.0</ele><time>2026-03-28T10:38:31.666Z</time></trkpt><trkpt lat="44.7604967" lon="9.8631067"><ele>336.0</ele><time>2026-03-28T10:38:33.666Z</time></trkpt><trkpt lat="44.7605817" lon="9.8632033"><ele>336.0</ele><time>2026-03-28T10:38:35.665Z</time></trkpt><trkpt lat="44.76064" lon="9.86328"><ele>336.0</ele><time>2026-03-28T10:38:36.667Z</time></trkpt><trkpt lat="44.7607133" lon="9.863355"><ele>336.0</ele><time>2026-03-28T10:38:37.666Z</time></trkpt><trkpt lat="44.760785" lon="9.8634333"><ele>336.1666666666667</ele><time>2026-03-28T10:38:38.666Z</time></trkpt><trkpt lat="44.7608467" lon="9.8634967"><ele>336.3333333333333</ele><time>2026-03-28T10:38:39.665Z</time></trkpt><trkpt lat="44.760905" lon="9.8635533"><ele>336.5</ele><time>2026-03-28T10:38:40.667Z</time></trkpt><trkpt lat="44.76098" lon="9.8636467"><ele>336.66666666666663</ele><time>2026-03-28T10:38:42.665Z</time></trkpt><trkpt lat="44.76106" lon="9.8637383"><ele>336.8333333333333</ele><time>2026-03-28T10:38:44.666Z</time></trkpt><trkpt lat="44.76112" lon="9.863805"><ele>337.0</ele><time>2026-03-28T10:38:45.665Z</time></trkpt><trkpt lat="44.761175" lon="9.86388"><ele>337.0</ele><time>2026-03-28T10:38:46.666Z</time></trkpt><trkpt lat="44.76122" lon="9.8639533"><ele>337.0</ele><time>2026-03-28T10:38:47.666Z</time></trkpt><trkpt lat="44.7612983" lon="9.8640667"><ele>337.0</ele><time>2026-03-28T10:38:49.666Z</time></trkpt><trkpt lat="44.7613483" lon="9.86419"><ele>337.0</ele><time>2026-03-28T10:38:51.665Z</time></trkpt><trkpt lat="44.7613283" lon="9.864305"><ele>337.0</ele><time>2026-03-28T10:38:53.666Z</time></trkpt><trkpt lat="44.7613" lon="9.8643917"><ele>337.0</ele><time>2026-03-28T10:38:55.666Z</time></trkpt><trkpt lat="44.7613233" lon="9.8645183"><ele>335.8</ele><time>2026-03-28T10:38:58.666Z</time></trkpt><trkpt lat="44.7613417" lon="9.86462"><ele>334.6</ele><time>2026-03-28T10:39:00.666Z</time></trkpt><trkpt lat="44.7613733" lon="9.8647717"><ele>333.40000000000003</ele><time>2026-03-28T10:39:02.665Z</time></trkpt><trkpt lat="44.7613917" lon="9.86489"><ele>332.20000000000005</ele><time>2026-03-28T10:39:03.666Z</time></trkpt><trkpt lat="44.7614083" lon="9.865025"><ele>331.0</ele><time>2026-03-28T10:39:04.665Z</time></trkpt><trkpt lat="44.7614267" lon="9.8651483"><ele>330.66666666666663</ele><time>2026-03-28T10:39:05.665Z</time></trkpt><trkpt lat="44.7614467" lon="9.865265"><ele>330.3333333333333</ele><time>2026-03-28T10:39:06.665Z</time></trkpt><trkpt lat="44.7614683" lon="9.86538"><ele>330.0</ele><time>2026-03-28T10:39:07.667Z</time></trkpt><trkpt lat="44.761495" lon="9.865495"><ele>329.6666666666667</ele><time>2026-03-28T10:39:08.665Z</time></trkpt><trkpt lat="44.7615217" lon="9.8656017"><ele>329.33333333333337</ele><time>2026-03-28T10:39:09.665Z</time></trkpt><trkpt lat="44.76155" lon="9.8657033"><ele>329.0</ele><time>2026-03-28T10:39:10.667Z</time></trkpt><trkpt lat="44.76157" lon="9.86579"><ele>329.0</ele><time>2026-03-28T10:39:11.666Z</time></trkpt><trkpt lat="44.761605" lon="9.8659233"><ele>329.0</ele><time>2026-03-28T10:39:13.666Z</time></trkpt><trkpt lat="44.7616667" lon="9.8660133"><ele>329.0</ele><time>2026-03-28T10:39:15.666Z</time></trkpt><trkpt lat="44.7617633" lon="9.8661217"><ele>329.0</ele><time>2026-03-28T10:39:17.666Z</time></trkpt><trkpt lat="44.7618117" lon="9.8661883"><ele>329.0</ele><time>2026-03-28T10:39:18.665Z</time></trkpt><trkpt lat="44.761905" lon="9.8662767"><ele>329.0</ele><time>2026-03-28T10:39:20.667Z</time></trkpt><trkpt lat="44.7619833" lon="9.8663583"><ele>329.0</ele><time>2026-03-28T10:39:22.667Z</time></trkpt><trkpt lat="44.76202" lon="9.8664533"><ele>329.0</ele><time>2026-03-28T10:39:24.665Z</time></trkpt><trkpt lat="44.762095" lon="9.8666133"><ele>329.0</ele><time>2026-03-28T10:39:45.666Z</time></trkpt><trkpt lat="44.7621567" lon="9.8666833"><ele>329.0</ele><time>2026-03-28T10:39:47.666Z</time></trkpt><trkpt lat="44.7622367" lon="9.8667783"><ele>329.83333333333337</ele><time>2026-03-28T10:39:49.666Z</time></trkpt><trkpt lat="44.7623217" lon="9.8668733"><ele>330.6666666666667</ele><time>2026-03-28T10:39:51.665Z</time></trkpt><trkpt lat="44.7624" lon="9.86694"><ele>331.5</ele><time>2026-03-28T10:39:53.666Z</time></trkpt><trkpt lat="44.76245" lon="9.867"><ele>332.3333333333333</ele><time>2026-03-28T10:39:55.666Z</time></trkpt><trkpt lat="44.7625133" lon="9.867005"><ele>333.16666666666663</ele><time>2026-03-28T10:40:22.665Z</time></trkpt><trkpt lat="44.76253" lon="9.8669133"><ele>334.0</ele><time>2026-03-28T10:40:29.665Z</time></trkpt><trkpt lat="44.762475" lon="9.8668483"><ele>334.0</ele><time>2026-03-28T10:40:31.666Z</time></trkpt><trkpt lat="44.762455" lon="9.8667417"><ele>334.0</ele><time>2026-03-28T10:40:34.666Z</time></trkpt><trkpt lat="44.7625433" lon="9.86671"><ele>334.0</ele><time>2026-03-28T10:42:02.664Z</time></trkpt><trkpt lat="44.7626417" lon="9.8667517"><ele>334.0</ele><time>2026-03-28T10:42:04.667Z</time></trkpt><trkpt lat="44.7627167" lon="9.866825"><ele>334.0</ele><time>2026-03-28T10:42:06.666Z</time></trkpt><trkpt lat="44.7627583" lon="9.8669467"><ele>334.0</ele><time>2026-03-28T10:42:08.665Z</time></trkpt><trkpt lat="44.7628183" lon="9.8670967"><ele>334.0</ele><time>2026-03-28T10:42:10.666Z</time></trkpt><trkpt lat="44.76286" lon="9.8671783"><ele>334.0</ele><time>2026-03-28T10:42:11.665Z</time></trkpt><trkpt lat="44.762905" lon="9.86726"><ele>334.0</ele><time>2026-03-28T10:42:12.664Z</time></trkpt><trkpt lat="44.7629467" lon="9.8673367"><ele>334.0</ele><time>2026-03-28T10:42:13.665Z</time></trkpt><trkpt lat="44.76299" lon="9.8674183"><ele>334.0</ele><time>2026-03-28T10:42:14.666Z</time></trkpt><trkpt lat="44.76303" lon="9.8675017"><ele>334.0</ele><time>2026-03-28T10:42:15.665Z</time></trkpt><trkpt lat="44.763075" lon="9.8675783"><ele>334.0</ele><time>2026-03-28T10:42:16.664Z</time></trkpt><trkpt lat="44.7631267" lon="9.86765"><ele>334.0</ele><time>2026-03-28T10:42:17.665Z</time></trkpt><trkpt lat="44.7631867" lon="9.8677183"><ele>334.0</ele><time>2026-03-28T10:42:18.665Z</time></trkpt><trkpt lat="44.7632467" lon="9.8677883"><ele>334.0</ele><time>2026-03-28T10:42:19.665Z</time></trkpt><trkpt lat="44.7633083" lon="9.8678567"><ele>334.0</ele><time>2026-03-28T10:42:20.665Z</time></trkpt><trkpt lat="44.76337" lon="9.867925"><ele>332.4</ele><time>2026-03-28T10:42:21.665Z</time></trkpt><trkpt lat="44.7634167" lon="9.8679867"><ele>330.79999999999995</ele><time>2026-03-28T10:42:22.666Z</time></trkpt><trkpt lat="44.7634817" lon="9.8680833"><ele>329.20000000000005</ele><time>2026-03-28T10:42:24.665Z</time></trkpt><trkpt lat="44.7635733" lon="9.8681333"><ele>327.6</ele><time>2026-03-28T10:42:26.666Z</time></trkpt><trkpt lat="44.7636717" lon="9.8681983"><ele>326.0</ele><time>2026-03-28T10:42:28.665Z</time></trkpt><trkpt lat="44.763775" lon="9.868245"><ele>326.0</ele><time>2026-03-28T10:42:30.666Z</time></trkpt><trkpt lat="44.7638417" lon="9.868255"><ele>326.0</ele><time>2026-03-28T10:42:31.665Z</time></trkpt><trkpt lat="44.7639167" lon="9.8682733"><ele>326.0</ele><time>2026-03-28T10:42:32.668Z</time></trkpt><trkpt lat="44.763995" lon="9.8682917"><ele>326.0</ele><time>2026-03-28T10:42:33.665Z</time></trkpt><trkpt lat="44.764075" lon="9.8683217"><ele>326.0</ele><time>2026-03-28T10:42:34.665Z</time></trkpt><trkpt lat="44.764145" lon="9.86835"><ele>326.0</ele><time>2026-03-28T10:42:35.665Z</time></trkpt><trkpt lat="44.76421" lon="9.86838"><ele>326.0</ele><time>2026-03-28T10:42:36.664Z</time></trkpt><trkpt lat="44.7642917" lon="9.8684833"><ele>325.33333333333337</ele><time>2026-03-28T10:42:38.664Z</time></trkpt><trkpt lat="44.7643433" lon="9.8686183"><ele>324.6666666666667</ele><time>2026-03-28T10:42:40.666Z</time></trkpt><trkpt lat="44.7644233" lon="9.8687067"><ele>324.0</ele><time>2026-03-28T10:42:42.665Z</time></trkpt><trkpt lat="44.764485" lon="9.8687533"><ele>323.3333333333333</ele><time>2026-03-28T10:42:43.664Z</time></trkpt><trkpt lat="44.764545" lon="9.8688083"><ele>322.66666666666663</ele><time>2026-03-28T10:42:44.664Z</time></trkpt><trkpt lat="44.7645983" lon="9.8688883"><ele>322.0</ele><time>2026-03-28T10:42:45.665Z</time></trkpt><trkpt lat="44.764655" lon="9.8689667"><ele>321.8333333333333</ele><time>2026-03-28T10:42:46.665Z</time></trkpt><trkpt lat="44.7647133" lon="9.86903"><ele>321.66666666666663</ele><time>2026-03-28T10:42:47.665Z</time></trkpt><trkpt lat="44.7647733" lon="9.86909"><ele>321.5</ele><time>2026-03-28T10:42:48.664Z</time></trkpt><trkpt lat="44.76483" lon="9.869155"><ele>321.3333333333333</ele><time>2026-03-28T10:42:49.666Z</time></trkpt><trkpt lat="44.76489" lon="9.8692283"><ele>321.1666666666667</ele><time>2026-03-28T10:42:50.666Z</time></trkpt><trkpt lat="44.7649517" lon="9.8693017"><ele>321.0</ele><time>2026-03-28T10:42:51.665Z</time></trkpt><trkpt lat="44.7650183" lon="9.8693867"><ele>321.0</ele><time>2026-03-28T10:42:52.665Z</time></trkpt><trkpt lat="44.7650783" lon="9.86948"><ele>321.0</ele><time>2026-03-28T10:42:53.665Z</time></trkpt><trkpt lat="44.7651367" lon="9.8695733"><ele>321.0</ele><time>2026-03-28T10:42:54.666Z</time></trkpt><trkpt lat="44.7651917" lon="9.869655"><ele>321.0</ele><time>2026-03-28T10:42:55.666Z</time></trkpt><trkpt lat="44.7652517" lon="9.8697183"><ele>321.0</ele><time>2026-03-28T10:42:56.666Z</time></trkpt><trkpt lat="44.7653133" lon="9.8697733"><ele>321.0</ele><time>2026-03-28T10:42:57.666Z</time></trkpt><trkpt lat="44.765375" lon="9.86983"><ele>321.0</ele><time>2026-03-28T10:42:58.666Z</time></trkpt><trkpt lat="44.7654367" lon="9.8698867"><ele>321.0</ele><time>2026-03-28T10:42:59.666Z</time></trkpt><trkpt lat="44.7654933" lon="9.8699383"><ele>321.0</ele><time>2026-03-28T10:43:00.664Z</time></trkpt><trkpt lat="44.7656083" lon="9.8699633"><ele>321.0</ele><time>2026-03-28T10:43:02.666Z</time></trkpt><trkpt lat="44.7656883" lon="9.869935"><ele>321.0</ele><time>2026-03-28T10:43:04.664Z</time></trkpt><trkpt lat="44.7657517" lon="9.870005"><ele>321.0</ele><time>2026-03-28T10:43:07.665Z</time></trkpt><trkpt lat="44.7657917" lon="9.87008"><ele>320.8</ele><time>2026-03-28T10:43:09.666Z</time></trkpt><trkpt lat="44.7658733" lon="9.8701417"><ele>320.6</ele><time>2026-03-28T10:43:12.665Z</time></trkpt><trkpt lat="44.765965" lon="9.8702083"><ele>320.4</ele><time>2026-03-28T10:43:14.665Z</time></trkpt><trkpt lat="44.7660483" lon="9.8703483"><ele>320.2</ele><time>2026-03-28T10:43:16.666Z</time></trkpt><trkpt lat="44.76609" lon="9.870425"><ele>320.0</ele><time>2026-03-28T10:43:17.665Z</time></trkpt><trkpt lat="44.76618" lon="9.870515"><ele>320.0</ele><time>2026-03-28T10:43:19.666Z</time></trkpt><trkpt lat="44.7662917" lon="9.8705867"><ele>320.0</ele><time>2026-03-28T10:43:21.664Z</time></trkpt><trkpt lat="44.76635" lon="9.870645"><ele>320.0</ele><time>2026-03-28T10:43:22.664Z</time></trkpt><trkpt lat="44.7664117" lon="9.8707133"><ele>320.0</ele><time>2026-03-28T10:43:23.664Z</time></trkpt><trkpt lat="44.7664717" lon="9.8707833"><ele>320.0</ele><time>2026-03-28T10:43:24.666Z</time></trkpt><trkpt lat="44.76652" lon="9.8708533"><ele>320.0</ele><time>2026-03-28T10:43:25.665Z</time></trkpt><trkpt lat="44.7665667" lon="9.8709217"><ele>319.1666666666667</ele><time>2026-03-28T10:43:26.666Z</time></trkpt><trkpt lat="44.7666283" lon="9.8709833"><ele>318.33333333333337</ele><time>2026-03-28T10:43:27.664Z</time></trkpt><trkpt lat="44.7666883" lon="9.87105"><ele>317.5</ele><time>2026-03-28T10:43:28.664Z</time></trkpt><trkpt lat="44.7667467" lon="9.8711167"><ele>316.6666666666667</ele><time>2026-03-28T10:43:29.665Z</time></trkpt><trkpt lat="44.7668283" lon="9.8712233"><ele>315.8333333333333</ele><time>2026-03-28T10:43:31.671Z</time></trkpt><trkpt lat="44.76688" lon="9.871305"><ele>315.0</ele><time>2026-03-28T10:43:34.666Z</time></trkpt><trkpt lat="44.7669083" lon="9.871405"><ele>317.2</ele><time>2026-03-28T10:43:36.664Z</time></trkpt><trkpt lat="44.7669233" lon="9.87157"><ele>319.4</ele><time>2026-03-28T10:43:38.665Z</time></trkpt><trkpt lat="44.7669267" lon="9.8717417"><ele>321.6</ele><time>2026-03-28T10:43:40.664Z</time></trkpt><trkpt lat="44.7669333" lon="9.8718833"><ele>323.8</ele><time>2026-03-28T10:43:42.666Z</time></trkpt><trkpt lat="44.7669367" lon="9.8720033"><ele>326.0</ele><time>2026-03-28T10:43:44.666Z</time></trkpt><trkpt lat="44.76698" lon="9.87213"><ele>326.0</ele><time>2026-03-28T10:43:46.666Z</time></trkpt><trkpt lat="44.7670733" lon="9.872275"><ele>326.0</ele><time>2026-03-28T10:43:48.664Z</time></trkpt><trkpt lat="44.76712" lon="9.8723467"><ele>326.0</ele><time>2026-03-28T10:43:49.665Z</time></trkpt><trkpt lat="44.7671667" lon="9.8724083"><ele>326.0</ele><time>2026-03-28T10:43:50.666Z</time></trkpt><trkpt lat="44.767225" lon="9.87248"><ele>326.0</ele><time>2026-03-28T10:43:51.665Z</time></trkpt><trkpt lat="44.767285" lon="9.872565"><ele>326.0</ele><time>2026-03-28T10:43:52.665Z</time></trkpt><trkpt lat="44.7673367" lon="9.87264"><ele>323.6</ele><time>2026-03-28T10:43:53.665Z</time></trkpt><trkpt lat="44.767385" lon="9.8727033"><ele>321.20000000000005</ele><time>2026-03-28T10:43:54.664Z</time></trkpt><trkpt lat="44.767445" lon="9.8728367"><ele>318.79999999999995</ele><time>2026-03-28T10:43:56.666Z</time></trkpt><trkpt lat="44.7674767" lon="9.8729883"><ele>316.4</ele><time>2026-03-28T10:43:58.665Z</time></trkpt><trkpt lat="44.7675383" lon="9.8731367"><ele>314.0</ele><time>2026-03-28T10:44:00.666Z</time></trkpt><trkpt lat="44.7675833" lon="9.873215"><ele>313.99999999999994</ele><time>2026-03-28T10:44:01.665Z</time></trkpt><trkpt lat="44.7676233" lon="9.8733017"><ele>314.0</ele><time>2026-03-28T10:44:02.665Z</time></trkpt><trkpt lat="44.7676583" lon="9.873385"><ele>314.0</ele><time>2026-03-28T10:44:03.664Z</time></trkpt><trkpt lat="44.7676933" lon="9.8734633"><ele>314.0</ele><time>2026-03-28T10:44:04.665Z</time></trkpt><trkpt lat="44.7677283" lon="9.8735517"><ele>314.0</ele><time>2026-03-28T10:44:05.665Z</time></trkpt><trkpt lat="44.7677683" lon="9.8736433"><ele>313.99999999999994</ele><time>2026-03-28T10:44:06.664Z</time></trkpt><trkpt lat="44.7678067" lon="9.8737383"><ele>314.0</ele><time>2026-03-28T10:44:07.667Z</time></trkpt><trkpt lat="44.76784" lon="9.87384"><ele>317.2</ele><time>2026-03-28T10:44:08.667Z</time></trkpt><trkpt lat="44.76789" lon="9.8739883"><ele>320.4</ele><time>2026-03-28T10:44:10.666Z</time></trkpt><trkpt lat="44.7679667" lon="9.8740583"><ele>323.6</ele><time>2026-03-28T10:44:12.666Z</time></trkpt><trkpt lat="44.7680533" lon="9.8740217"><ele>326.8</ele><time>2026-03-28T10:44:14.665Z</time></trkpt><trkpt lat="44.7681833" lon="9.87395"><ele>330.0</ele><time>2026-03-28T10:44:16.665Z</time></trkpt><trkpt lat="44.7682583" lon="9.8739183"><ele>330.0</ele><time>2026-03-28T10:44:17.666Z</time></trkpt><trkpt lat="44.76833" lon="9.8738983"><ele>330.0</ele><time>2026-03-28T10:44:18.666Z</time></trkpt><trkpt lat="44.7683967" lon="9.8738883"><ele>330.0</ele><time>2026-03-28T10:44:19.666Z</time></trkpt><trkpt lat="44.76849" lon="9.8739167"><ele>330.0</ele><time>2026-03-28T10:44:21.665Z</time></trkpt><trkpt lat="44.7684583" lon="9.8740267"><ele>330.0</ele><time>2026-03-28T10:44:25.665Z</time></trkpt><trkpt lat="44.768405" lon="9.8740917"><ele>330.0</ele><time>2026-03-28T10:44:27.665Z</time></trkpt><trkpt lat="44.768355" lon="9.87417"><ele>329.8</ele><time>2026-03-28T10:44:29.666Z</time></trkpt><trkpt lat="44.76831" lon="9.8742983"><ele>329.6</ele><time>2026-03-28T10:44:31.665Z</time></trkpt><trkpt lat="44.7682583" lon="9.8744333"><ele>329.4</ele><time>2026-03-28T10:44:33.664Z</time></trkpt><trkpt lat="44.768235" lon="9.8745517"><ele>329.2</ele><time>2026-03-28T10:44:35.666Z</time></trkpt><trkpt lat="44.7682067" lon="9.8746967"><ele>329.0</ele><time>2026-03-28T10:44:37.665Z</time></trkpt><trkpt lat="44.76819" lon="9.8748533"><ele>329.0</ele><time>2026-03-28T10:44:39.665Z</time></trkpt><trkpt lat="44.7681667" lon="9.8750217"><ele>329.0</ele><time>2026-03-28T10:44:41.665Z</time></trkpt><trkpt lat="44.7681533" lon="9.8751967"><ele>329.0</ele><time>2026-03-28T10:44:43.665Z</time></trkpt><trkpt lat="44.7681533" lon="9.875365"><ele>329.0</ele><time>2026-03-28T10:44:45.665Z</time></trkpt><trkpt lat="44.7681433" lon="9.8755267"><ele>327.0</ele><time>2026-03-28T10:44:47.666Z</time></trkpt><trkpt lat="44.7681517" lon="9.8756917"><ele>325.0</ele><time>2026-03-28T10:44:49.666Z</time></trkpt><trkpt lat="44.76816" lon="9.875785"><ele>323.0</ele><time>2026-03-28T10:44:50.665Z</time></trkpt><trkpt lat="44.76817" lon="9.8759583"><ele>321.0</ele><time>2026-03-28T10:44:52.665Z</time></trkpt><trkpt lat="44.7681933" lon="9.8761117"><ele>319.0</ele><time>2026-03-28T10:44:54.665Z</time></trkpt><trkpt lat="44.7681833" lon="9.8762683"><ele>317.0</ele><time>2026-03-28T10:44:56.665Z</time></trkpt><trkpt lat="44.7681333" lon="9.876405"><ele>315.0</ele><time>2026-03-28T10:44:58.665Z</time></trkpt><trkpt lat="44.768105" lon="9.8765483"><ele>313.0</ele><time>2026-03-28T10:45:00.665Z</time></trkpt><trkpt lat="44.76809" lon="9.8766983"><ele>311.0</ele><time>2026-03-28T10:45:02.665Z</time></trkpt><trkpt lat="44.76807" lon="9.87683"><ele>309.0</ele><time>2026-03-28T10:45:04.665Z</time></trkpt><trkpt lat="44.768075" lon="9.8769617"><ele>307.0</ele><time>2026-03-28T10:45:06.665Z</time></trkpt><trkpt lat="44.7681317" lon="9.8770533"><ele>305.0</ele><time>2026-03-28T10:45:08.666Z</time></trkpt><trkpt lat="44.7682367" lon="9.8771383"><ele>303.0</ele><time>2026-03-28T10:45:10.664Z</time></trkpt><trkpt lat="44.7683017" lon="9.87721"><ele>301.0</ele><time>2026-03-28T10:45:11.664Z</time></trkpt><trkpt lat="44.7683683" lon="9.8772933"><ele>299.0</ele><time>2026-03-28T10:45:12.665Z</time></trkpt><trkpt lat="44.7684283" lon="9.877365"><ele>299.0</ele><time>2026-03-28T10:45:13.665Z</time></trkpt><trkpt lat="44.7684833" lon="9.8774233"><ele>299.0</ele><time>2026-03-28T10:45:14.666Z</time></trkpt><trkpt lat="44.7685383" lon="9.8774817"><ele>299.0</ele><time>2026-03-28T10:45:15.665Z</time></trkpt><trkpt lat="44.7686017" lon="9.8776"><ele>299.0</ele><time>2026-03-28T10:45:17.665Z</time></trkpt><trkpt lat="44.7685967" lon="9.877695"><ele>299.0</ele><time>2026-03-28T10:45:19.665Z</time></trkpt><trkpt lat="44.76856" lon="9.8777933"><ele>299.0</ele><time>2026-03-28T10:45:33.665Z</time></trkpt><trkpt lat="44.768575" lon="9.8778983"><ele>299.0</ele><time>2026-03-28T10:45:36.667Z</time></trkpt><trkpt lat="44.7685917" lon="9.877985"><ele>299.0</ele><time>2026-03-28T10:45:38.665Z</time></trkpt><trkpt lat="44.7686117" lon="9.878085"><ele>299.0</ele><time>2026-03-28T10:45:40.665Z</time></trkpt><trkpt lat="44.7686133" lon="9.8782033"><ele>299.0</ele><time>2026-03-28T10:45:43.665Z</time></trkpt><trkpt lat="44.7685583" lon="9.8783"><ele>299.0</ele><time>2026-03-28T10:45:46.665Z</time></trkpt><trkpt lat="44.7685017" lon="9.8783817"><ele>299.0</ele><time>2026-03-28T10:45:48.667Z</time></trkpt><trkpt lat="44.768465" lon="9.8784917"><ele>298.59999999999997</ele><time>2026-03-28T10:45:50.665Z</time></trkpt><trkpt lat="44.76839" lon="9.878615"><ele>298.2</ele><time>2026-03-28T10:45:52.665Z</time></trkpt><trkpt lat="44.76834" lon="9.8786733"><ele>297.79999999999995</ele><time>2026-03-28T10:45:53.665Z</time></trkpt><trkpt lat="44.7682933" lon="9.8787383"><ele>297.4</ele><time>2026-03-28T10:45:54.665Z</time></trkpt><trkpt lat="44.7682033" lon="9.8788417"><ele>297.0</ele><time>2026-03-28T10:45:56.666Z</time></trkpt><trkpt lat="44.768125" lon="9.8789533"><ele>297.0</ele><time>2026-03-28T10:45:58.664Z</time></trkpt><trkpt lat="44.7680833" lon="9.8790217"><ele>297.0</ele><time>2026-03-28T10:45:59.664Z</time></trkpt><trkpt lat="44.7679967" lon="9.8791333"><ele>297.0</ele><time>2026-03-28T10:46:01.665Z</time></trkpt><trkpt lat="44.7679167" lon="9.87925"><ele>297.0</ele><time>2026-03-28T10:46:03.664Z</time></trkpt><trkpt lat="44.76785" lon="9.8793617"><ele>297.0</ele><time>2026-03-28T10:46:05.666Z</time></trkpt><trkpt lat="44.7677567" lon="9.8794483"><ele>300.2</ele><time>2026-03-28T10:46:07.666Z</time></trkpt><trkpt lat="44.7676467" lon="9.8795067"><ele>303.4</ele><time>2026-03-28T10:46:09.665Z</time></trkpt><trkpt lat="44.7675883" lon="9.879545"><ele>306.6</ele><time>2026-03-28T10:46:10.666Z</time></trkpt><trkpt lat="44.7675317" lon="9.879585"><ele>309.8</ele><time>2026-03-28T10:46:11.666Z</time></trkpt><trkpt lat="44.7674367" lon="9.8796783"><ele>313.0</ele><time>2026-03-28T10:46:13.665Z</time></trkpt><trkpt lat="44.7673767" lon="9.8798167"><ele>313.0</ele><time>2026-03-28T10:46:15.666Z</time></trkpt><trkpt lat="44.767325" lon="9.87997"><ele>313.0</ele><time>2026-03-28T10:46:17.667Z</time></trkpt><trkpt lat="44.7672583" lon="9.8800617"><ele>313.0</ele><time>2026-03-28T10:46:19.665Z</time></trkpt><trkpt lat="44.76718" lon="9.8800367"><ele>313.0</ele><time>2026-03-28T10:46:22.67Z</time></trkpt><trkpt lat="44.7671" lon="9.880015"><ele>313.0</ele><time>2026-03-28T10:46:24.667Z</time></trkpt><trkpt lat="44.76704" lon="9.8799767"><ele>313.0</ele><time>2026-03-28T10:46:26.665Z</time></trkpt><trkpt lat="44.7670083" lon="9.8798483"><ele>313.0</ele><time>2026-03-28T10:46:29.666Z</time></trkpt><trkpt lat="44.7669883" lon="9.8797267"><ele>313.0</ele><time>2026-03-28T10:46:31.666Z</time></trkpt><trkpt lat="44.7669833" lon="9.8796033"><ele>313.0</ele><time>2026-03-28T10:46:33.665Z</time></trkpt><trkpt lat="44.7669467" lon="9.8795033"><ele>313.0</ele><time>2026-03-28T10:46:35.667Z</time></trkpt><trkpt lat="44.7669067" lon="9.879385"><ele>313.0</ele><time>2026-03-28T10:46:37.666Z</time></trkpt><trkpt lat="44.7668617" lon="9.879275"><ele>313.0</ele><time>2026-03-28T10:46:39.664Z</time></trkpt><trkpt lat="44.7668017" lon="9.8793317"><ele>317.3333333333333</ele><time>2026-03-28T10:46:44.665Z</time></trkpt><trkpt lat="44.7667816" lon="9.8794319"><ele>321.66666666666663</ele><time>2026-03-28T10:46:48.667Z</time></trkpt><trkpt lat="44.7666724" lon="9.8794516"><ele>326.0</ele><time>2026-03-28T10:46:56.67Z</time></trkpt><trkpt lat="44.7666075" lon="9.8794466"><ele>330.3333333333333</ele><time>2026-03-28T10:46:57.711Z</time></trkpt><trkpt lat="44.7665117" lon="9.8793393"><ele>334.6666666666667</ele><time>2026-03-28T10:46:59.688Z</time></trkpt><trkpt lat="44.7664799" lon="9.8792558"><ele>339.0</ele><time>2026-03-28T10:47:00.728Z</time></trkpt><trkpt lat="44.7664333" lon="9.8790828"><ele>340.2</ele><time>2026-03-28T10:47:02.668Z</time></trkpt><trkpt lat="44.7663992" lon="9.8789793"><ele>341.4</ele><time>2026-03-28T10:47:03.667Z</time></trkpt><trkpt lat="44.7663233" lon="9.8788567"><ele>342.6</ele><time>2026-03-28T10:47:05.667Z</time></trkpt><trkpt lat="44.7662333" lon="9.8787867"><ele>343.8</ele><time>2026-03-28T10:47:07.665Z</time></trkpt><trkpt lat="44.7661567" lon="9.878705"><ele>345.0</ele><time>2026-03-28T10:47:09.666Z</time></trkpt><trkpt lat="44.76612" lon="9.8785767"><ele>344.6666666666667</ele><time>2026-03-28T10:47:11.666Z</time></trkpt><trkpt lat="44.7660467" lon="9.8784333"><ele>344.3333333333333</ele><time>2026-03-28T10:47:13.665Z</time></trkpt><trkpt lat="44.7660033" lon="9.878365"><ele>344.0</ele><time>2026-03-28T10:47:14.667Z</time></trkpt><trkpt lat="44.7659683" lon="9.8782883"><ele>343.66666666666663</ele><time>2026-03-28T10:47:15.666Z</time></trkpt><trkpt lat="44.765935" lon="9.8782033"><ele>343.3333333333333</ele><time>2026-03-28T10:47:16.665Z</time></trkpt><trkpt lat="44.76591" lon="9.878105"><ele>343.0</ele><time>2026-03-28T10:47:17.665Z</time></trkpt><trkpt lat="44.76588" lon="9.87801"><ele>347.16666666666663</ele><time>2026-03-28T10:47:18.666Z</time></trkpt><trkpt lat="44.76584" lon="9.8779133"><ele>351.3333333333333</ele><time>2026-03-28T10:47:19.666Z</time></trkpt><trkpt lat="44.7658017" lon="9.8778233"><ele>355.5</ele><time>2026-03-28T10:47:20.666Z</time></trkpt><trkpt lat="44.7657483" lon="9.8777317"><ele>359.6666666666667</ele><time>2026-03-28T10:47:21.666Z</time></trkpt><trkpt lat="44.7656983" lon="9.8776433"><ele>363.83333333333337</ele><time>2026-03-28T10:47:22.666Z</time></trkpt><trkpt lat="44.7656483" lon="9.8775633"><ele>368.0</ele><time>2026-03-28T10:47:23.666Z</time></trkpt><trkpt lat="44.76561" lon="9.877485"><ele>368.83333333333337</ele><time>2026-03-28T10:47:24.665Z</time></trkpt><trkpt lat="44.7655733" lon="9.8774"><ele>369.6666666666667</ele><time>2026-03-28T10:47:25.666Z</time></trkpt><trkpt lat="44.7655417" lon="9.8773"><ele>370.5</ele><time>2026-03-28T10:47:26.666Z</time></trkpt><trkpt lat="44.765505" lon="9.8771917"><ele>371.3333333333333</ele><time>2026-03-28T10:47:27.665Z</time></trkpt><trkpt lat="44.7654717" lon="9.8770917"><ele>372.16666666666663</ele><time>2026-03-28T10:47:28.666Z</time></trkpt><trkpt lat="44.7654517" lon="9.8769933"><ele>373.0</ele><time>2026-03-28T10:47:29.665Z</time></trkpt><trkpt lat="44.765425" lon="9.8768983"><ele>373.0</ele><time>2026-03-28T10:47:30.665Z</time></trkpt><trkpt lat="44.7654017" lon="9.876815"><ele>373.0</ele><time>2026-03-28T10:47:31.665Z</time></trkpt><trkpt lat="44.76534" lon="9.87665"><ele>373.0</ele><time>2026-03-28T10:47:33.665Z</time></trkpt><trkpt lat="44.7653133" lon="9.876555"><ele>373.0</ele><time>2026-03-28T10:47:34.665Z</time></trkpt><trkpt lat="44.76525" lon="9.8764233"><ele>373.0</ele><time>2026-03-28T10:47:36.666Z</time></trkpt><trkpt lat="44.7651633" lon="9.87634"><ele>377.66666666666663</ele><time>2026-03-28T10:47:38.669Z</time></trkpt><trkpt lat="44.7650483" lon="9.876385"><ele>382.3333333333333</ele><time>2026-03-28T10:47:40.666Z</time></trkpt><trkpt lat="44.7649867" lon="9.8764417"><ele>387.0</ele><time>2026-03-28T10:47:41.665Z</time></trkpt><trkpt lat="44.76493" lon="9.8764983"><ele>391.66666666666663</ele><time>2026-03-28T10:47:42.667Z</time></trkpt><trkpt lat="44.76487" lon="9.87655"><ele>396.3333333333333</ele><time>2026-03-28T10:47:43.667Z</time></trkpt><trkpt lat="44.764805" lon="9.8766017"><ele>401.0</ele><time>2026-03-28T10:47:44.666Z</time></trkpt><trkpt lat="44.7647433" lon="9.8766467"><ele>400.99999999999994</ele><time>2026-03-28T10:47:45.666Z</time></trkpt><trkpt lat="44.7646333" lon="9.8767267"><ele>401.0</ele><time>2026-03-28T10:47:47.666Z</time></trkpt><trkpt lat="44.7645733" lon="9.8767717"><ele>401.0</ele><time>2026-03-28T10:47:48.666Z</time></trkpt><trkpt lat="44.7644767" lon="9.8768417"><ele>401.0</ele><time>2026-03-28T10:47:50.666Z</time></trkpt><trkpt lat="44.76441" lon="9.87685"><ele>400.99999999999994</ele><time>2026-03-28T10:47:52.666Z</time></trkpt><trkpt lat="44.7643633" lon="9.8767817"><ele>401.0</ele><time>2026-03-28T10:47:54.667Z</time></trkpt><trkpt lat="44.764335" lon="9.8766733"><ele>406.0</ele><time>2026-03-28T10:47:56.666Z</time></trkpt><trkpt lat="44.7642883" lon="9.8765667"><ele>411.0</ele><time>2026-03-28T10:47:58.666Z</time></trkpt><trkpt lat="44.764225" lon="9.8764483"><ele>416.0</ele><time>2026-03-28T10:48:00.666Z</time></trkpt><trkpt lat="44.7641667" lon="9.8763633"><ele>421.0</ele><time>2026-03-28T10:48:02.667Z</time></trkpt><trkpt lat="44.7641167" lon="9.87644"><ele>426.0</ele><time>2026-03-28T10:48:05.665Z</time></trkpt><trkpt lat="44.7640917" lon="9.876605"><ele>426.0</ele><time>2026-03-28T10:48:07.666Z</time></trkpt><trkpt lat="44.76408" lon="9.8767"><ele>426.0</ele><time>2026-03-28T10:48:08.665Z</time></trkpt><trkpt lat="44.764065" lon="9.876795"><ele>426.0</ele><time>2026-03-28T10:48:09.665Z</time></trkpt><trkpt lat="44.76403" lon="9.8769617"><ele>426.0</ele><time>2026-03-28T10:48:11.665Z</time></trkpt><trkpt lat="44.7639717" lon="9.8770917"><ele>426.0</ele><time>2026-03-28T10:48:13.666Z</time></trkpt><trkpt lat="44.763875" lon="9.8771183"><ele>426.0</ele><time>2026-03-28T10:48:15.666Z</time></trkpt><trkpt lat="44.7637917" lon="9.8770133"><ele>426.0</ele><time>2026-03-28T10:48:17.666Z</time></trkpt><trkpt lat="44.76376" lon="9.8769167"><ele>426.0</ele><time>2026-03-28T10:48:18.665Z</time></trkpt><trkpt lat="44.76374" lon="9.8767967"><ele>426.0</ele><time>2026-03-28T10:48:19.665Z</time></trkpt><trkpt lat="44.7637167" lon="9.8766683"><ele>426.0</ele><time>2026-03-28T10:48:20.666Z</time></trkpt><trkpt lat="44.7636833" lon="9.876555"><ele>426.0</ele><time>2026-03-28T10:48:21.666Z</time></trkpt><trkpt lat="44.76365" lon="9.876455"><ele>426.0</ele><time>2026-03-28T10:48:22.667Z</time></trkpt><trkpt lat="44.763615" lon="9.8763633"><ele>426.0</ele><time>2026-03-28T10:48:23.665Z</time></trkpt><trkpt lat="44.7635717" lon="9.8762817"><ele>426.0</ele><time>2026-03-28T10:48:24.666Z</time></trkpt><trkpt lat="44.763525" lon="9.8762017"><ele>426.0</ele><time>2026-03-28T10:48:25.665Z</time></trkpt><trkpt lat="44.7634733" lon="9.8761267"><ele>426.0</ele><time>2026-03-28T10:48:26.666Z</time></trkpt><trkpt lat="44.7633933" lon="9.876025"><ele>428.4</ele><time>2026-03-28T10:48:28.665Z</time></trkpt><trkpt lat="44.7633067" lon="9.8759983"><ele>430.8</ele><time>2026-03-28T10:48:30.665Z</time></trkpt><trkpt lat="44.763175" lon="9.876045"><ele>433.19999999999993</ele><time>2026-03-28T10:48:32.666Z</time></trkpt><trkpt lat="44.7631033" lon="9.8760633"><ele>435.59999999999997</ele><time>2026-03-28T10:48:33.665Z</time></trkpt><trkpt lat="44.7629867" lon="9.8760517"><ele>438.0</ele><time>2026-03-28T10:48:35.665Z</time></trkpt><trkpt lat="44.7628717" lon="9.8759767"><ele>438.0</ele><time>2026-03-28T10:48:37.666Z</time></trkpt><trkpt lat="44.7628033" lon="9.875945"><ele>438.0</ele><time>2026-03-28T10:48:38.667Z</time></trkpt><trkpt lat="44.76272" lon="9.87592"><ele>438.0</ele><time>2026-03-28T10:48:39.665Z</time></trkpt><trkpt lat="44.7626467" lon="9.8758867"><ele>438.0</ele><time>2026-03-28T10:48:40.666Z</time></trkpt><trkpt lat="44.76258" lon="9.8758517"><ele>438.0</ele><time>2026-03-28T10:48:41.665Z</time></trkpt><trkpt lat="44.7625217" lon="9.8757967"><ele>438.0</ele><time>2026-03-28T10:48:42.665Z</time></trkpt><trkpt lat="44.7624767" lon="9.8757183"><ele>438.0</ele><time>2026-03-28T10:48:43.665Z</time></trkpt><trkpt lat="44.762435" lon="9.8756017"><ele>440.3333333333333</ele><time>2026-03-28T10:48:44.665Z</time></trkpt><trkpt lat="44.7623933" lon="9.8754933"><ele>442.66666666666663</ele><time>2026-03-28T10:48:45.666Z</time></trkpt><trkpt lat="44.7623467" lon="9.8753883"><ele>445.0</ele><time>2026-03-28T10:48:46.666Z</time></trkpt><trkpt lat="44.7622867" lon="9.8752933"><ele>447.3333333333333</ele><time>2026-03-28T10:48:47.666Z</time></trkpt><trkpt lat="44.76222" lon="9.8752033"><ele>449.66666666666663</ele><time>2026-03-28T10:48:48.666Z</time></trkpt><trkpt lat="44.7621517" lon="9.875125"><ele>452.0</ele><time>2026-03-28T10:48:49.666Z</time></trkpt><trkpt lat="44.76208" lon="9.875065"><ele>453.8</ele><time>2026-03-28T10:48:50.666Z</time></trkpt><trkpt lat="44.76201" lon="9.8750317"><ele>455.6</ele><time>2026-03-28T10:48:51.666Z</time></trkpt><trkpt lat="44.76189" lon="9.87501"><ele>457.40000000000003</ele><time>2026-03-28T10:48:53.666Z</time></trkpt><trkpt lat="44.76182" lon="9.8749833"><ele>459.20000000000005</ele><time>2026-03-28T10:48:55.665Z</time></trkpt><trkpt lat="44.7618717" lon="9.8748817"><ele>461.0</ele><time>2026-03-28T10:48:59.667Z</time></trkpt><trkpt lat="44.7619317" lon="9.8747767"><ele>460.99999999999994</ele><time>2026-03-28T10:49:01.666Z</time></trkpt><trkpt lat="44.7619517" lon="9.87464"><ele>461.0</ele><time>2026-03-28T10:49:03.665Z</time></trkpt><trkpt lat="44.7619617" lon="9.8744817"><ele>461.0</ele><time>2026-03-28T10:49:05.666Z</time></trkpt><trkpt lat="44.7619683" lon="9.8743933"><ele>461.0</ele><time>2026-03-28T10:49:06.666Z</time></trkpt><trkpt lat="44.7619683" lon="9.8742983"><ele>460.99999999999994</ele><time>2026-03-28T10:49:07.664Z</time></trkpt><trkpt lat="44.7619683" lon="9.8741867"><ele>461.0</ele><time>2026-03-28T10:49:08.665Z</time></trkpt><trkpt lat="44.761955" lon="9.8740783"><ele>460.16666666666663</ele><time>2026-03-28T10:49:09.665Z</time></trkpt><trkpt lat="44.7619283" lon="9.8739733"><ele>459.3333333333333</ele><time>2026-03-28T10:49:10.666Z</time></trkpt><trkpt lat="44.761885" lon="9.873875"><ele>458.5</ele><time>2026-03-28T10:49:11.666Z</time></trkpt><trkpt lat="44.761835" lon="9.8737667"><ele>457.66666666666663</ele><time>2026-03-28T10:49:12.666Z</time></trkpt><trkpt lat="44.7617933" lon="9.8736467"><ele>456.8333333333333</ele><time>2026-03-28T10:49:13.665Z</time></trkpt><trkpt lat="44.7617617" lon="9.8735317"><ele>456.0</ele><time>2026-03-28T10:49:14.667Z</time></trkpt><trkpt lat="44.761745" lon="9.8734233"><ele>459.1666666666667</ele><time>2026-03-28T10:49:15.665Z</time></trkpt><trkpt lat="44.76175" lon="9.8733267"><ele>462.33333333333337</ele><time>2026-03-28T10:49:16.665Z</time></trkpt><trkpt lat="44.7617683" lon="9.8731667"><ele>465.5</ele><time>2026-03-28T10:49:18.666Z</time></trkpt><trkpt lat="44.76176" lon="9.8730567"><ele>468.6666666666667</ele><time>2026-03-28T10:49:20.666Z</time></trkpt><trkpt lat="44.7617283" lon="9.8729567"><ele>471.83333333333337</ele><time>2026-03-28T10:49:22.666Z</time></trkpt><trkpt lat="44.7616917" lon="9.8728233"><ele>475.0</ele><time>2026-03-28T10:49:24.665Z</time></trkpt><trkpt lat="44.7616667" lon="9.87274"><ele>475.00000000000006</ele><time>2026-03-28T10:49:25.665Z</time></trkpt><trkpt lat="44.7616233" lon="9.8726583"><ele>475.0</ele><time>2026-03-28T10:49:26.665Z</time></trkpt><trkpt lat="44.7615633" lon="9.8725783"><ele>475.0</ele><time>2026-03-28T10:49:27.665Z</time></trkpt><trkpt lat="44.7614883" lon="9.8725117"><ele>475.0</ele><time>2026-03-28T10:49:28.665Z</time></trkpt><trkpt lat="44.7614083" lon="9.872465"><ele>475.00000000000006</ele><time>2026-03-28T10:49:29.666Z</time></trkpt><trkpt lat="44.7613267" lon="9.8724383"><ele>475.0</ele><time>2026-03-28T10:49:30.665Z</time></trkpt><trkpt lat="44.7612433" lon="9.8724267"><ele>474.1666666666667</ele><time>2026-03-28T10:49:31.665Z</time></trkpt><trkpt lat="44.7611667" lon="9.8724233"><ele>473.33333333333337</ele><time>2026-03-28T10:49:32.666Z</time></trkpt><trkpt lat="44.7610933" lon="9.8724217"><ele>472.5</ele><time>2026-03-28T10:49:33.665Z</time></trkpt><trkpt lat="44.7610183" lon="9.8724183"><ele>471.66666666666663</ele><time>2026-03-28T10:49:34.666Z</time></trkpt><trkpt lat="44.76094" lon="9.8724117"><ele>470.8333333333333</ele><time>2026-03-28T10:49:35.665Z</time></trkpt><trkpt lat="44.7608467" lon="9.8724033"><ele>470.0</ele><time>2026-03-28T10:49:36.666Z</time></trkpt><trkpt lat="44.7607533" lon="9.8723867"><ele>474.4</ele><time>2026-03-28T10:49:37.665Z</time></trkpt><trkpt lat="44.76066" lon="9.872365"><ele>478.8</ele><time>2026-03-28T10:49:38.667Z</time></trkpt><trkpt lat="44.7605617" lon="9.8723417"><ele>483.20000000000005</ele><time>2026-03-28T10:49:39.664Z</time></trkpt><trkpt lat="44.760465" lon="9.872305"><ele>487.6</ele><time>2026-03-28T10:49:40.666Z</time></trkpt><trkpt lat="44.760365" lon="9.872265"><ele>492.0</ele><time>2026-03-28T10:49:41.665Z</time></trkpt><trkpt lat="44.76026" lon="9.87222"><ele>495.20000000000005</ele><time>2026-03-28T10:49:42.665Z</time></trkpt><trkpt lat="44.7601533" lon="9.87217"><ele>498.40000000000003</ele><time>2026-03-28T10:49:43.665Z</time></trkpt><trkpt lat="44.7600467" lon="9.8721183"><ele>501.59999999999997</ele><time>2026-03-28T10:49:44.666Z</time></trkpt><trkpt lat="44.7599417" lon="9.8720767"><ele>504.79999999999995</ele><time>2026-03-28T10:49:45.666Z</time></trkpt><trkpt lat="44.7598467" lon="9.8720483"><ele>508.0</ele><time>2026-03-28T10:49:46.665Z</time></trkpt><trkpt lat="44.7597517" lon="9.8720367"><ele>508.0</ele><time>2026-03-28T10:49:47.666Z</time></trkpt><trkpt lat="44.7596483" lon="9.8720317"><ele>507.99999999999994</ele><time>2026-03-28T10:49:48.666Z</time></trkpt><trkpt lat="44.75954" lon="9.872035"><ele>507.99999999999994</ele><time>2026-03-28T10:49:49.665Z</time></trkpt><trkpt lat="44.7594333" lon="9.8720533"><ele>508.0</ele><time>2026-03-28T10:49:50.666Z</time></trkpt><trkpt lat="44.7593267" lon="9.8720967"><ele>508.0</ele><time>2026-03-28T10:49:51.666Z</time></trkpt><trkpt lat="44.7592317" lon="9.8721517"><ele>508.4</ele><time>2026-03-28T10:49:52.665Z</time></trkpt><trkpt lat="44.7591383" lon="9.8722067"><ele>508.79999999999995</ele><time>2026-03-28T10:49:53.665Z</time></trkpt><trkpt lat="44.75905" lon="9.872245"><ele>509.2</ele><time>2026-03-28T10:49:54.665Z</time></trkpt><trkpt lat="44.7589617" lon="9.87226"><ele>509.6</ele><time>2026-03-28T10:49:55.665Z</time></trkpt><trkpt lat="44.758865" lon="9.8722733"><ele>510.0</ele><time>2026-03-28T10:49:56.666Z</time></trkpt><trkpt lat="44.7587733" lon="9.8722867"><ele>510.0</ele><time>2026-03-28T10:49:57.666Z</time></trkpt><trkpt lat="44.7586783" lon="9.8723067"><ele>510.0</ele><time>2026-03-28T10:49:58.665Z</time></trkpt><trkpt lat="44.75859" lon="9.8723267"><ele>510.0</ele><time>2026-03-28T10:49:59.665Z</time></trkpt><trkpt lat="44.7585017" lon="9.8723517"><ele>510.0</ele><time>2026-03-28T10:50:00.666Z</time></trkpt><trkpt lat="44.7584083" lon="9.8723883"><ele>510.0</ele><time>2026-03-28T10:50:01.667Z</time></trkpt><trkpt lat="44.7583117" lon="9.87243"><ele>510.0</ele><time>2026-03-28T10:50:02.666Z</time></trkpt><trkpt lat="44.758215" lon="9.87248"><ele>510.0</ele><time>2026-03-28T10:50:03.665Z</time></trkpt><trkpt lat="44.7581183" lon="9.87254"><ele>510.0</ele><time>2026-03-28T10:50:04.666Z</time></trkpt><trkpt lat="44.75802" lon="9.872615"><ele>510.0</ele><time>2026-03-28T10:50:05.666Z</time></trkpt><trkpt lat="44.757925" lon="9.8726883"><ele>510.0</ele><time>2026-03-28T10:50:06.666Z</time></trkpt><trkpt lat="44.7578317" lon="9.8727517"><ele>510.0</ele><time>2026-03-28T10:50:07.665Z</time></trkpt><trkpt lat="44.7577333" lon="9.8728167"><ele>510.0</ele><time>2026-03-28T10:50:08.666Z</time></trkpt><trkpt lat="44.75763" lon="9.8728883"><ele>510.0</ele><time>2026-03-28T10:50:09.665Z</time></trkpt><trkpt lat="44.757525" lon="9.8729583"><ele>510.0</ele><time>2026-03-28T10:50:10.666Z</time></trkpt><trkpt lat="44.7574183" lon="9.8730233"><ele>512.4</ele><time>2026-03-28T10:50:11.667Z</time></trkpt><trkpt lat="44.7573167" lon="9.8730867"><ele>514.8</ele><time>2026-03-28T10:50:12.665Z</time></trkpt><trkpt lat="44.757225" lon="9.873145"><ele>517.2</ele><time>2026-03-28T10:50:13.666Z</time></trkpt><trkpt lat="44.7571417" lon="9.8732"><ele>519.6</ele><time>2026-03-28T10:50:14.666Z</time></trkpt><trkpt lat="44.7570683" lon="9.87325"><ele>522.0</ele><time>2026-03-28T10:50:15.666Z</time></trkpt><trkpt lat="44.757" lon="9.8732833"><ele>522.0</ele><time>2026-03-28T10:50:16.666Z</time></trkpt><trkpt lat="44.7568817" lon="9.873305"><ele>522.0</ele><time>2026-03-28T10:50:18.666Z</time></trkpt><trkpt lat="44.756795" lon="9.8733417"><ele>522.0</ele><time>2026-03-28T10:50:20.665Z</time></trkpt><trkpt lat="44.7567267" lon="9.8734117"><ele>522.0</ele><time>2026-03-28T10:50:22.666Z</time></trkpt><trkpt lat="44.7566717" lon="9.8735133"><ele>522.0</ele><time>2026-03-28T10:50:24.666Z</time></trkpt><trkpt lat="44.7566067" lon="9.8735833"><ele>521.4</ele><time>2026-03-28T10:50:26.666Z</time></trkpt><trkpt lat="44.756495" lon="9.8736117"><ele>520.8000000000001</ele><time>2026-03-28T10:50:28.666Z</time></trkpt><trkpt lat="44.756375" lon="9.8736783"><ele>520.2</ele><time>2026-03-28T10:50:30.668Z</time></trkpt><trkpt lat="44.7563167" lon="9.873725"><ele>519.6</ele><time>2026-03-28T10:50:31.665Z</time></trkpt><trkpt lat="44.7562233" lon="9.8738333"><ele>519.0</ele><time>2026-03-28T10:50:33.665Z</time></trkpt><trkpt lat="44.75613" lon="9.8739317"><ele>525.2</ele><time>2026-03-28T10:50:35.666Z</time></trkpt><trkpt lat="44.7560283" lon="9.8740267"><ele>531.4</ele><time>2026-03-28T10:50:37.666Z</time></trkpt><trkpt lat="44.75593" lon="9.874095"><ele>537.6</ele><time>2026-03-28T10:50:39.666Z</time></trkpt><trkpt lat="44.7558283" lon="9.874135"><ele>543.8</ele><time>2026-03-28T10:50:41.664Z</time></trkpt><trkpt lat="44.7557517" lon="9.8741533"><ele>550.0</ele><time>2026-03-28T10:50:43.665Z</time></trkpt><trkpt lat="44.7556767" lon="9.8741633"><ele>550.0</ele><time>2026-03-28T10:50:45.666Z</time></trkpt><trkpt lat="44.755585" lon="9.8741617"><ele>550.0</ele><time>2026-03-28T10:50:48.665Z</time></trkpt><trkpt lat="44.7555233" lon="9.8741333"><ele>550.0</ele><time>2026-03-28T10:50:50.666Z</time></trkpt><trkpt lat="44.7554322" lon="9.8740992"><ele>550.0</ele><time>2026-03-28T10:51:05.723Z</time></trkpt><trkpt lat="44.755301" lon="9.874079"><ele>550.0</ele><time>2026-03-28T10:51:08.74Z</time></trkpt><trkpt lat="44.7552379" lon="9.8740684"><ele>550.0</ele><time>2026-03-28T10:51:11.733Z</time></trkpt><trkpt lat="44.7551501" lon="9.874128"><ele>554.3333333333334</ele><time>2026-03-28T10:51:12.667Z</time></trkpt><trkpt lat="44.7550842" lon="9.8741847"><ele>558.6666666666667</ele><time>2026-03-28T10:51:13.665Z</time></trkpt><trkpt lat="44.755023" lon="9.8742376"><ele>563.0</ele><time>2026-03-28T10:51:14.666Z</time></trkpt><trkpt lat="44.7549304" lon="9.874336"><ele>567.3333333333334</ele><time>2026-03-28T10:51:16.666Z</time></trkpt><trkpt lat="44.754889" lon="9.8744548"><ele>571.6666666666666</ele><time>2026-03-28T10:51:18.665Z</time></trkpt><trkpt lat="44.75487" lon="9.874555"><ele>576.0</ele><time>2026-03-28T10:51:21.666Z</time></trkpt><trkpt lat="44.7548267" lon="9.8746533"><ele>577.6</ele><time>2026-03-28T10:52:23.667Z</time></trkpt><trkpt lat="44.754755" lon="9.8747617"><ele>579.2</ele><time>2026-03-28T10:52:25.666Z</time></trkpt><trkpt lat="44.7546383" lon="9.8748633"><ele>580.8</ele><time>2026-03-28T10:52:27.666Z</time></trkpt><trkpt lat="44.7545717" lon="9.8749083"><ele>582.4</ele><time>2026-03-28T10:52:28.666Z</time></trkpt><trkpt lat="44.7545017" lon="9.8749583"><ele>584.0</ele><time>2026-03-28T10:52:29.665Z</time></trkpt><trkpt lat="44.7544433" lon="9.87501"><ele>584.0</ele><time>2026-03-28T10:52:30.666Z</time></trkpt><trkpt lat="44.7543833" lon="9.87505"><ele>584.0</ele><time>2026-03-28T10:52:31.665Z</time></trkpt><trkpt lat="44.754315" lon="9.8750867"><ele>584.0</ele><time>2026-03-28T10:52:32.666Z</time></trkpt><trkpt lat="44.754205" lon="9.8751617"><ele>584.0</ele><time>2026-03-28T10:52:34.666Z</time></trkpt><trkpt lat="44.7540967" lon="9.8751733"><ele>584.0</ele><time>2026-03-28T10:52:36.666Z</time></trkpt><trkpt lat="44.7540333" lon="9.8751783"><ele>584.0</ele><time>2026-03-28T10:52:37.665Z</time></trkpt><trkpt lat="44.7539217" lon="9.875185"><ele>583.8</ele><time>2026-03-28T10:52:39.666Z</time></trkpt><trkpt lat="44.753805" lon="9.8751517"><ele>583.5999999999999</ele><time>2026-03-28T10:52:41.665Z</time></trkpt><trkpt lat="44.7537417" lon="9.8751533"><ele>583.4</ele><time>2026-03-28T10:52:42.666Z</time></trkpt><trkpt lat="44.7536167" lon="9.87521"><ele>583.1999999999999</ele><time>2026-03-28T10:52:44.666Z</time></trkpt><trkpt lat="44.753545" lon="9.875245"><ele>583.0</ele><time>2026-03-28T10:52:45.667Z</time></trkpt><trkpt lat="44.7534767" lon="9.8752817"><ele>584.8</ele><time>2026-03-28T10:52:46.664Z</time></trkpt><trkpt lat="44.7534117" lon="9.875325"><ele>586.5999999999999</ele><time>2026-03-28T10:52:47.666Z</time></trkpt><trkpt lat="44.7533167" lon="9.8753917"><ele>588.4000000000001</ele><time>2026-03-28T10:52:49.666Z</time></trkpt><trkpt lat="44.7532033" lon="9.8754317"><ele>590.2</ele><time>2026-03-28T10:52:51.666Z</time></trkpt><trkpt lat="44.7531233" lon="9.8754617"><ele>592.0</ele><time>2026-03-28T10:52:52.667Z</time></trkpt><trkpt lat="44.75304" lon="9.8754967"><ele>592.0</ele><time>2026-03-28T10:52:53.666Z</time></trkpt><trkpt lat="44.752955" lon="9.87553"><ele>592.0</ele><time>2026-03-28T10:52:54.667Z</time></trkpt><trkpt lat="44.7528817" lon="9.87554"><ele>592.0</ele><time>2026-03-28T10:52:55.67Z</time></trkpt><trkpt lat="44.7528117" lon="9.8755333"><ele>592.0</ele><time>2026-03-28T10:52:56.667Z</time></trkpt><trkpt lat="44.752745" lon="9.875525"><ele>592.0</ele><time>2026-03-28T10:52:57.666Z</time></trkpt><trkpt lat="44.752645" lon="9.875525"><ele>592.0</ele><time>2026-03-28T10:52:59.666Z</time></trkpt><trkpt lat="44.7525367" lon="9.87554"><ele>594.2</ele><time>2026-03-28T10:53:01.666Z</time></trkpt><trkpt lat="44.75244" lon="9.8755383"><ele>596.4000000000001</ele><time>2026-03-28T10:53:03.666Z</time></trkpt><trkpt lat="44.75232" lon="9.875525"><ele>598.5999999999999</ele><time>2026-03-28T10:53:05.666Z</time></trkpt><trkpt lat="44.7522433" lon="9.8755217"><ele>600.8</ele><time>2026-03-28T10:53:06.666Z</time></trkpt><trkpt lat="44.75216" lon="9.875525"><ele>603.0</ele><time>2026-03-28T10:53:07.665Z</time></trkpt><trkpt lat="44.7520833" lon="9.8755333"><ele>603.0</ele><time>2026-03-28T10:53:08.666Z</time></trkpt><trkpt lat="44.7520117" lon="9.87554"><ele>603.0</ele><time>2026-03-28T10:53:09.666Z</time></trkpt><trkpt lat="44.751945" lon="9.8755433"><ele>603.0</ele><time>2026-03-28T10:53:10.671Z</time></trkpt><trkpt lat="44.751875" lon="9.87555"><ele>603.0</ele><time>2026-03-28T10:53:11.666Z</time></trkpt><trkpt lat="44.7518017" lon="9.8755533"><ele>603.0</ele><time>2026-03-28T10:53:12.666Z</time></trkpt><trkpt lat="44.7517183" lon="9.8755517"><ele>603.0</ele><time>2026-03-28T10:53:13.665Z</time></trkpt><trkpt lat="44.7516383" lon="9.87554"><ele>603.0</ele><time>2026-03-28T10:53:14.666Z</time></trkpt><trkpt lat="44.7515567" lon="9.8755267"><ele>604.4</ele><time>2026-03-28T10:53:15.665Z</time></trkpt><trkpt lat="44.751475" lon="9.8755167"><ele>605.8</ele><time>2026-03-28T10:53:16.667Z</time></trkpt><trkpt lat="44.7513983" lon="9.8755117"><ele>607.2</ele><time>2026-03-28T10:53:17.666Z</time></trkpt><trkpt lat="44.75133" lon="9.8755067"><ele>608.6</ele><time>2026-03-28T10:53:18.666Z</time></trkpt><trkpt lat="44.751215" lon="9.87549"><ele>610.0</ele><time>2026-03-28T10:53:20.666Z</time></trkpt><trkpt lat="44.7510967" lon="9.8754633"><ele>611.0</ele><time>2026-03-28T10:53:22.666Z</time></trkpt><trkpt lat="44.7510283" lon="9.8754433"><ele>612.0</ele><time>2026-03-28T10:53:23.669Z</time></trkpt><trkpt lat="44.7509133" lon="9.8754183"><ele>613.0</ele><time>2026-03-28T10:53:25.668Z</time></trkpt><trkpt lat="44.7508467" lon="9.8754017"><ele>614.0</ele><time>2026-03-28T10:53:26.666Z</time></trkpt><trkpt lat="44.7507667" lon="9.8753717"><ele>615.0</ele><time>2026-03-28T10:53:27.667Z</time></trkpt><trkpt lat="44.7506983" lon="9.87533"><ele>616.0</ele><time>2026-03-28T10:53:28.665Z</time></trkpt><trkpt lat="44.7506283" lon="9.8752733"><ele>616.0</ele><time>2026-03-28T10:53:29.667Z</time></trkpt><trkpt lat="44.7505683" lon="9.8752067"><ele>616.0</ele><time>2026-03-28T10:53:30.665Z</time></trkpt><trkpt lat="44.7505183" lon="9.8751233"><ele>616.0</ele><time>2026-03-28T10:53:31.667Z</time></trkpt><trkpt lat="44.7504783" lon="9.8750383"><ele>616.0</ele><time>2026-03-28T10:53:32.667Z</time></trkpt><trkpt lat="44.75044" lon="9.8749433"><ele>616.0</ele><time>2026-03-28T10:53:33.665Z</time></trkpt><trkpt lat="44.7504" lon="9.8748417"><ele>616.0</ele><time>2026-03-28T10:53:34.666Z</time></trkpt><trkpt lat="44.750345" lon="9.8747417"><ele>616.0</ele><time>2026-03-28T10:53:35.665Z</time></trkpt><trkpt lat="44.7502667" lon="9.8746467"><ele>616.0</ele><time>2026-03-28T10:53:36.665Z</time></trkpt><trkpt lat="44.7501717" lon="9.8745517"><ele>616.0</ele><time>2026-03-28T10:53:37.666Z</time></trkpt><trkpt lat="44.7500733" lon="9.8744483"><ele>616.0</ele><time>2026-03-28T10:53:38.665Z</time></trkpt><trkpt lat="44.7499817" lon="9.8743483"><ele>616.0</ele><time>2026-03-28T10:53:39.665Z</time></trkpt><trkpt lat="44.7499033" lon="9.87427"><ele>616.0</ele><time>2026-03-28T10:53:40.666Z</time></trkpt><trkpt lat="44.7498283" lon="9.8742183"><ele>616.0</ele><time>2026-03-28T10:53:41.665Z</time></trkpt><trkpt lat="44.7497583" lon="9.8742317"><ele>616.0</ele><time>2026-03-28T10:53:42.666Z</time></trkpt><trkpt lat="44.7496817" lon="9.8742733"><ele>616.0</ele><time>2026-03-28T10:53:43.666Z</time></trkpt><trkpt lat="44.7496" lon="9.8743067"><ele>616.0</ele><time>2026-03-28T10:53:44.667Z</time></trkpt><trkpt lat="44.74952" lon="9.8743133"><ele>616.0</ele><time>2026-03-28T10:53:45.665Z</time></trkpt><trkpt lat="44.7494383" lon="9.874295"><ele>616.0</ele><time>2026-03-28T10:53:46.666Z</time></trkpt><trkpt lat="44.7493683" lon="9.8742417"><ele>616.0</ele><time>2026-03-28T10:53:47.667Z</time></trkpt><trkpt lat="44.74932" lon="9.87418"><ele>616.0</ele><time>2026-03-28T10:53:48.668Z</time></trkpt><trkpt lat="44.7492533" lon="9.8740783"><ele>616.0</ele><time>2026-03-28T10:53:50.669Z</time></trkpt><trkpt lat="44.7492317" lon="9.87398"><ele>616.0</ele><time>2026-03-28T10:53:52.667Z</time></trkpt><trkpt lat="44.7492517" lon="9.873835"><ele>616.0</ele><time>2026-03-28T10:53:54.666Z</time></trkpt><trkpt lat="44.749265" lon="9.8737467"><ele>616.0</ele><time>2026-03-28T10:53:55.666Z</time></trkpt><trkpt lat="44.7492717" lon="9.8736517"><ele>616.0</ele><time>2026-03-28T10:53:56.666Z</time></trkpt><trkpt lat="44.749265" lon="9.8735583"><ele>616.0</ele><time>2026-03-28T10:53:57.666Z</time></trkpt><trkpt lat="44.7492533" lon="9.8734517"><ele>616.0</ele><time>2026-03-28T10:53:58.666Z</time></trkpt><trkpt lat="44.7492467" lon="9.87334"><ele>616.0</ele><time>2026-03-28T10:53:59.666Z</time></trkpt><trkpt lat="44.7492467" lon="9.8732317"><ele>616.0</ele><time>2026-03-28T10:54:00.665Z</time></trkpt><trkpt lat="44.749245" lon="9.8731167"><ele>616.8</ele><time>2026-03-28T10:54:01.666Z</time></trkpt><trkpt lat="44.7492417" lon="9.8730033"><ele>617.6</ele><time>2026-03-28T10:54:02.666Z</time></trkpt><trkpt lat="44.7492383" lon="9.87289"><ele>618.4</ele><time>2026-03-28T10:54:03.666Z</time></trkpt><trkpt lat="44.7492333" lon="9.8727667"><ele>619.2</ele><time>2026-03-28T10:54:04.665Z</time></trkpt><trkpt lat="44.7492267" lon="9.8726183"><ele>620.0</ele><time>2026-03-28T10:54:05.667Z</time></trkpt><trkpt lat="44.749215" lon="9.8724717"><ele>620.2</ele><time>2026-03-28T10:54:06.666Z</time></trkpt><trkpt lat="44.7491983" lon="9.87233"><ele>620.4</ele><time>2026-03-28T10:54:07.666Z</time></trkpt><trkpt lat="44.74918" lon="9.8721983"><ele>620.6</ele><time>2026-03-28T10:54:08.666Z</time></trkpt><trkpt lat="44.7491517" lon="9.87207"><ele>620.8</ele><time>2026-03-28T10:54:09.666Z</time></trkpt><trkpt lat="44.74911" lon="9.8719517"><ele>621.0</ele><time>2026-03-28T10:54:10.665Z</time></trkpt><trkpt lat="44.74906" lon="9.8718583"><ele>622.0</ele><time>2026-03-28T10:54:11.666Z</time></trkpt><trkpt lat="44.7490017" lon="9.8717717"><ele>623.0</ele><time>2026-03-28T10:54:12.666Z</time></trkpt><trkpt lat="44.7489433" lon="9.8716783"><ele>624.0</ele><time>2026-03-28T10:54:13.667Z</time></trkpt><trkpt lat="44.7488917" lon="9.8715683"><ele>625.0</ele><time>2026-03-28T10:54:14.665Z</time></trkpt><trkpt lat="44.74884" lon="9.8714417"><ele>626.0</ele><time>2026-03-28T10:54:15.666Z</time></trkpt><trkpt lat="44.7487917" lon="9.871315"><ele>626.0</ele><time>2026-03-28T10:54:16.667Z</time></trkpt><trkpt lat="44.7487517" lon="9.8712067"><ele>626.0</ele><time>2026-03-28T10:54:17.669Z</time></trkpt><trkpt lat="44.7487267" lon="9.8711117"><ele>626.0</ele><time>2026-03-28T10:54:18.666Z</time></trkpt><trkpt lat="44.7487183" lon="9.8709417"><ele>626.0</ele><time>2026-03-28T10:54:20.666Z</time></trkpt><trkpt lat="44.748715" lon="9.8708433"><ele>626.0</ele><time>2026-03-28T10:54:21.668Z</time></trkpt><trkpt lat="44.7487" lon="9.8707333"><ele>626.0</ele><time>2026-03-28T10:54:22.665Z</time></trkpt><trkpt lat="44.7486683" lon="9.870615"><ele>627.1666666666666</ele><time>2026-03-28T10:54:23.666Z</time></trkpt><trkpt lat="44.748625" lon="9.870505"><ele>628.3333333333333</ele><time>2026-03-28T10:54:24.666Z</time></trkpt><trkpt lat="44.7485833" lon="9.8704"><ele>629.5</ele><time>2026-03-28T10:54:25.665Z</time></trkpt><trkpt lat="44.74854" lon="9.8702583"><ele>630.6666666666666</ele><time>2026-03-28T10:54:27.665Z</time></trkpt><trkpt lat="44.7485433" lon="9.87014"><ele>631.8333333333334</ele><time>2026-03-28T10:54:29.665Z</time></trkpt><trkpt lat="44.7485333" lon="9.8700283"><ele>633.0</ele><time>2026-03-28T10:54:31.667Z</time></trkpt><trkpt lat="44.74853" lon="9.8698817"><ele>636.2857142857142</ele><time>2026-03-28T10:54:33.665Z</time></trkpt><trkpt lat="44.748515" lon="9.8697933"><ele>639.5714285714286</ele><time>2026-03-28T10:54:34.666Z</time></trkpt><trkpt lat="44.7484933" lon="9.869695"><ele>642.8571428571429</ele><time>2026-03-28T10:54:35.666Z</time></trkpt><trkpt lat="44.7484733" lon="9.86959"><ele>646.1428571428571</ele><time>2026-03-28T10:54:36.665Z</time></trkpt><trkpt lat="44.7484467" lon="9.8694883"><ele>649.4285714285714</ele><time>2026-03-28T10:54:37.665Z</time></trkpt><trkpt lat="44.748415" lon="9.8694033"><ele>652.7142857142857</ele><time>2026-03-28T10:54:38.666Z</time></trkpt><trkpt lat="44.7483867" lon="9.86932"><ele>656.0</ele><time>2026-03-28T10:54:39.665Z</time></trkpt><trkpt lat="44.7483383" lon="9.86921"><ele>657.4</ele><time>2026-03-28T10:54:41.666Z</time></trkpt><trkpt lat="44.7483567" lon="9.869075"><ele>658.8</ele><time>2026-03-28T10:56:34.666Z</time></trkpt><trkpt lat="44.7483717" lon="9.868945"><ele>660.1999999999999</ele><time>2026-03-28T10:56:36.665Z</time></trkpt><trkpt lat="44.7483717" lon="9.8687933"><ele>661.5999999999999</ele><time>2026-03-28T10:56:38.666Z</time></trkpt><trkpt lat="44.74837" lon="9.8686233"><ele>663.0</ele><time>2026-03-28T10:56:40.666Z</time></trkpt><trkpt lat="44.7483517" lon="9.8684717"><ele>663.3333333333334</ele><time>2026-03-28T10:56:42.666Z</time></trkpt><trkpt lat="44.7482817" lon="9.8683283"><ele>663.6666666666666</ele><time>2026-03-28T10:56:44.666Z</time></trkpt><trkpt lat="44.7482417" lon="9.8682483"><ele>664.0</ele><time>2026-03-28T10:56:45.666Z</time></trkpt><trkpt lat="44.7481933" lon="9.8681567"><ele>664.3333333333333</ele><time>2026-03-28T10:56:46.667Z</time></trkpt><trkpt lat="44.7481483" lon="9.868075"><ele>664.6666666666666</ele><time>2026-03-28T10:56:47.666Z</time></trkpt><trkpt lat="44.7481117" lon="9.8679983"><ele>665.0</ele><time>2026-03-28T10:56:48.665Z</time></trkpt><trkpt lat="44.7480667" lon="9.867935"><ele>665.0</ele><time>2026-03-28T10:56:49.666Z</time></trkpt><trkpt lat="44.7480167" lon="9.867875"><ele>665.0</ele><time>2026-03-28T10:56:50.666Z</time></trkpt><trkpt lat="44.7479633" lon="9.8678167"><ele>665.0</ele><time>2026-03-28T10:56:52.665Z</time></trkpt><trkpt lat="44.74792" lon="9.867725"><ele>665.0</ele><time>2026-03-28T10:56:56.667Z</time></trkpt><trkpt lat="44.7478883" lon="9.8676"><ele>665.0</ele><time>2026-03-28T10:56:59.666Z</time></trkpt><trkpt lat="44.74787" lon="9.8674667"><ele>665.0</ele><time>2026-03-28T10:57:01.665Z</time></trkpt><trkpt lat="44.74785" lon="9.8673817"><ele>663.8</ele><time>2026-03-28T10:57:02.666Z</time></trkpt><trkpt lat="44.7478467" lon="9.867285"><ele>662.6</ele><time>2026-03-28T10:57:03.666Z</time></trkpt><trkpt lat="44.7478383" lon="9.8670983"><ele>661.4000000000001</ele><time>2026-03-28T10:57:05.665Z</time></trkpt><trkpt lat="44.7478467" lon="9.8669733"><ele>660.2</ele><time>2026-03-28T10:57:06.665Z</time></trkpt><trkpt lat="44.7478567" lon="9.866845"><ele>659.0</ele><time>2026-03-28T10:57:07.665Z</time></trkpt><trkpt lat="44.7478617" lon="9.8666967"><ele>659.0</ele><time>2026-03-28T10:57:08.666Z</time></trkpt><trkpt lat="44.747855" lon="9.8665717"><ele>659.0</ele><time>2026-03-28T10:57:09.665Z</time></trkpt><trkpt lat="44.747845" lon="9.8664683"><ele>659.0</ele><time>2026-03-28T10:57:10.666Z</time></trkpt><trkpt lat="44.7478267" lon="9.8663483"><ele>659.0</ele><time>2026-03-28T10:57:11.665Z</time></trkpt><trkpt lat="44.7478133" lon="9.8662533"><ele>659.0</ele><time>2026-03-28T10:57:12.666Z</time></trkpt><trkpt lat="44.7478" lon="9.866165"><ele>659.0</ele><time>2026-03-28T10:57:13.666Z</time></trkpt><trkpt lat="44.7477733" lon="9.8660167"><ele>659.1666666666666</ele><time>2026-03-28T10:57:15.67Z</time></trkpt><trkpt lat="44.74782" lon="9.8658767"><ele>659.3333333333333</ele><time>2026-03-28T10:57:17.666Z</time></trkpt><trkpt lat="44.74786" lon="9.86579"><ele>659.5</ele><time>2026-03-28T10:57:18.666Z</time></trkpt><trkpt lat="44.7479033" lon="9.8657083"><ele>659.6666666666666</ele><time>2026-03-28T10:57:19.668Z</time></trkpt><trkpt lat="44.74794" lon="9.8655933"><ele>659.8333333333334</ele><time>2026-03-28T10:57:20.667Z</time></trkpt><trkpt lat="44.7479633" lon="9.8654817"><ele>660.0</ele><time>2026-03-28T10:57:21.666Z</time></trkpt><trkpt lat="44.74798" lon="9.86538"><ele>660.0</ele><time>2026-03-28T10:57:22.665Z</time></trkpt><trkpt lat="44.7479883" lon="9.86526"><ele>660.0</ele><time>2026-03-28T10:57:23.666Z</time></trkpt><trkpt lat="44.74798" lon="9.86515"><ele>660.0</ele><time>2026-03-28T10:57:24.665Z</time></trkpt><trkpt lat="44.74795" lon="9.8650367"><ele>660.0</ele><time>2026-03-28T10:57:25.665Z</time></trkpt><trkpt lat="44.7479067" lon="9.8649133"><ele>660.0</ele><time>2026-03-28T10:57:26.666Z</time></trkpt><trkpt lat="44.7478767" lon="9.8647967"><ele>660.0</ele><time>2026-03-28T10:57:27.665Z</time></trkpt><trkpt lat="44.7478433" lon="9.8647067"><ele>659.6</ele><time>2026-03-28T10:57:28.665Z</time></trkpt><trkpt lat="44.7477817" lon="9.86461"><ele>659.2</ele><time>2026-03-28T10:57:30.665Z</time></trkpt><trkpt lat="44.7477183" lon="9.8645267"><ele>658.8</ele><time>2026-03-28T10:57:32.665Z</time></trkpt><trkpt lat="44.7476117" lon="9.864415"><ele>658.4</ele><time>2026-03-28T10:57:34.665Z</time></trkpt><trkpt lat="44.7475467" lon="9.864355"><ele>658.0</ele><time>2026-03-28T10:57:35.667Z</time></trkpt><trkpt lat="44.7474867" lon="9.8643017"><ele>660.3333333333334</ele><time>2026-03-28T10:57:36.666Z</time></trkpt><trkpt lat="44.7474283" lon="9.864265"><ele>662.6666666666667</ele><time>2026-03-28T10:57:37.667Z</time></trkpt><trkpt lat="44.747325" lon="9.8642317"><ele>665.0</ele><time>2026-03-28T10:57:39.665Z</time></trkpt><trkpt lat="44.7472717" lon="9.8641383"><ele>667.3333333333334</ele><time>2026-03-28T10:57:42.666Z</time></trkpt><trkpt lat="44.7472783" lon="9.8639933"><ele>669.6666666666666</ele><time>2026-03-28T10:57:44.666Z</time></trkpt><trkpt lat="44.7472967" lon="9.8639067"><ele>672.0</ele><time>2026-03-28T10:57:45.667Z</time></trkpt><trkpt lat="44.7473217" lon="9.86381"><ele>672.0</ele><time>2026-03-28T10:57:46.666Z</time></trkpt><trkpt lat="44.7473617" lon="9.8637017"><ele>672.0</ele><time>2026-03-28T10:57:47.665Z</time></trkpt><trkpt lat="44.7474017" lon="9.8636167"><ele>672.0</ele><time>2026-03-28T10:57:48.666Z</time></trkpt><trkpt lat="44.74746" lon="9.8634933"><ele>672.0</ele><time>2026-03-28T10:57:50.666Z</time></trkpt><trkpt lat="44.7475067" lon="9.863385"><ele>672.0</ele><time>2026-03-28T10:57:52.666Z</time></trkpt><trkpt lat="44.7475767" lon="9.86328"><ele>672.5</ele><time>2026-03-28T10:57:54.665Z</time></trkpt><trkpt lat="44.7476433" lon="9.863205"><ele>673.0</ele><time>2026-03-28T10:57:56.666Z</time></trkpt><trkpt lat="44.7476833" lon="9.86311"><ele>673.5</ele><time>2026-03-28T10:57:58.667Z</time></trkpt><trkpt lat="44.747735" lon="9.86297"><ele>674.0</ele><time>2026-03-28T10:58:00.666Z</time></trkpt><trkpt lat="44.7477633" lon="9.8628883"><ele>674.5</ele><time>2026-03-28T10:58:01.668Z</time></trkpt><trkpt lat="44.7477917" lon="9.86277"><ele>675.0</ele><time>2026-03-28T10:58:02.667Z</time></trkpt><trkpt lat="44.747815" lon="9.8626333"><ele>669.6</ele><time>2026-03-28T10:58:03.667Z</time></trkpt><trkpt lat="44.7478383" lon="9.86249"><ele>664.2</ele><time>2026-03-28T10:58:04.668Z</time></trkpt><trkpt lat="44.74786" lon="9.8623767"><ele>658.8</ele><time>2026-03-28T10:58:05.665Z</time></trkpt><trkpt lat="44.74788" lon="9.8622783"><ele>653.4</ele><time>2026-03-28T10:58:06.666Z</time></trkpt><trkpt lat="44.7479067" lon="9.8620933"><ele>648.0</ele><time>2026-03-28T10:58:08.668Z</time></trkpt><trkpt lat="44.7479217" lon="9.8619967"><ele>648.0</ele><time>2026-03-28T10:58:09.665Z</time></trkpt><trkpt lat="44.747925" lon="9.8618917"><ele>648.0</ele><time>2026-03-28T10:58:10.665Z</time></trkpt><trkpt lat="44.747925" lon="9.861785"><ele>648.0</ele><time>2026-03-28T10:58:11.667Z</time></trkpt><trkpt lat="44.747925" lon="9.86168"><ele>648.0</ele><time>2026-03-28T10:58:12.669Z</time></trkpt><trkpt lat="44.74793" lon="9.861585"><ele>648.0</ele><time>2026-03-28T10:58:13.668Z</time></trkpt><trkpt lat="44.7479067" lon="9.8614133"><ele>648.0</ele><time>2026-03-28T10:58:15.666Z</time></trkpt><trkpt lat="44.7478817" lon="9.8613317"><ele>647.7142857142858</ele><time>2026-03-28T10:58:16.665Z</time></trkpt><trkpt lat="44.7478633" lon="9.8612383"><ele>647.4285714285714</ele><time>2026-03-28T10:58:17.667Z</time></trkpt><trkpt lat="44.747865" lon="9.8611433"><ele>647.1428571428571</ele><time>2026-03-28T10:58:18.666Z</time></trkpt><trkpt lat="44.7478683" lon="9.8610533"><ele>646.8571428571429</ele><time>2026-03-28T10:58:19.665Z</time></trkpt><trkpt lat="44.7478817" lon="9.8609517"><ele>646.5714285714286</ele><time>2026-03-28T10:58:20.665Z</time></trkpt><trkpt lat="44.7479033" lon="9.8608517"><ele>646.2857142857143</ele><time>2026-03-28T10:58:21.665Z</time></trkpt><trkpt lat="44.7479217" lon="9.8607533"><ele>646.0</ele><time>2026-03-28T10:58:22.665Z</time></trkpt><trkpt lat="44.74793" lon="9.860645"><ele>645.0</ele><time>2026-03-28T10:58:23.666Z</time></trkpt><trkpt lat="44.7479233" lon="9.860515"><ele>644.0</ele><time>2026-03-28T10:58:24.666Z</time></trkpt><trkpt lat="44.7479133" lon="9.8603867"><ele>643.0</ele><time>2026-03-28T10:58:25.666Z</time></trkpt><trkpt lat="44.7478833" lon="9.8602583"><ele>642.0</ele><time>2026-03-28T10:58:26.667Z</time></trkpt><trkpt lat="44.74785" lon="9.860145"><ele>641.0</ele><time>2026-03-28T10:58:27.669Z</time></trkpt><trkpt lat="44.7478067" lon="9.8600383"><ele>639.6666666666666</ele><time>2026-03-28T10:58:28.667Z</time></trkpt><trkpt lat="44.74776" lon="9.8599417"><ele>638.3333333333333</ele><time>2026-03-28T10:58:29.666Z</time></trkpt><trkpt lat="44.7477083" lon="9.8598417"><ele>637.0</ele><time>2026-03-28T10:58:30.666Z</time></trkpt><trkpt lat="44.7476617" lon="9.8597617"><ele>635.6666666666666</ele><time>2026-03-28T10:58:31.665Z</time></trkpt><trkpt lat="44.74762" lon="9.85968"><ele>634.3333333333334</ele><time>2026-03-28T10:58:32.667Z</time></trkpt><trkpt lat="44.7475783" lon="9.859595"><ele>633.0</ele><time>2026-03-28T10:58:33.665Z</time></trkpt><trkpt lat="44.74754" lon="9.8595117"><ele>634.0</ele><time>2026-03-28T10:58:34.666Z</time></trkpt><trkpt lat="44.7475033" lon="9.8594283"><ele>635.0</ele><time>2026-03-28T10:58:35.665Z</time></trkpt><trkpt lat="44.7474417" lon="9.8592867"><ele>636.0</ele><time>2026-03-28T10:58:37.666Z</time></trkpt><trkpt lat="44.74739" lon="9.859125"><ele>637.0</ele><time>2026-03-28T10:58:39.666Z</time></trkpt><trkpt lat="44.747315" lon="9.85899"><ele>638.0</ele><time>2026-03-28T10:58:41.666Z</time></trkpt><trkpt lat="44.7472183" lon="9.8589017"><ele>638.0</ele><time>2026-03-28T10:58:43.665Z</time></trkpt><trkpt lat="44.7471217" lon="9.8588633"><ele>638.0</ele><time>2026-03-28T10:58:45.666Z</time></trkpt><trkpt lat="44.747015" lon="9.8589367"><ele>638.0</ele><time>2026-03-28T10:58:47.666Z</time></trkpt><trkpt lat="44.7469583" lon="9.85898"><ele>638.0</ele><time>2026-03-28T10:58:48.665Z</time></trkpt><trkpt lat="44.746895" lon="9.8590267"><ele>638.0</ele><time>2026-03-28T10:58:49.665Z</time></trkpt><trkpt lat="44.7468333" lon="9.8590717"><ele>638.0</ele><time>2026-03-28T10:58:50.667Z</time></trkpt><trkpt lat="44.746765" lon="9.8591167"><ele>636.5</ele><time>2026-03-28T10:58:51.665Z</time></trkpt><trkpt lat="44.746695" lon="9.85915"><ele>635.0</ele><time>2026-03-28T10:58:52.665Z</time></trkpt><trkpt lat="44.7466233" lon="9.8591917"><ele>633.5</ele><time>2026-03-28T10:58:53.666Z</time></trkpt><trkpt lat="44.74656" lon="9.8592217"><ele>632.0</ele><time>2026-03-28T10:58:54.665Z</time></trkpt><trkpt lat="44.7464983" lon="9.8592417"><ele>630.5</ele><time>2026-03-28T10:58:55.666Z</time></trkpt><trkpt lat="44.746385" lon="9.8593267"><ele>629.0</ele><time>2026-03-28T10:58:57.665Z</time></trkpt><trkpt lat="44.7462817" lon="9.85943"><ele>633.4</ele><time>2026-03-28T10:58:59.666Z</time></trkpt><trkpt lat="44.7461717" lon="9.8594833"><ele>637.8</ele><time>2026-03-28T10:59:04.668Z</time></trkpt><trkpt lat="44.7460933" lon="9.8595483"><ele>642.1999999999999</ele><time>2026-03-28T10:59:06.666Z</time></trkpt><trkpt lat="44.7460067" lon="9.8596517"><ele>646.5999999999999</ele><time>2026-03-28T10:59:08.668Z</time></trkpt><trkpt lat="44.7459467" lon="9.8597067"><ele>651.0</ele><time>2026-03-28T10:59:09.666Z</time></trkpt><trkpt lat="44.745875" lon="9.8597317"><ele>651.0</ele><time>2026-03-28T10:59:10.667Z</time></trkpt><trkpt lat="44.7457933" lon="9.8597267"><ele>651.0</ele><time>2026-03-28T10:59:11.668Z</time></trkpt><trkpt lat="44.7457183" lon="9.859685"><ele>651.0</ele><time>2026-03-28T10:59:12.667Z</time></trkpt><trkpt lat="44.7456467" lon="9.8596183"><ele>651.0</ele><time>2026-03-28T10:59:13.667Z</time></trkpt><trkpt lat="44.7455717" lon="9.8595917"><ele>651.0</ele><time>2026-03-28T10:59:14.667Z</time></trkpt><trkpt lat="44.7454967" lon="9.8595617"><ele>651.0</ele><time>2026-03-28T10:59:15.667Z</time></trkpt><trkpt lat="44.745445" lon="9.8595083"><ele>651.0</ele><time>2026-03-28T10:59:16.665Z</time></trkpt><trkpt lat="44.7454" lon="9.85944"><ele>651.0</ele><time>2026-03-28T10:59:17.666Z</time></trkpt><trkpt lat="44.7453767" lon="9.8593517"><ele>651.0</ele><time>2026-03-28T10:59:18.666Z</time></trkpt><trkpt lat="44.7453517" lon="9.859265"><ele>651.0</ele><time>2026-03-28T10:59:19.666Z</time></trkpt><trkpt lat="44.7452917" lon="9.85912"><ele>651.0</ele><time>2026-03-28T10:59:21.665Z</time></trkpt><trkpt lat="44.7452417" lon="9.8590217"><ele>651.0</ele><time>2026-03-28T10:59:23.666Z</time></trkpt><trkpt lat="44.7451583" lon="9.85899"><ele>651.1999999999999</ele><time>2026-03-28T10:59:25.666Z</time></trkpt><trkpt lat="44.745035" lon="9.8590083"><ele>651.4</ele><time>2026-03-28T10:59:27.665Z</time></trkpt><trkpt lat="44.7449167" lon="9.8590583"><ele>651.6</ele><time>2026-03-28T10:59:29.666Z</time></trkpt><trkpt lat="44.7448583" lon="9.8590983"><ele>651.8</ele><time>2026-03-28T10:59:30.666Z</time></trkpt><trkpt lat="44.7447433" lon="9.8591517"><ele>652.0</ele><time>2026-03-28T10:59:32.666Z</time></trkpt><trkpt lat="44.7446467" lon="9.8591283"><ele>652.0</ele><time>2026-03-28T10:59:34.667Z</time></trkpt><trkpt lat="44.74455" lon="9.8591083"><ele>652.0</ele><time>2026-03-28T10:59:36.666Z</time></trkpt><trkpt lat="44.74449" lon="9.8590733"><ele>652.0</ele><time>2026-03-28T10:59:37.667Z</time></trkpt><trkpt lat="44.744425" lon="9.8590367"><ele>652.0</ele><time>2026-03-28T10:59:38.667Z</time></trkpt><trkpt lat="44.7443183" lon="9.8590083"><ele>652.0</ele><time>2026-03-28T10:59:40.666Z</time></trkpt><trkpt lat="44.7442533" lon="9.8589933"><ele>652.0</ele><time>2026-03-28T10:59:41.665Z</time></trkpt><trkpt lat="44.74412" lon="9.8589783"><ele>652.8571428571429</ele><time>2026-03-28T10:59:43.667Z</time></trkpt><trkpt lat="44.74405" lon="9.8589867"><ele>653.7142857142857</ele><time>2026-03-28T10:59:44.666Z</time></trkpt><trkpt lat="44.74397" lon="9.85902"><ele>654.5714285714286</ele><time>2026-03-28T10:59:45.666Z</time></trkpt><trkpt lat="44.7438933" lon="9.8590467"><ele>655.4285714285714</ele><time>2026-03-28T10:59:46.666Z</time></trkpt><trkpt lat="44.7438133" lon="9.85907"><ele>656.2857142857142</ele><time>2026-03-28T10:59:47.665Z</time></trkpt><trkpt lat="44.7437483" lon="9.8590867"><ele>657.1428571428571</ele><time>2026-03-28T10:59:48.666Z</time></trkpt><trkpt lat="44.743685" lon="9.859085"><ele>658.0</ele><time>2026-03-28T10:59:49.667Z</time></trkpt><trkpt lat="44.7436067" lon="9.8590767"><ele>657.4</ele><time>2026-03-28T10:59:52.667Z</time></trkpt><trkpt lat="44.7435433" lon="9.85909"><ele>656.8</ele><time>2026-03-28T10:59:54.666Z</time></trkpt><trkpt lat="44.743455" lon="9.8590517"><ele>656.2</ele><time>2026-03-28T10:59:56.666Z</time></trkpt><trkpt lat="44.7433317" lon="9.8590667"><ele>655.6</ele><time>2026-03-28T10:59:58.667Z</time></trkpt><trkpt lat="44.743215" lon="9.8591017"><ele>655.0</ele><time>2026-03-28T11:00:00.666Z</time></trkpt><trkpt lat="44.7431" lon="9.85918"><ele>655.0</ele><time>2026-03-28T11:00:02.668Z</time></trkpt><trkpt lat="44.74305" lon="9.859245"><ele>655.0</ele><time>2026-03-28T11:00:03.665Z</time></trkpt><trkpt lat="44.7429967" lon="9.85931"><ele>655.0</ele><time>2026-03-28T11:00:04.667Z</time></trkpt><trkpt lat="44.742945" lon="9.8593683"><ele>655.0</ele><time>2026-03-28T11:00:05.667Z</time></trkpt><trkpt lat="44.7428917" lon="9.8594283"><ele>655.0</ele><time>2026-03-28T11:00:06.667Z</time></trkpt><trkpt lat="44.7428383" lon="9.8594967"><ele>655.0</ele><time>2026-03-28T11:00:07.667Z</time></trkpt><trkpt lat="44.7427933" lon="9.85957"><ele>655.0</ele><time>2026-03-28T11:00:08.666Z</time></trkpt><trkpt lat="44.7427567" lon="9.8596483"><ele>656.6</ele><time>2026-03-28T11:00:09.666Z</time></trkpt><trkpt lat="44.7426883" lon="9.8597767"><ele>658.2</ele><time>2026-03-28T11:00:11.67Z</time></trkpt><trkpt lat="44.74262" lon="9.8598833"><ele>659.8</ele><time>2026-03-28T11:00:13.666Z</time></trkpt><trkpt lat="44.742575" lon="9.8599783"><ele>661.4</ele><time>2026-03-28T11:00:15.665Z</time></trkpt><trkpt lat="44.7425367" lon="9.8600867"><ele>663.0</ele><time>2026-03-28T11:00:17.666Z</time></trkpt><trkpt lat="44.7424867" lon="9.8602"><ele>667.0</ele><time>2026-03-28T11:00:19.666Z</time></trkpt><trkpt lat="44.7424017" lon="9.8602783"><ele>671.0</ele><time>2026-03-28T11:00:21.666Z</time></trkpt><trkpt lat="44.742275" lon="9.8603183"><ele>675.0</ele><time>2026-03-28T11:00:23.666Z</time></trkpt><trkpt lat="44.7422083" lon="9.860345"><ele>679.0</ele><time>2026-03-28T11:00:24.667Z</time></trkpt><trkpt lat="44.74214" lon="9.8603583"><ele>683.0</ele><time>2026-03-28T11:00:25.666Z</time></trkpt><trkpt lat="44.74207" lon="9.8603533"><ele>687.0</ele><time>2026-03-28T11:00:26.665Z</time></trkpt><trkpt lat="44.742" lon="9.8603317"><ele>687.0</ele><time>2026-03-28T11:00:27.666Z</time></trkpt><trkpt lat="44.74193" lon="9.86031"><ele>687.0</ele><time>2026-03-28T11:00:28.667Z</time></trkpt><trkpt lat="44.7418667" lon="9.8602917"><ele>687.0</ele><time>2026-03-28T11:00:29.667Z</time></trkpt><trkpt lat="44.7418" lon="9.86028"><ele>687.0</ele><time>2026-03-28T11:00:30.665Z</time></trkpt><trkpt lat="44.7416767" lon="9.8603083"><ele>687.0</ele><time>2026-03-28T11:00:32.667Z</time></trkpt><trkpt lat="44.7415717" lon="9.8603733"><ele>687.0</ele><time>2026-03-28T11:00:34.666Z</time></trkpt><trkpt lat="44.7414767" lon="9.8604867"><ele>687.8</ele><time>2026-03-28T11:00:36.666Z</time></trkpt><trkpt lat="44.7414383" lon="9.860565"><ele>688.6</ele><time>2026-03-28T11:00:37.667Z</time></trkpt><trkpt lat="44.7414033" lon="9.86064"><ele>689.4</ele><time>2026-03-28T11:00:38.666Z</time></trkpt><trkpt lat="44.7413383" lon="9.8607733"><ele>690.1999999999999</ele><time>2026-03-28T11:00:40.668Z</time></trkpt><trkpt lat="44.7412867" lon="9.8609183"><ele>691.0</ele><time>2026-03-28T11:00:42.666Z</time></trkpt><trkpt lat="44.7412367" lon="9.86105"><ele>691.0</ele><time>2026-03-28T11:00:44.667Z</time></trkpt><trkpt lat="44.7411667" lon="9.86119"><ele>691.0</ele><time>2026-03-28T11:00:46.666Z</time></trkpt><trkpt lat="44.741095" lon="9.8613283"><ele>691.0</ele><time>2026-03-28T11:00:48.667Z</time></trkpt><trkpt lat="44.74107" lon="9.8614367"><ele>691.0</ele><time>2026-03-28T11:00:50.666Z</time></trkpt><trkpt lat="44.7409967" lon="9.8614633"><ele>691.0</ele><time>2026-03-28T11:00:55.672Z</time></trkpt><trkpt lat="44.7409383" lon="9.8613967"><ele>687.4</ele><time>2026-03-28T11:00:57.672Z</time></trkpt><trkpt lat="44.7408417" lon="9.8613117"><ele>683.8</ele><time>2026-03-28T11:00:59.667Z</time></trkpt><trkpt lat="44.7407333" lon="9.8612483"><ele>680.1999999999999</ele><time>2026-03-28T11:01:01.667Z</time></trkpt><trkpt lat="44.7406167" lon="9.8611983"><ele>676.5999999999999</ele><time>2026-03-28T11:01:03.666Z</time></trkpt><trkpt lat="44.7405533" lon="9.8611833"><ele>673.0</ele><time>2026-03-28T11:01:04.669Z</time></trkpt><trkpt lat="44.740485" lon="9.8611717"><ele>673.0</ele><time>2026-03-28T11:01:05.666Z</time></trkpt><trkpt lat="44.7404133" lon="9.861155"><ele>673.0</ele><time>2026-03-28T11:01:06.665Z</time></trkpt><trkpt lat="44.74034" lon="9.8611317"><ele>673.0</ele><time>2026-03-28T11:01:07.667Z</time></trkpt><trkpt lat="44.7402617" lon="9.8611067"><ele>673.0</ele><time>2026-03-28T11:01:08.668Z</time></trkpt><trkpt lat="44.74018" lon="9.86108"><ele>673.0</ele><time>2026-03-28T11:01:09.668Z</time></trkpt><trkpt lat="44.740095" lon="9.86105"><ele>673.0</ele><time>2026-03-28T11:01:10.668Z</time></trkpt><trkpt lat="44.7400133" lon="9.86102"><ele>671.0</ele><time>2026-03-28T11:01:11.668Z</time></trkpt><trkpt lat="44.7399317" lon="9.8609867"><ele>669.0</ele><time>2026-03-28T11:01:12.669Z</time></trkpt><trkpt lat="44.7398483" lon="9.8609517"><ele>667.0</ele><time>2026-03-28T11:01:13.668Z</time></trkpt><trkpt lat="44.7397617" lon="9.8609133"><ele>665.0</ele><time>2026-03-28T11:01:14.668Z</time></trkpt><trkpt lat="44.7396667" lon="9.8608817"><ele>663.0</ele><time>2026-03-28T11:01:15.665Z</time></trkpt><trkpt lat="44.7395583" lon="9.86085"><ele>663.0</ele><time>2026-03-28T11:01:16.666Z</time></trkpt><trkpt lat="44.73944" lon="9.8608217"><ele>663.0</ele><time>2026-03-28T11:01:17.666Z</time></trkpt><trkpt lat="44.7393167" lon="9.860795"><ele>663.0</ele><time>2026-03-28T11:01:18.665Z</time></trkpt><trkpt lat="44.7391867" lon="9.8607717"><ele>663.0</ele><time>2026-03-28T11:01:19.665Z</time></trkpt><trkpt lat="44.7390517" lon="9.8607433"><ele>663.5</ele><time>2026-03-28T11:01:20.666Z</time></trkpt><trkpt lat="44.738915" lon="9.8607117"><ele>664.0</ele><time>2026-03-28T11:01:21.664Z</time></trkpt><trkpt lat="44.73878" lon="9.860675"><ele>664.5</ele><time>2026-03-28T11:01:22.666Z</time></trkpt><trkpt lat="44.738645" lon="9.86063"><ele>665.0</ele><time>2026-03-28T11:01:23.666Z</time></trkpt><trkpt lat="44.7385183" lon="9.8605767"><ele>666.0</ele><time>2026-03-28T11:01:24.666Z</time></trkpt><trkpt lat="44.7383933" lon="9.8605133"><ele>667.0</ele><time>2026-03-28T11:01:25.666Z</time></trkpt><trkpt lat="44.73828" lon="9.86044"><ele>668.0</ele><time>2026-03-28T11:01:26.666Z</time></trkpt><trkpt lat="44.7381783" lon="9.8603617"><ele>669.0</ele><time>2026-03-28T11:01:27.665Z</time></trkpt><trkpt lat="44.7380733" lon="9.8602917"><ele>669.0</ele><time>2026-03-28T11:01:28.665Z</time></trkpt><trkpt lat="44.7379567" lon="9.8602383"><ele>669.0</ele><time>2026-03-28T11:01:29.665Z</time></trkpt><trkpt lat="44.73783" lon="9.8602017"><ele>669.0</ele><time>2026-03-28T11:01:30.665Z</time></trkpt><trkpt lat="44.737695" lon="9.8601767"><ele>669.0</ele><time>2026-03-28T11:01:31.667Z</time></trkpt><trkpt lat="44.737565" lon="9.860155"><ele>668.75</ele><time>2026-03-28T11:01:32.668Z</time></trkpt><trkpt lat="44.7374333" lon="9.8601333"><ele>668.5</ele><time>2026-03-28T11:01:33.667Z</time></trkpt><trkpt lat="44.7373017" lon="9.8601083"><ele>668.25</ele><time>2026-03-28T11:01:34.666Z</time></trkpt><trkpt lat="44.737165" lon="9.8600783"><ele>668.0</ele><time>2026-03-28T11:01:35.665Z</time></trkpt><trkpt lat="44.7370217" lon="9.8600417"><ele>669.75</ele><time>2026-03-28T11:01:36.667Z</time></trkpt><trkpt lat="44.73688" lon="9.8600033"><ele>671.5</ele><time>2026-03-28T11:01:37.667Z</time></trkpt><trkpt lat="44.7367433" lon="9.8599717"><ele>673.25</ele><time>2026-03-28T11:01:38.666Z</time></trkpt><trkpt lat="44.7366017" lon="9.8599483"><ele>675.0</ele><time>2026-03-28T11:01:39.667Z</time></trkpt><trkpt lat="44.7364717" lon="9.85995"><ele>675.0</ele><time>2026-03-28T11:01:40.666Z</time></trkpt><trkpt lat="44.7363517" lon="9.8599767"><ele>675.0</ele><time>2026-03-28T11:01:41.666Z</time></trkpt><trkpt lat="44.7362433" lon="9.8600117"><ele>675.0</ele><time>2026-03-28T11:01:42.666Z</time></trkpt><trkpt lat="44.7361433" lon="9.86004"><ele>675.0</ele><time>2026-03-28T11:01:43.667Z</time></trkpt><trkpt lat="44.7360417" lon="9.860055"><ele>675.0</ele><time>2026-03-28T11:01:44.668Z</time></trkpt><trkpt lat="44.7359317" lon="9.8600617"><ele>676.5</ele><time>2026-03-28T11:01:45.665Z</time></trkpt><trkpt lat="44.735815" lon="9.8600767"><ele>678.0</ele><time>2026-03-28T11:01:46.666Z</time></trkpt><trkpt lat="44.7356967" lon="9.8601083"><ele>679.5</ele><time>2026-03-28T11:01:47.665Z</time></trkpt><trkpt lat="44.7355817" lon="9.860155"><ele>681.0</ele><time>2026-03-28T11:01:48.665Z</time></trkpt><trkpt lat="44.7354817" lon="9.8602233"><ele>681.0</ele><time>2026-03-28T11:01:49.666Z</time></trkpt><trkpt lat="44.7354" lon="9.8603133"><ele>681.0</ele><time>2026-03-28T11:01:50.666Z</time></trkpt><trkpt lat="44.7353367" lon="9.8604283"><ele>681.0</ele><time>2026-03-28T11:01:51.666Z</time></trkpt><trkpt lat="44.735295" lon="9.860575"><ele>681.0</ele><time>2026-03-28T11:01:52.666Z</time></trkpt><trkpt lat="44.7352533" lon="9.8607233"><ele>681.0</ele><time>2026-03-28T11:01:53.664Z</time></trkpt><trkpt lat="44.7352133" lon="9.86086"><ele>681.25</ele><time>2026-03-28T11:01:54.665Z</time></trkpt><trkpt lat="44.7351483" lon="9.8609867"><ele>681.5</ele><time>2026-03-28T11:01:55.666Z</time></trkpt><trkpt lat="44.7350667" lon="9.8611017"><ele>681.75</ele><time>2026-03-28T11:01:56.666Z</time></trkpt><trkpt lat="44.7349767" lon="9.86122"><ele>682.0</ele><time>2026-03-28T11:01:57.666Z</time></trkpt><trkpt lat="44.7348667" lon="9.8613517"><ele>682.0</ele><time>2026-03-28T11:01:58.667Z</time></trkpt><trkpt lat="44.7347567" lon="9.8614883"><ele>682.0</ele><time>2026-03-28T11:01:59.665Z</time></trkpt><trkpt lat="44.7346483" lon="9.8616283"><ele>682.0</ele><time>2026-03-28T11:02:00.666Z</time></trkpt><trkpt lat="44.7345383" lon="9.861765"><ele>682.0</ele><time>2026-03-28T11:02:01.665Z</time></trkpt><trkpt lat="44.7344367" lon="9.8618917"><ele>679.5</ele><time>2026-03-28T11:02:02.665Z</time></trkpt><trkpt lat="44.7343433" lon="9.8620067"><ele>677.0</ele><time>2026-03-28T11:02:03.664Z</time></trkpt><trkpt lat="44.734255" lon="9.8621183"><ele>674.5</ele><time>2026-03-28T11:02:04.667Z</time></trkpt><trkpt lat="44.7341667" lon="9.8622217"><ele>672.0</ele><time>2026-03-28T11:02:05.666Z</time></trkpt><trkpt lat="44.7340883" lon="9.8623183"><ele>672.0</ele><time>2026-03-28T11:02:06.665Z</time></trkpt><trkpt lat="44.73401" lon="9.8624"><ele>672.0</ele><time>2026-03-28T11:02:07.666Z</time></trkpt><trkpt lat="44.73393" lon="9.8624533"><ele>672.0</ele><time>2026-03-28T11:02:08.666Z</time></trkpt><trkpt lat="44.7338483" lon="9.8624683"><ele>672.0</ele><time>2026-03-28T11:02:09.665Z</time></trkpt><trkpt lat="44.7337733" lon="9.862445"><ele>672.0</ele><time>2026-03-28T11:02:10.665Z</time></trkpt><trkpt lat="44.733715" lon="9.86239"><ele>672.0</ele><time>2026-03-28T11:02:11.666Z</time></trkpt><trkpt lat="44.7336633" lon="9.86232"><ele>672.0</ele><time>2026-03-28T11:02:12.666Z</time></trkpt><trkpt lat="44.7336117" lon="9.8622417"><ele>672.0</ele><time>2026-03-28T11:02:13.666Z</time></trkpt><trkpt lat="44.733565" lon="9.8621633"><ele>672.0</ele><time>2026-03-28T11:02:14.665Z</time></trkpt><trkpt lat="44.7335017" lon="9.8620467"><ele>672.0</ele><time>2026-03-28T11:02:16.666Z</time></trkpt><trkpt lat="44.73347" lon="9.8619533"><ele>672.0</ele><time>2026-03-28T11:02:48.665Z</time></trkpt><trkpt lat="44.7334917" lon="9.862045"><ele>672.0</ele><time>2026-03-28T11:02:51.666Z</time></trkpt><trkpt lat="44.7335667" lon="9.8621483"><ele>672.0</ele><time>2026-03-28T11:02:53.666Z</time></trkpt><trkpt lat="44.7336483" lon="9.8622767"><ele>672.0</ele><time>2026-03-28T11:02:55.666Z</time></trkpt><trkpt lat="44.733725" lon="9.8624067"><ele>672.0</ele><time>2026-03-28T11:02:57.667Z</time></trkpt><trkpt lat="44.73375" lon="9.86257"><ele>672.0</ele><time>2026-03-28T11:02:59.667Z</time></trkpt><trkpt lat="44.7337317" lon="9.8626733"><ele>672.0</ele><time>2026-03-28T11:03:00.667Z</time></trkpt><trkpt lat="44.7337067" lon="9.8627767"><ele>670.2</ele><time>2026-03-28T11:03:01.666Z</time></trkpt><trkpt lat="44.73368" lon="9.862895"><ele>668.4000000000001</ele><time>2026-03-28T11:03:02.667Z</time></trkpt><trkpt lat="44.7336483" lon="9.8630217"><ele>666.5999999999999</ele><time>2026-03-28T11:03:03.666Z</time></trkpt><trkpt lat="44.7336167" lon="9.8631533"><ele>664.8</ele><time>2026-03-28T11:03:04.665Z</time></trkpt><trkpt lat="44.7335783" lon="9.8632833"><ele>663.0</ele><time>2026-03-28T11:03:05.667Z</time></trkpt><trkpt lat="44.7335283" lon="9.8634133"><ele>660.8</ele><time>2026-03-28T11:03:06.667Z</time></trkpt><trkpt lat="44.7334683" lon="9.8635417"><ele>658.5999999999999</ele><time>2026-03-28T11:03:07.666Z</time></trkpt><trkpt lat="44.733415" lon="9.8636667"><ele>656.4000000000001</ele><time>2026-03-28T11:03:08.668Z</time></trkpt><trkpt lat="44.7333717" lon="9.8637817"><ele>654.2</ele><time>2026-03-28T11:03:09.665Z</time></trkpt><trkpt lat="44.73333" lon="9.8639"><ele>652.0</ele><time>2026-03-28T11:03:10.667Z</time></trkpt><trkpt lat="44.7332867" lon="9.8640133"><ele>652.0</ele><time>2026-03-28T11:03:11.667Z</time></trkpt><trkpt lat="44.7332467" lon="9.8641083"><ele>652.0</ele><time>2026-03-28T11:03:12.667Z</time></trkpt><trkpt lat="44.7332017" lon="9.8641917"><ele>652.0</ele><time>2026-03-28T11:03:13.666Z</time></trkpt><trkpt lat="44.73314" lon="9.8642567"><ele>652.0</ele><time>2026-03-28T11:03:14.666Z</time></trkpt><trkpt lat="44.7330667" lon="9.8643133"><ele>652.0</ele><time>2026-03-28T11:03:15.666Z</time></trkpt><trkpt lat="44.732995" lon="9.8643633"><ele>652.0</ele><time>2026-03-28T11:03:16.666Z</time></trkpt><trkpt lat="44.7329267" lon="9.8644333"><ele>649.6</ele><time>2026-03-28T11:03:17.665Z</time></trkpt><trkpt lat="44.732875" lon="9.8645383"><ele>647.2</ele><time>2026-03-28T11:03:18.666Z</time></trkpt><trkpt lat="44.7328333" lon="9.8646683"><ele>644.8</ele><time>2026-03-28T11:03:19.667Z</time></trkpt><trkpt lat="44.7327983" lon="9.8648083"><ele>642.4</ele><time>2026-03-28T11:03:20.666Z</time></trkpt><trkpt lat="44.7327683" lon="9.8649533"><ele>640.0</ele><time>2026-03-28T11:03:21.666Z</time></trkpt><trkpt lat="44.7327367" lon="9.8650933"><ele>636.25</ele><time>2026-03-28T11:03:22.664Z</time></trkpt><trkpt lat="44.7326917" lon="9.8652283"><ele>632.5</ele><time>2026-03-28T11:03:23.666Z</time></trkpt><trkpt lat="44.732635" lon="9.86536"><ele>628.75</ele><time>2026-03-28T11:03:24.666Z</time></trkpt><trkpt lat="44.7325683" lon="9.8655"><ele>625.0</ele><time>2026-03-28T11:03:25.666Z</time></trkpt><trkpt lat="44.732495" lon="9.86564"><ele>625.0</ele><time>2026-03-28T11:03:26.665Z</time></trkpt><trkpt lat="44.7324217" lon="9.8657717"><ele>625.0</ele><time>2026-03-28T11:03:27.667Z</time></trkpt><trkpt lat="44.7323383" lon="9.8658967"><ele>625.0</ele><time>2026-03-28T11:03:28.665Z</time></trkpt><trkpt lat="44.7322483" lon="9.8660133"><ele>625.0</ele><time>2026-03-28T11:03:29.665Z</time></trkpt><trkpt lat="44.7321533" lon="9.8661267"><ele>621.5</ele><time>2026-03-28T11:03:30.665Z</time></trkpt><trkpt lat="44.7320567" lon="9.866225"><ele>618.0</ele><time>2026-03-28T11:03:31.665Z</time></trkpt><trkpt lat="44.7319567" lon="9.866315"><ele>614.5</ele><time>2026-03-28T11:03:32.665Z</time></trkpt><trkpt lat="44.7318617" lon="9.8664017"><ele>611.0</ele><time>2026-03-28T11:03:33.665Z</time></trkpt><trkpt lat="44.7317733" lon="9.8665"><ele>610.0</ele><time>2026-03-28T11:03:34.666Z</time></trkpt><trkpt lat="44.7316917" lon="9.8666117"><ele>609.0</ele><time>2026-03-28T11:03:35.669Z</time></trkpt><trkpt lat="44.7316133" lon="9.86673"><ele>608.0</ele><time>2026-03-28T11:03:36.665Z</time></trkpt><trkpt lat="44.7315333" lon="9.8668317"><ele>607.0</ele><time>2026-03-28T11:03:37.666Z</time></trkpt><trkpt lat="44.7314533" lon="9.8669017"><ele>606.0</ele><time>2026-03-28T11:03:38.666Z</time></trkpt><trkpt lat="44.7313783" lon="9.8669517"><ele>604.1666666666666</ele><time>2026-03-28T11:03:39.665Z</time></trkpt><trkpt lat="44.7313217" lon="9.86701"><ele>602.3333333333334</ele><time>2026-03-28T11:03:40.664Z</time></trkpt><trkpt lat="44.7313317" lon="9.8671517"><ele>600.5</ele><time>2026-03-28T11:03:42.666Z</time></trkpt><trkpt lat="44.7313867" lon="9.8672067"><ele>598.6666666666667</ele><time>2026-03-28T11:03:43.665Z</time></trkpt><trkpt lat="44.7314833" lon="9.86721"><ele>596.8333333333334</ele><time>2026-03-28T11:03:44.666Z</time></trkpt><trkpt lat="44.7315933" lon="9.8672067"><ele>595.0</ele><time>2026-03-28T11:03:45.665Z</time></trkpt><trkpt lat="44.73172" lon="9.86719"><ele>595.0</ele><time>2026-03-28T11:03:46.67Z</time></trkpt><trkpt lat="44.7318483" lon="9.8671733"><ele>595.0</ele><time>2026-03-28T11:03:47.666Z</time></trkpt><trkpt lat="44.7319783" lon="9.8671717"><ele>595.0</ele><time>2026-03-28T11:03:48.666Z</time></trkpt><trkpt lat="44.73211" lon="9.86719"><ele>595.0</ele><time>2026-03-28T11:03:49.667Z</time></trkpt><trkpt lat="44.7322417" lon="9.8672"><ele>596.0</ele><time>2026-03-28T11:03:50.666Z</time></trkpt><trkpt lat="44.7323683" lon="9.867195"><ele>597.0</ele><time>2026-03-28T11:03:51.666Z</time></trkpt><trkpt lat="44.732485" lon="9.8671783"><ele>598.0</ele><time>2026-03-28T11:03:52.665Z</time></trkpt><trkpt lat="44.7325933" lon="9.867175"><ele>599.0</ele><time>2026-03-28T11:03:53.666Z</time></trkpt><trkpt lat="44.7326933" lon="9.8671833"><ele>599.8</ele><time>2026-03-28T11:03:54.666Z</time></trkpt><trkpt lat="44.7327867" lon="9.8672183"><ele>600.5999999999999</ele><time>2026-03-28T11:03:55.666Z</time></trkpt><trkpt lat="44.7328767" lon="9.8672617"><ele>601.4</ele><time>2026-03-28T11:03:56.666Z</time></trkpt><trkpt lat="44.7329683" lon="9.8672933"><ele>602.1999999999999</ele><time>2026-03-28T11:03:57.666Z</time></trkpt><trkpt lat="44.7330633" lon="9.8673233"><ele>603.0</ele><time>2026-03-28T11:03:58.666Z</time></trkpt><trkpt lat="44.7331583" lon="9.8673533"><ele>603.0</ele><time>2026-03-28T11:03:59.666Z</time></trkpt><trkpt lat="44.7332483" lon="9.8673933"><ele>603.0</ele><time>2026-03-28T11:04:00.665Z</time></trkpt><trkpt lat="44.7333367" lon="9.8674367"><ele>603.0</ele><time>2026-03-28T11:04:01.666Z</time></trkpt><trkpt lat="44.7334167" lon="9.8674683"><ele>603.0</ele><time>2026-03-28T11:04:02.666Z</time></trkpt><trkpt lat="44.7334933" lon="9.8674967"><ele>603.0</ele><time>2026-03-28T11:04:03.665Z</time></trkpt><trkpt lat="44.7335567" lon="9.86752"><ele>603.0</ele><time>2026-03-28T11:04:04.665Z</time></trkpt><trkpt lat="44.7336683" lon="9.867565"><ele>602.6</ele><time>2026-03-28T11:04:06.665Z</time></trkpt><trkpt lat="44.7337633" lon="9.8676017"><ele>602.1999999999999</ele><time>2026-03-28T11:04:08.666Z</time></trkpt><trkpt lat="44.733855" lon="9.8676267"><ele>601.8</ele><time>2026-03-28T11:04:10.664Z</time></trkpt><trkpt lat="44.7339583" lon="9.8676433"><ele>601.4</ele><time>2026-03-28T11:04:12.666Z</time></trkpt><trkpt lat="44.734065" lon="9.86766"><ele>601.0</ele><time>2026-03-28T11:04:14.666Z</time></trkpt><trkpt lat="44.7341867" lon="9.867725"><ele>599.4285714285714</ele><time>2026-03-28T11:04:16.666Z</time></trkpt><trkpt lat="44.7342533" lon="9.8677733"><ele>597.8571428571429</ele><time>2026-03-28T11:04:17.666Z</time></trkpt><trkpt lat="44.7343183" lon="9.8678217"><ele>596.2857142857143</ele><time>2026-03-28T11:04:18.666Z</time></trkpt><trkpt lat="44.734385" lon="9.8678617"><ele>594.7142857142858</ele><time>2026-03-28T11:04:19.665Z</time></trkpt><trkpt lat="44.734455" lon="9.8678967"><ele>593.1428571428571</ele><time>2026-03-28T11:04:20.665Z</time></trkpt><trkpt lat="44.7345267" lon="9.867925"><ele>591.5714285714287</ele><time>2026-03-28T11:04:21.665Z</time></trkpt><trkpt lat="44.7345933" lon="9.86795"><ele>590.0</ele><time>2026-03-28T11:04:22.666Z</time></trkpt><trkpt lat="44.734685" lon="9.86805"><ele>589.4</ele><time>2026-03-28T11:04:24.665Z</time></trkpt><trkpt lat="44.7347083" lon="9.8682033"><ele>588.8</ele><time>2026-03-28T11:04:26.665Z</time></trkpt><trkpt lat="44.7347033" lon="9.8683017"><ele>588.2</ele><time>2026-03-28T11:04:27.667Z</time></trkpt><trkpt lat="44.7346967" lon="9.8684217"><ele>587.6</ele><time>2026-03-28T11:04:28.667Z</time></trkpt><trkpt lat="44.73469" lon="9.8685517"><ele>587.0</ele><time>2026-03-28T11:04:29.667Z</time></trkpt><trkpt lat="44.7346817" lon="9.8686933"><ele>585.2</ele><time>2026-03-28T11:04:30.667Z</time></trkpt><trkpt lat="44.73467" lon="9.8688467"><ele>583.4000000000001</ele><time>2026-03-28T11:04:31.667Z</time></trkpt><trkpt lat="44.73466" lon="9.869005"><ele>581.5999999999999</ele><time>2026-03-28T11:04:32.667Z</time></trkpt><trkpt lat="44.734645" lon="9.8691633"><ele>579.8</ele><time>2026-03-28T11:04:33.666Z</time></trkpt><trkpt lat="44.7346333" lon="9.8693217"><ele>578.0</ele><time>2026-03-28T11:04:34.667Z</time></trkpt><trkpt lat="44.73462" lon="9.86948"><ele>575.25</ele><time>2026-03-28T11:04:35.667Z</time></trkpt><trkpt lat="44.7346033" lon="9.8696483"><ele>572.5</ele><time>2026-03-28T11:04:36.667Z</time></trkpt><trkpt lat="44.7345833" lon="9.8698167"><ele>569.75</ele><time>2026-03-28T11:04:37.669Z</time></trkpt><trkpt lat="44.7345733" lon="9.8699717"><ele>567.0</ele><time>2026-03-28T11:04:38.667Z</time></trkpt><trkpt lat="44.7345667" lon="9.8701183"><ele>564.6</ele><time>2026-03-28T11:04:39.667Z</time></trkpt><trkpt lat="44.7345567" lon="9.8702683"><ele>562.2</ele><time>2026-03-28T11:04:40.669Z</time></trkpt><trkpt lat="44.73455" lon="9.8704167"><ele>559.8</ele><time>2026-03-28T11:04:41.668Z</time></trkpt><trkpt lat="44.734545" lon="9.8705683"><ele>557.4</ele><time>2026-03-28T11:04:42.664Z</time></trkpt><trkpt lat="44.7345533" lon="9.8707183"><ele>555.0</ele><time>2026-03-28T11:04:43.667Z</time></trkpt><trkpt lat="44.73457" lon="9.8708617"><ele>553.0</ele><time>2026-03-28T11:04:44.666Z</time></trkpt><trkpt lat="44.7345883" lon="9.8710033"><ele>551.0</ele><time>2026-03-28T11:04:45.665Z</time></trkpt><trkpt lat="44.7346" lon="9.8711417"><ele>549.0</ele><time>2026-03-28T11:04:46.665Z</time></trkpt><trkpt lat="44.7346" lon="9.8712833"><ele>547.0</ele><time>2026-03-28T11:04:47.666Z</time></trkpt><trkpt lat="44.7346017" lon="9.8714217"><ele>545.0</ele><time>2026-03-28T11:04:48.665Z</time></trkpt><trkpt lat="44.73461" lon="9.8715633"><ele>545.0</ele><time>2026-03-28T11:04:49.667Z</time></trkpt><trkpt lat="44.7346317" lon="9.8717017"><ele>545.0</ele><time>2026-03-28T11:04:50.666Z</time></trkpt><trkpt lat="44.7346533" lon="9.8718433"><ele>545.0</ele><time>2026-03-28T11:04:51.665Z</time></trkpt><trkpt lat="44.7346733" lon="9.8719883"><ele>545.0</ele><time>2026-03-28T11:04:52.666Z</time></trkpt><trkpt lat="44.7346967" lon="9.8721283"><ele>545.0</ele><time>2026-03-28T11:04:53.666Z</time></trkpt><trkpt lat="44.7347167" lon="9.872265"><ele>543.0</ele><time>2026-03-28T11:04:54.665Z</time></trkpt><trkpt lat="44.7347383" lon="9.8723867"><ele>541.0</ele><time>2026-03-28T11:04:55.666Z</time></trkpt><trkpt lat="44.7347517" lon="9.8725"><ele>539.0</ele><time>2026-03-28T11:04:56.666Z</time></trkpt><trkpt lat="44.7347633" lon="9.872605"><ele>537.0</ele><time>2026-03-28T11:04:57.665Z</time></trkpt><trkpt lat="44.734775" lon="9.8726983"><ele>535.0</ele><time>2026-03-28T11:04:58.668Z</time></trkpt><trkpt lat="44.734765" lon="9.8728417"><ele>533.0</ele><time>2026-03-28T11:05:00.664Z</time></trkpt><trkpt lat="44.734745" lon="9.8729317"><ele>533.0</ele><time>2026-03-28T11:05:02.665Z</time></trkpt><trkpt lat="44.7347233" lon="9.873025"><ele>533.0</ele><time>2026-03-28T11:05:05.666Z</time></trkpt><trkpt lat="44.734745" lon="9.8729383"><ele>533.0</ele><time>2026-03-28T11:06:11.664Z</time></trkpt><trkpt lat="44.7347483" lon="9.8728383"><ele>533.0</ele><time>2026-03-28T11:06:13.666Z</time></trkpt><trkpt lat="44.7347617" lon="9.8727433"><ele>533.0</ele><time>2026-03-28T11:06:15.665Z</time></trkpt><trkpt lat="44.7347567" lon="9.872625"><ele>533.0</ele><time>2026-03-28T11:06:17.666Z</time></trkpt><trkpt lat="44.7347467" lon="9.8724783"><ele>533.0</ele><time>2026-03-28T11:06:19.664Z</time></trkpt><trkpt lat="44.7347317" lon="9.8723083"><ele>533.0</ele><time>2026-03-28T11:06:21.666Z</time></trkpt><trkpt lat="44.73471" lon="9.8721433"><ele>533.0</ele><time>2026-03-28T11:06:23.667Z</time></trkpt><trkpt lat="44.7346967" lon="9.8720483"><ele>533.0</ele><time>2026-03-28T11:06:24.666Z</time></trkpt><trkpt lat="44.7346783" lon="9.8719567"><ele>533.0</ele><time>2026-03-28T11:06:25.667Z</time></trkpt><trkpt lat="44.7346567" lon="9.871865"><ele>533.0</ele><time>2026-03-28T11:06:26.666Z</time></trkpt><trkpt lat="44.734635" lon="9.8717717"><ele>535.0</ele><time>2026-03-28T11:06:27.665Z</time></trkpt><trkpt lat="44.7346167" lon="9.8716733"><ele>537.0</ele><time>2026-03-28T11:06:28.665Z</time></trkpt><trkpt lat="44.7346" lon="9.8715733"><ele>539.0</ele><time>2026-03-28T11:06:29.666Z</time></trkpt><trkpt lat="44.7345883" lon="9.8714767"><ele>541.0</ele><time>2026-03-28T11:06:30.664Z</time></trkpt><trkpt lat="44.734585" lon="9.8713817"><ele>543.0</ele><time>2026-03-28T11:06:31.665Z</time></trkpt><trkpt lat="44.7345867" lon="9.8712117"><ele>545.0</ele><time>2026-03-28T11:06:33.666Z</time></trkpt><trkpt lat="44.7345967" lon="9.8710917"><ele>545.0</ele><time>2026-03-28T11:06:35.666Z</time></trkpt><trkpt lat="44.734675" lon="9.8710367"><ele>545.0</ele><time>2026-03-28T11:06:41.664Z</time></trkpt><trkpt lat="44.7347383" lon="9.87104"><ele>545.0</ele><time>2026-03-28T11:06:43.666Z</time></trkpt><trkpt lat="44.73481" lon="9.8710433"><ele>545.0</ele><time>2026-03-28T11:06:45.666Z</time></trkpt><trkpt lat="44.7348983" lon="9.8710217"><ele>545.0</ele><time>2026-03-28T11:06:47.665Z</time></trkpt><trkpt lat="44.735005" lon="9.870995"><ele>545.0</ele><time>2026-03-28T11:06:49.665Z</time></trkpt><trkpt lat="44.735115" lon="9.8709683"><ele>544.2</ele><time>2026-03-28T11:06:51.665Z</time></trkpt><trkpt lat="44.7352283" lon="9.8709417"><ele>543.4</ele><time>2026-03-28T11:06:53.665Z</time></trkpt><trkpt lat="44.7353183" lon="9.8709133"><ele>542.6</ele><time>2026-03-28T11:06:55.666Z</time></trkpt><trkpt lat="44.735385" lon="9.8708583"><ele>541.8</ele><time>2026-03-28T11:06:57.665Z</time></trkpt><trkpt lat="44.7354417" lon="9.870765"><ele>541.0</ele><time>2026-03-28T11:06:59.669Z</time></trkpt><trkpt lat="44.7355167" lon="9.8706983"><ele>541.0</ele><time>2026-03-28T11:07:01.668Z</time></trkpt><trkpt lat="44.7356" lon="9.8706533"><ele>541.0</ele><time>2026-03-28T11:07:03.666Z</time></trkpt><trkpt lat="44.7356833" lon="9.8705917"><ele>541.0</ele><time>2026-03-28T11:07:05.664Z</time></trkpt><trkpt lat="44.7357383" lon="9.8705383"><ele>541.0</ele><time>2026-03-28T11:07:07.666Z</time></trkpt><trkpt lat="44.7358283" lon="9.8705017"><ele>541.0</ele><time>2026-03-28T11:07:10.665Z</time></trkpt><trkpt lat="44.735935" lon="9.8705117"><ele>541.0</ele><time>2026-03-28T11:07:12.666Z</time></trkpt><trkpt lat="44.73605" lon="9.8705067"><ele>541.0</ele><time>2026-03-28T11:07:14.67Z</time></trkpt><trkpt lat="44.7361617" lon="9.8705283"><ele>541.0</ele><time>2026-03-28T11:07:16.666Z</time></trkpt><trkpt lat="44.736245" lon="9.8705767"><ele>541.0</ele><time>2026-03-28T11:07:18.666Z</time></trkpt><trkpt lat="44.73634" lon="9.87061"><ele>541.0</ele><time>2026-03-28T11:07:20.666Z</time></trkpt><trkpt lat="44.7364383" lon="9.8705933"><ele>539.5</ele><time>2026-03-28T11:07:22.666Z</time></trkpt><trkpt lat="44.736525" lon="9.8705283"><ele>538.0</ele><time>2026-03-28T11:07:24.665Z</time></trkpt><trkpt lat="44.7366217" lon="9.870475"><ele>536.5</ele><time>2026-03-28T11:07:26.665Z</time></trkpt><trkpt lat="44.7366917" lon="9.8704833"><ele>535.0</ele><time>2026-03-28T11:07:28.666Z</time></trkpt><trkpt lat="44.7367533" lon="9.8705217"><ele>533.5</ele><time>2026-03-28T11:07:30.665Z</time></trkpt><trkpt lat="44.7368483" lon="9.8705367"><ele>532.0</ele><time>2026-03-28T11:07:32.667Z</time></trkpt><trkpt lat="44.736945" lon="9.8705733"><ele>531.6</ele><time>2026-03-28T11:07:34.666Z</time></trkpt><trkpt lat="44.7370483" lon="9.8705667"><ele>531.2</ele><time>2026-03-28T11:07:36.665Z</time></trkpt><trkpt lat="44.737145" lon="9.870535"><ele>530.8</ele><time>2026-03-28T11:07:38.665Z</time></trkpt><trkpt lat="44.7372333" lon="9.8705333"><ele>530.4</ele><time>2026-03-28T11:07:40.666Z</time></trkpt><trkpt lat="44.7373333" lon="9.8705817"><ele>530.0</ele><time>2026-03-28T11:07:42.665Z</time></trkpt><trkpt lat="44.7374267" lon="9.8706567"><ele>530.0</ele><time>2026-03-28T11:07:44.665Z</time></trkpt><trkpt lat="44.7375117" lon="9.8706967"><ele>530.0</ele><time>2026-03-28T11:07:46.666Z</time></trkpt><trkpt lat="44.7376167" lon="9.8707033"><ele>530.0</ele><time>2026-03-28T11:07:48.664Z</time></trkpt><trkpt lat="44.737725" lon="9.8706817"><ele>530.0</ele><time>2026-03-28T11:07:50.664Z</time></trkpt><trkpt lat="44.73779" lon="9.8706583"><ele>530.0</ele><time>2026-03-28T11:07:51.665Z</time></trkpt><trkpt lat="44.73786" lon="9.870625"><ele>530.0</ele><time>2026-03-28T11:07:52.666Z</time></trkpt><trkpt lat="44.7379267" lon="9.8705933"><ele>526.6</ele><time>2026-03-28T11:07:53.666Z</time></trkpt><trkpt lat="44.7379917" lon="9.870565"><ele>523.2</ele><time>2026-03-28T11:07:54.666Z</time></trkpt><trkpt lat="44.7380983" lon="9.8704817"><ele>519.8</ele><time>2026-03-28T11:07:56.666Z</time></trkpt><trkpt lat="44.73818" lon="9.8704133"><ele>516.4</ele><time>2026-03-28T11:07:58.666Z</time></trkpt><trkpt lat="44.7382383" lon="9.8704533"><ele>513.0</ele><time>2026-03-28T11:08:00.665Z</time></trkpt><trkpt lat="44.7382733" lon="9.8705867"><ele>513.0</ele><time>2026-03-28T11:08:02.666Z</time></trkpt><trkpt lat="44.738325" lon="9.8707"><ele>513.0</ele><time>2026-03-28T11:08:04.665Z</time></trkpt><trkpt lat="44.7383633" lon="9.8708417"><ele>513.0</ele><time>2026-03-28T11:08:06.665Z</time></trkpt><trkpt lat="44.7383817" lon="9.8709617"><ele>513.0</ele><time>2026-03-28T11:08:08.667Z</time></trkpt><trkpt lat="44.738385" lon="9.8710633"><ele>513.0</ele><time>2026-03-28T11:08:10.666Z</time></trkpt><trkpt lat="44.7384467" lon="9.8711117"><ele>513.0</ele><time>2026-03-28T11:08:13.665Z</time></trkpt><trkpt lat="44.7385133" lon="9.87107"><ele>511.8571428571429</ele><time>2026-03-28T11:08:15.666Z</time></trkpt><trkpt lat="44.7385783" lon="9.8710017"><ele>510.7142857142857</ele><time>2026-03-28T11:08:17.666Z</time></trkpt><trkpt lat="44.73864" lon="9.8709483"><ele>509.57142857142856</ele><time>2026-03-28T11:08:19.666Z</time></trkpt><trkpt lat="44.7386483" lon="9.871055"><ele>508.42857142857144</ele><time>2026-03-28T11:08:24.665Z</time></trkpt><trkpt lat="44.7386267" lon="9.871145"><ele>507.2857142857142</ele><time>2026-03-28T11:08:26.666Z</time></trkpt><trkpt lat="44.7385833" lon="9.8712167"><ele>506.1428571428571</ele><time>2026-03-28T11:08:29.665Z</time></trkpt><trkpt lat="44.7385283" lon="9.8713017"><ele>505.0</ele><time>2026-03-28T11:08:31.666Z</time></trkpt><trkpt lat="44.7384717" lon="9.8714017"><ele>505.0</ele><time>2026-03-28T11:08:33.666Z</time></trkpt><trkpt lat="44.7384267" lon="9.87153"><ele>505.0</ele><time>2026-03-28T11:08:35.665Z</time></trkpt><trkpt lat="44.738365" lon="9.8716517"><ele>505.0</ele><time>2026-03-28T11:08:37.665Z</time></trkpt><trkpt lat="44.7382633" lon="9.871725"><ele>505.0</ele><time>2026-03-28T11:08:39.665Z</time></trkpt><trkpt lat="44.7381817" lon="9.8718117"><ele>505.0</ele><time>2026-03-28T11:08:41.665Z</time></trkpt><trkpt lat="44.7381033" lon="9.87193"><ele>502.0</ele><time>2026-03-28T11:08:43.665Z</time></trkpt><trkpt lat="44.7380433" lon="9.87209"><ele>499.0</ele><time>2026-03-28T11:08:45.665Z</time></trkpt><trkpt lat="44.7380183" lon="9.8721717"><ele>496.0</ele><time>2026-03-28T11:08:46.665Z</time></trkpt><trkpt lat="44.7379883" lon="9.8722517"><ele>493.0</ele><time>2026-03-28T11:08:47.665Z</time></trkpt><trkpt lat="44.7379383" lon="9.8724033"><ele>490.0</ele><time>2026-03-28T11:08:49.666Z</time></trkpt><trkpt lat="44.7378767" lon="9.8725283"><ele>490.0</ele><time>2026-03-28T11:08:51.666Z</time></trkpt><trkpt lat="44.7378267" lon="9.8725883"><ele>490.0</ele><time>2026-03-28T11:08:52.665Z</time></trkpt><trkpt lat="44.737725" lon="9.8726533"><ele>490.0</ele><time>2026-03-28T11:08:54.666Z</time></trkpt><trkpt lat="44.7376633" lon="9.8726767"><ele>490.0</ele><time>2026-03-28T11:08:55.665Z</time></trkpt><trkpt lat="44.7375633" lon="9.8727333"><ele>490.0</ele><time>2026-03-28T11:08:57.665Z</time></trkpt><trkpt lat="44.7374883" lon="9.87283"><ele>489.1666666666667</ele><time>2026-03-28T11:08:59.666Z</time></trkpt><trkpt lat="44.7373817" lon="9.8728933"><ele>488.33333333333337</ele><time>2026-03-28T11:09:01.666Z</time></trkpt><trkpt lat="44.7372767" lon="9.8728667"><ele>487.5</ele><time>2026-03-28T11:09:03.667Z</time></trkpt><trkpt lat="44.7371933" lon="9.8728667"><ele>486.66666666666663</ele><time>2026-03-28T11:09:05.667Z</time></trkpt><trkpt lat="44.7371383" lon="9.8729317"><ele>485.8333333333333</ele><time>2026-03-28T11:09:07.666Z</time></trkpt><trkpt lat="44.7371033" lon="9.8730183"><ele>485.0</ele><time>2026-03-28T11:09:09.666Z</time></trkpt><trkpt lat="44.737045" lon="9.8731433"><ele>484.99999999999994</ele><time>2026-03-28T11:09:11.664Z</time></trkpt><trkpt lat="44.7369817" lon="9.873275"><ele>485.0</ele><time>2026-03-28T11:09:13.666Z</time></trkpt><trkpt lat="44.7369367" lon="9.873375"><ele>485.0</ele><time>2026-03-28T11:09:15.667Z</time></trkpt><trkpt lat="44.7368883" lon="9.8734317"><ele>485.0</ele><time>2026-03-28T11:09:17.666Z</time></trkpt><trkpt lat="44.736825" lon="9.873525"><ele>484.99999999999994</ele><time>2026-03-28T11:09:20.665Z</time></trkpt><trkpt lat="44.73678" lon="9.8735983"><ele>485.0</ele><time>2026-03-28T11:09:22.665Z</time></trkpt><trkpt lat="44.73673" lon="9.873665"><ele>485.8333333333333</ele><time>2026-03-28T11:09:24.664Z</time></trkpt><trkpt lat="44.736665" lon="9.873725"><ele>486.66666666666663</ele><time>2026-03-28T11:09:26.666Z</time></trkpt><trkpt lat="44.7365717" lon="9.8738067"><ele>487.5</ele><time>2026-03-28T11:09:28.666Z</time></trkpt><trkpt lat="44.7365167" lon="9.8738533"><ele>488.33333333333337</ele><time>2026-03-28T11:09:29.665Z</time></trkpt><trkpt lat="44.7364417" lon="9.8739267"><ele>489.1666666666667</ele><time>2026-03-28T11:09:31.666Z</time></trkpt><trkpt lat="44.7363867" lon="9.874"><ele>490.0</ele><time>2026-03-28T11:09:34.666Z</time></trkpt><trkpt lat="44.7363017" lon="9.8740633"><ele>490.00000000000006</ele><time>2026-03-28T11:09:37.665Z</time></trkpt><trkpt lat="44.73621" lon="9.874085"><ele>490.0</ele><time>2026-03-28T11:09:39.664Z</time></trkpt><trkpt lat="44.73612" lon="9.8740883"><ele>490.0</ele><time>2026-03-28T11:09:41.665Z</time></trkpt><trkpt lat="44.7360483" lon="9.8741017"><ele>490.0</ele><time>2026-03-28T11:09:43.665Z</time></trkpt><trkpt lat="44.7359767" lon="9.874145"><ele>490.00000000000006</ele><time>2026-03-28T11:09:47.667Z</time></trkpt><trkpt lat="44.735895" lon="9.8742183"><ele>490.0</ele><time>2026-03-28T11:10:15.666Z</time></trkpt><trkpt lat="44.73583" lon="9.8742717"><ele>490.4</ele><time>2026-03-28T11:10:18.665Z</time></trkpt><trkpt lat="44.735765" lon="9.87433"><ele>490.8</ele><time>2026-03-28T11:10:21.665Z</time></trkpt><trkpt lat="44.7357033" lon="9.874395"><ele>491.20000000000005</ele><time>2026-03-28T11:10:24.665Z</time></trkpt><trkpt lat="44.735635" lon="9.87445"><ele>491.6</ele><time>2026-03-28T11:10:26.666Z</time></trkpt><trkpt lat="44.73554" lon="9.874555"><ele>492.0</ele><time>2026-03-28T11:13:47.666Z</time></trkpt><trkpt lat="44.7354767" lon="9.874665"><ele>492.0</ele><time>2026-03-28T11:14:39.665Z</time></trkpt><trkpt lat="44.7355017" lon="9.8747617"><ele>492.0</ele><time>2026-03-28T11:15:58.666Z</time></trkpt><trkpt lat="44.7355533" lon="9.8748517"><ele>492.0</ele><time>2026-03-28T11:16:01.665Z</time></trkpt><trkpt lat="44.7356" lon="9.8749383"><ele>492.0</ele><time>2026-03-28T11:16:03.668Z</time></trkpt><trkpt lat="44.735645" lon="9.875045"><ele>492.0</ele><time>2026-03-28T11:16:05.666Z</time></trkpt><trkpt lat="44.7356833" lon="9.8751467"><ele>492.0</ele><time>2026-03-28T11:16:07.666Z</time></trkpt><trkpt lat="44.735725" lon="9.8752383"><ele>491.40000000000003</ele><time>2026-03-28T11:16:09.664Z</time></trkpt><trkpt lat="44.735755" lon="9.8753417"><ele>490.80000000000007</ele><time>2026-03-28T11:16:11.666Z</time></trkpt><trkpt lat="44.7357717" lon="9.8754733"><ele>490.2</ele><time>2026-03-28T11:16:13.666Z</time></trkpt><trkpt lat="44.73579" lon="9.87563"><ele>489.6</ele><time>2026-03-28T11:16:15.667Z</time></trkpt><trkpt lat="44.7358283" lon="9.875785"><ele>489.0</ele><time>2026-03-28T11:16:17.666Z</time></trkpt><trkpt lat="44.7358517" lon="9.875905"><ele>486.8571428571429</ele><time>2026-03-28T11:16:19.666Z</time></trkpt><trkpt lat="44.73587" lon="9.8760233"><ele>484.7142857142858</ele><time>2026-03-28T11:16:21.666Z</time></trkpt><trkpt lat="44.7358933" lon="9.8761183"><ele>482.57142857142856</ele><time>2026-03-28T11:16:23.667Z</time></trkpt><trkpt lat="44.73591" lon="9.87622"><ele>480.42857142857144</ele><time>2026-03-28T11:16:25.667Z</time></trkpt><trkpt lat="44.7359167" lon="9.8763167"><ele>478.2857142857143</ele><time>2026-03-28T11:16:27.667Z</time></trkpt><trkpt lat="44.7359267" lon="9.8764117"><ele>476.1428571428571</ele><time>2026-03-28T11:16:29.666Z</time></trkpt><trkpt lat="44.7359133" lon="9.8765017"><ele>473.99999999999994</ele><time>2026-03-28T11:16:31.666Z</time></trkpt><trkpt lat="44.735885" lon="9.8765983"><ele>474.0</ele><time>2026-03-28T11:16:33.666Z</time></trkpt><trkpt lat="44.73586" lon="9.8767183"><ele>474.0</ele><time>2026-03-28T11:16:36.666Z</time></trkpt><trkpt lat="44.7358233" lon="9.8768283"><ele>474.0</ele><time>2026-03-28T11:16:39.67Z</time></trkpt><trkpt lat="44.7357583" lon="9.8769667"><ele>474.0</ele><time>2026-03-28T11:17:05.666Z</time></trkpt><trkpt lat="44.73573" lon="9.8770783"><ele>474.0</ele><time>2026-03-28T11:17:09.666Z</time></trkpt><trkpt lat="44.735715" lon="9.877175"><ele>474.0</ele><time>2026-03-28T11:17:11.664Z</time></trkpt><trkpt lat="44.7357017" lon="9.8772967"><ele>471.6</ele><time>2026-03-28T11:17:13.667Z</time></trkpt><trkpt lat="44.7357033" lon="9.87744"><ele>469.2</ele><time>2026-03-28T11:17:15.666Z</time></trkpt><trkpt lat="44.7356967" lon="9.8776117"><ele>466.80000000000007</ele><time>2026-03-28T11:17:17.666Z</time></trkpt><trkpt lat="44.73569" lon="9.8777683"><ele>464.40000000000003</ele><time>2026-03-28T11:17:19.665Z</time></trkpt><trkpt lat="44.7356717" lon="9.8779"><ele>462.0</ele><time>2026-03-28T11:17:21.666Z</time></trkpt><trkpt lat="44.7356183" lon="9.8780383"><ele>460.3333333333333</ele><time>2026-03-28T11:17:23.667Z</time></trkpt><trkpt lat="44.7355483" lon="9.8781517"><ele>458.66666666666663</ele><time>2026-03-28T11:17:25.665Z</time></trkpt><trkpt lat="44.7355017" lon="9.8782133"><ele>457.0</ele><time>2026-03-28T11:17:27.666Z</time></trkpt><trkpt lat="44.7354583" lon="9.8782883"><ele>455.3333333333333</ele><time>2026-03-28T11:17:44.666Z</time></trkpt><trkpt lat="44.7353983" lon="9.8783617"><ele>453.66666666666663</ele><time>2026-03-28T11:17:47.666Z</time></trkpt><trkpt lat="44.7353217" lon="9.8784967"><ele>452.0</ele><time>2026-03-28T11:17:56.665Z</time></trkpt><trkpt lat="44.73531" lon="9.8786067"><ele>450.0</ele><time>2026-03-28T11:18:00.665Z</time></trkpt><trkpt lat="44.7353167" lon="9.878715"><ele>448.0</ele><time>2026-03-28T11:18:03.666Z</time></trkpt><trkpt lat="44.7352933" lon="9.878825"><ele>446.0</ele><time>2026-03-28T11:18:06.667Z</time></trkpt><trkpt lat="44.7352517" lon="9.8789"><ele>444.0</ele><time>2026-03-28T11:18:09.666Z</time></trkpt><trkpt lat="44.7352617" lon="9.8789917"><ele>442.0</ele><time>2026-03-28T11:18:12.668Z</time></trkpt><trkpt lat="44.735295" lon="9.879075"><ele>440.0</ele><time>2026-03-28T11:18:16.666Z</time></trkpt><trkpt lat="44.7352867" lon="9.8791733"><ele>438.0</ele><time>2026-03-28T11:18:19.666Z</time></trkpt><trkpt lat="44.7352733" lon="9.879285"><ele>436.3333333333333</ele><time>2026-03-28T11:18:22.665Z</time></trkpt><trkpt lat="44.7353133" lon="9.879385"><ele>434.66666666666663</ele><time>2026-03-28T11:18:25.666Z</time></trkpt><trkpt lat="44.73538" lon="9.8794267"><ele>433.0</ele><time>2026-03-28T11:18:28.666Z</time></trkpt><trkpt lat="44.7354733" lon="9.87944"><ele>431.3333333333333</ele><time>2026-03-28T11:18:31.665Z</time></trkpt><trkpt lat="44.735545" lon="9.87946"><ele>429.66666666666663</ele><time>2026-03-28T11:18:33.665Z</time></trkpt><trkpt lat="44.7356133" lon="9.8794817"><ele>428.0</ele><time>2026-03-28T11:18:35.665Z</time></trkpt><trkpt lat="44.7356817" lon="9.879535"><ele>427.99999999999994</ele><time>2026-03-28T11:18:38.666Z</time></trkpt><trkpt lat="44.7357067" lon="9.8796217"><ele>428.0</ele><time>2026-03-28T11:18:41.666Z</time></trkpt><trkpt lat="44.73573" lon="9.879715"><ele>428.0</ele><time>2026-03-28T11:18:43.666Z</time></trkpt><trkpt lat="44.7357567" lon="9.8798133"><ele>428.0</ele><time>2026-03-28T11:18:46.666Z</time></trkpt><trkpt lat="44.7358" lon="9.8799283"><ele>427.99999999999994</ele><time>2026-03-28T11:19:15.665Z</time></trkpt><trkpt lat="44.7358267" lon="9.8800717"><ele>428.0</ele><time>2026-03-28T11:19:17.666Z</time></trkpt><trkpt lat="44.735855" lon="9.88025"><ele>426.16666666666663</ele><time>2026-03-28T11:19:19.665Z</time></trkpt><trkpt lat="44.735875" lon="9.8803433"><ele>424.3333333333333</ele><time>2026-03-28T11:19:20.666Z</time></trkpt><trkpt lat="44.7358967" lon="9.8804333"><ele>422.5</ele><time>2026-03-28T11:19:21.664Z</time></trkpt><trkpt lat="44.7359133" lon="9.88052"><ele>420.66666666666663</ele><time>2026-03-28T11:19:22.665Z</time></trkpt><trkpt lat="44.7359217" lon="9.8806083"><ele>418.8333333333333</ele><time>2026-03-28T11:19:23.665Z</time></trkpt><trkpt lat="44.73591" lon="9.88077"><ele>417.0</ele><time>2026-03-28T11:19:25.665Z</time></trkpt><trkpt lat="44.73588" lon="9.8809133"><ele>415.5</ele><time>2026-03-28T11:19:27.665Z</time></trkpt><trkpt lat="44.7358817" lon="9.88103"><ele>414.0</ele><time>2026-03-28T11:19:29.665Z</time></trkpt><trkpt lat="44.73588" lon="9.8811267"><ele>412.5</ele><time>2026-03-28T11:19:31.665Z</time></trkpt><trkpt lat="44.7358767" lon="9.8812233"><ele>411.0</ele><time>2026-03-28T11:19:34.664Z</time></trkpt><trkpt lat="44.7359067" lon="9.8813517"><ele>409.5</ele><time>2026-03-28T11:19:37.669Z</time></trkpt><trkpt lat="44.7359117" lon="9.8814783"><ele>408.0</ele><time>2026-03-28T11:19:39.667Z</time></trkpt><trkpt lat="44.73586" lon="9.8816083"><ele>408.0</ele><time>2026-03-28T11:19:41.666Z</time></trkpt><trkpt lat="44.7357733" lon="9.8816383"><ele>408.0</ele><time>2026-03-28T11:19:43.666Z</time></trkpt><trkpt lat="44.735685" lon="9.8816233"><ele>408.0</ele><time>2026-03-28T11:19:45.666Z</time></trkpt><trkpt lat="44.7355833" lon="9.8816083"><ele>408.0</ele><time>2026-03-28T11:19:47.664Z</time></trkpt><trkpt lat="44.7354933" lon="9.881615"><ele>408.0</ele><time>2026-03-28T11:19:49.665Z</time></trkpt><trkpt lat="44.735415" lon="9.8816617"><ele>408.0</ele><time>2026-03-28T11:19:51.666Z</time></trkpt><trkpt lat="44.735335" lon="9.8816833"><ele>408.0</ele><time>2026-03-28T11:19:53.665Z</time></trkpt><trkpt lat="44.7352683" lon="9.8816217"><ele>408.0</ele><time>2026-03-28T11:19:56.666Z</time></trkpt><trkpt lat="44.7351717" lon="9.8815617"><ele>408.0</ele><time>2026-03-28T11:19:58.665Z</time></trkpt><trkpt lat="44.7351067" lon="9.8815367"><ele>408.0</ele><time>2026-03-28T11:19:59.665Z</time></trkpt><trkpt lat="44.735035" lon="9.8815217"><ele>408.0</ele><time>2026-03-28T11:20:00.665Z</time></trkpt><trkpt lat="44.734955" lon="9.8815167"><ele>409.2</ele><time>2026-03-28T11:20:01.664Z</time></trkpt><trkpt lat="44.73488" lon="9.881515"><ele>410.4</ele><time>2026-03-28T11:20:02.666Z</time></trkpt><trkpt lat="44.7348117" lon="9.88152"><ele>411.59999999999997</ele><time>2026-03-28T11:20:03.665Z</time></trkpt><trkpt lat="44.7347133" lon="9.8815817"><ele>412.79999999999995</ele><time>2026-03-28T11:20:05.666Z</time></trkpt><trkpt lat="44.7346217" lon="9.881735"><ele>414.0</ele><time>2026-03-28T11:20:07.664Z</time></trkpt><trkpt lat="44.7345667" lon="9.88185"><ele>415.3333333333333</ele><time>2026-03-28T11:20:08.665Z</time></trkpt><trkpt lat="44.7345133" lon="9.8819717"><ele>416.66666666666663</ele><time>2026-03-28T11:20:09.664Z</time></trkpt><trkpt lat="44.73448" lon="9.8820783"><ele>418.0</ele><time>2026-03-28T11:20:10.665Z</time></trkpt><trkpt lat="44.7344417" lon="9.8822317"><ele>419.3333333333333</ele><time>2026-03-28T11:20:12.665Z</time></trkpt><trkpt lat="44.734375" lon="9.8822917"><ele>420.66666666666663</ele><time>2026-03-28T11:20:14.665Z</time></trkpt><trkpt lat="44.7343117" lon="9.882255"><ele>422.0</ele><time>2026-03-28T11:20:16.665Z</time></trkpt><trkpt lat="44.73433" lon="9.8821183"><ele>422.8333333333333</ele><time>2026-03-28T11:20:19.665Z</time></trkpt><trkpt lat="44.7343433" lon="9.88201"><ele>423.66666666666663</ele><time>2026-03-28T11:20:21.664Z</time></trkpt><trkpt lat="44.7342817" lon="9.8819133"><ele>424.5</ele><time>2026-03-28T11:20:23.665Z</time></trkpt><trkpt lat="44.7341683" lon="9.8818667"><ele>425.33333333333337</ele><time>2026-03-28T11:20:25.665Z</time></trkpt><trkpt lat="44.734105" lon="9.881875"><ele>426.1666666666667</ele><time>2026-03-28T11:20:26.665Z</time></trkpt><trkpt lat="44.7340317" lon="9.8818983"><ele>427.0</ele><time>2026-03-28T11:20:27.665Z</time></trkpt><trkpt lat="44.7339583" lon="9.881935"><ele>427.0</ele><time>2026-03-28T11:20:28.665Z</time></trkpt><trkpt lat="44.7338933" lon="9.8819917"><ele>427.0</ele><time>2026-03-28T11:20:29.665Z</time></trkpt><trkpt lat="44.7338333" lon="9.882055"><ele>427.0</ele><time>2026-03-28T11:20:30.665Z</time></trkpt><trkpt lat="44.73378" lon="9.8821033"><ele>427.0</ele><time>2026-03-28T11:20:31.665Z</time></trkpt><trkpt lat="44.7337167" lon="9.88213"><ele>427.0</ele><time>2026-03-28T11:20:32.665Z</time></trkpt><trkpt lat="44.73365" lon="9.8821383"><ele>427.0</ele><time>2026-03-28T11:20:33.664Z</time></trkpt><trkpt lat="44.733585" lon="9.8821417"><ele>427.0</ele><time>2026-03-28T11:20:34.664Z</time></trkpt><trkpt lat="44.7335233" lon="9.88212"><ele>428.40000000000003</ele><time>2026-03-28T11:20:35.664Z</time></trkpt><trkpt lat="44.7334617" lon="9.8820683"><ele>429.80000000000007</ele><time>2026-03-28T11:20:36.664Z</time></trkpt><trkpt lat="44.7333983" lon="9.882025"><ele>431.2</ele><time>2026-03-28T11:20:37.664Z</time></trkpt><trkpt lat="44.7332833" lon="9.882015"><ele>432.6</ele><time>2026-03-28T11:20:39.665Z</time></trkpt><trkpt lat="44.73321" lon="9.8820583"><ele>434.0</ele><time>2026-03-28T11:20:40.665Z</time></trkpt><trkpt lat="44.7331067" lon="9.8821283"><ele>433.99999999999994</ele><time>2026-03-28T11:20:41.666Z</time></trkpt><trkpt lat="44.7330117" lon="9.8822067"><ele>434.0</ele><time>2026-03-28T11:20:42.665Z</time></trkpt><trkpt lat="44.73295" lon="9.88229"><ele>434.0</ele><time>2026-03-28T11:20:43.666Z</time></trkpt><trkpt lat="44.7329" lon="9.8823817"><ele>434.0</ele><time>2026-03-28T11:20:44.664Z</time></trkpt><trkpt lat="44.732865" lon="9.8824783"><ele>433.99999999999994</ele><time>2026-03-28T11:20:45.666Z</time></trkpt><trkpt lat="44.73284" lon="9.88258"><ele>434.0</ele><time>2026-03-28T11:20:46.664Z</time></trkpt><trkpt lat="44.732835" lon="9.882685"><ele>435.7142857142857</ele><time>2026-03-28T11:20:47.665Z</time></trkpt><trkpt lat="44.73283" lon="9.8827883"><ele>437.42857142857144</ele><time>2026-03-28T11:20:48.664Z</time></trkpt><trkpt lat="44.7328333" lon="9.88288"><ele>439.1428571428571</ele><time>2026-03-28T11:20:49.664Z</time></trkpt><trkpt lat="44.73284" lon="9.88297"><ele>440.8571428571429</ele><time>2026-03-28T11:20:50.665Z</time></trkpt><trkpt lat="44.7328433" lon="9.88306"><ele>442.57142857142856</ele><time>2026-03-28T11:20:51.666Z</time></trkpt><trkpt lat="44.7328617" lon="9.8831583"><ele>444.2857142857143</ele><time>2026-03-28T11:20:52.665Z</time></trkpt><trkpt lat="44.7328917" lon="9.8832617"><ele>446.0</ele><time>2026-03-28T11:20:53.666Z</time></trkpt><trkpt lat="44.732925" lon="9.883365"><ele>448.16666666666663</ele><time>2026-03-28T11:20:54.666Z</time></trkpt><trkpt lat="44.7329617" lon="9.88346"><ele>450.3333333333333</ele><time>2026-03-28T11:20:55.664Z</time></trkpt><trkpt lat="44.732995" lon="9.8835383"><ele>452.5</ele><time>2026-03-28T11:20:56.666Z</time></trkpt><trkpt lat="44.732995" lon="9.8836517"><ele>454.66666666666663</ele><time>2026-03-28T11:20:58.666Z</time></trkpt><trkpt lat="44.7329083" lon="9.8837167"><ele>456.8333333333333</ele><time>2026-03-28T11:21:00.666Z</time></trkpt><trkpt lat="44.73281" lon="9.8837667"><ele>459.0</ele><time>2026-03-28T11:21:02.665Z</time></trkpt><trkpt lat="44.73276" lon="9.88384"><ele>459.0</ele><time>2026-03-28T11:21:04.666Z</time></trkpt><trkpt lat="44.7327233" lon="9.8839533"><ele>459.0</ele><time>2026-03-28T11:21:07.666Z</time></trkpt><trkpt lat="44.7327083" lon="9.884045"><ele>459.0</ele><time>2026-03-28T11:21:15.665Z</time></trkpt><trkpt lat="44.7326783" lon="9.8841717"><ele>459.0</ele><time>2026-03-28T11:21:17.665Z</time></trkpt><trkpt lat="44.7326583" lon="9.8843383"><ele>459.0</ele><time>2026-03-28T11:21:19.666Z</time></trkpt><trkpt lat="44.7326517" lon="9.8844367"><ele>459.0</ele><time>2026-03-28T11:21:20.666Z</time></trkpt><trkpt lat="44.732655" lon="9.8845333"><ele>460.7142857142857</ele><time>2026-03-28T11:21:21.665Z</time></trkpt><trkpt lat="44.732665" lon="9.8846283"><ele>462.42857142857144</ele><time>2026-03-28T11:21:22.665Z</time></trkpt><trkpt lat="44.73268" lon="9.88473"><ele>464.14285714285717</ele><time>2026-03-28T11:21:23.665Z</time></trkpt><trkpt lat="44.73269" lon="9.8848217"><ele>465.8571428571429</ele><time>2026-03-28T11:21:24.665Z</time></trkpt><trkpt lat="44.7327033" lon="9.8849167"><ele>467.57142857142856</ele><time>2026-03-28T11:21:25.665Z</time></trkpt><trkpt lat="44.7327183" lon="9.885005"><ele>469.28571428571433</ele><time>2026-03-28T11:21:26.665Z</time></trkpt><trkpt lat="44.73273" lon="9.8851133"><ele>471.00000000000006</ele><time>2026-03-28T11:21:27.664Z</time></trkpt><trkpt lat="44.732745" lon="9.88523"><ele>474.0</ele><time>2026-03-28T11:21:28.666Z</time></trkpt><trkpt lat="44.7327683" lon="9.8853583"><ele>477.0</ele><time>2026-03-28T11:21:29.667Z</time></trkpt><trkpt lat="44.7327883" lon="9.885495"><ele>480.0</ele><time>2026-03-28T11:21:30.667Z</time></trkpt><trkpt lat="44.732805" lon="9.8856283"><ele>483.0</ele><time>2026-03-28T11:21:31.67Z</time></trkpt><trkpt lat="44.7328283" lon="9.8857517"><ele>486.0</ele><time>2026-03-28T11:21:32.665Z</time></trkpt><trkpt lat="44.7328467" lon="9.885865"><ele>487.0</ele><time>2026-03-28T11:21:33.665Z</time></trkpt><trkpt lat="44.732855" lon="9.885975"><ele>488.0</ele><time>2026-03-28T11:21:34.665Z</time></trkpt><trkpt lat="44.7328617" lon="9.8860667"><ele>489.0</ele><time>2026-03-28T11:21:35.664Z</time></trkpt><trkpt lat="44.7328883" lon="9.8862217"><ele>490.0</ele><time>2026-03-28T11:21:37.666Z</time></trkpt><trkpt lat="44.7329233" lon="9.8863133"><ele>491.0</ele><time>2026-03-28T11:21:38.665Z</time></trkpt><trkpt lat="44.7329683" lon="9.88641"><ele>492.0</ele><time>2026-03-28T11:21:39.665Z</time></trkpt><trkpt lat="44.7330217" lon="9.8864933"><ele>492.0</ele><time>2026-03-28T11:21:40.665Z</time></trkpt><trkpt lat="44.7330717" lon="9.886565"><ele>492.0</ele><time>2026-03-28T11:21:41.664Z</time></trkpt><trkpt lat="44.7331267" lon="9.88663"><ele>492.0</ele><time>2026-03-28T11:21:42.665Z</time></trkpt><trkpt lat="44.7332133" lon="9.8867467"><ele>492.0</ele><time>2026-03-28T11:21:44.665Z</time></trkpt><trkpt lat="44.73328" lon="9.8868467"><ele>492.0</ele><time>2026-03-28T11:21:46.665Z</time></trkpt><trkpt lat="44.7333117" lon="9.8869633"><ele>492.0</ele><time>2026-03-28T11:21:48.665Z</time></trkpt><trkpt lat="44.7333417" lon="9.8871183"><ele>492.1666666666667</ele><time>2026-03-28T11:21:50.666Z</time></trkpt><trkpt lat="44.733355" lon="9.88721"><ele>492.33333333333337</ele><time>2026-03-28T11:21:51.665Z</time></trkpt><trkpt lat="44.7333717" lon="9.8873233"><ele>492.5</ele><time>2026-03-28T11:21:52.664Z</time></trkpt><trkpt lat="44.73339" lon="9.8874417"><ele>492.6666666666667</ele><time>2026-03-28T11:21:53.665Z</time></trkpt><trkpt lat="44.7334067" lon="9.8875517"><ele>492.83333333333337</ele><time>2026-03-28T11:21:54.665Z</time></trkpt><trkpt lat="44.7334267" lon="9.887665"><ele>493.0</ele><time>2026-03-28T11:21:55.665Z</time></trkpt><trkpt lat="44.7334467" lon="9.887775"><ele>493.2</ele><time>2026-03-28T11:21:56.664Z</time></trkpt><trkpt lat="44.7334717" lon="9.8878733"><ele>493.4</ele><time>2026-03-28T11:21:57.665Z</time></trkpt><trkpt lat="44.7334933" lon="9.8879583"><ele>493.59999999999997</ele><time>2026-03-28T11:21:58.665Z</time></trkpt><trkpt lat="44.7335217" lon="9.8881033"><ele>493.79999999999995</ele><time>2026-03-28T11:22:00.665Z</time></trkpt><trkpt lat="44.7334817" lon="9.8882183"><ele>494.0</ele><time>2026-03-28T11:22:02.665Z</time></trkpt><trkpt lat="44.733375" lon="9.8883067"><ele>494.0</ele><time>2026-03-28T11:22:04.664Z</time></trkpt><trkpt lat="44.7332983" lon="9.8883683"><ele>494.0</ele><time>2026-03-28T11:22:05.665Z</time></trkpt><trkpt lat="44.7332183" lon="9.88843"><ele>494.0</ele><time>2026-03-28T11:22:06.666Z</time></trkpt><trkpt lat="44.73314" lon="9.888495"><ele>494.0</ele><time>2026-03-28T11:22:07.665Z</time></trkpt><trkpt lat="44.7330567" lon="9.8885683"><ele>494.0</ele><time>2026-03-28T11:22:08.665Z</time></trkpt><trkpt lat="44.7329667" lon="9.8886533"><ele>493.99999999999994</ele><time>2026-03-28T11:22:09.665Z</time></trkpt><trkpt lat="44.7328833" lon="9.8887367"><ele>494.0</ele><time>2026-03-28T11:22:10.665Z</time></trkpt><trkpt lat="44.732805" lon="9.8888133"><ele>494.0</ele><time>2026-03-28T11:22:11.665Z</time></trkpt><trkpt lat="44.7327333" lon="9.888875"><ele>494.0</ele><time>2026-03-28T11:22:12.665Z</time></trkpt><trkpt lat="44.7326633" lon="9.88892"><ele>493.99999999999994</ele><time>2026-03-28T11:22:13.665Z</time></trkpt><trkpt lat="44.7325933" lon="9.8889433"><ele>494.0</ele><time>2026-03-28T11:22:14.664Z</time></trkpt><trkpt lat="44.73251" lon="9.88895"><ele>495.0</ele><time>2026-03-28T11:22:15.666Z</time></trkpt><trkpt lat="44.732405" lon="9.888945"><ele>496.0</ele><time>2026-03-28T11:22:16.665Z</time></trkpt><trkpt lat="44.7322833" lon="9.88892"><ele>497.0</ele><time>2026-03-28T11:22:17.664Z</time></trkpt><trkpt lat="44.732155" lon="9.8888917"><ele>498.0</ele><time>2026-03-28T11:22:18.665Z</time></trkpt><trkpt lat="44.7320233" lon="9.88885"><ele>498.0</ele><time>2026-03-28T11:22:19.665Z</time></trkpt><trkpt lat="44.7319017" lon="9.8888017"><ele>497.99999999999994</ele><time>2026-03-28T11:22:20.666Z</time></trkpt><trkpt lat="44.7317883" lon="9.888745"><ele>497.99999999999994</ele><time>2026-03-28T11:22:21.665Z</time></trkpt><trkpt lat="44.7316867" lon="9.8886817"><ele>498.0</ele><time>2026-03-28T11:22:22.666Z</time></trkpt><trkpt lat="44.731605" lon="9.8886333"><ele>498.0</ele><time>2026-03-28T11:22:23.665Z</time></trkpt><trkpt lat="44.73154" lon="9.888605"><ele>498.1666666666667</ele><time>2026-03-28T11:22:24.665Z</time></trkpt><trkpt lat="44.731455" lon="9.8885683"><ele>498.33333333333337</ele><time>2026-03-28T11:22:26.667Z</time></trkpt><trkpt lat="44.7313917" lon="9.8885167"><ele>498.5</ele><time>2026-03-28T11:22:29.665Z</time></trkpt><trkpt lat="44.7313233" lon="9.8884217"><ele>498.6666666666667</ele><time>2026-03-28T11:22:32.666Z</time></trkpt><trkpt lat="44.7312667" lon="9.8882917"><ele>498.83333333333337</ele><time>2026-03-28T11:22:34.667Z</time></trkpt><trkpt lat="44.7312367" lon="9.8882117"><ele>499.0</ele><time>2026-03-28T11:22:35.665Z</time></trkpt><trkpt lat="44.7311833" lon="9.8880517"><ele>499.00000000000006</ele><time>2026-03-28T11:22:37.665Z</time></trkpt><trkpt lat="44.7311317" lon="9.8879167"><ele>499.0</ele><time>2026-03-28T11:22:39.664Z</time></trkpt><trkpt lat="44.7310817" lon="9.8878367"><ele>499.0</ele><time>2026-03-28T11:22:41.665Z</time></trkpt><trkpt lat="44.7310667" lon="9.8877317"><ele>499.0</ele><time>2026-03-28T11:23:00.666Z</time></trkpt><trkpt lat="44.7311317" lon="9.8876433"><ele>499.00000000000006</ele><time>2026-03-28T11:23:02.666Z</time></trkpt><trkpt lat="44.7311817" lon="9.88754"><ele>499.0</ele><time>2026-03-28T11:23:04.666Z</time></trkpt><trkpt lat="44.7311967" lon="9.8874033"><ele>499.1666666666667</ele><time>2026-03-28T11:23:06.666Z</time></trkpt><trkpt lat="44.7312017" lon="9.887265"><ele>499.33333333333337</ele><time>2026-03-28T11:23:08.667Z</time></trkpt><trkpt lat="44.731215" lon="9.8871617"><ele>499.5</ele><time>2026-03-28T11:23:10.665Z</time></trkpt><trkpt lat="44.731255" lon="9.887065"><ele>499.66666666666663</ele><time>2026-03-28T11:23:13.666Z</time></trkpt><trkpt lat="44.7313067" lon="9.8869867"><ele>499.8333333333333</ele><time>2026-03-28T11:23:17.666Z</time></trkpt><trkpt lat="44.73134" lon="9.8869083"><ele>500.0</ele><time>2026-03-28T11:23:22.665Z</time></trkpt><trkpt lat="44.731355" lon="9.887015"><ele>500.0</ele><time>2026-03-28T11:32:06.668Z</time></trkpt><trkpt lat="44.73137" lon="9.8871717"><ele>500.0</ele><time>2026-03-28T11:32:38.666Z</time></trkpt><trkpt lat="44.73135" lon="9.8872769"><ele>500.0</ele><time>2026-03-28T11:33:19.76Z</time></trkpt><trkpt lat="44.7313277" lon="9.8873609"><ele>500.0</ele><time>2026-03-28T11:33:47.736Z</time></trkpt><trkpt lat="44.7312921" lon="9.8874374"><ele>500.0</ele><time>2026-03-28T11:34:17.688Z</time></trkpt><trkpt lat="44.7312736" lon="9.8875222"><ele>500.0</ele><time>2026-03-28T11:34:52.735Z</time></trkpt><trkpt lat="44.731289" lon="9.8874349"><ele>500.0</ele><time>2026-03-28T12:48:14.744Z</time></trkpt><trkpt lat="44.7313822" lon="9.8874494"><ele>499.99999999999994</ele><time>2026-03-28T12:50:03.736Z</time></trkpt><trkpt lat="44.7313183" lon="9.8874495"><ele>500.0</ele><time>2026-03-28T12:51:09.776Z</time></trkpt><trkpt lat="44.7313347" lon="9.8873613"><ele>500.0</ele><time>2026-03-28T12:51:19.738Z</time></trkpt><trkpt lat="44.7313357" lon="9.8872212"><ele>500.0</ele><time>2026-03-28T12:51:38.687Z</time></trkpt><trkpt lat="44.7313409" lon="9.8870243"><ele>499.99999999999994</ele><time>2026-03-28T12:51:42.743Z</time></trkpt><trkpt lat="44.7313456" lon="9.8871136"><ele>500.0</ele><time>2026-03-28T12:59:33.666Z</time></trkpt><trkpt lat="44.7312927" lon="9.8871633"><ele>500.0</ele><time>2026-03-28T12:59:43.742Z</time></trkpt><trkpt lat="44.7312206" lon="9.8874082"><ele>500.0</ele><time>2026-03-28T12:59:46.664Z</time></trkpt><trkpt lat="44.7311846" lon="9.8875329"><ele>500.0</ele><time>2026-03-28T12:59:47.665Z</time></trkpt><trkpt lat="44.7311525" lon="9.8876134"><ele>500.0</ele><time>2026-03-28T12:59:48.665Z</time></trkpt><trkpt lat="44.7310774" lon="9.8877171"><ele>500.99999999999994</ele><time>2026-03-28T12:59:50.666Z</time></trkpt><trkpt lat="44.730997" lon="9.8877464"><ele>502.0</ele><time>2026-03-28T12:59:52.665Z</time></trkpt><trkpt lat="44.7309096" lon="9.887674"><ele>503.0</ele><time>2026-03-28T12:59:54.666Z</time></trkpt><trkpt lat="44.7308169" lon="9.8875651"><ele>504.0</ele><time>2026-03-28T12:59:56.665Z</time></trkpt><trkpt lat="44.7307662" lon="9.8875117"><ele>504.99999999999994</ele><time>2026-03-28T12:59:57.665Z</time></trkpt><trkpt lat="44.7307099" lon="9.8874552"><ele>506.0</ele><time>2026-03-28T12:59:58.666Z</time></trkpt><trkpt lat="44.7306458" lon="9.8873897"><ele>505.99999999999994</ele><time>2026-03-28T12:59:59.665Z</time></trkpt><trkpt lat="44.7305756" lon="9.8873242"><ele>506.0</ele><time>2026-03-28T13:00:00.666Z</time></trkpt><trkpt lat="44.7305046" lon="9.887259"><ele>506.0</ele><time>2026-03-28T13:00:01.666Z</time></trkpt><trkpt lat="44.7304367" lon="9.8871982"><ele>506.0</ele><time>2026-03-28T13:00:02.666Z</time></trkpt><trkpt lat="44.7303668" lon="9.8871401"><ele>505.99999999999994</ele><time>2026-03-28T13:00:03.665Z</time></trkpt><trkpt lat="44.7303016" lon="9.8870766"><ele>506.0</ele><time>2026-03-28T13:00:04.665Z</time></trkpt><trkpt lat="44.7302408" lon="9.886994"><ele>505.6</ele><time>2026-03-28T13:00:05.665Z</time></trkpt><trkpt lat="44.7301758" lon="9.8868986"><ele>505.20000000000005</ele><time>2026-03-28T13:00:06.665Z</time></trkpt><trkpt lat="44.7300983" lon="9.886803"><ele>504.79999999999995</ele><time>2026-03-28T13:00:07.668Z</time></trkpt><trkpt lat="44.7300132" lon="9.8867156"><ele>504.4</ele><time>2026-03-28T13:00:08.667Z</time></trkpt><trkpt lat="44.7299179" lon="9.8866354"><ele>504.0</ele><time>2026-03-28T13:00:09.665Z</time></trkpt><trkpt lat="44.7298136" lon="9.8865569"><ele>504.0</ele><time>2026-03-28T13:00:10.665Z</time></trkpt><trkpt lat="44.729703" lon="9.8864856"><ele>504.0</ele><time>2026-03-28T13:00:11.666Z</time></trkpt><trkpt lat="44.7295875" lon="9.8864231"><ele>504.0</ele><time>2026-03-28T13:00:12.666Z</time></trkpt><trkpt lat="44.7294731" lon="9.8863654"><ele>504.0</ele><time>2026-03-28T13:00:13.666Z</time></trkpt><trkpt lat="44.7293595" lon="9.886318"><ele>505.4</ele><time>2026-03-28T13:00:14.667Z</time></trkpt><trkpt lat="44.7292506" lon="9.8862771"><ele>506.79999999999995</ele><time>2026-03-28T13:00:15.666Z</time></trkpt><trkpt lat="44.7291509" lon="9.8862395"><ele>508.20000000000005</ele><time>2026-03-28T13:00:16.665Z</time></trkpt><trkpt lat="44.72906" lon="9.8862077"><ele>509.6</ele><time>2026-03-28T13:00:17.665Z</time></trkpt><trkpt lat="44.72898" lon="9.8861848"><ele>511.0</ele><time>2026-03-28T13:00:18.665Z</time></trkpt><trkpt lat="44.7289121" lon="9.8861719"><ele>511.00000000000006</ele><time>2026-03-28T13:00:19.667Z</time></trkpt><trkpt lat="44.7287949" lon="9.8861532"><ele>511.0</ele><time>2026-03-28T13:00:21.666Z</time></trkpt><trkpt lat="44.72871" lon="9.8861299"><ele>511.0</ele><time>2026-03-28T13:00:23.668Z</time></trkpt><trkpt lat="44.728626" lon="9.886097"><ele>511.0</ele><time>2026-03-28T13:00:26.665Z</time></trkpt><trkpt lat="44.7285528" lon="9.8860752"><ele>511.00000000000006</ele><time>2026-03-28T13:00:28.666Z</time></trkpt><trkpt lat="44.7284778" lon="9.8860454"><ele>511.0</ele><time>2026-03-28T13:00:30.705Z</time></trkpt><trkpt lat="44.7284116" lon="9.8860581"><ele>512.1666666666667</ele><time>2026-03-28T13:00:32.668Z</time></trkpt><trkpt lat="44.7283549" lon="9.8861513"><ele>513.3333333333334</ele><time>2026-03-28T13:00:34.666Z</time></trkpt><trkpt lat="44.7282825" lon="9.8862086"><ele>514.5</ele><time>2026-03-28T13:00:36.666Z</time></trkpt><trkpt lat="44.7282161" lon="9.8862478"><ele>515.6666666666666</ele><time>2026-03-28T13:00:39.665Z</time></trkpt><trkpt lat="44.7281337" lon="9.8863075"><ele>516.8333333333333</ele><time>2026-03-28T13:00:41.664Z</time></trkpt><trkpt lat="44.7280715" lon="9.8863545"><ele>518.0</ele><time>2026-03-28T13:00:42.666Z</time></trkpt><trkpt lat="44.7280011" lon="9.8864069"><ele>518.0</ele><time>2026-03-28T13:00:43.666Z</time></trkpt><trkpt lat="44.7279208" lon="9.8864546"><ele>518.0</ele><time>2026-03-28T13:00:44.668Z</time></trkpt><trkpt lat="44.7278386" lon="9.8864993"><ele>518.0</ele><time>2026-03-28T13:00:45.665Z</time></trkpt><trkpt lat="44.7277624" lon="9.8865459"><ele>518.0</ele><time>2026-03-28T13:00:46.665Z</time></trkpt><trkpt lat="44.7276866" lon="9.8866009"><ele>518.0</ele><time>2026-03-28T13:00:47.666Z</time></trkpt><trkpt lat="44.7276124" lon="9.8866579"><ele>518.0</ele><time>2026-03-28T13:00:48.666Z</time></trkpt><trkpt lat="44.7275396" lon="9.8867093"><ele>518.5</ele><time>2026-03-28T13:00:49.666Z</time></trkpt><trkpt lat="44.7274779" lon="9.8867517"><ele>519.0</ele><time>2026-03-28T13:00:50.666Z</time></trkpt><trkpt lat="44.7274144" lon="9.8867968"><ele>519.5</ele><time>2026-03-28T13:00:51.666Z</time></trkpt><trkpt lat="44.7273417" lon="9.8868426"><ele>520.0</ele><time>2026-03-28T13:00:52.665Z</time></trkpt><trkpt lat="44.7272684" lon="9.886889"><ele>520.5</ele><time>2026-03-28T13:00:53.665Z</time></trkpt><trkpt lat="44.7272005" lon="9.8869326"><ele>521.0</ele><time>2026-03-28T13:00:54.666Z</time></trkpt><trkpt lat="44.7271224" lon="9.8869858"><ele>524.6666666666666</ele><time>2026-03-28T13:00:56.667Z</time></trkpt><trkpt lat="44.7270566" lon="9.8870482"><ele>528.3333333333333</ele><time>2026-03-28T13:00:58.666Z</time></trkpt><trkpt lat="44.7270152" lon="9.8871308"><ele>532.0</ele><time>2026-03-28T13:01:00.666Z</time></trkpt><trkpt lat="44.7269666" lon="9.8872426"><ele>535.6666666666666</ele><time>2026-03-28T13:01:03.665Z</time></trkpt><trkpt lat="44.726911" lon="9.8873031"><ele>539.3333333333334</ele><time>2026-03-28T13:01:06.665Z</time></trkpt><trkpt lat="44.7268315" lon="9.88734"><ele>543.0</ele><time>2026-03-28T13:01:10.667Z</time></trkpt><trkpt lat="44.7267339" lon="9.887353"><ele>543.0</ele><time>2026-03-28T13:01:12.666Z</time></trkpt><trkpt lat="44.7266502" lon="9.8873991"><ele>543.0</ele><time>2026-03-28T13:01:14.665Z</time></trkpt><trkpt lat="44.7265681" lon="9.8874629"><ele>543.0</ele><time>2026-03-28T13:01:16.665Z</time></trkpt><trkpt lat="44.726489" lon="9.8875403"><ele>543.0</ele><time>2026-03-28T13:01:18.665Z</time></trkpt><trkpt lat="44.7264083" lon="9.8876063"><ele>543.0</ele><time>2026-03-28T13:01:20.667Z</time></trkpt><trkpt lat="44.7263552" lon="9.8876706"><ele>543.0</ele><time>2026-03-28T13:01:22.667Z</time></trkpt><trkpt lat="44.7262934" lon="9.8877557"><ele>543.0</ele><time>2026-03-28T13:01:25.666Z</time></trkpt><trkpt lat="44.7262207" lon="9.8877356"><ele>543.0</ele><time>2026-03-28T13:01:27.665Z</time></trkpt><trkpt lat="44.7261643" lon="9.8876479"><ele>543.0</ele><time>2026-03-28T13:01:29.666Z</time></trkpt><trkpt lat="44.7261351" lon="9.8875197"><ele>543.0</ele><time>2026-03-28T13:01:31.666Z</time></trkpt><trkpt lat="44.7260792" lon="9.8874187"><ele>543.0</ele><time>2026-03-28T13:01:33.665Z</time></trkpt><trkpt lat="44.7260139" lon="9.8873609"><ele>543.0</ele><time>2026-03-28T13:01:35.665Z</time></trkpt><trkpt lat="44.7259483" lon="9.8873533"><ele>546.0</ele><time>2026-03-28T13:01:37.667Z</time></trkpt><trkpt lat="44.7258421" lon="9.8873534"><ele>549.0</ele><time>2026-03-28T13:01:39.665Z</time></trkpt><trkpt lat="44.7257254" lon="9.8873492"><ele>552.0</ele><time>2026-03-28T13:01:41.666Z</time></trkpt><trkpt lat="44.7256218" lon="9.8873722"><ele>555.0</ele><time>2026-03-28T13:01:43.665Z</time></trkpt><trkpt lat="44.7255409" lon="9.8874055"><ele>558.0</ele><time>2026-03-28T13:01:58.666Z</time></trkpt><trkpt lat="44.7254759" lon="9.8874894"><ele>558.0</ele><time>2026-03-28T13:02:01.667Z</time></trkpt><trkpt lat="44.7254219" lon="9.8875707"><ele>558.0</ele><time>2026-03-28T13:02:04.667Z</time></trkpt><trkpt lat="44.7253653" lon="9.88764"><ele>558.0</ele><time>2026-03-28T13:02:08.667Z</time></trkpt><trkpt lat="44.7253155" lon="9.8877607"><ele>558.0</ele><time>2026-03-28T13:02:11.667Z</time></trkpt><trkpt lat="44.7252811" lon="9.8878622"><ele>558.0</ele><time>2026-03-28T13:02:14.666Z</time></trkpt><trkpt lat="44.7252548" lon="9.8879483"><ele>558.0</ele><time>2026-03-28T13:02:16.666Z</time></trkpt><trkpt lat="44.7251932" lon="9.8880417"><ele>563.6666666666666</ele><time>2026-03-28T13:02:19.665Z</time></trkpt><trkpt lat="44.7251354" lon="9.8880958"><ele>569.3333333333334</ele><time>2026-03-28T13:02:22.667Z</time></trkpt><trkpt lat="44.7250767" lon="9.8881533"><ele>575.0</ele><time>2026-03-28T13:02:28.667Z</time></trkpt><trkpt lat="44.72501" lon="9.8881867"><ele>580.6666666666667</ele><time>2026-03-28T13:02:30.667Z</time></trkpt><trkpt lat="44.7249283" lon="9.8882283"><ele>586.3333333333334</ele><time>2026-03-28T13:02:33.667Z</time></trkpt><trkpt lat="44.7248683" lon="9.88826"><ele>592.0</ele><time>2026-03-28T13:02:36.668Z</time></trkpt><trkpt lat="44.72477" lon="9.8882617"><ele>592.0</ele><time>2026-03-28T13:02:38.668Z</time></trkpt><trkpt lat="44.7246983" lon="9.88828"><ele>592.0</ele><time>2026-03-28T13:02:40.666Z</time></trkpt><trkpt lat="44.7246417" lon="9.8883617"><ele>592.0</ele><time>2026-03-28T13:02:43.666Z</time></trkpt><trkpt lat="44.724575" lon="9.8883967"><ele>592.0</ele><time>2026-03-28T13:02:46.667Z</time></trkpt><trkpt lat="44.7244767" lon="9.8883483"><ele>592.0</ele><time>2026-03-28T13:02:59.666Z</time></trkpt><trkpt lat="44.724435" lon="9.88827"><ele>592.0</ele><time>2026-03-28T13:03:01.665Z</time></trkpt><trkpt lat="44.72438" lon="9.888195"><ele>593.8333333333334</ele><time>2026-03-28T13:03:03.666Z</time></trkpt><trkpt lat="44.72432" lon="9.8881617"><ele>595.6666666666667</ele><time>2026-03-28T13:03:05.666Z</time></trkpt><trkpt lat="44.7242417" lon="9.88813"><ele>597.5</ele><time>2026-03-28T13:03:08.668Z</time></trkpt><trkpt lat="44.724185" lon="9.8880517"><ele>599.3333333333334</ele><time>2026-03-28T13:03:35.667Z</time></trkpt><trkpt lat="44.7241083" lon="9.8880267"><ele>601.1666666666666</ele><time>2026-03-28T13:03:38.668Z</time></trkpt><trkpt lat="44.7240283" lon="9.8880017"><ele>603.0</ele><time>2026-03-28T13:03:43.667Z</time></trkpt><trkpt lat="44.723935" lon="9.8879633"><ele>603.0</ele><time>2026-03-28T13:03:46.665Z</time></trkpt><trkpt lat="44.7238583" lon="9.88795"><ele>603.0</ele><time>2026-03-28T13:03:48.665Z</time></trkpt><trkpt lat="44.7237867" lon="9.8879417"><ele>603.0</ele><time>2026-03-28T13:03:50.667Z</time></trkpt><trkpt lat="44.7237117" lon="9.8879267"><ele>603.0</ele><time>2026-03-28T13:03:52.666Z</time></trkpt><trkpt lat="44.7236367" lon="9.8879067"><ele>603.0</ele><time>2026-03-28T13:03:54.667Z</time></trkpt><trkpt lat="44.7235733" lon="9.8878933"><ele>603.0</ele><time>2026-03-28T13:03:56.667Z</time></trkpt><trkpt lat="44.723495" lon="9.887895"><ele>603.0</ele><time>2026-03-28T13:03:58.666Z</time></trkpt><trkpt lat="44.7234317" lon="9.88791"><ele>604.0</ele><time>2026-03-28T13:04:01.666Z</time></trkpt><trkpt lat="44.7233717" lon="9.88787"><ele>605.0</ele><time>2026-03-28T13:04:35.665Z</time></trkpt><trkpt lat="44.7233133" lon="9.88783"><ele>606.0</ele><time>2026-03-28T13:04:37.666Z</time></trkpt><trkpt lat="44.72324" lon="9.8877883"><ele>607.0</ele><time>2026-03-28T13:04:40.665Z</time></trkpt><trkpt lat="44.72315" lon="9.88776"><ele>608.0</ele><time>2026-03-28T13:04:46.665Z</time></trkpt><trkpt lat="44.723215" lon="9.8877283"><ele>609.0</ele><time>2026-03-28T13:05:00.666Z</time></trkpt><trkpt lat="44.7232783" lon="9.88777"><ele>610.0</ele><time>2026-03-28T13:05:04.665Z</time></trkpt><trkpt lat="44.72334" lon="9.887805"><ele>610.0</ele><time>2026-03-28T13:05:08.666Z</time></trkpt><trkpt lat="44.7234117" lon="9.8877783"><ele>610.0</ele><time>2026-03-28T13:05:12.666Z</time></trkpt><trkpt lat="44.7235167" lon="9.88779"><ele>610.0</ele><time>2026-03-28T13:05:15.665Z</time></trkpt><trkpt lat="44.7236117" lon="9.8877933"><ele>610.0</ele><time>2026-03-28T13:05:17.666Z</time></trkpt><trkpt lat="44.7237" lon="9.8878133"><ele>610.0</ele><time>2026-03-28T13:05:19.665Z</time></trkpt><trkpt lat="44.7238033" lon="9.887825"><ele>608.6</ele><time>2026-03-28T13:05:21.665Z</time></trkpt><trkpt lat="44.72387" lon="9.8878333"><ele>607.2</ele><time>2026-03-28T13:05:22.665Z</time></trkpt><trkpt lat="44.7239667" lon="9.8878617"><ele>605.8</ele><time>2026-03-28T13:05:24.666Z</time></trkpt><trkpt lat="44.7240483" lon="9.8879117"><ele>604.4</ele><time>2026-03-28T13:05:26.665Z</time></trkpt><trkpt lat="44.7241383" lon="9.8879567"><ele>603.0</ele><time>2026-03-28T13:05:28.665Z</time></trkpt><trkpt lat="44.7242483" lon="9.887995"><ele>603.0</ele><time>2026-03-28T13:05:30.665Z</time></trkpt><trkpt lat="44.7243383" lon="9.8880633"><ele>603.0</ele><time>2026-03-28T13:05:32.666Z</time></trkpt><trkpt lat="44.7243917" lon="9.888155"><ele>603.0</ele><time>2026-03-28T13:05:34.665Z</time></trkpt><trkpt lat="44.7244367" lon="9.888265"><ele>603.0</ele><time>2026-03-28T13:05:36.666Z</time></trkpt><trkpt lat="44.724455" lon="9.88837"><ele>603.0</ele><time>2026-03-28T13:05:39.664Z</time></trkpt><trkpt lat="44.72439" lon="9.8884367"><ele>603.0</ele><time>2026-03-28T13:05:53.667Z</time></trkpt><trkpt lat="44.7242917" lon="9.8884683"><ele>608.0</ele><time>2026-03-28T13:06:02.667Z</time></trkpt><trkpt lat="44.724225" lon="9.8884983"><ele>613.0</ele><time>2026-03-28T13:06:05.665Z</time></trkpt><trkpt lat="44.7241333" lon="9.8884967"><ele>618.0</ele><time>2026-03-28T13:06:26.666Z</time></trkpt><trkpt lat="44.7242067" lon="9.8885183"><ele>623.0</ele><time>2026-03-28T13:09:15.665Z</time></trkpt><trkpt lat="44.7242517" lon="9.8886017"><ele>628.0</ele><time>2026-03-28T13:09:32.666Z</time></trkpt><trkpt lat="44.7241767" lon="9.8886383"><ele>633.0</ele><time>2026-03-28T13:09:36.666Z</time></trkpt><trkpt lat="44.7241133" lon="9.888655"><ele>633.0</ele><time>2026-03-28T13:09:38.666Z</time></trkpt><trkpt lat="44.724015" lon="9.8886317"><ele>633.0</ele><time>2026-03-28T13:09:40.668Z</time></trkpt><trkpt lat="44.7239067" lon="9.88859"><ele>633.0</ele><time>2026-03-28T13:09:42.668Z</time></trkpt><trkpt lat="44.7238417" lon="9.888565"><ele>633.0</ele><time>2026-03-28T13:09:43.665Z</time></trkpt><trkpt lat="44.723725" lon="9.8885383"><ele>633.0</ele><time>2026-03-28T13:09:45.666Z</time></trkpt><trkpt lat="44.723635" lon="9.8885317"><ele>634.0</ele><time>2026-03-28T13:09:47.666Z</time></trkpt><trkpt lat="44.7235317" lon="9.888565"><ele>635.0</ele><time>2026-03-28T13:09:49.665Z</time></trkpt><trkpt lat="44.7234533" lon="9.8885933"><ele>636.0</ele><time>2026-03-28T13:09:50.666Z</time></trkpt><trkpt lat="44.7233667" lon="9.8886217"><ele>637.0</ele><time>2026-03-28T13:09:51.666Z</time></trkpt><trkpt lat="44.7232767" lon="9.8886483"><ele>638.0</ele><time>2026-03-28T13:09:52.667Z</time></trkpt><trkpt lat="44.7232" lon="9.8886833"><ele>639.0</ele><time>2026-03-28T13:09:53.666Z</time></trkpt><trkpt lat="44.7231233" lon="9.8887183"><ele>639.0</ele><time>2026-03-28T13:09:54.666Z</time></trkpt><trkpt lat="44.7230567" lon="9.8887567"><ele>639.0</ele><time>2026-03-28T13:09:55.666Z</time></trkpt><trkpt lat="44.7229983" lon="9.888805"><ele>639.0</ele><time>2026-03-28T13:09:56.667Z</time></trkpt><trkpt lat="44.7228967" lon="9.8888683"><ele>639.0</ele><time>2026-03-28T13:09:58.666Z</time></trkpt><trkpt lat="44.7227833" lon="9.8888533"><ele>639.0</ele><time>2026-03-28T13:10:00.666Z</time></trkpt><trkpt lat="44.72269" lon="9.8887983"><ele>638.5714285714287</ele><time>2026-03-28T13:10:02.665Z</time></trkpt><trkpt lat="44.7226133" lon="9.8887417"><ele>638.1428571428571</ele><time>2026-03-28T13:10:05.666Z</time></trkpt><trkpt lat="44.7225483" lon="9.8886933"><ele>637.7142857142858</ele><time>2026-03-28T13:10:13.665Z</time></trkpt><trkpt lat="44.722505" lon="9.8886217"><ele>637.2857142857143</ele><time>2026-03-28T13:10:15.666Z</time></trkpt><trkpt lat="44.7224583" lon="9.8885617"><ele>636.8571428571429</ele><time>2026-03-28T13:10:17.667Z</time></trkpt><trkpt lat="44.7224" lon="9.8884967"><ele>636.4285714285714</ele><time>2026-03-28T13:10:19.666Z</time></trkpt><trkpt lat="44.72235" lon="9.8884083"><ele>636.0</ele><time>2026-03-28T13:10:21.665Z</time></trkpt><trkpt lat="44.7223133" lon="9.8883133"><ele>634.0</ele><time>2026-03-28T13:10:23.666Z</time></trkpt><trkpt lat="44.7222717" lon="9.8882217"><ele>632.0</ele><time>2026-03-28T13:10:25.666Z</time></trkpt><trkpt lat="44.72227" lon="9.8881133"><ele>630.0</ele><time>2026-03-28T13:10:27.664Z</time></trkpt><trkpt lat="44.722295" lon="9.8879983"><ele>628.0</ele><time>2026-03-28T13:10:29.666Z</time></trkpt><trkpt lat="44.7222867" lon="9.8879083"><ele>626.0</ele><time>2026-03-28T13:10:31.665Z</time></trkpt><trkpt lat="44.72221" lon="9.887855"><ele>624.0</ele><time>2026-03-28T13:10:34.665Z</time></trkpt><trkpt lat="44.7221367" lon="9.8878233"><ele>624.0</ele><time>2026-03-28T13:10:36.666Z</time></trkpt><trkpt lat="44.72205" lon="9.8878117"><ele>624.0</ele><time>2026-03-28T13:10:40.664Z</time></trkpt><trkpt lat="44.721985" lon="9.88776"><ele>624.0</ele><time>2026-03-28T13:10:43.665Z</time></trkpt><trkpt lat="44.7219167" lon="9.8877283"><ele>624.0</ele><time>2026-03-28T13:10:46.665Z</time></trkpt><trkpt lat="44.7218383" lon="9.8877667"><ele>624.0</ele><time>2026-03-28T13:10:53.665Z</time></trkpt><trkpt lat="44.7217283" lon="9.8877567"><ele>624.0</ele><time>2026-03-28T13:10:55.665Z</time></trkpt><trkpt lat="44.7215967" lon="9.8877383"><ele>628.0</ele><time>2026-03-28T13:10:57.665Z</time></trkpt><trkpt lat="44.7215233" lon="9.8877317"><ele>632.0</ele><time>2026-03-28T13:10:58.666Z</time></trkpt><trkpt lat="44.7214117" lon="9.887705"><ele>636.0</ele><time>2026-03-28T13:11:00.666Z</time></trkpt><trkpt lat="44.72134" lon="9.8877"><ele>640.0</ele><time>2026-03-28T13:11:02.667Z</time></trkpt><trkpt lat="44.7212483" lon="9.88766"><ele>644.0</ele><time>2026-03-28T13:11:05.666Z</time></trkpt><trkpt lat="44.7211867" lon="9.887625"><ele>648.0</ele><time>2026-03-28T13:11:07.666Z</time></trkpt><trkpt lat="44.7211217" lon="9.8876083"><ele>648.2857142857143</ele><time>2026-03-28T13:11:16.665Z</time></trkpt><trkpt lat="44.7210617" lon="9.8875667"><ele>648.5714285714286</ele><time>2026-03-28T13:11:18.667Z</time></trkpt><trkpt lat="44.7209883" lon="9.887515"><ele>648.8571428571429</ele><time>2026-03-28T13:11:21.666Z</time></trkpt><trkpt lat="44.7209233" lon="9.8874667"><ele>649.1428571428571</ele><time>2026-03-28T13:11:33.665Z</time></trkpt><trkpt lat="44.7208583" lon="9.8874567"><ele>649.4285714285714</ele><time>2026-03-28T13:11:36.666Z</time></trkpt><trkpt lat="44.72079" lon="9.8874233"><ele>649.7142857142857</ele><time>2026-03-28T13:11:40.668Z</time></trkpt><trkpt lat="44.720705" lon="9.8874067"><ele>650.0</ele><time>2026-03-28T13:11:42.665Z</time></trkpt><trkpt lat="44.720625" lon="9.88744"><ele>650.0</ele><time>2026-03-28T13:11:44.666Z</time></trkpt><trkpt lat="44.72056" lon="9.887485"><ele>650.0</ele><time>2026-03-28T13:11:46.665Z</time></trkpt><trkpt lat="44.7204783" lon="9.8874867"><ele>650.0</ele><time>2026-03-28T13:11:48.665Z</time></trkpt><trkpt lat="44.7203833" lon="9.8874817"><ele>650.0</ele><time>2026-03-28T13:11:50.666Z</time></trkpt><trkpt lat="44.72029" lon="9.8874533"><ele>650.0</ele><time>2026-03-28T13:11:52.665Z</time></trkpt><trkpt lat="44.7201733" lon="9.8874217"><ele>651.6666666666666</ele><time>2026-03-28T13:11:54.667Z</time></trkpt><trkpt lat="44.7200917" lon="9.8873983"><ele>653.3333333333333</ele><time>2026-03-28T13:11:55.666Z</time></trkpt><trkpt lat="44.720005" lon="9.8873683"><ele>655.0</ele><time>2026-03-28T13:11:56.667Z</time></trkpt><trkpt lat="44.7199183" lon="9.8873433"><ele>656.6666666666666</ele><time>2026-03-28T13:11:57.665Z</time></trkpt><trkpt lat="44.7198333" lon="9.887315"><ele>658.3333333333334</ele><time>2026-03-28T13:11:58.667Z</time></trkpt><trkpt lat="44.719735" lon="9.8872933"><ele>660.0</ele><time>2026-03-28T13:11:59.667Z</time></trkpt><trkpt lat="44.7196433" lon="9.8872867"><ele>660.0</ele><time>2026-03-28T13:12:00.666Z</time></trkpt><trkpt lat="44.719575" lon="9.887275"><ele>660.0</ele><time>2026-03-28T13:12:01.668Z</time></trkpt><trkpt lat="44.7195117" lon="9.8872633"><ele>660.0</ele><time>2026-03-28T13:12:02.667Z</time></trkpt><trkpt lat="44.7194133" lon="9.8872633"><ele>660.0</ele><time>2026-03-28T13:12:04.666Z</time></trkpt><trkpt lat="44.719375" lon="9.8873467"><ele>660.0</ele><time>2026-03-28T13:12:06.667Z</time></trkpt><trkpt lat="44.7193817" lon="9.8875133"><ele>660.0</ele><time>2026-03-28T13:12:08.667Z</time></trkpt><trkpt lat="44.7194" lon="9.8876117"><ele>663.8</ele><time>2026-03-28T13:12:09.666Z</time></trkpt><trkpt lat="44.71944" lon="9.8877633"><ele>667.6</ele><time>2026-03-28T13:12:11.666Z</time></trkpt><trkpt lat="44.7194367" lon="9.887865"><ele>671.4000000000001</ele><time>2026-03-28T13:12:13.665Z</time></trkpt><trkpt lat="44.719345" lon="9.88786"><ele>675.2</ele><time>2026-03-28T13:12:16.665Z</time></trkpt><trkpt lat="44.7192717" lon="9.8878433"><ele>679.0</ele><time>2026-03-28T13:12:18.666Z</time></trkpt><trkpt lat="44.719155" lon="9.88784"><ele>681.0</ele><time>2026-03-28T13:12:41.665Z</time></trkpt><trkpt lat="44.7190067" lon="9.8878233"><ele>683.0</ele><time>2026-03-28T13:12:43.665Z</time></trkpt><trkpt lat="44.7189" lon="9.8878133"><ele>685.0</ele><time>2026-03-28T13:12:44.666Z</time></trkpt><trkpt lat="44.7187983" lon="9.88781"><ele>687.0</ele><time>2026-03-28T13:12:45.666Z</time></trkpt><trkpt lat="44.718695" lon="9.8878067"><ele>687.0</ele><time>2026-03-28T13:12:46.665Z</time></trkpt><trkpt lat="44.7185817" lon="9.8878033"><ele>687.0</ele><time>2026-03-28T13:12:47.665Z</time></trkpt><trkpt lat="44.718465" lon="9.8878"><ele>687.0</ele><time>2026-03-28T13:12:48.665Z</time></trkpt><trkpt lat="44.7183517" lon="9.8877967"><ele>687.0</ele><time>2026-03-28T13:12:49.666Z</time></trkpt><trkpt lat="44.71825" lon="9.8877917"><ele>687.0</ele><time>2026-03-28T13:12:50.665Z</time></trkpt><trkpt lat="44.718165" lon="9.8877833"><ele>685.8</ele><time>2026-03-28T13:12:51.665Z</time></trkpt><trkpt lat="44.7180917" lon="9.8877717"><ele>684.6</ele><time>2026-03-28T13:12:52.665Z</time></trkpt><trkpt lat="44.7179767" lon="9.88774"><ele>683.4</ele><time>2026-03-28T13:12:54.667Z</time></trkpt><trkpt lat="44.71789" lon="9.8877567"><ele>682.1999999999999</ele><time>2026-03-28T13:12:56.665Z</time></trkpt><trkpt lat="44.7177933" lon="9.8878583"><ele>681.0</ele><time>2026-03-28T13:12:58.665Z</time></trkpt><trkpt lat="44.7177333" lon="9.8879367"><ele>681.0</ele><time>2026-03-28T13:12:59.665Z</time></trkpt><trkpt lat="44.7176717" lon="9.8880367"><ele>681.0</ele><time>2026-03-28T13:13:00.665Z</time></trkpt><trkpt lat="44.717625" lon="9.8881583"><ele>681.0</ele><time>2026-03-28T13:13:01.665Z</time></trkpt><trkpt lat="44.7175833" lon="9.8883067"><ele>681.0</ele><time>2026-03-28T13:13:02.665Z</time></trkpt><trkpt lat="44.7175433" lon="9.888465"><ele>681.0</ele><time>2026-03-28T13:13:03.665Z</time></trkpt><trkpt lat="44.71749" lon="9.8886217"><ele>684.5999999999999</ele><time>2026-03-28T13:13:04.665Z</time></trkpt><trkpt lat="44.7174283" lon="9.88877"><ele>688.2</ele><time>2026-03-28T13:13:05.665Z</time></trkpt><trkpt lat="44.7173733" lon="9.8889067"><ele>691.8</ele><time>2026-03-28T13:13:06.667Z</time></trkpt><trkpt lat="44.7173267" lon="9.88904"><ele>695.4000000000001</ele><time>2026-03-28T13:13:07.665Z</time></trkpt><trkpt lat="44.717275" lon="9.889155"><ele>699.0</ele><time>2026-03-28T13:13:08.667Z</time></trkpt><trkpt lat="44.7172083" lon="9.8892433"><ele>697.5</ele><time>2026-03-28T13:13:09.666Z</time></trkpt><trkpt lat="44.7171283" lon="9.889305"><ele>696.0</ele><time>2026-03-28T13:13:10.665Z</time></trkpt><trkpt lat="44.7170367" lon="9.8893367"><ele>694.5</ele><time>2026-03-28T13:13:11.666Z</time></trkpt><trkpt lat="44.7169483" lon="9.8893317"><ele>693.0</ele><time>2026-03-28T13:13:12.665Z</time></trkpt><trkpt lat="44.71687" lon="9.8893067"><ele>691.5</ele><time>2026-03-28T13:13:13.666Z</time></trkpt><trkpt lat="44.716795" lon="9.8892983"><ele>690.0</ele><time>2026-03-28T13:13:14.666Z</time></trkpt><trkpt lat="44.71673" lon="9.88932"><ele>690.0</ele><time>2026-03-28T13:13:15.664Z</time></trkpt><trkpt lat="44.716685" lon="9.8894017"><ele>690.0</ele><time>2026-03-28T13:13:16.664Z</time></trkpt><trkpt lat="44.7166567" lon="9.8895117"><ele>690.0</ele><time>2026-03-28T13:13:17.666Z</time></trkpt><trkpt lat="44.7166467" lon="9.8896517"><ele>690.0</ele><time>2026-03-28T13:13:18.666Z</time></trkpt><trkpt lat="44.716625" lon="9.88981"><ele>690.0</ele><time>2026-03-28T13:13:19.666Z</time></trkpt><trkpt lat="44.7165817" lon="9.8899783"><ele>693.6</ele><time>2026-03-28T13:13:20.667Z</time></trkpt><trkpt lat="44.7165367" lon="9.8901483"><ele>697.2</ele><time>2026-03-28T13:13:21.666Z</time></trkpt><trkpt lat="44.7165017" lon="9.8903017"><ele>700.8</ele><time>2026-03-28T13:13:22.666Z</time></trkpt><trkpt lat="44.7164667" lon="9.8904367"><ele>704.4</ele><time>2026-03-28T13:13:23.667Z</time></trkpt><trkpt lat="44.7164083" lon="9.890545"><ele>708.0</ele><time>2026-03-28T13:13:24.666Z</time></trkpt><trkpt lat="44.7163283" lon="9.890615"><ele>708.0</ele><time>2026-03-28T13:13:25.664Z</time></trkpt><trkpt lat="44.7162167" lon="9.89065"><ele>708.0</ele><time>2026-03-28T13:13:26.665Z</time></trkpt><trkpt lat="44.7161" lon="9.890665"><ele>708.0</ele><time>2026-03-28T13:13:27.665Z</time></trkpt><trkpt lat="44.7159833" lon="9.890695"><ele>708.0</ele><time>2026-03-28T13:13:28.665Z</time></trkpt><trkpt lat="44.7158717" lon="9.8907483"><ele>708.0</ele><time>2026-03-28T13:13:29.666Z</time></trkpt><trkpt lat="44.7157667" lon="9.8908217"><ele>708.0</ele><time>2026-03-28T13:13:30.666Z</time></trkpt><trkpt lat="44.7156717" lon="9.8908983"><ele>708.0</ele><time>2026-03-28T13:13:31.666Z</time></trkpt><trkpt lat="44.7155883" lon="9.890985"><ele>708.0</ele><time>2026-03-28T13:13:32.666Z</time></trkpt><trkpt lat="44.715525" lon="9.8910933"><ele>708.0</ele><time>2026-03-28T13:13:33.666Z</time></trkpt><trkpt lat="44.7154667" lon="9.8912267"><ele>708.0</ele><time>2026-03-28T13:13:34.666Z</time></trkpt><trkpt lat="44.7154233" lon="9.89139"><ele>708.0</ele><time>2026-03-28T13:13:35.665Z</time></trkpt><trkpt lat="44.7153833" lon="9.8915583"><ele>708.0</ele><time>2026-03-28T13:13:36.664Z</time></trkpt><trkpt lat="44.7153317" lon="9.8917117"><ele>708.0</ele><time>2026-03-28T13:13:37.665Z</time></trkpt><trkpt lat="44.7152617" lon="9.8918417"><ele>704.5</ele><time>2026-03-28T13:13:38.666Z</time></trkpt><trkpt lat="44.7151667" lon="9.8919567"><ele>701.0</ele><time>2026-03-28T13:13:39.665Z</time></trkpt><trkpt lat="44.7150633" lon="9.89206"><ele>697.5</ele><time>2026-03-28T13:13:40.666Z</time></trkpt><trkpt lat="44.7149667" lon="9.8921583"><ele>694.0</ele><time>2026-03-28T13:13:41.665Z</time></trkpt><trkpt lat="44.7148733" lon="9.89226"><ele>694.0</ele><time>2026-03-28T13:13:42.666Z</time></trkpt><trkpt lat="44.7147883" lon="9.8923733"><ele>694.0</ele><time>2026-03-28T13:13:43.666Z</time></trkpt><trkpt lat="44.7147333" lon="9.89249"><ele>694.0</ele><time>2026-03-28T13:13:44.665Z</time></trkpt><trkpt lat="44.714695" lon="9.8926233"><ele>694.0</ele><time>2026-03-28T13:13:45.664Z</time></trkpt><trkpt lat="44.7146833" lon="9.8927783"><ele>694.0</ele><time>2026-03-28T13:13:46.665Z</time></trkpt><trkpt lat="44.7146883" lon="9.8929567"><ele>694.25</ele><time>2026-03-28T13:13:47.669Z</time></trkpt><trkpt lat="44.7147067" lon="9.89314"><ele>694.5</ele><time>2026-03-28T13:13:48.666Z</time></trkpt><trkpt lat="44.714735" lon="9.8933067"><ele>694.75</ele><time>2026-03-28T13:13:49.666Z</time></trkpt><trkpt lat="44.7147667" lon="9.8934617"><ele>695.0</ele><time>2026-03-28T13:13:50.665Z</time></trkpt><trkpt lat="44.7147917" lon="9.8936083"><ele>695.2</ele><time>2026-03-28T13:13:51.664Z</time></trkpt><trkpt lat="44.7148017" lon="9.89375"><ele>695.4</ele><time>2026-03-28T13:13:52.666Z</time></trkpt><trkpt lat="44.7147917" lon="9.8938783"><ele>695.5999999999999</ele><time>2026-03-28T13:13:53.665Z</time></trkpt><trkpt lat="44.7147633" lon="9.894005"><ele>695.8</ele><time>2026-03-28T13:13:54.666Z</time></trkpt><trkpt lat="44.7147233" lon="9.8941333"><ele>696.0</ele><time>2026-03-28T13:13:55.665Z</time></trkpt><trkpt lat="44.7146683" lon="9.89425"><ele>694.6666666666666</ele><time>2026-03-28T13:13:56.665Z</time></trkpt><trkpt lat="44.7146117" lon="9.8943633"><ele>693.3333333333334</ele><time>2026-03-28T13:13:57.665Z</time></trkpt><trkpt lat="44.714545" lon="9.8944483"><ele>692.0</ele><time>2026-03-28T13:13:58.665Z</time></trkpt><trkpt lat="44.7144767" lon="9.8944983"><ele>690.6666666666667</ele><time>2026-03-28T13:13:59.666Z</time></trkpt><trkpt lat="44.71439" lon="9.8944983"><ele>689.3333333333334</ele><time>2026-03-28T13:14:00.665Z</time></trkpt><trkpt lat="44.7143" lon="9.8944767"><ele>688.0</ele><time>2026-03-28T13:14:01.666Z</time></trkpt><trkpt lat="44.7142167" lon="9.89447"><ele>688.0</ele><time>2026-03-28T13:14:02.666Z</time></trkpt><trkpt lat="44.714135" lon="9.8944833"><ele>688.0</ele><time>2026-03-28T13:14:03.665Z</time></trkpt><trkpt lat="44.714065" lon="9.8945117"><ele>688.0</ele><time>2026-03-28T13:14:04.666Z</time></trkpt><trkpt lat="44.7139967" lon="9.89456"><ele>688.0</ele><time>2026-03-28T13:14:05.666Z</time></trkpt><trkpt lat="44.71392" lon="9.8946233"><ele>688.0</ele><time>2026-03-28T13:14:06.67Z</time></trkpt><trkpt lat="44.713835" lon="9.8946933"><ele>688.0</ele><time>2026-03-28T13:14:07.666Z</time></trkpt><trkpt lat="44.7137483" lon="9.8947483"><ele>688.0</ele><time>2026-03-28T13:14:08.667Z</time></trkpt><trkpt lat="44.7136633" lon="9.89479"><ele>688.0</ele><time>2026-03-28T13:14:09.667Z</time></trkpt><trkpt lat="44.713585" lon="9.8948117"><ele>688.0</ele><time>2026-03-28T13:14:10.666Z</time></trkpt><trkpt lat="44.71352" lon="9.8948233"><ele>688.0</ele><time>2026-03-28T13:14:11.666Z</time></trkpt><trkpt lat="44.7134267" lon="9.8948133"><ele>688.0</ele><time>2026-03-28T13:14:13.665Z</time></trkpt><trkpt lat="44.7133433" lon="9.8947817"><ele>688.0</ele><time>2026-03-28T13:14:15.665Z</time></trkpt><trkpt lat="44.7132533" lon="9.8947583"><ele>687.1666666666667</ele><time>2026-03-28T13:14:18.664Z</time></trkpt><trkpt lat="44.713185" lon="9.8947367"><ele>686.3333333333334</ele><time>2026-03-28T13:14:20.666Z</time></trkpt><trkpt lat="44.7131167" lon="9.894725"><ele>685.5</ele><time>2026-03-28T13:14:22.665Z</time></trkpt><trkpt lat="44.7130483" lon="9.8947017"><ele>684.6666666666666</ele><time>2026-03-28T13:14:24.665Z</time></trkpt><trkpt lat="44.71298" lon="9.8946333"><ele>683.8333333333333</ele><time>2026-03-28T13:14:27.665Z</time></trkpt><trkpt lat="44.7129483" lon="9.8945333"><ele>683.0</ele><time>2026-03-28T13:14:29.666Z</time></trkpt><trkpt lat="44.7129033" lon="9.8943617"><ele>683.0</ele><time>2026-03-28T13:14:31.667Z</time></trkpt><trkpt lat="44.71288" lon="9.894265"><ele>683.0</ele><time>2026-03-28T13:14:32.666Z</time></trkpt><trkpt lat="44.7128467" lon="9.8941767"><ele>683.0</ele><time>2026-03-28T13:14:33.665Z</time></trkpt><trkpt lat="44.7128017" lon="9.8941067"><ele>683.0</ele><time>2026-03-28T13:14:34.664Z</time></trkpt><trkpt lat="44.7127417" lon="9.89406"><ele>683.0</ele><time>2026-03-28T13:14:35.665Z</time></trkpt><trkpt lat="44.712665" lon="9.8940283"><ele>683.0</ele><time>2026-03-28T13:14:36.665Z</time></trkpt><trkpt lat="44.7125783" lon="9.894005"><ele>683.0</ele><time>2026-03-28T13:14:37.666Z</time></trkpt><trkpt lat="44.7124917" lon="9.8940033"><ele>680.5999999999999</ele><time>2026-03-28T13:14:38.668Z</time></trkpt><trkpt lat="44.7123983" lon="9.894015"><ele>678.1999999999999</ele><time>2026-03-28T13:14:39.665Z</time></trkpt><trkpt lat="44.7122967" lon="9.8940517"><ele>675.8</ele><time>2026-03-28T13:14:40.666Z</time></trkpt><trkpt lat="44.712195" lon="9.894095"><ele>673.4</ele><time>2026-03-28T13:14:41.666Z</time></trkpt><trkpt lat="44.712095" lon="9.89414"><ele>671.0</ele><time>2026-03-28T13:14:42.666Z</time></trkpt><trkpt lat="44.7119983" lon="9.8941767"><ele>668.1999999999999</ele><time>2026-03-28T13:14:43.664Z</time></trkpt><trkpt lat="44.7119" lon="9.8942117"><ele>665.4</ele><time>2026-03-28T13:14:44.666Z</time></trkpt><trkpt lat="44.711805" lon="9.894255"><ele>662.6</ele><time>2026-03-28T13:14:45.666Z</time></trkpt><trkpt lat="44.7117183" lon="9.894315"><ele>659.8</ele><time>2026-03-28T13:14:46.76Z</time></trkpt><trkpt lat="44.7116433" lon="9.8943967"><ele>657.0</ele><time>2026-03-28T13:14:47.666Z</time></trkpt><trkpt lat="44.711585" lon="9.89449"><ele>661.0</ele><time>2026-03-28T13:14:48.666Z</time></trkpt><trkpt lat="44.7115367" lon="9.8945833"><ele>665.0</ele><time>2026-03-28T13:14:49.665Z</time></trkpt><trkpt lat="44.7114867" lon="9.8946683"><ele>669.0</ele><time>2026-03-28T13:14:50.666Z</time></trkpt><trkpt lat="44.7114333" lon="9.894735"><ele>673.0</ele><time>2026-03-28T13:14:51.666Z</time></trkpt><trkpt lat="44.711375" lon="9.894775"><ele>677.0</ele><time>2026-03-28T13:14:52.664Z</time></trkpt><trkpt lat="44.7113083" lon="9.8947833"><ele>681.0</ele><time>2026-03-28T13:14:53.667Z</time></trkpt><trkpt lat="44.7112383" lon="9.89475"><ele>685.0</ele><time>2026-03-28T13:14:54.666Z</time></trkpt><trkpt lat="44.7111567" lon="9.8946867"><ele>685.0</ele><time>2026-03-28T13:14:55.666Z</time></trkpt><trkpt lat="44.7110767" lon="9.894605"><ele>685.0</ele><time>2026-03-28T13:14:56.668Z</time></trkpt><trkpt lat="44.7109917" lon="9.8945367"><ele>685.0</ele><time>2026-03-28T13:14:57.666Z</time></trkpt><trkpt lat="44.7108983" lon="9.8944883"><ele>685.0</ele><time>2026-03-28T13:14:58.664Z</time></trkpt><trkpt lat="44.7108" lon="9.8944533"><ele>685.0</ele><time>2026-03-28T13:14:59.665Z</time></trkpt><trkpt lat="44.7107033" lon="9.894435"><ele>683.0</ele><time>2026-03-28T13:15:00.666Z</time></trkpt><trkpt lat="44.7106083" lon="9.89444"><ele>681.0</ele><time>2026-03-28T13:15:01.666Z</time></trkpt><trkpt lat="44.7105217" lon="9.8944717"><ele>679.0</ele><time>2026-03-28T13:15:02.665Z</time></trkpt><trkpt lat="44.7104433" lon="9.8945333"><ele>677.0</ele><time>2026-03-28T13:15:03.667Z</time></trkpt><trkpt lat="44.7103583" lon="9.8946067"><ele>675.0</ele><time>2026-03-28T13:15:04.666Z</time></trkpt><trkpt lat="44.710275" lon="9.89468"><ele>670.8</ele><time>2026-03-28T13:15:05.666Z</time></trkpt><trkpt lat="44.71019" lon="9.8947383"><ele>666.6</ele><time>2026-03-28T13:15:06.666Z</time></trkpt><trkpt lat="44.7100967" lon="9.89477"><ele>662.4000000000001</ele><time>2026-03-28T13:15:07.666Z</time></trkpt><trkpt lat="44.7099967" lon="9.8947967"><ele>658.2</ele><time>2026-03-28T13:15:08.666Z</time></trkpt><trkpt lat="44.7098967" lon="9.89484"><ele>654.0</ele><time>2026-03-28T13:15:09.665Z</time></trkpt><trkpt lat="44.709815" lon="9.89491"><ele>654.0</ele><time>2026-03-28T13:15:10.665Z</time></trkpt><trkpt lat="44.7097417" lon="9.8949983"><ele>654.0</ele><time>2026-03-28T13:15:11.666Z</time></trkpt><trkpt lat="44.7096717" lon="9.8951"><ele>654.0</ele><time>2026-03-28T13:15:12.666Z</time></trkpt><trkpt lat="44.7096033" lon="9.895205"><ele>654.0</ele><time>2026-03-28T13:15:13.665Z</time></trkpt><trkpt lat="44.709535" lon="9.8952983"><ele>654.0</ele><time>2026-03-28T13:15:14.666Z</time></trkpt><trkpt lat="44.7094583" lon="9.8953667"><ele>655.0</ele><time>2026-03-28T13:15:15.666Z</time></trkpt><trkpt lat="44.7093783" lon="9.8954067"><ele>656.0</ele><time>2026-03-28T13:15:16.666Z</time></trkpt><trkpt lat="44.7092917" lon="9.8954083"><ele>657.0</ele><time>2026-03-28T13:15:17.666Z</time></trkpt><trkpt lat="44.7091983" lon="9.8953767"><ele>658.0</ele><time>2026-03-28T13:15:18.665Z</time></trkpt><trkpt lat="44.7091" lon="9.8953167"><ele>659.0</ele><time>2026-03-28T13:15:19.668Z</time></trkpt><trkpt lat="44.7089883" lon="9.89525"><ele>659.0</ele><time>2026-03-28T13:15:20.669Z</time></trkpt><trkpt lat="44.7088683" lon="9.895195"><ele>659.0</ele><time>2026-03-28T13:15:21.668Z</time></trkpt><trkpt lat="44.7087433" lon="9.8951683"><ele>659.0</ele><time>2026-03-28T13:15:22.668Z</time></trkpt><trkpt lat="44.70861" lon="9.8951667"><ele>659.0</ele><time>2026-03-28T13:15:23.668Z</time></trkpt><trkpt lat="44.7084967" lon="9.8951717"><ele>657.75</ele><time>2026-03-28T13:15:24.667Z</time></trkpt><trkpt lat="44.7083817" lon="9.895195"><ele>656.5</ele><time>2026-03-28T13:15:25.667Z</time></trkpt><trkpt lat="44.708265" lon="9.895245"><ele>655.25</ele><time>2026-03-28T13:15:26.668Z</time></trkpt><trkpt lat="44.70815" lon="9.895305"><ele>654.0</ele><time>2026-03-28T13:15:27.668Z</time></trkpt><trkpt lat="44.7080433" lon="9.8953583"><ele>654.0</ele><time>2026-03-28T13:15:28.668Z</time></trkpt><trkpt lat="44.707945" lon="9.8953867"><ele>654.0</ele><time>2026-03-28T13:15:29.666Z</time></trkpt><trkpt lat="44.70785" lon="9.8953867"><ele>654.0</ele><time>2026-03-28T13:15:30.666Z</time></trkpt><trkpt lat="44.707755" lon="9.89536"><ele>654.0</ele><time>2026-03-28T13:15:31.665Z</time></trkpt><trkpt lat="44.7076417" lon="9.8953233"><ele>654.0</ele><time>2026-03-28T13:15:32.666Z</time></trkpt><trkpt lat="44.7075267" lon="9.8952917"><ele>651.5</ele><time>2026-03-28T13:15:33.666Z</time></trkpt><trkpt lat="44.7074067" lon="9.8952817"><ele>649.0</ele><time>2026-03-28T13:15:34.665Z</time></trkpt><trkpt lat="44.7072767" lon="9.895275"><ele>646.5</ele><time>2026-03-28T13:15:35.665Z</time></trkpt><trkpt lat="44.7071367" lon="9.8952633"><ele>644.0</ele><time>2026-03-28T13:15:36.666Z</time></trkpt><trkpt lat="44.7069917" lon="9.8952517"><ele>643.25</ele><time>2026-03-28T13:15:37.666Z</time></trkpt><trkpt lat="44.7068617" lon="9.8952417"><ele>642.5</ele><time>2026-03-28T13:15:38.665Z</time></trkpt><trkpt lat="44.70673" lon="9.8952283"><ele>641.75</ele><time>2026-03-28T13:15:39.665Z</time></trkpt><trkpt lat="44.7066017" lon="9.8952133"><ele>641.0</ele><time>2026-03-28T13:15:40.666Z</time></trkpt><trkpt lat="44.7064717" lon="9.8951917"><ele>641.0</ele><time>2026-03-28T13:15:41.665Z</time></trkpt><trkpt lat="44.7063367" lon="9.8951583"><ele>641.0</ele><time>2026-03-28T13:15:42.665Z</time></trkpt><trkpt lat="44.70621" lon="9.8951133"><ele>641.0</ele><time>2026-03-28T13:15:43.666Z</time></trkpt><trkpt lat="44.7060933" lon="9.89506"><ele>641.0</ele><time>2026-03-28T13:15:44.665Z</time></trkpt><trkpt lat="44.7059783" lon="9.89501"><ele>634.8</ele><time>2026-03-28T13:15:45.665Z</time></trkpt><trkpt lat="44.7058667" lon="9.8949583"><ele>628.5999999999999</ele><time>2026-03-28T13:15:46.665Z</time></trkpt><trkpt lat="44.7057617" lon="9.8949083"><ele>622.4</ele><time>2026-03-28T13:15:47.665Z</time></trkpt><trkpt lat="44.7056617" lon="9.8948433"><ele>616.2</ele><time>2026-03-28T13:15:48.665Z</time></trkpt><trkpt lat="44.7055667" lon="9.894775"><ele>610.0</ele><time>2026-03-28T13:15:49.665Z</time></trkpt><trkpt lat="44.705475" lon="9.8947183"><ele>610.0</ele><time>2026-03-28T13:15:50.665Z</time></trkpt><trkpt lat="44.7053933" lon="9.8946667"><ele>610.0</ele><time>2026-03-28T13:15:51.665Z</time></trkpt><trkpt lat="44.705325" lon="9.8946117"><ele>610.0</ele><time>2026-03-28T13:15:52.665Z</time></trkpt><trkpt lat="44.7052733" lon="9.89455"><ele>610.0</ele><time>2026-03-28T13:15:53.666Z</time></trkpt><trkpt lat="44.70524" lon="9.8944183"><ele>610.0</ele><time>2026-03-28T13:15:55.665Z</time></trkpt><trkpt lat="44.705295" lon="9.894295"><ele>610.0</ele><time>2026-03-28T13:15:57.666Z</time></trkpt><trkpt lat="44.7053533" lon="9.89425"><ele>606.0</ele><time>2026-03-28T13:15:58.666Z</time></trkpt><trkpt lat="44.70543" lon="9.8942083"><ele>602.0</ele><time>2026-03-28T13:15:59.666Z</time></trkpt><trkpt lat="44.7055117" lon="9.89417"><ele>598.0</ele><time>2026-03-28T13:16:00.665Z</time></trkpt><trkpt lat="44.705595" lon="9.8941383"><ele>594.0</ele><time>2026-03-28T13:16:01.665Z</time></trkpt><trkpt lat="44.70567" lon="9.8940917"><ele>590.0</ele><time>2026-03-28T13:16:02.667Z</time></trkpt><trkpt lat="44.7057267" lon="9.89403"><ele>586.0</ele><time>2026-03-28T13:16:03.665Z</time></trkpt><trkpt lat="44.7057317" lon="9.8938933"><ele>586.0</ele><time>2026-03-28T13:16:05.667Z</time></trkpt><trkpt lat="44.7056317" lon="9.89384"><ele>586.0</ele><time>2026-03-28T13:16:07.666Z</time></trkpt><trkpt lat="44.7055633" lon="9.8938533"><ele>586.0</ele><time>2026-03-28T13:16:08.665Z</time></trkpt><trkpt lat="44.70547" lon="9.8938883"><ele>586.0</ele><time>2026-03-28T13:16:09.666Z</time></trkpt><trkpt lat="44.705355" lon="9.8939233"><ele>586.0</ele><time>2026-03-28T13:16:10.666Z</time></trkpt><trkpt lat="44.705245" lon="9.89394"><ele>586.4</ele><time>2026-03-28T13:16:11.664Z</time></trkpt><trkpt lat="44.705135" lon="9.8939333"><ele>586.8</ele><time>2026-03-28T13:16:12.666Z</time></trkpt><trkpt lat="44.7050333" lon="9.893895"><ele>587.1999999999999</ele><time>2026-03-28T13:16:13.667Z</time></trkpt><trkpt lat="44.7049367" lon="9.8938417"><ele>587.6</ele><time>2026-03-28T13:16:14.668Z</time></trkpt><trkpt lat="44.7048417" lon="9.89379"><ele>588.0</ele><time>2026-03-28T13:16:15.666Z</time></trkpt><trkpt lat="44.7047533" lon="9.893755"><ele>588.0</ele><time>2026-03-28T13:16:16.665Z</time></trkpt><trkpt lat="44.7046583" lon="9.8937517"><ele>588.0</ele><time>2026-03-28T13:16:17.665Z</time></trkpt><trkpt lat="44.7045633" lon="9.8937733"><ele>588.0</ele><time>2026-03-28T13:16:18.665Z</time></trkpt><trkpt lat="44.7044783" lon="9.8938217"><ele>588.0</ele><time>2026-03-28T13:16:19.666Z</time></trkpt><trkpt lat="44.70439" lon="9.89388"><ele>588.0</ele><time>2026-03-28T13:16:20.667Z</time></trkpt><trkpt lat="44.7043067" lon="9.8939417"><ele>586.6</ele><time>2026-03-28T13:16:21.666Z</time></trkpt><trkpt lat="44.70421" lon="9.8939983"><ele>585.1999999999999</ele><time>2026-03-28T13:16:22.665Z</time></trkpt><trkpt lat="44.7041117" lon="9.8940233"><ele>583.8</ele><time>2026-03-28T13:16:23.665Z</time></trkpt><trkpt lat="44.7040033" lon="9.8940267"><ele>582.4</ele><time>2026-03-28T13:16:24.665Z</time></trkpt><trkpt lat="44.7038967" lon="9.8940233"><ele>581.0</ele><time>2026-03-28T13:16:25.666Z</time></trkpt><trkpt lat="44.7038083" lon="9.8940233"><ele>581.0</ele><time>2026-03-28T13:16:26.665Z</time></trkpt><trkpt lat="44.7037333" lon="9.8940183"><ele>581.0</ele><time>2026-03-28T13:16:27.666Z</time></trkpt><trkpt lat="44.7036333" lon="9.8939817"><ele>581.0</ele><time>2026-03-28T13:16:29.666Z</time></trkpt><trkpt lat="44.7036" lon="9.8938933"><ele>581.0</ele><time>2026-03-28T13:16:32.666Z</time></trkpt><trkpt lat="44.7036583" lon="9.893775"><ele>581.0</ele><time>2026-03-28T13:16:41.665Z</time></trkpt><trkpt lat="44.703715" lon="9.8936967"><ele>581.0</ele><time>2026-03-28T13:16:42.666Z</time></trkpt><trkpt lat="44.7038" lon="9.8936167"><ele>581.0</ele><time>2026-03-28T13:16:43.665Z</time></trkpt><trkpt lat="44.703905" lon="9.8935283"><ele>581.0</ele><time>2026-03-28T13:16:44.666Z</time></trkpt><trkpt lat="44.704" lon="9.8934417"><ele>581.0</ele><time>2026-03-28T13:16:45.666Z</time></trkpt><trkpt lat="44.7040767" lon="9.8933583"><ele>581.0</ele><time>2026-03-28T13:16:46.664Z</time></trkpt><trkpt lat="44.7041333" lon="9.8932783"><ele>581.0</ele><time>2026-03-28T13:16:47.666Z</time></trkpt><trkpt lat="44.7041683" lon="9.893195"><ele>576.4</ele><time>2026-03-28T13:16:48.666Z</time></trkpt><trkpt lat="44.704105" lon="9.89304"><ele>571.8</ele><time>2026-03-28T13:16:50.665Z</time></trkpt><trkpt lat="44.70404" lon="9.892995"><ele>567.1999999999999</ele><time>2026-03-28T13:16:51.665Z</time></trkpt><trkpt lat="44.70395" lon="9.8929417"><ele>562.6</ele><time>2026-03-28T13:16:52.665Z</time></trkpt><trkpt lat="44.703845" lon="9.8928867"><ele>558.0</ele><time>2026-03-28T13:16:53.665Z</time></trkpt><trkpt lat="44.7037333" lon="9.892835"><ele>558.0</ele><time>2026-03-28T13:16:54.666Z</time></trkpt><trkpt lat="44.70362" lon="9.8927867"><ele>558.0</ele><time>2026-03-28T13:16:55.667Z</time></trkpt><trkpt lat="44.7035067" lon="9.89273"><ele>558.0</ele><time>2026-03-28T13:16:56.666Z</time></trkpt><trkpt lat="44.7033983" lon="9.8926567"><ele>558.0</ele><time>2026-03-28T13:16:57.665Z</time></trkpt><trkpt lat="44.7032967" lon="9.892565"><ele>552.8</ele><time>2026-03-28T13:16:58.665Z</time></trkpt><trkpt lat="44.7032067" lon="9.8924517"><ele>547.5999999999999</ele><time>2026-03-28T13:16:59.666Z</time></trkpt><trkpt lat="44.7031333" lon="9.8923283"><ele>542.4000000000001</ele><time>2026-03-28T13:17:00.666Z</time></trkpt><trkpt lat="44.7030783" lon="9.8922"><ele>537.2</ele><time>2026-03-28T13:17:01.666Z</time></trkpt><trkpt lat="44.7030333" lon="9.8920833"><ele>532.0</ele><time>2026-03-28T13:17:02.665Z</time></trkpt><trkpt lat="44.70299" lon="9.891985"><ele>532.0</ele><time>2026-03-28T13:17:03.666Z</time></trkpt><trkpt lat="44.70294" lon="9.8919167"><ele>532.0</ele><time>2026-03-28T13:17:04.666Z</time></trkpt><trkpt lat="44.70288" lon="9.8918717"><ele>532.0</ele><time>2026-03-28T13:17:05.666Z</time></trkpt><trkpt lat="44.70282" lon="9.8918283"><ele>532.0</ele><time>2026-03-28T13:17:06.666Z</time></trkpt><trkpt lat="44.702765" lon="9.8917633"><ele>532.0</ele><time>2026-03-28T13:17:07.666Z</time></trkpt><trkpt lat="44.70272" lon="9.89167"><ele>532.0</ele><time>2026-03-28T13:17:08.667Z</time></trkpt><trkpt lat="44.7026817" lon="9.8915617"><ele>532.0</ele><time>2026-03-28T13:17:09.665Z</time></trkpt><trkpt lat="44.7026433" lon="9.8914433"><ele>530.2</ele><time>2026-03-28T13:17:10.666Z</time></trkpt><trkpt lat="44.7026067" lon="9.8913117"><ele>528.4000000000001</ele><time>2026-03-28T13:17:11.665Z</time></trkpt><trkpt lat="44.7025683" lon="9.8911783"><ele>526.5999999999999</ele><time>2026-03-28T13:17:12.667Z</time></trkpt><trkpt lat="44.7025317" lon="9.8910567"><ele>524.8</ele><time>2026-03-28T13:17:13.666Z</time></trkpt><trkpt lat="44.7024983" lon="9.8909367"><ele>523.0</ele><time>2026-03-28T13:17:14.665Z</time></trkpt><trkpt lat="44.7024683" lon="9.890825"><ele>521.2857142857142</ele><time>2026-03-28T13:17:15.666Z</time></trkpt><trkpt lat="44.70244" lon="9.8907183"><ele>519.5714285714286</ele><time>2026-03-28T13:17:16.665Z</time></trkpt><trkpt lat="44.7024133" lon="9.8906167"><ele>517.8571428571429</ele><time>2026-03-28T13:17:17.665Z</time></trkpt><trkpt lat="44.7023867" lon="9.8905217"><ele>516.1428571428571</ele><time>2026-03-28T13:17:18.666Z</time></trkpt><trkpt lat="44.70236" lon="9.890435"><ele>514.4285714285714</ele><time>2026-03-28T13:17:19.666Z</time></trkpt><trkpt lat="44.7023317" lon="9.8903533"><ele>512.7142857142857</ele><time>2026-03-28T13:17:20.667Z</time></trkpt><trkpt lat="44.7023117" lon="9.8902683"><ele>511.0</ele><time>2026-03-28T13:17:21.665Z</time></trkpt><trkpt lat="44.7022917" lon="9.89018"><ele>511.0</ele><time>2026-03-28T13:17:22.666Z</time></trkpt><trkpt lat="44.70227" lon="9.8900967"><ele>511.0</ele><time>2026-03-28T13:17:23.667Z</time></trkpt><trkpt lat="44.70222" lon="9.8899583"><ele>511.0</ele><time>2026-03-28T13:17:25.666Z</time></trkpt><trkpt lat="44.70215" lon="9.8898833"><ele>511.0</ele><time>2026-03-28T13:17:27.666Z</time></trkpt><trkpt lat="44.7020833" lon="9.8899167"><ele>511.0</ele><time>2026-03-28T13:17:29.667Z</time></trkpt><trkpt lat="44.70199" lon="9.8900233"><ele>509.50000000000006</ele><time>2026-03-28T13:17:31.666Z</time></trkpt><trkpt lat="44.7019" lon="9.8901033"><ele>508.0</ele><time>2026-03-28T13:17:33.666Z</time></trkpt><trkpt lat="44.7018183" lon="9.8900933"><ele>506.5</ele><time>2026-03-28T13:17:36.665Z</time></trkpt><trkpt lat="44.7017917" lon="9.8899833"><ele>505.0</ele><time>2026-03-28T13:17:38.665Z</time></trkpt><trkpt lat="44.7017733" lon="9.8898717"><ele>503.50000000000006</ele><time>2026-03-28T13:17:40.666Z</time></trkpt><trkpt lat="44.7017617" lon="9.8897733"><ele>502.0</ele><time>2026-03-28T13:17:42.666Z</time></trkpt><trkpt lat="44.7017617" lon="9.889615"><ele>500.0</ele><time>2026-03-28T13:17:44.666Z</time></trkpt><trkpt lat="44.7017583" lon="9.8894517"><ele>498.0</ele><time>2026-03-28T13:17:46.666Z</time></trkpt><trkpt lat="44.70173" lon="9.889285"><ele>496.0</ele><time>2026-03-28T13:17:48.666Z</time></trkpt><trkpt lat="44.7016717" lon="9.8891417"><ele>494.0</ele><time>2026-03-28T13:17:50.668Z</time></trkpt><trkpt lat="44.7016233" lon="9.8889883"><ele>491.0</ele><time>2026-03-28T13:17:52.666Z</time></trkpt><trkpt lat="44.701575" lon="9.88884"><ele>488.0</ele><time>2026-03-28T13:17:54.666Z</time></trkpt><trkpt lat="44.7015267" lon="9.8887033"><ele>485.0</ele><time>2026-03-28T13:17:56.666Z</time></trkpt><trkpt lat="44.70147" lon="9.8885633"><ele>482.0</ele><time>2026-03-28T13:17:58.667Z</time></trkpt><trkpt lat="44.7014183" lon="9.888425"><ele>478.25</ele><time>2026-03-28T13:18:00.666Z</time></trkpt><trkpt lat="44.7013567" lon="9.888285"><ele>474.5</ele><time>2026-03-28T13:18:02.667Z</time></trkpt><trkpt lat="44.701295" lon="9.8881533"><ele>470.75</ele><time>2026-03-28T13:18:04.665Z</time></trkpt><trkpt lat="44.7012267" lon="9.8880267"><ele>467.0</ele><time>2026-03-28T13:18:06.665Z</time></trkpt><trkpt lat="44.70114" lon="9.8878783"><ele>466.99999999999994</ele><time>2026-03-28T13:18:08.666Z</time></trkpt><trkpt lat="44.7010883" lon="9.8877917"><ele>467.0</ele><time>2026-03-28T13:18:09.666Z</time></trkpt><trkpt lat="44.7010317" lon="9.8877083"><ele>466.99999999999994</ele><time>2026-03-28T13:18:10.665Z</time></trkpt><trkpt lat="44.70098" lon="9.8876317"><ele>466.99999999999994</ele><time>2026-03-28T13:18:11.666Z</time></trkpt><trkpt lat="44.7009333" lon="9.8875617"><ele>467.0</ele><time>2026-03-28T13:18:12.665Z</time></trkpt><trkpt lat="44.7008933" lon="9.8874933"><ele>466.99999999999994</ele><time>2026-03-28T13:18:13.666Z</time></trkpt><trkpt lat="44.7008533" lon="9.8874233"><ele>466.99999999999994</ele><time>2026-03-28T13:18:14.665Z</time></trkpt><trkpt lat="44.700815" lon="9.8872617"><ele>463.6</ele><time>2026-03-28T13:18:16.665Z</time></trkpt><trkpt lat="44.7008167" lon="9.887085"><ele>460.20000000000005</ele><time>2026-03-28T13:18:18.666Z</time></trkpt><trkpt lat="44.70083" lon="9.8869433"><ele>456.8</ele><time>2026-03-28T13:18:20.665Z</time></trkpt><trkpt lat="44.7008233" lon="9.8868117"><ele>453.4</ele><time>2026-03-28T13:18:22.665Z</time></trkpt><trkpt lat="44.7008067" lon="9.8866617"><ele>450.0</ele><time>2026-03-28T13:18:24.666Z</time></trkpt><trkpt lat="44.7007767" lon="9.8864717"><ele>448.1666666666667</ele><time>2026-03-28T13:18:26.667Z</time></trkpt><trkpt lat="44.7007483" lon="9.886355"><ele>446.33333333333337</ele><time>2026-03-28T13:18:27.667Z</time></trkpt><trkpt lat="44.700715" lon="9.886235"><ele>444.5</ele><time>2026-03-28T13:18:28.665Z</time></trkpt><trkpt lat="44.70068" lon="9.8861133"><ele>442.6666666666667</ele><time>2026-03-28T13:18:29.667Z</time></trkpt><trkpt lat="44.7006433" lon="9.8859933"><ele>440.83333333333337</ele><time>2026-03-28T13:18:30.665Z</time></trkpt><trkpt lat="44.70061" lon="9.885885"><ele>439.0</ele><time>2026-03-28T13:18:31.665Z</time></trkpt><trkpt lat="44.7005767" lon="9.8858017"><ele>436.75</ele><time>2026-03-28T13:18:32.667Z</time></trkpt><trkpt lat="44.7004933" lon="9.88567"><ele>434.5</ele><time>2026-03-28T13:18:34.666Z</time></trkpt><trkpt lat="44.7003983" lon="9.8855617"><ele>432.25</ele><time>2026-03-28T13:18:36.666Z</time></trkpt><trkpt lat="44.7003367" lon="9.8854283"><ele>430.0</ele><time>2026-03-28T13:18:38.667Z</time></trkpt><trkpt lat="44.70028" lon="9.885325"><ele>428.6</ele><time>2026-03-28T13:18:40.668Z</time></trkpt><trkpt lat="44.7001967" lon="9.88527"><ele>427.2</ele><time>2026-03-28T13:18:42.665Z</time></trkpt><trkpt lat="44.70013" lon="9.885185"><ele>425.79999999999995</ele><time>2026-03-28T13:18:44.665Z</time></trkpt><trkpt lat="44.7001083" lon="9.885055"><ele>424.4</ele><time>2026-03-28T13:18:46.666Z</time></trkpt><trkpt lat="44.7001117" lon="9.88493"><ele>423.0</ele><time>2026-03-28T13:18:48.666Z</time></trkpt><trkpt lat="44.700125" lon="9.8847933"><ele>421.5</ele><time>2026-03-28T13:18:50.667Z</time></trkpt><trkpt lat="44.7001467" lon="9.88465"><ele>420.0</ele><time>2026-03-28T13:18:52.666Z</time></trkpt><trkpt lat="44.70013" lon="9.8845067"><ele>418.5</ele><time>2026-03-28T13:18:54.665Z</time></trkpt><trkpt lat="44.7001117" lon="9.884415"><ele>417.0</ele><time>2026-03-28T13:18:55.665Z</time></trkpt><trkpt lat="44.70009" lon="9.8843283"><ele>415.5</ele><time>2026-03-28T13:18:56.666Z</time></trkpt><trkpt lat="44.7000567" lon="9.8842517"><ele>414.0</ele><time>2026-03-28T13:18:57.665Z</time></trkpt><trkpt lat="44.70003" lon="9.8841683"><ele>411.6666666666667</ele><time>2026-03-28T13:18:58.665Z</time></trkpt><trkpt lat="44.7000017" lon="9.88407"><ele>409.33333333333337</ele><time>2026-03-28T13:18:59.665Z</time></trkpt><trkpt lat="44.6999833" lon="9.8839633"><ele>407.0</ele><time>2026-03-28T13:19:00.665Z</time></trkpt><trkpt lat="44.699975" lon="9.8838433"><ele>404.6666666666667</ele><time>2026-03-28T13:19:01.666Z</time></trkpt><trkpt lat="44.6999683" lon="9.8837267"><ele>402.33333333333337</ele><time>2026-03-28T13:19:02.666Z</time></trkpt><trkpt lat="44.6999567" lon="9.8836283"><ele>400.0</ele><time>2026-03-28T13:19:03.665Z</time></trkpt><trkpt lat="44.699955" lon="9.8835233"><ele>397.8571428571429</ele><time>2026-03-28T13:19:04.667Z</time></trkpt><trkpt lat="44.6999533" lon="9.8834233"><ele>395.7142857142857</ele><time>2026-03-28T13:19:05.665Z</time></trkpt><trkpt lat="44.69995" lon="9.8833267"><ele>393.57142857142856</ele><time>2026-03-28T13:19:06.666Z</time></trkpt><trkpt lat="44.6999333" lon="9.8832317"><ele>391.42857142857144</ele><time>2026-03-28T13:19:07.666Z</time></trkpt><trkpt lat="44.699905" lon="9.8831383"><ele>389.2857142857143</ele><time>2026-03-28T13:19:08.665Z</time></trkpt><trkpt lat="44.699865" lon="9.8830533"><ele>387.14285714285717</ele><time>2026-03-28T13:19:09.667Z</time></trkpt><trkpt lat="44.6998233" lon="9.8829717"><ele>385.0</ele><time>2026-03-28T13:19:10.665Z</time></trkpt><trkpt lat="44.699785" lon="9.8828817"><ele>385.00000000000006</ele><time>2026-03-28T13:19:11.666Z</time></trkpt><trkpt lat="44.699755" lon="9.882765"><ele>385.0</ele><time>2026-03-28T13:19:12.666Z</time></trkpt><trkpt lat="44.6997233" lon="9.8826483"><ele>385.0</ele><time>2026-03-28T13:19:13.667Z</time></trkpt><trkpt lat="44.6996933" lon="9.88253"><ele>385.0</ele><time>2026-03-28T13:19:14.666Z</time></trkpt><trkpt lat="44.699665" lon="9.8824217"><ele>385.00000000000006</ele><time>2026-03-28T13:19:15.666Z</time></trkpt><trkpt lat="44.6996433" lon="9.882325"><ele>385.0</ele><time>2026-03-28T13:19:16.666Z</time></trkpt><trkpt lat="44.699635" lon="9.88223"><ele>383.0</ele><time>2026-03-28T13:19:17.665Z</time></trkpt><trkpt lat="44.6996383" lon="9.882125"><ele>381.0</ele><time>2026-03-28T13:19:18.665Z</time></trkpt><trkpt lat="44.69965" lon="9.88202"><ele>379.0</ele><time>2026-03-28T13:19:19.666Z</time></trkpt><trkpt lat="44.6996617" lon="9.8819133"><ele>377.0</ele><time>2026-03-28T13:19:20.667Z</time></trkpt><trkpt lat="44.6996667" lon="9.88181"><ele>375.0</ele><time>2026-03-28T13:19:21.665Z</time></trkpt><trkpt lat="44.6996683" lon="9.8817067"><ele>373.0</ele><time>2026-03-28T13:19:22.666Z</time></trkpt><trkpt lat="44.6996667" lon="9.8816017"><ele>371.0</ele><time>2026-03-28T13:19:23.666Z</time></trkpt><trkpt lat="44.6996717" lon="9.881495"><ele>369.0</ele><time>2026-03-28T13:19:24.666Z</time></trkpt><trkpt lat="44.699685" lon="9.8813917"><ele>367.0</ele><time>2026-03-28T13:19:25.667Z</time></trkpt><trkpt lat="44.699715" lon="9.8812883"><ele>365.0</ele><time>2026-03-28T13:19:26.666Z</time></trkpt><trkpt lat="44.6997517" lon="9.8811883"><ele>363.0</ele><time>2026-03-28T13:19:27.666Z</time></trkpt><trkpt lat="44.6997767" lon="9.8810917"><ele>361.0</ele><time>2026-03-28T13:19:28.667Z</time></trkpt><trkpt lat="44.6997817" lon="9.880985"><ele>359.0</ele><time>2026-03-28T13:19:29.665Z</time></trkpt><trkpt lat="44.6997667" lon="9.880885"><ele>357.83333333333337</ele><time>2026-03-28T13:19:30.665Z</time></trkpt><trkpt lat="44.6997317" lon="9.880785"><ele>356.6666666666667</ele><time>2026-03-28T13:19:31.665Z</time></trkpt><trkpt lat="44.6996933" lon="9.880675"><ele>355.5</ele><time>2026-03-28T13:19:32.665Z</time></trkpt><trkpt lat="44.69966" lon="9.8805667"><ele>354.3333333333333</ele><time>2026-03-28T13:19:33.665Z</time></trkpt><trkpt lat="44.699635" lon="9.8804633"><ele>353.16666666666663</ele><time>2026-03-28T13:19:34.666Z</time></trkpt><trkpt lat="44.6996283" lon="9.8803633"><ele>352.0</ele><time>2026-03-28T13:19:35.666Z</time></trkpt><trkpt lat="44.69963" lon="9.88026"><ele>352.0</ele><time>2026-03-28T13:19:36.666Z</time></trkpt><trkpt lat="44.699635" lon="9.8801533"><ele>352.0</ele><time>2026-03-28T13:19:37.666Z</time></trkpt><trkpt lat="44.699655" lon="9.880045"><ele>352.0</ele><time>2026-03-28T13:19:38.666Z</time></trkpt><trkpt lat="44.6996817" lon="9.8799483"><ele>352.0</ele><time>2026-03-28T13:19:39.665Z</time></trkpt><trkpt lat="44.69971" lon="9.8798533"><ele>352.0</ele><time>2026-03-28T13:19:40.667Z</time></trkpt><trkpt lat="44.6997383" lon="9.87976"><ele>352.0</ele><time>2026-03-28T13:19:41.666Z</time></trkpt><trkpt lat="44.69977" lon="9.879665"><ele>352.0</ele><time>2026-03-28T13:19:42.666Z</time></trkpt><trkpt lat="44.6998033" lon="9.8795717"><ele>349.8333333333333</ele><time>2026-03-28T13:19:43.667Z</time></trkpt><trkpt lat="44.6998333" lon="9.879475"><ele>347.66666666666663</ele><time>2026-03-28T13:19:44.667Z</time></trkpt><trkpt lat="44.6998583" lon="9.8793733"><ele>345.5</ele><time>2026-03-28T13:19:45.665Z</time></trkpt><trkpt lat="44.69986" lon="9.87927"><ele>343.3333333333333</ele><time>2026-03-28T13:19:46.668Z</time></trkpt><trkpt lat="44.6998567" lon="9.8791633"><ele>341.1666666666667</ele><time>2026-03-28T13:19:47.666Z</time></trkpt><trkpt lat="44.69984" lon="9.8790583"><ele>339.0</ele><time>2026-03-28T13:19:48.665Z</time></trkpt><trkpt lat="44.6998217" lon="9.8789583"><ele>337.0</ele><time>2026-03-28T13:19:49.667Z</time></trkpt><trkpt lat="44.69981" lon="9.87885"><ele>335.0</ele><time>2026-03-28T13:19:50.665Z</time></trkpt><trkpt lat="44.6998033" lon="9.878745"><ele>333.0</ele><time>2026-03-28T13:19:51.666Z</time></trkpt><trkpt lat="44.6998017" lon="9.8786417"><ele>331.0</ele><time>2026-03-28T13:19:52.667Z</time></trkpt><trkpt lat="44.6997967" lon="9.87854"><ele>329.0</ele><time>2026-03-28T13:19:53.667Z</time></trkpt><trkpt lat="44.6997883" lon="9.878435"><ele>327.0</ele><time>2026-03-28T13:19:54.665Z</time></trkpt><trkpt lat="44.6997683" lon="9.8783283"><ele>325.42857142857144</ele><time>2026-03-28T13:19:55.666Z</time></trkpt><trkpt lat="44.6997367" lon="9.878225"><ele>323.8571428571429</ele><time>2026-03-28T13:19:56.665Z</time></trkpt><trkpt lat="44.6997017" lon="9.8781217"><ele>322.28571428571433</ele><time>2026-03-28T13:19:57.753Z</time></trkpt><trkpt lat="44.6996683" lon="9.87803"><ele>320.7142857142857</ele><time>2026-03-28T13:19:58.665Z</time></trkpt><trkpt lat="44.699635" lon="9.87794"><ele>319.14285714285717</ele><time>2026-03-28T13:19:59.67Z</time></trkpt><trkpt lat="44.6996067" lon="9.8778483"><ele>317.5714285714286</ele><time>2026-03-28T13:20:00.665Z</time></trkpt><trkpt lat="44.6995867" lon="9.877755"><ele>316.0</ele><time>2026-03-28T13:20:01.666Z</time></trkpt><trkpt lat="44.6995783" lon="9.8775733"><ele>314.0</ele><time>2026-03-28T13:20:03.666Z</time></trkpt><trkpt lat="44.6995933" lon="9.8774833"><ele>312.0</ele><time>2026-03-28T13:20:04.666Z</time></trkpt><trkpt lat="44.6996217" lon="9.87735"><ele>310.0</ele><time>2026-03-28T13:20:06.665Z</time></trkpt><trkpt lat="44.6996417" lon="9.8772417"><ele>308.0</ele><time>2026-03-28T13:20:08.667Z</time></trkpt><trkpt lat="44.6996" lon="9.8771033"><ele>306.0</ele><time>2026-03-28T13:21:15.666Z</time></trkpt><trkpt lat="44.6995283" lon="9.8770117"><ele>304.0</ele><time>2026-03-28T13:21:17.666Z</time></trkpt><trkpt lat="44.699445" lon="9.87695"><ele>303.0</ele><time>2026-03-28T13:21:19.667Z</time></trkpt><trkpt lat="44.6993267" lon="9.8768783"><ele>302.0</ele><time>2026-03-28T13:21:21.665Z</time></trkpt><trkpt lat="44.6992567" lon="9.87684"><ele>301.0</ele><time>2026-03-28T13:21:22.665Z</time></trkpt><trkpt lat="44.6991833" lon="9.8768017"><ele>300.0</ele><time>2026-03-28T13:21:23.666Z</time></trkpt><trkpt lat="44.6991117" lon="9.8767633"><ele>299.0</ele><time>2026-03-28T13:21:24.666Z</time></trkpt><trkpt lat="44.6990433" lon="9.8767283"><ele>298.0</ele><time>2026-03-28T13:21:25.666Z</time></trkpt><trkpt lat="44.6989417" lon="9.876655"><ele>297.0</ele><time>2026-03-28T13:21:27.666Z</time></trkpt><trkpt lat="44.6989033" lon="9.8765433"><ele>296.0</ele><time>2026-03-28T13:21:29.665Z</time></trkpt><trkpt lat="44.6989217" lon="9.87643"><ele>295.0</ele><time>2026-03-28T13:21:31.666Z</time></trkpt><trkpt lat="44.6989633" lon="9.8763317"><ele>294.0</ele><time>2026-03-28T13:21:33.666Z</time></trkpt><trkpt lat="44.6990233" lon="9.8762283"><ele>293.0</ele><time>2026-03-28T13:21:35.665Z</time></trkpt><trkpt lat="44.699095" lon="9.8761367"><ele>292.0</ele><time>2026-03-28T13:21:37.664Z</time></trkpt><trkpt lat="44.6991517" lon="9.8760767"><ele>292.0</ele><time>2026-03-28T13:21:39.665Z</time></trkpt><trkpt lat="44.6992333" lon="9.876055"><ele>292.0</ele><time>2026-03-28T13:22:15.665Z</time></trkpt><trkpt lat="44.6992833" lon="9.87598"><ele>292.0</ele><time>2026-03-28T13:22:25.666Z</time></trkpt><trkpt lat="44.6993267" lon="9.875885"><ele>292.0</ele><time>2026-03-28T13:22:29.665Z</time></trkpt><trkpt lat="44.6993733" lon="9.8758033"><ele>292.0</ele><time>2026-03-28T13:22:31.665Z</time></trkpt><trkpt lat="44.6994333" lon="9.8757067"><ele>292.0</ele><time>2026-03-28T13:22:33.667Z</time></trkpt><trkpt lat="44.699515" lon="9.875575"><ele>292.6</ele><time>2026-03-28T13:22:35.665Z</time></trkpt><trkpt lat="44.6995817" lon="9.8754583"><ele>293.2</ele><time>2026-03-28T13:22:37.664Z</time></trkpt><trkpt lat="44.6996383" lon="9.8753767"><ele>293.8</ele><time>2026-03-28T13:22:39.664Z</time></trkpt><trkpt lat="44.6996967" lon="9.8753017"><ele>294.4</ele><time>2026-03-28T13:22:42.665Z</time></trkpt><trkpt lat="44.69963" lon="9.8754183"><ele>295.0</ele><time>2026-03-28T13:23:37.666Z</time></trkpt><trkpt lat="44.6995533" lon="9.8755383"><ele>295.0</ele><time>2026-03-28T13:23:39.666Z</time></trkpt><trkpt lat="44.69951" lon="9.87561"><ele>295.0</ele><time>2026-03-28T13:23:40.666Z</time></trkpt><trkpt lat="44.6994683" lon="9.87568"><ele>295.0</ele><time>2026-03-28T13:23:41.664Z</time></trkpt><trkpt lat="44.6993967" lon="9.8757983"><ele>295.0</ele><time>2026-03-28T13:23:43.665Z</time></trkpt><trkpt lat="44.69935" lon="9.87588"><ele>295.0</ele><time>2026-03-28T13:23:45.666Z</time></trkpt><trkpt lat="44.6993067" lon="9.8759667"><ele>295.0</ele><time>2026-03-28T13:23:49.668Z</time></trkpt><trkpt lat="44.6992717" lon="9.8760533"><ele>294.5</ele><time>2026-03-28T13:23:54.665Z</time></trkpt><trkpt lat="44.699185" lon="9.8760517"><ele>294.0</ele><time>2026-03-28T13:23:57.665Z</time></trkpt><trkpt lat="44.6990933" lon="9.8760483"><ele>293.5</ele><time>2026-03-28T13:23:59.665Z</time></trkpt><trkpt lat="44.699025" lon="9.876015"><ele>293.0</ele><time>2026-03-28T13:24:02.666Z</time></trkpt><trkpt lat="44.6990817" lon="9.8760933"><ele>292.5</ele><time>2026-03-28T13:24:16.666Z</time></trkpt><trkpt lat="44.69915" lon="9.8760467"><ele>292.0</ele><time>2026-03-28T13:24:19.666Z</time></trkpt><trkpt lat="44.6990967" lon="9.8761267"><ele>292.0</ele><time>2026-03-28T13:25:03.665Z</time></trkpt><trkpt lat="44.6990167" lon="9.8762367"><ele>292.0</ele><time>2026-03-28T13:25:05.665Z</time></trkpt><trkpt lat="44.69898" lon="9.87631"><ele>292.0</ele><time>2026-03-28T13:25:06.665Z</time></trkpt><trkpt lat="44.698925" lon="9.87645"><ele>292.0</ele><time>2026-03-28T13:25:08.665Z</time></trkpt><trkpt lat="44.6989033" lon="9.87656"><ele>292.0</ele><time>2026-03-28T13:25:10.665Z</time></trkpt><trkpt lat="44.69896" lon="9.8766683"><ele>292.0</ele><time>2026-03-28T13:26:15.666Z</time></trkpt><trkpt lat="44.699035" lon="9.8766767"><ele>292.0</ele><time>2026-03-28T13:26:18.665Z</time></trkpt><trkpt lat="44.699125" lon="9.8767183"><ele>292.0</ele><time>2026-03-28T13:26:20.667Z</time></trkpt><trkpt lat="44.6992317" lon="9.8767917"><ele>292.0</ele><time>2026-03-28T13:26:22.665Z</time></trkpt><trkpt lat="44.6992967" lon="9.8768317"><ele>292.0</ele><time>2026-03-28T13:26:23.666Z</time></trkpt><trkpt lat="44.69936" lon="9.8768667"><ele>292.0</ele><time>2026-03-28T13:26:24.666Z</time></trkpt><trkpt lat="44.6994717" lon="9.8769233"><ele>293.0</ele><time>2026-03-28T13:26:26.666Z</time></trkpt><trkpt lat="44.6995767" lon="9.876965"><ele>294.0</ele><time>2026-03-28T13:26:28.665Z</time></trkpt><trkpt lat="44.6996433" lon="9.8769633"><ele>295.0</ele><time>2026-03-28T13:26:30.666Z</time></trkpt><trkpt lat="44.6997167" lon="9.8768833"><ele>296.0</ele><time>2026-03-28T13:26:32.667Z</time></trkpt><trkpt lat="44.6997683" lon="9.876805"><ele>297.0</ele><time>2026-03-28T13:26:33.666Z</time></trkpt><trkpt lat="44.6998333" lon="9.876705"><ele>298.0</ele><time>2026-03-28T13:26:34.665Z</time></trkpt><trkpt lat="44.699905" lon="9.876595"><ele>298.0</ele><time>2026-03-28T13:26:35.666Z</time></trkpt><trkpt lat="44.6999783" lon="9.8764767"><ele>298.0</ele><time>2026-03-28T13:26:36.666Z</time></trkpt><trkpt lat="44.7000567" lon="9.8763467"><ele>298.0</ele><time>2026-03-28T13:26:37.664Z</time></trkpt><trkpt lat="44.7001383" lon="9.876215"><ele>298.0</ele><time>2026-03-28T13:26:38.667Z</time></trkpt><trkpt lat="44.700215" lon="9.87609"><ele>299.0</ele><time>2026-03-28T13:26:39.666Z</time></trkpt><trkpt lat="44.70029" lon="9.8759733"><ele>300.0</ele><time>2026-03-28T13:26:40.665Z</time></trkpt><trkpt lat="44.7003683" lon="9.8758483"><ele>301.0</ele><time>2026-03-28T13:26:41.666Z</time></trkpt><trkpt lat="44.7004467" lon="9.87572"><ele>302.0</ele><time>2026-03-28T13:26:42.666Z</time></trkpt><trkpt lat="44.7005233" lon="9.8755933"><ele>302.0</ele><time>2026-03-28T13:26:43.666Z</time></trkpt><trkpt lat="44.7006" lon="9.8754717"><ele>302.0</ele><time>2026-03-28T13:26:44.666Z</time></trkpt><trkpt lat="44.7006733" lon="9.8753517"><ele>302.0</ele><time>2026-03-28T13:26:45.667Z</time></trkpt><trkpt lat="44.7007433" lon="9.875235"><ele>302.0</ele><time>2026-03-28T13:26:46.666Z</time></trkpt><trkpt lat="44.7008067" lon="9.87512"><ele>302.0</ele><time>2026-03-28T13:26:47.665Z</time></trkpt><trkpt lat="44.70086" lon="9.8750183"><ele>301.6666666666667</ele><time>2026-03-28T13:26:48.665Z</time></trkpt><trkpt lat="44.7008983" lon="9.8749417"><ele>301.33333333333337</ele><time>2026-03-28T13:26:49.665Z</time></trkpt><trkpt lat="44.7009317" lon="9.8748467"><ele>301.0</ele><time>2026-03-28T13:26:51.665Z</time></trkpt><trkpt lat="44.7008683" lon="9.8747783"><ele>300.6666666666667</ele><time>2026-03-28T13:26:55.665Z</time></trkpt><trkpt lat="44.7007783" lon="9.8747567"><ele>300.3333333333333</ele><time>2026-03-28T13:26:57.665Z</time></trkpt><trkpt lat="44.70068" lon="9.8747783"><ele>300.0</ele><time>2026-03-28T13:26:59.665Z</time></trkpt><trkpt lat="44.7005767" lon="9.8748717"><ele>300.0</ele><time>2026-03-28T13:27:01.666Z</time></trkpt><trkpt lat="44.7005217" lon="9.874925"><ele>300.0</ele><time>2026-03-28T13:27:02.666Z</time></trkpt><trkpt lat="44.7004667" lon="9.87498"><ele>300.0</ele><time>2026-03-28T13:27:03.664Z</time></trkpt><trkpt lat="44.70041" lon="9.8750367"><ele>300.0</ele><time>2026-03-28T13:27:04.666Z</time></trkpt><trkpt lat="44.7003517" lon="9.875085"><ele>300.0</ele><time>2026-03-28T13:27:05.666Z</time></trkpt><trkpt lat="44.7002383" lon="9.87513"><ele>300.0</ele><time>2026-03-28T13:27:07.665Z</time></trkpt><trkpt lat="44.7001283" lon="9.875135"><ele>299.0</ele><time>2026-03-28T13:27:09.666Z</time></trkpt><trkpt lat="44.7000233" lon="9.8751383"><ele>298.0</ele><time>2026-03-28T13:27:11.665Z</time></trkpt><trkpt lat="44.6999183" lon="9.8751383"><ele>297.0</ele><time>2026-03-28T13:27:13.665Z</time></trkpt><trkpt lat="44.699835" lon="9.87513"><ele>296.0</ele><time>2026-03-28T13:27:15.666Z</time></trkpt><trkpt lat="44.6997617" lon="9.875095"><ele>295.0</ele><time>2026-03-28T13:27:17.666Z</time></trkpt><trkpt lat="44.6996833" lon="9.8750617"><ele>294.66666666666663</ele><time>2026-03-28T13:27:19.666Z</time></trkpt><trkpt lat="44.6996117" lon="9.875035"><ele>294.3333333333333</ele><time>2026-03-28T13:27:21.665Z</time></trkpt><trkpt lat="44.6995233" lon="9.875005"><ele>294.0</ele><time>2026-03-28T13:27:23.666Z</time></trkpt><trkpt lat="44.6994417" lon="9.874985"><ele>293.6666666666667</ele><time>2026-03-28T13:27:25.666Z</time></trkpt><trkpt lat="44.6993717" lon="9.8749633"><ele>293.33333333333337</ele><time>2026-03-28T13:27:27.666Z</time></trkpt><trkpt lat="44.6993" lon="9.8749017"><ele>293.0</ele><time>2026-03-28T13:27:30.665Z</time></trkpt><trkpt lat="44.699225" lon="9.8749"><ele>292.5</ele><time>2026-03-28T13:27:34.666Z</time></trkpt><trkpt lat="44.69918" lon="9.87482"><ele>292.0</ele><time>2026-03-28T13:27:39.665Z</time></trkpt><trkpt lat="44.699185" lon="9.87472"><ele>291.5</ele><time>2026-03-28T13:27:41.665Z</time></trkpt><trkpt lat="44.6992017" lon="9.8746167"><ele>291.0</ele><time>2026-03-28T13:27:43.666Z</time></trkpt><trkpt lat="44.69915" lon="9.874485"><ele>290.5</ele><time>2026-03-28T13:28:39.665Z</time></trkpt><trkpt lat="44.6990767" lon="9.8745217"><ele>290.0</ele><time>2026-03-28T13:28:44.666Z</time></trkpt><trkpt lat="44.6990117" lon="9.8745733"><ele>290.0</ele><time>2026-03-28T13:28:48.665Z</time></trkpt><trkpt lat="44.69894" lon="9.874645"><ele>290.0</ele><time>2026-03-28T13:28:51.666Z</time></trkpt><trkpt lat="44.698875" lon="9.8746917"><ele>290.0</ele><time>2026-03-28T13:28:54.666Z</time></trkpt><trkpt lat="44.6988017" lon="9.8747367"><ele>290.0</ele><time>2026-03-28T13:28:57.665Z</time></trkpt><trkpt lat="44.698735" lon="9.87477"><ele>290.0</ele><time>2026-03-28T13:28:59.666Z</time></trkpt><trkpt lat="44.6986517" lon="9.8748183"><ele>290.0</ele><time>2026-03-28T13:29:02.667Z</time></trkpt><trkpt lat="44.6985933" lon="9.874875"><ele>290.2857142857143</ele><time>2026-03-28T13:29:05.666Z</time></trkpt><trkpt lat="44.6985267" lon="9.8748867"><ele>290.5714285714286</ele><time>2026-03-28T13:29:20.667Z</time></trkpt><trkpt lat="44.6984617" lon="9.874925"><ele>290.8571428571429</ele><time>2026-03-28T13:29:24.665Z</time></trkpt><trkpt lat="44.6983767" lon="9.8749517"><ele>291.14285714285717</ele><time>2026-03-28T13:29:27.667Z</time></trkpt><trkpt lat="44.6983133" lon="9.87497"><ele>291.42857142857144</ele><time>2026-03-28T13:29:29.665Z</time></trkpt><trkpt lat="44.698245" lon="9.8749967"><ele>291.7142857142857</ele><time>2026-03-28T13:29:31.666Z</time></trkpt><trkpt lat="44.69817" lon="9.8750317"><ele>292.0</ele><time>2026-03-28T13:29:33.665Z</time></trkpt><trkpt lat="44.6981117" lon="9.8750667"><ele>292.0</ele><time>2026-03-28T13:29:35.665Z</time></trkpt><trkpt lat="44.6980183" lon="9.8751233"><ele>292.0</ele><time>2026-03-28T13:29:55.665Z</time></trkpt><trkpt lat="44.6979683" lon="9.8751783"><ele>292.0</ele><time>2026-03-28T13:29:58.665Z</time></trkpt><trkpt lat="44.697915" lon="9.8752717"><ele>292.0</ele><time>2026-03-28T13:32:10.664Z</time></trkpt><trkpt lat="44.6978583" lon="9.87536"><ele>292.0</ele><time>2026-03-28T13:32:13.664Z</time></trkpt><trkpt lat="44.6978017" lon="9.8754333"><ele>292.0</ele><time>2026-03-28T13:32:16.664Z</time></trkpt><trkpt lat="44.6977267" lon="9.8754367"><ele>292.0</ele><time>2026-03-28T13:32:20.667Z</time></trkpt><trkpt lat="44.6976733" lon="9.8755067"><ele>292.0</ele><time>2026-03-28T13:32:24.664Z</time></trkpt><trkpt lat="44.6976233" lon="9.8756"><ele>292.0</ele><time>2026-03-28T13:32:31.666Z</time></trkpt><trkpt lat="44.6975583" lon="9.8756767"><ele>292.0</ele><time>2026-03-28T13:32:34.664Z</time></trkpt><trkpt lat="44.6975317" lon="9.87576"><ele>292.0</ele><time>2026-03-28T13:33:12.665Z</time></trkpt><trkpt lat="44.6974467" lon="9.875785"><ele>292.0</ele><time>2026-03-28T13:37:08.666Z</time></trkpt><trkpt lat="44.697445" lon="9.875675"><ele>292.0</ele><time>2026-03-28T13:37:28.665Z</time></trkpt><trkpt lat="44.6974383" lon="9.8755633"><ele>292.0</ele><time>2026-03-28T13:37:41.665Z</time></trkpt><trkpt lat="44.6975" lon="9.8754933"><ele>292.0</ele><time>2026-03-28T13:38:00.666Z</time></trkpt><trkpt lat="44.697565" lon="9.8753983"><ele>292.0</ele><time>2026-03-28T13:38:10.665Z</time></trkpt><trkpt lat="44.697625" lon="9.8753083"><ele>292.0</ele><time>2026-03-28T13:38:25.665Z</time></trkpt><trkpt lat="44.697665" lon="9.8752217"><ele>292.0</ele><time>2026-03-28T13:38:28.666Z</time></trkpt><trkpt lat="44.6977283" lon="9.8751517"><ele>292.0</ele><time>2026-03-28T13:38:31.665Z</time></trkpt><trkpt lat="44.6977933" lon="9.8751"><ele>292.0</ele><time>2026-03-28T13:38:33.665Z</time></trkpt><trkpt lat="44.6978667" lon="9.875045"><ele>292.0</ele><time>2026-03-28T13:38:36.667Z</time></trkpt><trkpt lat="44.6979817" lon="9.8749317"><ele>292.0</ele><time>2026-03-28T13:39:02.665Z</time></trkpt><trkpt lat="44.6980083" lon="9.874795"><ele>292.0</ele><time>2026-03-28T13:39:56.666Z</time></trkpt><trkpt lat="44.698015" lon="9.8746983"><ele>292.0</ele><time>2026-03-28T13:40:01.67Z</time></trkpt><trkpt lat="44.6980317" lon="9.8745733"><ele>292.0</ele><time>2026-03-28T13:45:11.667Z</time></trkpt><trkpt lat="44.6980417" lon="9.8744417"><ele>292.0</ele><time>2026-03-28T13:45:13.665Z</time></trkpt><trkpt lat="44.69803" lon="9.87433"><ele>292.0</ele><time>2026-03-28T13:45:15.666Z</time></trkpt><trkpt lat="44.6980017" lon="9.8742233"><ele>292.0</ele><time>2026-03-28T13:45:17.665Z</time></trkpt><trkpt lat="44.69796" lon="9.874125"><ele>292.0</ele><time>2026-03-28T13:45:19.666Z</time></trkpt><trkpt lat="44.6979217" lon="9.8740517"><ele>294.4</ele><time>2026-03-28T13:45:21.666Z</time></trkpt><trkpt lat="44.6978667" lon="9.8739683"><ele>296.79999999999995</ele><time>2026-03-28T13:45:23.665Z</time></trkpt><trkpt lat="44.6978" lon="9.87385"><ele>299.2</ele><time>2026-03-28T13:45:25.665Z</time></trkpt><trkpt lat="44.697725" lon="9.87375"><ele>301.59999999999997</ele><time>2026-03-28T13:45:27.666Z</time></trkpt><trkpt lat="44.6976667" lon="9.8736733"><ele>304.0</ele><time>2026-03-28T13:45:29.666Z</time></trkpt><trkpt lat="44.6975983" lon="9.873615"><ele>306.59999999999997</ele><time>2026-03-28T13:45:31.666Z</time></trkpt><trkpt lat="44.697515" lon="9.8736217"><ele>309.2</ele><time>2026-03-28T13:45:33.666Z</time></trkpt><trkpt lat="44.6974183" lon="9.8736567"><ele>311.79999999999995</ele><time>2026-03-28T13:45:35.667Z</time></trkpt><trkpt lat="44.6973267" lon="9.873655"><ele>314.4</ele><time>2026-03-28T13:45:37.666Z</time></trkpt><trkpt lat="44.697225" lon="9.87361"><ele>317.0</ele><time>2026-03-28T13:45:39.665Z</time></trkpt><trkpt lat="44.697155" lon="9.873585"><ele>317.0</ele><time>2026-03-28T13:45:56.668Z</time></trkpt><trkpt lat="44.6971083" lon="9.8735217"><ele>317.0</ele><time>2026-03-28T13:45:59.665Z</time></trkpt><trkpt lat="44.6970467" lon="9.87344"><ele>317.0</ele><time>2026-03-28T13:46:02.666Z</time></trkpt><trkpt lat="44.6969883" lon="9.8733833"><ele>317.0</ele><time>2026-03-28T13:46:04.666Z</time></trkpt><trkpt lat="44.6969167" lon="9.87336"><ele>317.0</ele><time>2026-03-28T13:46:06.665Z</time></trkpt><trkpt lat="44.6968517" lon="9.8733383"><ele>317.0</ele><time>2026-03-28T13:46:08.666Z</time></trkpt><trkpt lat="44.6967683" lon="9.873285"><ele>321.1666666666667</ele><time>2026-03-28T13:46:11.666Z</time></trkpt><trkpt lat="44.6966817" lon="9.8732383"><ele>325.33333333333337</ele><time>2026-03-28T13:46:18.665Z</time></trkpt><trkpt lat="44.6966167" lon="9.8732083"><ele>329.5</ele><time>2026-03-28T13:46:20.667Z</time></trkpt><trkpt lat="44.6965467" lon="9.8732033"><ele>333.6666666666667</ele><time>2026-03-28T13:46:22.666Z</time></trkpt><trkpt lat="44.69646" lon="9.8731683"><ele>337.8333333333333</ele><time>2026-03-28T13:46:24.666Z</time></trkpt><trkpt lat="44.6964" lon="9.8731183"><ele>342.0</ele><time>2026-03-28T13:46:26.667Z</time></trkpt><trkpt lat="44.6963317" lon="9.8730267"><ele>342.0</ele><time>2026-03-28T13:46:29.665Z</time></trkpt><trkpt lat="44.6962633" lon="9.8729967"><ele>342.0</ele><time>2026-03-28T13:46:31.667Z</time></trkpt><trkpt lat="44.6961633" lon="9.8729567"><ele>342.0</ele><time>2026-03-28T13:46:33.666Z</time></trkpt><trkpt lat="44.6961033" lon="9.8729283"><ele>342.0</ele><time>2026-03-28T13:46:34.67Z</time></trkpt><trkpt lat="44.6960217" lon="9.8728767"><ele>342.0</ele><time>2026-03-28T13:46:36.665Z</time></trkpt><trkpt lat="44.6959617" lon="9.87283"><ele>342.0</ele><time>2026-03-28T13:46:38.666Z</time></trkpt><trkpt lat="44.6959017" lon="9.8727933"><ele>344.1666666666667</ele><time>2026-03-28T13:46:40.666Z</time></trkpt><trkpt lat="44.6958183" lon="9.872755"><ele>346.3333333333333</ele><time>2026-03-28T13:46:42.665Z</time></trkpt><trkpt lat="44.6957467" lon="9.8727317"><ele>348.5</ele><time>2026-03-28T13:46:45.666Z</time></trkpt><trkpt lat="44.6956667" lon="9.87271"><ele>350.66666666666663</ele><time>2026-03-28T13:46:48.667Z</time></trkpt><trkpt lat="44.6955867" lon="9.87266"><ele>352.8333333333333</ele><time>2026-03-28T13:46:51.665Z</time></trkpt><trkpt lat="44.695525" lon="9.872565"><ele>355.0</ele><time>2026-03-28T13:46:53.666Z</time></trkpt><trkpt lat="44.6954533" lon="9.8724783"><ele>357.0</ele><time>2026-03-28T13:46:55.667Z</time></trkpt><trkpt lat="44.6953533" lon="9.8724033"><ele>359.0</ele><time>2026-03-28T13:46:57.667Z</time></trkpt><trkpt lat="44.6952283" lon="9.87234"><ele>361.0</ele><time>2026-03-28T13:46:59.667Z</time></trkpt><trkpt lat="44.69516" lon="9.8723183"><ele>363.0</ele><time>2026-03-28T13:47:00.666Z</time></trkpt><trkpt lat="44.6950833" lon="9.8722883"><ele>365.0</ele><time>2026-03-28T13:47:01.667Z</time></trkpt><trkpt lat="44.6950167" lon="9.87225"><ele>367.00000000000006</ele><time>2026-03-28T13:47:02.667Z</time></trkpt><trkpt lat="44.6949583" lon="9.8721933"><ele>369.0</ele><time>2026-03-28T13:47:03.666Z</time></trkpt><trkpt lat="44.694895" lon="9.8721417"><ele>371.0</ele><time>2026-03-28T13:47:04.666Z</time></trkpt><trkpt lat="44.6948333" lon="9.8720917"><ele>373.0</ele><time>2026-03-28T13:47:05.666Z</time></trkpt><trkpt lat="44.69478" lon="9.8720333"><ele>375.0</ele><time>2026-03-28T13:47:06.665Z</time></trkpt><trkpt lat="44.69473" lon="9.8719783"><ele>377.00000000000006</ele><time>2026-03-28T13:47:07.666Z</time></trkpt><trkpt lat="44.6946817" lon="9.87192"><ele>379.0</ele><time>2026-03-28T13:47:08.668Z</time></trkpt><trkpt lat="44.694625" lon="9.87186"><ele>379.00000000000006</ele><time>2026-03-28T13:47:09.665Z</time></trkpt><trkpt lat="44.6945667" lon="9.8718083"><ele>379.0</ele><time>2026-03-28T13:47:10.668Z</time></trkpt><trkpt lat="44.6945133" lon="9.8717567"><ele>379.0</ele><time>2026-03-28T13:47:11.666Z</time></trkpt><trkpt lat="44.6944383" lon="9.8716667"><ele>379.0</ele><time>2026-03-28T13:47:13.666Z</time></trkpt><trkpt lat="44.694395" lon="9.8715867"><ele>379.0</ele><time>2026-03-28T13:47:15.665Z</time></trkpt><trkpt lat="44.694345" lon="9.8715233"><ele>379.00000000000006</ele><time>2026-03-28T13:47:17.667Z</time></trkpt><trkpt lat="44.6942917" lon="9.8714633"><ele>379.0</ele><time>2026-03-28T13:47:19.667Z</time></trkpt><trkpt lat="44.694235" lon="9.8713767"><ele>381.16666666666663</ele><time>2026-03-28T13:47:21.666Z</time></trkpt><trkpt lat="44.6941967" lon="9.8712983"><ele>383.3333333333333</ele><time>2026-03-28T13:47:23.668Z</time></trkpt><trkpt lat="44.6941967" lon="9.8711767"><ele>385.5</ele><time>2026-03-28T13:47:26.667Z</time></trkpt><trkpt lat="44.69424" lon="9.8710667"><ele>387.66666666666663</ele><time>2026-03-28T13:47:29.665Z</time></trkpt><trkpt lat="44.6943017" lon="9.87098"><ele>389.8333333333333</ele><time>2026-03-28T13:47:31.666Z</time></trkpt><trkpt lat="44.6943683" lon="9.8708867"><ele>392.0</ele><time>2026-03-28T13:47:33.666Z</time></trkpt><trkpt lat="44.69443" lon="9.8707983"><ele>394.57142857142856</ele><time>2026-03-28T13:47:35.668Z</time></trkpt><trkpt lat="44.6943983" lon="9.8706933"><ele>397.1428571428571</ele><time>2026-03-28T13:47:41.668Z</time></trkpt><trkpt lat="44.6943483" lon="9.870615"><ele>399.7142857142857</ele><time>2026-03-28T13:47:45.667Z</time></trkpt><trkpt lat="44.6943467" lon="9.8705217"><ele>402.2857142857143</ele><time>2026-03-28T13:47:48.667Z</time></trkpt><trkpt lat="44.694345" lon="9.8704"><ele>404.85714285714283</ele><time>2026-03-28T13:47:52.665Z</time></trkpt><trkpt lat="44.6943417" lon="9.8702967"><ele>407.42857142857144</ele><time>2026-03-28T13:47:55.666Z</time></trkpt><trkpt lat="44.6943467" lon="9.8702083"><ele>410.0</ele><time>2026-03-28T13:47:57.667Z</time></trkpt><trkpt lat="44.6943567" lon="9.8700717"><ele>410.8571428571429</ele><time>2026-03-28T13:48:00.666Z</time></trkpt><trkpt lat="44.6943433" lon="9.869965"><ele>411.71428571428567</ele><time>2026-03-28T13:48:02.666Z</time></trkpt><trkpt lat="44.6943167" lon="9.869855"><ele>412.57142857142856</ele><time>2026-03-28T13:48:04.666Z</time></trkpt><trkpt lat="44.6942683" lon="9.8697717"><ele>413.42857142857144</ele><time>2026-03-28T13:48:07.665Z</time></trkpt><trkpt lat="44.6942417" lon="9.869685"><ele>414.28571428571433</ele><time>2026-03-28T13:48:09.666Z</time></trkpt><trkpt lat="44.6942367" lon="9.8695717"><ele>415.1428571428571</ele><time>2026-03-28T13:48:11.667Z</time></trkpt><trkpt lat="44.6942583" lon="9.8694867"><ele>416.0</ele><time>2026-03-28T13:48:13.667Z</time></trkpt><trkpt lat="44.6943033" lon="9.8693983"><ele>416.66666666666663</ele><time>2026-03-28T13:48:15.665Z</time></trkpt><trkpt lat="44.6943283" lon="9.8692717"><ele>417.3333333333333</ele><time>2026-03-28T13:48:17.665Z</time></trkpt><trkpt lat="44.6943317" lon="9.8691367"><ele>418.0</ele><time>2026-03-28T13:48:19.667Z</time></trkpt><trkpt lat="44.6943133" lon="9.86905"><ele>418.66666666666663</ele><time>2026-03-28T13:48:21.665Z</time></trkpt><trkpt lat="44.694215" lon="9.8689917"><ele>419.3333333333333</ele><time>2026-03-28T13:48:32.667Z</time></trkpt><trkpt lat="44.694155" lon="9.868955"><ele>420.0</ele><time>2026-03-28T13:48:35.666Z</time></trkpt><trkpt lat="44.6940933" lon="9.8688933"><ele>420.0</ele><time>2026-03-28T13:48:38.667Z</time></trkpt><trkpt lat="44.6940417" lon="9.8688367"><ele>420.0</ele><time>2026-03-28T13:48:40.666Z</time></trkpt><trkpt lat="44.69394" lon="9.8687483"><ele>420.0</ele><time>2026-03-28T13:49:03.665Z</time></trkpt><trkpt lat="44.6938833" lon="9.8686483"><ele>420.0</ele><time>2026-03-28T13:49:05.666Z</time></trkpt><trkpt lat="44.693785" lon="9.8685333"><ele>420.0</ele><time>2026-03-28T13:49:07.666Z</time></trkpt><trkpt lat="44.6937217" lon="9.8684833"><ele>421.3333333333333</ele><time>2026-03-28T13:49:08.664Z</time></trkpt><trkpt lat="44.6936667" lon="9.8684383"><ele>422.66666666666663</ele><time>2026-03-28T13:49:09.666Z</time></trkpt><trkpt lat="44.6936167" lon="9.8683833"><ele>424.0</ele><time>2026-03-28T13:49:10.666Z</time></trkpt><trkpt lat="44.6935217" lon="9.8682717"><ele>425.3333333333333</ele><time>2026-03-28T13:49:12.664Z</time></trkpt><trkpt lat="44.69347" lon="9.8682167"><ele>426.66666666666663</ele><time>2026-03-28T13:49:13.666Z</time></trkpt><trkpt lat="44.6933517" lon="9.8681467"><ele>428.0</ele><time>2026-03-28T13:49:15.665Z</time></trkpt><trkpt lat="44.6932733" lon="9.8680867"><ele>431.4</ele><time>2026-03-28T13:49:17.666Z</time></trkpt><trkpt lat="44.6931933" lon="9.867985"><ele>434.79999999999995</ele><time>2026-03-28T13:49:19.666Z</time></trkpt><trkpt lat="44.6930867" lon="9.8678633"><ele>438.2</ele><time>2026-03-28T13:49:21.665Z</time></trkpt><trkpt lat="44.693035" lon="9.8678017"><ele>441.6</ele><time>2026-03-28T13:49:22.667Z</time></trkpt><trkpt lat="44.6929917" lon="9.8677317"><ele>445.0</ele><time>2026-03-28T13:49:23.666Z</time></trkpt><trkpt lat="44.6929117" lon="9.86762"><ele>446.6666666666667</ele><time>2026-03-28T13:49:25.666Z</time></trkpt><trkpt lat="44.6928081" lon="9.8675201"><ele>448.33333333333337</ele><time>2026-03-28T13:49:27.671Z</time></trkpt><trkpt lat="44.6927546" lon="9.8674729"><ele>450.0</ele><time>2026-03-28T13:49:28.664Z</time></trkpt><trkpt lat="44.692664" lon="9.8674065"><ele>451.66666666666663</ele><time>2026-03-28T13:49:30.666Z</time></trkpt><trkpt lat="44.6925994" lon="9.8673891"><ele>453.3333333333333</ele><time>2026-03-28T13:49:32.666Z</time></trkpt><trkpt lat="44.6925345" lon="9.8673252"><ele>455.0</ele><time>2026-03-28T13:49:35.665Z</time></trkpt><trkpt lat="44.6925133" lon="9.8672348"><ele>456.0</ele><time>2026-03-28T13:49:39.664Z</time></trkpt><trkpt lat="44.6925064" lon="9.8671442"><ele>457.0</ele><time>2026-03-28T13:51:31.664Z</time></trkpt><trkpt lat="44.6925377" lon="9.8669706"><ele>458.0</ele><time>2026-03-28T13:51:33.666Z</time></trkpt><trkpt lat="44.6925604" lon="9.8668804"><ele>459.0</ele><time>2026-03-28T13:51:34.665Z</time></trkpt><trkpt lat="44.692627" lon="9.866742"><ele>460.0</ele><time>2026-03-28T13:51:36.667Z</time></trkpt><trkpt lat="44.6926874" lon="9.8666117"><ele>461.0</ele><time>2026-03-28T13:51:38.668Z</time></trkpt><trkpt lat="44.6927073" lon="9.8664679"><ele>462.0</ele><time>2026-03-28T13:51:40.666Z</time></trkpt><trkpt lat="44.692677" lon="9.8663122"><ele>463.0</ele><time>2026-03-28T13:51:42.665Z</time></trkpt><trkpt lat="44.6926579" lon="9.8662233"><ele>464.0</ele><time>2026-03-28T13:51:43.666Z</time></trkpt><trkpt lat="44.6926842" lon="9.8660593"><ele>465.0</ele><time>2026-03-28T13:51:45.666Z</time></trkpt><trkpt lat="44.6927183" lon="9.8659817"><ele>465.3333333333333</ele><time>2026-03-28T13:51:46.666Z</time></trkpt><trkpt lat="44.6927383" lon="9.8658433"><ele>465.66666666666663</ele><time>2026-03-28T13:51:48.664Z</time></trkpt><trkpt lat="44.6927667" lon="9.8656867"><ele>466.0</ele><time>2026-03-28T13:51:50.668Z</time></trkpt><trkpt lat="44.692775" lon="9.8655867"><ele>466.3333333333333</ele><time>2026-03-28T13:51:51.666Z</time></trkpt><trkpt lat="44.6927767" lon="9.8654883"><ele>466.66666666666663</ele><time>2026-03-28T13:51:52.666Z</time></trkpt><trkpt lat="44.69277" lon="9.8653917"><ele>467.0</ele><time>2026-03-28T13:51:53.666Z</time></trkpt><trkpt lat="44.6927683" lon="9.8652933"><ele>467.0</ele><time>2026-03-28T13:51:54.666Z</time></trkpt><trkpt lat="44.6927683" lon="9.865185"><ele>467.00000000000006</ele><time>2026-03-28T13:51:55.668Z</time></trkpt><trkpt lat="44.6927683" lon="9.8650833"><ele>467.00000000000006</ele><time>2026-03-28T13:51:56.666Z</time></trkpt><trkpt lat="44.692745" lon="9.8649317"><ele>467.0</ele><time>2026-03-28T13:51:58.666Z</time></trkpt><trkpt lat="44.69269" lon="9.8648083"><ele>467.0</ele><time>2026-03-28T13:52:00.666Z</time></trkpt><trkpt lat="44.6926233" lon="9.8647033"><ele>467.99999999999994</ele><time>2026-03-28T13:52:02.665Z</time></trkpt><trkpt lat="44.69259" lon="9.8645933"><ele>469.0</ele><time>2026-03-28T13:52:04.666Z</time></trkpt><trkpt lat="44.69255" lon="9.864505"><ele>470.0</ele><time>2026-03-28T13:52:06.666Z</time></trkpt><trkpt lat="44.69255" lon="9.8643467"><ele>471.0</ele><time>2026-03-28T13:52:08.667Z</time></trkpt><trkpt lat="44.6925583" lon="9.8642417"><ele>471.99999999999994</ele><time>2026-03-28T13:52:09.666Z</time></trkpt><trkpt lat="44.69256" lon="9.8641267"><ele>473.0</ele><time>2026-03-28T13:52:10.665Z</time></trkpt><trkpt lat="44.6925533" lon="9.8640083"><ele>473.16666666666663</ele><time>2026-03-28T13:52:11.664Z</time></trkpt><trkpt lat="44.692535" lon="9.8638917"><ele>473.3333333333333</ele><time>2026-03-28T13:52:12.665Z</time></trkpt><trkpt lat="44.6925117" lon="9.86378"><ele>473.5</ele><time>2026-03-28T13:52:13.665Z</time></trkpt><trkpt lat="44.69248" lon="9.863675"><ele>473.66666666666663</ele><time>2026-03-28T13:52:14.665Z</time></trkpt><trkpt lat="44.6924433" lon="9.863585"><ele>473.8333333333333</ele><time>2026-03-28T13:52:15.666Z</time></trkpt><trkpt lat="44.6924183" lon="9.8635"><ele>474.0</ele><time>2026-03-28T13:52:16.669Z</time></trkpt><trkpt lat="44.6924" lon="9.8634083"><ele>475.6</ele><time>2026-03-28T13:52:17.667Z</time></trkpt><trkpt lat="44.6923583" lon="9.8632533"><ele>477.2</ele><time>2026-03-28T13:52:19.666Z</time></trkpt><trkpt lat="44.69233" lon="9.8631733"><ele>478.80000000000007</ele><time>2026-03-28T13:52:20.665Z</time></trkpt><trkpt lat="44.6922517" lon="9.8630333"><ele>480.40000000000003</ele><time>2026-03-28T13:52:22.666Z</time></trkpt><trkpt lat="44.6921883" lon="9.8629133"><ele>482.0</ele><time>2026-03-28T13:52:24.666Z</time></trkpt><trkpt lat="44.6921433" lon="9.86276"><ele>483.20000000000005</ele><time>2026-03-28T13:52:26.666Z</time></trkpt><trkpt lat="44.6920883" lon="9.8626067"><ele>484.40000000000003</ele><time>2026-03-28T13:52:28.665Z</time></trkpt><trkpt lat="44.692065" lon="9.8625233"><ele>485.59999999999997</ele><time>2026-03-28T13:52:29.666Z</time></trkpt><trkpt lat="44.6920367" lon="9.8623533"><ele>486.79999999999995</ele><time>2026-03-28T13:52:31.667Z</time></trkpt><trkpt lat="44.6920233" lon="9.8621983"><ele>488.0</ele><time>2026-03-28T13:52:33.665Z</time></trkpt><trkpt lat="44.6919833" lon="9.8620533"><ele>488.0</ele><time>2026-03-28T13:52:35.666Z</time></trkpt><trkpt lat="44.691945" lon="9.861875"><ele>487.99999999999994</ele><time>2026-03-28T13:52:37.666Z</time></trkpt><trkpt lat="44.69192" lon="9.8617717"><ele>487.99999999999994</ele><time>2026-03-28T13:52:38.667Z</time></trkpt><trkpt lat="44.691895" lon="9.8616517"><ele>488.0</ele><time>2026-03-28T13:52:39.667Z</time></trkpt><trkpt lat="44.691875" lon="9.86154"><ele>488.0</ele><time>2026-03-28T13:52:40.665Z</time></trkpt><trkpt lat="44.691855" lon="9.8614183"><ele>489.2</ele><time>2026-03-28T13:52:41.664Z</time></trkpt><trkpt lat="44.6918267" lon="9.861295"><ele>490.4</ele><time>2026-03-28T13:52:42.666Z</time></trkpt><trkpt lat="44.6917917" lon="9.861185"><ele>491.59999999999997</ele><time>2026-03-28T13:52:43.665Z</time></trkpt><trkpt lat="44.69174" lon="9.8610783"><ele>492.79999999999995</ele><time>2026-03-28T13:52:44.666Z</time></trkpt><trkpt lat="44.691685" lon="9.86097"><ele>494.0</ele><time>2026-03-28T13:52:45.664Z</time></trkpt><trkpt lat="44.6916367" lon="9.860855"><ele>495.6</ele><time>2026-03-28T13:52:46.666Z</time></trkpt><trkpt lat="44.6916" lon="9.860735"><ele>497.2</ele><time>2026-03-28T13:52:47.666Z</time></trkpt><trkpt lat="44.69157" lon="9.8606083"><ele>498.80000000000007</ele><time>2026-03-28T13:52:48.666Z</time></trkpt><trkpt lat="44.691545" lon="9.8604833"><ele>500.40000000000003</ele><time>2026-03-28T13:52:49.667Z</time></trkpt><trkpt lat="44.69152" lon="9.86036"><ele>502.0</ele><time>2026-03-28T13:52:50.665Z</time></trkpt><trkpt lat="44.6914867" lon="9.860235"><ele>502.00000000000006</ele><time>2026-03-28T13:52:51.666Z</time></trkpt><trkpt lat="44.6914483" lon="9.8601217"><ele>502.0</ele><time>2026-03-28T13:52:52.665Z</time></trkpt><trkpt lat="44.6914133" lon="9.86001"><ele>502.0</ele><time>2026-03-28T13:52:53.667Z</time></trkpt><trkpt lat="44.6913717" lon="9.8598967"><ele>502.0</ele><time>2026-03-28T13:52:54.667Z</time></trkpt><trkpt lat="44.6913367" lon="9.859785"><ele>502.00000000000006</ele><time>2026-03-28T13:52:55.666Z</time></trkpt><trkpt lat="44.6913133" lon="9.8596767"><ele>502.0</ele><time>2026-03-28T13:52:56.665Z</time></trkpt><trkpt lat="44.6913017" lon="9.8595683"><ele>502.8571428571428</ele><time>2026-03-28T13:52:57.666Z</time></trkpt><trkpt lat="44.6913117" lon="9.8594567"><ele>503.71428571428567</ele><time>2026-03-28T13:52:58.666Z</time></trkpt><trkpt lat="44.6913383" lon="9.859355"><ele>504.57142857142856</ele><time>2026-03-28T13:52:59.665Z</time></trkpt><trkpt lat="44.6913667" lon="9.8592683"><ele>505.4285714285714</ele><time>2026-03-28T13:53:00.671Z</time></trkpt><trkpt lat="44.6913817" lon="9.8591817"><ele>506.2857142857142</ele><time>2026-03-28T13:53:01.665Z</time></trkpt><trkpt lat="44.6914017" lon="9.859095"><ele>507.14285714285717</ele><time>2026-03-28T13:53:02.666Z</time></trkpt><trkpt lat="44.6914317" lon="9.8590067"><ele>508.0</ele><time>2026-03-28T13:53:03.666Z</time></trkpt><trkpt lat="44.6914667" lon="9.85891"><ele>508.79999999999995</ele><time>2026-03-28T13:53:04.665Z</time></trkpt><trkpt lat="44.6915117" lon="9.8587883"><ele>509.59999999999997</ele><time>2026-03-28T13:53:05.67Z</time></trkpt><trkpt lat="44.6915617" lon="9.858655"><ele>510.40000000000003</ele><time>2026-03-28T13:53:06.667Z</time></trkpt><trkpt lat="44.6916117" lon="9.8585333"><ele>511.20000000000005</ele><time>2026-03-28T13:53:07.666Z</time></trkpt><trkpt lat="44.691665" lon="9.8584167"><ele>512.0</ele><time>2026-03-28T13:53:08.667Z</time></trkpt><trkpt lat="44.691715" lon="9.858305"><ele>513.1666666666666</ele><time>2026-03-28T13:53:09.664Z</time></trkpt><trkpt lat="44.691755" lon="9.8581983"><ele>514.3333333333333</ele><time>2026-03-28T13:53:10.666Z</time></trkpt><trkpt lat="44.6917683" lon="9.85808"><ele>515.5</ele><time>2026-03-28T13:53:11.666Z</time></trkpt><trkpt lat="44.6917733" lon="9.8579667"><ele>516.6666666666666</ele><time>2026-03-28T13:53:12.666Z</time></trkpt><trkpt lat="44.6917767" lon="9.8578617"><ele>517.8333333333334</ele><time>2026-03-28T13:53:13.666Z</time></trkpt><trkpt lat="44.6917817" lon="9.8577667"><ele>519.0</ele><time>2026-03-28T13:53:14.667Z</time></trkpt><trkpt lat="44.691775" lon="9.85763"><ele>520.5</ele><time>2026-03-28T13:53:16.666Z</time></trkpt><trkpt lat="44.6917333" lon="9.8575067"><ele>522.0</ele><time>2026-03-28T13:53:18.665Z</time></trkpt><trkpt lat="44.6916667" lon="9.8573783"><ele>523.5</ele><time>2026-03-28T13:53:20.667Z</time></trkpt><trkpt lat="44.6916183" lon="9.8572233"><ele>525.0</ele><time>2026-03-28T13:53:22.668Z</time></trkpt><trkpt lat="44.6915917" lon="9.8570433"><ele>525.0</ele><time>2026-03-28T13:53:24.666Z</time></trkpt><trkpt lat="44.6915783" lon="9.8569533"><ele>525.0</ele><time>2026-03-28T13:53:25.665Z</time></trkpt><trkpt lat="44.6915367" lon="9.8568133"><ele>525.0</ele><time>2026-03-28T13:53:27.666Z</time></trkpt><trkpt lat="44.6914883" lon="9.856735"><ele>525.0</ele><time>2026-03-28T13:53:29.666Z</time></trkpt><trkpt lat="44.6914717" lon="9.8566333"><ele>525.0</ele><time>2026-03-28T13:53:31.666Z</time></trkpt><trkpt lat="44.6914833" lon="9.8564717"><ele>525.0</ele><time>2026-03-28T13:53:33.666Z</time></trkpt><trkpt lat="44.691495" lon="9.856375"><ele>525.0</ele><time>2026-03-28T13:53:34.665Z</time></trkpt><trkpt lat="44.6915083" lon="9.8562683"><ele>525.0</ele><time>2026-03-28T13:53:35.667Z</time></trkpt><trkpt lat="44.69154" lon="9.8561567"><ele>525.0</ele><time>2026-03-28T13:53:36.666Z</time></trkpt><trkpt lat="44.6915683" lon="9.8560433"><ele>525.0</ele><time>2026-03-28T13:53:37.666Z</time></trkpt><trkpt lat="44.6915867" lon="9.8559167"><ele>525.0</ele><time>2026-03-28T13:53:38.666Z</time></trkpt><trkpt lat="44.691565" lon="9.855775"><ele>525.0</ele><time>2026-03-28T13:53:39.666Z</time></trkpt><trkpt lat="44.6915283" lon="9.8556417"><ele>524.6</ele><time>2026-03-28T13:53:40.666Z</time></trkpt><trkpt lat="44.6915" lon="9.8555033"><ele>524.2</ele><time>2026-03-28T13:53:41.667Z</time></trkpt><trkpt lat="44.69149" lon="9.855365"><ele>523.8</ele><time>2026-03-28T13:53:42.666Z</time></trkpt><trkpt lat="44.691485" lon="9.8552283"><ele>523.4</ele><time>2026-03-28T13:53:43.665Z</time></trkpt><trkpt lat="44.6914867" lon="9.85509"><ele>523.0</ele><time>2026-03-28T13:53:44.666Z</time></trkpt><trkpt lat="44.6915017" lon="9.854955"><ele>523.0</ele><time>2026-03-28T13:53:45.666Z</time></trkpt><trkpt lat="44.6915117" lon="9.8548167"><ele>523.0</ele><time>2026-03-28T13:53:46.665Z</time></trkpt><trkpt lat="44.6915217" lon="9.85468"><ele>523.0</ele><time>2026-03-28T13:53:47.667Z</time></trkpt><trkpt lat="44.6915383" lon="9.85454"><ele>523.0</ele><time>2026-03-28T13:53:48.667Z</time></trkpt><trkpt lat="44.69157" lon="9.8543933"><ele>523.0</ele><time>2026-03-28T13:53:49.666Z</time></trkpt><trkpt lat="44.6916067" lon="9.8542567"><ele>524.0</ele><time>2026-03-28T13:53:50.667Z</time></trkpt><trkpt lat="44.6916367" lon="9.8541317"><ele>525.0</ele><time>2026-03-28T13:53:51.666Z</time></trkpt><trkpt lat="44.6916517" lon="9.854035"><ele>526.0</ele><time>2026-03-28T13:53:52.667Z</time></trkpt><trkpt lat="44.691655" lon="9.853945"><ele>527.0</ele><time>2026-03-28T13:53:53.667Z</time></trkpt><trkpt lat="44.6916483" lon="9.853835"><ele>528.0</ele><time>2026-03-28T13:53:54.665Z</time></trkpt><trkpt lat="44.6916333" lon="9.8537067"><ele>529.0</ele><time>2026-03-28T13:53:55.665Z</time></trkpt><trkpt lat="44.6916333" lon="9.85358"><ele>529.0</ele><time>2026-03-28T13:53:56.666Z</time></trkpt><trkpt lat="44.6916483" lon="9.8534617"><ele>529.0</ele><time>2026-03-28T13:53:57.666Z</time></trkpt><trkpt lat="44.6916783" lon="9.8533683"><ele>529.0</ele><time>2026-03-28T13:53:58.666Z</time></trkpt><trkpt lat="44.6917083" lon="9.8532383"><ele>529.0</ele><time>2026-03-28T13:54:00.665Z</time></trkpt><trkpt lat="44.6917167" lon="9.8531283"><ele>529.0</ele><time>2026-03-28T13:54:02.666Z</time></trkpt><trkpt lat="44.69168" lon="9.85302"><ele>529.0</ele><time>2026-03-28T13:54:04.666Z</time></trkpt><trkpt lat="44.6916033" lon="9.852905"><ele>530.5</ele><time>2026-03-28T13:54:06.67Z</time></trkpt><trkpt lat="44.69151" lon="9.8527867"><ele>532.0</ele><time>2026-03-28T13:54:08.666Z</time></trkpt><trkpt lat="44.691465" lon="9.8526883"><ele>533.5</ele><time>2026-03-28T13:54:09.665Z</time></trkpt><trkpt lat="44.6914283" lon="9.8525767"><ele>535.0</ele><time>2026-03-28T13:54:10.664Z</time></trkpt><trkpt lat="44.6914" lon="9.8524767"><ele>536.5</ele><time>2026-03-28T13:54:11.666Z</time></trkpt><trkpt lat="44.6913883" lon="9.8523867"><ele>538.0</ele><time>2026-03-28T13:54:12.666Z</time></trkpt><trkpt lat="44.6913883" lon="9.8522883"><ele>540.0</ele><time>2026-03-28T13:54:13.666Z</time></trkpt><trkpt lat="44.6914033" lon="9.8521833"><ele>542.0</ele><time>2026-03-28T13:54:14.666Z</time></trkpt><trkpt lat="44.6914117" lon="9.8520733"><ele>544.0</ele><time>2026-03-28T13:54:15.668Z</time></trkpt><trkpt lat="44.6914217" lon="9.8519683"><ele>546.0</ele><time>2026-03-28T13:54:16.666Z</time></trkpt><trkpt lat="44.691435" lon="9.8518583"><ele>548.0</ele><time>2026-03-28T13:54:17.665Z</time></trkpt><trkpt lat="44.6914567" lon="9.8517533"><ele>550.0</ele><time>2026-03-28T13:54:18.666Z</time></trkpt><trkpt lat="44.691485" lon="9.8516533"><ele>551.0</ele><time>2026-03-28T13:54:19.666Z</time></trkpt><trkpt lat="44.6915183" lon="9.851565"><ele>552.0</ele><time>2026-03-28T13:54:20.666Z</time></trkpt><trkpt lat="44.6915483" lon="9.8514817"><ele>553.0</ele><time>2026-03-28T13:54:21.666Z</time></trkpt><trkpt lat="44.6915583" lon="9.85129"><ele>554.0</ele><time>2026-03-28T13:54:23.665Z</time></trkpt><trkpt lat="44.6915567" lon="9.8511783"><ele>555.0</ele><time>2026-03-28T13:54:24.667Z</time></trkpt><trkpt lat="44.6915483" lon="9.8510617"><ele>556.0</ele><time>2026-03-28T13:54:25.665Z</time></trkpt><trkpt lat="44.69154" lon="9.8509433"><ele>557.2</ele><time>2026-03-28T13:54:26.666Z</time></trkpt><trkpt lat="44.6915317" lon="9.850815"><ele>558.4000000000001</ele><time>2026-03-28T13:54:27.666Z</time></trkpt><trkpt lat="44.691525" lon="9.8506833"><ele>559.6</ele><time>2026-03-28T13:54:28.666Z</time></trkpt><trkpt lat="44.69152" lon="9.850555"><ele>560.8000000000001</ele><time>2026-03-28T13:54:29.666Z</time></trkpt><trkpt lat="44.691515" lon="9.8504183"><ele>562.0</ele><time>2026-03-28T13:54:30.666Z</time></trkpt><trkpt lat="44.691515" lon="9.8502883"><ele>562.0</ele><time>2026-03-28T13:54:31.665Z</time></trkpt><trkpt lat="44.6915083" lon="9.85017"><ele>562.0</ele><time>2026-03-28T13:54:32.666Z</time></trkpt><trkpt lat="44.6915033" lon="9.8500667"><ele>562.0</ele><time>2026-03-28T13:54:33.666Z</time></trkpt><trkpt lat="44.691505" lon="9.8499717"><ele>562.0</ele><time>2026-03-28T13:54:34.665Z</time></trkpt><trkpt lat="44.6915217" lon="9.8498317"><ele>562.0</ele><time>2026-03-28T13:54:36.666Z</time></trkpt><trkpt lat="44.6915327" lon="9.8496904"><ele>562.0</ele><time>2026-03-28T13:54:38.665Z</time></trkpt><trkpt lat="44.6915516" lon="9.84957"><ele>563.1428571428572</ele><time>2026-03-28T13:54:40.666Z</time></trkpt><trkpt lat="44.6915767" lon="9.8494697"><ele>564.2857142857143</ele><time>2026-03-28T13:54:48.666Z</time></trkpt><trkpt lat="44.6916163" lon="9.8493932"><ele>565.4285714285714</ele><time>2026-03-28T13:54:49.666Z</time></trkpt><trkpt lat="44.6916587" lon="9.8493123"><ele>566.5714285714287</ele><time>2026-03-28T13:54:50.665Z</time></trkpt><trkpt lat="44.691693" lon="9.8492263"><ele>567.7142857142858</ele><time>2026-03-28T13:54:51.666Z</time></trkpt><trkpt lat="44.6917171" lon="9.8491389"><ele>568.8571428571429</ele><time>2026-03-28T13:54:52.666Z</time></trkpt><trkpt lat="44.6917313" lon="9.8490434"><ele>570.0</ele><time>2026-03-28T13:54:53.664Z</time></trkpt><trkpt lat="44.6917362" lon="9.8489287"><ele>571.3333333333334</ele><time>2026-03-28T13:54:54.665Z</time></trkpt><trkpt lat="44.6917378" lon="9.8488101"><ele>572.6666666666666</ele><time>2026-03-28T13:54:55.666Z</time></trkpt><trkpt lat="44.6917356" lon="9.8486993"><ele>574.0</ele><time>2026-03-28T13:54:56.665Z</time></trkpt><trkpt lat="44.6917431" lon="9.8486008"><ele>575.3333333333333</ele><time>2026-03-28T13:54:57.666Z</time></trkpt><trkpt lat="44.691765" lon="9.8485"><ele>576.6666666666666</ele><time>2026-03-28T13:54:58.666Z</time></trkpt><trkpt lat="44.691795" lon="9.8483933"><ele>578.0</ele><time>2026-03-28T13:54:59.664Z</time></trkpt><trkpt lat="44.69183" lon="9.8482867"><ele>578.8333333333333</ele><time>2026-03-28T13:55:00.664Z</time></trkpt><trkpt lat="44.69186" lon="9.848185"><ele>579.6666666666666</ele><time>2026-03-28T13:55:01.665Z</time></trkpt><trkpt lat="44.69189" lon="9.8480967"><ele>580.5</ele><time>2026-03-28T13:55:02.667Z</time></trkpt><trkpt lat="44.6919267" lon="9.848015"><ele>581.3333333333334</ele><time>2026-03-28T13:55:03.664Z</time></trkpt><trkpt lat="44.6919767" lon="9.8479317"><ele>582.1666666666667</ele><time>2026-03-28T13:55:04.666Z</time></trkpt><trkpt lat="44.6920333" lon="9.847855"><ele>583.0</ele><time>2026-03-28T13:55:05.665Z</time></trkpt><trkpt lat="44.6920967" lon="9.8477783"><ele>583.5</ele><time>2026-03-28T13:55:06.666Z</time></trkpt><trkpt lat="44.6921633" lon="9.847695"><ele>584.0</ele><time>2026-03-28T13:55:07.665Z</time></trkpt><trkpt lat="44.6922267" lon="9.8476033"><ele>584.5</ele><time>2026-03-28T13:55:08.666Z</time></trkpt><trkpt lat="44.6922833" lon="9.847505"><ele>585.0</ele><time>2026-03-28T13:55:09.664Z</time></trkpt><trkpt lat="44.692335" lon="9.8474083"><ele>585.5</ele><time>2026-03-28T13:55:10.664Z</time></trkpt><trkpt lat="44.6923883" lon="9.84731"><ele>586.0</ele><time>2026-03-28T13:55:11.664Z</time></trkpt><trkpt lat="44.6924417" lon="9.8472217"><ele>587.1666666666667</ele><time>2026-03-28T13:55:12.666Z</time></trkpt><trkpt lat="44.69249" lon="9.8471233"><ele>588.3333333333334</ele><time>2026-03-28T13:55:13.665Z</time></trkpt><trkpt lat="44.69253" lon="9.84702"><ele>589.5</ele><time>2026-03-28T13:55:14.666Z</time></trkpt><trkpt lat="44.6925633" lon="9.846915"><ele>590.6666666666666</ele><time>2026-03-28T13:55:15.666Z</time></trkpt><trkpt lat="44.69258" lon="9.8468267"><ele>591.8333333333333</ele><time>2026-03-28T13:55:16.665Z</time></trkpt><trkpt lat="44.692575" lon="9.8466583"><ele>593.0</ele><time>2026-03-28T13:55:18.665Z</time></trkpt><trkpt lat="44.6925717" lon="9.846485"><ele>594.8333333333333</ele><time>2026-03-28T13:55:20.666Z</time></trkpt><trkpt lat="44.6925867" lon="9.8463967"><ele>596.6666666666666</ele><time>2026-03-28T13:55:21.665Z</time></trkpt><trkpt lat="44.6926" lon="9.84631"><ele>598.5</ele><time>2026-03-28T13:55:22.666Z</time></trkpt><trkpt lat="44.6925883" lon="9.84614"><ele>600.3333333333334</ele><time>2026-03-28T13:55:24.666Z</time></trkpt><trkpt lat="44.6925583" lon="9.8460617"><ele>602.1666666666667</ele><time>2026-03-28T13:55:25.665Z</time></trkpt><trkpt lat="44.6925167" lon="9.84599"><ele>604.0</ele><time>2026-03-28T13:55:26.668Z</time></trkpt><trkpt lat="44.6924333" lon="9.8458717"><ele>604.8333333333334</ele><time>2026-03-28T13:55:28.664Z</time></trkpt><trkpt lat="44.69239" lon="9.8457883"><ele>605.6666666666667</ele><time>2026-03-28T13:55:29.666Z</time></trkpt><trkpt lat="44.6923533" lon="9.8456917"><ele>606.5</ele><time>2026-03-28T13:55:30.666Z</time></trkpt><trkpt lat="44.692315" lon="9.8455833"><ele>607.3333333333334</ele><time>2026-03-28T13:55:31.666Z</time></trkpt><trkpt lat="44.6922767" lon="9.8454667"><ele>608.1666666666666</ele><time>2026-03-28T13:55:32.667Z</time></trkpt><trkpt lat="44.69224" lon="9.8453667"><ele>609.0</ele><time>2026-03-28T13:55:33.665Z</time></trkpt><trkpt lat="44.6922117" lon="9.8452817"><ele>609.0</ele><time>2026-03-28T13:55:34.665Z</time></trkpt><trkpt lat="44.6921867" lon="9.845135"><ele>609.0</ele><time>2026-03-28T13:55:36.666Z</time></trkpt><trkpt lat="44.692235" lon="9.844995"><ele>609.0</ele><time>2026-03-28T13:55:38.666Z</time></trkpt><trkpt lat="44.692265" lon="9.8449"><ele>609.0</ele><time>2026-03-28T13:55:39.666Z</time></trkpt><trkpt lat="44.692305" lon="9.8447933"><ele>609.0</ele><time>2026-03-28T13:55:40.666Z</time></trkpt><trkpt lat="44.6923383" lon="9.844685"><ele>609.6666666666666</ele><time>2026-03-28T13:55:41.669Z</time></trkpt><trkpt lat="44.6923667" lon="9.84459"><ele>610.3333333333334</ele><time>2026-03-28T13:55:42.666Z</time></trkpt><trkpt lat="44.692385" lon="9.8445"><ele>611.0</ele><time>2026-03-28T13:55:43.665Z</time></trkpt><trkpt lat="44.692385" lon="9.8443433"><ele>611.6666666666667</ele><time>2026-03-28T13:55:45.665Z</time></trkpt><trkpt lat="44.6923617" lon="9.8442317"><ele>612.3333333333334</ele><time>2026-03-28T13:55:47.665Z</time></trkpt><trkpt lat="44.6922967" lon="9.8441817"><ele>613.0</ele><time>2026-03-28T13:55:49.665Z</time></trkpt><trkpt lat="44.6922117" lon="9.8441383"><ele>613.6666666666667</ele><time>2026-03-28T13:55:51.666Z</time></trkpt><trkpt lat="44.6921017" lon="9.844045"><ele>614.3333333333334</ele><time>2026-03-28T13:55:53.665Z</time></trkpt><trkpt lat="44.692035" lon="9.8439817"><ele>615.0</ele><time>2026-03-28T13:55:54.664Z</time></trkpt><trkpt lat="44.6919733" lon="9.8439083"><ele>615.6666666666666</ele><time>2026-03-28T13:55:55.666Z</time></trkpt><trkpt lat="44.6919117" lon="9.8438333"><ele>616.3333333333333</ele><time>2026-03-28T13:55:56.666Z</time></trkpt><trkpt lat="44.691855" lon="9.8437617"><ele>617.0</ele><time>2026-03-28T13:55:57.666Z</time></trkpt><trkpt lat="44.691785" lon="9.8436283"><ele>617.6666666666666</ele><time>2026-03-28T13:55:59.667Z</time></trkpt><trkpt lat="44.6917733" lon="9.8435383"><ele>618.3333333333333</ele><time>2026-03-28T13:56:00.666Z</time></trkpt><trkpt lat="44.69176" lon="9.84342"><ele>619.0</ele><time>2026-03-28T13:56:01.666Z</time></trkpt><trkpt lat="44.6917483" lon="9.843305"><ele>619.6666666666666</ele><time>2026-03-28T13:56:02.666Z</time></trkpt><trkpt lat="44.6917383" lon="9.8432017"><ele>620.3333333333334</ele><time>2026-03-28T13:56:03.666Z</time></trkpt><trkpt lat="44.6916883" lon="9.843045"><ele>621.0</ele><time>2026-03-28T13:56:05.666Z</time></trkpt><trkpt lat="44.69164" lon="9.8429733"><ele>622.3333333333334</ele><time>2026-03-28T13:56:06.667Z</time></trkpt><trkpt lat="44.6915733" lon="9.8428967"><ele>623.6666666666666</ele><time>2026-03-28T13:56:07.668Z</time></trkpt><trkpt lat="44.6915017" lon="9.8428117"><ele>625.0</ele><time>2026-03-28T13:56:08.666Z</time></trkpt><trkpt lat="44.6914417" lon="9.84273"><ele>626.3333333333333</ele><time>2026-03-28T13:56:09.666Z</time></trkpt><trkpt lat="44.6913783" lon="9.8426434"><ele>627.6666666666666</ele><time>2026-03-28T13:56:10.666Z</time></trkpt><trkpt lat="44.6913229" lon="9.8425628"><ele>629.0</ele><time>2026-03-28T13:56:11.666Z</time></trkpt><trkpt lat="44.6912401" lon="9.84245"><ele>629.1666666666666</ele><time>2026-03-28T13:56:13.666Z</time></trkpt><trkpt lat="44.691141" lon="9.8424157"><ele>629.3333333333333</ele><time>2026-03-28T13:56:15.667Z</time></trkpt><trkpt lat="44.6910732" lon="9.8424097"><ele>629.5</ele><time>2026-03-28T13:56:16.666Z</time></trkpt><trkpt lat="44.6909941" lon="9.842386"><ele>629.6666666666666</ele><time>2026-03-28T13:56:17.667Z</time></trkpt><trkpt lat="44.6909125" lon="9.8423439"><ele>629.8333333333334</ele><time>2026-03-28T13:56:18.666Z</time></trkpt><trkpt lat="44.6908379" lon="9.8422874"><ele>630.0</ele><time>2026-03-28T13:56:19.666Z</time></trkpt><trkpt lat="44.6907759" lon="9.8422203"><ele>631.5</ele><time>2026-03-28T13:56:20.666Z</time></trkpt><trkpt lat="44.6907218" lon="9.8421459"><ele>633.0</ele><time>2026-03-28T13:56:21.666Z</time></trkpt><trkpt lat="44.6906773" lon="9.8420712"><ele>634.5</ele><time>2026-03-28T13:56:22.666Z</time></trkpt><trkpt lat="44.6906275" lon="9.8419043"><ele>636.0</ele><time>2026-03-28T13:56:24.666Z</time></trkpt><trkpt lat="44.69061" lon="9.8418005"><ele>637.5</ele><time>2026-03-28T13:56:25.666Z</time></trkpt><trkpt lat="44.6905916" lon="9.8416953"><ele>639.0</ele><time>2026-03-28T13:56:26.666Z</time></trkpt><trkpt lat="44.6905739" lon="9.8416028"><ele>640.0</ele><time>2026-03-28T13:56:27.666Z</time></trkpt><trkpt lat="44.6905599" lon="9.8415134"><ele>641.0</ele><time>2026-03-28T13:56:28.666Z</time></trkpt><trkpt lat="44.6905504" lon="9.8414092"><ele>642.0</ele><time>2026-03-28T13:56:29.666Z</time></trkpt><trkpt lat="44.6905345" lon="9.8412987"><ele>643.0</ele><time>2026-03-28T13:56:30.667Z</time></trkpt><trkpt lat="44.6905091" lon="9.8411904"><ele>644.0</ele><time>2026-03-28T13:56:31.666Z</time></trkpt><trkpt lat="44.6904714" lon="9.8410953"><ele>645.0</ele><time>2026-03-28T13:56:32.667Z</time></trkpt><trkpt lat="44.6904249" lon="9.8410189"><ele>645.8333333333334</ele><time>2026-03-28T13:56:33.666Z</time></trkpt><trkpt lat="44.6903771" lon="9.84095"><ele>646.6666666666666</ele><time>2026-03-28T13:56:34.665Z</time></trkpt><trkpt lat="44.6903308" lon="9.8408746"><ele>647.5</ele><time>2026-03-28T13:56:35.664Z</time></trkpt><trkpt lat="44.6902772" lon="9.8407899"><ele>648.3333333333333</ele><time>2026-03-28T13:56:36.666Z</time></trkpt><trkpt lat="44.6902183" lon="9.8406993"><ele>649.1666666666666</ele><time>2026-03-28T13:56:37.666Z</time></trkpt><trkpt lat="44.6901639" lon="9.8405935"><ele>650.0</ele><time>2026-03-28T13:56:38.666Z</time></trkpt><trkpt lat="44.6901134" lon="9.8404756"><ele>651.3333333333333</ele><time>2026-03-28T13:56:39.665Z</time></trkpt><trkpt lat="44.690063" lon="9.8403636"><ele>652.6666666666666</ele><time>2026-03-28T13:56:40.666Z</time></trkpt><trkpt lat="44.6900119" lon="9.8402646"><ele>654.0</ele><time>2026-03-28T13:56:41.664Z</time></trkpt><trkpt lat="44.6899696" lon="9.8401767"><ele>655.3333333333334</ele><time>2026-03-28T13:56:42.666Z</time></trkpt><trkpt lat="44.6899403" lon="9.8400935"><ele>656.6666666666667</ele><time>2026-03-28T13:56:43.666Z</time></trkpt><trkpt lat="44.6899222" lon="9.8400063"><ele>658.0</ele><time>2026-03-28T13:56:44.667Z</time></trkpt><trkpt lat="44.6899126" lon="9.8398984"><ele>658.8333333333334</ele><time>2026-03-28T13:56:45.666Z</time></trkpt><trkpt lat="44.6899059" lon="9.8397843"><ele>659.6666666666667</ele><time>2026-03-28T13:56:46.665Z</time></trkpt><trkpt lat="44.6898961" lon="9.8396706"><ele>660.5</ele><time>2026-03-28T13:56:47.666Z</time></trkpt><trkpt lat="44.6898854" lon="9.8395467"><ele>661.3333333333334</ele><time>2026-03-28T13:56:48.666Z</time></trkpt><trkpt lat="44.6898783" lon="9.8394182"><ele>662.1666666666666</ele><time>2026-03-28T13:56:49.671Z</time></trkpt><trkpt lat="44.6898688" lon="9.839299"><ele>663.0</ele><time>2026-03-28T13:56:50.666Z</time></trkpt><trkpt lat="44.6898526" lon="9.8391948"><ele>663.5714285714286</ele><time>2026-03-28T13:56:51.667Z</time></trkpt><trkpt lat="44.6898367" lon="9.8390948"><ele>664.1428571428571</ele><time>2026-03-28T13:56:52.666Z</time></trkpt><trkpt lat="44.6898306" lon="9.8389943"><ele>664.7142857142858</ele><time>2026-03-28T13:56:53.665Z</time></trkpt><trkpt lat="44.6898501" lon="9.8388891"><ele>665.2857142857142</ele><time>2026-03-28T13:56:54.667Z</time></trkpt><trkpt lat="44.6898811" lon="9.8387842"><ele>665.8571428571429</ele><time>2026-03-28T13:56:55.666Z</time></trkpt><trkpt lat="44.6899087" lon="9.8386865"><ele>666.4285714285714</ele><time>2026-03-28T13:56:56.665Z</time></trkpt><trkpt lat="44.6899277" lon="9.8385968"><ele>667.0</ele><time>2026-03-28T13:56:57.666Z</time></trkpt><trkpt lat="44.6899033" lon="9.838455"><ele>668.3333333333334</ele><time>2026-03-28T13:56:59.667Z</time></trkpt><trkpt lat="44.68986" lon="9.8383833"><ele>669.6666666666667</ele><time>2026-03-28T13:57:00.666Z</time></trkpt><trkpt lat="44.6898117" lon="9.8382917"><ele>671.0</ele><time>2026-03-28T13:57:01.665Z</time></trkpt><trkpt lat="44.68977" lon="9.83818"><ele>672.3333333333334</ele><time>2026-03-28T13:57:02.665Z</time></trkpt><trkpt lat="44.6897333" lon="9.8380633"><ele>673.6666666666666</ele><time>2026-03-28T13:57:03.666Z</time></trkpt><trkpt lat="44.6897017" lon="9.8379533"><ele>675.0</ele><time>2026-03-28T13:57:04.665Z</time></trkpt><trkpt lat="44.6896717" lon="9.8378467"><ele>675.0</ele><time>2026-03-28T13:57:05.666Z</time></trkpt><trkpt lat="44.68966" lon="9.8377333"><ele>675.0</ele><time>2026-03-28T13:57:06.665Z</time></trkpt><trkpt lat="44.68967" lon="9.8376083"><ele>675.0</ele><time>2026-03-28T13:57:07.665Z</time></trkpt><trkpt lat="44.68968" lon="9.8374733"><ele>675.0</ele><time>2026-03-28T13:57:08.666Z</time></trkpt><trkpt lat="44.6896867" lon="9.8373383"><ele>675.0</ele><time>2026-03-28T13:57:09.665Z</time></trkpt><trkpt lat="44.6896883" lon="9.8372167"><ele>676.6666666666666</ele><time>2026-03-28T13:57:10.667Z</time></trkpt><trkpt lat="44.6896917" lon="9.8371167"><ele>678.3333333333334</ele><time>2026-03-28T13:57:11.666Z</time></trkpt><trkpt lat="44.68969" lon="9.8369633"><ele>680.0</ele><time>2026-03-28T13:57:13.665Z</time></trkpt><trkpt lat="44.6896817" lon="9.8368733"><ele>681.6666666666667</ele><time>2026-03-28T13:57:15.664Z</time></trkpt><trkpt lat="44.6896567" lon="9.8367517"><ele>683.3333333333334</ele><time>2026-03-28T13:57:49.666Z</time></trkpt><trkpt lat="44.6896383" lon="9.836655"><ele>685.0</ele><time>2026-03-28T13:57:50.666Z</time></trkpt><trkpt lat="44.68963" lon="9.83655"><ele>686.2</ele><time>2026-03-28T13:57:51.666Z</time></trkpt><trkpt lat="44.6896233" lon="9.8364333"><ele>687.4</ele><time>2026-03-28T13:57:52.666Z</time></trkpt><trkpt lat="44.6896117" lon="9.8363"><ele>688.5999999999999</ele><time>2026-03-28T13:57:53.665Z</time></trkpt><trkpt lat="44.6896033" lon="9.836165"><ele>689.8</ele><time>2026-03-28T13:57:54.666Z</time></trkpt><trkpt lat="44.6895983" lon="9.8360267"><ele>691.0</ele><time>2026-03-28T13:57:55.666Z</time></trkpt><trkpt lat="44.6895883" lon="9.8359033"><ele>691.3333333333334</ele><time>2026-03-28T13:57:56.666Z</time></trkpt><trkpt lat="44.6895767" lon="9.8357833"><ele>691.6666666666667</ele><time>2026-03-28T13:57:57.666Z</time></trkpt><trkpt lat="44.6895683" lon="9.835655"><ele>692.0</ele><time>2026-03-28T13:57:58.665Z</time></trkpt><trkpt lat="44.6895583" lon="9.8355183"><ele>692.3333333333334</ele><time>2026-03-28T13:57:59.665Z</time></trkpt><trkpt lat="44.6895417" lon="9.835395"><ele>692.6666666666666</ele><time>2026-03-28T13:58:00.666Z</time></trkpt><trkpt lat="44.689515" lon="9.8352817"><ele>693.0</ele><time>2026-03-28T13:58:01.668Z</time></trkpt><trkpt lat="44.6894867" lon="9.8351833"><ele>693.8333333333334</ele><time>2026-03-28T13:58:02.666Z</time></trkpt><trkpt lat="44.6894633" lon="9.8350983"><ele>694.6666666666666</ele><time>2026-03-28T13:58:03.665Z</time></trkpt><trkpt lat="44.6894117" lon="9.8349267"><ele>695.5</ele><time>2026-03-28T13:58:05.671Z</time></trkpt><trkpt lat="44.68939" lon="9.8348333"><ele>696.3333333333333</ele><time>2026-03-28T13:58:06.666Z</time></trkpt><trkpt lat="44.6893667" lon="9.83472"><ele>697.1666666666666</ele><time>2026-03-28T13:58:07.666Z</time></trkpt><trkpt lat="44.68935" lon="9.83461"><ele>698.0</ele><time>2026-03-28T13:58:08.667Z</time></trkpt><trkpt lat="44.6893167" lon="9.83451"><ele>699.3333333333333</ele><time>2026-03-28T13:58:09.67Z</time></trkpt><trkpt lat="44.6892683" lon="9.83442"><ele>700.6666666666666</ele><time>2026-03-28T13:58:10.666Z</time></trkpt><trkpt lat="44.6892133" lon="9.8343383"><ele>702.0</ele><time>2026-03-28T13:58:11.666Z</time></trkpt><trkpt lat="44.6891583" lon="9.8342467"><ele>703.3333333333334</ele><time>2026-03-28T13:58:12.666Z</time></trkpt><trkpt lat="44.6891033" lon="9.8341567"><ele>704.6666666666667</ele><time>2026-03-28T13:58:13.666Z</time></trkpt><trkpt lat="44.689035" lon="9.83407"><ele>706.0</ele><time>2026-03-28T13:58:14.666Z</time></trkpt><trkpt lat="44.6889733" lon="9.8339967"><ele>707.0</ele><time>2026-03-28T13:58:15.665Z</time></trkpt><trkpt lat="44.6889117" lon="9.8339233"><ele>708.0</ele><time>2026-03-28T13:58:16.666Z</time></trkpt><trkpt lat="44.6888683" lon="9.8338467"><ele>709.0</ele><time>2026-03-28T13:58:17.666Z</time></trkpt><trkpt lat="44.68884" lon="9.8337517"><ele>710.0</ele><time>2026-03-28T13:58:18.665Z</time></trkpt><trkpt lat="44.6888283" lon="9.8336317"><ele>711.0</ele><time>2026-03-28T13:58:19.665Z</time></trkpt><trkpt lat="44.68882" lon="9.8334917"><ele>712.0</ele><time>2026-03-28T13:58:20.666Z</time></trkpt><trkpt lat="44.6888117" lon="9.8333467"><ele>713.0</ele><time>2026-03-28T13:58:21.665Z</time></trkpt><trkpt lat="44.6887967" lon="9.8332"><ele>714.0</ele><time>2026-03-28T13:58:22.667Z</time></trkpt><trkpt lat="44.6887783" lon="9.833055"><ele>715.0</ele><time>2026-03-28T13:58:23.666Z</time></trkpt><trkpt lat="44.68876" lon="9.8329183"><ele>716.0</ele><time>2026-03-28T13:58:24.666Z</time></trkpt><trkpt lat="44.6887533" lon="9.83279"><ele>717.0</ele><time>2026-03-28T13:58:25.665Z</time></trkpt><trkpt lat="44.688745" lon="9.8326667"><ele>718.0</ele><time>2026-03-28T13:58:26.665Z</time></trkpt><trkpt lat="44.6887467" lon="9.8325533"><ele>719.0</ele><time>2026-03-28T13:58:27.665Z</time></trkpt><trkpt lat="44.6887567" lon="9.832445"><ele>720.0</ele><time>2026-03-28T13:58:28.665Z</time></trkpt><trkpt lat="44.688765" lon="9.832345"><ele>721.0</ele><time>2026-03-28T13:58:29.665Z</time></trkpt><trkpt lat="44.688765" lon="9.832245"><ele>722.0</ele><time>2026-03-28T13:58:30.665Z</time></trkpt><trkpt lat="44.6887517" lon="9.83215"><ele>723.0</ele><time>2026-03-28T13:58:31.666Z</time></trkpt><trkpt lat="44.688725" lon="9.8320617"><ele>724.0</ele><time>2026-03-28T13:58:32.667Z</time></trkpt><trkpt lat="44.6886917" lon="9.8319733"><ele>724.0</ele><time>2026-03-28T13:58:33.665Z</time></trkpt><trkpt lat="44.6886583" lon="9.8318683"><ele>724.0</ele><time>2026-03-28T13:58:34.665Z</time></trkpt><trkpt lat="44.6886283" lon="9.8317617"><ele>724.0</ele><time>2026-03-28T13:58:35.666Z</time></trkpt><trkpt lat="44.6886017" lon="9.8316517"><ele>724.0</ele><time>2026-03-28T13:58:36.666Z</time></trkpt><trkpt lat="44.688585" lon="9.8315483"><ele>724.0</ele><time>2026-03-28T13:58:37.666Z</time></trkpt><trkpt lat="44.68858" lon="9.83145"><ele>724.0</ele><time>2026-03-28T13:58:38.667Z</time></trkpt><trkpt lat="44.6885767" lon="9.8313533"><ele>724.6</ele><time>2026-03-28T13:58:39.665Z</time></trkpt><trkpt lat="44.6885717" lon="9.831265"><ele>725.2</ele><time>2026-03-28T13:58:40.666Z</time></trkpt><trkpt lat="44.6885783" lon="9.8311033"><ele>725.8000000000001</ele><time>2026-03-28T13:58:42.666Z</time></trkpt><trkpt lat="44.68862" lon="9.8309317"><ele>726.4000000000001</ele><time>2026-03-28T13:58:44.666Z</time></trkpt><trkpt lat="44.688645" lon="9.8308367"><ele>727.0</ele><time>2026-03-28T13:58:45.665Z</time></trkpt><trkpt lat="44.6886867" lon="9.8306933"><ele>729.0</ele><time>2026-03-28T13:58:47.666Z</time></trkpt><trkpt lat="44.6886917" lon="9.8305733"><ele>731.0</ele><time>2026-03-28T13:58:59.665Z</time></trkpt><trkpt lat="44.688655" lon="9.830405"><ele>733.0</ele><time>2026-03-28T13:59:01.665Z</time></trkpt><trkpt lat="44.6886267" lon="9.8303033"><ele>735.0</ele><time>2026-03-28T13:59:02.665Z</time></trkpt><trkpt lat="44.6886017" lon="9.8301883"><ele>737.0</ele><time>2026-03-28T13:59:03.665Z</time></trkpt><trkpt lat="44.688575" lon="9.8300633"><ele>738.1666666666666</ele><time>2026-03-28T13:59:04.666Z</time></trkpt><trkpt lat="44.68855" lon="9.82994"><ele>739.3333333333333</ele><time>2026-03-28T13:59:05.666Z</time></trkpt><trkpt lat="44.6885267" lon="9.829835"><ele>740.5</ele><time>2026-03-28T13:59:06.665Z</time></trkpt><trkpt lat="44.6885033" lon="9.8297317"><ele>741.6666666666666</ele><time>2026-03-28T13:59:07.665Z</time></trkpt><trkpt lat="44.6884767" lon="9.8296383"><ele>742.8333333333334</ele><time>2026-03-28T13:59:08.667Z</time></trkpt><trkpt lat="44.6884467" lon="9.8295333"><ele>744.0</ele><time>2026-03-28T13:59:09.666Z</time></trkpt><trkpt lat="44.688425" lon="9.8294417"><ele>744.0</ele><time>2026-03-28T13:59:10.666Z</time></trkpt><trkpt lat="44.688405" lon="9.829315"><ele>744.0</ele><time>2026-03-28T13:59:12.666Z</time></trkpt><trkpt lat="44.6883867" lon="9.8292267"><ele>744.0</ele><time>2026-03-28T13:59:14.667Z</time></trkpt><trkpt lat="44.6883483" lon="9.829115"><ele>744.0</ele><time>2026-03-28T13:59:16.666Z</time></trkpt><trkpt lat="44.68828" lon="9.8289917"><ele>744.0</ele><time>2026-03-28T13:59:18.666Z</time></trkpt><trkpt lat="44.6882067" lon="9.82887"><ele>746.0</ele><time>2026-03-28T13:59:20.667Z</time></trkpt><trkpt lat="44.6881567" lon="9.8287833"><ele>748.0</ele><time>2026-03-28T13:59:22.666Z</time></trkpt><trkpt lat="44.68822" lon="9.82888"><ele>750.0</ele><time>2026-03-28T13:59:59.666Z</time></trkpt><trkpt lat="44.6882917" lon="9.8290017"><ele>752.0</ele><time>2026-03-28T14:00:01.666Z</time></trkpt><trkpt lat="44.688355" lon="9.8291483"><ele>754.0</ele><time>2026-03-28T14:00:03.666Z</time></trkpt><trkpt lat="44.6883867" lon="9.8292617"><ele>754.0</ele><time>2026-03-28T14:00:05.666Z</time></trkpt><trkpt lat="44.6884767" lon="9.82926"><ele>754.0</ele><time>2026-03-28T14:00:09.665Z</time></trkpt><trkpt lat="44.6885433" lon="9.8291433"><ele>754.0</ele><time>2026-03-28T14:00:21.665Z</time></trkpt><trkpt lat="44.68859" lon="9.8289717"><ele>754.0</ele><time>2026-03-28T14:00:23.666Z</time></trkpt><trkpt lat="44.68861" lon="9.8288533"><ele>754.0</ele><time>2026-03-28T14:00:24.666Z</time></trkpt><trkpt lat="44.68862" lon="9.8287267"><ele>754.8333333333334</ele><time>2026-03-28T14:00:25.665Z</time></trkpt><trkpt lat="44.6886267" lon="9.8286067"><ele>755.6666666666667</ele><time>2026-03-28T14:00:26.666Z</time></trkpt><trkpt lat="44.688635" lon="9.82849"><ele>756.5</ele><time>2026-03-28T14:00:27.665Z</time></trkpt><trkpt lat="44.688645" lon="9.8283667"><ele>757.3333333333334</ele><time>2026-03-28T14:00:28.666Z</time></trkpt><trkpt lat="44.688655" lon="9.8282367"><ele>758.1666666666666</ele><time>2026-03-28T14:00:29.667Z</time></trkpt><trkpt lat="44.6886683" lon="9.82811"><ele>759.0</ele><time>2026-03-28T14:00:30.666Z</time></trkpt><trkpt lat="44.6886783" lon="9.8279967"><ele>760.3333333333334</ele><time>2026-03-28T14:00:31.666Z</time></trkpt><trkpt lat="44.6886733" lon="9.8278983"><ele>761.6666666666666</ele><time>2026-03-28T14:00:32.667Z</time></trkpt><trkpt lat="44.6886567" lon="9.8277983"><ele>763.0</ele><time>2026-03-28T14:00:33.666Z</time></trkpt><trkpt lat="44.6886417" lon="9.8276817"><ele>764.3333333333333</ele><time>2026-03-28T14:00:34.666Z</time></trkpt><trkpt lat="44.6886267" lon="9.82756"><ele>765.6666666666666</ele><time>2026-03-28T14:00:35.665Z</time></trkpt><trkpt lat="44.6886067" lon="9.8274467"><ele>767.0</ele><time>2026-03-28T14:00:36.666Z</time></trkpt><trkpt lat="44.6885867" lon="9.8273417"><ele>767.0</ele><time>2026-03-28T14:00:37.667Z</time></trkpt><trkpt lat="44.6885767" lon="9.82724"><ele>767.0</ele><time>2026-03-28T14:00:38.668Z</time></trkpt><trkpt lat="44.688565" lon="9.8271467"><ele>767.0</ele><time>2026-03-28T14:00:39.666Z</time></trkpt><trkpt lat="44.6885433" lon="9.8270317"><ele>767.0</ele><time>2026-03-28T14:00:41.666Z</time></trkpt><trkpt lat="44.68853" lon="9.8269067"><ele>767.0</ele><time>2026-03-28T14:00:45.666Z</time></trkpt><trkpt lat="44.6885133" lon="9.826815"><ele>767.0</ele><time>2026-03-28T14:00:47.667Z</time></trkpt><trkpt lat="44.6884967" lon="9.8267033"><ele>767.5</ele><time>2026-03-28T14:00:49.666Z</time></trkpt><trkpt lat="44.6884733" lon="9.8265567"><ele>768.0</ele><time>2026-03-28T14:00:51.666Z</time></trkpt><trkpt lat="44.68844" lon="9.82644"><ele>768.5</ele><time>2026-03-28T14:00:53.667Z</time></trkpt><trkpt lat="44.6884017" lon="9.8263583"><ele>769.0</ele><time>2026-03-28T14:00:56.665Z</time></trkpt><trkpt lat="44.6883783" lon="9.8262717"><ele>769.5000000000001</ele><time>2026-03-28T14:00:59.665Z</time></trkpt><trkpt lat="44.68835" lon="9.82615"><ele>770.0</ele><time>2026-03-28T14:01:02.666Z</time></trkpt><trkpt lat="44.68833" lon="9.8259917"><ele>770.6</ele><time>2026-03-28T14:01:04.667Z</time></trkpt><trkpt lat="44.688315" lon="9.82585"><ele>771.2</ele><time>2026-03-28T14:01:06.666Z</time></trkpt><trkpt lat="44.688265" lon="9.8257167"><ele>771.8</ele><time>2026-03-28T14:01:08.667Z</time></trkpt><trkpt lat="44.688205" lon="9.82557"><ele>772.4</ele><time>2026-03-28T14:01:10.665Z</time></trkpt><trkpt lat="44.688165" lon="9.8254767"><ele>773.0</ele><time>2026-03-28T14:01:11.665Z</time></trkpt><trkpt lat="44.68811" lon="9.82538"><ele>773.0</ele><time>2026-03-28T14:01:12.665Z</time></trkpt><trkpt lat="44.6880633" lon="9.8252983"><ele>773.0</ele><time>2026-03-28T14:01:13.666Z</time></trkpt><trkpt lat="44.6880133" lon="9.825175"><ele>773.0</ele><time>2026-03-28T14:01:15.666Z</time></trkpt><trkpt lat="44.68803" lon="9.825015"><ele>773.0</ele><time>2026-03-28T14:01:17.666Z</time></trkpt><trkpt lat="44.68805" lon="9.8248783"><ele>773.0</ele><time>2026-03-28T14:01:19.665Z</time></trkpt><trkpt lat="44.6881" lon="9.82479"><ele>773.5000000000001</ele><time>2026-03-28T14:01:22.665Z</time></trkpt><trkpt lat="44.688125" lon="9.8247033"><ele>774.0</ele><time>2026-03-28T14:01:26.666Z</time></trkpt><trkpt lat="44.6881" lon="9.8245783"><ele>774.5</ele><time>2026-03-28T14:01:29.667Z</time></trkpt><trkpt lat="44.6880833" lon="9.8244317"><ele>775.0</ele><time>2026-03-28T14:01:31.666Z</time></trkpt><trkpt lat="44.688075" lon="9.8243383"><ele>775.5000000000001</ele><time>2026-03-28T14:01:32.666Z</time></trkpt><trkpt lat="44.6880633" lon="9.8242483"><ele>776.0</ele><time>2026-03-28T14:01:33.665Z</time></trkpt><trkpt lat="44.6880383" lon="9.8241633"><ele>776.1999999999999</ele><time>2026-03-28T14:01:34.665Z</time></trkpt><trkpt lat="44.687985" lon="9.82403"><ele>776.4</ele><time>2026-03-28T14:01:36.666Z</time></trkpt><trkpt lat="44.68788" lon="9.8239717"><ele>776.6</ele><time>2026-03-28T14:01:38.666Z</time></trkpt><trkpt lat="44.6877517" lon="9.8239583"><ele>776.8</ele><time>2026-03-28T14:01:40.667Z</time></trkpt><trkpt lat="44.6876867" lon="9.823955"><ele>777.0</ele><time>2026-03-28T14:01:41.665Z</time></trkpt><trkpt lat="44.6875633" lon="9.8239183"><ele>777.1428571428571</ele><time>2026-03-28T14:01:43.665Z</time></trkpt><trkpt lat="44.6875" lon="9.8238717"><ele>777.2857142857142</ele><time>2026-03-28T14:01:44.666Z</time></trkpt><trkpt lat="44.687435" lon="9.823815"><ele>777.4285714285714</ele><time>2026-03-28T14:01:45.667Z</time></trkpt><trkpt lat="44.687375" lon="9.8237517"><ele>777.5714285714286</ele><time>2026-03-28T14:01:46.666Z</time></trkpt><trkpt lat="44.6873183" lon="9.8236817"><ele>777.7142857142857</ele><time>2026-03-28T14:01:47.665Z</time></trkpt><trkpt lat="44.6872733" lon="9.823615"><ele>777.8571428571429</ele><time>2026-03-28T14:01:48.666Z</time></trkpt><trkpt lat="44.687235" lon="9.8235417"><ele>778.0</ele><time>2026-03-28T14:01:49.669Z</time></trkpt><trkpt lat="44.687195" lon="9.8233417"><ele>777.4999999999999</ele><time>2026-03-28T14:01:51.665Z</time></trkpt><trkpt lat="44.6871833" lon="9.8232117"><ele>777.0</ele><time>2026-03-28T14:01:52.666Z</time></trkpt><trkpt lat="44.6871733" lon="9.8230817"><ele>776.5</ele><time>2026-03-28T14:01:53.666Z</time></trkpt><trkpt lat="44.687165" lon="9.822955"><ele>776.0</ele><time>2026-03-28T14:01:54.667Z</time></trkpt><trkpt lat="44.6871633" lon="9.82283"><ele>775.4999999999999</ele><time>2026-03-28T14:01:55.666Z</time></trkpt><trkpt lat="44.6871717" lon="9.8227133"><ele>775.0</ele><time>2026-03-28T14:01:56.665Z</time></trkpt><trkpt lat="44.68717" lon="9.8226067"><ele>774.3333333333333</ele><time>2026-03-28T14:01:57.666Z</time></trkpt><trkpt lat="44.6871517" lon="9.8224633"><ele>773.6666666666666</ele><time>2026-03-28T14:01:59.667Z</time></trkpt><trkpt lat="44.6871083" lon="9.8223867"><ele>773.0</ele><time>2026-03-28T14:02:23.666Z</time></trkpt><trkpt lat="44.68705" lon="9.822255"><ele>772.3333333333333</ele><time>2026-03-28T14:02:25.666Z</time></trkpt><trkpt lat="44.6870267" lon="9.8221633"><ele>771.6666666666666</ele><time>2026-03-28T14:02:26.667Z</time></trkpt><trkpt lat="44.6870083" lon="9.8220767"><ele>771.0</ele><time>2026-03-28T14:02:27.665Z</time></trkpt><trkpt lat="44.6869617" lon="9.8219533"><ele>771.3333333333334</ele><time>2026-03-28T14:02:29.668Z</time></trkpt><trkpt lat="44.6869083" lon="9.821865"><ele>771.6666666666667</ele><time>2026-03-28T14:02:31.666Z</time></trkpt><trkpt lat="44.68687" lon="9.82175"><ele>772.0</ele><time>2026-03-28T14:02:33.668Z</time></trkpt><trkpt lat="44.6868417" lon="9.8216583"><ele>772.3333333333334</ele><time>2026-03-28T14:02:35.665Z</time></trkpt><trkpt lat="44.68682" lon="9.82157"><ele>772.6666666666667</ele><time>2026-03-28T14:02:37.666Z</time></trkpt><trkpt lat="44.68676" lon="9.8214483"><ele>773.0</ele><time>2026-03-28T14:02:39.665Z</time></trkpt><trkpt lat="44.6867133" lon="9.82136"><ele>773.0</ele><time>2026-03-28T14:02:40.665Z</time></trkpt><trkpt lat="44.6866467" lon="9.82126"><ele>773.0</ele><time>2026-03-28T14:02:41.666Z</time></trkpt><trkpt lat="44.6865567" lon="9.8211417"><ele>773.0</ele><time>2026-03-28T14:02:42.666Z</time></trkpt><trkpt lat="44.6864533" lon="9.8210167"><ele>773.0</ele><time>2026-03-28T14:02:43.666Z</time></trkpt><trkpt lat="44.6863683" lon="9.8209033"><ele>773.6666666666667</ele><time>2026-03-28T14:02:44.667Z</time></trkpt><trkpt lat="44.6863067" lon="9.8208183"><ele>774.3333333333334</ele><time>2026-03-28T14:02:45.666Z</time></trkpt><trkpt lat="44.6862417" lon="9.8207417"><ele>775.0</ele><time>2026-03-28T14:02:46.666Z</time></trkpt><trkpt lat="44.6861683" lon="9.820675"><ele>775.6666666666667</ele><time>2026-03-28T14:02:47.668Z</time></trkpt><trkpt lat="44.686105" lon="9.820605"><ele>776.3333333333334</ele><time>2026-03-28T14:02:48.666Z</time></trkpt><trkpt lat="44.6860583" lon="9.8205383"><ele>777.0</ele><time>2026-03-28T14:02:49.666Z</time></trkpt><trkpt lat="44.6860183" lon="9.82045"><ele>777.0</ele><time>2026-03-28T14:02:50.668Z</time></trkpt><trkpt lat="44.68599" lon="9.8203483"><ele>777.0</ele><time>2026-03-28T14:02:51.668Z</time></trkpt><trkpt lat="44.685965" lon="9.820245"><ele>777.0</ele><time>2026-03-28T14:02:52.667Z</time></trkpt><trkpt lat="44.6859483" lon="9.8201417"><ele>777.0</ele><time>2026-03-28T14:02:53.668Z</time></trkpt><trkpt lat="44.6859383" lon="9.8200333"><ele>777.0</ele><time>2026-03-28T14:02:54.666Z</time></trkpt><trkpt lat="44.68594" lon="9.8199367"><ele>777.0</ele><time>2026-03-28T14:02:55.666Z</time></trkpt><trkpt lat="44.685925" lon="9.8198433"><ele>777.0</ele><time>2026-03-28T14:02:56.667Z</time></trkpt><trkpt lat="44.6859017" lon="9.8197567"><ele>779.0</ele><time>2026-03-28T14:02:57.665Z</time></trkpt><trkpt lat="44.68587" lon="9.8196767"><ele>781.0</ele><time>2026-03-28T14:02:58.667Z</time></trkpt><trkpt lat="44.68583" lon="9.8196"><ele>783.0</ele><time>2026-03-28T14:02:59.667Z</time></trkpt><trkpt lat="44.6857783" lon="9.8195183"><ele>785.0</ele><time>2026-03-28T14:03:00.666Z</time></trkpt><trkpt lat="44.68572" lon="9.81944"><ele>787.0</ele><time>2026-03-28T14:03:01.666Z</time></trkpt><trkpt lat="44.685665" lon="9.8193567"><ele>789.0</ele><time>2026-03-28T14:03:02.667Z</time></trkpt><trkpt lat="44.6856117" lon="9.81926"><ele>790.4000000000001</ele><time>2026-03-28T14:03:03.666Z</time></trkpt><trkpt lat="44.6855633" lon="9.81915"><ele>791.8</ele><time>2026-03-28T14:03:04.666Z</time></trkpt><trkpt lat="44.6855233" lon="9.8190317"><ele>793.2</ele><time>2026-03-28T14:03:05.666Z</time></trkpt><trkpt lat="44.685485" lon="9.818915"><ele>794.5999999999999</ele><time>2026-03-28T14:03:06.666Z</time></trkpt><trkpt lat="44.6854317" lon="9.8188133"><ele>796.0</ele><time>2026-03-28T14:03:07.667Z</time></trkpt><trkpt lat="44.6853717" lon="9.8187067"><ele>795.9999999999999</ele><time>2026-03-28T14:03:08.666Z</time></trkpt><trkpt lat="44.685315" lon="9.8186117"><ele>796.0</ele><time>2026-03-28T14:03:09.666Z</time></trkpt><trkpt lat="44.6852733" lon="9.8185233"><ele>796.0</ele><time>2026-03-28T14:03:10.667Z</time></trkpt><trkpt lat="44.685235" lon="9.8184433"><ele>796.0</ele><time>2026-03-28T14:03:11.666Z</time></trkpt><trkpt lat="44.6851867" lon="9.8183583"><ele>795.9999999999999</ele><time>2026-03-28T14:03:12.666Z</time></trkpt><trkpt lat="44.6851283" lon="9.8182733"><ele>796.0</ele><time>2026-03-28T14:03:13.666Z</time></trkpt><trkpt lat="44.685055" lon="9.81819"><ele>797.4</ele><time>2026-03-28T14:03:14.665Z</time></trkpt><trkpt lat="44.684975" lon="9.81811"><ele>798.8</ele><time>2026-03-28T14:03:15.666Z</time></trkpt><trkpt lat="44.6849117" lon="9.81802"><ele>800.1999999999999</ele><time>2026-03-28T14:03:16.666Z</time></trkpt><trkpt lat="44.684845" lon="9.81791"><ele>801.5999999999999</ele><time>2026-03-28T14:03:17.667Z</time></trkpt><trkpt lat="44.6847867" lon="9.8178017"><ele>803.0</ele><time>2026-03-28T14:03:18.666Z</time></trkpt><trkpt lat="44.6847233" lon="9.8177067"><ele>804.0</ele><time>2026-03-28T14:03:19.665Z</time></trkpt><trkpt lat="44.684665" lon="9.8176167"><ele>805.0</ele><time>2026-03-28T14:03:20.668Z</time></trkpt><trkpt lat="44.684615" lon="9.8175383"><ele>806.0</ele><time>2026-03-28T14:03:21.667Z</time></trkpt><trkpt lat="44.68457" lon="9.817445"><ele>807.0</ele><time>2026-03-28T14:03:22.666Z</time></trkpt><trkpt lat="44.6844933" lon="9.8172983"><ele>808.0</ele><time>2026-03-28T14:03:24.666Z</time></trkpt><trkpt lat="44.68439" lon="9.817195"><ele>808.2857142857142</ele><time>2026-03-28T14:03:26.669Z</time></trkpt><trkpt lat="44.6843317" lon="9.8171333"><ele>808.5714285714286</ele><time>2026-03-28T14:03:27.667Z</time></trkpt><trkpt lat="44.68427" lon="9.817075"><ele>808.8571428571429</ele><time>2026-03-28T14:03:28.665Z</time></trkpt><trkpt lat="44.6842033" lon="9.8170183"><ele>809.1428571428571</ele><time>2026-03-28T14:03:29.667Z</time></trkpt><trkpt lat="44.684145" lon="9.8169733"><ele>809.4285714285714</ele><time>2026-03-28T14:03:30.666Z</time></trkpt><trkpt lat="44.684085" lon="9.816935"><ele>809.7142857142857</ele><time>2026-03-28T14:03:31.665Z</time></trkpt><trkpt lat="44.6840217" lon="9.816895"><ele>810.0</ele><time>2026-03-28T14:03:32.666Z</time></trkpt><trkpt lat="44.6839633" lon="9.8168617"><ele>809.9999999999999</ele><time>2026-03-28T14:03:33.666Z</time></trkpt><trkpt lat="44.6839033" lon="9.816825"><ele>810.0</ele><time>2026-03-28T14:03:34.668Z</time></trkpt><trkpt lat="44.683845" lon="9.8167767"><ele>810.0</ele><time>2026-03-28T14:03:35.666Z</time></trkpt><trkpt lat="44.6837783" lon="9.81671"><ele>810.0</ele><time>2026-03-28T14:03:36.666Z</time></trkpt><trkpt lat="44.6837167" lon="9.816645"><ele>810.0</ele><time>2026-03-28T14:03:37.666Z</time></trkpt><trkpt lat="44.6836568" lon="9.8165775"><ele>809.9999999999999</ele><time>2026-03-28T14:03:38.667Z</time></trkpt><trkpt lat="44.683602" lon="9.8165242"><ele>810.0</ele><time>2026-03-28T14:03:39.666Z</time></trkpt><trkpt lat="44.6835114" lon="9.816429"><ele>812.0</ele><time>2026-03-28T14:03:41.666Z</time></trkpt><trkpt lat="44.6834468" lon="9.8162966"><ele>814.0</ele><time>2026-03-28T14:03:43.666Z</time></trkpt><trkpt lat="44.6834108" lon="9.8162123"><ele>816.0</ele><time>2026-03-28T14:03:44.668Z</time></trkpt><trkpt lat="44.6833688" lon="9.8161248"><ele>818.0</ele><time>2026-03-28T14:03:45.666Z</time></trkpt><trkpt lat="44.6833096" lon="9.8160397"><ele>820.0</ele><time>2026-03-28T14:03:46.665Z</time></trkpt><trkpt lat="44.6832411" lon="9.8159547"><ele>822.0</ele><time>2026-03-28T14:03:47.667Z</time></trkpt><trkpt lat="44.6831691" lon="9.8158668"><ele>822.8333333333334</ele><time>2026-03-28T14:03:48.667Z</time></trkpt><trkpt lat="44.6830927" lon="9.8157743"><ele>823.6666666666667</ele><time>2026-03-28T14:03:49.666Z</time></trkpt><trkpt lat="44.6830259" lon="9.8156858"><ele>824.5</ele><time>2026-03-28T14:03:50.667Z</time></trkpt><trkpt lat="44.6829692" lon="9.8156004"><ele>825.3333333333334</ele><time>2026-03-28T14:03:51.666Z</time></trkpt><trkpt lat="44.6829151" lon="9.8155178"><ele>826.1666666666667</ele><time>2026-03-28T14:03:52.665Z</time></trkpt><trkpt lat="44.6828568" lon="9.815432"><ele>827.0</ele><time>2026-03-28T14:03:53.666Z</time></trkpt><trkpt lat="44.6828001" lon="9.8153434"><ele>828.0</ele><time>2026-03-28T14:03:54.665Z</time></trkpt><trkpt lat="44.6827365" lon="9.8152525"><ele>829.0</ele><time>2026-03-28T14:03:55.666Z</time></trkpt><trkpt lat="44.682674" lon="9.8151613"><ele>830.0</ele><time>2026-03-28T14:03:56.667Z</time></trkpt><trkpt lat="44.6826064" lon="9.8150724"><ele>831.0</ele><time>2026-03-28T14:03:57.667Z</time></trkpt><trkpt lat="44.6825344" lon="9.8149876"><ele>832.0</ele><time>2026-03-28T14:03:58.667Z</time></trkpt><trkpt lat="44.6824654" lon="9.8149086"><ele>831.9999999999999</ele><time>2026-03-28T14:03:59.667Z</time></trkpt><trkpt lat="44.6824066" lon="9.8148335"><ele>832.0</ele><time>2026-03-28T14:04:00.667Z</time></trkpt><trkpt lat="44.6823488" lon="9.814747"><ele>832.0</ele><time>2026-03-28T14:04:01.667Z</time></trkpt><trkpt lat="44.6822886" lon="9.8146543"><ele>832.0</ele><time>2026-03-28T14:04:02.667Z</time></trkpt><trkpt lat="44.6822355" lon="9.8145637"><ele>831.9999999999999</ele><time>2026-03-28T14:04:03.665Z</time></trkpt><trkpt lat="44.6821881" lon="9.8144819"><ele>832.0</ele><time>2026-03-28T14:04:04.667Z</time></trkpt><trkpt lat="44.6821475" lon="9.8144021"><ele>831.9999999999999</ele><time>2026-03-28T14:04:05.666Z</time></trkpt><trkpt lat="44.6821123" lon="9.8143238"><ele>832.0</ele><time>2026-03-28T14:04:06.666Z</time></trkpt><trkpt lat="44.682043" lon="9.8142245"><ele>832.0</ele><time>2026-03-28T14:04:08.667Z</time></trkpt><trkpt lat="44.6819643" lon="9.814149"><ele>832.0</ele><time>2026-03-28T14:04:11.666Z</time></trkpt><trkpt lat="44.6818732" lon="9.8140432"><ele>831.9999999999999</ele><time>2026-03-28T14:04:13.667Z</time></trkpt><trkpt lat="44.6818275" lon="9.8139779"><ele>832.0</ele><time>2026-03-28T14:04:14.668Z</time></trkpt><trkpt lat="44.6817859" lon="9.8139086"><ele>831.2</ele><time>2026-03-28T14:04:15.667Z</time></trkpt><trkpt lat="44.6817412" lon="9.813838"><ele>830.4000000000001</ele><time>2026-03-28T14:04:16.666Z</time></trkpt><trkpt lat="44.6816433" lon="9.8137347"><ele>829.5999999999999</ele><time>2026-03-28T14:04:18.667Z</time></trkpt><trkpt lat="44.6815424" lon="9.8136578"><ele>828.8</ele><time>2026-03-28T14:04:20.666Z</time></trkpt><trkpt lat="44.6814317" lon="9.8135667"><ele>828.0</ele><time>2026-03-28T14:04:22.667Z</time></trkpt><trkpt lat="44.6813683" lon="9.8135167"><ele>828.1666666666666</ele><time>2026-03-28T14:04:23.665Z</time></trkpt><trkpt lat="44.6812967" lon="9.8134617"><ele>828.3333333333333</ele><time>2026-03-28T14:04:24.665Z</time></trkpt><trkpt lat="44.681235" lon="9.81339"><ele>828.5</ele><time>2026-03-28T14:04:25.665Z</time></trkpt><trkpt lat="44.6811767" lon="9.8133183"><ele>828.6666666666666</ele><time>2026-03-28T14:04:26.666Z</time></trkpt><trkpt lat="44.6811117" lon="9.813245"><ele>828.8333333333333</ele><time>2026-03-28T14:04:27.666Z</time></trkpt><trkpt lat="44.68105" lon="9.813175"><ele>829.0</ele><time>2026-03-28T14:04:28.667Z</time></trkpt><trkpt lat="44.6809783" lon="9.8131167"><ele>828.9999999999999</ele><time>2026-03-28T14:04:29.666Z</time></trkpt><trkpt lat="44.6809083" lon="9.8130567"><ele>829.0</ele><time>2026-03-28T14:04:30.666Z</time></trkpt><trkpt lat="44.680835" lon="9.8129967"><ele>829.0</ele><time>2026-03-28T14:04:31.665Z</time></trkpt><trkpt lat="44.6807683" lon="9.812935"><ele>829.0</ele><time>2026-03-28T14:04:32.667Z</time></trkpt><trkpt lat="44.6807117" lon="9.8128617"><ele>828.9999999999999</ele><time>2026-03-28T14:04:33.665Z</time></trkpt><trkpt lat="44.68066" lon="9.812785"><ele>829.0</ele><time>2026-03-28T14:04:34.668Z</time></trkpt><trkpt lat="44.6806083" lon="9.8127183"><ele>828.9999999999999</ele><time>2026-03-28T14:04:35.667Z</time></trkpt><trkpt lat="44.6805433" lon="9.8126567"><ele>829.0</ele><time>2026-03-28T14:04:36.665Z</time></trkpt><trkpt lat="44.6804667" lon="9.8125867"><ele>829.0</ele><time>2026-03-28T14:04:37.666Z</time></trkpt><trkpt lat="44.6803883" lon="9.812515"><ele>829.0</ele><time>2026-03-28T14:04:38.666Z</time></trkpt><trkpt lat="44.6803233" lon="9.8124417"><ele>828.9999999999999</ele><time>2026-03-28T14:04:39.665Z</time></trkpt><trkpt lat="44.6802733" lon="9.8123783"><ele>829.0</ele><time>2026-03-28T14:04:40.665Z</time></trkpt><trkpt lat="44.6802067" lon="9.81229"><ele>826.8000000000001</ele><time>2026-03-28T14:04:42.666Z</time></trkpt><trkpt lat="44.680115" lon="9.8121667"><ele>824.6</ele><time>2026-03-28T14:05:11.667Z</time></trkpt><trkpt lat="44.68" lon="9.81207"><ele>822.4</ele><time>2026-03-28T14:05:13.665Z</time></trkpt><trkpt lat="44.6799283" lon="9.8120233"><ele>820.2</ele><time>2026-03-28T14:05:14.667Z</time></trkpt><trkpt lat="44.67984" lon="9.81198"><ele>818.0</ele><time>2026-03-28T14:05:15.666Z</time></trkpt><trkpt lat="44.6797433" lon="9.811945"><ele>818.0000000000001</ele><time>2026-03-28T14:05:16.666Z</time></trkpt><trkpt lat="44.6796483" lon="9.81192"><ele>818.0</ele><time>2026-03-28T14:05:17.666Z</time></trkpt><trkpt lat="44.67957" lon="9.8119017"><ele>818.0</ele><time>2026-03-28T14:05:18.665Z</time></trkpt><trkpt lat="44.6794867" lon="9.811885"><ele>818.0</ele><time>2026-03-28T14:05:19.666Z</time></trkpt><trkpt lat="44.67941" lon="9.8118717"><ele>818.0000000000001</ele><time>2026-03-28T14:05:20.666Z</time></trkpt><trkpt lat="44.6793367" lon="9.81187"><ele>818.0</ele><time>2026-03-28T14:05:21.666Z</time></trkpt><trkpt lat="44.6792733" lon="9.8118783"><ele>818.8</ele><time>2026-03-28T14:05:22.666Z</time></trkpt><trkpt lat="44.6791867" lon="9.8118933"><ele>819.5999999999999</ele><time>2026-03-28T14:05:24.667Z</time></trkpt><trkpt lat="44.679135" lon="9.81183"><ele>820.4000000000001</ele><time>2026-03-28T14:05:27.666Z</time></trkpt><trkpt lat="44.6792083" lon="9.81178"><ele>821.2</ele><time>2026-03-28T14:05:30.666Z</time></trkpt><trkpt lat="44.6793083" lon="9.8117317"><ele>822.0</ele><time>2026-03-28T14:05:32.666Z</time></trkpt><trkpt lat="44.6794183" lon="9.8116617"><ele>824.8333333333334</ele><time>2026-03-28T14:05:34.666Z</time></trkpt><trkpt lat="44.67953" lon="9.8116383"><ele>827.6666666666667</ele><time>2026-03-28T14:05:36.665Z</time></trkpt><trkpt lat="44.67964" lon="9.8116183"><ele>830.5</ele><time>2026-03-28T14:05:38.666Z</time></trkpt><trkpt lat="44.6797067" lon="9.811595"><ele>833.3333333333334</ele><time>2026-03-28T14:05:39.665Z</time></trkpt><trkpt lat="44.6797667" lon="9.81156"><ele>836.1666666666667</ele><time>2026-03-28T14:05:40.666Z</time></trkpt><trkpt lat="44.6798333" lon="9.8115283"><ele>839.0</ele><time>2026-03-28T14:05:41.665Z</time></trkpt><trkpt lat="44.6798967" lon="9.8115"><ele>839.0000000000001</ele><time>2026-03-28T14:05:42.667Z</time></trkpt><trkpt lat="44.68" lon="9.8114867"><ele>839.0</ele><time>2026-03-28T14:05:44.666Z</time></trkpt><trkpt lat="44.68012" lon="9.8114717"><ele>839.0</ele><time>2026-03-28T14:05:46.666Z</time></trkpt><trkpt lat="44.6801917" lon="9.8114683"><ele>839.0</ele><time>2026-03-28T14:05:47.665Z</time></trkpt><trkpt lat="44.6802683" lon="9.811475"><ele>839.0000000000001</ele><time>2026-03-28T14:05:48.667Z</time></trkpt><trkpt lat="44.6803367" lon="9.8114817"><ele>839.0</ele><time>2026-03-28T14:05:49.666Z</time></trkpt><trkpt lat="44.6804417" lon="9.811505"><ele>842.0000000000001</ele><time>2026-03-28T14:05:51.667Z</time></trkpt><trkpt lat="44.6805577" lon="9.8115626"><ele>845.0</ele><time>2026-03-28T14:05:53.667Z</time></trkpt><trkpt lat="44.6806474" lon="9.8115963"><ele>848.0</ele><time>2026-03-28T14:05:55.666Z</time></trkpt><trkpt lat="44.6807089" lon="9.8115645"><ele>851.0</ele><time>2026-03-28T14:05:57.666Z</time></trkpt><trkpt lat="44.6806963" lon="9.8114408"><ele>854.0000000000001</ele><time>2026-03-28T14:05:59.667Z</time></trkpt><trkpt lat="44.6806885" lon="9.8113335"><ele>857.0</ele><time>2026-03-28T14:06:01.667Z</time></trkpt><trkpt lat="44.6807606" lon="9.811331"><ele>857.0000000000001</ele><time>2026-03-28T14:06:04.667Z</time></trkpt><trkpt lat="44.6808409" lon="9.8113583"><ele>857.0</ele><time>2026-03-28T14:06:07.666Z</time></trkpt><trkpt lat="44.6808464" lon="9.8112116"><ele>857.0</ele><time>2026-03-28T14:06:10.665Z</time></trkpt><trkpt lat="44.6808283" lon="9.8110803"><ele>857.0</ele><time>2026-03-28T14:06:12.666Z</time></trkpt><trkpt lat="44.6807798" lon="9.8109809"><ele>857.0000000000001</ele><time>2026-03-28T14:06:14.668Z</time></trkpt><trkpt lat="44.6807649" lon="9.8108702"><ele>857.0</ele><time>2026-03-28T14:06:16.666Z</time></trkpt><trkpt lat="44.6808041" lon="9.8107664"><ele>861.0</ele><time>2026-03-28T14:06:18.667Z</time></trkpt><trkpt lat="44.680839" lon="9.81066"><ele>865.0</ele><time>2026-03-28T14:06:20.668Z</time></trkpt><trkpt lat="44.6808428" lon="9.8105278"><ele>869.0</ele><time>2026-03-28T14:07:06.668Z</time></trkpt><trkpt lat="44.6807934" lon="9.8104286"><ele>873.0</ele><time>2026-03-28T14:07:08.667Z</time></trkpt><trkpt lat="44.6806956" lon="9.8103414"><ele>877.0</ele><time>2026-03-28T14:07:10.667Z</time></trkpt><trkpt lat="44.6806235" lon="9.8102968"><ele>876.9999999999999</ele><time>2026-03-28T14:07:11.667Z</time></trkpt><trkpt lat="44.6805497" lon="9.8102486"><ele>877.0</ele><time>2026-03-28T14:07:12.665Z</time></trkpt><trkpt lat="44.68047" lon="9.8101983"><ele>877.0</ele><time>2026-03-28T14:07:13.667Z</time></trkpt><trkpt lat="44.68039" lon="9.8101517"><ele>877.0</ele><time>2026-03-28T14:07:14.666Z</time></trkpt><trkpt lat="44.6803233" lon="9.8101033"><ele>876.9999999999999</ele><time>2026-03-28T14:07:15.667Z</time></trkpt><trkpt lat="44.6802567" lon="9.810045"><ele>877.0</ele><time>2026-03-28T14:07:16.666Z</time></trkpt><trkpt lat="44.6801867" lon="9.8099767"><ele>878.6666666666666</ele><time>2026-03-28T14:07:17.666Z</time></trkpt><trkpt lat="44.6801183" lon="9.80991"><ele>880.3333333333333</ele><time>2026-03-28T14:07:18.666Z</time></trkpt><trkpt lat="44.6800533" lon="9.8098367"><ele>882.0</ele><time>2026-03-28T14:07:19.665Z</time></trkpt><trkpt lat="44.679995" lon="9.80977"><ele>883.6666666666667</ele><time>2026-03-28T14:07:20.668Z</time></trkpt><trkpt lat="44.67994" lon="9.8097167"><ele>885.3333333333334</ele><time>2026-03-28T14:07:21.668Z</time></trkpt><trkpt lat="44.6798617" lon="9.8095917"><ele>887.0</ele><time>2026-03-28T14:07:23.666Z</time></trkpt><trkpt lat="44.6798217" lon="9.8095233"><ele>887.0</ele><time>2026-03-28T14:07:24.667Z</time></trkpt><trkpt lat="44.6797717" lon="9.80944"><ele>887.0</ele><time>2026-03-28T14:07:25.666Z</time></trkpt><trkpt lat="44.6797133" lon="9.8093383"><ele>887.0</ele><time>2026-03-28T14:07:26.666Z</time></trkpt><trkpt lat="44.67966" lon="9.8092233"><ele>887.0</ele><time>2026-03-28T14:07:27.669Z</time></trkpt><trkpt lat="44.6796067" lon="9.8091133"><ele>887.0</ele><time>2026-03-28T14:07:28.666Z</time></trkpt><trkpt lat="44.6795433" lon="9.8090033"><ele>887.3333333333334</ele><time>2026-03-28T14:07:29.667Z</time></trkpt><trkpt lat="44.679475" lon="9.8089067"><ele>887.6666666666667</ele><time>2026-03-28T14:07:30.665Z</time></trkpt><trkpt lat="44.679415" lon="9.8088033"><ele>888.0</ele><time>2026-03-28T14:07:31.666Z</time></trkpt><trkpt lat="44.67937" lon="9.8086983"><ele>888.3333333333333</ele><time>2026-03-28T14:07:32.667Z</time></trkpt><trkpt lat="44.679335" lon="9.808615"><ele>888.6666666666666</ele><time>2026-03-28T14:07:33.665Z</time></trkpt><trkpt lat="44.6793033" lon="9.8085317"><ele>889.0</ele><time>2026-03-28T14:07:34.666Z</time></trkpt><trkpt lat="44.6792867" lon="9.8084433"><ele>893.4000000000001</ele><time>2026-03-28T14:07:35.664Z</time></trkpt><trkpt lat="44.67929" lon="9.8083067"><ele>897.8000000000001</ele><time>2026-03-28T14:07:37.664Z</time></trkpt><trkpt lat="44.6793217" lon="9.8081867"><ele>902.1999999999999</ele><time>2026-03-28T14:07:39.664Z</time></trkpt><trkpt lat="44.6793333" lon="9.808065"><ele>906.5999999999999</ele><time>2026-03-28T14:07:41.665Z</time></trkpt><trkpt lat="44.679325" lon="9.8079217"><ele>911.0</ele><time>2026-03-28T14:07:43.665Z</time></trkpt><trkpt lat="44.6793117" lon="9.8078033"><ele>914.0</ele><time>2026-03-28T14:07:45.665Z</time></trkpt><trkpt lat="44.6792917" lon="9.8076367"><ele>916.9999999999999</ele><time>2026-03-28T14:07:56.665Z</time></trkpt><trkpt lat="44.6792717" lon="9.8075133"><ele>919.9999999999999</ele><time>2026-03-28T14:07:58.665Z</time></trkpt><trkpt lat="44.6792583" lon="9.8073867"><ele>923.0</ele><time>2026-03-28T14:08:00.665Z</time></trkpt><trkpt lat="44.6792533" lon="9.8072767"><ele>926.0</ele><time>2026-03-28T14:08:02.664Z</time></trkpt><trkpt lat="44.6792567" lon="9.8071433"><ele>926.0</ele><time>2026-03-28T14:08:04.666Z</time></trkpt><trkpt lat="44.679285" lon="9.8069783"><ele>925.9999999999999</ele><time>2026-03-28T14:08:06.665Z</time></trkpt><trkpt lat="44.6793333" lon="9.8068167"><ele>925.9999999999999</ele><time>2026-03-28T14:08:08.666Z</time></trkpt><trkpt lat="44.6793767" lon="9.806745"><ele>926.0</ele><time>2026-03-28T14:08:09.665Z</time></trkpt><trkpt lat="44.6794483" lon="9.80662"><ele>926.0</ele><time>2026-03-28T14:08:11.665Z</time></trkpt><trkpt lat="44.679515" lon="9.8065033"><ele>921.8</ele><time>2026-03-28T14:08:13.666Z</time></trkpt><trkpt lat="44.6795417" lon="9.8063783"><ele>917.5999999999999</ele><time>2026-03-28T14:08:15.666Z</time></trkpt><trkpt lat="44.67956" lon="9.8062733"><ele>913.4</ele><time>2026-03-28T14:08:17.665Z</time></trkpt><trkpt lat="44.6796083" lon="9.80615"><ele>909.2</ele><time>2026-03-28T14:08:19.668Z</time></trkpt><trkpt lat="44.679645" lon="9.8060133"><ele>905.0</ele><time>2026-03-28T14:08:21.666Z</time></trkpt><trkpt lat="44.6796683" lon="9.8058817"><ele>905.0</ele><time>2026-03-28T14:08:23.666Z</time></trkpt><trkpt lat="44.6796667" lon="9.805765"><ele>905.0</ele><time>2026-03-28T14:08:25.666Z</time></trkpt><trkpt lat="44.67966" lon="9.8056467"><ele>905.0</ele><time>2026-03-28T14:08:27.666Z</time></trkpt><trkpt lat="44.679635" lon="9.8055433"><ele>905.0</ele><time>2026-03-28T14:08:29.666Z</time></trkpt><trkpt lat="44.6796217" lon="9.805335"><ele>905.0</ele><time>2026-03-28T14:08:52.666Z</time></trkpt><trkpt lat="44.6796133" lon="9.8052133"><ele>906.8333333333334</ele><time>2026-03-28T14:08:56.666Z</time></trkpt><trkpt lat="44.6795783" lon="9.805115"><ele>908.6666666666667</ele><time>2026-03-28T14:08:59.666Z</time></trkpt><trkpt lat="44.6795683" lon="9.80501"><ele>910.5</ele><time>2026-03-28T14:09:03.666Z</time></trkpt><trkpt lat="44.6795767" lon="9.8049183"><ele>912.3333333333333</ele><time>2026-03-28T14:09:06.666Z</time></trkpt><trkpt lat="44.6796383" lon="9.8048417"><ele>914.1666666666666</ele><time>2026-03-28T14:10:07.667Z</time></trkpt><trkpt lat="44.6796817" lon="9.8049433"><ele>916.0</ele><time>2026-03-28T14:10:10.666Z</time></trkpt><trkpt lat="44.6796933" lon="9.8050417"><ele>915.9999999999999</ele><time>2026-03-28T14:10:13.665Z</time></trkpt><trkpt lat="44.6797017" lon="9.8051433"><ele>916.0</ele><time>2026-03-28T14:10:17.666Z</time></trkpt><trkpt lat="44.6797083" lon="9.805235"><ele>916.0</ele><time>2026-03-28T14:10:20.666Z</time></trkpt><trkpt lat="44.6797033" lon="9.805335"><ele>916.0</ele><time>2026-03-28T14:10:23.665Z</time></trkpt><trkpt lat="44.6797133" lon="9.80545"><ele>915.9999999999999</ele><time>2026-03-28T14:10:27.666Z</time></trkpt><trkpt lat="44.6797733" lon="9.8056333"><ele>916.0</ele><time>2026-03-28T14:10:55.664Z</time></trkpt><trkpt lat="44.6797867" lon="9.8057417"><ele>913.8</ele><time>2026-03-28T14:10:58.664Z</time></trkpt><trkpt lat="44.6797933" lon="9.80587"><ele>911.5999999999999</ele><time>2026-03-28T14:11:01.666Z</time></trkpt><trkpt lat="44.6797533" lon="9.8060033"><ele>909.4</ele><time>2026-03-28T14:11:03.664Z</time></trkpt><trkpt lat="44.6797033" lon="9.8061333"><ele>907.2</ele><time>2026-03-28T14:11:05.664Z</time></trkpt><trkpt lat="44.679675" lon="9.80625"><ele>905.0</ele><time>2026-03-28T14:11:07.666Z</time></trkpt><trkpt lat="44.679655" lon="9.8063617"><ele>905.0</ele><time>2026-03-28T14:11:09.666Z</time></trkpt><trkpt lat="44.6796133" lon="9.80648"><ele>905.0</ele><time>2026-03-28T14:11:11.669Z</time></trkpt><trkpt lat="44.6795383" lon="9.8066017"><ele>905.0</ele><time>2026-03-28T14:11:13.666Z</time></trkpt><trkpt lat="44.679465" lon="9.8067333"><ele>905.0</ele><time>2026-03-28T14:11:15.665Z</time></trkpt><trkpt lat="44.679415" lon="9.8068717"><ele>905.0</ele><time>2026-03-28T14:11:17.666Z</time></trkpt><trkpt lat="44.67937" lon="9.8070083"><ele>908.5000000000001</ele><time>2026-03-28T14:11:19.664Z</time></trkpt><trkpt lat="44.6793383" lon="9.8071667"><ele>912.0</ele><time>2026-03-28T14:11:21.666Z</time></trkpt><trkpt lat="44.6793367" lon="9.8072667"><ele>915.5</ele><time>2026-03-28T14:11:22.665Z</time></trkpt><trkpt lat="44.6793367" lon="9.8073617"><ele>919.0</ele><time>2026-03-28T14:11:23.666Z</time></trkpt><trkpt lat="44.67935" lon="9.8074583"><ele>922.5000000000001</ele><time>2026-03-28T14:11:24.667Z</time></trkpt><trkpt lat="44.6793583" lon="9.8075483"><ele>926.0</ele><time>2026-03-28T14:11:25.667Z</time></trkpt><trkpt lat="44.6793817" lon="9.807645"><ele>923.5000000000001</ele><time>2026-03-28T14:11:26.667Z</time></trkpt><trkpt lat="44.6794033" lon="9.8078"><ele>921.0</ele><time>2026-03-28T14:11:28.664Z</time></trkpt><trkpt lat="44.6794033" lon="9.8079383"><ele>918.5</ele><time>2026-03-28T14:11:30.666Z</time></trkpt><trkpt lat="44.6793767" lon="9.8080467"><ele>916.0</ele><time>2026-03-28T14:11:32.666Z</time></trkpt><trkpt lat="44.67933" lon="9.8081283"><ele>913.5000000000001</ele><time>2026-03-28T14:11:34.666Z</time></trkpt><trkpt lat="44.6792533" lon="9.8081183"><ele>911.0</ele><time>2026-03-28T14:11:38.665Z</time></trkpt><trkpt lat="44.67921" lon="9.8080483"><ele>911.0</ele><time>2026-03-28T14:11:41.665Z</time></trkpt><trkpt lat="44.6791367" lon="9.8080417"><ele>911.0</ele><time>2026-03-28T14:11:52.666Z</time></trkpt><trkpt lat="44.679085" lon="9.8079883"><ele>911.0</ele><time>2026-03-28T14:11:54.666Z</time></trkpt><trkpt lat="44.67902" lon="9.807925"><ele>911.0</ele><time>2026-03-28T14:11:56.666Z</time></trkpt><trkpt lat="44.6789583" lon="9.8078833"><ele>911.0</ele><time>2026-03-28T14:11:58.666Z</time></trkpt><trkpt lat="44.6789367" lon="9.8077667"><ele>911.0</ele><time>2026-03-28T14:12:01.666Z</time></trkpt><trkpt lat="44.6789183" lon="9.8076633"><ele>911.0</ele><time>2026-03-28T14:12:03.666Z</time></trkpt><trkpt lat="44.6789033" lon="9.8075233"><ele>913.5000000000001</ele><time>2026-03-28T14:12:05.666Z</time></trkpt><trkpt lat="44.6788883" lon="9.8073967"><ele>916.0</ele><time>2026-03-28T14:12:07.665Z</time></trkpt><trkpt lat="44.6788983" lon="9.8073017"><ele>918.5</ele><time>2026-03-28T14:12:09.664Z</time></trkpt><trkpt lat="44.6789183" lon="9.8071833"><ele>921.0</ele><time>2026-03-28T14:12:11.668Z</time></trkpt><trkpt lat="44.678865" lon="9.80713"><ele>923.5000000000001</ele><time>2026-03-28T14:12:15.666Z</time></trkpt><trkpt lat="44.6787967" lon="9.80719"><ele>926.0</ele><time>2026-03-28T14:12:18.665Z</time></trkpt><trkpt lat="44.6787433" lon="9.8072767"><ele>926.0000000000001</ele><time>2026-03-28T14:12:21.665Z</time></trkpt><trkpt lat="44.6787017" lon="9.8073783"><ele>926.0</ele><time>2026-03-28T14:12:24.665Z</time></trkpt><trkpt lat="44.67865" lon="9.8075033"><ele>926.0</ele><time>2026-03-28T14:12:36.666Z</time></trkpt><trkpt lat="44.678615" lon="9.8076067"><ele>926.0</ele><time>2026-03-28T14:12:39.666Z</time></trkpt><trkpt lat="44.6785367" lon="9.807695"><ele>926.0000000000001</ele><time>2026-03-28T14:12:46.665Z</time></trkpt><trkpt lat="44.6784783" lon="9.8076567"><ele>926.0</ele><time>2026-03-28T14:12:49.666Z</time></trkpt><trkpt lat="44.6784" lon="9.8076183"><ele>928.0000000000001</ele><time>2026-03-28T14:14:55.665Z</time></trkpt><trkpt lat="44.678405" lon="9.807495"><ele>930.0</ele><time>2026-03-28T14:14:58.666Z</time></trkpt><trkpt lat="44.6784017" lon="9.8073983"><ele>932.0</ele><time>2026-03-28T14:15:00.666Z</time></trkpt><trkpt lat="44.6784017" lon="9.8072883"><ele>934.0</ele><time>2026-03-28T14:15:03.665Z</time></trkpt><trkpt lat="44.6783533" lon="9.8072017"><ele>936.0000000000001</ele><time>2026-03-28T14:15:07.665Z</time></trkpt><trkpt lat="44.6783417" lon="9.8071083"><ele>938.0</ele><time>2026-03-28T14:15:10.664Z</time></trkpt><trkpt lat="44.6783633" lon="9.8070033"><ele>938.0000000000001</ele><time>2026-03-28T14:15:29.665Z</time></trkpt><trkpt lat="44.67841" lon="9.806925"><ele>938.0</ele><time>2026-03-28T14:15:32.665Z</time></trkpt><trkpt lat="44.678405" lon="9.8068317"><ele>938.0</ele><time>2026-03-28T14:17:17.666Z</time></trkpt><trkpt lat="44.67841" lon="9.8067183"><ele>938.0</ele><time>2026-03-28T14:17:20.667Z</time></trkpt><trkpt lat="44.67842" lon="9.8066283"><ele>938.0000000000001</ele><time>2026-03-28T14:17:22.666Z</time></trkpt><trkpt lat="44.6784167" lon="9.8065067"><ele>938.0</ele><time>2026-03-28T14:17:25.665Z</time></trkpt><trkpt lat="44.6783933" lon="9.80639"><ele>942.2</ele><time>2026-03-28T14:17:28.664Z</time></trkpt><trkpt lat="44.6783217" lon="9.8062433"><ele>946.4</ele><time>2026-03-28T14:18:01.665Z</time></trkpt><trkpt lat="44.6783117" lon="9.8060983"><ele>950.6000000000001</ele><time>2026-03-28T14:24:22.665Z</time></trkpt><trkpt lat="44.6782733" lon="9.806015"><ele>954.8000000000001</ele><time>2026-03-28T14:24:27.665Z</time></trkpt><trkpt lat="44.6782483" lon="9.8059117"><ele>959.0</ele><time>2026-03-28T14:24:31.665Z</time></trkpt><trkpt lat="44.6782083" lon="9.8058283"><ele>963.8000000000001</ele><time>2026-03-28T14:24:34.666Z</time></trkpt><trkpt lat="44.6781483" lon="9.8056517"><ele>968.6000000000001</ele><time>2026-03-28T14:26:15.664Z</time></trkpt><trkpt lat="44.6780933" lon="9.8055767"><ele>973.4</ele><time>2026-03-28T14:26:17.665Z</time></trkpt><trkpt lat="44.6780383" lon="9.805475"><ele>978.2</ele><time>2026-03-28T14:26:19.664Z</time></trkpt><trkpt lat="44.6779833" lon="9.8053667"><ele>983.0</ele><time>2026-03-28T14:26:21.665Z</time></trkpt><trkpt lat="44.6779383" lon="9.8052517"><ele>984.5</ele><time>2026-03-28T14:26:23.667Z</time></trkpt><trkpt lat="44.6778667" lon="9.805105"><ele>986.0</ele><time>2026-03-28T14:26:25.666Z</time></trkpt><trkpt lat="44.67779" lon="9.8049767"><ele>987.5</ele><time>2026-03-28T14:26:27.665Z</time></trkpt><trkpt lat="44.6777267" lon="9.8048533"><ele>989.0</ele><time>2026-03-28T14:26:29.664Z</time></trkpt><trkpt lat="44.6776767" lon="9.804685"><ele>989.0</ele><time>2026-03-28T14:26:31.665Z</time></trkpt><trkpt lat="44.6776483" lon="9.8045883"><ele>988.9999999999999</ele><time>2026-03-28T14:26:32.666Z</time></trkpt><trkpt lat="44.677635" lon="9.8044983"><ele>989.0</ele><time>2026-03-28T14:26:33.666Z</time></trkpt><trkpt lat="44.6776317" lon="9.8044"><ele>989.0</ele><time>2026-03-28T14:26:34.665Z</time></trkpt><trkpt lat="44.67764" lon="9.8042933"><ele>988.9999999999999</ele><time>2026-03-28T14:26:35.666Z</time></trkpt><trkpt lat="44.677645" lon="9.8041867"><ele>989.0</ele><time>2026-03-28T14:26:36.665Z</time></trkpt><trkpt lat="44.677645" lon="9.8040883"><ele>989.0</ele><time>2026-03-28T14:26:37.666Z</time></trkpt><trkpt lat="44.6776333" lon="9.803995"><ele>988.8333333333334</ele><time>2026-03-28T14:26:38.665Z</time></trkpt><trkpt lat="44.677625" lon="9.80384"><ele>988.6666666666667</ele><time>2026-03-28T14:26:40.665Z</time></trkpt><trkpt lat="44.6776367" lon="9.8036867"><ele>988.5</ele><time>2026-03-28T14:26:42.666Z</time></trkpt><trkpt lat="44.6776433" lon="9.8035967"><ele>988.3333333333333</ele><time>2026-03-28T14:26:43.664Z</time></trkpt><trkpt lat="44.677645" lon="9.8034967"><ele>988.1666666666666</ele><time>2026-03-28T14:26:44.666Z</time></trkpt><trkpt lat="44.6776383" lon="9.803395"><ele>988.0</ele><time>2026-03-28T14:26:45.666Z</time></trkpt><trkpt lat="44.6776233" lon="9.8032867"><ele>987.2857142857143</ele><time>2026-03-28T14:26:46.665Z</time></trkpt><trkpt lat="44.6776017" lon="9.8031917"><ele>986.5714285714284</ele><time>2026-03-28T14:26:47.666Z</time></trkpt><trkpt lat="44.6775817" lon="9.803095"><ele>985.8571428571428</ele><time>2026-03-28T14:26:48.665Z</time></trkpt><trkpt lat="44.6775667" lon="9.8029933"><ele>985.1428571428571</ele><time>2026-03-28T14:26:49.665Z</time></trkpt><trkpt lat="44.6775533" lon="9.8029"><ele>984.4285714285713</ele><time>2026-03-28T14:26:50.665Z</time></trkpt><trkpt lat="44.6775283" lon="9.8027983"><ele>983.7142857142856</ele><time>2026-03-28T14:26:51.664Z</time></trkpt><trkpt lat="44.6774983" lon="9.8026917"><ele>982.9999999999999</ele><time>2026-03-28T14:26:52.664Z</time></trkpt><trkpt lat="44.6774617" lon="9.8025817"><ele>982.6666666666667</ele><time>2026-03-28T14:26:53.665Z</time></trkpt><trkpt lat="44.6774317" lon="9.8024683"><ele>982.3333333333334</ele><time>2026-03-28T14:26:54.666Z</time></trkpt><trkpt lat="44.67741" lon="9.8023617"><ele>982.0</ele><time>2026-03-28T14:26:55.665Z</time></trkpt><trkpt lat="44.677395" lon="9.8022583"><ele>981.6666666666667</ele><time>2026-03-28T14:26:56.665Z</time></trkpt><trkpt lat="44.677385" lon="9.8021633"><ele>981.3333333333334</ele><time>2026-03-28T14:26:57.664Z</time></trkpt><trkpt lat="44.6773683" lon="9.8020717"><ele>981.0</ele><time>2026-03-28T14:26:58.664Z</time></trkpt><trkpt lat="44.677315" lon="9.8019217"><ele>981.8</ele><time>2026-03-28T14:27:00.665Z</time></trkpt><trkpt lat="44.67727" lon="9.8017833"><ele>982.5999999999999</ele><time>2026-03-28T14:27:02.666Z</time></trkpt><trkpt lat="44.6772367" lon="9.801665"><ele>983.4</ele><time>2026-03-28T14:27:04.666Z</time></trkpt><trkpt lat="44.6772517" lon="9.80157"><ele>984.2</ele><time>2026-03-28T14:27:07.665Z</time></trkpt><trkpt lat="44.6773583" lon="9.8015733"><ele>985.0</ele><time>2026-03-28T14:27:27.665Z</time></trkpt><trkpt lat="44.6772717" lon="9.801535"><ele>984.9999999999999</ele><time>2026-03-28T14:28:34.664Z</time></trkpt><trkpt lat="44.6772333" lon="9.801435"><ele>985.0</ele><time>2026-03-28T14:28:36.665Z</time></trkpt><trkpt lat="44.6771967" lon="9.80135"><ele>985.0</ele><time>2026-03-28T14:28:38.666Z</time></trkpt><trkpt lat="44.6771533" lon="9.8012533"><ele>985.0</ele><time>2026-03-28T14:28:41.665Z</time></trkpt><trkpt lat="44.67712" lon="9.8011467"><ele>984.9999999999999</ele><time>2026-03-28T14:28:43.665Z</time></trkpt><trkpt lat="44.6770767" lon="9.8010233"><ele>985.0</ele><time>2026-03-28T14:28:45.665Z</time></trkpt><trkpt lat="44.6770267" lon="9.8008983"><ele>986.6</ele><time>2026-03-28T14:28:47.666Z</time></trkpt><trkpt lat="44.67698" lon="9.8007917"><ele>988.2</ele><time>2026-03-28T14:28:49.665Z</time></trkpt><trkpt lat="44.6769683" lon="9.8006717"><ele>989.8</ele><time>2026-03-28T14:28:51.667Z</time></trkpt><trkpt lat="44.6769983" lon="9.8005183"><ele>991.4</ele><time>2026-03-28T14:28:53.667Z</time></trkpt><trkpt lat="44.677015" lon="9.8003783"><ele>993.0</ele><time>2026-03-28T14:28:55.666Z</time></trkpt><trkpt lat="44.6769767" lon="9.8002283"><ele>995.8333333333334</ele><time>2026-03-28T14:28:57.665Z</time></trkpt><trkpt lat="44.6768983" lon="9.8001433"><ele>998.6666666666667</ele><time>2026-03-28T14:28:59.664Z</time></trkpt><trkpt lat="44.6768233" lon="9.80003"><ele>1001.5</ele><time>2026-03-28T14:29:01.666Z</time></trkpt><trkpt lat="44.676795" lon="9.7999467"><ele>1004.3333333333334</ele><time>2026-03-28T14:29:02.665Z</time></trkpt><trkpt lat="44.6767667" lon="9.799855"><ele>1007.1666666666667</ele><time>2026-03-28T14:29:03.664Z</time></trkpt><trkpt lat="44.67674" lon="9.79976"><ele>1010.0</ele><time>2026-03-28T14:29:04.666Z</time></trkpt><trkpt lat="44.676705" lon="9.7996533"><ele>1010.0000000000001</ele><time>2026-03-28T14:29:05.667Z</time></trkpt><trkpt lat="44.6766717" lon="9.7995483"><ele>1010.0</ele><time>2026-03-28T14:29:06.666Z</time></trkpt><trkpt lat="44.6766367" lon="9.7994483"><ele>1010.0</ele><time>2026-03-28T14:29:07.665Z</time></trkpt><trkpt lat="44.6766" lon="9.7993383"><ele>1010.0</ele><time>2026-03-28T14:29:08.666Z</time></trkpt><trkpt lat="44.676565" lon="9.7992483"><ele>1010.0000000000001</ele><time>2026-03-28T14:29:09.664Z</time></trkpt><trkpt lat="44.67653" lon="9.7990983"><ele>1010.0</ele><time>2026-03-28T14:29:11.664Z</time></trkpt><trkpt lat="44.67653" lon="9.79896"><ele>1011.2857142857142</ele><time>2026-03-28T14:29:13.667Z</time></trkpt><trkpt lat="44.6765267" lon="9.79887"><ele>1012.5714285714284</ele><time>2026-03-28T14:29:14.665Z</time></trkpt><trkpt lat="44.676525" lon="9.7987717"><ele>1013.8571428571429</ele><time>2026-03-28T14:29:15.665Z</time></trkpt><trkpt lat="44.676525" lon="9.7986783"><ele>1015.1428571428571</ele><time>2026-03-28T14:29:16.665Z</time></trkpt><trkpt lat="44.6765217" lon="9.79857"><ele>1016.4285714285714</ele><time>2026-03-28T14:29:17.666Z</time></trkpt><trkpt lat="44.6765233" lon="9.7984633"><ele>1017.7142857142858</ele><time>2026-03-28T14:29:18.666Z</time></trkpt><trkpt lat="44.6765317" lon="9.7983583"><ele>1019.0000000000001</ele><time>2026-03-28T14:29:19.666Z</time></trkpt><trkpt lat="44.67655" lon="9.79826"><ele>1019.6666666666667</ele><time>2026-03-28T14:29:20.666Z</time></trkpt><trkpt lat="44.6765583" lon="9.7981533"><ele>1020.3333333333334</ele><time>2026-03-28T14:29:21.668Z</time></trkpt><trkpt lat="44.676565" lon="9.798055"><ele>1021.0</ele><time>2026-03-28T14:29:22.667Z</time></trkpt><trkpt lat="44.6765817" lon="9.7979083"><ele>1021.6666666666667</ele><time>2026-03-28T14:29:24.666Z</time></trkpt><trkpt lat="44.676545" lon="9.79782"><ele>1022.3333333333334</ele><time>2026-03-28T14:29:26.666Z</time></trkpt><trkpt lat="44.6765067" lon="9.7977433"><ele>1023.0</ele><time>2026-03-28T14:29:28.666Z</time></trkpt><trkpt lat="44.6764767" lon="9.7976517"><ele>1023.5</ele><time>2026-03-28T14:29:30.664Z</time></trkpt><trkpt lat="44.67647" lon="9.7974967"><ele>1024.0</ele><time>2026-03-28T14:29:32.665Z</time></trkpt><trkpt lat="44.676475" lon="9.797405"><ele>1024.5</ele><time>2026-03-28T14:29:33.667Z</time></trkpt><trkpt lat="44.6764717" lon="9.7973"><ele>1025.0</ele><time>2026-03-28T14:29:35.664Z</time></trkpt><trkpt lat="44.6764783" lon="9.7972083"><ele>1025.5</ele><time>2026-03-28T14:29:48.666Z</time></trkpt><trkpt lat="44.6764733" lon="9.797305"><ele>1026.0</ele><time>2026-03-28T14:30:05.664Z</time></trkpt><trkpt lat="44.67653" lon="9.79723"><ele>1026.0</ele><time>2026-03-28T14:30:09.665Z</time></trkpt><trkpt lat="44.6765567" lon="9.7971217"><ele>1026.0</ele><time>2026-03-28T14:30:11.664Z</time></trkpt><trkpt lat="44.6766067" lon="9.797025"><ele>1026.0</ele><time>2026-03-28T14:30:13.666Z</time></trkpt><trkpt lat="44.6766583" lon="9.7969517"><ele>1026.0</ele><time>2026-03-28T14:30:15.666Z</time></trkpt><trkpt lat="44.6767033" lon="9.7968717"><ele>1026.0</ele><time>2026-03-28T14:30:17.665Z</time></trkpt><trkpt lat="44.67676" lon="9.7967567"><ele>1026.0</ele><time>2026-03-28T14:30:19.666Z</time></trkpt><trkpt lat="44.6767933" lon="9.79668"><ele>1026.4285714285716</ele><time>2026-03-28T14:30:20.665Z</time></trkpt><trkpt lat="44.6768233" lon="9.7965983"><ele>1026.857142857143</ele><time>2026-03-28T14:30:21.666Z</time></trkpt><trkpt lat="44.6768567" lon="9.796515"><ele>1027.2857142857142</ele><time>2026-03-28T14:30:22.665Z</time></trkpt><trkpt lat="44.676885" lon="9.7964333"><ele>1027.7142857142858</ele><time>2026-03-28T14:30:23.664Z</time></trkpt><trkpt lat="44.67691" lon="9.796345"><ele>1028.142857142857</ele><time>2026-03-28T14:30:24.666Z</time></trkpt><trkpt lat="44.676935" lon="9.7962617"><ele>1028.5714285714287</ele><time>2026-03-28T14:30:25.666Z</time></trkpt><trkpt lat="44.6769733" lon="9.7961283"><ele>1029.0</ele><time>2026-03-28T14:30:27.667Z</time></trkpt><trkpt lat="44.6769933" lon="9.7960083"><ele>1026.75</ele><time>2026-03-28T14:30:29.666Z</time></trkpt><trkpt lat="44.6770483" lon="9.7958633"><ele>1024.5</ele><time>2026-03-28T14:30:31.667Z</time></trkpt><trkpt lat="44.6771133" lon="9.7957133"><ele>1022.25</ele><time>2026-03-28T14:30:33.664Z</time></trkpt><trkpt lat="44.6771833" lon="9.795565"><ele>1020.0</ele><time>2026-03-28T14:30:35.666Z</time></trkpt><trkpt lat="44.677265" lon="9.7954667"><ele>1020.0</ele><time>2026-03-28T14:30:37.665Z</time></trkpt><trkpt lat="44.6773733" lon="9.7954633"><ele>1020.0</ele><time>2026-03-28T14:30:39.665Z</time></trkpt><trkpt lat="44.67748" lon="9.7955267"><ele>1020.0</ele><time>2026-03-28T14:30:41.666Z</time></trkpt><trkpt lat="44.6775917" lon="9.79552"><ele>1020.0</ele><time>2026-03-28T14:30:43.667Z</time></trkpt><trkpt lat="44.6776767" lon="9.79545"><ele>1020.0</ele><time>2026-03-28T14:30:45.666Z</time></trkpt><trkpt lat="44.6777483" lon="9.7953433"><ele>1016.6</ele><time>2026-03-28T14:30:47.668Z</time></trkpt><trkpt lat="44.677775" lon="9.7952133"><ele>1013.2</ele><time>2026-03-28T14:30:49.668Z</time></trkpt><trkpt lat="44.6778283" lon="9.79507"><ele>1009.8</ele><time>2026-03-28T14:30:51.664Z</time></trkpt><trkpt lat="44.677905" lon="9.79498"><ele>1006.4</ele><time>2026-03-28T14:30:53.666Z</time></trkpt><trkpt lat="44.6779633" lon="9.7949283"><ele>1003.0</ele><time>2026-03-28T14:30:55.665Z</time></trkpt><trkpt lat="44.6780217" lon="9.794865"><ele>1003.0</ele><time>2026-03-28T14:30:57.666Z</time></trkpt><trkpt lat="44.678065" lon="9.794765"><ele>1003.0</ele><time>2026-03-28T14:30:59.665Z</time></trkpt><trkpt lat="44.6780933" lon="9.7946267"><ele>1003.0</ele><time>2026-03-28T14:31:01.665Z</time></trkpt><trkpt lat="44.6781267" lon="9.7944783"><ele>1003.0</ele><time>2026-03-28T14:31:03.665Z</time></trkpt><trkpt lat="44.6781433" lon="9.79438"><ele>1003.0</ele><time>2026-03-28T14:31:05.665Z</time></trkpt><trkpt lat="44.6781367" lon="9.79426"><ele>1002.8333333333333</ele><time>2026-03-28T14:31:08.666Z</time></trkpt><trkpt lat="44.6781433" lon="9.7941467"><ele>1002.6666666666666</ele><time>2026-03-28T14:31:11.666Z</time></trkpt><trkpt lat="44.678175" lon="9.7940517"><ele>1002.5</ele><time>2026-03-28T14:31:14.667Z</time></trkpt><trkpt lat="44.6782283" lon="9.793975"><ele>1002.3333333333333</ele><time>2026-03-28T14:31:17.666Z</time></trkpt><trkpt lat="44.6782767" lon="9.7939117"><ele>1002.1666666666666</ele><time>2026-03-28T14:31:19.666Z</time></trkpt><trkpt lat="44.6783533" lon="9.7938617"><ele>1002.0</ele><time>2026-03-28T14:31:21.665Z</time></trkpt><trkpt lat="44.6784267" lon="9.793825"><ele>1002.0</ele><time>2026-03-28T14:31:23.666Z</time></trkpt><trkpt lat="44.6784967" lon="9.7937667"><ele>1002.0</ele><time>2026-03-28T14:31:25.666Z</time></trkpt><trkpt lat="44.678555" lon="9.793675"><ele>1002.0</ele><time>2026-03-28T14:31:27.665Z</time></trkpt><trkpt lat="44.67862" lon="9.7935517"><ele>1002.0</ele><time>2026-03-28T14:31:29.665Z</time></trkpt><trkpt lat="44.6786833" lon="9.793435"><ele>1002.0</ele><time>2026-03-28T14:31:31.668Z</time></trkpt><trkpt lat="44.6787601" lon="9.7933187"><ele>998.2</ele><time>2026-03-28T14:31:33.666Z</time></trkpt><trkpt lat="44.6788543" lon="9.7932098"><ele>994.4000000000001</ele><time>2026-03-28T14:31:35.668Z</time></trkpt><trkpt lat="44.678909" lon="9.7931625"><ele>990.5999999999999</ele><time>2026-03-28T14:31:36.667Z</time></trkpt><trkpt lat="44.6790073" lon="9.7930816"><ele>986.8</ele><time>2026-03-28T14:31:38.668Z</time></trkpt><trkpt lat="44.6790904" lon="9.7929943"><ele>983.0</ele><time>2026-03-28T14:31:40.666Z</time></trkpt><trkpt lat="44.679195" lon="9.7929162"><ele>983.0000000000001</ele><time>2026-03-28T14:31:42.666Z</time></trkpt><trkpt lat="44.6792518" lon="9.7928648"><ele>983.0</ele><time>2026-03-28T14:31:43.665Z</time></trkpt><trkpt lat="44.6793048" lon="9.7928074"><ele>983.0</ele><time>2026-03-28T14:31:44.666Z</time></trkpt><trkpt lat="44.6793571" lon="9.7927568"><ele>983.0</ele><time>2026-03-28T14:31:45.666Z</time></trkpt><trkpt lat="44.6794551" lon="9.7926471"><ele>983.0000000000001</ele><time>2026-03-28T14:31:47.666Z</time></trkpt><trkpt lat="44.6795112" lon="9.7925797"><ele>983.0</ele><time>2026-03-28T14:31:48.664Z</time></trkpt><trkpt lat="44.6795495" lon="9.7924534"><ele>980.8571428571427</ele><time>2026-03-28T14:31:50.666Z</time></trkpt><trkpt lat="44.6795531" lon="9.7923151"><ele>978.7142857142857</ele><time>2026-03-28T14:31:52.666Z</time></trkpt><trkpt lat="44.6795663" lon="9.7922154"><ele>976.5714285714284</ele><time>2026-03-28T14:31:53.666Z</time></trkpt><trkpt lat="44.6795814" lon="9.7921165"><ele>974.4285714285713</ele><time>2026-03-28T14:31:54.665Z</time></trkpt><trkpt lat="44.6795933" lon="9.7920179"><ele>972.2857142857142</ele><time>2026-03-28T14:31:55.666Z</time></trkpt><trkpt lat="44.6796034" lon="9.7919205"><ele>970.1428571428571</ele><time>2026-03-28T14:31:56.666Z</time></trkpt><trkpt lat="44.6796093" lon="9.7918308"><ele>968.0</ele><time>2026-03-28T14:31:57.665Z</time></trkpt><trkpt lat="44.6795869" lon="9.7916818"><ele>967.8333333333334</ele><time>2026-03-28T14:31:59.666Z</time></trkpt><trkpt lat="44.6795491" lon="9.791579"><ele>967.6666666666667</ele><time>2026-03-28T14:32:01.666Z</time></trkpt><trkpt lat="44.6795002" lon="9.7914792"><ele>967.5</ele><time>2026-03-28T14:32:04.666Z</time></trkpt><trkpt lat="44.679482" lon="9.7913576"><ele>967.3333333333333</ele><time>2026-03-28T14:32:07.667Z</time></trkpt><trkpt lat="44.6795175" lon="9.7912544"><ele>967.1666666666666</ele><time>2026-03-28T14:32:09.665Z</time></trkpt><trkpt lat="44.6795854" lon="9.7911427"><ele>967.0</ele><time>2026-03-28T14:32:11.664Z</time></trkpt><trkpt lat="44.679616" lon="9.7910632"><ele>967.4999999999999</ele><time>2026-03-28T14:32:12.665Z</time></trkpt><trkpt lat="44.6796832" lon="9.7909158"><ele>968.0</ele><time>2026-03-28T14:32:14.665Z</time></trkpt><trkpt lat="44.6797278" lon="9.7908471"><ele>968.5</ele><time>2026-03-28T14:32:15.665Z</time></trkpt><trkpt lat="44.6797815" lon="9.7907772"><ele>969.0</ele><time>2026-03-28T14:32:16.666Z</time></trkpt><trkpt lat="44.6798374" lon="9.7907099"><ele>969.4999999999999</ele><time>2026-03-28T14:32:17.665Z</time></trkpt><trkpt lat="44.679892" lon="9.7906488"><ele>970.0</ele><time>2026-03-28T14:32:18.664Z</time></trkpt><trkpt lat="44.6799458" lon="9.7905916"><ele>969.9999999999999</ele><time>2026-03-28T14:32:19.666Z</time></trkpt><trkpt lat="44.680002" lon="9.7905436"><ele>970.0</ele><time>2026-03-28T14:32:20.667Z</time></trkpt><trkpt lat="44.6800602" lon="9.7905065"><ele>970.0</ele><time>2026-03-28T14:32:21.665Z</time></trkpt><trkpt lat="44.6801683" lon="9.790435"><ele>970.0</ele><time>2026-03-28T14:32:23.665Z</time></trkpt><trkpt lat="44.680235" lon="9.7903667"><ele>969.9999999999999</ele><time>2026-03-28T14:32:25.665Z</time></trkpt><trkpt lat="44.68027" lon="9.7902783"><ele>970.0</ele><time>2026-03-28T14:32:27.666Z</time></trkpt><trkpt lat="44.6802967" lon="9.7901917"><ele>967.2</ele><time>2026-03-28T14:32:29.667Z</time></trkpt><trkpt lat="44.6803333" lon="9.7901"><ele>964.4</ele><time>2026-03-28T14:32:31.668Z</time></trkpt><trkpt lat="44.6803883" lon="9.7899833"><ele>961.5999999999999</ele><time>2026-03-28T14:32:33.667Z</time></trkpt><trkpt lat="44.6804467" lon="9.7898633"><ele>958.8</ele><time>2026-03-28T14:32:35.667Z</time></trkpt><trkpt lat="44.68052" lon="9.7897183"><ele>956.0</ele><time>2026-03-28T14:32:37.668Z</time></trkpt><trkpt lat="44.6805667" lon="9.78964"><ele>956.0000000000001</ele><time>2026-03-28T14:32:38.668Z</time></trkpt><trkpt lat="44.6806167" lon="9.7895567"><ele>956.0</ele><time>2026-03-28T14:32:39.668Z</time></trkpt><trkpt lat="44.6806633" lon="9.7894767"><ele>956.0</ele><time>2026-03-28T14:32:40.668Z</time></trkpt><trkpt lat="44.6807067" lon="9.7894033"><ele>956.0</ele><time>2026-03-28T14:32:41.667Z</time></trkpt><trkpt lat="44.68078" lon="9.78927"><ele>956.0000000000001</ele><time>2026-03-28T14:32:43.667Z</time></trkpt><trkpt lat="44.680815" lon="9.789195"><ele>956.0</ele><time>2026-03-28T14:32:44.668Z</time></trkpt><trkpt lat="44.6808767" lon="9.7890333"><ele>956.0000000000001</ele><time>2026-03-28T14:32:46.666Z</time></trkpt><trkpt lat="44.6809133" lon="9.7889433"><ele>956.0</ele><time>2026-03-28T14:32:47.665Z</time></trkpt><trkpt lat="44.6809617" lon="9.7888583"><ele>956.0</ele><time>2026-03-28T14:32:48.668Z</time></trkpt><trkpt lat="44.6810133" lon="9.7887783"><ele>956.0</ele><time>2026-03-28T14:32:49.666Z</time></trkpt><trkpt lat="44.681065" lon="9.7886867"><ele>956.0000000000001</ele><time>2026-03-28T14:32:50.666Z</time></trkpt><trkpt lat="44.6811133" lon="9.7886017"><ele>956.0</ele><time>2026-03-28T14:32:51.665Z</time></trkpt><trkpt lat="44.681155" lon="9.7885217"><ele>958.4</ele><time>2026-03-28T14:32:52.666Z</time></trkpt><trkpt lat="44.6812217" lon="9.7884383"><ele>960.8</ele><time>2026-03-28T14:32:54.667Z</time></trkpt><trkpt lat="44.6813133" lon="9.78844"><ele>963.1999999999999</ele><time>2026-03-28T14:32:56.666Z</time></trkpt><trkpt lat="44.6814217" lon="9.7884283"><ele>965.5999999999999</ele><time>2026-03-28T14:32:58.666Z</time></trkpt><trkpt lat="44.681515" lon="9.7884383"><ele>968.0</ele><time>2026-03-28T14:33:00.667Z</time></trkpt><trkpt lat="44.6816" lon="9.7885"><ele>968.0000000000001</ele><time>2026-03-28T14:33:02.665Z</time></trkpt><trkpt lat="44.6816883" lon="9.7885067"><ele>968.0</ele><time>2026-03-28T14:33:04.665Z</time></trkpt><trkpt lat="44.68176" lon="9.788485"><ele>968.0</ele><time>2026-03-28T14:33:06.668Z</time></trkpt><trkpt lat="44.6818533" lon="9.7884767"><ele>968.0</ele><time>2026-03-28T14:33:08.667Z</time></trkpt><trkpt lat="44.6819467" lon="9.78845"><ele>968.0000000000001</ele><time>2026-03-28T14:33:10.666Z</time></trkpt><trkpt lat="44.6820383" lon="9.7884383"><ele>968.0</ele><time>2026-03-28T14:33:12.666Z</time></trkpt><trkpt lat="44.6821467" lon="9.7883783"><ele>966.5000000000001</ele><time>2026-03-28T14:33:14.665Z</time></trkpt><trkpt lat="44.682205" lon="9.7883367"><ele>965.0</ele><time>2026-03-28T14:33:15.666Z</time></trkpt><trkpt lat="44.6822733" lon="9.7882917"><ele>963.5</ele><time>2026-03-28T14:33:16.666Z</time></trkpt><trkpt lat="44.6823367" lon="9.78825"><ele>962.0</ele><time>2026-03-28T14:33:17.666Z</time></trkpt><trkpt lat="44.6824017" lon="9.788205"><ele>960.5000000000001</ele><time>2026-03-28T14:33:18.666Z</time></trkpt><trkpt lat="44.6824933" lon="9.788125"><ele>959.0</ele><time>2026-03-28T14:33:20.666Z</time></trkpt><trkpt lat="44.6825717" lon="9.7880217"><ele>959.0</ele><time>2026-03-28T14:33:22.664Z</time></trkpt><trkpt lat="44.682645" lon="9.787925"><ele>959.0000000000001</ele><time>2026-03-28T14:33:24.665Z</time></trkpt><trkpt lat="44.68271" lon="9.7878567"><ele>959.0000000000001</ele><time>2026-03-28T14:33:26.669Z</time></trkpt><trkpt lat="44.6827933" lon="9.787765"><ele>959.0</ele><time>2026-03-28T14:33:29.666Z</time></trkpt><trkpt lat="44.6828633" lon="9.7877"><ele>959.0</ele><time>2026-03-28T14:33:31.665Z</time></trkpt><trkpt lat="44.6829567" lon="9.787675"><ele>959.2</ele><time>2026-03-28T14:33:33.667Z</time></trkpt><trkpt lat="44.6830367" lon="9.787665"><ele>959.4000000000001</ele><time>2026-03-28T14:33:35.668Z</time></trkpt><trkpt lat="44.683125" lon="9.7876383"><ele>959.6</ele><time>2026-03-28T14:33:37.668Z</time></trkpt><trkpt lat="44.6832467" lon="9.78762"><ele>959.8</ele><time>2026-03-28T14:33:39.668Z</time></trkpt><trkpt lat="44.6833533" lon="9.7875933"><ele>960.0</ele><time>2026-03-28T14:33:41.666Z</time></trkpt><trkpt lat="44.6834217" lon="9.7875867"><ele>960.0</ele><time>2026-03-28T14:33:42.668Z</time></trkpt><trkpt lat="44.6834967" lon="9.7875817"><ele>960.0</ele><time>2026-03-28T14:33:43.667Z</time></trkpt><trkpt lat="44.6835783" lon="9.787585"><ele>960.0</ele><time>2026-03-28T14:33:44.67Z</time></trkpt><trkpt lat="44.6836483" lon="9.7876"><ele>960.0</ele><time>2026-03-28T14:33:45.668Z</time></trkpt><trkpt lat="44.68372" lon="9.7876067"><ele>960.0</ele><time>2026-03-28T14:33:46.665Z</time></trkpt><trkpt lat="44.6838" lon="9.7875983"><ele>960.0</ele><time>2026-03-28T14:33:47.665Z</time></trkpt><trkpt lat="44.6838767" lon="9.78757"><ele>959.8</ele><time>2026-03-28T14:33:48.666Z</time></trkpt><trkpt lat="44.6839483" lon="9.787535"><ele>959.6</ele><time>2026-03-28T14:33:49.666Z</time></trkpt><trkpt lat="44.684015" lon="9.7874917"><ele>959.4000000000001</ele><time>2026-03-28T14:33:50.666Z</time></trkpt><trkpt lat="44.68413" lon="9.787425"><ele>959.2</ele><time>2026-03-28T14:33:52.665Z</time></trkpt><trkpt lat="44.6842317" lon="9.7874183"><ele>959.0</ele><time>2026-03-28T14:33:54.665Z</time></trkpt><trkpt lat="44.6843433" lon="9.78747"><ele>959.0000000000001</ele><time>2026-03-28T14:33:56.665Z</time></trkpt><trkpt lat="44.6844083" lon="9.7874783"><ele>959.0</ele><time>2026-03-28T14:33:57.665Z</time></trkpt><trkpt lat="44.6844767" lon="9.7874783"><ele>959.0</ele><time>2026-03-28T14:33:58.664Z</time></trkpt><trkpt lat="44.684605" lon="9.7874833"><ele>959.0</ele><time>2026-03-28T14:34:00.665Z</time></trkpt><trkpt lat="44.6846733" lon="9.7874867"><ele>959.0000000000001</ele><time>2026-03-28T14:34:01.664Z</time></trkpt><trkpt lat="44.68474" lon="9.7874967"><ele>959.0</ele><time>2026-03-28T14:34:02.666Z</time></trkpt><trkpt lat="44.68486" lon="9.787485"><ele>956.6</ele><time>2026-03-28T14:34:04.666Z</time></trkpt><trkpt lat="44.684955" lon="9.7874217"><ele>954.2</ele><time>2026-03-28T14:34:06.668Z</time></trkpt><trkpt lat="44.685055" lon="9.7873567"><ele>951.8000000000001</ele><time>2026-03-28T14:34:08.667Z</time></trkpt><trkpt lat="44.68517" lon="9.7873517"><ele>949.4000000000001</ele><time>2026-03-28T14:34:10.667Z</time></trkpt><trkpt lat="44.6852583" lon="9.787385"><ele>947.0</ele><time>2026-03-28T14:34:11.668Z</time></trkpt><trkpt lat="44.6853283" lon="9.78742"><ele>943.0</ele><time>2026-03-28T14:34:12.667Z</time></trkpt><trkpt lat="44.6854283" lon="9.7874817"><ele>939.0</ele><time>2026-03-28T14:34:13.666Z</time></trkpt><trkpt lat="44.6855017" lon="9.7875133"><ele>935.0</ele><time>2026-03-28T14:34:14.668Z</time></trkpt><trkpt lat="44.6855883" lon="9.7875617"><ele>931.0</ele><time>2026-03-28T14:34:15.665Z</time></trkpt><trkpt lat="44.6856733" lon="9.7876483"><ele>927.0</ele><time>2026-03-28T14:34:17.664Z</time></trkpt><trkpt lat="44.6857283" lon="9.7877083"><ele>927.0</ele><time>2026-03-28T14:34:19.664Z</time></trkpt><trkpt lat="44.685805" lon="9.7877183"><ele>927.0</ele><time>2026-03-28T14:34:21.664Z</time></trkpt><trkpt lat="44.68591" lon="9.787705"><ele>927.0</ele><time>2026-03-28T14:34:23.665Z</time></trkpt><trkpt lat="44.6860233" lon="9.787655"><ele>927.0</ele><time>2026-03-28T14:34:25.666Z</time></trkpt><trkpt lat="44.686125" lon="9.7875867"><ele>927.0</ele><time>2026-03-28T14:34:27.665Z</time></trkpt><trkpt lat="44.686255" lon="9.7875267"><ele>922.4000000000001</ele><time>2026-03-28T14:34:29.665Z</time></trkpt><trkpt lat="44.6863317" lon="9.7874933"><ele>917.8000000000001</ele><time>2026-03-28T14:34:30.665Z</time></trkpt><trkpt lat="44.686405" lon="9.78745"><ele>913.2</ele><time>2026-03-28T14:34:31.666Z</time></trkpt><trkpt lat="44.6864583" lon="9.7873967"><ele>908.6</ele><time>2026-03-28T14:34:32.667Z</time></trkpt><trkpt lat="44.68656" lon="9.7873283"><ele>904.0</ele><time>2026-03-28T14:34:34.666Z</time></trkpt><trkpt lat="44.6866783" lon="9.7873183"><ele>903.9999999999999</ele><time>2026-03-28T14:34:36.668Z</time></trkpt><trkpt lat="44.686745" lon="9.7873283"><ele>904.0</ele><time>2026-03-28T14:34:37.667Z</time></trkpt><trkpt lat="44.68682" lon="9.78734"><ele>904.0</ele><time>2026-03-28T14:34:38.668Z</time></trkpt><trkpt lat="44.6868867" lon="9.7873567"><ele>904.0</ele><time>2026-03-28T14:34:39.666Z</time></trkpt><trkpt lat="44.6870067" lon="9.787375"><ele>903.9999999999999</ele><time>2026-03-28T14:34:41.668Z</time></trkpt><trkpt lat="44.6870733" lon="9.78737"><ele>904.0</ele><time>2026-03-28T14:34:42.666Z</time></trkpt><trkpt lat="44.6871367" lon="9.78737"><ele>900.4000000000001</ele><time>2026-03-28T14:34:43.666Z</time></trkpt><trkpt lat="44.6872633" lon="9.7873633"><ele>896.8000000000001</ele><time>2026-03-28T14:34:45.666Z</time></trkpt><trkpt lat="44.687335" lon="9.7873667"><ele>893.1999999999999</ele><time>2026-03-28T14:34:46.667Z</time></trkpt><trkpt lat="44.6873967" lon="9.787385"><ele>889.5999999999999</ele><time>2026-03-28T14:34:47.668Z</time></trkpt><trkpt lat="44.6875" lon="9.787435"><ele>886.0</ele><time>2026-03-28T14:34:49.668Z</time></trkpt><trkpt lat="44.6876117" lon="9.78748"><ele>886.0</ele><time>2026-03-28T14:34:51.668Z</time></trkpt><trkpt lat="44.6876983" lon="9.7875683"><ele>885.9999999999999</ele><time>2026-03-28T14:34:53.666Z</time></trkpt><trkpt lat="44.6877833" lon="9.7876967"><ele>885.9999999999999</ele><time>2026-03-28T14:34:55.667Z</time></trkpt><trkpt lat="44.6878317" lon="9.7877583"><ele>886.0</ele><time>2026-03-28T14:34:56.667Z</time></trkpt><trkpt lat="44.6878967" lon="9.7878167"><ele>886.0</ele><time>2026-03-28T14:34:57.665Z</time></trkpt><trkpt lat="44.6879733" lon="9.7878867"><ele>883.6666666666666</ele><time>2026-03-28T14:34:58.667Z</time></trkpt><trkpt lat="44.6880583" lon="9.787955"><ele>881.3333333333333</ele><time>2026-03-28T14:34:59.666Z</time></trkpt><trkpt lat="44.6881167" lon="9.7880217"><ele>879.0</ele><time>2026-03-28T14:35:00.665Z</time></trkpt><trkpt lat="44.68817" lon="9.7880917"><ele>876.6666666666667</ele><time>2026-03-28T14:35:01.666Z</time></trkpt><trkpt lat="44.68822" lon="9.7881733"><ele>874.3333333333334</ele><time>2026-03-28T14:35:02.668Z</time></trkpt><trkpt lat="44.6882733" lon="9.7882583"><ele>872.0</ele><time>2026-03-28T14:35:03.667Z</time></trkpt><trkpt lat="44.6883117" lon="9.7883383"><ele>872.0000000000001</ele><time>2026-03-28T14:35:04.666Z</time></trkpt><trkpt lat="44.6883717" lon="9.78848"><ele>872.0</ele><time>2026-03-28T14:35:06.667Z</time></trkpt><trkpt lat="44.688405" lon="9.7885617"><ele>872.0</ele><time>2026-03-28T14:35:07.666Z</time></trkpt><trkpt lat="44.68845" lon="9.7886317"><ele>872.0</ele><time>2026-03-28T14:35:08.666Z</time></trkpt><trkpt lat="44.6885017" lon="9.78871"><ele>872.0000000000001</ele><time>2026-03-28T14:35:09.667Z</time></trkpt><trkpt lat="44.6885583" lon="9.788785"><ele>872.0</ele><time>2026-03-28T14:35:10.666Z</time></trkpt><trkpt lat="44.6886133" lon="9.78885"><ele>869.5000000000001</ele><time>2026-03-28T14:35:11.666Z</time></trkpt><trkpt lat="44.6886567" lon="9.788935"><ele>867.0</ele><time>2026-03-28T14:35:12.665Z</time></trkpt><trkpt lat="44.6887067" lon="9.7890117"><ele>864.5</ele><time>2026-03-28T14:35:13.665Z</time></trkpt><trkpt lat="44.6887583" lon="9.7890917"><ele>862.0</ele><time>2026-03-28T14:35:14.669Z</time></trkpt><trkpt lat="44.6888167" lon="9.7891717"><ele>859.5000000000001</ele><time>2026-03-28T14:35:15.667Z</time></trkpt><trkpt lat="44.68888" lon="9.789255"><ele>857.0</ele><time>2026-03-28T14:35:16.666Z</time></trkpt><trkpt lat="44.6889483" lon="9.7893433"><ele>857.0</ele><time>2026-03-28T14:35:17.667Z</time></trkpt><trkpt lat="44.689015" lon="9.78944"><ele>857.0</ele><time>2026-03-28T14:35:18.666Z</time></trkpt><trkpt lat="44.6890833" lon="9.7895417"><ele>857.0</ele><time>2026-03-28T14:35:19.666Z</time></trkpt><trkpt lat="44.6891533" lon="9.7896433"><ele>857.0</ele><time>2026-03-28T14:35:20.666Z</time></trkpt><trkpt lat="44.68922" lon="9.7897333"><ele>857.0</ele><time>2026-03-28T14:35:21.666Z</time></trkpt><trkpt lat="44.6892867" lon="9.7898217"><ele>857.0000000000001</ele><time>2026-03-28T14:35:22.666Z</time></trkpt><trkpt lat="44.6893433" lon="9.7898933"><ele>857.0</ele><time>2026-03-28T14:35:23.668Z</time></trkpt><trkpt lat="44.6894117" lon="9.789985"><ele>857.0</ele><time>2026-03-28T14:35:25.667Z</time></trkpt><trkpt lat="44.6893283" lon="9.789915"><ele>857.0</ele><time>2026-03-28T14:36:18.667Z</time></trkpt><trkpt lat="44.68928" lon="9.78985"><ele>857.0000000000001</ele><time>2026-03-28T14:36:19.666Z</time></trkpt><trkpt lat="44.68922" lon="9.7897767"><ele>857.0</ele><time>2026-03-28T14:36:20.668Z</time></trkpt><trkpt lat="44.68916" lon="9.7896967"><ele>857.0000000000001</ele><time>2026-03-28T14:36:21.666Z</time></trkpt><trkpt lat="44.6891033" lon="9.7896283"><ele>857.0</ele><time>2026-03-28T14:36:22.668Z</time></trkpt><trkpt lat="44.689055" lon="9.7895683"><ele>857.0</ele><time>2026-03-28T14:36:23.668Z</time></trkpt><trkpt lat="44.6890017" lon="9.7894817"><ele>857.0</ele><time>2026-03-28T14:36:25.665Z</time></trkpt><trkpt lat="44.6890233" lon="9.7893483"><ele>857.0000000000001</ele><time>2026-03-28T14:36:28.667Z</time></trkpt><trkpt lat="44.6890767" lon="9.7892183"><ele>857.0</ele><time>2026-03-28T14:36:30.666Z</time></trkpt><trkpt lat="44.6891167" lon="9.789145"><ele>857.0000000000001</ele><time>2026-03-28T14:36:31.666Z</time></trkpt><trkpt lat="44.6891583" lon="9.789065"><ele>857.0</ele><time>2026-03-28T14:36:32.666Z</time></trkpt><trkpt lat="44.6892083" lon="9.7889883"><ele>857.0</ele><time>2026-03-28T14:36:33.666Z</time></trkpt><trkpt lat="44.689255" lon="9.78892"><ele>857.0</ele><time>2026-03-28T14:36:34.665Z</time></trkpt><trkpt lat="44.6893183" lon="9.7888017"><ele>857.0000000000001</ele><time>2026-03-28T14:36:36.666Z</time></trkpt><trkpt lat="44.6893233" lon="9.788685"><ele>857.0</ele><time>2026-03-28T14:36:39.668Z</time></trkpt><trkpt lat="44.689295" lon="9.7885833"><ele>857.8</ele><time>2026-03-28T14:36:41.666Z</time></trkpt><trkpt lat="44.68925" lon="9.7884333"><ele>858.6</ele><time>2026-03-28T14:36:43.666Z</time></trkpt><trkpt lat="44.6892233" lon="9.78831"><ele>859.3999999999999</ele><time>2026-03-28T14:36:45.666Z</time></trkpt><trkpt lat="44.6892283" lon="9.78816"><ele>860.1999999999999</ele><time>2026-03-28T14:36:47.666Z</time></trkpt><trkpt lat="44.6892583" lon="9.7880033"><ele>861.0</ele><time>2026-03-28T14:36:49.667Z</time></trkpt><trkpt lat="44.6893033" lon="9.7878317"><ele>861.0</ele><time>2026-03-28T14:36:51.665Z</time></trkpt><trkpt lat="44.6893233" lon="9.78774"><ele>861.0</ele><time>2026-03-28T14:36:52.668Z</time></trkpt><trkpt lat="44.689365" lon="9.787585"><ele>861.0</ele><time>2026-03-28T14:36:54.668Z</time></trkpt><trkpt lat="44.689395" lon="9.78745"><ele>861.0</ele><time>2026-03-28T14:36:56.67Z</time></trkpt><trkpt lat="44.6894033" lon="9.7873583"><ele>861.0</ele><time>2026-03-28T14:36:58.666Z</time></trkpt><trkpt lat="44.6893683" lon="9.7872383"><ele>861.0</ele><time>2026-03-28T14:37:01.667Z</time></trkpt><trkpt lat="44.6893133" lon="9.7871167"><ele>861.1666666666666</ele><time>2026-03-28T14:37:03.666Z</time></trkpt><trkpt lat="44.6892717" lon="9.787015"><ele>861.3333333333333</ele><time>2026-03-28T14:37:05.667Z</time></trkpt><trkpt lat="44.6892267" lon="9.78692"><ele>861.5</ele><time>2026-03-28T14:37:07.668Z</time></trkpt><trkpt lat="44.6891917" lon="9.7868417"><ele>861.6666666666666</ele><time>2026-03-28T14:37:09.665Z</time></trkpt><trkpt lat="44.689165" lon="9.786725"><ele>861.8333333333333</ele><time>2026-03-28T14:37:12.666Z</time></trkpt><trkpt lat="44.6891667" lon="9.786615"><ele>862.0</ele><time>2026-03-28T14:37:14.667Z</time></trkpt><trkpt lat="44.68915" lon="9.7865133"><ele>861.3333333333333</ele><time>2026-03-28T14:37:16.665Z</time></trkpt><trkpt lat="44.6891533" lon="9.7863917"><ele>860.6666666666666</ele><time>2026-03-28T14:37:19.666Z</time></trkpt><trkpt lat="44.68916" lon="9.7863033"><ele>860.0</ele><time>2026-03-28T14:37:21.665Z</time></trkpt><trkpt lat="44.68914" lon="9.7861867"><ele>859.3333333333333</ele><time>2026-03-28T14:37:23.667Z</time></trkpt><trkpt lat="44.6891" lon="9.7861133"><ele>858.6666666666666</ele><time>2026-03-28T14:37:24.666Z</time></trkpt><trkpt lat="44.6890467" lon="9.7860317"><ele>858.0</ele><time>2026-03-28T14:37:25.667Z</time></trkpt><trkpt lat="44.6889883" lon="9.7859483"><ele>858.0</ele><time>2026-03-28T14:37:26.667Z</time></trkpt><trkpt lat="44.6889333" lon="9.785865"><ele>858.0</ele><time>2026-03-28T14:37:27.666Z</time></trkpt><trkpt lat="44.6888833" lon="9.785785"><ele>858.0</ele><time>2026-03-28T14:37:28.665Z</time></trkpt><trkpt lat="44.6888267" lon="9.7856967"><ele>858.0</ele><time>2026-03-28T14:37:29.667Z</time></trkpt><trkpt lat="44.68878" lon="9.7856183"><ele>858.0</ele><time>2026-03-28T14:37:30.667Z</time></trkpt><trkpt lat="44.688745" lon="9.7855333"><ele>858.0</ele><time>2026-03-28T14:37:31.665Z</time></trkpt><trkpt lat="44.6887183" lon="9.7854383"><ele>858.0</ele><time>2026-03-28T14:37:32.667Z</time></trkpt><trkpt lat="44.6886917" lon="9.785355"><ele>858.0</ele><time>2026-03-28T14:37:33.667Z</time></trkpt><trkpt lat="44.6886517" lon="9.7852017"><ele>858.0</ele><time>2026-03-28T14:37:35.667Z</time></trkpt><trkpt lat="44.688625" lon="9.7850317"><ele>858.0</ele><time>2026-03-28T14:37:37.666Z</time></trkpt><trkpt lat="44.6885617" lon="9.7848683"><ele>858.0</ele><time>2026-03-28T14:37:39.667Z</time></trkpt><trkpt lat="44.688535" lon="9.784785"><ele>858.4</ele><time>2026-03-28T14:37:40.668Z</time></trkpt><trkpt lat="44.6885167" lon="9.7847"><ele>858.8</ele><time>2026-03-28T14:37:41.665Z</time></trkpt><trkpt lat="44.6884967" lon="9.784535"><ele>859.2</ele><time>2026-03-28T14:37:43.667Z</time></trkpt><trkpt lat="44.6884983" lon="9.78438"><ele>859.6</ele><time>2026-03-28T14:37:45.667Z</time></trkpt><trkpt lat="44.688525" lon="9.7842683"><ele>860.0</ele><time>2026-03-28T14:37:47.667Z</time></trkpt><trkpt lat="44.6885983" lon="9.784155"><ele>860.0</ele><time>2026-03-28T14:37:49.667Z</time></trkpt><trkpt lat="44.6886683" lon="9.7840167"><ele>860.0</ele><time>2026-03-28T14:37:51.665Z</time></trkpt><trkpt lat="44.688725" lon="9.7838833"><ele>860.0</ele><time>2026-03-28T14:37:53.665Z</time></trkpt><trkpt lat="44.68876" lon="9.783795"><ele>860.0</ele><time>2026-03-28T14:37:54.666Z</time></trkpt><trkpt lat="44.6888067" lon="9.783705"><ele>860.0</ele><time>2026-03-28T14:37:55.666Z</time></trkpt><trkpt lat="44.6888633" lon="9.7836167"><ele>860.0000000000001</ele><time>2026-03-28T14:37:56.666Z</time></trkpt><trkpt lat="44.6889133" lon="9.7835433"><ele>860.0</ele><time>2026-03-28T14:37:57.665Z</time></trkpt><trkpt lat="44.688965" lon="9.7834783"><ele>860.0</ele><time>2026-03-28T14:37:58.666Z</time></trkpt><trkpt lat="44.6890183" lon="9.7834217"><ele>860.0</ele><time>2026-03-28T14:37:59.667Z</time></trkpt><trkpt lat="44.689105" lon="9.78334"><ele>860.0000000000001</ele><time>2026-03-28T14:38:01.665Z</time></trkpt><trkpt lat="44.6891417" lon="9.7832317"><ele>860.0</ele><time>2026-03-28T14:38:03.667Z</time></trkpt><trkpt lat="44.6891417" lon="9.7830967"><ele>861.6666666666667</ele><time>2026-03-28T14:38:05.665Z</time></trkpt><trkpt lat="44.6891767" lon="9.7829633"><ele>863.3333333333334</ele><time>2026-03-28T14:38:07.665Z</time></trkpt><trkpt lat="44.6892333" lon="9.7828133"><ele>865.0</ele><time>2026-03-28T14:38:09.667Z</time></trkpt><trkpt lat="44.689265" lon="9.78272"><ele>866.6666666666667</ele><time>2026-03-28T14:38:10.667Z</time></trkpt><trkpt lat="44.689285" lon="9.782625"><ele>868.3333333333334</ele><time>2026-03-28T14:38:11.666Z</time></trkpt><trkpt lat="44.6892967" lon="9.78253"><ele>870.0</ele><time>2026-03-28T14:38:12.666Z</time></trkpt><trkpt lat="44.68931" lon="9.782385"><ele>871.1666666666666</ele><time>2026-03-28T14:38:14.669Z</time></trkpt><trkpt lat="44.6893333" lon="9.7822383"><ele>872.3333333333333</ele><time>2026-03-28T14:38:16.667Z</time></trkpt><trkpt lat="44.6894067" lon="9.782125"><ele>873.5</ele><time>2026-03-28T14:38:18.667Z</time></trkpt><trkpt lat="44.6894683" lon="9.78207"><ele>874.6666666666666</ele><time>2026-03-28T14:38:19.666Z</time></trkpt><trkpt lat="44.6895383" lon="9.782025"><ele>875.8333333333333</ele><time>2026-03-28T14:38:20.666Z</time></trkpt><trkpt lat="44.689615" lon="9.7819817"><ele>877.0</ele><time>2026-03-28T14:38:21.665Z</time></trkpt><trkpt lat="44.6897017" lon="9.7819367"><ele>877.6</ele><time>2026-03-28T14:38:22.667Z</time></trkpt><trkpt lat="44.6897867" lon="9.7818983"><ele>878.2</ele><time>2026-03-28T14:38:23.666Z</time></trkpt><trkpt lat="44.689865" lon="9.7818733"><ele>878.8</ele><time>2026-03-28T14:38:24.666Z</time></trkpt><trkpt lat="44.6899367" lon="9.781855"><ele>879.4</ele><time>2026-03-28T14:38:25.667Z</time></trkpt><trkpt lat="44.6900483" lon="9.7818267"><ele>880.0</ele><time>2026-03-28T14:38:27.666Z</time></trkpt><trkpt lat="44.6901483" lon="9.781755"><ele>876.6</ele><time>2026-03-28T14:38:29.666Z</time></trkpt><trkpt lat="44.6902667" lon="9.7817217"><ele>873.2</ele><time>2026-03-28T14:38:31.667Z</time></trkpt><trkpt lat="44.6903317" lon="9.7817383"><ele>869.8</ele><time>2026-03-28T14:38:32.668Z</time></trkpt><trkpt lat="44.6904017" lon="9.7817667"><ele>866.4</ele><time>2026-03-28T14:38:33.666Z</time></trkpt><trkpt lat="44.690465" lon="9.7817783"><ele>863.0</ele><time>2026-03-28T14:38:34.668Z</time></trkpt><trkpt lat="44.6906" lon="9.7817983"><ele>863.0000000000001</ele><time>2026-03-28T14:38:36.667Z</time></trkpt><trkpt lat="44.6906717" lon="9.7817733"><ele>863.0</ele><time>2026-03-28T14:38:37.669Z</time></trkpt><trkpt lat="44.6907283" lon="9.7817267"><ele>863.0</ele><time>2026-03-28T14:38:38.668Z</time></trkpt><trkpt lat="44.690785" lon="9.7816517"><ele>863.0</ele><time>2026-03-28T14:38:39.667Z</time></trkpt><trkpt lat="44.6908467" lon="9.7815183"><ele>863.0000000000001</ele><time>2026-03-28T14:38:41.665Z</time></trkpt><trkpt lat="44.6908517" lon="9.78143"><ele>863.0</ele><time>2026-03-28T14:38:42.666Z</time></trkpt><trkpt lat="44.6908517" lon="9.7813333"><ele>863.0000000000001</ele><time>2026-03-28T14:38:43.666Z</time></trkpt><trkpt lat="44.6908317" lon="9.7812333"><ele>863.0</ele><time>2026-03-28T14:38:44.666Z</time></trkpt><trkpt lat="44.6908083" lon="9.7811417"><ele>863.0</ele><time>2026-03-28T14:38:45.666Z</time></trkpt><trkpt lat="44.690785" lon="9.781055"><ele>863.0</ele><time>2026-03-28T14:38:46.665Z</time></trkpt><trkpt lat="44.69077" lon="9.7809683"><ele>863.0</ele><time>2026-03-28T14:38:47.666Z</time></trkpt><trkpt lat="44.6907483" lon="9.7808733"><ele>863.0000000000001</ele><time>2026-03-28T14:38:48.665Z</time></trkpt><trkpt lat="44.6907283" lon="9.7807883"><ele>863.0</ele><time>2026-03-28T14:38:49.667Z</time></trkpt><trkpt lat="44.69071" lon="9.7807033"><ele>863.4</ele><time>2026-03-28T14:38:50.668Z</time></trkpt><trkpt lat="44.690675" lon="9.780575"><ele>863.8</ele><time>2026-03-28T14:38:52.667Z</time></trkpt><trkpt lat="44.6906383" lon="9.7804533"><ele>864.2</ele><time>2026-03-28T14:38:54.665Z</time></trkpt><trkpt lat="44.6906133" lon="9.78032"><ele>864.6</ele><time>2026-03-28T14:38:56.668Z</time></trkpt><trkpt lat="44.6905883" lon="9.7801917"><ele>865.0</ele><time>2026-03-28T14:38:58.667Z</time></trkpt><trkpt lat="44.6905833" lon="9.78006"><ele>864.2</ele><time>2026-03-28T14:39:00.667Z</time></trkpt><trkpt lat="44.6906" lon="9.7799467"><ele>863.4</ele><time>2026-03-28T14:39:02.667Z</time></trkpt><trkpt lat="44.6906433" lon="9.7797817"><ele>862.5999999999999</ele><time>2026-03-28T14:39:10.668Z</time></trkpt><trkpt lat="44.6906483" lon="9.7796933"><ele>861.8</ele><time>2026-03-28T14:39:12.667Z</time></trkpt><trkpt lat="44.6906567" lon="9.7795633"><ele>861.0</ele><time>2026-03-28T14:39:15.667Z</time></trkpt><trkpt lat="44.6906567" lon="9.7794317"><ele>860.8</ele><time>2026-03-28T14:39:18.665Z</time></trkpt><trkpt lat="44.6906483" lon="9.7793217"><ele>860.5999999999999</ele><time>2026-03-28T14:39:20.666Z</time></trkpt><trkpt lat="44.69066" lon="9.7792033"><ele>860.4</ele><time>2026-03-28T14:39:22.668Z</time></trkpt><trkpt lat="44.6906783" lon="9.7790517"><ele>860.2</ele><time>2026-03-28T14:39:24.666Z</time></trkpt><trkpt lat="44.6907017" lon="9.7789083"><ele>860.0</ele><time>2026-03-28T14:39:26.667Z</time></trkpt><trkpt lat="44.690735" lon="9.7787717"><ele>860.0</ele><time>2026-03-28T14:39:28.666Z</time></trkpt><trkpt lat="44.6907483" lon="9.7786633"><ele>860.0</ele><time>2026-03-28T14:39:30.667Z</time></trkpt><trkpt lat="44.690825" lon="9.7786083"><ele>860.0</ele><time>2026-03-28T14:39:33.666Z</time></trkpt><trkpt lat="44.6908867" lon="9.77863"><ele>860.0</ele><time>2026-03-28T14:39:34.666Z</time></trkpt><trkpt lat="44.6909817" lon="9.778685"><ele>860.0</ele><time>2026-03-28T14:39:36.667Z</time></trkpt><trkpt lat="44.6911017" lon="9.7786367"><ele>858.5000000000001</ele><time>2026-03-28T14:40:06.666Z</time></trkpt><trkpt lat="44.6911917" lon="9.778615"><ele>857.0</ele><time>2026-03-28T14:40:08.667Z</time></trkpt><trkpt lat="44.6913" lon="9.778655"><ele>855.5</ele><time>2026-03-28T14:40:10.668Z</time></trkpt><trkpt lat="44.6913683" lon="9.7786883"><ele>854.0</ele><time>2026-03-28T14:40:11.666Z</time></trkpt><trkpt lat="44.6914367" lon="9.77871"><ele>852.5000000000001</ele><time>2026-03-28T14:40:12.666Z</time></trkpt><trkpt lat="44.6915183" lon="9.77874"><ele>851.0</ele><time>2026-03-28T14:40:13.667Z</time></trkpt><trkpt lat="44.691605" lon="9.7787667"><ele>851.0000000000001</ele><time>2026-03-28T14:40:14.667Z</time></trkpt><trkpt lat="44.6916967" lon="9.7787867"><ele>851.0</ele><time>2026-03-28T14:40:15.666Z</time></trkpt><trkpt lat="44.6917883" lon="9.77881"><ele>851.0</ele><time>2026-03-28T14:40:16.665Z</time></trkpt><trkpt lat="44.691865" lon="9.7788283"><ele>851.0</ele><time>2026-03-28T14:40:17.666Z</time></trkpt><trkpt lat="44.6919333" lon="9.77885"><ele>851.0000000000001</ele><time>2026-03-28T14:40:18.665Z</time></trkpt><trkpt lat="44.6920333" lon="9.7788583"><ele>851.0</ele><time>2026-03-28T14:40:20.668Z</time></trkpt><trkpt lat="44.692125" lon="9.7788533"><ele>851.5999999999999</ele><time>2026-03-28T14:40:22.667Z</time></trkpt><trkpt lat="44.6922067" lon="9.7788567"><ele>852.2</ele><time>2026-03-28T14:40:24.667Z</time></trkpt><trkpt lat="44.6922883" lon="9.778825"><ele>852.8000000000001</ele><time>2026-03-28T14:40:26.667Z</time></trkpt><trkpt lat="44.6923383" lon="9.778715"><ele>853.4000000000001</ele><time>2026-03-28T14:40:28.667Z</time></trkpt><trkpt lat="44.6923967" lon="9.778575"><ele>854.0</ele><time>2026-03-28T14:40:30.666Z</time></trkpt><trkpt lat="44.6924317" lon="9.7784667"><ele>854.0</ele><time>2026-03-28T14:40:32.667Z</time></trkpt><trkpt lat="44.692505" lon="9.7784483"><ele>854.0000000000001</ele><time>2026-03-28T14:40:35.665Z</time></trkpt><trkpt lat="44.6926017" lon="9.7785317"><ele>854.0000000000001</ele><time>2026-03-28T14:40:37.667Z</time></trkpt><trkpt lat="44.6927067" lon="9.778615"><ele>854.0</ele><time>2026-03-28T14:40:39.667Z</time></trkpt><trkpt lat="44.6928183" lon="9.7786833"><ele>854.0</ele><time>2026-03-28T14:40:41.666Z</time></trkpt><trkpt lat="44.6928817" lon="9.7787267"><ele>853.2857142857143</ele><time>2026-03-28T14:40:42.666Z</time></trkpt><trkpt lat="44.692945" lon="9.7787683"><ele>852.5714285714286</ele><time>2026-03-28T14:40:43.665Z</time></trkpt><trkpt lat="44.6930133" lon="9.7788067"><ele>851.8571428571429</ele><time>2026-03-28T14:40:44.667Z</time></trkpt><trkpt lat="44.69308" lon="9.778835"><ele>851.1428571428571</ele><time>2026-03-28T14:40:45.665Z</time></trkpt><trkpt lat="44.6931483" lon="9.7788433"><ele>850.4285714285714</ele><time>2026-03-28T14:40:46.665Z</time></trkpt><trkpt lat="44.6932183" lon="9.77883"><ele>849.7142857142858</ele><time>2026-03-28T14:40:47.669Z</time></trkpt><trkpt lat="44.6932933" lon="9.778805"><ele>849.0</ele><time>2026-03-28T14:40:48.666Z</time></trkpt><trkpt lat="44.69337" lon="9.778775"><ele>849.0</ele><time>2026-03-28T14:40:49.665Z</time></trkpt><trkpt lat="44.6934517" lon="9.778745"><ele>849.0</ele><time>2026-03-28T14:40:50.667Z</time></trkpt><trkpt lat="44.6935267" lon="9.778715"><ele>849.0</ele><time>2026-03-28T14:40:51.666Z</time></trkpt><trkpt lat="44.693595" lon="9.778695"><ele>849.0</ele><time>2026-03-28T14:40:52.666Z</time></trkpt><trkpt lat="44.6936633" lon="9.77868"><ele>849.0</ele><time>2026-03-28T14:40:53.668Z</time></trkpt><trkpt lat="44.6937267" lon="9.7786733"><ele>849.0</ele><time>2026-03-28T14:40:54.667Z</time></trkpt><trkpt lat="44.6938483" lon="9.778685"><ele>846.6</ele><time>2026-03-28T14:40:56.667Z</time></trkpt><trkpt lat="44.6939633" lon="9.7787533"><ele>844.2</ele><time>2026-03-28T14:40:58.666Z</time></trkpt><trkpt lat="44.6940183" lon="9.778815"><ele>841.8000000000001</ele><time>2026-03-28T14:40:59.667Z</time></trkpt><trkpt lat="44.6940717" lon="9.77888"><ele>839.4000000000001</ele><time>2026-03-28T14:41:00.666Z</time></trkpt><trkpt lat="44.69416" lon="9.7789733"><ele>837.0</ele><time>2026-03-28T14:41:02.667Z</time></trkpt><trkpt lat="44.6942533" lon="9.7789883"><ele>837.0</ele><time>2026-03-28T14:41:04.666Z</time></trkpt><trkpt lat="44.6943617" lon="9.7789417"><ele>837.0</ele><time>2026-03-28T14:41:06.666Z</time></trkpt><trkpt lat="44.6944733" lon="9.77887"><ele>837.0</ele><time>2026-03-28T14:41:08.67Z</time></trkpt><trkpt lat="44.6945383" lon="9.77882"><ele>837.0</ele><time>2026-03-28T14:41:09.666Z</time></trkpt><trkpt lat="44.6946567" lon="9.77873"><ele>837.0</ele><time>2026-03-28T14:41:11.665Z</time></trkpt><trkpt lat="44.694775" lon="9.7787"><ele>834.25</ele><time>2026-03-28T14:41:13.666Z</time></trkpt><trkpt lat="44.6948867" lon="9.7787483"><ele>831.5</ele><time>2026-03-28T14:41:15.666Z</time></trkpt><trkpt lat="44.6949417" lon="9.77889"><ele>828.75</ele><time>2026-03-28T14:41:17.665Z</time></trkpt><trkpt lat="44.6949167" lon="9.7790567"><ele>826.0</ele><time>2026-03-28T14:41:19.667Z</time></trkpt><trkpt lat="44.6948783" lon="9.7792017"><ele>825.9999999999999</ele><time>2026-03-28T14:41:21.667Z</time></trkpt><trkpt lat="44.6948983" lon="9.7793267"><ele>826.0</ele><time>2026-03-28T14:41:23.67Z</time></trkpt><trkpt lat="44.6949883" lon="9.7794317"><ele>826.0</ele><time>2026-03-28T14:41:25.666Z</time></trkpt><trkpt lat="44.6950367" lon="9.7795"><ele>826.0</ele><time>2026-03-28T14:41:26.666Z</time></trkpt><trkpt lat="44.6950783" lon="9.7795733"><ele>825.9999999999999</ele><time>2026-03-28T14:41:27.667Z</time></trkpt><trkpt lat="44.69514" lon="9.7796883"><ele>826.0</ele><time>2026-03-28T14:41:29.666Z</time></trkpt><trkpt lat="44.6952" lon="9.7797967"><ele>822.1666666666666</ele><time>2026-03-28T14:41:31.667Z</time></trkpt><trkpt lat="44.6952433" lon="9.7798633"><ele>818.3333333333333</ele><time>2026-03-28T14:41:32.668Z</time></trkpt><trkpt lat="44.695305" lon="9.7799067"><ele>814.5</ele><time>2026-03-28T14:41:33.667Z</time></trkpt><trkpt lat="44.6953733" lon="9.7799383"><ele>810.6666666666667</ele><time>2026-03-28T14:41:34.667Z</time></trkpt><trkpt lat="44.6954483" lon="9.77998"><ele>806.8333333333334</ele><time>2026-03-28T14:41:35.671Z</time></trkpt><trkpt lat="44.6955233" lon="9.7800283"><ele>803.0</ele><time>2026-03-28T14:41:36.666Z</time></trkpt><trkpt lat="44.6955983" lon="9.7800833"><ele>803.0000000000001</ele><time>2026-03-28T14:41:37.666Z</time></trkpt><trkpt lat="44.6956617" lon="9.78014"><ele>803.0</ele><time>2026-03-28T14:41:38.666Z</time></trkpt><trkpt lat="44.6957217" lon="9.7802083"><ele>803.0</ele><time>2026-03-28T14:41:39.666Z</time></trkpt><trkpt lat="44.6957667" lon="9.7802983"><ele>803.0</ele><time>2026-03-28T14:41:40.666Z</time></trkpt><trkpt lat="44.695805" lon="9.7803817"><ele>803.0000000000001</ele><time>2026-03-28T14:41:41.667Z</time></trkpt><trkpt lat="44.69584" lon="9.7804617"><ele>803.0</ele><time>2026-03-28T14:41:42.665Z</time></trkpt><trkpt lat="44.69591" lon="9.7805917"><ele>801.0000000000001</ele><time>2026-03-28T14:41:44.666Z</time></trkpt><trkpt lat="44.6959967" lon="9.7806817"><ele>799.0</ele><time>2026-03-28T14:41:46.666Z</time></trkpt><trkpt lat="44.6960533" lon="9.7807267"><ele>797.0</ele><time>2026-03-28T14:41:47.665Z</time></trkpt><trkpt lat="44.6961067" lon="9.78078"><ele>795.0</ele><time>2026-03-28T14:41:48.668Z</time></trkpt><trkpt lat="44.69617" lon="9.7808233"><ele>793.0000000000001</ele><time>2026-03-28T14:41:49.668Z</time></trkpt><trkpt lat="44.696235" lon="9.7808717"><ele>791.0</ele><time>2026-03-28T14:41:50.667Z</time></trkpt><trkpt lat="44.696295" lon="9.78093"><ele>791.0</ele><time>2026-03-28T14:41:51.667Z</time></trkpt><trkpt lat="44.6963483" lon="9.7809933"><ele>791.0</ele><time>2026-03-28T14:41:52.667Z</time></trkpt><trkpt lat="44.6964033" lon="9.78106"><ele>791.0</ele><time>2026-03-28T14:41:53.668Z</time></trkpt><trkpt lat="44.6964567" lon="9.781125"><ele>791.0</ele><time>2026-03-28T14:41:54.666Z</time></trkpt><trkpt lat="44.696505" lon="9.7812017"><ele>791.0</ele><time>2026-03-28T14:41:55.666Z</time></trkpt><trkpt lat="44.6965333" lon="9.7812817"><ele>791.0</ele><time>2026-03-28T14:41:56.666Z</time></trkpt><trkpt lat="44.6965583" lon="9.7813633"><ele>791.0</ele><time>2026-03-28T14:41:57.666Z</time></trkpt><trkpt lat="44.6965983" lon="9.7815317"><ele>787.8333333333334</ele><time>2026-03-28T14:41:59.667Z</time></trkpt><trkpt lat="44.6966067" lon="9.7816217"><ele>784.6666666666667</ele><time>2026-03-28T14:42:00.674Z</time></trkpt><trkpt lat="44.6966083" lon="9.7817133"><ele>781.5</ele><time>2026-03-28T14:42:01.666Z</time></trkpt><trkpt lat="44.6966017" lon="9.7818133"><ele>778.3333333333333</ele><time>2026-03-28T14:42:02.667Z</time></trkpt><trkpt lat="44.6965883" lon="9.781905"><ele>775.1666666666666</ele><time>2026-03-28T14:42:03.666Z</time></trkpt><trkpt lat="44.69653" lon="9.782015"><ele>772.0</ele><time>2026-03-28T14:42:05.668Z</time></trkpt><trkpt lat="44.6964817" lon="9.7821433"><ele>768.6</ele><time>2026-03-28T14:42:07.666Z</time></trkpt><trkpt lat="44.69643" lon="9.7823"><ele>765.2</ele><time>2026-03-28T14:42:09.667Z</time></trkpt><trkpt lat="44.6963733" lon="9.78246"><ele>761.8</ele><time>2026-03-28T14:42:11.666Z</time></trkpt><trkpt lat="44.6963417" lon="9.78255"><ele>758.4</ele><time>2026-03-28T14:42:12.666Z</time></trkpt><trkpt lat="44.6963083" lon="9.7826417"><ele>755.0</ele><time>2026-03-28T14:42:13.666Z</time></trkpt><trkpt lat="44.6962833" lon="9.7827317"><ele>752.3333333333333</ele><time>2026-03-28T14:42:14.666Z</time></trkpt><trkpt lat="44.6962617" lon="9.7828267"><ele>749.6666666666666</ele><time>2026-03-28T14:42:15.666Z</time></trkpt><trkpt lat="44.69626" lon="9.7829583"><ele>747.0</ele><time>2026-03-28T14:42:17.665Z</time></trkpt><trkpt lat="44.6963567" lon="9.782965"><ele>744.3333333333334</ele><time>2026-03-28T14:42:20.667Z</time></trkpt><trkpt lat="44.6964567" lon="9.7830083"><ele>741.6666666666667</ele><time>2026-03-28T14:42:22.666Z</time></trkpt><trkpt lat="44.6964933" lon="9.7830833"><ele>739.0</ele><time>2026-03-28T14:42:23.668Z</time></trkpt><trkpt lat="44.6965767" lon="9.7832317"><ele>739.0</ele><time>2026-03-28T14:42:25.666Z</time></trkpt><trkpt lat="44.6966133" lon="9.7833183"><ele>739.0</ele><time>2026-03-28T14:42:26.666Z</time></trkpt><trkpt lat="44.6966517" lon="9.78339"><ele>739.0</ele><time>2026-03-28T14:42:27.666Z</time></trkpt><trkpt lat="44.696705" lon="9.7835067"><ele>739.0</ele><time>2026-03-28T14:42:29.666Z</time></trkpt><trkpt lat="44.6967717" lon="9.7836133"><ele>739.0</ele><time>2026-03-28T14:42:31.666Z</time></trkpt><trkpt lat="44.6968383" lon="9.7837383"><ele>739.0</ele><time>2026-03-28T14:42:33.666Z</time></trkpt><trkpt lat="44.69688" lon="9.7838067"><ele>736.5</ele><time>2026-03-28T14:42:34.666Z</time></trkpt><trkpt lat="44.696915" lon="9.7838817"><ele>734.0</ele><time>2026-03-28T14:42:35.667Z</time></trkpt><trkpt lat="44.6969533" lon="9.78405"><ele>731.5</ele><time>2026-03-28T14:42:37.667Z</time></trkpt><trkpt lat="44.6969667" lon="9.7841433"><ele>729.0</ele><time>2026-03-28T14:42:38.667Z</time></trkpt><trkpt lat="44.6969933" lon="9.784235"><ele>726.5</ele><time>2026-03-28T14:42:39.666Z</time></trkpt><trkpt lat="44.69704" lon="9.78431"><ele>724.0</ele><time>2026-03-28T14:42:40.667Z</time></trkpt><trkpt lat="44.6970967" lon="9.7843633"><ele>722.8571428571429</ele><time>2026-03-28T14:42:41.666Z</time></trkpt><trkpt lat="44.6971633" lon="9.7843917"><ele>721.7142857142857</ele><time>2026-03-28T14:42:42.666Z</time></trkpt><trkpt lat="44.6972267" lon="9.7843933"><ele>720.5714285714287</ele><time>2026-03-28T14:42:43.667Z</time></trkpt><trkpt lat="44.6972983" lon="9.78437"><ele>719.4285714285714</ele><time>2026-03-28T14:42:44.666Z</time></trkpt><trkpt lat="44.6973683" lon="9.7843483"><ele>718.2857142857143</ele><time>2026-03-28T14:42:45.666Z</time></trkpt><trkpt lat="44.6974333" lon="9.7843267"><ele>717.1428571428572</ele><time>2026-03-28T14:42:46.666Z</time></trkpt><trkpt lat="44.6974967" lon="9.7843017"><ele>716.0</ele><time>2026-03-28T14:42:47.666Z</time></trkpt><trkpt lat="44.69756" lon="9.7842867"><ele>716.0</ele><time>2026-03-28T14:42:48.665Z</time></trkpt><trkpt lat="44.6976233" lon="9.78428"><ele>716.0</ele><time>2026-03-28T14:42:49.666Z</time></trkpt><trkpt lat="44.6976883" lon="9.7842717"><ele>716.0</ele><time>2026-03-28T14:42:50.665Z</time></trkpt><trkpt lat="44.697755" lon="9.784275"><ele>716.0</ele><time>2026-03-28T14:42:51.666Z</time></trkpt><trkpt lat="44.6978633" lon="9.78433"><ele>716.0</ele><time>2026-03-28T14:42:53.668Z</time></trkpt><trkpt lat="44.6979167" lon="9.78438"><ele>716.0</ele><time>2026-03-28T14:42:54.666Z</time></trkpt><trkpt lat="44.6979783" lon="9.78445"><ele>713.3333333333333</ele><time>2026-03-28T14:42:55.666Z</time></trkpt><trkpt lat="44.698035" lon="9.7845317"><ele>710.6666666666666</ele><time>2026-03-28T14:42:56.667Z</time></trkpt><trkpt lat="44.698085" lon="9.7845983"><ele>708.0</ele><time>2026-03-28T14:42:57.668Z</time></trkpt><trkpt lat="44.6981433" lon="9.78465"><ele>705.3333333333334</ele><time>2026-03-28T14:42:58.665Z</time></trkpt><trkpt lat="44.69825" lon="9.784705"><ele>702.6666666666667</ele><time>2026-03-28T14:43:00.666Z</time></trkpt><trkpt lat="44.6983433" lon="9.7847633"><ele>700.0</ele><time>2026-03-28T14:43:02.665Z</time></trkpt><trkpt lat="44.69841" lon="9.7849033"><ele>700.0</ele><time>2026-03-28T14:43:04.667Z</time></trkpt><trkpt lat="44.6984467" lon="9.7849783"><ele>700.0</ele><time>2026-03-28T14:43:05.666Z</time></trkpt><trkpt lat="44.6985433" lon="9.7850517"><ele>700.0</ele><time>2026-03-28T14:43:07.666Z</time></trkpt><trkpt lat="44.6986117" lon="9.78505"><ele>700.0</ele><time>2026-03-28T14:43:08.67Z</time></trkpt><trkpt lat="44.6986933" lon="9.7850233"><ele>700.0</ele><time>2026-03-28T14:43:09.665Z</time></trkpt><trkpt lat="44.6987683" lon="9.7849867"><ele>700.0</ele><time>2026-03-28T14:43:10.668Z</time></trkpt><trkpt lat="44.6988333" lon="9.784955"><ele>699.2</ele><time>2026-03-28T14:43:11.665Z</time></trkpt><trkpt lat="44.6989367" lon="9.7849133"><ele>698.4</ele><time>2026-03-28T14:43:13.665Z</time></trkpt><trkpt lat="44.6990383" lon="9.7849133"><ele>697.5999999999999</ele><time>2026-03-28T14:43:15.665Z</time></trkpt><trkpt lat="44.699145" lon="9.7849917"><ele>696.8</ele><time>2026-03-28T14:43:17.666Z</time></trkpt><trkpt lat="44.6992017" lon="9.78507"><ele>696.0</ele><time>2026-03-28T14:43:18.665Z</time></trkpt><trkpt lat="44.6992467" lon="9.785155"><ele>694.5</ele><time>2026-03-28T14:43:19.665Z</time></trkpt><trkpt lat="44.699285" lon="9.7852517"><ele>693.0</ele><time>2026-03-28T14:43:20.667Z</time></trkpt><trkpt lat="44.69932" lon="9.7853633"><ele>691.5</ele><time>2026-03-28T14:43:21.666Z</time></trkpt><trkpt lat="44.6993583" lon="9.78548"><ele>690.0</ele><time>2026-03-28T14:43:22.666Z</time></trkpt><trkpt lat="44.699395" lon="9.7855967"><ele>688.5</ele><time>2026-03-28T14:43:23.667Z</time></trkpt><trkpt lat="44.6994383" lon="9.7857033"><ele>687.0</ele><time>2026-03-28T14:43:24.665Z</time></trkpt><trkpt lat="44.69949" lon="9.7858"><ele>685.8</ele><time>2026-03-28T14:43:25.666Z</time></trkpt><trkpt lat="44.6995533" lon="9.7858883"><ele>684.6</ele><time>2026-03-28T14:43:26.666Z</time></trkpt><trkpt lat="44.6996283" lon="9.785965"><ele>683.4</ele><time>2026-03-28T14:43:27.665Z</time></trkpt><trkpt lat="44.6997067" lon="9.78605"><ele>682.1999999999999</ele><time>2026-03-28T14:43:28.666Z</time></trkpt><trkpt lat="44.699785" lon="9.7861433"><ele>681.0</ele><time>2026-03-28T14:43:29.666Z</time></trkpt><trkpt lat="44.6998633" lon="9.7862267"><ele>679.1666666666666</ele><time>2026-03-28T14:43:30.665Z</time></trkpt><trkpt lat="44.6999267" lon="9.7863167"><ele>677.3333333333334</ele><time>2026-03-28T14:43:31.666Z</time></trkpt><trkpt lat="44.6999833" lon="9.7864"><ele>675.5</ele><time>2026-03-28T14:43:32.666Z</time></trkpt><trkpt lat="44.7000467" lon="9.7864733"><ele>673.6666666666667</ele><time>2026-03-28T14:43:33.666Z</time></trkpt><trkpt lat="44.7001117" lon="9.78654"><ele>671.8333333333334</ele><time>2026-03-28T14:43:34.668Z</time></trkpt><trkpt lat="44.7001783" lon="9.7866067"><ele>670.0</ele><time>2026-03-28T14:43:35.666Z</time></trkpt><trkpt lat="44.7002333" lon="9.7866667"><ele>670.0</ele><time>2026-03-28T14:43:36.665Z</time></trkpt><trkpt lat="44.700285" lon="9.7868017"><ele>670.0</ele><time>2026-03-28T14:43:38.666Z</time></trkpt><trkpt lat="44.700295" lon="9.7868917"><ele>670.0</ele><time>2026-03-28T14:43:39.666Z</time></trkpt><trkpt lat="44.7003" lon="9.78701"><ele>670.0</ele><time>2026-03-28T14:43:40.666Z</time></trkpt><trkpt lat="44.70031" lon="9.787135"><ele>670.0</ele><time>2026-03-28T14:43:41.666Z</time></trkpt><trkpt lat="44.7003233" lon="9.7872617"><ele>670.0</ele><time>2026-03-28T14:43:42.665Z</time></trkpt><trkpt lat="44.7003283" lon="9.7873767"><ele>668.8333333333334</ele><time>2026-03-28T14:43:43.666Z</time></trkpt><trkpt lat="44.7003233" lon="9.7874833"><ele>667.6666666666667</ele><time>2026-03-28T14:43:44.665Z</time></trkpt><trkpt lat="44.7003117" lon="9.787575"><ele>666.5</ele><time>2026-03-28T14:43:45.666Z</time></trkpt><trkpt lat="44.7003017" lon="9.7876633"><ele>665.3333333333334</ele><time>2026-03-28T14:43:46.666Z</time></trkpt><trkpt lat="44.70028" lon="9.7878233"><ele>664.1666666666666</ele><time>2026-03-28T14:43:48.665Z</time></trkpt><trkpt lat="44.7002783" lon="9.7879467"><ele>663.0</ele><time>2026-03-28T14:43:50.667Z</time></trkpt><trkpt lat="44.7002933" lon="9.7880333"><ele>661.0</ele><time>2026-03-28T14:43:52.665Z</time></trkpt><trkpt lat="44.7003517" lon="9.788135"><ele>659.0</ele><time>2026-03-28T14:44:02.666Z</time></trkpt><trkpt lat="44.7004617" lon="9.7880917"><ele>657.0</ele><time>2026-03-28T14:44:04.665Z</time></trkpt><trkpt lat="44.700525" lon="9.7880617"><ele>655.0</ele><time>2026-03-28T14:44:05.667Z</time></trkpt><trkpt lat="44.700595" lon="9.7880417"><ele>653.0</ele><time>2026-03-28T14:44:06.666Z</time></trkpt><trkpt lat="44.7006767" lon="9.788035"><ele>651.0</ele><time>2026-03-28T14:44:07.67Z</time></trkpt><trkpt lat="44.7007683" lon="9.7880517"><ele>651.0</ele><time>2026-03-28T14:44:08.667Z</time></trkpt><trkpt lat="44.7008683" lon="9.7880767"><ele>651.0</ele><time>2026-03-28T14:44:09.666Z</time></trkpt><trkpt lat="44.700965" lon="9.7881033"><ele>651.0</ele><time>2026-03-28T14:44:10.665Z</time></trkpt><trkpt lat="44.7010633" lon="9.7881333"><ele>651.0</ele><time>2026-03-28T14:44:11.665Z</time></trkpt><trkpt lat="44.7011567" lon="9.7881683"><ele>651.0</ele><time>2026-03-28T14:44:12.666Z</time></trkpt><trkpt lat="44.70125" lon="9.7882133"><ele>651.25</ele><time>2026-03-28T14:44:13.666Z</time></trkpt><trkpt lat="44.7013467" lon="9.7882783"><ele>651.5</ele><time>2026-03-28T14:44:14.665Z</time></trkpt><trkpt lat="44.7014467" lon="9.7883583"><ele>651.75</ele><time>2026-03-28T14:44:15.666Z</time></trkpt><trkpt lat="44.701545" lon="9.78844"><ele>652.0</ele><time>2026-03-28T14:44:16.666Z</time></trkpt><trkpt lat="44.7016467" lon="9.7885183"><ele>652.0</ele><time>2026-03-28T14:44:17.665Z</time></trkpt><trkpt lat="44.7017433" lon="9.7885933"><ele>652.0</ele><time>2026-03-28T14:44:18.665Z</time></trkpt><trkpt lat="44.7018367" lon="9.788665"><ele>652.0</ele><time>2026-03-28T14:44:19.666Z</time></trkpt><trkpt lat="44.701925" lon="9.7887283"><ele>652.0</ele><time>2026-03-28T14:44:20.665Z</time></trkpt><trkpt lat="44.7020133" lon="9.78879"><ele>652.0</ele><time>2026-03-28T14:44:21.666Z</time></trkpt><trkpt lat="44.7021017" lon="9.7888483"><ele>652.3333333333334</ele><time>2026-03-28T14:44:22.665Z</time></trkpt><trkpt lat="44.702185" lon="9.788905"><ele>652.6666666666667</ele><time>2026-03-28T14:44:23.666Z</time></trkpt><trkpt lat="44.7022633" lon="9.78896"><ele>653.0</ele><time>2026-03-28T14:44:24.666Z</time></trkpt><trkpt lat="44.702335" lon="9.7890233"><ele>653.3333333333334</ele><time>2026-03-28T14:44:25.665Z</time></trkpt><trkpt lat="44.7024033" lon="9.789075"><ele>653.6666666666666</ele><time>2026-03-28T14:44:26.666Z</time></trkpt><trkpt lat="44.70248" lon="9.789115"><ele>654.0</ele><time>2026-03-28T14:44:27.665Z</time></trkpt><trkpt lat="44.7025683" lon="9.789155"><ele>654.0</ele><time>2026-03-28T14:44:28.666Z</time></trkpt><trkpt lat="44.702665" lon="9.7891983"><ele>654.0</ele><time>2026-03-28T14:44:29.667Z</time></trkpt><trkpt lat="44.7027683" lon="9.7892433"><ele>654.0</ele><time>2026-03-28T14:44:30.667Z</time></trkpt><trkpt lat="44.70287" lon="9.7892883"><ele>654.0</ele><time>2026-03-28T14:44:31.668Z</time></trkpt><trkpt lat="44.7029717" lon="9.789335"><ele>654.0</ele><time>2026-03-28T14:44:32.669Z</time></trkpt><trkpt lat="44.7030733" lon="9.7893817"><ele>654.0</ele><time>2026-03-28T14:44:33.668Z</time></trkpt><trkpt lat="44.7031717" lon="9.7894367"><ele>654.0</ele><time>2026-03-28T14:44:34.669Z</time></trkpt><trkpt lat="44.7032667" lon="9.7895067"><ele>654.0</ele><time>2026-03-28T14:44:35.669Z</time></trkpt><trkpt lat="44.7033583" lon="9.7895967"><ele>654.0</ele><time>2026-03-28T14:44:36.668Z</time></trkpt><trkpt lat="44.7034433" lon="9.7897117"><ele>654.0</ele><time>2026-03-28T14:44:37.669Z</time></trkpt><trkpt lat="44.7035267" lon="9.7898433"><ele>654.75</ele><time>2026-03-28T14:44:38.669Z</time></trkpt><trkpt lat="44.7036133" lon="9.789975"><ele>655.5</ele><time>2026-03-28T14:44:39.667Z</time></trkpt><trkpt lat="44.703705" lon="9.7900967"><ele>656.25</ele><time>2026-03-28T14:44:40.667Z</time></trkpt><trkpt lat="44.7037983" lon="9.7902067"><ele>657.0</ele><time>2026-03-28T14:44:41.674Z</time></trkpt><trkpt lat="44.7038933" lon="9.7903083"><ele>657.0</ele><time>2026-03-28T14:44:42.668Z</time></trkpt><trkpt lat="44.7039883" lon="9.7904"><ele>657.0</ele><time>2026-03-28T14:44:43.669Z</time></trkpt><trkpt lat="44.7040867" lon="9.7904817"><ele>657.0</ele><time>2026-03-28T14:44:44.669Z</time></trkpt><trkpt lat="44.7041883" lon="9.790555"><ele>657.0</ele><time>2026-03-28T14:44:45.667Z</time></trkpt><trkpt lat="44.7042933" lon="9.7906233"><ele>657.0</ele><time>2026-03-28T14:44:46.665Z</time></trkpt><trkpt lat="44.7043983" lon="9.79069"><ele>657.0</ele><time>2026-03-28T14:44:47.672Z</time></trkpt><trkpt lat="44.7045067" lon="9.7907633"><ele>657.0</ele><time>2026-03-28T14:44:48.665Z</time></trkpt><trkpt lat="44.7046167" lon="9.7908433"><ele>657.0</ele><time>2026-03-28T14:44:49.666Z</time></trkpt><trkpt lat="44.7047283" lon="9.7909283"><ele>656.4000000000001</ele><time>2026-03-28T14:44:50.666Z</time></trkpt><trkpt lat="44.704835" lon="9.79101"><ele>655.8000000000001</ele><time>2026-03-28T14:44:51.665Z</time></trkpt><trkpt lat="44.7049367" lon="9.7910817"><ele>655.2</ele><time>2026-03-28T14:44:52.666Z</time></trkpt><trkpt lat="44.705035" lon="9.7911383"><ele>654.6</ele><time>2026-03-28T14:44:53.666Z</time></trkpt><trkpt lat="44.7051333" lon="9.791185"><ele>654.0</ele><time>2026-03-28T14:44:54.665Z</time></trkpt><trkpt lat="44.7052333" lon="9.7912233"><ele>653.6666666666666</ele><time>2026-03-28T14:44:55.665Z</time></trkpt><trkpt lat="44.70533" lon="9.7912617"><ele>653.3333333333334</ele><time>2026-03-28T14:44:56.666Z</time></trkpt><trkpt lat="44.7054167" lon="9.7912917"><ele>653.0</ele><time>2026-03-28T14:44:57.666Z</time></trkpt><trkpt lat="44.7054883" lon="9.791315"><ele>652.6666666666667</ele><time>2026-03-28T14:44:58.668Z</time></trkpt><trkpt lat="44.7055517" lon="9.7913367"><ele>652.3333333333334</ele><time>2026-03-28T14:44:59.667Z</time></trkpt><trkpt lat="44.7056167" lon="9.7913517"><ele>652.0</ele><time>2026-03-28T14:45:00.667Z</time></trkpt><trkpt lat="44.7056833" lon="9.7913533"><ele>652.0</ele><time>2026-03-28T14:45:01.668Z</time></trkpt><trkpt lat="44.7057567" lon="9.7913317"><ele>652.0</ele><time>2026-03-28T14:45:02.667Z</time></trkpt><trkpt lat="44.7058367" lon="9.791285"><ele>652.0</ele><time>2026-03-28T14:45:03.666Z</time></trkpt><trkpt lat="44.705915" lon="9.7912417"><ele>652.0</ele><time>2026-03-28T14:45:04.667Z</time></trkpt><trkpt lat="44.7059917" lon="9.7912067"><ele>652.0</ele><time>2026-03-28T14:45:05.665Z</time></trkpt><trkpt lat="44.70606" lon="9.79116"><ele>652.0</ele><time>2026-03-28T14:45:06.666Z</time></trkpt><trkpt lat="44.70613" lon="9.7911117"><ele>652.1666666666667</ele><time>2026-03-28T14:45:07.665Z</time></trkpt><trkpt lat="44.7061983" lon="9.79106"><ele>652.3333333333334</ele><time>2026-03-28T14:45:08.667Z</time></trkpt><trkpt lat="44.7062633" lon="9.7910033"><ele>652.5</ele><time>2026-03-28T14:45:09.666Z</time></trkpt><trkpt lat="44.7063217" lon="9.7909317"><ele>652.6666666666666</ele><time>2026-03-28T14:45:10.666Z</time></trkpt><trkpt lat="44.7063717" lon="9.7908517"><ele>652.8333333333333</ele><time>2026-03-28T14:45:11.666Z</time></trkpt><trkpt lat="44.7064067" lon="9.79076"><ele>653.0</ele><time>2026-03-28T14:45:12.666Z</time></trkpt><trkpt lat="44.7064333" lon="9.7906017"><ele>654.0</ele><time>2026-03-28T14:45:14.666Z</time></trkpt><trkpt lat="44.70643" lon="9.7904583"><ele>655.0</ele><time>2026-03-28T14:45:16.665Z</time></trkpt><trkpt lat="44.7064267" lon="9.7903583"><ele>656.0</ele><time>2026-03-28T14:45:17.665Z</time></trkpt><trkpt lat="44.706425" lon="9.7902283"><ele>657.0</ele><time>2026-03-28T14:45:18.665Z</time></trkpt><trkpt lat="44.70642" lon="9.7900883"><ele>658.0</ele><time>2026-03-28T14:45:19.665Z</time></trkpt><trkpt lat="44.7064167" lon="9.7899583"><ele>659.3333333333334</ele><time>2026-03-28T14:45:20.666Z</time></trkpt><trkpt lat="44.7064133" lon="9.7898383"><ele>660.6666666666667</ele><time>2026-03-28T14:45:21.666Z</time></trkpt><trkpt lat="44.706425" lon="9.789725"><ele>662.0</ele><time>2026-03-28T14:45:22.665Z</time></trkpt><trkpt lat="44.706465" lon="9.789615"><ele>663.3333333333334</ele><time>2026-03-28T14:45:23.666Z</time></trkpt><trkpt lat="44.706525" lon="9.7895233"><ele>664.6666666666666</ele><time>2026-03-28T14:45:24.666Z</time></trkpt><trkpt lat="44.7065967" lon="9.78946"><ele>666.0</ele><time>2026-03-28T14:45:25.666Z</time></trkpt><trkpt lat="44.70667" lon="9.7894267"><ele>666.0</ele><time>2026-03-28T14:45:26.667Z</time></trkpt><trkpt lat="44.70675" lon="9.789415"><ele>666.0</ele><time>2026-03-28T14:45:27.667Z</time></trkpt><trkpt lat="44.7068433" lon="9.789415"><ele>666.0</ele><time>2026-03-28T14:45:28.666Z</time></trkpt><trkpt lat="44.7069467" lon="9.7894133"><ele>666.0</ele><time>2026-03-28T14:45:29.666Z</time></trkpt><trkpt lat="44.707065" lon="9.789405"><ele>666.0</ele><time>2026-03-28T14:45:30.666Z</time></trkpt><trkpt lat="44.70718" lon="9.78939"><ele>666.25</ele><time>2026-03-28T14:45:31.667Z</time></trkpt><trkpt lat="44.7072933" lon="9.7893733"><ele>666.5</ele><time>2026-03-28T14:45:32.666Z</time></trkpt><trkpt lat="44.70741" lon="9.7893617"><ele>666.75</ele><time>2026-03-28T14:45:33.666Z</time></trkpt><trkpt lat="44.7075317" lon="9.7893467"><ele>667.0</ele><time>2026-03-28T14:45:34.667Z</time></trkpt><trkpt lat="44.707655" lon="9.789335"><ele>671.25</ele><time>2026-03-28T14:45:35.666Z</time></trkpt><trkpt lat="44.7077817" lon="9.7893183"><ele>675.5</ele><time>2026-03-28T14:45:36.67Z</time></trkpt><trkpt lat="44.70791" lon="9.7893017"><ele>679.75</ele><time>2026-03-28T14:45:37.665Z</time></trkpt><trkpt lat="44.70804" lon="9.7892833"><ele>684.0</ele><time>2026-03-28T14:45:38.667Z</time></trkpt><trkpt lat="44.7081767" lon="9.78927"><ele>684.0</ele><time>2026-03-28T14:45:39.666Z</time></trkpt><trkpt lat="44.7083117" lon="9.7892533"><ele>684.0</ele><time>2026-03-28T14:45:40.665Z</time></trkpt><trkpt lat="44.70845" lon="9.7892383"><ele>684.0</ele><time>2026-03-28T14:45:41.666Z</time></trkpt><trkpt lat="44.7085867" lon="9.7892267"><ele>684.0</ele><time>2026-03-28T14:45:42.666Z</time></trkpt><trkpt lat="44.7087183" lon="9.7892117"><ele>685.0</ele><time>2026-03-28T14:45:43.668Z</time></trkpt><trkpt lat="44.7088433" lon="9.7891967"><ele>686.0</ele><time>2026-03-28T14:45:44.665Z</time></trkpt><trkpt lat="44.7089583" lon="9.7891867"><ele>687.0</ele><time>2026-03-28T14:45:45.666Z</time></trkpt><trkpt lat="44.709065" lon="9.7891767"><ele>688.0</ele><time>2026-03-28T14:45:46.666Z</time></trkpt><trkpt lat="44.7091683" lon="9.7891633"><ele>688.0</ele><time>2026-03-28T14:45:47.666Z</time></trkpt><trkpt lat="44.7092783" lon="9.7891333"><ele>688.0</ele><time>2026-03-28T14:45:48.666Z</time></trkpt><trkpt lat="44.7093917" lon="9.78909"><ele>688.0</ele><time>2026-03-28T14:45:49.666Z</time></trkpt><trkpt lat="44.70951" lon="9.7890317"><ele>688.0</ele><time>2026-03-28T14:45:50.666Z</time></trkpt><trkpt lat="44.70963" lon="9.7889717"><ele>689.5</ele><time>2026-03-28T14:45:51.667Z</time></trkpt><trkpt lat="44.70975" lon="9.7889067"><ele>691.0</ele><time>2026-03-28T14:45:52.667Z</time></trkpt><trkpt lat="44.7098767" lon="9.78884"><ele>692.5</ele><time>2026-03-28T14:45:53.666Z</time></trkpt><trkpt lat="44.7100033" lon="9.788775"><ele>694.0</ele><time>2026-03-28T14:45:54.666Z</time></trkpt><trkpt lat="44.710125" lon="9.7887117"><ele>694.75</ele><time>2026-03-28T14:45:55.666Z</time></trkpt><trkpt lat="44.7102483" lon="9.78866"><ele>695.5</ele><time>2026-03-28T14:45:56.665Z</time></trkpt><trkpt lat="44.7103683" lon="9.7886317"><ele>696.25</ele><time>2026-03-28T14:45:57.666Z</time></trkpt><trkpt lat="44.7104883" lon="9.7886317"><ele>697.0</ele><time>2026-03-28T14:45:58.666Z</time></trkpt><trkpt lat="44.710615" lon="9.7886467"><ele>697.0</ele><time>2026-03-28T14:45:59.665Z</time></trkpt><trkpt lat="44.7107383" lon="9.78867"><ele>697.0</ele><time>2026-03-28T14:46:00.665Z</time></trkpt><trkpt lat="44.7108633" lon="9.7887017"><ele>697.0</ele><time>2026-03-28T14:46:01.667Z</time></trkpt><trkpt lat="44.7109867" lon="9.78874"><ele>697.0</ele><time>2026-03-28T14:46:02.667Z</time></trkpt><trkpt lat="44.7110967" lon="9.788805"><ele>700.75</ele><time>2026-03-28T14:46:03.666Z</time></trkpt><trkpt lat="44.7111933" lon="9.7888967"><ele>704.5</ele><time>2026-03-28T14:46:04.667Z</time></trkpt><trkpt lat="44.7112783" lon="9.7890133"><ele>708.25</ele><time>2026-03-28T14:46:05.67Z</time></trkpt><trkpt lat="44.7113483" lon="9.7891483"><ele>712.0</ele><time>2026-03-28T14:46:06.669Z</time></trkpt><trkpt lat="44.7114117" lon="9.7893"><ele>712.25</ele><time>2026-03-28T14:46:07.667Z</time></trkpt><trkpt lat="44.711475" lon="9.7894533"><ele>712.5</ele><time>2026-03-28T14:46:08.668Z</time></trkpt><trkpt lat="44.711535" lon="9.7896033"><ele>712.75</ele><time>2026-03-28T14:46:09.668Z</time></trkpt><trkpt lat="44.7115983" lon="9.7897567"><ele>713.0</ele><time>2026-03-28T14:46:10.668Z</time></trkpt><trkpt lat="44.711665" lon="9.7899167"><ele>713.0</ele><time>2026-03-28T14:46:11.665Z</time></trkpt><trkpt lat="44.7117317" lon="9.7900717"><ele>713.0</ele><time>2026-03-28T14:46:12.666Z</time></trkpt><trkpt lat="44.7117967" lon="9.7902183"><ele>713.0</ele><time>2026-03-28T14:46:13.666Z</time></trkpt><trkpt lat="44.71187" lon="9.79036"><ele>713.0</ele><time>2026-03-28T14:46:14.667Z</time></trkpt><trkpt lat="44.7119433" lon="9.7905017"><ele>715.0</ele><time>2026-03-28T14:46:15.665Z</time></trkpt><trkpt lat="44.7120117" lon="9.79065"><ele>717.0</ele><time>2026-03-28T14:46:16.667Z</time></trkpt><trkpt lat="44.712085" lon="9.7908"><ele>719.0</ele><time>2026-03-28T14:46:17.667Z</time></trkpt><trkpt lat="44.71216" lon="9.79095"><ele>721.0</ele><time>2026-03-28T14:46:18.665Z</time></trkpt><trkpt lat="44.7122317" lon="9.791095"><ele>721.0</ele><time>2026-03-28T14:46:19.666Z</time></trkpt><trkpt lat="44.7122983" lon="9.79124"><ele>721.0</ele><time>2026-03-28T14:46:20.666Z</time></trkpt><trkpt lat="44.71237" lon="9.791385"><ele>721.0</ele><time>2026-03-28T14:46:21.665Z</time></trkpt><trkpt lat="44.7124433" lon="9.7915317"><ele>721.0</ele><time>2026-03-28T14:46:22.666Z</time></trkpt><trkpt lat="44.7125117" lon="9.79168"><ele>721.0</ele><time>2026-03-28T14:46:23.666Z</time></trkpt><trkpt lat="44.7125717" lon="9.791835"><ele>721.0</ele><time>2026-03-28T14:46:24.665Z</time></trkpt><trkpt lat="44.71262" lon="9.7920017"><ele>721.0</ele><time>2026-03-28T14:46:25.666Z</time></trkpt><trkpt lat="44.71265" lon="9.7921767"><ele>721.0</ele><time>2026-03-28T14:46:26.666Z</time></trkpt><trkpt lat="44.71267" lon="9.79236"><ele>722.0</ele><time>2026-03-28T14:46:27.666Z</time></trkpt><trkpt lat="44.712685" lon="9.792545"><ele>723.0</ele><time>2026-03-28T14:46:28.665Z</time></trkpt><trkpt lat="44.7126967" lon="9.7927333"><ele>724.0</ele><time>2026-03-28T14:46:29.665Z</time></trkpt><trkpt lat="44.7127133" lon="9.79292"><ele>725.0</ele><time>2026-03-28T14:46:30.665Z</time></trkpt><trkpt lat="44.7127333" lon="9.7931017"><ele>725.75</ele><time>2026-03-28T14:46:31.666Z</time></trkpt><trkpt lat="44.7127383" lon="9.7932817"><ele>726.5</ele><time>2026-03-28T14:46:32.667Z</time></trkpt><trkpt lat="44.712755" lon="9.7934517"><ele>727.25</ele><time>2026-03-28T14:46:33.665Z</time></trkpt><trkpt lat="44.7127717" lon="9.793615"><ele>728.0</ele><time>2026-03-28T14:46:34.666Z</time></trkpt><trkpt lat="44.7127783" lon="9.7937783"><ele>731.0</ele><time>2026-03-28T14:46:35.667Z</time></trkpt><trkpt lat="44.7127767" lon="9.793945"><ele>734.0</ele><time>2026-03-28T14:46:36.667Z</time></trkpt><trkpt lat="44.712765" lon="9.7941083"><ele>737.0</ele><time>2026-03-28T14:46:37.668Z</time></trkpt><trkpt lat="44.7127617" lon="9.7942533"><ele>740.0</ele><time>2026-03-28T14:46:38.668Z</time></trkpt><trkpt lat="44.71277" lon="9.79438"><ele>743.0</ele><time>2026-03-28T14:46:39.666Z</time></trkpt><trkpt lat="44.7127983" lon="9.794495"><ele>743.0</ele><time>2026-03-28T14:46:40.664Z</time></trkpt><trkpt lat="44.712845" lon="9.7945867"><ele>743.0</ele><time>2026-03-28T14:46:41.668Z</time></trkpt><trkpt lat="44.7129083" lon="9.7946383"><ele>743.0</ele><time>2026-03-28T14:46:42.665Z</time></trkpt><trkpt lat="44.7130067" lon="9.7946117"><ele>743.0</ele><time>2026-03-28T14:46:43.665Z</time></trkpt><trkpt lat="44.71309" lon="9.794575"><ele>743.0</ele><time>2026-03-28T14:46:44.667Z</time></trkpt><trkpt lat="44.7131983" lon="9.794475"><ele>743.0</ele><time>2026-03-28T14:46:45.666Z</time></trkpt><trkpt lat="44.7133083" lon="9.7943717"><ele>743.0</ele><time>2026-03-28T14:46:46.666Z</time></trkpt><trkpt lat="44.7134067" lon="9.794285"><ele>743.0</ele><time>2026-03-28T14:46:47.665Z</time></trkpt><trkpt lat="44.7134917" lon="9.79422"><ele>743.0</ele><time>2026-03-28T14:46:48.666Z</time></trkpt><trkpt lat="44.713565" lon="9.794185"><ele>743.0</ele><time>2026-03-28T14:46:49.667Z</time></trkpt><trkpt lat="44.7136417" lon="9.79419"><ele>743.0</ele><time>2026-03-28T14:46:50.67Z</time></trkpt><trkpt lat="44.7136633" lon="9.794355"><ele>743.0</ele><time>2026-03-28T14:46:52.668Z</time></trkpt><trkpt lat="44.7136383" lon="9.79446"><ele>743.0</ele><time>2026-03-28T14:46:53.669Z</time></trkpt><trkpt lat="44.7136" lon="9.794575"><ele>743.0</ele><time>2026-03-28T14:46:54.666Z</time></trkpt><trkpt lat="44.7135733" lon="9.7947"><ele>743.0</ele><time>2026-03-28T14:46:55.665Z</time></trkpt><trkpt lat="44.713565" lon="9.79483"><ele>743.0</ele><time>2026-03-28T14:46:56.667Z</time></trkpt><trkpt lat="44.7135683" lon="9.7949433"><ele>743.0</ele><time>2026-03-28T14:46:57.666Z</time></trkpt><trkpt lat="44.713625" lon="9.7950117"><ele>743.0</ele><time>2026-03-28T14:46:58.665Z</time></trkpt><trkpt lat="44.7136933" lon="9.7950567"><ele>743.0</ele><time>2026-03-28T14:46:59.667Z</time></trkpt><trkpt lat="44.7137817" lon="9.7950483"><ele>743.0</ele><time>2026-03-28T14:47:00.665Z</time></trkpt><trkpt lat="44.7138767" lon="9.795015"><ele>743.0</ele><time>2026-03-28T14:47:01.666Z</time></trkpt><trkpt lat="44.713975" lon="9.7949667"><ele>744.4</ele><time>2026-03-28T14:47:02.667Z</time></trkpt><trkpt lat="44.7140633" lon="9.7949"><ele>745.8</ele><time>2026-03-28T14:47:03.668Z</time></trkpt><trkpt lat="44.7141483" lon="9.7948283"><ele>747.2</ele><time>2026-03-28T14:47:04.666Z</time></trkpt><trkpt lat="44.7142333" lon="9.7947667"><ele>748.6</ele><time>2026-03-28T14:47:05.666Z</time></trkpt><trkpt lat="44.7143167" lon="9.7947133"><ele>750.0</ele><time>2026-03-28T14:47:06.666Z</time></trkpt><trkpt lat="44.7143933" lon="9.7946717"><ele>751.1428571428572</ele><time>2026-03-28T14:47:07.665Z</time></trkpt><trkpt lat="44.714465" lon="9.79464"><ele>752.2857142857142</ele><time>2026-03-28T14:47:08.666Z</time></trkpt><trkpt lat="44.7145283" lon="9.7946067"><ele>753.4285714285714</ele><time>2026-03-28T14:47:09.666Z</time></trkpt><trkpt lat="44.71459" lon="9.7945783"><ele>754.5714285714287</ele><time>2026-03-28T14:47:10.667Z</time></trkpt><trkpt lat="44.7146533" lon="9.7945633"><ele>755.7142857142858</ele><time>2026-03-28T14:47:11.666Z</time></trkpt><trkpt lat="44.7147183" lon="9.794555"><ele>756.8571428571429</ele><time>2026-03-28T14:47:12.666Z</time></trkpt><trkpt lat="44.7147817" lon="9.794545"><ele>758.0</ele><time>2026-03-28T14:47:13.666Z</time></trkpt><trkpt lat="44.71489" lon="9.7945067"><ele>758.0</ele><time>2026-03-28T14:47:15.665Z</time></trkpt><trkpt lat="44.7149633" lon="9.79446"><ele>758.0</ele><time>2026-03-28T14:47:27.665Z</time></trkpt><trkpt lat="44.71506" lon="9.7945167"><ele>758.0</ele><time>2026-03-28T14:47:29.668Z</time></trkpt><trkpt lat="44.7151267" lon="9.7945333"><ele>758.0</ele><time>2026-03-28T14:47:30.668Z</time></trkpt><trkpt lat="44.7152" lon="9.7945367"><ele>758.0</ele><time>2026-03-28T14:47:31.667Z</time></trkpt><trkpt lat="44.715265" lon="9.7945217"><ele>758.0</ele><time>2026-03-28T14:47:32.665Z</time></trkpt><trkpt lat="44.7153333" lon="9.7945067"><ele>760.8333333333333</ele><time>2026-03-28T14:47:33.665Z</time></trkpt><trkpt lat="44.7154067" lon="9.7944867"><ele>763.6666666666666</ele><time>2026-03-28T14:47:34.668Z</time></trkpt><trkpt lat="44.7154783" lon="9.7944733"><ele>766.5</ele><time>2026-03-28T14:47:35.666Z</time></trkpt><trkpt lat="44.715545" lon="9.7944667"><ele>769.3333333333333</ele><time>2026-03-28T14:47:36.666Z</time></trkpt><trkpt lat="44.71562" lon="9.7944667"><ele>772.1666666666666</ele><time>2026-03-28T14:47:37.665Z</time></trkpt><trkpt lat="44.7156883" lon="9.7944517"><ele>775.0</ele><time>2026-03-28T14:47:38.665Z</time></trkpt><trkpt lat="44.7157867" lon="9.79438"><ele>778.8</ele><time>2026-03-28T14:47:40.667Z</time></trkpt><trkpt lat="44.7158433" lon="9.7942867"><ele>782.6</ele><time>2026-03-28T14:47:42.666Z</time></trkpt><trkpt lat="44.71589" lon="9.79411"><ele>786.4000000000001</ele><time>2026-03-28T14:47:44.666Z</time></trkpt><trkpt lat="44.7159117" lon="9.7939967"><ele>790.2</ele><time>2026-03-28T14:47:45.665Z</time></trkpt><trkpt lat="44.7159333" lon="9.7938817"><ele>794.0</ele><time>2026-03-28T14:47:46.666Z</time></trkpt><trkpt lat="44.7159567" lon="9.7937633"><ele>794.0000000000001</ele><time>2026-03-28T14:47:47.666Z</time></trkpt><trkpt lat="44.71598" lon="9.79365"><ele>794.0</ele><time>2026-03-28T14:47:48.667Z</time></trkpt><trkpt lat="44.716005" lon="9.7935383"><ele>794.0</ele><time>2026-03-28T14:47:49.669Z</time></trkpt><trkpt lat="44.7160383" lon="9.7934283"><ele>794.0</ele><time>2026-03-28T14:47:50.667Z</time></trkpt><trkpt lat="44.716075" lon="9.7933233"><ele>794.0000000000001</ele><time>2026-03-28T14:47:51.668Z</time></trkpt><trkpt lat="44.7161133" lon="9.7932167"><ele>794.0</ele><time>2026-03-28T14:47:52.667Z</time></trkpt><trkpt lat="44.7161533" lon="9.793105"><ele>798.0</ele><time>2026-03-28T14:47:53.669Z</time></trkpt><trkpt lat="44.716195" lon="9.79299"><ele>802.0</ele><time>2026-03-28T14:47:54.665Z</time></trkpt><trkpt lat="44.71623" lon="9.79287"><ele>806.0</ele><time>2026-03-28T14:47:55.666Z</time></trkpt><trkpt lat="44.716265" lon="9.7927483"><ele>810.0</ele><time>2026-03-28T14:47:56.666Z</time></trkpt><trkpt lat="44.7163017" lon="9.7926267"><ele>814.0</ele><time>2026-03-28T14:47:57.666Z</time></trkpt><trkpt lat="44.7163383" lon="9.7925117"><ele>815.6666666666666</ele><time>2026-03-28T14:47:58.668Z</time></trkpt><trkpt lat="44.7163733" lon="9.79241"><ele>817.3333333333333</ele><time>2026-03-28T14:47:59.668Z</time></trkpt><trkpt lat="44.7164017" lon="9.7923217"><ele>819.0</ele><time>2026-03-28T14:48:00.665Z</time></trkpt><trkpt lat="44.71643" lon="9.792235"><ele>820.6666666666667</ele><time>2026-03-28T14:48:01.666Z</time></trkpt><trkpt lat="44.7164533" lon="9.7921467"><ele>822.3333333333334</ele><time>2026-03-28T14:48:02.665Z</time></trkpt><trkpt lat="44.7164717" lon="9.7920567"><ele>824.0</ele><time>2026-03-28T14:48:03.667Z</time></trkpt><trkpt lat="44.71648" lon="9.7919017"><ele>825.3333333333334</ele><time>2026-03-28T14:48:05.667Z</time></trkpt><trkpt lat="44.7164883" lon="9.79181"><ele>826.6666666666667</ele><time>2026-03-28T14:48:07.665Z</time></trkpt><trkpt lat="44.71651" lon="9.79172"><ele>828.0</ele><time>2026-03-28T14:49:23.667Z</time></trkpt><trkpt lat="44.716585" lon="9.79168"><ele>829.3333333333333</ele><time>2026-03-28T14:49:25.666Z</time></trkpt><trkpt lat="44.71667" lon="9.79163"><ele>830.6666666666666</ele><time>2026-03-28T14:49:27.666Z</time></trkpt><trkpt lat="44.7167667" lon="9.791525"><ele>832.0</ele><time>2026-03-28T14:49:29.665Z</time></trkpt><trkpt lat="44.71685" lon="9.7914117"><ele>832.9999999999999</ele><time>2026-03-28T14:49:31.666Z</time></trkpt><trkpt lat="44.71691" lon="9.7913767"><ele>834.0</ele><time>2026-03-28T14:49:32.665Z</time></trkpt><trkpt lat="44.7169733" lon="9.7913617"><ele>835.0</ele><time>2026-03-28T14:49:33.665Z</time></trkpt><trkpt lat="44.7170417" lon="9.7913733"><ele>836.0</ele><time>2026-03-28T14:49:34.664Z</time></trkpt><trkpt lat="44.717115" lon="9.7914083"><ele>836.9999999999999</ele><time>2026-03-28T14:49:35.665Z</time></trkpt><trkpt lat="44.7171933" lon="9.7914583"><ele>838.0</ele><time>2026-03-28T14:49:36.666Z</time></trkpt><trkpt lat="44.7172833" lon="9.7915117"><ele>837.9999999999999</ele><time>2026-03-28T14:49:37.666Z</time></trkpt><trkpt lat="44.71737" lon="9.7915567"><ele>838.0</ele><time>2026-03-28T14:49:38.666Z</time></trkpt><trkpt lat="44.7174533" lon="9.7916033"><ele>838.0</ele><time>2026-03-28T14:49:39.668Z</time></trkpt><trkpt lat="44.717535" lon="9.7916533"><ele>838.0</ele><time>2026-03-28T14:49:40.667Z</time></trkpt><trkpt lat="44.717605" lon="9.7917033"><ele>837.9999999999999</ele><time>2026-03-28T14:49:41.667Z</time></trkpt><trkpt lat="44.71768" lon="9.7917633"><ele>838.0</ele><time>2026-03-28T14:49:42.667Z</time></trkpt><trkpt lat="44.7177583" lon="9.7918333"><ele>839.4</ele><time>2026-03-28T14:49:43.667Z</time></trkpt><trkpt lat="44.7178267" lon="9.791915"><ele>840.8</ele><time>2026-03-28T14:49:44.665Z</time></trkpt><trkpt lat="44.7178883" lon="9.7920117"><ele>842.2</ele><time>2026-03-28T14:49:45.665Z</time></trkpt><trkpt lat="44.7179533" lon="9.7921183"><ele>843.6</ele><time>2026-03-28T14:49:46.665Z</time></trkpt><trkpt lat="44.7180167" lon="9.7922267"><ele>845.0</ele><time>2026-03-28T14:49:47.665Z</time></trkpt><trkpt lat="44.7180783" lon="9.7923417"><ele>845.0</ele><time>2026-03-28T14:49:48.664Z</time></trkpt><trkpt lat="44.7181517" lon="9.7924483"><ele>845.0</ele><time>2026-03-28T14:49:49.665Z</time></trkpt><trkpt lat="44.7182317" lon="9.7925433"><ele>845.0</ele><time>2026-03-28T14:49:50.666Z</time></trkpt><trkpt lat="44.71831" lon="9.7926267"><ele>845.0</ele><time>2026-03-28T14:49:51.665Z</time></trkpt><trkpt lat="44.71839" lon="9.7927067"><ele>845.0</ele><time>2026-03-28T14:49:52.665Z</time></trkpt><trkpt lat="44.718475" lon="9.7927883"><ele>844.0</ele><time>2026-03-28T14:49:53.665Z</time></trkpt><trkpt lat="44.7185617" lon="9.7928783"><ele>843.0</ele><time>2026-03-28T14:49:54.666Z</time></trkpt><trkpt lat="44.718645" lon="9.7929717"><ele>842.0</ele><time>2026-03-28T14:49:55.665Z</time></trkpt><trkpt lat="44.7187217" lon="9.7930717"><ele>841.0</ele><time>2026-03-28T14:49:56.665Z</time></trkpt><trkpt lat="44.718795" lon="9.7931767"><ele>840.0</ele><time>2026-03-28T14:49:57.665Z</time></trkpt><trkpt lat="44.71886" lon="9.7932833"><ele>841.6</ele><time>2026-03-28T14:49:58.666Z</time></trkpt><trkpt lat="44.718915" lon="9.7933983"><ele>843.2</ele><time>2026-03-28T14:49:59.665Z</time></trkpt><trkpt lat="44.718965" lon="9.7935167"><ele>844.8</ele><time>2026-03-28T14:50:00.664Z</time></trkpt><trkpt lat="44.719005" lon="9.7936467"><ele>846.4</ele><time>2026-03-28T14:50:01.664Z</time></trkpt><trkpt lat="44.7190383" lon="9.7937783"><ele>848.0</ele><time>2026-03-28T14:50:02.666Z</time></trkpt><trkpt lat="44.7190683" lon="9.79391"><ele>848.0000000000001</ele><time>2026-03-28T14:50:03.665Z</time></trkpt><trkpt lat="44.7190933" lon="9.79404"><ele>848.0</ele><time>2026-03-28T14:50:04.665Z</time></trkpt><trkpt lat="44.71912" lon="9.794165"><ele>848.0</ele><time>2026-03-28T14:50:05.666Z</time></trkpt><trkpt lat="44.719145" lon="9.7942883"><ele>848.0</ele><time>2026-03-28T14:50:06.666Z</time></trkpt><trkpt lat="44.7191717" lon="9.7944017"><ele>848.0000000000001</ele><time>2026-03-28T14:50:07.665Z</time></trkpt><trkpt lat="44.71921" lon="9.7945017"><ele>848.0</ele><time>2026-03-28T14:50:08.665Z</time></trkpt><trkpt lat="44.7192583" lon="9.7946117"><ele>849.0</ele><time>2026-03-28T14:50:09.666Z</time></trkpt><trkpt lat="44.7193117" lon="9.7947317"><ele>850.0</ele><time>2026-03-28T14:50:10.666Z</time></trkpt><trkpt lat="44.7193667" lon="9.79486"><ele>851.0</ele><time>2026-03-28T14:50:11.665Z</time></trkpt><trkpt lat="44.7194183" lon="9.7949933"><ele>852.0</ele><time>2026-03-28T14:50:12.666Z</time></trkpt><trkpt lat="44.719475" lon="9.795125"><ele>853.0</ele><time>2026-03-28T14:50:13.667Z</time></trkpt><trkpt lat="44.719535" lon="9.7952517"><ele>853.0</ele><time>2026-03-28T14:50:14.666Z</time></trkpt><trkpt lat="44.7195967" lon="9.7953667"><ele>853.0</ele><time>2026-03-28T14:50:15.665Z</time></trkpt><trkpt lat="44.7196433" lon="9.7954817"><ele>853.0</ele><time>2026-03-28T14:50:16.666Z</time></trkpt><trkpt lat="44.7196783" lon="9.7955983"><ele>853.0</ele><time>2026-03-28T14:50:17.664Z</time></trkpt><trkpt lat="44.7197" lon="9.79572"><ele>853.0</ele><time>2026-03-28T14:50:18.666Z</time></trkpt><trkpt lat="44.7197183" lon="9.79584"><ele>852.9999999999999</ele><time>2026-03-28T14:50:19.665Z</time></trkpt><trkpt lat="44.7197417" lon="9.795945"><ele>853.0</ele><time>2026-03-28T14:50:20.665Z</time></trkpt><trkpt lat="44.7197733" lon="9.7960367"><ele>853.0</ele><time>2026-03-28T14:50:21.665Z</time></trkpt><trkpt lat="44.7198267" lon="9.796085"><ele>853.0</ele><time>2026-03-28T14:50:22.664Z</time></trkpt><trkpt lat="44.7199033" lon="9.79609"><ele>852.9999999999999</ele><time>2026-03-28T14:50:23.665Z</time></trkpt><trkpt lat="44.71999" lon="9.796085"><ele>853.0</ele><time>2026-03-28T14:50:24.665Z</time></trkpt><trkpt lat="44.7200933" lon="9.796055"><ele>851.0</ele><time>2026-03-28T14:50:25.666Z</time></trkpt><trkpt lat="44.7202017" lon="9.79603"><ele>849.0</ele><time>2026-03-28T14:50:26.665Z</time></trkpt><trkpt lat="44.7203083" lon="9.7960167"><ele>847.0</ele><time>2026-03-28T14:50:27.665Z</time></trkpt><trkpt lat="44.7204083" lon="9.7960067"><ele>845.0</ele><time>2026-03-28T14:50:28.666Z</time></trkpt><trkpt lat="44.720505" lon="9.79601"><ele>843.0</ele><time>2026-03-28T14:50:29.666Z</time></trkpt><trkpt lat="44.7205967" lon="9.7960333"><ele>843.0</ele><time>2026-03-28T14:50:30.666Z</time></trkpt><trkpt lat="44.7206817" lon="9.7960683"><ele>843.0</ele><time>2026-03-28T14:50:31.666Z</time></trkpt><trkpt lat="44.7207667" lon="9.7961183"><ele>843.0</ele><time>2026-03-28T14:50:32.668Z</time></trkpt><trkpt lat="44.7208483" lon="9.7961867"><ele>843.0</ele><time>2026-03-28T14:50:33.667Z</time></trkpt><trkpt lat="44.7209283" lon="9.7962567"><ele>843.0</ele><time>2026-03-28T14:50:34.667Z</time></trkpt><trkpt lat="44.7210033" lon="9.7963283"><ele>843.6666666666666</ele><time>2026-03-28T14:50:35.668Z</time></trkpt><trkpt lat="44.72107" lon="9.7963917"><ele>844.3333333333333</ele><time>2026-03-28T14:50:36.668Z</time></trkpt><trkpt lat="44.7211317" lon="9.7964433"><ele>845.0</ele><time>2026-03-28T14:50:37.668Z</time></trkpt><trkpt lat="44.7211933" lon="9.79647"><ele>845.6666666666666</ele><time>2026-03-28T14:50:38.666Z</time></trkpt><trkpt lat="44.7213117" lon="9.796455"><ele>846.3333333333333</ele><time>2026-03-28T14:50:40.668Z</time></trkpt><trkpt lat="44.7213917" lon="9.7963617"><ele>847.0</ele><time>2026-03-28T14:50:42.665Z</time></trkpt><trkpt lat="44.7214217" lon="9.796235"><ele>846.9999999999999</ele><time>2026-03-28T14:50:44.665Z</time></trkpt><trkpt lat="44.7213867" lon="9.796075"><ele>847.0</ele><time>2026-03-28T14:50:46.664Z</time></trkpt><trkpt lat="44.7213317" lon="9.7959333"><ele>847.0</ele><time>2026-03-28T14:50:48.665Z</time></trkpt><trkpt lat="44.7213183" lon="9.795845"><ele>847.0</ele><time>2026-03-28T14:50:49.665Z</time></trkpt><trkpt lat="44.7213133" lon="9.795745"><ele>846.9999999999999</ele><time>2026-03-28T14:50:50.666Z</time></trkpt><trkpt lat="44.7213233" lon="9.79564"><ele>847.0</ele><time>2026-03-28T14:50:51.665Z</time></trkpt><trkpt lat="44.72135" lon="9.795535"><ele>848.2</ele><time>2026-03-28T14:50:52.666Z</time></trkpt><trkpt lat="44.7213867" lon="9.79543"><ele>849.4000000000001</ele><time>2026-03-28T14:50:53.666Z</time></trkpt><trkpt lat="44.72144" lon="9.7953167"><ele>850.5999999999999</ele><time>2026-03-28T14:50:54.666Z</time></trkpt><trkpt lat="44.7215067" lon="9.7951983"><ele>851.8</ele><time>2026-03-28T14:50:55.664Z</time></trkpt><trkpt lat="44.72158" lon="9.795085"><ele>853.0</ele><time>2026-03-28T14:50:56.666Z</time></trkpt><trkpt lat="44.721655" lon="9.79498"><ele>854.8</ele><time>2026-03-28T14:50:57.666Z</time></trkpt><trkpt lat="44.7217283" lon="9.7948767"><ele>856.5999999999999</ele><time>2026-03-28T14:50:58.667Z</time></trkpt><trkpt lat="44.721805" lon="9.794785"><ele>858.4000000000001</ele><time>2026-03-28T14:50:59.664Z</time></trkpt><trkpt lat="44.72188" lon="9.7946983"><ele>860.2</ele><time>2026-03-28T14:51:00.666Z</time></trkpt><trkpt lat="44.7219567" lon="9.7946233"><ele>862.0</ele><time>2026-03-28T14:51:01.666Z</time></trkpt><trkpt lat="44.7220317" lon="9.79456"><ele>861.9999999999999</ele><time>2026-03-28T14:51:02.665Z</time></trkpt><trkpt lat="44.72211" lon="9.794515"><ele>862.0</ele><time>2026-03-28T14:51:03.665Z</time></trkpt><trkpt lat="44.72219" lon="9.7944933"><ele>862.0</ele><time>2026-03-28T14:51:04.667Z</time></trkpt><trkpt lat="44.7222767" lon="9.7945083"><ele>862.0</ele><time>2026-03-28T14:51:05.668Z</time></trkpt><trkpt lat="44.7223717" lon="9.7945517"><ele>861.9999999999999</ele><time>2026-03-28T14:51:06.667Z</time></trkpt><trkpt lat="44.72246" lon="9.79459"><ele>862.0</ele><time>2026-03-28T14:51:07.666Z</time></trkpt><trkpt lat="44.7225517" lon="9.7946183"><ele>861.9999999999999</ele><time>2026-03-28T14:51:08.666Z</time></trkpt><trkpt lat="44.722635" lon="9.7946233"><ele>862.0</ele><time>2026-03-28T14:51:09.666Z</time></trkpt><trkpt lat="44.7227167" lon="9.7946067"><ele>862.0</ele><time>2026-03-28T14:51:10.665Z</time></trkpt><trkpt lat="44.7227867" lon="9.794575"><ele>862.0</ele><time>2026-03-28T14:51:11.664Z</time></trkpt><trkpt lat="44.7228617" lon="9.7945417"><ele>861.9999999999999</ele><time>2026-03-28T14:51:12.664Z</time></trkpt><trkpt lat="44.7229417" lon="9.794515"><ele>862.0</ele><time>2026-03-28T14:51:13.667Z</time></trkpt><trkpt lat="44.7230267" lon="9.7945083"><ele>862.8571428571429</ele><time>2026-03-28T14:51:14.665Z</time></trkpt><trkpt lat="44.7231" lon="9.7945167"><ele>863.7142857142857</ele><time>2026-03-28T14:51:15.665Z</time></trkpt><trkpt lat="44.7231683" lon="9.7945383"><ele>864.5714285714286</ele><time>2026-03-28T14:51:16.667Z</time></trkpt><trkpt lat="44.72323" lon="9.79456"><ele>865.4285714285714</ele><time>2026-03-28T14:51:17.67Z</time></trkpt><trkpt lat="44.7233067" lon="9.7945283"><ele>866.2857142857142</ele><time>2026-03-28T14:51:19.668Z</time></trkpt><trkpt lat="44.7233067" lon="9.7944367"><ele>867.1428571428571</ele><time>2026-03-28T14:51:21.667Z</time></trkpt><trkpt lat="44.72327" lon="9.794335"><ele>868.0</ele><time>2026-03-28T14:51:54.666Z</time></trkpt><trkpt lat="44.7233233" lon="9.7942617"><ele>870.9999999999999</ele><time>2026-03-28T14:51:57.666Z</time></trkpt><trkpt lat="44.7233583" lon="9.794155"><ele>874.0</ele><time>2026-03-28T14:52:00.665Z</time></trkpt><trkpt lat="44.72335" lon="9.79403"><ele>877.0</ele><time>2026-03-28T14:52:03.666Z</time></trkpt><trkpt lat="44.7233183" lon="9.79393"><ele>880.0</ele><time>2026-03-28T14:52:05.666Z</time></trkpt><trkpt lat="44.7232867" lon="9.7938283"><ele>882.9999999999999</ele><time>2026-03-28T14:52:07.665Z</time></trkpt><trkpt lat="44.7232167" lon="9.7937483"><ele>886.0</ele><time>2026-03-28T14:52:09.671Z</time></trkpt><trkpt lat="44.7231417" lon="9.79368"><ele>886.0</ele><time>2026-03-28T14:52:11.666Z</time></trkpt><trkpt lat="44.7230783" lon="9.7935683"><ele>885.9999999999999</ele><time>2026-03-28T14:52:13.665Z</time></trkpt><trkpt lat="44.723035" lon="9.793435"><ele>885.9999999999999</ele><time>2026-03-28T14:52:15.667Z</time></trkpt><trkpt lat="44.723005" lon="9.7932933"><ele>886.0</ele><time>2026-03-28T14:52:17.666Z</time></trkpt><trkpt lat="44.7229567" lon="9.7932133"><ele>886.0</ele><time>2026-03-28T14:52:20.665Z</time></trkpt><trkpt lat="44.7228933" lon="9.7931967"><ele>889.6666666666666</ele><time>2026-03-28T14:52:22.665Z</time></trkpt><trkpt lat="44.72282" lon="9.7931567"><ele>893.3333333333333</ele><time>2026-03-28T14:52:25.667Z</time></trkpt><trkpt lat="44.7228033" lon="9.7930467"><ele>897.0</ele><time>2026-03-28T14:52:27.665Z</time></trkpt><trkpt lat="44.72281" lon="9.7929267"><ele>900.6666666666667</ele><time>2026-03-28T14:52:29.665Z</time></trkpt><trkpt lat="44.7228117" lon="9.7928317"><ele>904.3333333333334</ele><time>2026-03-28T14:52:30.664Z</time></trkpt><trkpt lat="44.722835" lon="9.79267"><ele>908.0</ele><time>2026-03-28T14:52:32.666Z</time></trkpt><trkpt lat="44.7228433" lon="9.7925067"><ele>910.8</ele><time>2026-03-28T14:52:34.666Z</time></trkpt><trkpt lat="44.7228467" lon="9.79236"><ele>913.5999999999999</ele><time>2026-03-28T14:52:36.666Z</time></trkpt><trkpt lat="44.7228417" lon="9.79227"><ele>916.4000000000001</ele><time>2026-03-28T14:52:37.666Z</time></trkpt><trkpt lat="44.722835" lon="9.7921183"><ele>919.2</ele><time>2026-03-28T14:52:39.666Z</time></trkpt><trkpt lat="44.7228733" lon="9.7919817"><ele>922.0</ele><time>2026-03-28T14:52:41.668Z</time></trkpt><trkpt lat="44.7229417" lon="9.791835"><ele>922.2</ele><time>2026-03-28T14:52:43.666Z</time></trkpt><trkpt lat="44.7230283" lon="9.7916933"><ele>922.4000000000001</ele><time>2026-03-28T14:52:45.667Z</time></trkpt><trkpt lat="44.7230783" lon="9.7916183"><ele>922.5999999999999</ele><time>2026-03-28T14:52:46.667Z</time></trkpt><trkpt lat="44.7231367" lon="9.7915633"><ele>922.8</ele><time>2026-03-28T14:52:47.669Z</time></trkpt><trkpt lat="44.7232183" lon="9.7914733"><ele>923.0</ele><time>2026-03-28T14:52:49.668Z</time></trkpt><trkpt lat="44.7232683" lon="9.7913817"><ele>923.0000000000001</ele><time>2026-03-28T14:52:51.666Z</time></trkpt><trkpt lat="44.723325" lon="9.791335"><ele>923.0</ele><time>2026-03-28T14:52:53.67Z</time></trkpt><trkpt lat="44.7233883" lon="9.7912483"><ele>923.0</ele><time>2026-03-28T14:53:14.666Z</time></trkpt><trkpt lat="44.7234783" lon="9.79133"><ele>923.0</ele><time>2026-03-28T14:53:16.665Z</time></trkpt><trkpt lat="44.7235417" lon="9.7913933"><ele>923.0000000000001</ele><time>2026-03-28T14:53:17.667Z</time></trkpt><trkpt lat="44.7236" lon="9.7914567"><ele>923.0</ele><time>2026-03-28T14:53:18.666Z</time></trkpt><trkpt lat="44.7236567" lon="9.7915133"><ele>924.0000000000001</ele><time>2026-03-28T14:53:19.666Z</time></trkpt><trkpt lat="44.7237217" lon="9.7915767"><ele>925.0</ele><time>2026-03-28T14:53:20.668Z</time></trkpt><trkpt lat="44.7237967" lon="9.7916417"><ele>926.0</ele><time>2026-03-28T14:53:21.666Z</time></trkpt><trkpt lat="44.7238767" lon="9.7917033"><ele>927.0</ele><time>2026-03-28T14:53:22.665Z</time></trkpt><trkpt lat="44.7239467" lon="9.7917767"><ele>928.0000000000001</ele><time>2026-03-28T14:53:23.665Z</time></trkpt><trkpt lat="44.7240183" lon="9.7918567"><ele>929.0</ele><time>2026-03-28T14:53:24.666Z</time></trkpt><trkpt lat="44.724095" lon="9.791925"><ele>930.0</ele><time>2026-03-28T14:53:25.666Z</time></trkpt><trkpt lat="44.7241717" lon="9.7919917"><ele>931.0000000000001</ele><time>2026-03-28T14:53:26.665Z</time></trkpt><trkpt lat="44.7242433" lon="9.79205"><ele>932.0000000000001</ele><time>2026-03-28T14:53:27.666Z</time></trkpt><trkpt lat="44.72432" lon="9.792105"><ele>933.0</ele><time>2026-03-28T14:53:28.666Z</time></trkpt><trkpt lat="44.72441" lon="9.792155"><ele>934.0</ele><time>2026-03-28T14:53:29.667Z</time></trkpt><trkpt lat="44.7245024" lon="9.7921899"><ele>934.9999999999999</ele><time>2026-03-28T14:53:30.667Z</time></trkpt><trkpt lat="44.7245935" lon="9.7922148"><ele>936.0</ele><time>2026-03-28T14:53:31.668Z</time></trkpt><trkpt lat="44.7246834" lon="9.7922369"><ele>937.0</ele><time>2026-03-28T14:53:32.666Z</time></trkpt><trkpt lat="44.724769" lon="9.7922629"><ele>938.0</ele><time>2026-03-28T14:53:33.666Z</time></trkpt><trkpt lat="44.7248468" lon="9.7922993"><ele>938.9999999999999</ele><time>2026-03-28T14:53:34.666Z</time></trkpt><trkpt lat="44.7249176" lon="9.7923466"><ele>940.0</ele><time>2026-03-28T14:53:35.666Z</time></trkpt><trkpt lat="44.724988" lon="9.7924017"><ele>939.9999999999999</ele><time>2026-03-28T14:53:36.666Z</time></trkpt><trkpt lat="44.7250568" lon="9.7924665"><ele>940.0</ele><time>2026-03-28T14:53:37.666Z</time></trkpt><trkpt lat="44.7251263" lon="9.7925395"><ele>940.0</ele><time>2026-03-28T14:53:38.666Z</time></trkpt><trkpt lat="44.7251933" lon="9.7926114"><ele>940.0</ele><time>2026-03-28T14:53:39.665Z</time></trkpt><trkpt lat="44.7252696" lon="9.7926816"><ele>939.9999999999999</ele><time>2026-03-28T14:53:40.667Z</time></trkpt><trkpt lat="44.725357" lon="9.7927425"><ele>940.0</ele><time>2026-03-28T14:53:41.667Z</time></trkpt><trkpt lat="44.7254283" lon="9.7927966"><ele>940.9999999999999</ele><time>2026-03-28T14:53:42.667Z</time></trkpt><trkpt lat="44.725495" lon="9.7928617"><ele>942.0</ele><time>2026-03-28T14:53:43.668Z</time></trkpt><trkpt lat="44.7255627" lon="9.792943"><ele>943.0</ele><time>2026-03-28T14:53:44.668Z</time></trkpt><trkpt lat="44.7256212" lon="9.7930278"><ele>944.0</ele><time>2026-03-28T14:53:45.665Z</time></trkpt><trkpt lat="44.7256734" lon="9.7931021"><ele>944.9999999999999</ele><time>2026-03-28T14:53:46.666Z</time></trkpt><trkpt lat="44.7257246" lon="9.7931733"><ele>946.0</ele><time>2026-03-28T14:53:47.666Z</time></trkpt><trkpt lat="44.7257724" lon="9.7932312"><ele>945.9999999999999</ele><time>2026-03-28T14:53:48.667Z</time></trkpt><trkpt lat="44.7258276" lon="9.7932747"><ele>946.0</ele><time>2026-03-28T14:53:49.667Z</time></trkpt><trkpt lat="44.7258892" lon="9.7933233"><ele>946.0</ele><time>2026-03-28T14:53:50.668Z</time></trkpt><trkpt lat="44.7259609" lon="9.7933809"><ele>946.0</ele><time>2026-03-28T14:53:51.667Z</time></trkpt><trkpt lat="44.7260429" lon="9.7934511"><ele>945.9999999999999</ele><time>2026-03-28T14:53:52.667Z</time></trkpt><trkpt lat="44.7261209" lon="9.7935259"><ele>946.0</ele><time>2026-03-28T14:53:53.668Z</time></trkpt><trkpt lat="44.7261979" lon="9.7935974"><ele>946.8333333333333</ele><time>2026-03-28T14:53:54.667Z</time></trkpt><trkpt lat="44.7262734" lon="9.7936687"><ele>947.6666666666666</ele><time>2026-03-28T14:53:55.666Z</time></trkpt><trkpt lat="44.7263479" lon="9.7937375"><ele>948.5</ele><time>2026-03-28T14:53:56.665Z</time></trkpt><trkpt lat="44.7264176" lon="9.7937964"><ele>949.3333333333333</ele><time>2026-03-28T14:53:57.667Z</time></trkpt><trkpt lat="44.726485" lon="9.7938378"><ele>950.1666666666666</ele><time>2026-03-28T14:53:58.665Z</time></trkpt><trkpt lat="44.726556" lon="9.7938642"><ele>951.0</ele><time>2026-03-28T14:53:59.665Z</time></trkpt><trkpt lat="44.7266365" lon="9.7938852"><ele>951.0</ele><time>2026-03-28T14:54:00.666Z</time></trkpt><trkpt lat="44.7267103" lon="9.7938932"><ele>951.0</ele><time>2026-03-28T14:54:01.666Z</time></trkpt><trkpt lat="44.726785" lon="9.7938931"><ele>951.0</ele><time>2026-03-28T14:54:02.666Z</time></trkpt><trkpt lat="44.7268576" lon="9.7938719"><ele>951.0</ele><time>2026-03-28T14:54:03.666Z</time></trkpt><trkpt lat="44.7269269" lon="9.793833"><ele>951.0</ele><time>2026-03-28T14:54:04.665Z</time></trkpt><trkpt lat="44.7269974" lon="9.7937813"><ele>951.0</ele><time>2026-03-28T14:54:05.671Z</time></trkpt><trkpt lat="44.7270642" lon="9.7937327"><ele>950.8333333333334</ele><time>2026-03-28T14:54:06.665Z</time></trkpt><trkpt lat="44.7271276" lon="9.7936929"><ele>950.6666666666667</ele><time>2026-03-28T14:54:07.666Z</time></trkpt><trkpt lat="44.7272148" lon="9.7936414"><ele>950.5</ele><time>2026-03-28T14:54:09.666Z</time></trkpt><trkpt lat="44.7272974" lon="9.7935793"><ele>950.3333333333334</ele><time>2026-03-28T14:54:12.665Z</time></trkpt><trkpt lat="44.7273689" lon="9.7935459"><ele>950.1666666666667</ele><time>2026-03-28T14:54:14.665Z</time></trkpt><trkpt lat="44.7274529" lon="9.7935323"><ele>950.0</ele><time>2026-03-28T14:54:17.666Z</time></trkpt><trkpt lat="44.7275219" lon="9.7934963"><ele>950.0</ele><time>2026-03-28T14:54:19.665Z</time></trkpt><trkpt lat="44.7276309" lon="9.7934632"><ele>950.0</ele><time>2026-03-28T14:54:21.665Z</time></trkpt><trkpt lat="44.7277488" lon="9.7934539"><ele>950.0</ele><time>2026-03-28T14:54:23.666Z</time></trkpt><trkpt lat="44.7278605" lon="9.7934694"><ele>950.0</ele><time>2026-03-28T14:54:25.666Z</time></trkpt><trkpt lat="44.7279516" lon="9.7934515"><ele>950.0</ele><time>2026-03-28T14:54:27.666Z</time></trkpt><trkpt lat="44.7280177" lon="9.7933961"><ele>948.8333333333334</ele><time>2026-03-28T14:54:30.665Z</time></trkpt><trkpt lat="44.7280752" lon="9.7933512"><ele>947.6666666666667</ele><time>2026-03-28T14:54:33.664Z</time></trkpt><trkpt lat="44.7281558" lon="9.7933343"><ele>946.5</ele><time>2026-03-28T14:54:36.664Z</time></trkpt><trkpt lat="44.7282278" lon="9.7933286"><ele>945.3333333333333</ele><time>2026-03-28T14:54:39.666Z</time></trkpt><trkpt lat="44.728297" lon="9.7933372"><ele>944.1666666666666</ele><time>2026-03-28T14:54:42.666Z</time></trkpt><trkpt lat="44.7283705" lon="9.7933016"><ele>943.0</ele><time>2026-03-28T14:54:46.666Z</time></trkpt><trkpt lat="44.7284574" lon="9.7932592"><ele>943.0</ele><time>2026-03-28T14:54:49.667Z</time></trkpt><trkpt lat="44.7285217" lon="9.7932378"><ele>943.0000000000001</ele><time>2026-03-28T14:54:51.665Z</time></trkpt><trkpt lat="44.7285935" lon="9.7932463"><ele>943.0</ele><time>2026-03-28T14:54:53.665Z</time></trkpt><trkpt lat="44.728652" lon="9.7932793"><ele>943.0</ele><time>2026-03-28T14:54:55.665Z</time></trkpt><trkpt lat="44.7287427" lon="9.7932542"><ele>943.0000000000001</ele><time>2026-03-28T14:54:58.665Z</time></trkpt><trkpt lat="44.7288267" lon="9.7932413"><ele>943.0</ele><time>2026-03-28T14:55:01.665Z</time></trkpt><trkpt lat="44.7288934" lon="9.7932627"><ele>943.0</ele><time>2026-03-28T14:55:03.665Z</time></trkpt><trkpt lat="44.7289617" lon="9.7932898"><ele>943.0</ele><time>2026-03-28T14:55:05.664Z</time></trkpt><trkpt lat="44.7290284" lon="9.7933295"><ele>943.0000000000001</ele><time>2026-03-28T14:55:07.666Z</time></trkpt><trkpt lat="44.7290914" lon="9.7933489"><ele>943.0</ele><time>2026-03-28T14:55:09.664Z</time></trkpt><trkpt lat="44.7291527" lon="9.7933238"><ele>943.0</ele><time>2026-03-28T14:55:11.664Z</time></trkpt><trkpt lat="44.7292285" lon="9.7933137"><ele>943.0000000000001</ele><time>2026-03-28T14:55:13.665Z</time></trkpt><trkpt lat="44.7292988" lon="9.7933563"><ele>943.0</ele><time>2026-03-28T14:55:15.665Z</time></trkpt><trkpt lat="44.7293554" lon="9.7934608"><ele>943.0</ele><time>2026-03-28T14:55:18.667Z</time></trkpt><trkpt lat="44.7294117" lon="9.7935817"><ele>943.0</ele><time>2026-03-28T14:55:20.666Z</time></trkpt><trkpt lat="44.729485" lon="9.7936317"><ele>943.0</ele><time>2026-03-28T14:55:22.666Z</time></trkpt><trkpt lat="44.7295717" lon="9.793585"><ele>943.0</ele><time>2026-03-28T14:55:24.665Z</time></trkpt><trkpt lat="44.7296717" lon="9.7935283"><ele>943.0</ele><time>2026-03-28T14:55:26.665Z</time></trkpt><trkpt lat="44.729755" lon="9.7934783"><ele>943.0</ele><time>2026-03-28T14:55:28.667Z</time></trkpt><trkpt lat="44.7298533" lon="9.7934683"><ele>942.9999999999999</ele><time>2026-03-28T14:55:30.667Z</time></trkpt><trkpt lat="44.7299383" lon="9.79343"><ele>943.0</ele><time>2026-03-28T14:55:32.667Z</time></trkpt><trkpt lat="44.7300283" lon="9.7933217"><ele>943.0</ele><time>2026-03-28T14:55:34.666Z</time></trkpt><trkpt lat="44.730065" lon="9.7932383"><ele>943.0</ele><time>2026-03-28T14:55:35.666Z</time></trkpt><trkpt lat="44.7301183" lon="9.7931767"><ele>942.9999999999999</ele><time>2026-03-28T14:55:36.665Z</time></trkpt><trkpt lat="44.73018" lon="9.793125"><ele>943.0</ele><time>2026-03-28T14:55:37.665Z</time></trkpt><trkpt lat="44.730235" lon="9.7930783"><ele>941.8333333333333</ele><time>2026-03-28T14:55:38.667Z</time></trkpt><trkpt lat="44.7302933" lon="9.7930433"><ele>940.6666666666666</ele><time>2026-03-28T14:55:39.666Z</time></trkpt><trkpt lat="44.73036" lon="9.7930217"><ele>939.5</ele><time>2026-03-28T14:55:40.667Z</time></trkpt><trkpt lat="44.7304433" lon="9.7929783"><ele>938.3333333333333</ele><time>2026-03-28T14:55:42.668Z</time></trkpt><trkpt lat="44.7305083" lon="9.7929017"><ele>937.1666666666666</ele><time>2026-03-28T14:55:45.667Z</time></trkpt><trkpt lat="44.7305567" lon="9.7927933"><ele>936.0</ele><time>2026-03-28T14:55:48.667Z</time></trkpt><trkpt lat="44.7305883" lon="9.79268"><ele>936.3333333333334</ele><time>2026-03-28T14:55:51.665Z</time></trkpt><trkpt lat="44.730625" lon="9.7925867"><ele>936.6666666666667</ele><time>2026-03-28T14:55:54.666Z</time></trkpt><trkpt lat="44.730605" lon="9.7924617"><ele>937.0</ele><time>2026-03-28T14:56:06.667Z</time></trkpt><trkpt lat="44.7306167" lon="9.7923667"><ele>937.3333333333334</ele><time>2026-03-28T14:56:09.664Z</time></trkpt><trkpt lat="44.7306117" lon="9.7922383"><ele>937.6666666666667</ele><time>2026-03-28T14:56:12.665Z</time></trkpt><trkpt lat="44.7305983" lon="9.79212"><ele>938.0</ele><time>2026-03-28T14:56:14.665Z</time></trkpt><trkpt lat="44.7305983" lon="9.79202"><ele>938.0000000000001</ele><time>2026-03-28T14:56:16.665Z</time></trkpt><trkpt lat="44.7306383" lon="9.79191"><ele>938.0</ele><time>2026-03-28T14:56:19.665Z</time></trkpt><trkpt lat="44.7306983" lon="9.79178"><ele>938.0</ele><time>2026-03-28T14:56:21.665Z</time></trkpt><trkpt lat="44.7307433" lon="9.791695"><ele>938.0</ele><time>2026-03-28T14:56:22.666Z</time></trkpt><trkpt lat="44.7307983" lon="9.7916167"><ele>938.0000000000001</ele><time>2026-03-28T14:56:23.666Z</time></trkpt><trkpt lat="44.730855" lon="9.7915433"><ele>938.0</ele><time>2026-03-28T14:56:24.664Z</time></trkpt><trkpt lat="44.7309133" lon="9.7914783"><ele>937.6666666666667</ele><time>2026-03-28T14:56:25.666Z</time></trkpt><trkpt lat="44.73097" lon="9.791405"><ele>937.3333333333334</ele><time>2026-03-28T14:56:26.666Z</time></trkpt><trkpt lat="44.7310233" lon="9.791345"><ele>937.0</ele><time>2026-03-28T14:56:27.664Z</time></trkpt><trkpt lat="44.7310733" lon="9.7912867"><ele>936.6666666666667</ele><time>2026-03-28T14:56:28.666Z</time></trkpt><trkpt lat="44.73116" lon="9.7911883"><ele>936.3333333333334</ele><time>2026-03-28T14:56:30.667Z</time></trkpt><trkpt lat="44.731245" lon="9.79111"><ele>936.0</ele><time>2026-03-28T14:56:32.666Z</time></trkpt><trkpt lat="44.7313383" lon="9.7910717"><ele>935.5</ele><time>2026-03-28T14:56:34.665Z</time></trkpt><trkpt lat="44.73145" lon="9.7910233"><ele>935.0</ele><time>2026-03-28T14:56:36.666Z</time></trkpt><trkpt lat="44.7315567" lon="9.7909567"><ele>934.5</ele><time>2026-03-28T14:56:38.666Z</time></trkpt><trkpt lat="44.73162" lon="9.79092"><ele>934.0</ele><time>2026-03-28T14:56:39.666Z</time></trkpt><trkpt lat="44.7316817" lon="9.79089"><ele>933.5</ele><time>2026-03-28T14:56:40.666Z</time></trkpt><trkpt lat="44.731745" lon="9.7908617"><ele>933.0</ele><time>2026-03-28T14:56:41.667Z</time></trkpt><trkpt lat="44.7318017" lon="9.7908067"><ele>933.0</ele><time>2026-03-28T14:56:42.665Z</time></trkpt><trkpt lat="44.7318717" lon="9.7907433"><ele>933.0</ele><time>2026-03-28T14:56:43.667Z</time></trkpt><trkpt lat="44.7319317" lon="9.7906917"><ele>933.0</ele><time>2026-03-28T14:56:44.665Z</time></trkpt><trkpt lat="44.73199" lon="9.7906533"><ele>933.0</ele><time>2026-03-28T14:56:45.665Z</time></trkpt><trkpt lat="44.732095" lon="9.7905783"><ele>933.0</ele><time>2026-03-28T14:56:47.666Z</time></trkpt><trkpt lat="44.7321783" lon="9.79048"><ele>933.0</ele><time>2026-03-28T14:56:49.667Z</time></trkpt><trkpt lat="44.7322617" lon="9.7904117"><ele>933.3333333333334</ele><time>2026-03-28T14:56:51.666Z</time></trkpt><trkpt lat="44.7323217" lon="9.790375"><ele>933.6666666666667</ele><time>2026-03-28T14:56:52.668Z</time></trkpt><trkpt lat="44.7323883" lon="9.7903417"><ele>934.0</ele><time>2026-03-28T14:56:53.666Z</time></trkpt><trkpt lat="44.732455" lon="9.7903183"><ele>934.3333333333334</ele><time>2026-03-28T14:56:54.667Z</time></trkpt><trkpt lat="44.7325633" lon="9.7902867"><ele>934.6666666666667</ele><time>2026-03-28T14:56:56.666Z</time></trkpt><trkpt lat="44.73263" lon="9.7902467"><ele>935.0</ele><time>2026-03-28T14:56:58.667Z</time></trkpt><trkpt lat="44.7326933" lon="9.7901533"><ele>934.6666666666667</ele><time>2026-03-28T14:57:01.666Z</time></trkpt><trkpt lat="44.7327483" lon="9.7900933"><ele>934.3333333333334</ele><time>2026-03-28T14:57:03.667Z</time></trkpt><trkpt lat="44.7328167" lon="9.79008"><ele>934.0</ele><time>2026-03-28T14:57:05.666Z</time></trkpt><trkpt lat="44.732915" lon="9.7901167"><ele>933.6666666666667</ele><time>2026-03-28T14:57:07.666Z</time></trkpt><trkpt lat="44.7330183" lon="9.79017"><ele>933.3333333333334</ele><time>2026-03-28T14:57:09.666Z</time></trkpt><trkpt lat="44.7330817" lon="9.7902033"><ele>933.0</ele><time>2026-03-28T14:57:10.665Z</time></trkpt><trkpt lat="44.7331433" lon="9.7902333"><ele>933.0</ele><time>2026-03-28T14:57:11.666Z</time></trkpt><trkpt lat="44.733245" lon="9.7902583"><ele>933.0</ele><time>2026-03-28T14:57:13.666Z</time></trkpt><trkpt lat="44.7333267" lon="9.7902783"><ele>933.0</ele><time>2026-03-28T14:57:16.665Z</time></trkpt><trkpt lat="44.7334017" lon="9.7902767"><ele>933.0</ele><time>2026-03-28T14:57:18.666Z</time></trkpt><trkpt lat="44.7334583" lon="9.7902117"><ele>933.0</ele><time>2026-03-28T14:57:20.668Z</time></trkpt><trkpt lat="44.7334967" lon="9.7900733"><ele>933.0</ele><time>2026-03-28T14:57:22.666Z</time></trkpt><trkpt lat="44.73353" lon="9.7899717"><ele>934.0</ele><time>2026-03-28T14:57:23.665Z</time></trkpt><trkpt lat="44.73356" lon="9.7898633"><ele>935.0</ele><time>2026-03-28T14:57:24.665Z</time></trkpt><trkpt lat="44.7336" lon="9.7897417"><ele>936.0</ele><time>2026-03-28T14:57:25.666Z</time></trkpt><trkpt lat="44.73364" lon="9.7896267"><ele>937.0</ele><time>2026-03-28T14:57:26.666Z</time></trkpt><trkpt lat="44.7336833" lon="9.7895183"><ele>938.0</ele><time>2026-03-28T14:57:27.665Z</time></trkpt><trkpt lat="44.7337283" lon="9.789405"><ele>939.0</ele><time>2026-03-28T14:57:28.668Z</time></trkpt><trkpt lat="44.73376" lon="9.7893033"><ele>940.5</ele><time>2026-03-28T14:57:29.667Z</time></trkpt><trkpt lat="44.7337733" lon="9.7892067"><ele>942.0</ele><time>2026-03-28T14:57:30.667Z</time></trkpt><trkpt lat="44.733795" lon="9.7891117"><ele>943.5</ele><time>2026-03-28T14:57:31.667Z</time></trkpt><trkpt lat="44.73381" lon="9.789015"><ele>945.0</ele><time>2026-03-28T14:57:32.667Z</time></trkpt><trkpt lat="44.7338267" lon="9.78892"><ele>946.5</ele><time>2026-03-28T14:57:33.666Z</time></trkpt><trkpt lat="44.7338317" lon="9.78882"><ele>948.0</ele><time>2026-03-28T14:57:34.668Z</time></trkpt><trkpt lat="44.733835" lon="9.788645"><ele>946.5999999999999</ele><time>2026-03-28T14:57:36.666Z</time></trkpt><trkpt lat="44.7338317" lon="9.7884917"><ele>945.1999999999999</ele><time>2026-03-28T14:57:38.666Z</time></trkpt><trkpt lat="44.7338067" lon="9.78833"><ele>943.8</ele><time>2026-03-28T14:57:40.664Z</time></trkpt><trkpt lat="44.7337617" lon="9.7881867"><ele>942.4</ele><time>2026-03-28T14:57:42.668Z</time></trkpt><trkpt lat="44.7337233" lon="9.7880467"><ele>941.0</ele><time>2026-03-28T14:57:44.666Z</time></trkpt><trkpt lat="44.73372" lon="9.7879367"><ele>941.0</ele><time>2026-03-28T14:57:46.664Z</time></trkpt><trkpt lat="44.7336833" lon="9.7878283"><ele>940.9999999999999</ele><time>2026-03-28T14:57:48.667Z</time></trkpt><trkpt lat="44.7335983" lon="9.7877133"><ele>940.9999999999999</ele><time>2026-03-28T14:57:50.665Z</time></trkpt><trkpt lat="44.7335467" lon="9.7876417"><ele>941.0</ele><time>2026-03-28T14:57:51.665Z</time></trkpt><trkpt lat="44.7335017" lon="9.7875633"><ele>941.0</ele><time>2026-03-28T14:57:52.666Z</time></trkpt><trkpt lat="44.7334417" lon="9.7874083"><ele>940.2857142857142</ele><time>2026-03-28T14:57:54.665Z</time></trkpt><trkpt lat="44.7334117" lon="9.78733"><ele>939.5714285714286</ele><time>2026-03-28T14:57:55.665Z</time></trkpt><trkpt lat="44.7333783" lon="9.7872433"><ele>938.8571428571429</ele><time>2026-03-28T14:57:56.666Z</time></trkpt><trkpt lat="44.733345" lon="9.7871533"><ele>938.1428571428571</ele><time>2026-03-28T14:57:57.667Z</time></trkpt><trkpt lat="44.7333117" lon="9.7870567"><ele>937.4285714285716</ele><time>2026-03-28T14:57:58.665Z</time></trkpt><trkpt lat="44.73328" lon="9.7869617"><ele>936.7142857142858</ele><time>2026-03-28T14:57:59.666Z</time></trkpt><trkpt lat="44.7332433" lon="9.7868717"><ele>936.0</ele><time>2026-03-28T14:58:00.665Z</time></trkpt><trkpt lat="44.733205" lon="9.7868"><ele>933.1666666666666</ele><time>2026-03-28T14:58:01.667Z</time></trkpt><trkpt lat="44.7331183" lon="9.786705"><ele>930.3333333333333</ele><time>2026-03-28T14:58:03.665Z</time></trkpt><trkpt lat="44.7330317" lon="9.7866083"><ele>927.5</ele><time>2026-03-28T14:58:05.666Z</time></trkpt><trkpt lat="44.7329783" lon="9.78654"><ele>924.6666666666666</ele><time>2026-03-28T14:58:06.664Z</time></trkpt><trkpt lat="44.7329233" lon="9.786475"><ele>921.8333333333333</ele><time>2026-03-28T14:58:07.666Z</time></trkpt><trkpt lat="44.7328733" lon="9.7864183"><ele>919.0</ele><time>2026-03-28T14:58:08.666Z</time></trkpt><trkpt lat="44.73282" lon="9.786355"><ele>919.0</ele><time>2026-03-28T14:58:09.666Z</time></trkpt><trkpt lat="44.73277" lon="9.7862917"><ele>919.0000000000001</ele><time>2026-03-28T14:58:10.667Z</time></trkpt><trkpt lat="44.7326933" lon="9.7861783"><ele>919.0000000000001</ele><time>2026-03-28T14:58:12.668Z</time></trkpt><trkpt lat="44.732645" lon="9.7860483"><ele>919.0</ele><time>2026-03-28T14:58:14.665Z</time></trkpt><trkpt lat="44.7325983" lon="9.7859117"><ele>919.0</ele><time>2026-03-28T14:58:16.668Z</time></trkpt><trkpt lat="44.7325833" lon="9.785825"><ele>919.4999999999999</ele><time>2026-03-28T14:58:17.667Z</time></trkpt><trkpt lat="44.73257" lon="9.7857367"><ele>920.0</ele><time>2026-03-28T14:58:18.666Z</time></trkpt><trkpt lat="44.732545" lon="9.785605"><ele>920.5</ele><time>2026-03-28T14:58:20.665Z</time></trkpt><trkpt lat="44.7325283" lon="9.78549"><ele>921.0</ele><time>2026-03-28T14:58:22.665Z</time></trkpt><trkpt lat="44.732535" lon="9.7853983"><ele>921.4999999999999</ele><time>2026-03-28T14:58:24.665Z</time></trkpt><trkpt lat="44.7325383" lon="9.7853"><ele>922.0</ele><time>2026-03-28T14:58:26.666Z</time></trkpt><trkpt lat="44.7325417" lon="9.78518"><ele>920.2</ele><time>2026-03-28T14:58:28.666Z</time></trkpt><trkpt lat="44.7325283" lon="9.785075"><ele>918.4000000000001</ele><time>2026-03-28T14:58:30.665Z</time></trkpt><trkpt lat="44.7325083" lon="9.7849417"><ele>916.5999999999999</ele><time>2026-03-28T14:58:32.666Z</time></trkpt><trkpt lat="44.7325333" lon="9.78477"><ele>914.8</ele><time>2026-03-28T14:58:34.664Z</time></trkpt><trkpt lat="44.7325783" lon="9.7846417"><ele>913.0</ele><time>2026-03-28T14:58:36.664Z</time></trkpt><trkpt lat="44.7326217" lon="9.7845733"><ele>912.9999999999999</ele><time>2026-03-28T14:58:37.665Z</time></trkpt><trkpt lat="44.7326633" lon="9.7845017"><ele>913.0</ele><time>2026-03-28T14:58:38.667Z</time></trkpt><trkpt lat="44.7326967" lon="9.78442"><ele>912.9999999999999</ele><time>2026-03-28T14:58:39.665Z</time></trkpt><trkpt lat="44.7327217" lon="9.7843333"><ele>912.9999999999999</ele><time>2026-03-28T14:58:40.666Z</time></trkpt><trkpt lat="44.73272" lon="9.7841817"><ele>913.0</ele><time>2026-03-28T14:58:42.665Z</time></trkpt><trkpt lat="44.7326983" lon="9.7840933"><ele>912.9999999999999</ele><time>2026-03-28T14:58:43.666Z</time></trkpt><trkpt lat="44.7326967" lon="9.7840017"><ele>912.9999999999999</ele><time>2026-03-28T14:58:44.665Z</time></trkpt><trkpt lat="44.7327083" lon="9.7839"><ele>910.8333333333333</ele><time>2026-03-28T14:58:45.665Z</time></trkpt><trkpt lat="44.7327217" lon="9.7838"><ele>908.6666666666666</ele><time>2026-03-28T14:58:46.666Z</time></trkpt><trkpt lat="44.7327433" lon="9.7837033"><ele>906.5</ele><time>2026-03-28T14:58:47.668Z</time></trkpt><trkpt lat="44.73277" lon="9.78361"><ele>904.3333333333333</ele><time>2026-03-28T14:58:48.668Z</time></trkpt><trkpt lat="44.732795" lon="9.783525"><ele>902.1666666666666</ele><time>2026-03-28T14:58:49.666Z</time></trkpt><trkpt lat="44.73285" lon="9.78338"><ele>900.0</ele><time>2026-03-28T14:58:51.667Z</time></trkpt><trkpt lat="44.732895" lon="9.78323"><ele>899.8</ele><time>2026-03-28T14:58:53.667Z</time></trkpt><trkpt lat="44.732965" lon="9.78309"><ele>899.6</ele><time>2026-03-28T14:58:55.666Z</time></trkpt><trkpt lat="44.7330333" lon="9.782965"><ele>899.4000000000001</ele><time>2026-03-28T14:58:57.665Z</time></trkpt><trkpt lat="44.7330983" lon="9.7828633"><ele>899.2</ele><time>2026-03-28T14:58:59.666Z</time></trkpt><trkpt lat="44.7331367" lon="9.782775"><ele>899.0</ele><time>2026-03-28T14:59:01.666Z</time></trkpt><trkpt lat="44.73319" lon="9.7827"><ele>900.4000000000001</ele><time>2026-03-28T14:59:03.666Z</time></trkpt><trkpt lat="44.7332383" lon="9.7826317"><ele>901.8000000000001</ele><time>2026-03-28T14:59:05.665Z</time></trkpt><trkpt lat="44.7333117" lon="9.7825167"><ele>903.1999999999999</ele><time>2026-03-28T14:59:07.666Z</time></trkpt><trkpt lat="44.7333583" lon="9.7823867"><ele>904.5999999999999</ele><time>2026-03-28T14:59:09.665Z</time></trkpt><trkpt lat="44.733355" lon="9.7822117"><ele>906.0</ele><time>2026-03-28T14:59:11.664Z</time></trkpt><trkpt lat="44.7333533" lon="9.782115"><ele>906.0</ele><time>2026-03-28T14:59:12.668Z</time></trkpt><trkpt lat="44.733345" lon="9.7819633"><ele>905.9999999999999</ele><time>2026-03-28T14:59:13.666Z</time></trkpt><trkpt lat="44.733335" lon="9.781835"><ele>905.9999999999999</ele><time>2026-03-28T14:59:14.665Z</time></trkpt><trkpt lat="44.7333133" lon="9.781705"><ele>906.0</ele><time>2026-03-28T14:59:15.665Z</time></trkpt><trkpt lat="44.7333" lon="9.7815967"><ele>906.0</ele><time>2026-03-28T14:59:16.665Z</time></trkpt><trkpt lat="44.733265" lon="9.7814917"><ele>906.6666666666666</ele><time>2026-03-28T14:59:17.664Z</time></trkpt><trkpt lat="44.7332417" lon="9.781395"><ele>907.3333333333333</ele><time>2026-03-28T14:59:18.664Z</time></trkpt><trkpt lat="44.7332317" lon="9.781285"><ele>908.0</ele><time>2026-03-28T14:59:19.667Z</time></trkpt><trkpt lat="44.7332217" lon="9.7811783"><ele>908.6666666666666</ele><time>2026-03-28T14:59:20.667Z</time></trkpt><trkpt lat="44.7332233" lon="9.7810867"><ele>909.3333333333333</ele><time>2026-03-28T14:59:21.667Z</time></trkpt><trkpt lat="44.7332367" lon="9.781"><ele>910.0</ele><time>2026-03-28T14:59:22.667Z</time></trkpt><trkpt lat="44.7332733" lon="9.7808467"><ele>910.1666666666666</ele><time>2026-03-28T14:59:24.666Z</time></trkpt><trkpt lat="44.73331" lon="9.7806933"><ele>910.3333333333333</ele><time>2026-03-28T14:59:26.665Z</time></trkpt><trkpt lat="44.7333383" lon="9.7805967"><ele>910.5</ele><time>2026-03-28T14:59:27.665Z</time></trkpt><trkpt lat="44.7333667" lon="9.78049"><ele>910.6666666666667</ele><time>2026-03-28T14:59:28.666Z</time></trkpt><trkpt lat="44.733395" lon="9.78038"><ele>910.8333333333334</ele><time>2026-03-28T14:59:29.667Z</time></trkpt><trkpt lat="44.73342" lon="9.7802517"><ele>911.0</ele><time>2026-03-28T14:59:30.666Z</time></trkpt><trkpt lat="44.7334417" lon="9.7801217"><ele>911.0</ele><time>2026-03-28T14:59:31.667Z</time></trkpt><trkpt lat="44.7334533" lon="9.7799883"><ele>910.9999999999999</ele><time>2026-03-28T14:59:32.666Z</time></trkpt><trkpt lat="44.733465" lon="9.7798567"><ele>910.9999999999999</ele><time>2026-03-28T14:59:33.666Z</time></trkpt><trkpt lat="44.7334567" lon="9.7797217"><ele>911.0</ele><time>2026-03-28T14:59:34.667Z</time></trkpt><trkpt lat="44.733435" lon="9.779615"><ele>911.0</ele><time>2026-03-28T14:59:35.668Z</time></trkpt><trkpt lat="44.73338" lon="9.77945"><ele>911.0</ele><time>2026-03-28T14:59:37.666Z</time></trkpt><trkpt lat="44.7333567" lon="9.77934"><ele>910.9999999999999</ele><time>2026-03-28T14:59:39.666Z</time></trkpt><trkpt lat="44.733345" lon="9.7791917"><ele>910.9999999999999</ele><time>2026-03-28T14:59:41.667Z</time></trkpt><trkpt lat="44.7333167" lon="9.7790217"><ele>911.0</ele><time>2026-03-28T14:59:43.666Z</time></trkpt><trkpt lat="44.733275" lon="9.7789083"><ele>911.0</ele><time>2026-03-28T14:59:44.666Z</time></trkpt><trkpt lat="44.7332317" lon="9.77881"><ele>911.0000000000001</ele><time>2026-03-28T14:59:45.666Z</time></trkpt><trkpt lat="44.7331783" lon="9.7787267"><ele>911.0</ele><time>2026-03-28T14:59:46.665Z</time></trkpt><trkpt lat="44.733115" lon="9.7786517"><ele>911.0</ele><time>2026-03-28T14:59:47.665Z</time></trkpt><trkpt lat="44.7330383" lon="9.7785833"><ele>911.0</ele><time>2026-03-28T14:59:48.665Z</time></trkpt><trkpt lat="44.732965" lon="9.7785283"><ele>911.0000000000001</ele><time>2026-03-28T14:59:49.666Z</time></trkpt><trkpt lat="44.7328983" lon="9.77849"><ele>911.0</ele><time>2026-03-28T14:59:50.667Z</time></trkpt><trkpt lat="44.73283" lon="9.7784617"><ele>909.8571428571429</ele><time>2026-03-28T14:59:51.665Z</time></trkpt><trkpt lat="44.7327583" lon="9.7784283"><ele>908.7142857142857</ele><time>2026-03-28T14:59:52.667Z</time></trkpt><trkpt lat="44.7326867" lon="9.7784067"><ele>907.5714285714286</ele><time>2026-03-28T14:59:53.668Z</time></trkpt><trkpt lat="44.7326133" lon="9.7783917"><ele>906.4285714285714</ele><time>2026-03-28T14:59:54.668Z</time></trkpt><trkpt lat="44.7325483" lon="9.7783667"><ele>905.2857142857142</ele><time>2026-03-28T14:59:55.668Z</time></trkpt><trkpt lat="44.732485" lon="9.778345"><ele>904.1428571428571</ele><time>2026-03-28T14:59:56.669Z</time></trkpt><trkpt lat="44.7324167" lon="9.7783233"><ele>903.0</ele><time>2026-03-28T14:59:57.666Z</time></trkpt><trkpt lat="44.7323367" lon="9.7782967"><ele>903.0</ele><time>2026-03-28T14:59:58.667Z</time></trkpt><trkpt lat="44.732265" lon="9.7782533"><ele>903.0</ele><time>2026-03-28T14:59:59.665Z</time></trkpt><trkpt lat="44.7322083" lon="9.7782"><ele>903.0</ele><time>2026-03-28T15:00:00.664Z</time></trkpt><trkpt lat="44.732145" lon="9.7781617"><ele>903.0</ele><time>2026-03-28T15:00:01.665Z</time></trkpt><trkpt lat="44.732075" lon="9.7781217"><ele>903.0</ele><time>2026-03-28T15:00:02.666Z</time></trkpt><trkpt lat="44.732005" lon="9.7780967"><ele>903.0</ele><time>2026-03-28T15:00:03.665Z</time></trkpt><trkpt lat="44.731935" lon="9.778075"><ele>903.0</ele><time>2026-03-28T15:00:04.667Z</time></trkpt><trkpt lat="44.7318567" lon="9.7780517"><ele>903.5999999999999</ele><time>2026-03-28T15:00:05.666Z</time></trkpt><trkpt lat="44.7317767" lon="9.7780067"><ele>904.1999999999999</ele><time>2026-03-28T15:00:06.666Z</time></trkpt><trkpt lat="44.731685" lon="9.7779567"><ele>904.8</ele><time>2026-03-28T15:00:07.666Z</time></trkpt><trkpt lat="44.7315933" lon="9.7779083"><ele>905.4</ele><time>2026-03-28T15:00:08.667Z</time></trkpt><trkpt lat="44.7315" lon="9.777855"><ele>906.0</ele><time>2026-03-28T15:00:09.665Z</time></trkpt><trkpt lat="44.7314183" lon="9.77781"><ele>906.0</ele><time>2026-03-28T15:00:10.666Z</time></trkpt><trkpt lat="44.7313367" lon="9.77777"><ele>906.0</ele><time>2026-03-28T15:00:11.665Z</time></trkpt><trkpt lat="44.7312517" lon="9.777745"><ele>906.0</ele><time>2026-03-28T15:00:12.664Z</time></trkpt><trkpt lat="44.7311683" lon="9.7777383"><ele>906.0</ele><time>2026-03-28T15:00:13.664Z</time></trkpt><trkpt lat="44.73109" lon="9.77773"><ele>906.0</ele><time>2026-03-28T15:00:14.667Z</time></trkpt><trkpt lat="44.7310183" lon="9.7777067"><ele>906.0</ele><time>2026-03-28T15:00:15.665Z</time></trkpt><trkpt lat="44.7309583" lon="9.77767"><ele>904.7142857142856</ele><time>2026-03-28T15:00:16.665Z</time></trkpt><trkpt lat="44.7309017" lon="9.7776183"><ele>903.4285714285713</ele><time>2026-03-28T15:00:17.667Z</time></trkpt><trkpt lat="44.7308483" lon="9.7775583"><ele>902.1428571428571</ele><time>2026-03-28T15:00:18.665Z</time></trkpt><trkpt lat="44.7308033" lon="9.7774917"><ele>900.8571428571428</ele><time>2026-03-28T15:00:19.667Z</time></trkpt><trkpt lat="44.7307683" lon="9.7773983"><ele>899.5714285714284</ele><time>2026-03-28T15:00:20.666Z</time></trkpt><trkpt lat="44.730735" lon="9.7773033"><ele>898.2857142857143</ele><time>2026-03-28T15:00:21.666Z</time></trkpt><trkpt lat="44.7307" lon="9.7772133"><ele>897.0</ele><time>2026-03-28T15:00:22.665Z</time></trkpt><trkpt lat="44.73067" lon="9.777125"><ele>897.0</ele><time>2026-03-28T15:00:23.665Z</time></trkpt><trkpt lat="44.73065" lon="9.7769483"><ele>897.0</ele><time>2026-03-28T15:00:25.665Z</time></trkpt><trkpt lat="44.730695" lon="9.77681"><ele>897.0</ele><time>2026-03-28T15:00:27.665Z</time></trkpt><trkpt lat="44.730785" lon="9.7767333"><ele>897.0</ele><time>2026-03-28T15:00:29.666Z</time></trkpt><trkpt lat="44.73085" lon="9.77666"><ele>897.0</ele><time>2026-03-28T15:00:31.668Z</time></trkpt><trkpt lat="44.73092" lon="9.7765883"><ele>897.3333333333334</ele><time>2026-03-28T15:00:33.666Z</time></trkpt><trkpt lat="44.73101" lon="9.776495"><ele>897.6666666666667</ele><time>2026-03-28T15:00:35.667Z</time></trkpt><trkpt lat="44.7310617" lon="9.77644"><ele>898.0</ele><time>2026-03-28T15:00:36.667Z</time></trkpt><trkpt lat="44.7311217" lon="9.7763817"><ele>898.3333333333334</ele><time>2026-03-28T15:00:37.667Z</time></trkpt><trkpt lat="44.7311733" lon="9.7763217"><ele>898.6666666666667</ele><time>2026-03-28T15:00:38.666Z</time></trkpt><trkpt lat="44.73122" lon="9.77625"><ele>899.0</ele><time>2026-03-28T15:00:39.666Z</time></trkpt><trkpt lat="44.7312683" lon="9.77616"><ele>899.0</ele><time>2026-03-28T15:00:40.665Z</time></trkpt><trkpt lat="44.7313317" lon="9.7760667"><ele>899.0000000000001</ele><time>2026-03-28T15:00:41.667Z</time></trkpt><trkpt lat="44.7313967" lon="9.7759817"><ele>899.0000000000001</ele><time>2026-03-28T15:00:42.664Z</time></trkpt><trkpt lat="44.7314517" lon="9.7759083"><ele>899.0</ele><time>2026-03-28T15:00:43.665Z</time></trkpt><trkpt lat="44.7315067" lon="9.775835"><ele>899.0</ele><time>2026-03-28T15:00:44.668Z</time></trkpt><trkpt lat="44.731605" lon="9.7757383"><ele>899.0000000000001</ele><time>2026-03-28T15:00:46.666Z</time></trkpt><trkpt lat="44.7316867" lon="9.7757717"><ele>899.0</ele><time>2026-03-28T15:00:48.667Z</time></trkpt><trkpt lat="44.7317583" lon="9.77592"><ele>899.0</ele><time>2026-03-28T15:00:50.667Z</time></trkpt><trkpt lat="44.731795" lon="9.7760017"><ele>899.0</ele><time>2026-03-28T15:00:51.666Z</time></trkpt><trkpt lat="44.7318283" lon="9.7760867"><ele>899.0000000000001</ele><time>2026-03-28T15:00:52.666Z</time></trkpt><trkpt lat="44.731865" lon="9.7761783"><ele>899.0</ele><time>2026-03-28T15:00:53.667Z</time></trkpt><trkpt lat="44.731905" lon="9.77628"><ele>889.6</ele><time>2026-03-28T15:00:54.665Z</time></trkpt><trkpt lat="44.7319533" lon="9.7763817"><ele>880.2</ele><time>2026-03-28T15:00:55.668Z</time></trkpt><trkpt lat="44.7320117" lon="9.776485"><ele>870.8000000000001</ele><time>2026-03-28T15:00:56.667Z</time></trkpt><trkpt lat="44.7320767" lon="9.776585"><ele>861.4000000000001</ele><time>2026-03-28T15:00:57.667Z</time></trkpt><trkpt lat="44.73214" lon="9.776685"><ele>852.0</ele><time>2026-03-28T15:00:58.666Z</time></trkpt><trkpt lat="44.7322033" lon="9.7767917"><ele>858.0</ele><time>2026-03-28T15:00:59.666Z</time></trkpt><trkpt lat="44.7322783" lon="9.7768983"><ele>864.0</ele><time>2026-03-28T15:01:00.667Z</time></trkpt><trkpt lat="44.7323533" lon="9.7769933"><ele>870.0</ele><time>2026-03-28T15:01:01.666Z</time></trkpt><trkpt lat="44.7324233" lon="9.777075"><ele>876.0</ele><time>2026-03-28T15:01:02.666Z</time></trkpt><trkpt lat="44.7325083" lon="9.7771667"><ele>882.0</ele><time>2026-03-28T15:01:03.666Z</time></trkpt><trkpt lat="44.7325717" lon="9.77725"><ele>882.0</ele><time>2026-03-28T15:01:04.665Z</time></trkpt><trkpt lat="44.7326333" lon="9.7773117"><ele>882.0</ele><time>2026-03-28T15:01:05.666Z</time></trkpt><trkpt lat="44.7327033" lon="9.777375"><ele>882.0</ele><time>2026-03-28T15:01:06.666Z</time></trkpt><trkpt lat="44.732765" lon="9.7774267"><ele>882.0</ele><time>2026-03-28T15:01:07.667Z</time></trkpt><trkpt lat="44.7328733" lon="9.7774767"><ele>882.0</ele><time>2026-03-28T15:01:09.666Z</time></trkpt><trkpt lat="44.73297" lon="9.77749"><ele>882.0</ele><time>2026-03-28T15:01:11.666Z</time></trkpt><trkpt lat="44.733035" lon="9.7775083"><ele>877.5714285714286</ele><time>2026-03-28T15:01:12.666Z</time></trkpt><trkpt lat="44.7331017" lon="9.7775333"><ele>873.1428571428571</ele><time>2026-03-28T15:01:13.667Z</time></trkpt><trkpt lat="44.7331633" lon="9.77756"><ele>868.7142857142858</ele><time>2026-03-28T15:01:14.667Z</time></trkpt><trkpt lat="44.7332333" lon="9.7775783"><ele>864.2857142857142</ele><time>2026-03-28T15:01:15.666Z</time></trkpt><trkpt lat="44.73331" lon="9.7776"><ele>859.8571428571429</ele><time>2026-03-28T15:01:16.666Z</time></trkpt><trkpt lat="44.7333867" lon="9.77761"><ele>855.4285714285714</ele><time>2026-03-28T15:01:17.666Z</time></trkpt><trkpt lat="44.73346" lon="9.777615"><ele>851.0</ele><time>2026-03-28T15:01:18.666Z</time></trkpt><trkpt lat="44.73353" lon="9.77762"><ele>846.1666666666667</ele><time>2026-03-28T15:01:19.665Z</time></trkpt><trkpt lat="44.7335983" lon="9.7776083"><ele>841.3333333333334</ele><time>2026-03-28T15:01:20.667Z</time></trkpt><trkpt lat="44.7336683" lon="9.7775983"><ele>836.5</ele><time>2026-03-28T15:01:21.666Z</time></trkpt><trkpt lat="44.7337433" lon="9.7775783"><ele>831.6666666666667</ele><time>2026-03-28T15:01:22.666Z</time></trkpt><trkpt lat="44.7338167" lon="9.77756"><ele>826.8333333333334</ele><time>2026-03-28T15:01:23.667Z</time></trkpt><trkpt lat="44.7339067" lon="9.7775533"><ele>822.0</ele><time>2026-03-28T15:01:24.667Z</time></trkpt><trkpt lat="44.7339767" lon="9.77757"><ele>822.0</ele><time>2026-03-28T15:01:25.666Z</time></trkpt><trkpt lat="44.7340467" lon="9.777565"><ele>822.0</ele><time>2026-03-28T15:01:26.667Z</time></trkpt><trkpt lat="44.7341783" lon="9.7775417"><ele>822.0</ele><time>2026-03-28T15:01:28.665Z</time></trkpt><trkpt lat="44.7342567" lon="9.7775117"><ele>822.0</ele><time>2026-03-28T15:01:29.667Z</time></trkpt><trkpt lat="44.7343333" lon="9.7774667"><ele>822.0</ele><time>2026-03-28T15:01:30.666Z</time></trkpt><trkpt lat="44.7344183" lon="9.7774217"><ele>820.0</ele><time>2026-03-28T15:01:31.667Z</time></trkpt><trkpt lat="44.7345" lon="9.7773867"><ele>818.0</ele><time>2026-03-28T15:01:32.667Z</time></trkpt><trkpt lat="44.7345817" lon="9.7773383"><ele>816.0</ele><time>2026-03-28T15:01:33.667Z</time></trkpt><trkpt lat="44.7346533" lon="9.777295"><ele>814.0</ele><time>2026-03-28T15:01:34.666Z</time></trkpt><trkpt lat="44.7347233" lon="9.7772417"><ele>812.0</ele><time>2026-03-28T15:01:35.666Z</time></trkpt><trkpt lat="44.7348" lon="9.777185"><ele>810.0</ele><time>2026-03-28T15:01:36.666Z</time></trkpt><trkpt lat="44.7349067" lon="9.7771367"><ele>810.0</ele><time>2026-03-28T15:01:37.667Z</time></trkpt><trkpt lat="44.7349767" lon="9.7770883"><ele>810.0</ele><time>2026-03-28T15:01:38.667Z</time></trkpt><trkpt lat="44.7350467" lon="9.77704"><ele>810.0</ele><time>2026-03-28T15:01:39.666Z</time></trkpt><trkpt lat="44.735115" lon="9.7769733"><ele>810.0</ele><time>2026-03-28T15:01:40.668Z</time></trkpt><trkpt lat="44.7351883" lon="9.7769017"><ele>810.0</ele><time>2026-03-28T15:01:41.667Z</time></trkpt><trkpt lat="44.73526" lon="9.7768233"><ele>810.0</ele><time>2026-03-28T15:01:42.667Z</time></trkpt><trkpt lat="44.7353383" lon="9.7767467"><ele>804.1666666666666</ele><time>2026-03-28T15:01:43.667Z</time></trkpt><trkpt lat="44.7354217" lon="9.7766967"><ele>798.3333333333333</ele><time>2026-03-28T15:01:44.668Z</time></trkpt><trkpt lat="44.735495" lon="9.7766533"><ele>792.5</ele><time>2026-03-28T15:01:45.667Z</time></trkpt><trkpt lat="44.735555" lon="9.7766117"><ele>786.6666666666666</ele><time>2026-03-28T15:01:46.667Z</time></trkpt><trkpt lat="44.7356533" lon="9.77654"><ele>780.8333333333333</ele><time>2026-03-28T15:01:48.666Z</time></trkpt><trkpt lat="44.7357217" lon="9.7765167"><ele>775.0</ele><time>2026-03-28T15:01:50.666Z</time></trkpt><trkpt lat="44.7357667" lon="9.7765817"><ele>775.0</ele><time>2026-03-28T15:01:52.665Z</time></trkpt><trkpt lat="44.7357983" lon="9.7767033"><ele>775.0</ele><time>2026-03-28T15:01:54.666Z</time></trkpt><trkpt lat="44.7358267" lon="9.776855"><ele>775.0</ele><time>2026-03-28T15:01:56.666Z</time></trkpt><trkpt lat="44.73584" lon="9.7770233"><ele>775.0</ele><time>2026-03-28T15:01:58.665Z</time></trkpt><trkpt lat="44.7358333" lon="9.7771117"><ele>775.0</ele><time>2026-03-28T15:01:59.667Z</time></trkpt><trkpt lat="44.7358333" lon="9.7772117"><ele>775.3333333333333</ele><time>2026-03-28T15:02:00.665Z</time></trkpt><trkpt lat="44.7358367" lon="9.7773233"><ele>775.6666666666666</ele><time>2026-03-28T15:02:01.665Z</time></trkpt><trkpt lat="44.735855" lon="9.7774333"><ele>776.0</ele><time>2026-03-28T15:02:02.665Z</time></trkpt><trkpt lat="44.7358783" lon="9.7775417"><ele>776.3333333333333</ele><time>2026-03-28T15:02:03.664Z</time></trkpt><trkpt lat="44.7359217" lon="9.7776433"><ele>776.6666666666666</ele><time>2026-03-28T15:02:04.664Z</time></trkpt><trkpt lat="44.7359733" lon="9.7777317"><ele>777.0</ele><time>2026-03-28T15:02:05.665Z</time></trkpt><trkpt lat="44.736025" lon="9.7778117"><ele>774.8</ele><time>2026-03-28T15:02:06.664Z</time></trkpt><trkpt lat="44.736095" lon="9.7779017"><ele>772.6</ele><time>2026-03-28T15:02:07.664Z</time></trkpt><trkpt lat="44.7361633" lon="9.7779867"><ele>770.4</ele><time>2026-03-28T15:02:08.667Z</time></trkpt><trkpt lat="44.736245" lon="9.778065"><ele>768.1999999999999</ele><time>2026-03-28T15:02:09.665Z</time></trkpt><trkpt lat="44.7363283" lon="9.77813"><ele>766.0</ele><time>2026-03-28T15:02:10.666Z</time></trkpt><trkpt lat="44.7364033" lon="9.7781717"><ele>766.0</ele><time>2026-03-28T15:02:11.666Z</time></trkpt><trkpt lat="44.7364667" lon="9.778185"><ele>766.0</ele><time>2026-03-28T15:02:12.665Z</time></trkpt><trkpt lat="44.7365617" lon="9.7781167"><ele>766.0</ele><time>2026-03-28T15:02:14.666Z</time></trkpt><trkpt lat="44.736665" lon="9.7780883"><ele>766.0</ele><time>2026-03-28T15:02:16.664Z</time></trkpt><trkpt lat="44.7367467" lon="9.7781067"><ele>766.0</ele><time>2026-03-28T15:02:17.666Z</time></trkpt><trkpt lat="44.7368383" lon="9.77814"><ele>762.1666666666667</ele><time>2026-03-28T15:02:18.665Z</time></trkpt><trkpt lat="44.7369217" lon="9.7781633"><ele>758.3333333333334</ele><time>2026-03-28T15:02:19.666Z</time></trkpt><trkpt lat="44.7370083" lon="9.77819"><ele>754.5</ele><time>2026-03-28T15:02:20.666Z</time></trkpt><trkpt lat="44.7370917" lon="9.778215"><ele>750.6666666666666</ele><time>2026-03-28T15:02:21.666Z</time></trkpt><trkpt lat="44.737165" lon="9.7782467"><ele>746.8333333333333</ele><time>2026-03-28T15:02:22.665Z</time></trkpt><trkpt lat="44.7372383" lon="9.778295"><ele>743.0</ele><time>2026-03-28T15:02:23.666Z</time></trkpt><trkpt lat="44.737295" lon="9.7783533"><ele>743.0</ele><time>2026-03-28T15:02:24.666Z</time></trkpt><trkpt lat="44.737345" lon="9.778435"><ele>743.0</ele><time>2026-03-28T15:02:25.668Z</time></trkpt><trkpt lat="44.73739" lon="9.7785383"><ele>743.0</ele><time>2026-03-28T15:02:26.668Z</time></trkpt><trkpt lat="44.73743" lon="9.7786517"><ele>743.0</ele><time>2026-03-28T15:02:27.665Z</time></trkpt><trkpt lat="44.7374683" lon="9.7787817"><ele>743.0</ele><time>2026-03-28T15:02:28.666Z</time></trkpt><trkpt lat="44.737505" lon="9.7789117"><ele>743.4</ele><time>2026-03-28T15:02:29.665Z</time></trkpt><trkpt lat="44.7375417" lon="9.7790467"><ele>743.8</ele><time>2026-03-28T15:02:30.667Z</time></trkpt><trkpt lat="44.7375833" lon="9.7791867"><ele>744.2</ele><time>2026-03-28T15:02:31.667Z</time></trkpt><trkpt lat="44.737625" lon="9.7793217"><ele>744.6</ele><time>2026-03-28T15:02:32.667Z</time></trkpt><trkpt lat="44.7376633" lon="9.7794533"><ele>745.0</ele><time>2026-03-28T15:02:33.666Z</time></trkpt><trkpt lat="44.7377033" lon="9.7795767"><ele>745.0</ele><time>2026-03-28T15:02:34.666Z</time></trkpt><trkpt lat="44.737715" lon="9.7796917"><ele>745.0</ele><time>2026-03-28T15:02:35.667Z</time></trkpt><trkpt lat="44.737715" lon="9.7798017"><ele>745.0</ele><time>2026-03-28T15:02:36.666Z</time></trkpt><trkpt lat="44.737715" lon="9.779915"><ele>745.0</ele><time>2026-03-28T15:02:37.667Z</time></trkpt><trkpt lat="44.7377067" lon="9.7800217"><ele>745.0</ele><time>2026-03-28T15:02:38.666Z</time></trkpt><trkpt lat="44.737685" lon="9.7801233"><ele>745.0</ele><time>2026-03-28T15:02:39.666Z</time></trkpt><trkpt lat="44.73766" lon="9.7802183"><ele>744.0</ele><time>2026-03-28T15:02:40.665Z</time></trkpt><trkpt lat="44.73764" lon="9.7803533"><ele>743.0</ele><time>2026-03-28T15:02:42.666Z</time></trkpt><trkpt lat="44.7376567" lon="9.7804817"><ele>742.0</ele><time>2026-03-28T15:02:44.666Z</time></trkpt><trkpt lat="44.73771" lon="9.7805983"><ele>741.0</ele><time>2026-03-28T15:02:46.667Z</time></trkpt><trkpt lat="44.73778" lon="9.7806867"><ele>740.0</ele><time>2026-03-28T15:02:47.667Z</time></trkpt><trkpt lat="44.7378417" lon="9.7807633"><ele>737.3333333333333</ele><time>2026-03-28T15:02:48.667Z</time></trkpt><trkpt lat="44.7379" lon="9.78084"><ele>734.6666666666666</ele><time>2026-03-28T15:02:49.666Z</time></trkpt><trkpt lat="44.7379483" lon="9.7809"><ele>732.0</ele><time>2026-03-28T15:02:50.665Z</time></trkpt><trkpt lat="44.7380383" lon="9.7809983"><ele>729.3333333333334</ele><time>2026-03-28T15:02:52.665Z</time></trkpt><trkpt lat="44.7381183" lon="9.781105"><ele>726.6666666666667</ele><time>2026-03-28T15:04:13.665Z</time></trkpt><trkpt lat="44.738145" lon="9.7811883"><ele>724.0</ele><time>2026-03-28T15:04:14.666Z</time></trkpt><trkpt lat="44.7381633" lon="9.7812967"><ele>723.2</ele><time>2026-03-28T15:04:15.665Z</time></trkpt><trkpt lat="44.738175" lon="9.7814133"><ele>722.4000000000001</ele><time>2026-03-28T15:04:16.666Z</time></trkpt><trkpt lat="44.7381867" lon="9.78154"><ele>721.6</ele><time>2026-03-28T15:04:17.666Z</time></trkpt><trkpt lat="44.7381667" lon="9.78169"><ele>720.8</ele><time>2026-03-28T15:04:18.666Z</time></trkpt><trkpt lat="44.7381533" lon="9.78182"><ele>720.0</ele><time>2026-03-28T15:04:19.666Z</time></trkpt><trkpt lat="44.7381417" lon="9.7819517"><ele>718.8</ele><time>2026-03-28T15:04:20.666Z</time></trkpt><trkpt lat="44.73813" lon="9.78208"><ele>717.6</ele><time>2026-03-28T15:04:21.666Z</time></trkpt><trkpt lat="44.7381383" lon="9.7822333"><ele>716.4000000000001</ele><time>2026-03-28T15:04:22.668Z</time></trkpt><trkpt lat="44.7381583" lon="9.7823483"><ele>715.2</ele><time>2026-03-28T15:04:23.667Z</time></trkpt><trkpt lat="44.7381967" lon="9.78245"><ele>714.0</ele><time>2026-03-28T15:04:24.668Z</time></trkpt><trkpt lat="44.7382233" lon="9.7825617"><ele>714.0</ele><time>2026-03-28T15:04:25.667Z</time></trkpt><trkpt lat="44.7382267" lon="9.7826717"><ele>714.0</ele><time>2026-03-28T15:04:26.668Z</time></trkpt><trkpt lat="44.7382167" lon="9.7828733"><ele>714.0</ele><time>2026-03-28T15:04:39.666Z</time></trkpt><trkpt lat="44.7381733" lon="9.7830433"><ele>714.0</ele><time>2026-03-28T15:04:41.667Z</time></trkpt><trkpt lat="44.73814" lon="9.7831533"><ele>714.0</ele><time>2026-03-28T15:04:42.667Z</time></trkpt><trkpt lat="44.738105" lon="9.78326"><ele>713.0</ele><time>2026-03-28T15:04:43.665Z</time></trkpt><trkpt lat="44.73808" lon="9.7833733"><ele>712.0</ele><time>2026-03-28T15:04:44.665Z</time></trkpt><trkpt lat="44.738065" lon="9.7834917"><ele>711.0</ele><time>2026-03-28T15:04:45.666Z</time></trkpt><trkpt lat="44.73807" lon="9.7836083"><ele>710.0</ele><time>2026-03-28T15:04:46.666Z</time></trkpt><trkpt lat="44.7381033" lon="9.7837083"><ele>709.0</ele><time>2026-03-28T15:04:47.667Z</time></trkpt><trkpt lat="44.7381433" lon="9.7838167"><ele>708.0</ele><time>2026-03-28T15:04:48.669Z</time></trkpt><trkpt lat="44.7381767" lon="9.7839283"><ele>707.3333333333334</ele><time>2026-03-28T15:04:49.668Z</time></trkpt><trkpt lat="44.738205" lon="9.7840417"><ele>706.6666666666666</ele><time>2026-03-28T15:04:50.669Z</time></trkpt><trkpt lat="44.738245" lon="9.784155"><ele>706.0</ele><time>2026-03-28T15:04:51.667Z</time></trkpt><trkpt lat="44.73827" lon="9.7842533"><ele>705.3333333333333</ele><time>2026-03-28T15:04:52.667Z</time></trkpt><trkpt lat="44.738295" lon="9.7843433"><ele>704.6666666666666</ele><time>2026-03-28T15:04:53.667Z</time></trkpt><trkpt lat="44.7383317" lon="9.7844233"><ele>704.0</ele><time>2026-03-28T15:04:54.668Z</time></trkpt><trkpt lat="44.73841" lon="9.7845283"><ele>703.8333333333333</ele><time>2026-03-28T15:04:56.667Z</time></trkpt><trkpt lat="44.73852" lon="9.7846117"><ele>703.6666666666666</ele><time>2026-03-28T15:04:58.668Z</time></trkpt><trkpt lat="44.7385733" lon="9.784665"><ele>703.5</ele><time>2026-03-28T15:04:59.668Z</time></trkpt><trkpt lat="44.7386217" lon="9.7847467"><ele>703.3333333333334</ele><time>2026-03-28T15:05:00.666Z</time></trkpt><trkpt lat="44.73867" lon="9.784845"><ele>703.1666666666667</ele><time>2026-03-28T15:05:01.666Z</time></trkpt><trkpt lat="44.7387067" lon="9.7849467"><ele>703.0</ele><time>2026-03-28T15:05:02.665Z</time></trkpt><trkpt lat="44.7387367" lon="9.7850567"><ele>700.8333333333334</ele><time>2026-03-28T15:05:03.665Z</time></trkpt><trkpt lat="44.7387633" lon="9.7851767"><ele>698.6666666666667</ele><time>2026-03-28T15:05:04.666Z</time></trkpt><trkpt lat="44.7387783" lon="9.7853017"><ele>696.5</ele><time>2026-03-28T15:05:05.666Z</time></trkpt><trkpt lat="44.73879" lon="9.7854167"><ele>694.3333333333334</ele><time>2026-03-28T15:05:06.665Z</time></trkpt><trkpt lat="44.73879" lon="9.785545"><ele>692.1666666666666</ele><time>2026-03-28T15:05:07.667Z</time></trkpt><trkpt lat="44.73879" lon="9.78567"><ele>690.0</ele><time>2026-03-28T15:05:08.667Z</time></trkpt><trkpt lat="44.7387817" lon="9.7858017"><ele>690.0</ele><time>2026-03-28T15:05:09.666Z</time></trkpt><trkpt lat="44.7387767" lon="9.78593"><ele>690.0</ele><time>2026-03-28T15:05:10.667Z</time></trkpt><trkpt lat="44.73879" lon="9.7860333"><ele>690.0</ele><time>2026-03-28T15:05:11.665Z</time></trkpt><trkpt lat="44.738805" lon="9.7861533"><ele>690.0</ele><time>2026-03-28T15:05:12.665Z</time></trkpt><trkpt lat="44.73882" lon="9.7862617"><ele>690.0</ele><time>2026-03-28T15:05:13.666Z</time></trkpt><trkpt lat="44.7388233" lon="9.7863733"><ele>690.0</ele><time>2026-03-28T15:05:14.666Z</time></trkpt><trkpt lat="44.7388333" lon="9.7864867"><ele>689.8</ele><time>2026-03-28T15:05:15.666Z</time></trkpt><trkpt lat="44.7388533" lon="9.7865917"><ele>689.6</ele><time>2026-03-28T15:05:16.667Z</time></trkpt><trkpt lat="44.7388867" lon="9.7866717"><ele>689.4000000000001</ele><time>2026-03-28T15:05:17.667Z</time></trkpt><trkpt lat="44.738975" lon="9.786795"><ele>689.2</ele><time>2026-03-28T15:05:19.665Z</time></trkpt><trkpt lat="44.73905" lon="9.786905"><ele>689.0</ele><time>2026-03-28T15:05:21.666Z</time></trkpt><trkpt lat="44.7390717" lon="9.7870217"><ele>688.3333333333333</ele><time>2026-03-28T15:05:23.666Z</time></trkpt><trkpt lat="44.7391067" lon="9.7871133"><ele>687.6666666666666</ele><time>2026-03-28T15:05:25.666Z</time></trkpt><trkpt lat="44.7391783" lon="9.787155"><ele>687.0</ele><time>2026-03-28T15:05:27.666Z</time></trkpt><trkpt lat="44.7392483" lon="9.7871267"><ele>686.3333333333334</ele><time>2026-03-28T15:05:29.666Z</time></trkpt><trkpt lat="44.7393467" lon="9.78709"><ele>685.6666666666667</ele><time>2026-03-28T15:05:31.665Z</time></trkpt><trkpt lat="44.739465" lon="9.78707"><ele>685.0</ele><time>2026-03-28T15:05:33.666Z</time></trkpt><trkpt lat="44.7395317" lon="9.78707"><ele>682.8333333333334</ele><time>2026-03-28T15:05:34.666Z</time></trkpt><trkpt lat="44.73961" lon="9.7870683"><ele>680.6666666666667</ele><time>2026-03-28T15:05:35.666Z</time></trkpt><trkpt lat="44.73969" lon="9.7870683"><ele>678.5</ele><time>2026-03-28T15:05:36.666Z</time></trkpt><trkpt lat="44.73977" lon="9.787075"><ele>676.3333333333334</ele><time>2026-03-28T15:05:37.665Z</time></trkpt><trkpt lat="44.7398433" lon="9.787095"><ele>674.1666666666666</ele><time>2026-03-28T15:05:38.666Z</time></trkpt><trkpt lat="44.7399167" lon="9.7871267"><ele>672.0</ele><time>2026-03-28T15:05:39.666Z</time></trkpt><trkpt lat="44.73998" lon="9.7871717"><ele>672.0</ele><time>2026-03-28T15:05:40.666Z</time></trkpt><trkpt lat="44.740035" lon="9.7872267"><ele>672.0</ele><time>2026-03-28T15:05:41.666Z</time></trkpt><trkpt lat="44.7401467" lon="9.787285"><ele>672.0</ele><time>2026-03-28T15:05:43.666Z</time></trkpt><trkpt lat="44.7402167" lon="9.7872783"><ele>672.0</ele><time>2026-03-28T15:05:44.668Z</time></trkpt><trkpt lat="44.7402917" lon="9.7872583"><ele>672.0</ele><time>2026-03-28T15:05:45.666Z</time></trkpt><trkpt lat="44.7403583" lon="9.7872183"><ele>672.0</ele><time>2026-03-28T15:05:46.666Z</time></trkpt><trkpt lat="44.7404117" lon="9.7871683"><ele>669.6</ele><time>2026-03-28T15:05:47.666Z</time></trkpt><trkpt lat="44.7404683" lon="9.7871183"><ele>667.2</ele><time>2026-03-28T15:05:48.666Z</time></trkpt><trkpt lat="44.7405817" lon="9.7870783"><ele>664.8</ele><time>2026-03-28T15:05:50.667Z</time></trkpt><trkpt lat="44.7407033" lon="9.7870933"><ele>662.4</ele><time>2026-03-28T15:05:52.667Z</time></trkpt><trkpt lat="44.7408217" lon="9.787105"><ele>660.0</ele><time>2026-03-28T15:05:54.666Z</time></trkpt><trkpt lat="44.7408933" lon="9.7871167"><ele>660.0</ele><time>2026-03-28T15:05:55.667Z</time></trkpt><trkpt lat="44.7409717" lon="9.7871367"><ele>660.0</ele><time>2026-03-28T15:05:56.667Z</time></trkpt><trkpt lat="44.7410383" lon="9.787175"><ele>660.0</ele><time>2026-03-28T15:05:57.666Z</time></trkpt><trkpt lat="44.7410933" lon="9.787245"><ele>660.0</ele><time>2026-03-28T15:05:58.666Z</time></trkpt><trkpt lat="44.741125" lon="9.7873217"><ele>660.0</ele><time>2026-03-28T15:05:59.665Z</time></trkpt><trkpt lat="44.7411717" lon="9.7874333"><ele>660.0</ele><time>2026-03-28T15:06:01.666Z</time></trkpt><trkpt lat="44.7412467" lon="9.7874883"><ele>657.0</ele><time>2026-03-28T15:06:03.665Z</time></trkpt><trkpt lat="44.7413883" lon="9.7874483"><ele>654.0</ele><time>2026-03-28T15:06:05.667Z</time></trkpt><trkpt lat="44.7414767" lon="9.7874083"><ele>651.0</ele><time>2026-03-28T15:06:06.665Z</time></trkpt><trkpt lat="44.74157" lon="9.7873633"><ele>648.0</ele><time>2026-03-28T15:06:07.666Z</time></trkpt><trkpt lat="44.741655" lon="9.787305"><ele>645.0</ele><time>2026-03-28T15:06:08.666Z</time></trkpt><trkpt lat="44.74174" lon="9.7872383"><ele>645.0</ele><time>2026-03-28T15:06:09.665Z</time></trkpt><trkpt lat="44.741825" lon="9.7871633"><ele>645.0</ele><time>2026-03-28T15:06:10.666Z</time></trkpt><trkpt lat="44.741905" lon="9.7870767"><ele>645.0</ele><time>2026-03-28T15:06:11.666Z</time></trkpt><trkpt lat="44.741975" lon="9.7869767"><ele>645.0</ele><time>2026-03-28T15:06:12.666Z</time></trkpt><trkpt lat="44.74204" lon="9.7868733"><ele>645.0</ele><time>2026-03-28T15:06:13.667Z</time></trkpt><trkpt lat="44.7421017" lon="9.7867833"><ele>642.3333333333334</ele><time>2026-03-28T15:06:14.666Z</time></trkpt><trkpt lat="44.7421617" lon="9.78671"><ele>639.6666666666666</ele><time>2026-03-28T15:06:15.666Z</time></trkpt><trkpt lat="44.7422183" lon="9.786655"><ele>637.0</ele><time>2026-03-28T15:06:16.665Z</time></trkpt><trkpt lat="44.74232" lon="9.786615"><ele>634.3333333333333</ele><time>2026-03-28T15:06:18.666Z</time></trkpt><trkpt lat="44.7424283" lon="9.7866183"><ele>631.6666666666666</ele><time>2026-03-28T15:06:20.667Z</time></trkpt><trkpt lat="44.7424933" lon="9.7866317"><ele>629.0</ele><time>2026-03-28T15:06:21.665Z</time></trkpt><trkpt lat="44.7425717" lon="9.7866517"><ele>629.0</ele><time>2026-03-28T15:06:22.667Z</time></trkpt><trkpt lat="44.7426567" lon="9.786675"><ele>629.0</ele><time>2026-03-28T15:06:23.667Z</time></trkpt><trkpt lat="44.74274" lon="9.7867"><ele>629.0</ele><time>2026-03-28T15:06:24.665Z</time></trkpt><trkpt lat="44.7428217" lon="9.7867267"><ele>629.0</ele><time>2026-03-28T15:06:25.666Z</time></trkpt><trkpt lat="44.7428983" lon="9.78675"><ele>629.0</ele><time>2026-03-28T15:06:26.667Z</time></trkpt><trkpt lat="44.7429733" lon="9.7867783"><ele>629.0</ele><time>2026-03-28T15:06:27.665Z</time></trkpt><trkpt lat="44.7430417" lon="9.7868217"><ele>625.3333333333333</ele><time>2026-03-28T15:06:28.666Z</time></trkpt><trkpt lat="44.743105" lon="9.78688"><ele>621.6666666666666</ele><time>2026-03-28T15:06:29.666Z</time></trkpt><trkpt lat="44.7431717" lon="9.7869483"><ele>618.0</ele><time>2026-03-28T15:06:30.666Z</time></trkpt><trkpt lat="44.7432383" lon="9.7870183"><ele>614.3333333333334</ele><time>2026-03-28T15:06:31.666Z</time></trkpt><trkpt lat="44.7433033" lon="9.787075"><ele>610.6666666666667</ele><time>2026-03-28T15:06:32.667Z</time></trkpt><trkpt lat="44.7433667" lon="9.78712"><ele>607.0</ele><time>2026-03-28T15:06:33.665Z</time></trkpt><trkpt lat="44.74343" lon="9.7871583"><ele>607.0</ele><time>2026-03-28T15:06:34.666Z</time></trkpt><trkpt lat="44.7435133" lon="9.7872133"><ele>607.0</ele><time>2026-03-28T15:06:36.665Z</time></trkpt><trkpt lat="44.7435717" lon="9.7872617"><ele>607.0</ele><time>2026-03-28T15:06:39.666Z</time></trkpt><trkpt lat="44.743605" lon="9.78717"><ele>607.0</ele><time>2026-03-28T15:06:42.665Z</time></trkpt><trkpt lat="44.74362" lon="9.786995"><ele>607.0</ele><time>2026-03-28T15:06:44.667Z</time></trkpt><trkpt lat="44.743625" lon="9.7868917"><ele>607.0</ele><time>2026-03-28T15:06:45.665Z</time></trkpt><trkpt lat="44.74363" lon="9.7867883"><ele>605.0</ele><time>2026-03-28T15:06:46.665Z</time></trkpt><trkpt lat="44.7436417" lon="9.7866867"><ele>603.0</ele><time>2026-03-28T15:06:47.665Z</time></trkpt><trkpt lat="44.74366" lon="9.786585"><ele>601.0</ele><time>2026-03-28T15:06:48.666Z</time></trkpt><trkpt lat="44.7436833" lon="9.78648"><ele>599.0</ele><time>2026-03-28T15:06:49.666Z</time></trkpt><trkpt lat="44.743715" lon="9.7863733"><ele>597.0</ele><time>2026-03-28T15:06:50.666Z</time></trkpt><trkpt lat="44.7437517" lon="9.7862667"><ele>595.0</ele><time>2026-03-28T15:06:51.665Z</time></trkpt><trkpt lat="44.743785" lon="9.7861667"><ele>595.0</ele><time>2026-03-28T15:06:52.665Z</time></trkpt><trkpt lat="44.7438133" lon="9.7860683"><ele>595.0</ele><time>2026-03-28T15:06:53.665Z</time></trkpt><trkpt lat="44.743835" lon="9.7859733"><ele>595.0</ele><time>2026-03-28T15:06:54.665Z</time></trkpt><trkpt lat="44.743855" lon="9.7858867"><ele>595.0</ele><time>2026-03-28T15:06:55.666Z</time></trkpt><trkpt lat="44.7438933" lon="9.785745"><ele>595.0</ele><time>2026-03-28T15:06:57.665Z</time></trkpt><trkpt lat="44.74395" lon="9.785665"><ele>595.0</ele><time>2026-03-28T15:06:59.668Z</time></trkpt><trkpt lat="44.7440283" lon="9.7856533"><ele>596.0</ele><time>2026-03-28T15:07:01.666Z</time></trkpt><trkpt lat="44.7441217" lon="9.7857067"><ele>597.0</ele><time>2026-03-28T15:07:03.666Z</time></trkpt><trkpt lat="44.7442133" lon="9.785795"><ele>598.0</ele><time>2026-03-28T15:07:05.667Z</time></trkpt><trkpt lat="44.7443217" lon="9.78589"><ele>599.0</ele><time>2026-03-28T15:07:07.669Z</time></trkpt><trkpt lat="44.74439" lon="9.7859367"><ele>600.0</ele><time>2026-03-28T15:07:08.669Z</time></trkpt><trkpt lat="44.7444617" lon="9.786"><ele>598.5</ele><time>2026-03-28T15:07:09.667Z</time></trkpt><trkpt lat="44.74453" lon="9.78607"><ele>597.0</ele><time>2026-03-28T15:07:10.668Z</time></trkpt><trkpt lat="44.7445983" lon="9.7861417"><ele>595.5</ele><time>2026-03-28T15:07:11.667Z</time></trkpt><trkpt lat="44.744665" lon="9.7862167"><ele>594.0</ele><time>2026-03-28T15:07:12.667Z</time></trkpt><trkpt lat="44.7447283" lon="9.7862917"><ele>592.5</ele><time>2026-03-28T15:07:13.668Z</time></trkpt><trkpt lat="44.74479" lon="9.7863667"><ele>591.0</ele><time>2026-03-28T15:07:14.667Z</time></trkpt><trkpt lat="44.7448433" lon="9.7864383"><ele>591.0</ele><time>2026-03-28T15:07:15.668Z</time></trkpt><trkpt lat="44.7448983" lon="9.78649"><ele>591.0</ele><time>2026-03-28T15:07:16.668Z</time></trkpt><trkpt lat="44.745015" lon="9.78647"><ele>591.0</ele><time>2026-03-28T15:07:18.668Z</time></trkpt><trkpt lat="44.7450717" lon="9.7864083"><ele>591.0</ele><time>2026-03-28T15:07:19.665Z</time></trkpt><trkpt lat="44.7451367" lon="9.7863383"><ele>591.0</ele><time>2026-03-28T15:07:20.667Z</time></trkpt><trkpt lat="44.7452033" lon="9.786265"><ele>591.0</ele><time>2026-03-28T15:07:21.666Z</time></trkpt><trkpt lat="44.745275" lon="9.7861817"><ele>589.8333333333334</ele><time>2026-03-28T15:07:22.665Z</time></trkpt><trkpt lat="44.74535" lon="9.7860933"><ele>588.6666666666666</ele><time>2026-03-28T15:07:23.666Z</time></trkpt><trkpt lat="44.745425" lon="9.78601"><ele>587.5</ele><time>2026-03-28T15:07:24.668Z</time></trkpt><trkpt lat="44.7454933" lon="9.7859267"><ele>586.3333333333333</ele><time>2026-03-28T15:07:25.667Z</time></trkpt><trkpt lat="44.7455567" lon="9.78585"><ele>585.1666666666666</ele><time>2026-03-28T15:07:26.667Z</time></trkpt><trkpt lat="44.7456133" lon="9.78578"><ele>584.0</ele><time>2026-03-28T15:07:27.668Z</time></trkpt><trkpt lat="44.745665" lon="9.78571"><ele>587.6</ele><time>2026-03-28T15:07:28.668Z</time></trkpt><trkpt lat="44.745705" lon="9.7856317"><ele>591.2</ele><time>2026-03-28T15:07:29.667Z</time></trkpt><trkpt lat="44.7457617" lon="9.78549"><ele>594.8000000000001</ele><time>2026-03-28T15:07:31.668Z</time></trkpt><trkpt lat="44.7457917" lon="9.7853867"><ele>598.4</ele><time>2026-03-28T15:07:33.668Z</time></trkpt><trkpt lat="44.7457817" lon="9.7852583"><ele>602.0</ele><time>2026-03-28T15:07:36.667Z</time></trkpt><trkpt lat="44.7457467" lon="9.7851317"><ele>602.0</ele><time>2026-03-28T15:07:38.668Z</time></trkpt><trkpt lat="44.745695" lon="9.7850067"><ele>602.0</ele><time>2026-03-28T15:07:40.666Z</time></trkpt><trkpt lat="44.7456" lon="9.78492"><ele>602.0</ele><time>2026-03-28T15:07:42.667Z</time></trkpt><trkpt lat="44.7454917" lon="9.7848783"><ele>602.0</ele><time>2026-03-28T15:07:44.665Z</time></trkpt><trkpt lat="44.7454567" lon="9.7847683"><ele>602.0</ele><time>2026-03-28T15:07:47.666Z</time></trkpt><trkpt lat="44.74553" lon="9.7846783"><ele>602.0</ele><time>2026-03-28T15:07:49.667Z</time></trkpt><trkpt lat="44.7455917" lon="9.784645"><ele>602.0</ele><time>2026-03-28T15:07:50.667Z</time></trkpt><trkpt lat="44.7456683" lon="9.7846167"><ele>602.0</ele><time>2026-03-28T15:07:51.665Z</time></trkpt><trkpt lat="44.7457383" lon="9.7845833"><ele>602.0</ele><time>2026-03-28T15:07:52.667Z</time></trkpt><trkpt lat="44.745815" lon="9.784535"><ele>602.0</ele><time>2026-03-28T15:07:53.666Z</time></trkpt><trkpt lat="44.7458817" lon="9.7844733"><ele>602.0</ele><time>2026-03-28T15:07:54.666Z</time></trkpt><trkpt lat="44.745935" lon="9.7843983"><ele>598.6666666666666</ele><time>2026-03-28T15:07:55.666Z</time></trkpt><trkpt lat="44.7459733" lon="9.78431"><ele>595.3333333333333</ele><time>2026-03-28T15:07:56.666Z</time></trkpt><trkpt lat="44.7459917" lon="9.784215"><ele>592.0</ele><time>2026-03-28T15:07:57.665Z</time></trkpt><trkpt lat="44.7459767" lon="9.7840667"><ele>588.6666666666666</ele><time>2026-03-28T15:07:59.667Z</time></trkpt><trkpt lat="44.7458983" lon="9.7839967"><ele>585.3333333333334</ele><time>2026-03-28T15:08:01.665Z</time></trkpt><trkpt lat="44.7458267" lon="9.7839933"><ele>582.0</ele><time>2026-03-28T15:08:02.666Z</time></trkpt><trkpt lat="44.74575" lon="9.7839817"><ele>582.0</ele><time>2026-03-28T15:08:03.665Z</time></trkpt><trkpt lat="44.7456683" lon="9.78396"><ele>582.0</ele><time>2026-03-28T15:08:04.665Z</time></trkpt><trkpt lat="44.74558" lon="9.7839133"><ele>582.0</ele><time>2026-03-28T15:08:05.665Z</time></trkpt><trkpt lat="44.74549" lon="9.7838517"><ele>582.0</ele><time>2026-03-28T15:08:06.665Z</time></trkpt><trkpt lat="44.7454033" lon="9.7837817"><ele>582.0</ele><time>2026-03-28T15:08:07.666Z</time></trkpt><trkpt lat="44.745325" lon="9.7837067"><ele>582.0</ele><time>2026-03-28T15:08:08.666Z</time></trkpt><trkpt lat="44.74525" lon="9.783625"><ele>582.0</ele><time>2026-03-28T15:08:09.665Z</time></trkpt><trkpt lat="44.745175" lon="9.78354"><ele>582.0</ele><time>2026-03-28T15:08:10.666Z</time></trkpt><trkpt lat="44.7451033" lon="9.7834483"><ele>582.0</ele><time>2026-03-28T15:08:11.667Z</time></trkpt><trkpt lat="44.74503" lon="9.783345"><ele>582.0</ele><time>2026-03-28T15:08:12.666Z</time></trkpt><trkpt lat="44.74497" lon="9.7832333"><ele>579.8000000000001</ele><time>2026-03-28T15:08:13.666Z</time></trkpt><trkpt lat="44.7449133" lon="9.7831167"><ele>577.6</ele><time>2026-03-28T15:08:14.665Z</time></trkpt><trkpt lat="44.7448667" lon="9.7829967"><ele>575.4000000000001</ele><time>2026-03-28T15:08:15.665Z</time></trkpt><trkpt lat="44.7448233" lon="9.78287"><ele>573.2</ele><time>2026-03-28T15:08:16.667Z</time></trkpt><trkpt lat="44.7447917" lon="9.78274"><ele>571.0</ele><time>2026-03-28T15:08:17.666Z</time></trkpt><trkpt lat="44.7447817" lon="9.7826"><ele>568.4</ele><time>2026-03-28T15:08:18.665Z</time></trkpt><trkpt lat="44.7447783" lon="9.78245"><ele>565.8</ele><time>2026-03-28T15:08:19.665Z</time></trkpt><trkpt lat="44.7447867" lon="9.7822967"><ele>563.1999999999999</ele><time>2026-03-28T15:08:20.665Z</time></trkpt><trkpt lat="44.7448" lon="9.7821417"><ele>560.6</ele><time>2026-03-28T15:08:21.666Z</time></trkpt><trkpt lat="44.7448133" lon="9.781975"><ele>558.0</ele><time>2026-03-28T15:08:22.666Z</time></trkpt><trkpt lat="44.7448167" lon="9.7817967"><ele>556.1999999999999</ele><time>2026-03-28T15:08:23.666Z</time></trkpt><trkpt lat="44.7448083" lon="9.781625"><ele>554.4</ele><time>2026-03-28T15:08:24.666Z</time></trkpt><trkpt lat="44.744795" lon="9.7814733"><ele>552.5999999999999</ele><time>2026-03-28T15:08:25.67Z</time></trkpt><trkpt lat="44.7447817" lon="9.7813483"><ele>550.8</ele><time>2026-03-28T15:08:26.668Z</time></trkpt><trkpt lat="44.74477" lon="9.7812467"><ele>549.0</ele><time>2026-03-28T15:08:27.665Z</time></trkpt><trkpt lat="44.7447633" lon="9.7810917"><ele>547.6666666666666</ele><time>2026-03-28T15:08:29.665Z</time></trkpt><trkpt lat="44.7448" lon="9.7809417"><ele>546.3333333333334</ele><time>2026-03-28T15:08:31.666Z</time></trkpt><trkpt lat="44.7448233" lon="9.7808467"><ele>545.0</ele><time>2026-03-28T15:08:32.665Z</time></trkpt><trkpt lat="44.7448533" lon="9.7807433"><ele>543.6666666666667</ele><time>2026-03-28T15:08:33.666Z</time></trkpt><trkpt lat="44.7448917" lon="9.7806483"><ele>542.3333333333334</ele><time>2026-03-28T15:08:34.666Z</time></trkpt><trkpt lat="44.7449483" lon="9.780565"><ele>541.0</ele><time>2026-03-28T15:08:35.665Z</time></trkpt><trkpt lat="44.7450233" lon="9.7804733"><ele>541.0</ele><time>2026-03-28T15:08:36.665Z</time></trkpt><trkpt lat="44.745095" lon="9.7803767"><ele>541.0</ele><time>2026-03-28T15:08:37.666Z</time></trkpt><trkpt lat="44.7451567" lon="9.780285"><ele>541.0</ele><time>2026-03-28T15:08:38.666Z</time></trkpt><trkpt lat="44.7452167" lon="9.7801967"><ele>541.0</ele><time>2026-03-28T15:08:39.667Z</time></trkpt><trkpt lat="44.7452683" lon="9.7801167"><ele>541.0</ele><time>2026-03-28T15:08:40.667Z</time></trkpt><trkpt lat="44.7453233" lon="9.7800483"><ele>541.0</ele><time>2026-03-28T15:08:41.667Z</time></trkpt><trkpt lat="44.74538" lon="9.779995"><ele>537.3333333333334</ele><time>2026-03-28T15:08:42.667Z</time></trkpt><trkpt lat="44.7454417" lon="9.7799483"><ele>533.6666666666667</ele><time>2026-03-28T15:08:43.668Z</time></trkpt><trkpt lat="44.7455083" lon="9.7798883"><ele>530.0</ele><time>2026-03-28T15:08:44.667Z</time></trkpt><trkpt lat="44.745565" lon="9.7798217"><ele>526.3333333333334</ele><time>2026-03-28T15:08:45.668Z</time></trkpt><trkpt lat="44.7456083" lon="9.7797383"><ele>522.6666666666666</ele><time>2026-03-28T15:08:46.667Z</time></trkpt><trkpt lat="44.7456467" lon="9.7796517"><ele>519.0</ele><time>2026-03-28T15:08:47.672Z</time></trkpt><trkpt lat="44.7457333" lon="9.7795333"><ele>519.0</ele><time>2026-03-28T15:08:49.666Z</time></trkpt><trkpt lat="44.7458117" lon="9.7794883"><ele>519.0</ele><time>2026-03-28T15:08:50.669Z</time></trkpt><trkpt lat="44.7459" lon="9.7794517"><ele>519.0</ele><time>2026-03-28T15:08:51.667Z</time></trkpt><trkpt lat="44.7459917" lon="9.7794183"><ele>519.0</ele><time>2026-03-28T15:08:52.668Z</time></trkpt><trkpt lat="44.7460883" lon="9.7794"><ele>519.0</ele><time>2026-03-28T15:08:53.668Z</time></trkpt><trkpt lat="44.74618" lon="9.7793833"><ele>517.3333333333334</ele><time>2026-03-28T15:08:54.667Z</time></trkpt><trkpt lat="44.7462667" lon="9.779375"><ele>515.6666666666666</ele><time>2026-03-28T15:08:55.668Z</time></trkpt><trkpt lat="44.746355" lon="9.77937"><ele>514.0</ele><time>2026-03-28T15:08:56.668Z</time></trkpt><trkpt lat="44.7464383" lon="9.7793683"><ele>512.3333333333333</ele><time>2026-03-28T15:08:57.667Z</time></trkpt><trkpt lat="44.7465167" lon="9.7793717"><ele>510.66666666666663</ele><time>2026-03-28T15:08:58.667Z</time></trkpt><trkpt lat="44.746585" lon="9.77938"><ele>509.0</ele><time>2026-03-28T15:08:59.667Z</time></trkpt><trkpt lat="44.7467017" lon="9.7793867"><ele>507.99999999999994</ele><time>2026-03-28T15:09:01.667Z</time></trkpt><trkpt lat="44.7468183" lon="9.7793317"><ele>507.0</ele><time>2026-03-28T15:09:03.668Z</time></trkpt><trkpt lat="44.7468783" lon="9.7792783"><ele>506.0</ele><time>2026-03-28T15:09:04.668Z</time></trkpt><trkpt lat="44.7469383" lon="9.7792217"><ele>505.0</ele><time>2026-03-28T15:09:05.668Z</time></trkpt><trkpt lat="44.746995" lon="9.77916"><ele>503.99999999999994</ele><time>2026-03-28T15:09:06.673Z</time></trkpt><trkpt lat="44.74705" lon="9.7790867"><ele>503.0</ele><time>2026-03-28T15:09:07.668Z</time></trkpt><trkpt lat="44.747095" lon="9.7789983"><ele>499.79999999999995</ele><time>2026-03-28T15:09:08.667Z</time></trkpt><trkpt lat="44.7471383" lon="9.7788983"><ele>496.59999999999997</ele><time>2026-03-28T15:09:09.668Z</time></trkpt><trkpt lat="44.74718" lon="9.7787867"><ele>493.40000000000003</ele><time>2026-03-28T15:09:10.667Z</time></trkpt><trkpt lat="44.7472217" lon="9.7786683"><ele>490.20000000000005</ele><time>2026-03-28T15:09:11.668Z</time></trkpt><trkpt lat="44.74726" lon="9.778545"><ele>487.0</ele><time>2026-03-28T15:09:12.668Z</time></trkpt><trkpt lat="44.7473" lon="9.7784267"><ele>486.1666666666667</ele><time>2026-03-28T15:09:13.668Z</time></trkpt><trkpt lat="44.74734" lon="9.7783117"><ele>485.33333333333337</ele><time>2026-03-28T15:09:14.669Z</time></trkpt><trkpt lat="44.7473917" lon="9.7782083"><ele>484.5</ele><time>2026-03-28T15:09:15.666Z</time></trkpt><trkpt lat="44.7474483" lon="9.7781167"><ele>483.66666666666663</ele><time>2026-03-28T15:09:16.665Z</time></trkpt><trkpt lat="44.74751" lon="9.7780333"><ele>482.8333333333333</ele><time>2026-03-28T15:09:17.666Z</time></trkpt><trkpt lat="44.7475717" lon="9.777955"><ele>482.0</ele><time>2026-03-28T15:09:18.666Z</time></trkpt><trkpt lat="44.74763" lon="9.7778817"><ele>481.99999999999994</ele><time>2026-03-28T15:09:19.665Z</time></trkpt><trkpt lat="44.7476883" lon="9.7778083"><ele>482.0</ele><time>2026-03-28T15:09:20.665Z</time></trkpt><trkpt lat="44.7477433" lon="9.7777367"><ele>482.0</ele><time>2026-03-28T15:09:21.665Z</time></trkpt><trkpt lat="44.7477983" lon="9.777665"><ele>482.0</ele><time>2026-03-28T15:09:22.666Z</time></trkpt><trkpt lat="44.7478433" lon="9.77759"><ele>481.99999999999994</ele><time>2026-03-28T15:09:23.757Z</time></trkpt><trkpt lat="44.74787" lon="9.77743"><ele>482.0</ele><time>2026-03-28T15:09:25.667Z</time></trkpt><trkpt lat="44.7478217" lon="9.7772667"><ele>480.8333333333333</ele><time>2026-03-28T15:09:27.666Z</time></trkpt><trkpt lat="44.7477783" lon="9.7771833"><ele>479.66666666666663</ele><time>2026-03-28T15:09:28.666Z</time></trkpt><trkpt lat="44.74772" lon="9.7771083"><ele>478.5</ele><time>2026-03-28T15:09:29.666Z</time></trkpt><trkpt lat="44.7476567" lon="9.77704"><ele>477.33333333333337</ele><time>2026-03-28T15:09:30.665Z</time></trkpt><trkpt lat="44.7475917" lon="9.7769767"><ele>476.1666666666667</ele><time>2026-03-28T15:09:31.665Z</time></trkpt><trkpt lat="44.7475367" lon="9.7769083"><ele>475.0</ele><time>2026-03-28T15:09:32.666Z</time></trkpt><trkpt lat="44.7474817" lon="9.7768267"><ele>473.42857142857144</ele><time>2026-03-28T15:09:33.666Z</time></trkpt><trkpt lat="44.7474383" lon="9.7767483"><ele>471.8571428571429</ele><time>2026-03-28T15:09:34.666Z</time></trkpt><trkpt lat="44.7474033" lon="9.7766667"><ele>470.28571428571433</ele><time>2026-03-28T15:09:35.667Z</time></trkpt><trkpt lat="44.7473817" lon="9.7765833"><ele>468.7142857142858</ele><time>2026-03-28T15:09:36.667Z</time></trkpt><trkpt lat="44.7473783" lon="9.7764867"><ele>467.14285714285717</ele><time>2026-03-28T15:09:37.665Z</time></trkpt><trkpt lat="44.7473867" lon="9.77638"><ele>465.57142857142867</ele><time>2026-03-28T15:09:38.667Z</time></trkpt><trkpt lat="44.747405" lon="9.77627"><ele>464.00000000000006</ele><time>2026-03-28T15:09:39.667Z</time></trkpt><trkpt lat="44.7474417" lon="9.7761483"><ele>463.99999999999994</ele><time>2026-03-28T15:09:40.667Z</time></trkpt><trkpt lat="44.7474733" lon="9.7760233"><ele>464.0</ele><time>2026-03-28T15:09:41.667Z</time></trkpt><trkpt lat="44.7474983" lon="9.7759067"><ele>464.0</ele><time>2026-03-28T15:09:42.665Z</time></trkpt><trkpt lat="44.7475183" lon="9.7758"><ele>464.0</ele><time>2026-03-28T15:09:43.668Z</time></trkpt><trkpt lat="44.747535" lon="9.7757067"><ele>463.99999999999994</ele><time>2026-03-28T15:09:44.667Z</time></trkpt><trkpt lat="44.747575" lon="9.7755767"><ele>464.0</ele><time>2026-03-28T15:09:46.666Z</time></trkpt><trkpt lat="44.747615" lon="9.7754717"><ele>461.49999999999994</ele><time>2026-03-28T15:09:54.665Z</time></trkpt><trkpt lat="44.7476617" lon="9.77537"><ele>459.0</ele><time>2026-03-28T15:09:56.667Z</time></trkpt><trkpt lat="44.7477133" lon="9.77525"><ele>456.5</ele><time>2026-03-28T15:09:58.666Z</time></trkpt><trkpt lat="44.747745" lon="9.7751083"><ele>454.0</ele><time>2026-03-28T15:10:00.665Z</time></trkpt><trkpt lat="44.7477667" lon="9.7750033"><ele>451.49999999999994</ele><time>2026-03-28T15:10:02.667Z</time></trkpt><trkpt lat="44.7478267" lon="9.774945"><ele>449.0</ele><time>2026-03-28T15:10:04.666Z</time></trkpt><trkpt lat="44.7479017" lon="9.7749283"><ele>442.4</ele><time>2026-03-28T15:10:06.666Z</time></trkpt><trkpt lat="44.7479967" lon="9.7749183"><ele>435.79999999999995</ele><time>2026-03-28T15:10:08.667Z</time></trkpt><trkpt lat="44.7480883" lon="9.7748517"><ele>429.20000000000005</ele><time>2026-03-28T15:10:10.666Z</time></trkpt><trkpt lat="44.7481733" lon="9.77475"><ele>422.6</ele><time>2026-03-28T15:10:12.665Z</time></trkpt><trkpt lat="44.7482283" lon="9.7746383"><ele>416.0</ele><time>2026-03-28T15:10:14.666Z</time></trkpt><trkpt lat="44.7482717" lon="9.7745517"><ele>415.99999999999994</ele><time>2026-03-28T15:10:16.665Z</time></trkpt><trkpt lat="44.7483317" lon="9.774485"><ele>416.0</ele><time>2026-03-28T15:10:18.666Z</time></trkpt><trkpt lat="44.7484183" lon="9.774385"><ele>416.0</ele><time>2026-03-28T15:10:20.666Z</time></trkpt><trkpt lat="44.748465" lon="9.7743167"><ele>416.0</ele><time>2026-03-28T15:10:21.666Z</time></trkpt><trkpt lat="44.7485183" lon="9.7742467"><ele>415.99999999999994</ele><time>2026-03-28T15:10:22.666Z</time></trkpt><trkpt lat="44.748585" lon="9.7741833"><ele>416.0</ele><time>2026-03-28T15:10:23.665Z</time></trkpt><trkpt lat="44.7486617" lon="9.7741333"><ele>411.66666666666663</ele><time>2026-03-28T15:10:24.665Z</time></trkpt><trkpt lat="44.7487367" lon="9.77409"><ele>407.3333333333333</ele><time>2026-03-28T15:10:25.666Z</time></trkpt><trkpt lat="44.7488133" lon="9.7740483"><ele>403.0</ele><time>2026-03-28T15:10:26.666Z</time></trkpt><trkpt lat="44.74889" lon="9.774005"><ele>398.66666666666663</ele><time>2026-03-28T15:10:27.666Z</time></trkpt><trkpt lat="44.74896" lon="9.773955"><ele>394.3333333333333</ele><time>2026-03-28T15:10:28.666Z</time></trkpt><trkpt lat="44.7490317" lon="9.7739033"><ele>390.0</ele><time>2026-03-28T15:10:29.665Z</time></trkpt><trkpt lat="44.7491067" lon="9.7738467"><ele>390.0</ele><time>2026-03-28T15:10:30.665Z</time></trkpt><trkpt lat="44.7491783" lon="9.7737917"><ele>390.0</ele><time>2026-03-28T15:10:31.666Z</time></trkpt><trkpt lat="44.7492533" lon="9.7737333"><ele>390.0</ele><time>2026-03-28T15:10:32.665Z</time></trkpt><trkpt lat="44.749325" lon="9.77368"><ele>390.0</ele><time>2026-03-28T15:10:33.666Z</time></trkpt><trkpt lat="44.749395" lon="9.7736333"><ele>390.0</ele><time>2026-03-28T15:10:34.665Z</time></trkpt><trkpt lat="44.7494617" lon="9.7735917"><ele>390.0</ele><time>2026-03-28T15:10:35.666Z</time></trkpt><trkpt lat="44.7495317" lon="9.7735533"><ele>386.6666666666667</ele><time>2026-03-28T15:10:36.668Z</time></trkpt><trkpt lat="44.7496033" lon="9.7735133"><ele>383.3333333333333</ele><time>2026-03-28T15:10:37.665Z</time></trkpt><trkpt lat="44.7496717" lon="9.7734683"><ele>380.0</ele><time>2026-03-28T15:10:38.667Z</time></trkpt><trkpt lat="44.7497367" lon="9.77341"><ele>376.66666666666663</ele><time>2026-03-28T15:10:39.666Z</time></trkpt><trkpt lat="44.7497983" lon="9.7733383"><ele>373.3333333333333</ele><time>2026-03-28T15:10:40.667Z</time></trkpt><trkpt lat="44.7498617" lon="9.7732617"><ele>370.0</ele><time>2026-03-28T15:10:41.666Z</time></trkpt><trkpt lat="44.749925" lon="9.7731933"><ele>369.99999999999994</ele><time>2026-03-28T15:10:42.666Z</time></trkpt><trkpt lat="44.7499833" lon="9.7731333"><ele>370.0</ele><time>2026-03-28T15:10:43.665Z</time></trkpt><trkpt lat="44.750045" lon="9.7730833"><ele>370.0</ele><time>2026-03-28T15:10:44.667Z</time></trkpt><trkpt lat="44.7501067" lon="9.7730383"><ele>370.0</ele><time>2026-03-28T15:10:45.666Z</time></trkpt><trkpt lat="44.75017" lon="9.772995"><ele>370.0</ele><time>2026-03-28T15:10:46.665Z</time></trkpt><trkpt lat="44.75023" lon="9.7729467"><ele>369.99999999999994</ele><time>2026-03-28T15:10:47.666Z</time></trkpt><trkpt lat="44.7502817" lon="9.7728933"><ele>370.0</ele><time>2026-03-28T15:10:48.665Z</time></trkpt><trkpt lat="44.7503867" lon="9.7728083"><ele>367.5</ele><time>2026-03-28T15:10:50.668Z</time></trkpt><trkpt lat="44.75045" lon="9.7727867"><ele>365.0</ele><time>2026-03-28T15:10:51.667Z</time></trkpt><trkpt lat="44.7505233" lon="9.772785"><ele>362.5</ele><time>2026-03-28T15:10:52.667Z</time></trkpt><trkpt lat="44.7506033" lon="9.772795"><ele>360.0</ele><time>2026-03-28T15:10:53.668Z</time></trkpt><trkpt lat="44.7506967" lon="9.772815"><ele>357.5</ele><time>2026-03-28T15:10:54.669Z</time></trkpt><trkpt lat="44.7507867" lon="9.7728417"><ele>355.0</ele><time>2026-03-28T15:10:55.667Z</time></trkpt><trkpt lat="44.7508667" lon="9.7728683"><ele>355.0</ele><time>2026-03-28T15:10:56.669Z</time></trkpt><trkpt lat="44.75094" lon="9.7728983"><ele>355.0</ele><time>2026-03-28T15:10:57.668Z</time></trkpt><trkpt lat="44.7510083" lon="9.7729367"><ele>355.0</ele><time>2026-03-28T15:10:58.667Z</time></trkpt><trkpt lat="44.7510767" lon="9.77299"><ele>355.0</ele><time>2026-03-28T15:10:59.668Z</time></trkpt><trkpt lat="44.7511383" lon="9.7730533"><ele>355.0</ele><time>2026-03-28T15:11:00.666Z</time></trkpt><trkpt lat="44.7511983" lon="9.7731233"><ele>355.0</ele><time>2026-03-28T15:11:01.667Z</time></trkpt><trkpt lat="44.7512517" lon="9.7732033"><ele>353.85714285714283</ele><time>2026-03-28T15:11:02.668Z</time></trkpt><trkpt lat="44.7513" lon="9.773285"><ele>352.7142857142857</ele><time>2026-03-28T15:11:03.668Z</time></trkpt><trkpt lat="44.7513417" lon="9.7733617"><ele>351.57142857142856</ele><time>2026-03-28T15:11:04.668Z</time></trkpt><trkpt lat="44.7513783" lon="9.7734433"><ele>350.42857142857144</ele><time>2026-03-28T15:11:05.668Z</time></trkpt><trkpt lat="44.7514117" lon="9.77353"><ele>349.2857142857143</ele><time>2026-03-28T15:11:06.668Z</time></trkpt><trkpt lat="44.7514367" lon="9.7736183"><ele>348.14285714285717</ele><time>2026-03-28T15:11:07.668Z</time></trkpt><trkpt lat="44.7514533" lon="9.7737083"><ele>347.0</ele><time>2026-03-28T15:11:08.668Z</time></trkpt><trkpt lat="44.7514667" lon="9.7738033"><ele>346.83333333333337</ele><time>2026-03-28T15:11:09.667Z</time></trkpt><trkpt lat="44.7514833" lon="9.773905"><ele>346.6666666666667</ele><time>2026-03-28T15:11:10.667Z</time></trkpt><trkpt lat="44.751505" lon="9.7740117"><ele>346.5</ele><time>2026-03-28T15:11:11.668Z</time></trkpt><trkpt lat="44.7515367" lon="9.7741217"><ele>346.3333333333333</ele><time>2026-03-28T15:11:12.667Z</time></trkpt><trkpt lat="44.75157" lon="9.7742283"><ele>346.16666666666663</ele><time>2026-03-28T15:11:13.667Z</time></trkpt><trkpt lat="44.751605" lon="9.7743333"><ele>346.0</ele><time>2026-03-28T15:11:14.667Z</time></trkpt><trkpt lat="44.7516267" lon="9.774445"><ele>346.0</ele><time>2026-03-28T15:11:15.668Z</time></trkpt><trkpt lat="44.75163" lon="9.7745583"><ele>346.0</ele><time>2026-03-28T15:11:16.666Z</time></trkpt><trkpt lat="44.7516217" lon="9.77468"><ele>346.0</ele><time>2026-03-28T15:11:17.668Z</time></trkpt><trkpt lat="44.751615" lon="9.7748"><ele>346.0</ele><time>2026-03-28T15:11:18.668Z</time></trkpt><trkpt lat="44.75161" lon="9.7749117"><ele>346.0</ele><time>2026-03-28T15:11:19.667Z</time></trkpt><trkpt lat="44.7516083" lon="9.77502"><ele>346.0</ele><time>2026-03-28T15:11:20.669Z</time></trkpt><trkpt lat="44.751615" lon="9.7751117"><ele>346.3333333333333</ele><time>2026-03-28T15:11:21.668Z</time></trkpt><trkpt lat="44.7516267" lon="9.775205"><ele>346.66666666666663</ele><time>2026-03-28T15:11:22.668Z</time></trkpt><trkpt lat="44.7516517" lon="9.7753067"><ele>347.0</ele><time>2026-03-28T15:11:23.666Z</time></trkpt><trkpt lat="44.7516733" lon="9.775415"><ele>347.3333333333333</ele><time>2026-03-28T15:11:24.666Z</time></trkpt><trkpt lat="44.7516967" lon="9.7755133"><ele>347.6666666666667</ele><time>2026-03-28T15:11:25.668Z</time></trkpt><trkpt lat="44.7517167" lon="9.775605"><ele>348.0</ele><time>2026-03-28T15:11:26.665Z</time></trkpt><trkpt lat="44.751745" lon="9.7757533"><ele>348.0</ele><time>2026-03-28T15:11:28.668Z</time></trkpt><trkpt lat="44.7517833" lon="9.77586"><ele>348.0</ele><time>2026-03-28T15:11:30.668Z</time></trkpt><trkpt lat="44.7518467" lon="9.77588"><ele>348.0</ele><time>2026-03-28T15:11:32.668Z</time></trkpt><trkpt lat="44.7519617" lon="9.7758"><ele>348.0</ele><time>2026-03-28T15:11:34.665Z</time></trkpt><trkpt lat="44.7520367" lon="9.7757133"><ele>348.0</ele><time>2026-03-28T15:11:35.665Z</time></trkpt><trkpt lat="44.75211" lon="9.77563"><ele>347.8333333333333</ele><time>2026-03-28T15:11:36.665Z</time></trkpt><trkpt lat="44.7521767" lon="9.7755483"><ele>347.6666666666667</ele><time>2026-03-28T15:11:37.667Z</time></trkpt><trkpt lat="44.75224" lon="9.77546"><ele>347.5</ele><time>2026-03-28T15:11:38.667Z</time></trkpt><trkpt lat="44.7523017" lon="9.775365"><ele>347.33333333333337</ele><time>2026-03-28T15:11:39.666Z</time></trkpt><trkpt lat="44.75235" lon="9.775255"><ele>347.1666666666667</ele><time>2026-03-28T15:11:40.667Z</time></trkpt><trkpt lat="44.75238" lon="9.7751383"><ele>347.0</ele><time>2026-03-28T15:11:41.665Z</time></trkpt><trkpt lat="44.7523983" lon="9.77501"><ele>347.40000000000003</ele><time>2026-03-28T15:11:42.665Z</time></trkpt><trkpt lat="44.7524117" lon="9.7748733"><ele>347.8</ele><time>2026-03-28T15:11:43.665Z</time></trkpt><trkpt lat="44.752425" lon="9.7747317"><ele>348.2</ele><time>2026-03-28T15:11:44.668Z</time></trkpt><trkpt lat="44.7524367" lon="9.77459"><ele>348.6</ele><time>2026-03-28T15:11:45.666Z</time></trkpt><trkpt lat="44.75245" lon="9.7744517"><ele>349.0</ele><time>2026-03-28T15:11:46.666Z</time></trkpt><trkpt lat="44.7524633" lon="9.774325"><ele>349.16666666666663</ele><time>2026-03-28T15:11:47.666Z</time></trkpt><trkpt lat="44.7524783" lon="9.774215"><ele>349.3333333333333</ele><time>2026-03-28T15:11:48.666Z</time></trkpt><trkpt lat="44.7524967" lon="9.7741183"><ele>349.5</ele><time>2026-03-28T15:11:49.666Z</time></trkpt><trkpt lat="44.7525583" lon="9.77401"><ele>349.6666666666667</ele><time>2026-03-28T15:11:51.666Z</time></trkpt><trkpt lat="44.7526333" lon="9.7740517"><ele>349.83333333333337</ele><time>2026-03-28T15:11:53.665Z</time></trkpt><trkpt lat="44.7526517" lon="9.774205"><ele>350.0</ele><time>2026-03-28T15:11:55.667Z</time></trkpt><trkpt lat="44.7526467" lon="9.7743133"><ele>349.83333333333337</ele><time>2026-03-28T15:11:56.667Z</time></trkpt><trkpt lat="44.7526467" lon="9.7744283"><ele>349.6666666666667</ele><time>2026-03-28T15:11:57.666Z</time></trkpt><trkpt lat="44.75266" lon="9.77454"><ele>349.5</ele><time>2026-03-28T15:11:58.666Z</time></trkpt><trkpt lat="44.7526933" lon="9.7746367"><ele>349.3333333333333</ele><time>2026-03-28T15:11:59.666Z</time></trkpt><trkpt lat="44.75275" lon="9.7747283"><ele>349.16666666666663</ele><time>2026-03-28T15:12:00.665Z</time></trkpt><trkpt lat="44.7528233" lon="9.7748117"><ele>349.0</ele><time>2026-03-28T15:12:01.665Z</time></trkpt><trkpt lat="44.7529067" lon="9.7749"><ele>350.0</ele><time>2026-03-28T15:12:02.667Z</time></trkpt><trkpt lat="44.7529967" lon="9.7749817"><ele>351.0</ele><time>2026-03-28T15:12:03.665Z</time></trkpt><trkpt lat="44.753085" lon="9.77505"><ele>352.0</ele><time>2026-03-28T15:12:04.665Z</time></trkpt><trkpt lat="44.753175" lon="9.775105"><ele>353.0</ele><time>2026-03-28T15:12:05.667Z</time></trkpt><trkpt lat="44.7532683" lon="9.7751517"><ele>354.0</ele><time>2026-03-28T15:12:06.666Z</time></trkpt><trkpt lat="44.7533717" lon="9.7751917"><ele>354.0</ele><time>2026-03-28T15:12:07.665Z</time></trkpt><trkpt lat="44.7534867" lon="9.7752333"><ele>354.0</ele><time>2026-03-28T15:12:08.665Z</time></trkpt><trkpt lat="44.7536" lon="9.7752717"><ele>354.0</ele><time>2026-03-28T15:12:09.665Z</time></trkpt><trkpt lat="44.75371" lon="9.7753067"><ele>354.0</ele><time>2026-03-28T15:12:10.666Z</time></trkpt><trkpt lat="44.7538183" lon="9.7753467"><ele>355.0</ele><time>2026-03-28T15:12:11.665Z</time></trkpt><trkpt lat="44.7539233" lon="9.7753967"><ele>356.0</ele><time>2026-03-28T15:12:12.665Z</time></trkpt><trkpt lat="44.7540267" lon="9.7754617"><ele>357.0</ele><time>2026-03-28T15:12:13.665Z</time></trkpt><trkpt lat="44.7541317" lon="9.775525"><ele>358.0</ele><time>2026-03-28T15:12:14.666Z</time></trkpt><trkpt lat="44.75424" lon="9.7755767"><ele>358.0</ele><time>2026-03-28T15:12:15.665Z</time></trkpt><trkpt lat="44.754355" lon="9.7755967"><ele>358.0</ele><time>2026-03-28T15:12:16.668Z</time></trkpt><trkpt lat="44.7544733" lon="9.7755933"><ele>358.0</ele><time>2026-03-28T15:12:17.665Z</time></trkpt><trkpt lat="44.7545867" lon="9.7755833"><ele>358.0</ele><time>2026-03-28T15:12:18.665Z</time></trkpt><trkpt lat="44.7547" lon="9.7755767"><ele>360.0</ele><time>2026-03-28T15:12:19.667Z</time></trkpt><trkpt lat="44.754815" lon="9.7755833"><ele>362.0</ele><time>2026-03-28T15:12:20.666Z</time></trkpt><trkpt lat="44.75493" lon="9.7756"><ele>364.0</ele><time>2026-03-28T15:12:21.666Z</time></trkpt><trkpt lat="44.755045" lon="9.77562"><ele>366.0</ele><time>2026-03-28T15:12:22.671Z</time></trkpt><trkpt lat="44.755155" lon="9.77562"><ele>366.75</ele><time>2026-03-28T15:12:23.666Z</time></trkpt><trkpt lat="44.7552683" lon="9.7756017"><ele>367.5</ele><time>2026-03-28T15:12:24.666Z</time></trkpt><trkpt lat="44.7553933" lon="9.7755583"><ele>368.25</ele><time>2026-03-28T15:12:25.666Z</time></trkpt><trkpt lat="44.7555167" lon="9.7754983"><ele>369.0</ele><time>2026-03-28T15:12:26.665Z</time></trkpt><trkpt lat="44.7556383" lon="9.7754333"><ele>369.0</ele><time>2026-03-28T15:12:27.667Z</time></trkpt><trkpt lat="44.7557567" lon="9.7753667"><ele>369.0</ele><time>2026-03-28T15:12:28.665Z</time></trkpt><trkpt lat="44.7558633" lon="9.77531"><ele>369.0</ele><time>2026-03-28T15:12:29.667Z</time></trkpt><trkpt lat="44.7559667" lon="9.7752783"><ele>369.0</ele><time>2026-03-28T15:12:30.666Z</time></trkpt><trkpt lat="44.75607" lon="9.775275"><ele>369.79999999999995</ele><time>2026-03-28T15:12:31.667Z</time></trkpt><trkpt lat="44.7561783" lon="9.775285"><ele>370.59999999999997</ele><time>2026-03-28T15:12:32.667Z</time></trkpt><trkpt lat="44.75629" lon="9.7753017"><ele>371.4</ele><time>2026-03-28T15:12:33.666Z</time></trkpt><trkpt lat="44.7563933" lon="9.7753183"><ele>372.2</ele><time>2026-03-28T15:12:34.666Z</time></trkpt><trkpt lat="44.7564867" lon="9.7753183"><ele>373.0</ele><time>2026-03-28T15:12:35.666Z</time></trkpt><trkpt lat="44.7565667" lon="9.7753"><ele>373.0</ele><time>2026-03-28T15:12:36.665Z</time></trkpt><trkpt lat="44.7566283" lon="9.775265"><ele>373.0</ele><time>2026-03-28T15:12:37.665Z</time></trkpt><trkpt lat="44.7567067" lon="9.7751817"><ele>373.0</ele><time>2026-03-28T15:12:39.666Z</time></trkpt><trkpt lat="44.7567767" lon="9.7751917"><ele>373.0</ele><time>2026-03-28T15:12:42.666Z</time></trkpt><trkpt lat="44.7568033" lon="9.7753283"><ele>373.0</ele><time>2026-03-28T15:12:45.666Z</time></trkpt><trkpt lat="44.7568217" lon="9.77548"><ele>373.0</ele><time>2026-03-28T15:12:47.666Z</time></trkpt><trkpt lat="44.756835" lon="9.7755717"><ele>373.0</ele><time>2026-03-28T15:12:48.666Z</time></trkpt><trkpt lat="44.75685" lon="9.7756767"><ele>373.0</ele><time>2026-03-28T15:12:49.666Z</time></trkpt><trkpt lat="44.75686" lon="9.7757867"><ele>373.0</ele><time>2026-03-28T15:12:50.666Z</time></trkpt><trkpt lat="44.7568767" lon="9.7758967"><ele>373.0</ele><time>2026-03-28T15:12:51.665Z</time></trkpt><trkpt lat="44.7568967" lon="9.7760067"><ele>373.0</ele><time>2026-03-28T15:12:52.665Z</time></trkpt><trkpt lat="44.75692" lon="9.776115"><ele>373.0</ele><time>2026-03-28T15:12:53.665Z</time></trkpt><trkpt lat="44.756945" lon="9.7762167"><ele>371.16666666666663</ele><time>2026-03-28T15:12:54.665Z</time></trkpt><trkpt lat="44.7569667" lon="9.7763017"><ele>369.3333333333333</ele><time>2026-03-28T15:12:55.667Z</time></trkpt><trkpt lat="44.7570083" lon="9.7764583"><ele>367.5</ele><time>2026-03-28T15:12:57.666Z</time></trkpt><trkpt lat="44.757025" lon="9.7765467"><ele>365.6666666666667</ele><time>2026-03-28T15:12:58.668Z</time></trkpt><trkpt lat="44.7570333" lon="9.77664"><ele>363.83333333333337</ele><time>2026-03-28T15:12:59.665Z</time></trkpt><trkpt lat="44.7570333" lon="9.7767433"><ele>362.0</ele><time>2026-03-28T15:13:00.665Z</time></trkpt><trkpt lat="44.7570283" lon="9.7768567"><ele>360.40000000000003</ele><time>2026-03-28T15:13:01.668Z</time></trkpt><trkpt lat="44.7570217" lon="9.7769883"><ele>358.8</ele><time>2026-03-28T15:13:02.667Z</time></trkpt><trkpt lat="44.7570167" lon="9.7771183"><ele>357.2</ele><time>2026-03-28T15:13:03.666Z</time></trkpt><trkpt lat="44.7570167" lon="9.7772483"><ele>355.6</ele><time>2026-03-28T15:13:04.667Z</time></trkpt><trkpt lat="44.7570317" lon="9.777375"><ele>354.0</ele><time>2026-03-28T15:13:05.666Z</time></trkpt><trkpt lat="44.7570433" lon="9.7774967"><ele>354.0</ele><time>2026-03-28T15:13:06.665Z</time></trkpt><trkpt lat="44.75706" lon="9.7776083"><ele>354.0</ele><time>2026-03-28T15:13:07.667Z</time></trkpt><trkpt lat="44.75708" lon="9.7777083"><ele>354.0</ele><time>2026-03-28T15:13:08.666Z</time></trkpt><trkpt lat="44.75715" lon="9.7778333"><ele>354.0</ele><time>2026-03-28T15:13:10.668Z</time></trkpt><trkpt lat="44.757265" lon="9.7778517"><ele>354.0</ele><time>2026-03-28T15:13:12.668Z</time></trkpt><trkpt lat="44.7573317" lon="9.7778233"><ele>354.0</ele><time>2026-03-28T15:13:13.667Z</time></trkpt><trkpt lat="44.7574083" lon="9.7777733"><ele>354.0</ele><time>2026-03-28T15:13:14.668Z</time></trkpt><trkpt lat="44.7574817" lon="9.7777033"><ele>354.0</ele><time>2026-03-28T15:13:15.666Z</time></trkpt><trkpt lat="44.7575467" lon="9.7776317"><ele>354.0</ele><time>2026-03-28T15:13:16.666Z</time></trkpt><trkpt lat="44.7576017" lon="9.7775733"><ele>354.0</ele><time>2026-03-28T15:13:17.668Z</time></trkpt><trkpt lat="44.7577033" lon="9.777515"><ele>354.0</ele><time>2026-03-28T15:13:19.666Z</time></trkpt><trkpt lat="44.757795" lon="9.7775483"><ele>354.2</ele><time>2026-03-28T15:13:21.665Z</time></trkpt><trkpt lat="44.7578933" lon="9.77765"><ele>354.4</ele><time>2026-03-28T15:13:23.665Z</time></trkpt><trkpt lat="44.757985" lon="9.7777283"><ele>354.6</ele><time>2026-03-28T15:13:25.665Z</time></trkpt><trkpt lat="44.7580533" lon="9.7778233"><ele>354.8</ele><time>2026-03-28T15:13:27.666Z</time></trkpt><trkpt lat="44.758085" lon="9.7779617"><ele>355.0</ele><time>2026-03-28T15:13:29.666Z</time></trkpt><trkpt lat="44.7580817" lon="9.7781383"><ele>355.0</ele><time>2026-03-28T15:13:31.665Z</time></trkpt><trkpt lat="44.7580633" lon="9.7782467"><ele>355.0</ele><time>2026-03-28T15:13:32.668Z</time></trkpt><trkpt lat="44.758045" lon="9.7783533"><ele>355.0</ele><time>2026-03-28T15:13:33.665Z</time></trkpt><trkpt lat="44.7580167" lon="9.778465"><ele>355.0</ele><time>2026-03-28T15:13:34.665Z</time></trkpt><trkpt lat="44.75799" lon="9.7785717"><ele>355.0</ele><time>2026-03-28T15:13:35.667Z</time></trkpt><trkpt lat="44.7579617" lon="9.7786767"><ele>355.0</ele><time>2026-03-28T15:13:36.665Z</time></trkpt><trkpt lat="44.7579367" lon="9.7787717"><ele>355.0</ele><time>2026-03-28T15:13:37.666Z</time></trkpt><trkpt lat="44.7579133" lon="9.7788767"><ele>355.0</ele><time>2026-03-28T15:13:38.666Z</time></trkpt><trkpt lat="44.7578867" lon="9.77898"><ele>355.0</ele><time>2026-03-28T15:13:39.665Z</time></trkpt><trkpt lat="44.757855" lon="9.7790767"><ele>355.0</ele><time>2026-03-28T15:13:40.67Z</time></trkpt><trkpt lat="44.7578233" lon="9.7791583"><ele>355.0</ele><time>2026-03-28T15:13:41.665Z</time></trkpt><trkpt lat="44.757755" lon="9.7792917"><ele>355.0</ele><time>2026-03-28T15:13:43.665Z</time></trkpt><trkpt lat="44.75769" lon="9.779435"><ele>352.5</ele><time>2026-03-28T15:13:45.665Z</time></trkpt><trkpt lat="44.7576583" lon="9.7796067"><ele>350.0</ele><time>2026-03-28T15:13:47.667Z</time></trkpt><trkpt lat="44.757655" lon="9.7797017"><ele>347.5</ele><time>2026-03-28T15:13:48.666Z</time></trkpt><trkpt lat="44.7576617" lon="9.7798083"><ele>345.0</ele><time>2026-03-28T15:13:49.666Z</time></trkpt><trkpt lat="44.75767" lon="9.779935"><ele>342.5</ele><time>2026-03-28T15:13:50.665Z</time></trkpt><trkpt lat="44.7576833" lon="9.7800517"><ele>340.0</ele><time>2026-03-28T15:13:51.665Z</time></trkpt><trkpt lat="44.757695" lon="9.7801817"><ele>339.66666666666663</ele><time>2026-03-28T15:13:52.665Z</time></trkpt><trkpt lat="44.7577017" lon="9.78031"><ele>339.3333333333333</ele><time>2026-03-28T15:13:53.666Z</time></trkpt><trkpt lat="44.7577083" lon="9.7804217"><ele>339.0</ele><time>2026-03-28T15:13:54.665Z</time></trkpt><trkpt lat="44.7577117" lon="9.78053"><ele>338.6666666666667</ele><time>2026-03-28T15:13:55.666Z</time></trkpt><trkpt lat="44.757715" lon="9.7806417"><ele>338.33333333333337</ele><time>2026-03-28T15:13:56.666Z</time></trkpt><trkpt lat="44.757725" lon="9.78075"><ele>338.0</ele><time>2026-03-28T15:13:57.668Z</time></trkpt><trkpt lat="44.7577383" lon="9.7808567"><ele>341.1666666666667</ele><time>2026-03-28T15:13:58.665Z</time></trkpt><trkpt lat="44.757755" lon="9.780975"><ele>344.33333333333337</ele><time>2026-03-28T15:13:59.665Z</time></trkpt><trkpt lat="44.7577767" lon="9.7810933"><ele>347.5</ele><time>2026-03-28T15:14:00.666Z</time></trkpt><trkpt lat="44.7578033" lon="9.7812033"><ele>350.6666666666667</ele><time>2026-03-28T15:14:01.665Z</time></trkpt><trkpt lat="44.7578317" lon="9.78132"><ele>353.8333333333333</ele><time>2026-03-28T15:14:02.666Z</time></trkpt><trkpt lat="44.757865" lon="9.781435"><ele>357.0</ele><time>2026-03-28T15:14:03.666Z</time></trkpt><trkpt lat="44.7579033" lon="9.7815467"><ele>357.0</ele><time>2026-03-28T15:14:04.665Z</time></trkpt><trkpt lat="44.7579367" lon="9.7816483"><ele>357.0</ele><time>2026-03-28T15:14:05.665Z</time></trkpt><trkpt lat="44.7579717" lon="9.7817583"><ele>357.0</ele><time>2026-03-28T15:14:06.666Z</time></trkpt><trkpt lat="44.7579967" lon="9.7818633"><ele>357.0</ele><time>2026-03-28T15:14:07.665Z</time></trkpt><trkpt lat="44.7580117" lon="9.7819567"><ele>357.0</ele><time>2026-03-28T15:14:08.666Z</time></trkpt><trkpt lat="44.758035" lon="9.7820817"><ele>357.0</ele><time>2026-03-28T15:14:10.665Z</time></trkpt><trkpt lat="44.7580883" lon="9.7822433"><ele>355.6666666666667</ele><time>2026-03-28T15:14:12.666Z</time></trkpt><trkpt lat="44.758115" lon="9.78233"><ele>354.3333333333333</ele><time>2026-03-28T15:14:13.667Z</time></trkpt><trkpt lat="44.7581467" lon="9.7824067"><ele>353.0</ele><time>2026-03-28T15:14:14.667Z</time></trkpt><trkpt lat="44.7582167" lon="9.7825433"><ele>351.66666666666663</ele><time>2026-03-28T15:14:16.666Z</time></trkpt><trkpt lat="44.7582683" lon="9.7826283"><ele>350.3333333333333</ele><time>2026-03-28T15:14:17.665Z</time></trkpt><trkpt lat="44.7583267" lon="9.7827083"><ele>349.0</ele><time>2026-03-28T15:14:18.665Z</time></trkpt><trkpt lat="44.7583833" lon="9.782795"><ele>348.1428571428571</ele><time>2026-03-28T15:14:19.666Z</time></trkpt><trkpt lat="44.7584417" lon="9.782875"><ele>347.2857142857143</ele><time>2026-03-28T15:14:20.666Z</time></trkpt><trkpt lat="44.7585" lon="9.7829517"><ele>346.42857142857144</ele><time>2026-03-28T15:14:21.666Z</time></trkpt><trkpt lat="44.7585567" lon="9.7830183"><ele>345.57142857142856</ele><time>2026-03-28T15:14:22.666Z</time></trkpt><trkpt lat="44.7586167" lon="9.78307"><ele>344.7142857142857</ele><time>2026-03-28T15:14:23.668Z</time></trkpt><trkpt lat="44.758675" lon="9.7831083"><ele>343.85714285714283</ele><time>2026-03-28T15:14:24.665Z</time></trkpt><trkpt lat="44.75874" lon="9.7831267"><ele>343.0</ele><time>2026-03-28T15:14:25.666Z</time></trkpt><trkpt lat="44.7588117" lon="9.7831317"><ele>343.0</ele><time>2026-03-28T15:14:26.665Z</time></trkpt><trkpt lat="44.7588883" lon="9.7831217"><ele>343.0</ele><time>2026-03-28T15:14:27.665Z</time></trkpt><trkpt lat="44.758965" lon="9.78312"><ele>343.0</ele><time>2026-03-28T15:14:28.665Z</time></trkpt><trkpt lat="44.759035" lon="9.7831267"><ele>343.0</ele><time>2026-03-28T15:14:29.667Z</time></trkpt><trkpt lat="44.7591083" lon="9.7831483"><ele>343.0</ele><time>2026-03-28T15:14:30.666Z</time></trkpt><trkpt lat="44.7591867" lon="9.7831983"><ele>343.0</ele><time>2026-03-28T15:14:31.666Z</time></trkpt><trkpt lat="44.7592583" lon="9.7832517"><ele>343.0</ele><time>2026-03-28T15:14:32.666Z</time></trkpt><trkpt lat="44.7593183" lon="9.78331"><ele>343.0</ele><time>2026-03-28T15:14:33.665Z</time></trkpt><trkpt lat="44.7593667" lon="9.783375"><ele>343.0</ele><time>2026-03-28T15:14:34.666Z</time></trkpt><trkpt lat="44.7594217" lon="9.7834333"><ele>343.0</ele><time>2026-03-28T15:14:35.665Z</time></trkpt><trkpt lat="44.75949" lon="9.783485"><ele>343.0</ele><time>2026-03-28T15:14:36.666Z</time></trkpt><trkpt lat="44.7595567" lon="9.7835333"><ele>343.0</ele><time>2026-03-28T15:14:37.667Z</time></trkpt><trkpt lat="44.7596233" lon="9.7836383"><ele>343.8333333333333</ele><time>2026-03-28T15:14:39.667Z</time></trkpt><trkpt lat="44.7596517" lon="9.7837833"><ele>344.66666666666663</ele><time>2026-03-28T15:14:41.665Z</time></trkpt><trkpt lat="44.7597183" lon="9.7839283"><ele>345.5</ele><time>2026-03-28T15:14:43.667Z</time></trkpt><trkpt lat="44.7597717" lon="9.7839867"><ele>346.3333333333333</ele><time>2026-03-28T15:14:44.667Z</time></trkpt><trkpt lat="44.75983" lon="9.784035"><ele>347.1666666666667</ele><time>2026-03-28T15:14:45.665Z</time></trkpt><trkpt lat="44.75989" lon="9.7840633"><ele>348.0</ele><time>2026-03-28T15:14:46.665Z</time></trkpt><trkpt lat="44.7600133" lon="9.7840467"><ele>348.0</ele><time>2026-03-28T15:14:48.672Z</time></trkpt><trkpt lat="44.7601283" lon="9.78409"><ele>348.0</ele><time>2026-03-28T15:14:50.669Z</time></trkpt><trkpt lat="44.7601817" lon="9.78415"><ele>348.0</ele><time>2026-03-28T15:14:51.665Z</time></trkpt><trkpt lat="44.7602233" lon="9.7842183"><ele>348.0</ele><time>2026-03-28T15:14:52.667Z</time></trkpt><trkpt lat="44.7602483" lon="9.7843033"><ele>348.0</ele><time>2026-03-28T15:14:53.666Z</time></trkpt><trkpt lat="44.7602417" lon="9.7844633"><ele>348.0</ele><time>2026-03-28T15:14:55.667Z</time></trkpt><trkpt lat="44.760175" lon="9.7845617"><ele>348.2857142857143</ele><time>2026-03-28T15:14:57.667Z</time></trkpt><trkpt lat="44.7601617" lon="9.7846883"><ele>348.57142857142856</ele><time>2026-03-28T15:14:59.666Z</time></trkpt><trkpt lat="44.76017" lon="9.78478"><ele>348.8571428571429</ele><time>2026-03-28T15:15:00.665Z</time></trkpt><trkpt lat="44.7601767" lon="9.78487"><ele>349.1428571428571</ele><time>2026-03-28T15:15:01.666Z</time></trkpt><trkpt lat="44.7601967" lon="9.7849683"><ele>349.42857142857144</ele><time>2026-03-28T15:15:02.666Z</time></trkpt><trkpt lat="44.7602267" lon="9.7850517"><ele>349.7142857142857</ele><time>2026-03-28T15:15:03.666Z</time></trkpt><trkpt lat="44.7602667" lon="9.78513"><ele>350.0</ele><time>2026-03-28T15:15:04.665Z</time></trkpt><trkpt lat="44.7603133" lon="9.7852067"><ele>347.5</ele><time>2026-03-28T15:15:05.671Z</time></trkpt><trkpt lat="44.7603717" lon="9.7852733"><ele>345.0</ele><time>2026-03-28T15:15:06.665Z</time></trkpt><trkpt lat="44.7604367" lon="9.7853167"><ele>342.5</ele><time>2026-03-28T15:15:07.665Z</time></trkpt><trkpt lat="44.7605117" lon="9.7853533"><ele>340.0</ele><time>2026-03-28T15:15:08.666Z</time></trkpt><trkpt lat="44.7605833" lon="9.7853817"><ele>337.5</ele><time>2026-03-28T15:15:09.666Z</time></trkpt><trkpt lat="44.76066" lon="9.7854067"><ele>335.0</ele><time>2026-03-28T15:15:10.666Z</time></trkpt><trkpt lat="44.7607383" lon="9.7854167"><ele>334.99999999999994</ele><time>2026-03-28T15:15:11.666Z</time></trkpt><trkpt lat="44.760825" lon="9.78542"><ele>335.0</ele><time>2026-03-28T15:15:12.665Z</time></trkpt><trkpt lat="44.7609" lon="9.7854117"><ele>335.0</ele><time>2026-03-28T15:15:13.666Z</time></trkpt><trkpt lat="44.7609667" lon="9.7853983"><ele>335.0</ele><time>2026-03-28T15:15:14.666Z</time></trkpt><trkpt lat="44.761035" lon="9.7854083"><ele>335.0</ele><time>2026-03-28T15:15:15.666Z</time></trkpt><trkpt lat="44.7610967" lon="9.7854433"><ele>334.99999999999994</ele><time>2026-03-28T15:15:16.666Z</time></trkpt><trkpt lat="44.761145" lon="9.785505"><ele>335.0</ele><time>2026-03-28T15:15:17.666Z</time></trkpt><trkpt lat="44.7612183" lon="9.785635"><ele>336.83333333333337</ele><time>2026-03-28T15:15:19.668Z</time></trkpt><trkpt lat="44.7613183" lon="9.7856867"><ele>338.6666666666667</ele><time>2026-03-28T15:15:21.667Z</time></trkpt><trkpt lat="44.761445" lon="9.7857233"><ele>340.5</ele><time>2026-03-28T15:15:23.667Z</time></trkpt><trkpt lat="44.7615067" lon="9.78576"><ele>342.3333333333333</ele><time>2026-03-28T15:15:24.667Z</time></trkpt><trkpt lat="44.761565" lon="9.7858133"><ele>344.16666666666663</ele><time>2026-03-28T15:15:25.667Z</time></trkpt><trkpt lat="44.7616267" lon="9.7858767"><ele>346.0</ele><time>2026-03-28T15:15:26.667Z</time></trkpt><trkpt lat="44.7616867" lon="9.785955"><ele>345.57142857142856</ele><time>2026-03-28T15:15:27.668Z</time></trkpt><trkpt lat="44.7617367" lon="9.7860417"><ele>345.14285714285717</ele><time>2026-03-28T15:15:28.666Z</time></trkpt><trkpt lat="44.7617867" lon="9.78611"><ele>344.7142857142857</ele><time>2026-03-28T15:15:29.667Z</time></trkpt><trkpt lat="44.76184" lon="9.7861667"><ele>344.2857142857143</ele><time>2026-03-28T15:15:30.668Z</time></trkpt><trkpt lat="44.761895" lon="9.7862233"><ele>343.8571428571429</ele><time>2026-03-28T15:15:31.665Z</time></trkpt><trkpt lat="44.761955" lon="9.78627"><ele>343.42857142857144</ele><time>2026-03-28T15:15:32.665Z</time></trkpt><trkpt lat="44.7620217" lon="9.7863183"><ele>343.0</ele><time>2026-03-28T15:15:33.666Z</time></trkpt><trkpt lat="44.7620833" lon="9.7863667"><ele>343.0</ele><time>2026-03-28T15:15:34.666Z</time></trkpt><trkpt lat="44.7621483" lon="9.7864033"><ele>343.0</ele><time>2026-03-28T15:15:35.665Z</time></trkpt><trkpt lat="44.7622283" lon="9.7864383"><ele>343.0</ele><time>2026-03-28T15:15:36.666Z</time></trkpt><trkpt lat="44.7623017" lon="9.78646"><ele>343.0</ele><time>2026-03-28T15:15:37.666Z</time></trkpt><trkpt lat="44.7623767" lon="9.7865"><ele>343.0</ele><time>2026-03-28T15:15:38.666Z</time></trkpt><trkpt lat="44.7624467" lon="9.7865517"><ele>343.0</ele><time>2026-03-28T15:15:39.666Z</time></trkpt><trkpt lat="44.7625167" lon="9.78661"><ele>343.0</ele><time>2026-03-28T15:15:40.666Z</time></trkpt><trkpt lat="44.7625783" lon="9.7866733"><ele>343.0</ele><time>2026-03-28T15:15:41.666Z</time></trkpt><trkpt lat="44.7626233" lon="9.7867367"><ele>343.0</ele><time>2026-03-28T15:15:42.666Z</time></trkpt><trkpt lat="44.7626983" lon="9.7868583"><ele>343.0</ele><time>2026-03-28T15:15:44.665Z</time></trkpt><trkpt lat="44.7627967" lon="9.78692"><ele>343.0</ele><time>2026-03-28T15:15:46.666Z</time></trkpt><trkpt lat="44.7629017" lon="9.78695"><ele>342.79999999999995</ele><time>2026-03-28T15:15:48.667Z</time></trkpt><trkpt lat="44.7630117" lon="9.7869967"><ele>342.6</ele><time>2026-03-28T15:15:50.666Z</time></trkpt><trkpt lat="44.763085" lon="9.7870117"><ele>342.4</ele><time>2026-03-28T15:15:51.666Z</time></trkpt><trkpt lat="44.7632083" lon="9.7870167"><ele>342.20000000000005</ele><time>2026-03-28T15:15:53.667Z</time></trkpt><trkpt lat="44.7632733" lon="9.7870517"><ele>342.0</ele><time>2026-03-28T15:15:54.667Z</time></trkpt><trkpt lat="44.7633383" lon="9.7871033"><ele>342.0</ele><time>2026-03-28T15:15:55.668Z</time></trkpt><trkpt lat="44.7634017" lon="9.787165"><ele>342.0</ele><time>2026-03-28T15:15:56.667Z</time></trkpt><trkpt lat="44.7634633" lon="9.787225"><ele>342.0</ele><time>2026-03-28T15:15:57.667Z</time></trkpt><trkpt lat="44.7635217" lon="9.7872883"><ele>342.0</ele><time>2026-03-28T15:15:58.668Z</time></trkpt><trkpt lat="44.7635767" lon="9.7873533"><ele>342.0</ele><time>2026-03-28T15:15:59.666Z</time></trkpt><trkpt lat="44.7636433" lon="9.78742"><ele>342.0</ele><time>2026-03-28T15:16:00.667Z</time></trkpt><trkpt lat="44.763705" lon="9.7874717"><ele>344.0</ele><time>2026-03-28T15:16:01.666Z</time></trkpt><trkpt lat="44.7637683" lon="9.7875133"><ele>346.0</ele><time>2026-03-28T15:16:02.667Z</time></trkpt><trkpt lat="44.76384" lon="9.7875433"><ele>348.0</ele><time>2026-03-28T15:16:03.666Z</time></trkpt><trkpt lat="44.7639183" lon="9.7875767"><ele>350.0</ele><time>2026-03-28T15:16:04.666Z</time></trkpt><trkpt lat="44.764" lon="9.7876067"><ele>352.0</ele><time>2026-03-28T15:16:05.666Z</time></trkpt><trkpt lat="44.7640667" lon="9.7876183"><ele>354.0</ele><time>2026-03-28T15:16:06.665Z</time></trkpt><trkpt lat="44.7641667" lon="9.78766"><ele>355.79999999999995</ele><time>2026-03-28T15:16:08.666Z</time></trkpt><trkpt lat="44.7642133" lon="9.78776"><ele>357.59999999999997</ele><time>2026-03-28T15:16:10.666Z</time></trkpt><trkpt lat="44.7642433" lon="9.7879033"><ele>359.4</ele><time>2026-03-28T15:16:12.665Z</time></trkpt><trkpt lat="44.7643033" lon="9.7880533"><ele>361.2</ele><time>2026-03-28T15:16:14.666Z</time></trkpt><trkpt lat="44.764355" lon="9.7881833"><ele>363.0</ele><time>2026-03-28T15:16:16.666Z</time></trkpt><trkpt lat="44.7643867" lon="9.7883267"><ele>363.0</ele><time>2026-03-28T15:16:18.666Z</time></trkpt><trkpt lat="44.7644083" lon="9.7884567"><ele>363.0</ele><time>2026-03-28T15:16:20.667Z</time></trkpt><trkpt lat="44.7643867" lon="9.7885667"><ele>363.0</ele><time>2026-03-28T15:16:22.666Z</time></trkpt><trkpt lat="44.76438" lon="9.7886933"><ele>363.0</ele><time>2026-03-28T15:16:24.666Z</time></trkpt><trkpt lat="44.7644267" lon="9.788815"><ele>363.0</ele><time>2026-03-28T15:16:26.666Z</time></trkpt><trkpt lat="44.7645033" lon="9.788955"><ele>362.5</ele><time>2026-03-28T15:16:28.665Z</time></trkpt><trkpt lat="44.7645383" lon="9.7890367"><ele>362.0</ele><time>2026-03-28T15:16:29.666Z</time></trkpt><trkpt lat="44.7645683" lon="9.7891217"><ele>361.5</ele><time>2026-03-28T15:16:30.665Z</time></trkpt><trkpt lat="44.764605" lon="9.7892133"><ele>361.0</ele><time>2026-03-28T15:16:31.666Z</time></trkpt><trkpt lat="44.7646267" lon="9.7893083"><ele>360.5</ele><time>2026-03-28T15:16:32.666Z</time></trkpt><trkpt lat="44.7646433" lon="9.7894567"><ele>360.0</ele><time>2026-03-28T15:16:34.666Z</time></trkpt><trkpt lat="44.7646417" lon="9.789585"><ele>360.0</ele><time>2026-03-28T15:16:36.665Z</time></trkpt><trkpt lat="44.7646183" lon="9.7897217"><ele>360.0</ele><time>2026-03-28T15:16:38.665Z</time></trkpt><trkpt lat="44.76457" lon="9.7898383"><ele>360.0</ele><time>2026-03-28T15:16:40.665Z</time></trkpt><trkpt lat="44.76453" lon="9.7899333"><ele>360.0</ele><time>2026-03-28T15:16:42.667Z</time></trkpt><trkpt lat="44.764515" lon="9.7900517"><ele>360.0</ele><time>2026-03-28T15:16:44.666Z</time></trkpt><trkpt lat="44.76454" lon="9.7901433"><ele>360.0</ele><time>2026-03-28T15:16:47.666Z</time></trkpt><trkpt lat="44.7645917" lon="9.790235"><ele>359.6666666666667</ele><time>2026-03-28T15:16:53.666Z</time></trkpt><trkpt lat="44.76461" lon="9.790365"><ele>359.3333333333333</ele><time>2026-03-28T15:16:56.666Z</time></trkpt><trkpt lat="44.764615" lon="9.7904933"><ele>359.0</ele><time>2026-03-28T15:16:58.666Z</time></trkpt><trkpt lat="44.7646083" lon="9.7905833"><ele>358.66666666666663</ele><time>2026-03-28T15:16:59.666Z</time></trkpt><trkpt lat="44.7645983" lon="9.7906733"><ele>358.3333333333333</ele><time>2026-03-28T15:17:00.665Z</time></trkpt><trkpt lat="44.764565" lon="9.7908267"><ele>358.0</ele><time>2026-03-28T15:17:02.665Z</time></trkpt><trkpt lat="44.76454" lon="9.79096"><ele>355.59999999999997</ele><time>2026-03-28T15:17:04.666Z</time></trkpt><trkpt lat="44.7645667" lon="9.791085"><ele>353.2</ele><time>2026-03-28T15:17:06.666Z</time></trkpt><trkpt lat="44.7646517" lon="9.7911617"><ele>350.8</ele><time>2026-03-28T15:17:08.666Z</time></trkpt><trkpt lat="44.7647517" lon="9.7912333"><ele>348.4</ele><time>2026-03-28T15:17:10.665Z</time></trkpt><trkpt lat="44.76482" lon="9.7913417"><ele>346.0</ele><time>2026-03-28T15:17:12.665Z</time></trkpt><trkpt lat="44.76483" lon="9.79148"><ele>346.0</ele><time>2026-03-28T15:17:14.666Z</time></trkpt><trkpt lat="44.7648483" lon="9.7915983"><ele>346.0</ele><time>2026-03-28T15:17:16.666Z</time></trkpt><trkpt lat="44.7649067" lon="9.791675"><ele>346.0</ele><time>2026-03-28T15:17:18.666Z</time></trkpt><trkpt lat="44.7649717" lon="9.7917983"><ele>346.0</ele><time>2026-03-28T15:17:20.666Z</time></trkpt><trkpt lat="44.7650233" lon="9.79194"><ele>346.0</ele><time>2026-03-28T15:17:22.666Z</time></trkpt><trkpt lat="44.765085" lon="9.7920367"><ele>344.25</ele><time>2026-03-28T15:17:24.666Z</time></trkpt><trkpt lat="44.7651983" lon="9.7920567"><ele>342.5</ele><time>2026-03-28T15:17:26.665Z</time></trkpt><trkpt lat="44.7653117" lon="9.7920733"><ele>340.75</ele><time>2026-03-28T15:17:28.666Z</time></trkpt><trkpt lat="44.7654233" lon="9.7920933"><ele>339.0</ele><time>2026-03-28T15:17:30.666Z</time></trkpt><trkpt lat="44.76554" lon="9.7921317"><ele>339.0</ele><time>2026-03-28T15:17:32.666Z</time></trkpt><trkpt lat="44.7656667" lon="9.792135"><ele>339.0</ele><time>2026-03-28T15:17:34.666Z</time></trkpt><trkpt lat="44.7657317" lon="9.7921283"><ele>339.0</ele><time>2026-03-28T15:17:35.666Z</time></trkpt><trkpt lat="44.765795" lon="9.7921367"><ele>339.0</ele><time>2026-03-28T15:17:36.666Z</time></trkpt><trkpt lat="44.7659083" lon="9.7921917"><ele>339.0</ele><time>2026-03-28T15:17:38.666Z</time></trkpt><trkpt lat="44.7659883" lon="9.7923083"><ele>339.4</ele><time>2026-03-28T15:17:40.665Z</time></trkpt><trkpt lat="44.7660433" lon="9.79245"><ele>339.79999999999995</ele><time>2026-03-28T15:17:42.664Z</time></trkpt><trkpt lat="44.7660817" lon="9.79259"><ele>340.20000000000005</ele><time>2026-03-28T15:17:44.665Z</time></trkpt><trkpt lat="44.766145" lon="9.7927017"><ele>340.6</ele><time>2026-03-28T15:17:46.665Z</time></trkpt><trkpt lat="44.7662417" lon="9.792785"><ele>341.0</ele><time>2026-03-28T15:17:48.666Z</time></trkpt><trkpt lat="44.766345" lon="9.7928633"><ele>341.0</ele><time>2026-03-28T15:17:50.666Z</time></trkpt><trkpt lat="44.7663967" lon="9.7929217"><ele>341.0</ele><time>2026-03-28T15:17:51.666Z</time></trkpt><trkpt lat="44.766445" lon="9.7929867"><ele>341.0</ele><time>2026-03-28T15:17:52.666Z</time></trkpt><trkpt lat="44.7664883" lon="9.7930567"><ele>341.0</ele><time>2026-03-28T15:17:53.666Z</time></trkpt><trkpt lat="44.7665633" lon="9.79318"><ele>341.0</ele><time>2026-03-28T15:17:55.666Z</time></trkpt><trkpt lat="44.7666617" lon="9.7932183"><ele>341.0</ele><time>2026-03-28T15:17:57.664Z</time></trkpt><trkpt lat="44.76676" lon="9.7932567"><ele>341.0</ele><time>2026-03-28T15:17:59.666Z</time></trkpt><trkpt lat="44.76682" lon="9.7933233"><ele>341.0</ele><time>2026-03-28T15:18:01.665Z</time></trkpt><trkpt lat="44.766745" lon="9.793315"><ele>341.0</ele><time>2026-03-28T15:22:05.668Z</time></trkpt><trkpt lat="44.76668" lon="9.79329"><ele>341.0</ele><time>2026-03-28T15:22:07.667Z</time></trkpt><trkpt lat="44.7665983" lon="9.7932783"><ele>341.0</ele><time>2026-03-28T15:22:09.667Z</time></trkpt><trkpt lat="44.7665333" lon="9.7932317"><ele>341.0</ele><time>2026-03-28T15:22:11.667Z</time></trkpt><trkpt lat="44.7664767" lon="9.7931383"><ele>341.0</ele><time>2026-03-28T15:22:13.666Z</time></trkpt><trkpt lat="44.7664183" lon="9.793045"><ele>341.0</ele><time>2026-03-28T15:22:15.666Z</time></trkpt><trkpt lat="44.7663433" lon="9.7929317"><ele>341.0</ele><time>2026-03-28T15:22:22.665Z</time></trkpt><trkpt lat="44.7662783" lon="9.7928833"><ele>341.0</ele><time>2026-03-28T15:22:24.664Z</time></trkpt><trkpt lat="44.7662067" lon="9.7928183"><ele>341.0</ele><time>2026-03-28T15:22:26.665Z</time></trkpt><trkpt lat="44.766125" lon="9.7927483"><ele>340.6</ele><time>2026-03-28T15:22:28.664Z</time></trkpt><trkpt lat="44.7660667" lon="9.7926667"><ele>340.20000000000005</ele><time>2026-03-28T15:22:30.665Z</time></trkpt><trkpt lat="44.7660467" lon="9.7925567"><ele>339.79999999999995</ele><time>2026-03-28T15:22:32.665Z</time></trkpt><trkpt lat="44.7660317" lon="9.7924133"><ele>339.4</ele><time>2026-03-28T15:22:34.665Z</time></trkpt><trkpt lat="44.7659933" lon="9.79229"><ele>339.0</ele><time>2026-03-28T15:22:36.665Z</time></trkpt><trkpt lat="44.7659233" lon="9.79221"><ele>339.0</ele><time>2026-03-28T15:22:38.665Z</time></trkpt><trkpt lat="44.76582" lon="9.7921617"><ele>339.0</ele><time>2026-03-28T15:22:40.664Z</time></trkpt><trkpt lat="44.7657033" lon="9.7921683"><ele>339.0</ele><time>2026-03-28T15:22:42.666Z</time></trkpt><trkpt lat="44.7655933" lon="9.792185"><ele>339.0</ele><time>2026-03-28T15:22:44.666Z</time></trkpt><trkpt lat="44.765505" lon="9.7921583"><ele>339.0</ele><time>2026-03-28T15:22:46.666Z</time></trkpt><trkpt lat="44.7653967" lon="9.7921067"><ele>339.0</ele><time>2026-03-28T15:22:48.666Z</time></trkpt><trkpt lat="44.765285" lon="9.7920867"><ele>339.0</ele><time>2026-03-28T15:22:50.667Z</time></trkpt><trkpt lat="44.7651783" lon="9.792075"><ele>339.0</ele><time>2026-03-28T15:22:52.667Z</time></trkpt><trkpt lat="44.7650983" lon="9.7920567"><ele>339.0</ele><time>2026-03-28T15:22:54.668Z</time></trkpt><trkpt lat="44.7650417" lon="9.7919817"><ele>339.0</ele><time>2026-03-28T15:22:56.667Z</time></trkpt><trkpt lat="44.7649917" lon="9.7918483"><ele>340.4</ele><time>2026-03-28T15:22:58.665Z</time></trkpt><trkpt lat="44.764925" lon="9.7917183"><ele>341.79999999999995</ele><time>2026-03-28T15:23:00.667Z</time></trkpt><trkpt lat="44.7648417" lon="9.7916483"><ele>343.20000000000005</ele><time>2026-03-28T15:23:02.665Z</time></trkpt><trkpt lat="44.7648083" lon="9.7915617"><ele>344.6</ele><time>2026-03-28T15:23:04.666Z</time></trkpt><trkpt lat="44.7648033" lon="9.7914283"><ele>346.0</ele><time>2026-03-28T15:23:06.665Z</time></trkpt><trkpt lat="44.7647667" lon="9.7912933"><ele>346.0</ele><time>2026-03-28T15:23:08.665Z</time></trkpt><trkpt lat="44.7646867" lon="9.7912067"><ele>346.0</ele><time>2026-03-28T15:23:10.665Z</time></trkpt><trkpt lat="44.7646033" lon="9.79113"><ele>346.0</ele><time>2026-03-28T15:23:12.665Z</time></trkpt><trkpt lat="44.7645533" lon="9.7910317"><ele>346.0</ele><time>2026-03-28T15:23:14.666Z</time></trkpt><trkpt lat="44.7645667" lon="9.7908817"><ele>346.0</ele><time>2026-03-28T15:23:16.666Z</time></trkpt><trkpt lat="44.7646017" lon="9.7907267"><ele>348.4</ele><time>2026-03-28T15:23:18.664Z</time></trkpt><trkpt lat="44.7646167" lon="9.7906383"><ele>350.8</ele><time>2026-03-28T15:23:19.665Z</time></trkpt><trkpt lat="44.7646167" lon="9.7905467"><ele>353.2</ele><time>2026-03-28T15:23:20.665Z</time></trkpt><trkpt lat="44.7646033" lon="9.79038"><ele>355.59999999999997</ele><time>2026-03-28T15:23:22.664Z</time></trkpt><trkpt lat="44.7645667" lon="9.79023"><ele>358.0</ele><time>2026-03-28T15:23:24.665Z</time></trkpt><trkpt lat="44.7645233" lon="9.7900933"><ele>358.4</ele><time>2026-03-28T15:23:26.666Z</time></trkpt><trkpt lat="44.7645033" lon="9.78995"><ele>358.79999999999995</ele><time>2026-03-28T15:23:28.666Z</time></trkpt><trkpt lat="44.76453" lon="9.7898067"><ele>359.2</ele><time>2026-03-28T15:23:30.665Z</time></trkpt><trkpt lat="44.764575" lon="9.7896583"><ele>359.6</ele><time>2026-03-28T15:23:32.665Z</time></trkpt><trkpt lat="44.7645933" lon="9.7895733"><ele>360.0</ele><time>2026-03-28T15:23:33.665Z</time></trkpt><trkpt lat="44.7645983" lon="9.7894217"><ele>359.5</ele><time>2026-03-28T15:23:35.665Z</time></trkpt><trkpt lat="44.7645633" lon="9.7892533"><ele>359.0</ele><time>2026-03-28T15:23:37.664Z</time></trkpt><trkpt lat="44.764545" lon="9.7891683"><ele>358.5</ele><time>2026-03-28T15:23:38.667Z</time></trkpt><trkpt lat="44.7644933" lon="9.7890133"><ele>358.0</ele><time>2026-03-28T15:23:40.664Z</time></trkpt><trkpt lat="44.7644533" lon="9.788935"><ele>357.5</ele><time>2026-03-28T15:23:41.665Z</time></trkpt><trkpt lat="44.7644133" lon="9.788865"><ele>357.0</ele><time>2026-03-28T15:23:42.666Z</time></trkpt><trkpt lat="44.7643533" lon="9.7887283"><ele>358.0</ele><time>2026-03-28T15:23:44.666Z</time></trkpt><trkpt lat="44.764345" lon="9.78859"><ele>359.0</ele><time>2026-03-28T15:23:46.666Z</time></trkpt><trkpt lat="44.7643767" lon="9.78847"><ele>360.0</ele><time>2026-03-28T15:23:48.667Z</time></trkpt><trkpt lat="44.7643817" lon="9.7883633"><ele>361.0</ele><time>2026-03-28T15:23:50.668Z</time></trkpt><trkpt lat="44.7643583" lon="9.7882667"><ele>362.0</ele><time>2026-03-28T15:23:52.667Z</time></trkpt><trkpt lat="44.7643183" lon="9.78813"><ele>363.0</ele><time>2026-03-28T15:23:54.666Z</time></trkpt><trkpt lat="44.764255" lon="9.7880017"><ele>361.2</ele><time>2026-03-28T15:23:56.666Z</time></trkpt><trkpt lat="44.7642117" lon="9.7878433"><ele>359.4</ele><time>2026-03-28T15:23:58.665Z</time></trkpt><trkpt lat="44.76418" lon="9.787705"><ele>357.59999999999997</ele><time>2026-03-28T15:24:00.665Z</time></trkpt><trkpt lat="44.76411" lon="9.7876367"><ele>355.79999999999995</ele><time>2026-03-28T15:24:02.665Z</time></trkpt><trkpt lat="44.7639767" lon="9.787615"><ele>354.0</ele><time>2026-03-28T15:24:04.665Z</time></trkpt><trkpt lat="44.76391" lon="9.78759"><ele>354.0</ele><time>2026-03-28T15:24:05.664Z</time></trkpt><trkpt lat="44.7638479" lon="9.787559"><ele>354.0</ele><time>2026-03-28T15:24:06.665Z</time></trkpt><trkpt lat="44.7637862" lon="9.7875192"><ele>354.0</ele><time>2026-03-28T15:24:07.664Z</time></trkpt><trkpt lat="44.7637233" lon="9.7874817"><ele>354.0</ele><time>2026-03-28T15:24:08.665Z</time></trkpt><trkpt lat="44.7636626" lon="9.7874309"><ele>354.0</ele><time>2026-03-28T15:24:09.665Z</time></trkpt><trkpt lat="44.7636056" lon="9.7873731"><ele>354.0</ele><time>2026-03-28T15:24:10.666Z</time></trkpt><trkpt lat="44.7635531" lon="9.7873164"><ele>354.0</ele><time>2026-03-28T15:24:11.665Z</time></trkpt><trkpt lat="44.7634471" lon="9.7872321"><ele>352.0</ele><time>2026-03-28T15:24:13.664Z</time></trkpt><trkpt lat="44.7633891" lon="9.7871921"><ele>350.0</ele><time>2026-03-28T15:24:14.665Z</time></trkpt><trkpt lat="44.7633314" lon="9.7871444"><ele>348.0</ele><time>2026-03-28T15:24:15.664Z</time></trkpt><trkpt lat="44.7632704" lon="9.7871012"><ele>346.0</ele><time>2026-03-28T15:24:16.665Z</time></trkpt><trkpt lat="44.7631511" lon="9.787079"><ele>344.0</ele><time>2026-03-28T15:24:18.667Z</time></trkpt><trkpt lat="44.7630411" lon="9.7870821"><ele>342.0</ele><time>2026-03-28T15:24:20.667Z</time></trkpt><trkpt lat="44.7629341" lon="9.7870326"><ele>342.0</ele><time>2026-03-28T15:24:22.667Z</time></trkpt><trkpt lat="44.7628312" lon="9.7869904"><ele>342.0</ele><time>2026-03-28T15:24:24.664Z</time></trkpt><trkpt lat="44.7627244" lon="9.7869263"><ele>342.0</ele><time>2026-03-28T15:24:26.665Z</time></trkpt><trkpt lat="44.7626423" lon="9.7868077"><ele>342.0</ele><time>2026-03-28T15:24:28.664Z</time></trkpt><trkpt lat="44.7625962" lon="9.7867334"><ele>342.0</ele><time>2026-03-28T15:24:29.665Z</time></trkpt><trkpt lat="44.7625392" lon="9.786653"><ele>342.1666666666667</ele><time>2026-03-28T15:24:30.665Z</time></trkpt><trkpt lat="44.7624749" lon="9.7865813"><ele>342.3333333333333</ele><time>2026-03-28T15:24:31.665Z</time></trkpt><trkpt lat="44.7624085" lon="9.7865237"><ele>342.5</ele><time>2026-03-28T15:24:32.666Z</time></trkpt><trkpt lat="44.7623388" lon="9.7864877"><ele>342.66666666666663</ele><time>2026-03-28T15:24:33.665Z</time></trkpt><trkpt lat="44.7622611" lon="9.7864605"><ele>342.8333333333333</ele><time>2026-03-28T15:24:34.665Z</time></trkpt><trkpt lat="44.7621788" lon="9.7864292"><ele>343.0</ele><time>2026-03-28T15:24:35.665Z</time></trkpt><trkpt lat="44.7620966" lon="9.7863795"><ele>343.0</ele><time>2026-03-28T15:24:36.664Z</time></trkpt><trkpt lat="44.7620204" lon="9.7863158"><ele>343.0</ele><time>2026-03-28T15:24:37.665Z</time></trkpt><trkpt lat="44.7619491" lon="9.7862528"><ele>343.0</ele><time>2026-03-28T15:24:38.665Z</time></trkpt><trkpt lat="44.7618808" lon="9.7861959"><ele>343.0</ele><time>2026-03-28T15:24:39.665Z</time></trkpt><trkpt lat="44.7618137" lon="9.7861484"><ele>343.0</ele><time>2026-03-28T15:24:40.666Z</time></trkpt><trkpt lat="44.7617525" lon="9.7860986"><ele>343.0</ele><time>2026-03-28T15:24:41.664Z</time></trkpt><trkpt lat="44.7617003" lon="9.7860396"><ele>343.59999999999997</ele><time>2026-03-28T15:24:42.664Z</time></trkpt><trkpt lat="44.7616411" lon="9.7859208"><ele>344.2</ele><time>2026-03-28T15:24:44.665Z</time></trkpt><trkpt lat="44.7615727" lon="9.7858261"><ele>344.8</ele><time>2026-03-28T15:24:46.665Z</time></trkpt><trkpt lat="44.7614603" lon="9.785733"><ele>345.4</ele><time>2026-03-28T15:24:48.665Z</time></trkpt><trkpt lat="44.7613996" lon="9.7857024"><ele>346.0</ele><time>2026-03-28T15:24:49.665Z</time></trkpt><trkpt lat="44.7613369" lon="9.7856889"><ele>346.0</ele><time>2026-03-28T15:24:50.665Z</time></trkpt><trkpt lat="44.7612731" lon="9.785682"><ele>346.0</ele><time>2026-03-28T15:24:51.664Z</time></trkpt><trkpt lat="44.761167" lon="9.7856443"><ele>346.0</ele><time>2026-03-28T15:24:53.665Z</time></trkpt><trkpt lat="44.761101" lon="9.7855738"><ele>346.0</ele><time>2026-03-28T15:24:55.665Z</time></trkpt><trkpt lat="44.7610452" lon="9.7854675"><ele>346.0</ele><time>2026-03-28T15:24:57.665Z</time></trkpt><trkpt lat="44.7609327" lon="9.7854396"><ele>344.16666666666663</ele><time>2026-03-28T15:24:59.665Z</time></trkpt><trkpt lat="44.76085" lon="9.785451"><ele>342.3333333333333</ele><time>2026-03-28T15:25:00.665Z</time></trkpt><trkpt lat="44.7607653" lon="9.785459"><ele>340.5</ele><time>2026-03-28T15:25:01.665Z</time></trkpt><trkpt lat="44.7606831" lon="9.7854523"><ele>338.6666666666667</ele><time>2026-03-28T15:25:02.666Z</time></trkpt><trkpt lat="44.7605965" lon="9.7854267"><ele>336.83333333333337</ele><time>2026-03-28T15:25:03.665Z</time></trkpt><trkpt lat="44.7605119" lon="9.7853943"><ele>335.0</ele><time>2026-03-28T15:25:04.665Z</time></trkpt><trkpt lat="44.7604336" lon="9.7853565"><ele>335.0</ele><time>2026-03-28T15:25:05.665Z</time></trkpt><trkpt lat="44.7603639" lon="9.7853104"><ele>335.0</ele><time>2026-03-28T15:25:06.664Z</time></trkpt><trkpt lat="44.7603029" lon="9.7852474"><ele>335.0</ele><time>2026-03-28T15:25:07.665Z</time></trkpt><trkpt lat="44.7602475" lon="9.7851715"><ele>335.0</ele><time>2026-03-28T15:25:08.666Z</time></trkpt><trkpt lat="44.7602002" lon="9.7850865"><ele>335.0</ele><time>2026-03-28T15:25:09.665Z</time></trkpt><trkpt lat="44.7601675" lon="9.7849946"><ele>335.0</ele><time>2026-03-28T15:25:10.664Z</time></trkpt><trkpt lat="44.7601449" lon="9.784894"><ele>335.83333333333337</ele><time>2026-03-28T15:25:11.665Z</time></trkpt><trkpt lat="44.760134" lon="9.7847958"><ele>336.6666666666667</ele><time>2026-03-28T15:25:12.665Z</time></trkpt><trkpt lat="44.7601277" lon="9.7846977"><ele>337.5</ele><time>2026-03-28T15:25:13.664Z</time></trkpt><trkpt lat="44.7601258" lon="9.7846042"><ele>338.3333333333333</ele><time>2026-03-28T15:25:14.666Z</time></trkpt><trkpt lat="44.760159" lon="9.7844607"><ele>339.16666666666663</ele><time>2026-03-28T15:25:16.666Z</time></trkpt><trkpt lat="44.7602216" lon="9.7843568"><ele>340.0</ele><time>2026-03-28T15:25:18.666Z</time></trkpt><trkpt lat="44.760244" lon="9.7842485"><ele>341.3333333333333</ele><time>2026-03-28T15:25:20.665Z</time></trkpt><trkpt lat="44.7601974" lon="9.7841641"><ele>342.66666666666663</ele><time>2026-03-28T15:25:22.666Z</time></trkpt><trkpt lat="44.7600939" lon="9.784088"><ele>344.0</ele><time>2026-03-28T15:25:24.665Z</time></trkpt><trkpt lat="44.7600295" lon="9.7840699"><ele>345.3333333333333</ele><time>2026-03-28T15:25:25.665Z</time></trkpt><trkpt lat="44.7599601" lon="9.784068"><ele>346.6666666666667</ele><time>2026-03-28T15:25:26.664Z</time></trkpt><trkpt lat="44.7598965" lon="9.7840487"><ele>348.0</ele><time>2026-03-28T15:25:27.665Z</time></trkpt><trkpt lat="44.759784" lon="9.7839886"><ele>348.0</ele><time>2026-03-28T15:25:29.665Z</time></trkpt><trkpt lat="44.7596874" lon="9.7838846"><ele>348.0</ele><time>2026-03-28T15:25:31.665Z</time></trkpt><trkpt lat="44.7596488" lon="9.7838118"><ele>348.0</ele><time>2026-03-28T15:25:32.667Z</time></trkpt><trkpt lat="44.7596039" lon="9.7836603"><ele>348.0</ele><time>2026-03-28T15:25:34.665Z</time></trkpt><trkpt lat="44.759567" lon="9.7835412"><ele>348.0</ele><time>2026-03-28T15:25:36.666Z</time></trkpt><trkpt lat="44.7594777" lon="9.7834608"><ele>347.2857142857143</ele><time>2026-03-28T15:25:38.665Z</time></trkpt><trkpt lat="44.7594217" lon="9.7834144"><ele>346.57142857142856</ele><time>2026-03-28T15:25:39.665Z</time></trkpt><trkpt lat="44.7593667" lon="9.7833552"><ele>345.8571428571429</ele><time>2026-03-28T15:25:40.665Z</time></trkpt><trkpt lat="44.7593083" lon="9.7832926"><ele>345.1428571428571</ele><time>2026-03-28T15:25:41.665Z</time></trkpt><trkpt lat="44.7592453" lon="9.7832361"><ele>344.42857142857144</ele><time>2026-03-28T15:25:42.664Z</time></trkpt><trkpt lat="44.7591783" lon="9.783205"><ele>343.7142857142857</ele><time>2026-03-28T15:25:43.666Z</time></trkpt><trkpt lat="44.7591133" lon="9.78317"><ele>343.0</ele><time>2026-03-28T15:25:44.665Z</time></trkpt><trkpt lat="44.759045" lon="9.783155"><ele>343.0</ele><time>2026-03-28T15:25:45.666Z</time></trkpt><trkpt lat="44.7589233" lon="9.7831483"><ele>343.0</ele><time>2026-03-28T15:25:47.666Z</time></trkpt><trkpt lat="44.7588567" lon="9.783145"><ele>343.0</ele><time>2026-03-28T15:25:48.665Z</time></trkpt><trkpt lat="44.7587867" lon="9.7831333"><ele>343.0</ele><time>2026-03-28T15:25:49.664Z</time></trkpt><trkpt lat="44.758715" lon="9.7831183"><ele>343.0</ele><time>2026-03-28T15:25:50.666Z</time></trkpt><trkpt lat="44.7586517" lon="9.7830933"><ele>343.0</ele><time>2026-03-28T15:25:51.665Z</time></trkpt><trkpt lat="44.7585917" lon="9.7830567"><ele>343.0</ele><time>2026-03-28T15:25:52.664Z</time></trkpt><trkpt lat="44.758535" lon="9.783"><ele>343.0</ele><time>2026-03-28T15:25:53.666Z</time></trkpt><trkpt lat="44.7584783" lon="9.78293"><ele>343.0</ele><time>2026-03-28T15:25:54.664Z</time></trkpt><trkpt lat="44.7584117" lon="9.782845"><ele>343.0</ele><time>2026-03-28T15:25:55.665Z</time></trkpt><trkpt lat="44.7583467" lon="9.782755"><ele>343.0</ele><time>2026-03-28T15:25:56.666Z</time></trkpt><trkpt lat="44.758285" lon="9.7826733"><ele>343.0</ele><time>2026-03-28T15:25:57.665Z</time></trkpt><trkpt lat="44.758235" lon="9.7825917"><ele>344.0</ele><time>2026-03-28T15:25:58.665Z</time></trkpt><trkpt lat="44.7581883" lon="9.7825083"><ele>345.0</ele><time>2026-03-28T15:25:59.666Z</time></trkpt><trkpt lat="44.7581433" lon="9.78242"><ele>346.0</ele><time>2026-03-28T15:26:00.665Z</time></trkpt><trkpt lat="44.7581017" lon="9.7823117"><ele>347.0</ele><time>2026-03-28T15:26:01.666Z</time></trkpt><trkpt lat="44.75807" lon="9.7821967"><ele>348.0</ele><time>2026-03-28T15:26:02.665Z</time></trkpt><trkpt lat="44.75804" lon="9.7820717"><ele>349.0</ele><time>2026-03-28T15:26:03.665Z</time></trkpt><trkpt lat="44.758015" lon="9.7819483"><ele>349.0</ele><time>2026-03-28T15:26:04.664Z</time></trkpt><trkpt lat="44.7579883" lon="9.78185"><ele>349.0</ele><time>2026-03-28T15:26:05.664Z</time></trkpt><trkpt lat="44.757955" lon="9.78173"><ele>349.0</ele><time>2026-03-28T15:26:06.664Z</time></trkpt><trkpt lat="44.7579217" lon="9.7816133"><ele>349.0</ele><time>2026-03-28T15:26:07.664Z</time></trkpt><trkpt lat="44.7578817" lon="9.781495"><ele>349.0</ele><time>2026-03-28T15:26:08.665Z</time></trkpt><trkpt lat="44.757845" lon="9.781365"><ele>349.0</ele><time>2026-03-28T15:26:09.664Z</time></trkpt><trkpt lat="44.75781" lon="9.78123"><ele>350.6</ele><time>2026-03-28T15:26:10.665Z</time></trkpt><trkpt lat="44.7577783" lon="9.7810917"><ele>352.2</ele><time>2026-03-28T15:26:11.666Z</time></trkpt><trkpt lat="44.75775" lon="9.7809517"><ele>353.8</ele><time>2026-03-28T15:26:12.665Z</time></trkpt><trkpt lat="44.7577233" lon="9.7808233"><ele>355.40000000000003</ele><time>2026-03-28T15:26:13.664Z</time></trkpt><trkpt lat="44.7577" lon="9.780705"><ele>357.0</ele><time>2026-03-28T15:26:14.666Z</time></trkpt><trkpt lat="44.7576883" lon="9.78059"><ele>353.6</ele><time>2026-03-28T15:26:15.665Z</time></trkpt><trkpt lat="44.75768" lon="9.78047"><ele>350.20000000000005</ele><time>2026-03-28T15:26:16.665Z</time></trkpt><trkpt lat="44.7576767" lon="9.780335"><ele>346.8</ele><time>2026-03-28T15:26:17.666Z</time></trkpt><trkpt lat="44.7576617" lon="9.7801833"><ele>343.4</ele><time>2026-03-28T15:26:18.666Z</time></trkpt><trkpt lat="44.757645" lon="9.78003"><ele>340.0</ele><time>2026-03-28T15:26:19.665Z</time></trkpt><trkpt lat="44.757635" lon="9.7798833"><ele>340.0</ele><time>2026-03-28T15:26:20.666Z</time></trkpt><trkpt lat="44.7576267" lon="9.779755"><ele>340.0</ele><time>2026-03-28T15:26:21.665Z</time></trkpt><trkpt lat="44.7576217" lon="9.7796417"><ele>340.0</ele><time>2026-03-28T15:26:22.665Z</time></trkpt><trkpt lat="44.7576267" lon="9.7795483"><ele>340.0</ele><time>2026-03-28T15:26:23.664Z</time></trkpt><trkpt lat="44.7576483" lon="9.7794567"><ele>340.0</ele><time>2026-03-28T15:26:24.666Z</time></trkpt><trkpt lat="44.7576817" lon="9.779365"><ele>340.0</ele><time>2026-03-28T15:26:25.666Z</time></trkpt><trkpt lat="44.7577317" lon="9.7792783"><ele>342.5</ele><time>2026-03-28T15:26:26.665Z</time></trkpt><trkpt lat="44.757775" lon="9.7792017"><ele>345.0</ele><time>2026-03-28T15:26:27.664Z</time></trkpt><trkpt lat="44.7578267" lon="9.77911"><ele>347.5</ele><time>2026-03-28T15:26:29.665Z</time></trkpt><trkpt lat="44.757875" lon="9.7789883"><ele>350.0</ele><time>2026-03-28T15:26:31.665Z</time></trkpt><trkpt lat="44.7579083" lon="9.7788983"><ele>352.5</ele><time>2026-03-28T15:26:32.665Z</time></trkpt><trkpt lat="44.75794" lon="9.7787867"><ele>355.0</ele><time>2026-03-28T15:26:33.665Z</time></trkpt><trkpt lat="44.757975" lon="9.77866"><ele>355.0</ele><time>2026-03-28T15:26:34.665Z</time></trkpt><trkpt lat="44.7580067" lon="9.7785183"><ele>355.0</ele><time>2026-03-28T15:26:35.666Z</time></trkpt><trkpt lat="44.75803" lon="9.7783783"><ele>355.0</ele><time>2026-03-28T15:26:36.665Z</time></trkpt><trkpt lat="44.758045" lon="9.7782467"><ele>355.0</ele><time>2026-03-28T15:26:37.665Z</time></trkpt><trkpt lat="44.7580567" lon="9.7781333"><ele>355.0</ele><time>2026-03-28T15:26:38.664Z</time></trkpt><trkpt lat="44.7580667" lon="9.77804"><ele>355.0</ele><time>2026-03-28T15:26:39.665Z</time></trkpt><trkpt lat="44.758075" lon="9.7778833"><ele>355.0</ele><time>2026-03-28T15:26:41.665Z</time></trkpt><trkpt lat="44.7580433" lon="9.7777717"><ele>355.0</ele><time>2026-03-28T15:26:43.665Z</time></trkpt><trkpt lat="44.75793" lon="9.7777083"><ele>355.0</ele><time>2026-03-28T15:26:45.665Z</time></trkpt><trkpt lat="44.7578417" lon="9.77762"><ele>355.0</ele><time>2026-03-28T15:26:47.664Z</time></trkpt><trkpt lat="44.7577283" lon="9.7775633"><ele>354.8</ele><time>2026-03-28T15:26:49.664Z</time></trkpt><trkpt lat="44.7576283" lon="9.7775583"><ele>354.6</ele><time>2026-03-28T15:26:51.665Z</time></trkpt><trkpt lat="44.7575367" lon="9.77766"><ele>354.4</ele><time>2026-03-28T15:26:53.666Z</time></trkpt><trkpt lat="44.7574717" lon="9.77772"><ele>354.2</ele><time>2026-03-28T15:26:54.665Z</time></trkpt><trkpt lat="44.7574033" lon="9.777775"><ele>354.0</ele><time>2026-03-28T15:26:55.666Z</time></trkpt><trkpt lat="44.75733" lon="9.7778217"><ele>354.0</ele><time>2026-03-28T15:26:56.666Z</time></trkpt><trkpt lat="44.7572583" lon="9.7778417"><ele>354.0</ele><time>2026-03-28T15:26:57.665Z</time></trkpt><trkpt lat="44.7571917" lon="9.777835"><ele>354.0</ele><time>2026-03-28T15:26:58.666Z</time></trkpt><trkpt lat="44.7570933" lon="9.7777133"><ele>354.0</ele><time>2026-03-28T15:27:00.665Z</time></trkpt><trkpt lat="44.7570583" lon="9.7776117"><ele>354.0</ele><time>2026-03-28T15:27:01.667Z</time></trkpt><trkpt lat="44.7570333" lon="9.777485"><ele>354.0</ele><time>2026-03-28T15:27:02.665Z</time></trkpt><trkpt lat="44.757025" lon="9.7773483"><ele>354.0</ele><time>2026-03-28T15:27:03.664Z</time></trkpt><trkpt lat="44.7570217" lon="9.7772083"><ele>354.0</ele><time>2026-03-28T15:27:04.665Z</time></trkpt><trkpt lat="44.7570217" lon="9.7770567"><ele>354.0</ele><time>2026-03-28T15:27:05.666Z</time></trkpt><trkpt lat="44.7570233" lon="9.7769167"><ele>354.0</ele><time>2026-03-28T15:27:06.665Z</time></trkpt><trkpt lat="44.7570283" lon="9.776785"><ele>354.0</ele><time>2026-03-28T15:27:07.665Z</time></trkpt><trkpt lat="44.7570333" lon="9.7766617"><ele>355.3333333333333</ele><time>2026-03-28T15:27:08.666Z</time></trkpt><trkpt lat="44.757025" lon="9.7765467"><ele>356.6666666666667</ele><time>2026-03-28T15:27:09.664Z</time></trkpt><trkpt lat="44.7569933" lon="9.776425"><ele>358.0</ele><time>2026-03-28T15:27:10.666Z</time></trkpt><trkpt lat="44.7569567" lon="9.776315"><ele>359.33333333333337</ele><time>2026-03-28T15:27:11.665Z</time></trkpt><trkpt lat="44.7569217" lon="9.7762033"><ele>360.6666666666667</ele><time>2026-03-28T15:27:12.664Z</time></trkpt><trkpt lat="44.75689" lon="9.776085"><ele>362.0</ele><time>2026-03-28T15:27:13.665Z</time></trkpt><trkpt lat="44.7568617" lon="9.7759567"><ele>364.20000000000005</ele><time>2026-03-28T15:27:14.665Z</time></trkpt><trkpt lat="44.756845" lon="9.7758133"><ele>366.4</ele><time>2026-03-28T15:27:15.665Z</time></trkpt><trkpt lat="44.7568383" lon="9.7756833"><ele>368.6</ele><time>2026-03-28T15:27:16.666Z</time></trkpt><trkpt lat="44.75683" lon="9.77556"><ele>370.79999999999995</ele><time>2026-03-28T15:27:17.665Z</time></trkpt><trkpt lat="44.756815" lon="9.7754317"><ele>373.0</ele><time>2026-03-28T15:27:18.664Z</time></trkpt><trkpt lat="44.7567983" lon="9.7753083"><ele>373.0</ele><time>2026-03-28T15:27:19.665Z</time></trkpt><trkpt lat="44.756785" lon="9.7752167"><ele>373.0</ele><time>2026-03-28T15:27:20.666Z</time></trkpt><trkpt lat="44.7567433" lon="9.77514"><ele>373.0</ele><time>2026-03-28T15:27:22.665Z</time></trkpt><trkpt lat="44.7566767" lon="9.775195"><ele>373.0</ele><time>2026-03-28T15:27:24.665Z</time></trkpt><trkpt lat="44.756625" lon="9.7752517"><ele>373.0</ele><time>2026-03-28T15:27:25.666Z</time></trkpt><trkpt lat="44.756555" lon="9.7753033"><ele>373.0</ele><time>2026-03-28T15:27:26.666Z</time></trkpt><trkpt lat="44.7564717" lon="9.7753333"><ele>373.0</ele><time>2026-03-28T15:27:27.664Z</time></trkpt><trkpt lat="44.7563767" lon="9.7753317"><ele>373.0</ele><time>2026-03-28T15:27:28.665Z</time></trkpt><trkpt lat="44.7562817" lon="9.7753233"><ele>373.0</ele><time>2026-03-28T15:27:29.667Z</time></trkpt><trkpt lat="44.7561867" lon="9.7753117"><ele>373.0</ele><time>2026-03-28T15:27:30.665Z</time></trkpt><trkpt lat="44.7560917" lon="9.775305"><ele>373.0</ele><time>2026-03-28T15:27:31.665Z</time></trkpt><trkpt lat="44.7559967" lon="9.7753133"><ele>373.0</ele><time>2026-03-28T15:27:32.666Z</time></trkpt><trkpt lat="44.7559033" lon="9.7753333"><ele>372.2</ele><time>2026-03-28T15:27:33.666Z</time></trkpt><trkpt lat="44.7558083" lon="9.7753683"><ele>371.4</ele><time>2026-03-28T15:27:34.665Z</time></trkpt><trkpt lat="44.755715" lon="9.7754083"><ele>370.59999999999997</ele><time>2026-03-28T15:27:35.665Z</time></trkpt><trkpt lat="44.75562" lon="9.7754517"><ele>369.79999999999995</ele><time>2026-03-28T15:27:36.665Z</time></trkpt><trkpt lat="44.7555267" lon="9.7755017"><ele>369.0</ele><time>2026-03-28T15:27:37.665Z</time></trkpt><trkpt lat="44.7554333" lon="9.7755533"><ele>369.0</ele><time>2026-03-28T15:27:38.665Z</time></trkpt><trkpt lat="44.7553383" lon="9.7756"><ele>369.0</ele><time>2026-03-28T15:27:39.665Z</time></trkpt><trkpt lat="44.7552433" lon="9.7756333"><ele>369.0</ele><time>2026-03-28T15:27:40.666Z</time></trkpt><trkpt lat="44.7551467" lon="9.7756483"><ele>369.0</ele><time>2026-03-28T15:27:41.665Z</time></trkpt><trkpt lat="44.7550483" lon="9.7756417"><ele>369.0</ele><time>2026-03-28T15:27:42.664Z</time></trkpt><trkpt lat="44.7549533" lon="9.7756167"><ele>368.4</ele><time>2026-03-28T15:27:43.666Z</time></trkpt><trkpt lat="44.75486" lon="9.7755917"><ele>367.79999999999995</ele><time>2026-03-28T15:27:44.666Z</time></trkpt><trkpt lat="44.7547617" lon="9.77557"><ele>367.20000000000005</ele><time>2026-03-28T15:27:45.665Z</time></trkpt><trkpt lat="44.7546567" lon="9.7755683"><ele>366.6</ele><time>2026-03-28T15:27:46.665Z</time></trkpt><trkpt lat="44.754545" lon="9.77558"><ele>366.0</ele><time>2026-03-28T15:27:47.665Z</time></trkpt><trkpt lat="44.7544283" lon="9.7755883"><ele>364.0</ele><time>2026-03-28T15:27:48.664Z</time></trkpt><trkpt lat="44.7543083" lon="9.77558"><ele>362.0</ele><time>2026-03-28T15:27:49.664Z</time></trkpt><trkpt lat="44.7541917" lon="9.77555"><ele>360.0</ele><time>2026-03-28T15:27:50.666Z</time></trkpt><trkpt lat="44.7540833" lon="9.7754983"><ele>358.0</ele><time>2026-03-28T15:27:51.664Z</time></trkpt><trkpt lat="44.7539817" lon="9.775435"><ele>358.0</ele><time>2026-03-28T15:27:52.665Z</time></trkpt><trkpt lat="44.7538783" lon="9.7753783"><ele>358.0</ele><time>2026-03-28T15:27:53.665Z</time></trkpt><trkpt lat="44.7537733" lon="9.775335"><ele>358.0</ele><time>2026-03-28T15:27:54.665Z</time></trkpt><trkpt lat="44.753665" lon="9.7752967"><ele>358.0</ele><time>2026-03-28T15:27:55.665Z</time></trkpt><trkpt lat="44.7535583" lon="9.77526"><ele>358.0</ele><time>2026-03-28T15:27:56.666Z</time></trkpt><trkpt lat="44.7534533" lon="9.775225"><ele>358.59999999999997</ele><time>2026-03-28T15:27:57.665Z</time></trkpt><trkpt lat="44.753355" lon="9.77519"><ele>359.2</ele><time>2026-03-28T15:27:58.665Z</time></trkpt><trkpt lat="44.75326" lon="9.7751483"><ele>359.8</ele><time>2026-03-28T15:27:59.665Z</time></trkpt><trkpt lat="44.753165" lon="9.7750967"><ele>360.4</ele><time>2026-03-28T15:28:00.666Z</time></trkpt><trkpt lat="44.7530683" lon="9.775035"><ele>361.0</ele><time>2026-03-28T15:28:01.665Z</time></trkpt><trkpt lat="44.7529733" lon="9.7749617"><ele>361.0</ele><time>2026-03-28T15:28:02.665Z</time></trkpt><trkpt lat="44.752885" lon="9.774885"><ele>361.0</ele><time>2026-03-28T15:28:03.665Z</time></trkpt><trkpt lat="44.7528067" lon="9.7748033"><ele>361.0</ele><time>2026-03-28T15:28:04.665Z</time></trkpt><trkpt lat="44.7527417" lon="9.77471"><ele>361.0</ele><time>2026-03-28T15:28:05.666Z</time></trkpt><trkpt lat="44.7526917" lon="9.7746083"><ele>361.0</ele><time>2026-03-28T15:28:06.665Z</time></trkpt><trkpt lat="44.7526617" lon="9.7744867"><ele>359.16666666666663</ele><time>2026-03-28T15:28:07.664Z</time></trkpt><trkpt lat="44.7526583" lon="9.77436"><ele>357.3333333333333</ele><time>2026-03-28T15:28:08.667Z</time></trkpt><trkpt lat="44.7526633" lon="9.77424"><ele>355.5</ele><time>2026-03-28T15:28:09.665Z</time></trkpt><trkpt lat="44.7526617" lon="9.7741317"><ele>353.6666666666667</ele><time>2026-03-28T15:28:10.666Z</time></trkpt><trkpt lat="44.75264" lon="9.7740483"><ele>351.83333333333337</ele><time>2026-03-28T15:28:11.665Z</time></trkpt><trkpt lat="44.75258" lon="9.7739583"><ele>350.0</ele><time>2026-03-28T15:28:13.665Z</time></trkpt><trkpt lat="44.75251" lon="9.7740067"><ele>350.0</ele><time>2026-03-28T15:28:16.665Z</time></trkpt><trkpt lat="44.7524783" lon="9.774175"><ele>350.0</ele><time>2026-03-28T15:28:18.667Z</time></trkpt><trkpt lat="44.7524633" lon="9.7743"><ele>350.0</ele><time>2026-03-28T15:28:19.666Z</time></trkpt><trkpt lat="44.7524483" lon="9.77445"><ele>350.0</ele><time>2026-03-28T15:28:20.666Z</time></trkpt><trkpt lat="44.7524367" lon="9.7746"><ele>350.0</ele><time>2026-03-28T15:28:21.667Z</time></trkpt><trkpt lat="44.7524233" lon="9.774745"><ele>349.8</ele><time>2026-03-28T15:28:22.666Z</time></trkpt><trkpt lat="44.7524117" lon="9.774885"><ele>349.6</ele><time>2026-03-28T15:28:23.666Z</time></trkpt><trkpt lat="44.7523983" lon="9.7750217"><ele>349.4</ele><time>2026-03-28T15:28:24.667Z</time></trkpt><trkpt lat="44.7523767" lon="9.7751533"><ele>349.2</ele><time>2026-03-28T15:28:25.666Z</time></trkpt><trkpt lat="44.7523433" lon="9.7752733"><ele>349.0</ele><time>2026-03-28T15:28:26.666Z</time></trkpt><trkpt lat="44.7522967" lon="9.7753817"><ele>348.6</ele><time>2026-03-28T15:28:27.667Z</time></trkpt><trkpt lat="44.752235" lon="9.7754783"><ele>348.2</ele><time>2026-03-28T15:28:28.666Z</time></trkpt><trkpt lat="44.7521633" lon="9.77556"><ele>347.8</ele><time>2026-03-28T15:28:29.666Z</time></trkpt><trkpt lat="44.7520867" lon="9.7756367"><ele>347.40000000000003</ele><time>2026-03-28T15:28:30.666Z</time></trkpt><trkpt lat="44.7520083" lon="9.7757167"><ele>347.0</ele><time>2026-03-28T15:28:31.664Z</time></trkpt><trkpt lat="44.7519383" lon="9.7758"><ele>347.0</ele><time>2026-03-28T15:28:32.666Z</time></trkpt><trkpt lat="44.7518783" lon="9.7758883"><ele>347.0</ele><time>2026-03-28T15:28:33.666Z</time></trkpt><trkpt lat="44.751835" lon="9.7759933"><ele>347.0</ele><time>2026-03-28T15:28:34.665Z</time></trkpt><trkpt lat="44.7518017" lon="9.7761"><ele>347.0</ele><time>2026-03-28T15:28:35.664Z</time></trkpt><trkpt lat="44.7517967" lon="9.7762283"><ele>347.0</ele><time>2026-03-28T15:28:36.664Z</time></trkpt><trkpt lat="44.75181" lon="9.7763617"><ele>347.0</ele><time>2026-03-28T15:28:37.665Z</time></trkpt><trkpt lat="44.7518483" lon="9.7764917"><ele>345.6666666666667</ele><time>2026-03-28T15:28:38.665Z</time></trkpt><trkpt lat="44.7519317" lon="9.7766"><ele>344.3333333333333</ele><time>2026-03-28T15:28:39.664Z</time></trkpt><trkpt lat="44.7521333" lon="9.776805"><ele>343.0</ele><time>2026-03-28T15:28:41.666Z</time></trkpt><trkpt lat="44.7522333" lon="9.776915"><ele>345.0</ele><time>2026-03-28T15:28:42.665Z</time></trkpt><trkpt lat="44.752335" lon="9.7770267"><ele>347.0</ele><time>2026-03-28T15:28:43.666Z</time></trkpt><trkpt lat="44.7524367" lon="9.7771383"><ele>349.0</ele><time>2026-03-28T15:28:44.666Z</time></trkpt><trkpt lat="44.752535" lon="9.7772517"><ele>351.0</ele><time>2026-03-28T15:28:45.665Z</time></trkpt><trkpt lat="44.7526283" lon="9.7773633"><ele>350.25</ele><time>2026-03-28T15:28:46.665Z</time></trkpt><trkpt lat="44.752715" lon="9.7774783"><ele>349.5</ele><time>2026-03-28T15:28:47.666Z</time></trkpt><trkpt lat="44.7527967" lon="9.7775983"><ele>348.75</ele><time>2026-03-28T15:28:48.664Z</time></trkpt><trkpt lat="44.7528767" lon="9.7777267"><ele>348.0</ele><time>2026-03-28T15:28:49.67Z</time></trkpt><trkpt lat="44.7529617" lon="9.777865"><ele>348.0</ele><time>2026-03-28T15:28:50.666Z</time></trkpt><trkpt lat="44.7530483" lon="9.7780083"><ele>348.0</ele><time>2026-03-28T15:28:51.665Z</time></trkpt><trkpt lat="44.7531333" lon="9.7781517"><ele>348.0</ele><time>2026-03-28T15:28:52.666Z</time></trkpt><trkpt lat="44.7532233" lon="9.7783017"><ele>348.0</ele><time>2026-03-28T15:28:53.668Z</time></trkpt><trkpt lat="44.7533183" lon="9.778445"><ele>347.5</ele><time>2026-03-28T15:28:54.666Z</time></trkpt><trkpt lat="44.7534167" lon="9.7785867"><ele>347.0</ele><time>2026-03-28T15:28:55.666Z</time></trkpt><trkpt lat="44.7535267" lon="9.778715"><ele>346.5</ele><time>2026-03-28T15:28:56.665Z</time></trkpt><trkpt lat="44.753645" lon="9.7788283"><ele>346.0</ele><time>2026-03-28T15:28:57.665Z</time></trkpt><trkpt lat="44.7537717" lon="9.7789383"><ele>346.0</ele><time>2026-03-28T15:28:58.665Z</time></trkpt><trkpt lat="44.7539" lon="9.7790483"><ele>346.0</ele><time>2026-03-28T15:28:59.666Z</time></trkpt><trkpt lat="44.7540267" lon="9.7791567"><ele>346.0</ele><time>2026-03-28T15:29:00.665Z</time></trkpt><trkpt lat="44.754155" lon="9.7792667"><ele>346.0</ele><time>2026-03-28T15:29:01.666Z</time></trkpt><trkpt lat="44.75428" lon="9.7793783"><ele>345.25</ele><time>2026-03-28T15:29:02.666Z</time></trkpt><trkpt lat="44.7544017" lon="9.7794967"><ele>344.5</ele><time>2026-03-28T15:29:03.666Z</time></trkpt><trkpt lat="44.7545133" lon="9.7796283"><ele>343.75</ele><time>2026-03-28T15:29:04.666Z</time></trkpt><trkpt lat="44.7546167" lon="9.779775"><ele>343.0</ele><time>2026-03-28T15:29:05.665Z</time></trkpt><trkpt lat="44.754715" lon="9.7799283"><ele>343.0</ele><time>2026-03-28T15:29:06.665Z</time></trkpt><trkpt lat="44.75481" lon="9.7800867"><ele>343.0</ele><time>2026-03-28T15:29:07.665Z</time></trkpt><trkpt lat="44.754905" lon="9.780245"><ele>343.0</ele><time>2026-03-28T15:29:08.667Z</time></trkpt><trkpt lat="44.7549983" lon="9.7804"><ele>343.0</ele><time>2026-03-28T15:29:09.665Z</time></trkpt><trkpt lat="44.7550933" lon="9.78055"><ele>342.0</ele><time>2026-03-28T15:29:10.668Z</time></trkpt><trkpt lat="44.755185" lon="9.780705"><ele>341.0</ele><time>2026-03-28T15:29:11.665Z</time></trkpt><trkpt lat="44.7552667" lon="9.7808633"><ele>340.0</ele><time>2026-03-28T15:29:12.668Z</time></trkpt><trkpt lat="44.755335" lon="9.7810317"><ele>339.0</ele><time>2026-03-28T15:29:13.666Z</time></trkpt><trkpt lat="44.7553817" lon="9.7812117"><ele>339.0</ele><time>2026-03-28T15:29:14.667Z</time></trkpt><trkpt lat="44.7554067" lon="9.7813967"><ele>339.0</ele><time>2026-03-28T15:29:15.667Z</time></trkpt><trkpt lat="44.755415" lon="9.7815883"><ele>339.0</ele><time>2026-03-28T15:29:16.667Z</time></trkpt><trkpt lat="44.7554217" lon="9.7817833"><ele>339.0</ele><time>2026-03-28T15:29:17.667Z</time></trkpt><trkpt lat="44.7554283" lon="9.7819833"><ele>340.0</ele><time>2026-03-28T15:29:18.666Z</time></trkpt><trkpt lat="44.7554383" lon="9.782185"><ele>341.0</ele><time>2026-03-28T15:29:19.667Z</time></trkpt><trkpt lat="44.7554533" lon="9.7823867"><ele>342.0</ele><time>2026-03-28T15:29:20.666Z</time></trkpt><trkpt lat="44.7554767" lon="9.78258"><ele>343.0</ele><time>2026-03-28T15:29:21.666Z</time></trkpt><trkpt lat="44.7555183" lon="9.782765"><ele>344.0</ele><time>2026-03-28T15:29:22.665Z</time></trkpt><trkpt lat="44.755575" lon="9.782945"><ele>345.0</ele><time>2026-03-28T15:29:23.666Z</time></trkpt><trkpt lat="44.7556417" lon="9.7831167"><ele>346.0</ele><time>2026-03-28T15:29:24.666Z</time></trkpt><trkpt lat="44.7557117" lon="9.7832817"><ele>347.0</ele><time>2026-03-28T15:29:25.666Z</time></trkpt><trkpt lat="44.7557817" lon="9.78345"><ele>348.25</ele><time>2026-03-28T15:29:26.667Z</time></trkpt><trkpt lat="44.755855" lon="9.78362"><ele>349.5</ele><time>2026-03-28T15:29:27.667Z</time></trkpt><trkpt lat="44.7559283" lon="9.7837933"><ele>350.75</ele><time>2026-03-28T15:29:28.667Z</time></trkpt><trkpt lat="44.7560067" lon="9.783965"><ele>352.0</ele><time>2026-03-28T15:29:29.666Z</time></trkpt><trkpt lat="44.7560917" lon="9.7841333"><ele>351.25</ele><time>2026-03-28T15:29:30.667Z</time></trkpt><trkpt lat="44.756185" lon="9.784295"><ele>350.5</ele><time>2026-03-28T15:29:31.665Z</time></trkpt><trkpt lat="44.756285" lon="9.78445"><ele>349.75</ele><time>2026-03-28T15:29:32.666Z</time></trkpt><trkpt lat="44.75639" lon="9.7845933"><ele>349.0</ele><time>2026-03-28T15:29:33.665Z</time></trkpt><trkpt lat="44.7565017" lon="9.7847317"><ele>349.0</ele><time>2026-03-28T15:29:34.665Z</time></trkpt><trkpt lat="44.7566133" lon="9.7848633"><ele>349.0</ele><time>2026-03-28T15:29:35.666Z</time></trkpt><trkpt lat="44.7567283" lon="9.7849917"><ele>349.0</ele><time>2026-03-28T15:29:36.664Z</time></trkpt><trkpt lat="44.7568483" lon="9.7851117"><ele>349.0</ele><time>2026-03-28T15:29:37.665Z</time></trkpt><trkpt lat="44.7569717" lon="9.7852283"><ele>349.5</ele><time>2026-03-28T15:29:38.665Z</time></trkpt><trkpt lat="44.7570967" lon="9.785335"><ele>350.0</ele><time>2026-03-28T15:29:39.664Z</time></trkpt><trkpt lat="44.75723" lon="9.78543"><ele>350.5</ele><time>2026-03-28T15:29:40.667Z</time></trkpt><trkpt lat="44.75737" lon="9.7855033"><ele>351.0</ele><time>2026-03-28T15:29:41.668Z</time></trkpt><trkpt lat="44.757515" lon="9.7855567"><ele>351.0</ele><time>2026-03-28T15:29:42.668Z</time></trkpt><trkpt lat="44.7576583" lon="9.7855967"><ele>351.0</ele><time>2026-03-28T15:29:43.667Z</time></trkpt><trkpt lat="44.757805" lon="9.7856317"><ele>351.0</ele><time>2026-03-28T15:29:44.668Z</time></trkpt><trkpt lat="44.7579467" lon="9.785675"><ele>351.0</ele><time>2026-03-28T15:29:45.669Z</time></trkpt><trkpt lat="44.7580833" lon="9.785735"><ele>352.5</ele><time>2026-03-28T15:29:46.668Z</time></trkpt><trkpt lat="44.7582033" lon="9.78582"><ele>354.0</ele><time>2026-03-28T15:29:47.67Z</time></trkpt><trkpt lat="44.7583017" lon="9.78593"><ele>355.5</ele><time>2026-03-28T15:29:48.667Z</time></trkpt><trkpt lat="44.7583767" lon="9.7860617"><ele>357.0</ele><time>2026-03-28T15:29:49.667Z</time></trkpt><trkpt lat="44.75844" lon="9.78621"><ele>357.0</ele><time>2026-03-28T15:29:50.668Z</time></trkpt><trkpt lat="44.7584983" lon="9.7863767"><ele>357.0</ele><time>2026-03-28T15:29:51.669Z</time></trkpt><trkpt lat="44.7585567" lon="9.786545"><ele>357.0</ele><time>2026-03-28T15:29:52.667Z</time></trkpt><trkpt lat="44.758625" lon="9.7867117"><ele>357.0</ele><time>2026-03-28T15:29:53.674Z</time></trkpt><trkpt lat="44.75871" lon="9.7868633"><ele>355.5</ele><time>2026-03-28T15:29:54.668Z</time></trkpt><trkpt lat="44.7588117" lon="9.78699"><ele>354.0</ele><time>2026-03-28T15:29:55.668Z</time></trkpt><trkpt lat="44.758925" lon="9.7871017"><ele>352.5</ele><time>2026-03-28T15:29:56.669Z</time></trkpt><trkpt lat="44.7590483" lon="9.7872167"><ele>351.0</ele><time>2026-03-28T15:29:57.671Z</time></trkpt><trkpt lat="44.7591717" lon="9.7873317"><ele>351.0</ele><time>2026-03-28T15:29:58.67Z</time></trkpt><trkpt lat="44.7592933" lon="9.7874567"><ele>351.0</ele><time>2026-03-28T15:29:59.669Z</time></trkpt><trkpt lat="44.7594133" lon="9.787595"><ele>351.0</ele><time>2026-03-28T15:30:00.669Z</time></trkpt><trkpt lat="44.7595267" lon="9.7877417"><ele>350.0</ele><time>2026-03-28T15:30:01.669Z</time></trkpt><trkpt lat="44.7596383" lon="9.7878933"><ele>349.0</ele><time>2026-03-28T15:30:02.669Z</time></trkpt><trkpt lat="44.75975" lon="9.7880483"><ele>348.0</ele><time>2026-03-28T15:30:03.668Z</time></trkpt><trkpt lat="44.7598667" lon="9.7882017"><ele>348.0</ele><time>2026-03-28T15:30:04.668Z</time></trkpt><trkpt lat="44.7599883" lon="9.7883467"><ele>348.0</ele><time>2026-03-28T15:30:05.668Z</time></trkpt><trkpt lat="44.7601117" lon="9.788485"><ele>348.0</ele><time>2026-03-28T15:30:06.668Z</time></trkpt><trkpt lat="44.7602333" lon="9.78861"><ele>347.0</ele><time>2026-03-28T15:30:07.668Z</time></trkpt><trkpt lat="44.76035" lon="9.788725"><ele>346.0</ele><time>2026-03-28T15:30:08.669Z</time></trkpt><trkpt lat="44.76046" lon="9.78884"><ele>345.0</ele><time>2026-03-28T15:30:09.667Z</time></trkpt><trkpt lat="44.76057" lon="9.7889567"><ele>344.0</ele><time>2026-03-28T15:30:10.668Z</time></trkpt><trkpt lat="44.7606733" lon="9.7890767"><ele>344.0</ele><time>2026-03-28T15:30:11.667Z</time></trkpt><trkpt lat="44.7607667" lon="9.7892067"><ele>344.0</ele><time>2026-03-28T15:30:12.669Z</time></trkpt><trkpt lat="44.7608517" lon="9.7893533"><ele>344.0</ele><time>2026-03-28T15:30:13.668Z</time></trkpt><trkpt lat="44.7609283" lon="9.7895083"><ele>344.0</ele><time>2026-03-28T15:30:14.669Z</time></trkpt><trkpt lat="44.7610017" lon="9.7896733"><ele>343.0</ele><time>2026-03-28T15:30:15.667Z</time></trkpt><trkpt lat="44.7610733" lon="9.7898267"><ele>342.0</ele><time>2026-03-28T15:30:16.67Z</time></trkpt><trkpt lat="44.76114" lon="9.78997"><ele>341.0</ele><time>2026-03-28T15:30:17.668Z</time></trkpt><trkpt lat="44.7612" lon="9.790105"><ele>340.0</ele><time>2026-03-28T15:30:18.669Z</time></trkpt><trkpt lat="44.7612483" lon="9.7902417"><ele>340.0</ele><time>2026-03-28T15:30:19.668Z</time></trkpt><trkpt lat="44.7612867" lon="9.7903867"><ele>340.0</ele><time>2026-03-28T15:30:20.668Z</time></trkpt><trkpt lat="44.76131" lon="9.790555"><ele>340.0</ele><time>2026-03-28T15:30:21.668Z</time></trkpt><trkpt lat="44.7613067" lon="9.7907333"><ele>340.0</ele><time>2026-03-28T15:30:22.668Z</time></trkpt><trkpt lat="44.761285" lon="9.7909233"><ele>339.5</ele><time>2026-03-28T15:30:23.668Z</time></trkpt><trkpt lat="44.761245" lon="9.7911133"><ele>339.0</ele><time>2026-03-28T15:30:24.666Z</time></trkpt><trkpt lat="44.761195" lon="9.791295"><ele>338.5</ele><time>2026-03-28T15:30:25.667Z</time></trkpt><trkpt lat="44.76114" lon="9.7914567"><ele>338.0</ele><time>2026-03-28T15:30:26.667Z</time></trkpt><trkpt lat="44.761075" lon="9.7915983"><ele>340.25</ele><time>2026-03-28T15:30:27.666Z</time></trkpt><trkpt lat="44.7609933" lon="9.7917067"><ele>342.5</ele><time>2026-03-28T15:30:28.668Z</time></trkpt><trkpt lat="44.7608917" lon="9.791775"><ele>344.75</ele><time>2026-03-28T15:30:29.668Z</time></trkpt><trkpt lat="44.7607733" lon="9.7918117"><ele>347.0</ele><time>2026-03-28T15:30:30.668Z</time></trkpt><trkpt lat="44.7606517" lon="9.7918267"><ele>347.0</ele><time>2026-03-28T15:30:31.669Z</time></trkpt><trkpt lat="44.760535" lon="9.7918383"><ele>347.0</ele><time>2026-03-28T15:30:32.668Z</time></trkpt><trkpt lat="44.7604267" lon="9.79187"><ele>347.0</ele><time>2026-03-28T15:30:33.668Z</time></trkpt><trkpt lat="44.7603283" lon="9.7919383"><ele>347.0</ele><time>2026-03-28T15:30:34.668Z</time></trkpt><trkpt lat="44.76024" lon="9.79204"><ele>347.20000000000005</ele><time>2026-03-28T15:30:35.668Z</time></trkpt><trkpt lat="44.760175" lon="9.7921633"><ele>347.4</ele><time>2026-03-28T15:30:36.668Z</time></trkpt><trkpt lat="44.760135" lon="9.7922833"><ele>347.6</ele><time>2026-03-28T15:30:37.667Z</time></trkpt><trkpt lat="44.76012" lon="9.792435"><ele>347.79999999999995</ele><time>2026-03-28T15:30:38.669Z</time></trkpt><trkpt lat="44.760125" lon="9.7925933"><ele>348.0</ele><time>2026-03-28T15:30:39.668Z</time></trkpt><trkpt lat="44.7601533" lon="9.79275"><ele>346.75</ele><time>2026-03-28T15:30:40.668Z</time></trkpt><trkpt lat="44.7602133" lon="9.7928883"><ele>345.5</ele><time>2026-03-28T15:30:41.668Z</time></trkpt><trkpt lat="44.7602983" lon="9.7930083"><ele>344.25</ele><time>2026-03-28T15:30:42.667Z</time></trkpt><trkpt lat="44.7604" lon="9.7931233"><ele>343.0</ele><time>2026-03-28T15:30:43.668Z</time></trkpt><trkpt lat="44.7605133" lon="9.7932317"><ele>343.0</ele><time>2026-03-28T15:30:44.669Z</time></trkpt><trkpt lat="44.7606333" lon="9.7933383"><ele>343.0</ele><time>2026-03-28T15:30:45.669Z</time></trkpt><trkpt lat="44.7607533" lon="9.79344"><ele>343.0</ele><time>2026-03-28T15:30:46.668Z</time></trkpt><trkpt lat="44.7608717" lon="9.793535"><ele>343.0</ele><time>2026-03-28T15:30:47.669Z</time></trkpt><trkpt lat="44.7609883" lon="9.7936283"><ele>345.25</ele><time>2026-03-28T15:30:48.667Z</time></trkpt><trkpt lat="44.7611017" lon="9.7937183"><ele>347.5</ele><time>2026-03-28T15:30:49.669Z</time></trkpt><trkpt lat="44.7612217" lon="9.7937967"><ele>349.75</ele><time>2026-03-28T15:30:50.668Z</time></trkpt><trkpt lat="44.761345" lon="9.7938567"><ele>352.0</ele><time>2026-03-28T15:30:51.668Z</time></trkpt><trkpt lat="44.7614717" lon="9.7939083"><ele>352.0</ele><time>2026-03-28T15:30:52.667Z</time></trkpt><trkpt lat="44.7616033" lon="9.7939617"><ele>352.0</ele><time>2026-03-28T15:30:53.668Z</time></trkpt><trkpt lat="44.7617283" lon="9.79402"><ele>352.0</ele><time>2026-03-28T15:30:54.668Z</time></trkpt><trkpt lat="44.76185" lon="9.7940833"><ele>352.0</ele><time>2026-03-28T15:30:55.668Z</time></trkpt><trkpt lat="44.7619633" lon="9.7941483"><ele>351.6</ele><time>2026-03-28T15:30:56.668Z</time></trkpt><trkpt lat="44.76207" lon="9.7942083"><ele>351.20000000000005</ele><time>2026-03-28T15:30:57.667Z</time></trkpt><trkpt lat="44.7621667" lon="9.79427"><ele>350.8</ele><time>2026-03-28T15:30:58.667Z</time></trkpt><trkpt lat="44.7622533" lon="9.7943383"><ele>350.4</ele><time>2026-03-28T15:30:59.669Z</time></trkpt><trkpt lat="44.76233" lon="9.7944233"><ele>350.0</ele><time>2026-03-28T15:31:00.668Z</time></trkpt><trkpt lat="44.7623883" lon="9.7945333"><ele>350.0</ele><time>2026-03-28T15:31:01.669Z</time></trkpt><trkpt lat="44.7624317" lon="9.7946683"><ele>350.0</ele><time>2026-03-28T15:31:02.669Z</time></trkpt><trkpt lat="44.7624633" lon="9.7948217"><ele>350.0</ele><time>2026-03-28T15:31:03.669Z</time></trkpt><trkpt lat="44.7624867" lon="9.794985"><ele>350.0</ele><time>2026-03-28T15:31:04.667Z</time></trkpt><trkpt lat="44.7625117" lon="9.79515"><ele>351.4</ele><time>2026-03-28T15:31:05.667Z</time></trkpt><trkpt lat="44.7625433" lon="9.7953083"><ele>352.8</ele><time>2026-03-28T15:31:06.666Z</time></trkpt><trkpt lat="44.76258" lon="9.7954567"><ele>354.20000000000005</ele><time>2026-03-28T15:31:07.666Z</time></trkpt><trkpt lat="44.7626183" lon="9.7956017"><ele>355.6</ele><time>2026-03-28T15:31:08.668Z</time></trkpt><trkpt lat="44.7626567" lon="9.79574"><ele>357.0</ele><time>2026-03-28T15:31:09.666Z</time></trkpt><trkpt lat="44.7626967" lon="9.7958767"><ele>355.6</ele><time>2026-03-28T15:31:10.666Z</time></trkpt><trkpt lat="44.7627483" lon="9.7960017"><ele>354.20000000000005</ele><time>2026-03-28T15:31:11.666Z</time></trkpt><trkpt lat="44.7628133" lon="9.7961083"><ele>352.8</ele><time>2026-03-28T15:31:12.668Z</time></trkpt><trkpt lat="44.762895" lon="9.7961933"><ele>351.4</ele><time>2026-03-28T15:31:13.667Z</time></trkpt><trkpt lat="44.7629917" lon="9.79626"><ele>350.0</ele><time>2026-03-28T15:31:14.669Z</time></trkpt><trkpt lat="44.76309" lon="9.79631"><ele>350.0</ele><time>2026-03-28T15:31:15.667Z</time></trkpt><trkpt lat="44.7631933" lon="9.79636"><ele>350.0</ele><time>2026-03-28T15:31:16.667Z</time></trkpt><trkpt lat="44.7632983" lon="9.79641"><ele>350.0</ele><time>2026-03-28T15:31:17.668Z</time></trkpt><trkpt lat="44.7634033" lon="9.7964667"><ele>350.0</ele><time>2026-03-28T15:31:18.668Z</time></trkpt><trkpt lat="44.7635033" lon="9.7965317"><ele>350.0</ele><time>2026-03-28T15:31:19.669Z</time></trkpt><trkpt lat="44.76359" lon="9.7966133"><ele>349.4</ele><time>2026-03-28T15:31:20.669Z</time></trkpt><trkpt lat="44.763665" lon="9.7967133"><ele>348.8</ele><time>2026-03-28T15:31:21.668Z</time></trkpt><trkpt lat="44.7637267" lon="9.7968233"><ele>348.20000000000005</ele><time>2026-03-28T15:31:22.668Z</time></trkpt><trkpt lat="44.76379" lon="9.7969417"><ele>347.6</ele><time>2026-03-28T15:31:23.668Z</time></trkpt><trkpt lat="44.763855" lon="9.7970717"><ele>347.0</ele><time>2026-03-28T15:31:24.669Z</time></trkpt><trkpt lat="44.763925" lon="9.7972133"><ele>347.0</ele><time>2026-03-28T15:31:25.669Z</time></trkpt><trkpt lat="44.7639967" lon="9.7973683"><ele>347.0</ele><time>2026-03-28T15:31:26.668Z</time></trkpt><trkpt lat="44.7640667" lon="9.7975333"><ele>347.0</ele><time>2026-03-28T15:31:27.667Z</time></trkpt><trkpt lat="44.764135" lon="9.797705"><ele>347.0</ele><time>2026-03-28T15:31:28.668Z</time></trkpt><trkpt lat="44.7642033" lon="9.7978767"><ele>347.5</ele><time>2026-03-28T15:31:29.668Z</time></trkpt><trkpt lat="44.7642767" lon="9.798045"><ele>348.0</ele><time>2026-03-28T15:31:30.668Z</time></trkpt><trkpt lat="44.7643483" lon="9.7982083"><ele>348.5</ele><time>2026-03-28T15:31:31.669Z</time></trkpt><trkpt lat="44.76442" lon="9.7983733"><ele>349.0</ele><time>2026-03-28T15:31:32.669Z</time></trkpt><trkpt lat="44.7644933" lon="9.798535"><ele>349.0</ele><time>2026-03-28T15:31:33.668Z</time></trkpt><trkpt lat="44.7645717" lon="9.7986917"><ele>349.0</ele><time>2026-03-28T15:31:34.669Z</time></trkpt><trkpt lat="44.76466" lon="9.7988333"><ele>349.0</ele><time>2026-03-28T15:31:35.667Z</time></trkpt><trkpt lat="44.76476" lon="9.7989567"><ele>349.0</ele><time>2026-03-28T15:31:36.668Z</time></trkpt><trkpt lat="44.7648717" lon="9.7990583"><ele>349.0</ele><time>2026-03-28T15:31:37.669Z</time></trkpt><trkpt lat="44.764995" lon="9.7991367"><ele>349.0</ele><time>2026-03-28T15:31:38.667Z</time></trkpt><trkpt lat="44.7651217" lon="9.7991917"><ele>349.0</ele><time>2026-03-28T15:31:39.668Z</time></trkpt><trkpt lat="44.7652517" lon="9.799225"><ele>349.0</ele><time>2026-03-28T15:31:40.668Z</time></trkpt><trkpt lat="44.7653833" lon="9.79924"><ele>348.75</ele><time>2026-03-28T15:31:41.669Z</time></trkpt><trkpt lat="44.7655167" lon="9.7992433"><ele>348.5</ele><time>2026-03-28T15:31:42.668Z</time></trkpt><trkpt lat="44.765655" lon="9.7992483"><ele>348.25</ele><time>2026-03-28T15:31:43.668Z</time></trkpt><trkpt lat="44.7657983" lon="9.799255"><ele>348.0</ele><time>2026-03-28T15:31:44.669Z</time></trkpt><trkpt lat="44.7659417" lon="9.7992617"><ele>346.75</ele><time>2026-03-28T15:31:45.669Z</time></trkpt><trkpt lat="44.7660867" lon="9.799275"><ele>345.5</ele><time>2026-03-28T15:31:46.668Z</time></trkpt><trkpt lat="44.7662317" lon="9.7992967"><ele>344.25</ele><time>2026-03-28T15:31:47.668Z</time></trkpt><trkpt lat="44.7663767" lon="9.79933"><ele>343.0</ele><time>2026-03-28T15:31:48.667Z</time></trkpt><trkpt lat="44.76652" lon="9.79938"><ele>343.5</ele><time>2026-03-28T15:31:49.667Z</time></trkpt><trkpt lat="44.766655" lon="9.7994333"><ele>344.0</ele><time>2026-03-28T15:31:50.669Z</time></trkpt><trkpt lat="44.7667817" lon="9.7995017"><ele>344.5</ele><time>2026-03-28T15:31:51.667Z</time></trkpt><trkpt lat="44.7668967" lon="9.7995783"><ele>345.0</ele><time>2026-03-28T15:31:52.668Z</time></trkpt><trkpt lat="44.767" lon="9.79967"><ele>345.0</ele><time>2026-03-28T15:31:53.668Z</time></trkpt><trkpt lat="44.7670867" lon="9.79977"><ele>345.0</ele><time>2026-03-28T15:31:54.668Z</time></trkpt><trkpt lat="44.76716" lon="9.7998833"><ele>345.0</ele><time>2026-03-28T15:31:55.668Z</time></trkpt><trkpt lat="44.7672217" lon="9.8000133"><ele>345.0</ele><time>2026-03-28T15:31:56.668Z</time></trkpt><trkpt lat="44.76728" lon="9.8001583"><ele>350.0</ele><time>2026-03-28T15:31:57.668Z</time></trkpt><trkpt lat="44.76734" lon="9.80032"><ele>355.0</ele><time>2026-03-28T15:31:58.667Z</time></trkpt><trkpt lat="44.7674" lon="9.8004883"><ele>360.0</ele><time>2026-03-28T15:31:59.669Z</time></trkpt><trkpt lat="44.767465" lon="9.80066"><ele>365.0</ele><time>2026-03-28T15:32:00.668Z</time></trkpt><trkpt lat="44.7675317" lon="9.8008317"><ele>365.0</ele><time>2026-03-28T15:32:01.668Z</time></trkpt><trkpt lat="44.7676033" lon="9.8009967"><ele>365.0</ele><time>2026-03-28T15:32:02.667Z</time></trkpt><trkpt lat="44.767685" lon="9.801155"><ele>365.0</ele><time>2026-03-28T15:32:03.667Z</time></trkpt><trkpt lat="44.767785" lon="9.8012983"><ele>365.0</ele><time>2026-03-28T15:32:04.668Z</time></trkpt><trkpt lat="44.7678983" lon="9.8014283"><ele>367.25</ele><time>2026-03-28T15:32:05.668Z</time></trkpt><trkpt lat="44.76802" lon="9.8015467"><ele>369.5</ele><time>2026-03-28T15:32:06.667Z</time></trkpt><trkpt lat="44.7681467" lon="9.8016567"><ele>371.75</ele><time>2026-03-28T15:32:07.669Z</time></trkpt><trkpt lat="44.768275" lon="9.8017667"><ele>374.0</ele><time>2026-03-28T15:32:08.668Z</time></trkpt><trkpt lat="44.7683967" lon="9.8018717"><ele>374.0</ele><time>2026-03-28T15:32:09.668Z</time></trkpt><trkpt lat="44.7685133" lon="9.8019717"><ele>374.0</ele><time>2026-03-28T15:32:10.668Z</time></trkpt><trkpt lat="44.7686233" lon="9.80207"><ele>374.0</ele><time>2026-03-28T15:32:11.668Z</time></trkpt><trkpt lat="44.76873" lon="9.8021617"><ele>374.0</ele><time>2026-03-28T15:32:12.667Z</time></trkpt><trkpt lat="44.7688317" lon="9.8022317"><ele>370.4</ele><time>2026-03-28T15:32:13.668Z</time></trkpt><trkpt lat="44.7689367" lon="9.8022733"><ele>366.79999999999995</ele><time>2026-03-28T15:32:14.669Z</time></trkpt><trkpt lat="44.7690417" lon="9.8022933"><ele>363.20000000000005</ele><time>2026-03-28T15:32:15.667Z</time></trkpt><trkpt lat="44.7691433" lon="9.802295"><ele>359.6</ele><time>2026-03-28T15:32:16.666Z</time></trkpt><trkpt lat="44.7692483" lon="9.8022883"><ele>356.0</ele><time>2026-03-28T15:32:17.666Z</time></trkpt><trkpt lat="44.769355" lon="9.8022917"><ele>353.8</ele><time>2026-03-28T15:32:18.665Z</time></trkpt><trkpt lat="44.7694583" lon="9.8023133"><ele>351.6</ele><time>2026-03-28T15:32:19.666Z</time></trkpt><trkpt lat="44.7695583" lon="9.8023533"><ele>349.4</ele><time>2026-03-28T15:32:20.666Z</time></trkpt><trkpt lat="44.7696583" lon="9.8024217"><ele>347.2</ele><time>2026-03-28T15:32:21.666Z</time></trkpt><trkpt lat="44.7697617" lon="9.8025"><ele>345.0</ele><time>2026-03-28T15:32:22.666Z</time></trkpt><trkpt lat="44.7698717" lon="9.8025817"><ele>345.0</ele><time>2026-03-28T15:32:23.666Z</time></trkpt><trkpt lat="44.7699883" lon="9.8026633"><ele>345.0</ele><time>2026-03-28T15:32:24.666Z</time></trkpt><trkpt lat="44.7701067" lon="9.802745"><ele>345.0</ele><time>2026-03-28T15:32:25.665Z</time></trkpt><trkpt lat="44.7702267" lon="9.80283"><ele>345.0</ele><time>2026-03-28T15:32:26.666Z</time></trkpt><trkpt lat="44.7703467" lon="9.802915"><ele>345.0</ele><time>2026-03-28T15:32:27.666Z</time></trkpt><trkpt lat="44.7704633" lon="9.8029967"><ele>345.0</ele><time>2026-03-28T15:32:28.666Z</time></trkpt><trkpt lat="44.770575" lon="9.803075"><ele>345.0</ele><time>2026-03-28T15:32:29.667Z</time></trkpt><trkpt lat="44.7706833" lon="9.8031433"><ele>345.0</ele><time>2026-03-28T15:32:30.666Z</time></trkpt><trkpt lat="44.7707917" lon="9.8032033"><ele>345.0</ele><time>2026-03-28T15:32:31.666Z</time></trkpt><trkpt lat="44.7709" lon="9.803255"><ele>345.0</ele><time>2026-03-28T15:32:32.667Z</time></trkpt><trkpt lat="44.7710033" lon="9.8032933"><ele>345.0</ele><time>2026-03-28T15:32:33.667Z</time></trkpt><trkpt lat="44.771115" lon="9.8033267"><ele>345.0</ele><time>2026-03-28T15:32:34.666Z</time></trkpt><trkpt lat="44.7712317" lon="9.8033533"><ele>343.75</ele><time>2026-03-28T15:32:35.666Z</time></trkpt><trkpt lat="44.771355" lon="9.8033833"><ele>342.5</ele><time>2026-03-28T15:32:36.666Z</time></trkpt><trkpt lat="44.7714783" lon="9.8034183"><ele>341.25</ele><time>2026-03-28T15:32:37.665Z</time></trkpt><trkpt lat="44.7716033" lon="9.8034583"><ele>340.0</ele><time>2026-03-28T15:32:38.667Z</time></trkpt><trkpt lat="44.7717317" lon="9.8035"><ele>342.5</ele><time>2026-03-28T15:32:39.666Z</time></trkpt><trkpt lat="44.7718633" lon="9.8035417"><ele>345.0</ele><time>2026-03-28T15:32:40.667Z</time></trkpt><trkpt lat="44.772" lon="9.8035867"><ele>347.5</ele><time>2026-03-28T15:32:41.667Z</time></trkpt><trkpt lat="44.772135" lon="9.803625"><ele>350.0</ele><time>2026-03-28T15:32:42.666Z</time></trkpt><trkpt lat="44.7722667" lon="9.8036667"><ele>350.0</ele><time>2026-03-28T15:32:43.666Z</time></trkpt><trkpt lat="44.7724017" lon="9.8037133"><ele>350.0</ele><time>2026-03-28T15:32:44.667Z</time></trkpt><trkpt lat="44.7725383" lon="9.8037617"><ele>350.0</ele><time>2026-03-28T15:32:45.666Z</time></trkpt><trkpt lat="44.772675" lon="9.80381"><ele>350.0</ele><time>2026-03-28T15:32:46.667Z</time></trkpt><trkpt lat="44.7728117" lon="9.80386"><ele>345.25</ele><time>2026-03-28T15:32:47.667Z</time></trkpt><trkpt lat="44.7729467" lon="9.8039183"><ele>340.5</ele><time>2026-03-28T15:32:48.668Z</time></trkpt><trkpt lat="44.7730783" lon="9.80399"><ele>335.75</ele><time>2026-03-28T15:32:49.667Z</time></trkpt><trkpt lat="44.7732067" lon="9.80408"><ele>331.0</ele><time>2026-03-28T15:32:50.666Z</time></trkpt><trkpt lat="44.7733267" lon="9.8041817"><ele>331.0</ele><time>2026-03-28T15:32:51.665Z</time></trkpt><trkpt lat="44.77344" lon="9.8042983"><ele>331.0</ele><time>2026-03-28T15:32:52.665Z</time></trkpt><trkpt lat="44.7735433" lon="9.8044367"><ele>331.0</ele><time>2026-03-28T15:32:53.666Z</time></trkpt><trkpt lat="44.773645" lon="9.8045383"><ele>331.0</ele><time>2026-03-28T15:32:54.665Z</time></trkpt><trkpt lat="44.77375" lon="9.8046283"><ele>331.75</ele><time>2026-03-28T15:32:55.666Z</time></trkpt><trkpt lat="44.773855" lon="9.8047"><ele>332.5</ele><time>2026-03-28T15:32:56.666Z</time></trkpt><trkpt lat="44.77396" lon="9.8047583"><ele>333.25</ele><time>2026-03-28T15:32:57.666Z</time></trkpt><trkpt lat="44.774065" lon="9.8048083"><ele>334.0</ele><time>2026-03-28T15:32:58.665Z</time></trkpt><trkpt lat="44.7741767" lon="9.8048583"><ele>334.0</ele><time>2026-03-28T15:32:59.666Z</time></trkpt><trkpt lat="44.7742933" lon="9.8049067"><ele>334.0</ele><time>2026-03-28T15:33:00.666Z</time></trkpt><trkpt lat="44.77442" lon="9.804955"><ele>334.0</ele><time>2026-03-28T15:33:01.666Z</time></trkpt><trkpt lat="44.774555" lon="9.8049933"><ele>334.0</ele><time>2026-03-28T15:33:02.668Z</time></trkpt><trkpt lat="44.774695" lon="9.8050167"><ele>330.66666666666663</ele><time>2026-03-28T15:33:03.666Z</time></trkpt><trkpt lat="44.77484" lon="9.805015"><ele>327.3333333333333</ele><time>2026-03-28T15:33:04.666Z</time></trkpt><trkpt lat="44.7749917" lon="9.805"><ele>324.0</ele><time>2026-03-28T15:33:05.665Z</time></trkpt><trkpt lat="44.7751467" lon="9.8049717"><ele>323.5</ele><time>2026-03-28T15:33:06.666Z</time></trkpt><trkpt lat="44.7753117" lon="9.8049417"><ele>323.0</ele><time>2026-03-28T15:33:07.666Z</time></trkpt><trkpt lat="44.77563" lon="9.804875"><ele>323.0</ele><time>2026-03-28T15:33:09.666Z</time></trkpt><trkpt lat="44.7757833" lon="9.8048483"><ele>323.0</ele><time>2026-03-28T15:33:10.666Z</time></trkpt><trkpt lat="44.775935" lon="9.80483"><ele>323.0</ele><time>2026-03-28T15:33:11.667Z</time></trkpt><trkpt lat="44.7760883" lon="9.80481"><ele>326.0</ele><time>2026-03-28T15:33:12.666Z</time></trkpt><trkpt lat="44.7762417" lon="9.8047817"><ele>329.0</ele><time>2026-03-28T15:33:13.666Z</time></trkpt><trkpt lat="44.776395" lon="9.8047467"><ele>332.0</ele><time>2026-03-28T15:33:14.667Z</time></trkpt><trkpt lat="44.7765483" lon="9.804715"><ele>332.0</ele><time>2026-03-28T15:33:15.668Z</time></trkpt><trkpt lat="44.7766983" lon="9.8046917"><ele>332.0</ele><time>2026-03-28T15:33:16.667Z</time></trkpt><trkpt lat="44.7768467" lon="9.8046683"><ele>332.0</ele><time>2026-03-28T15:33:17.666Z</time></trkpt><trkpt lat="44.7769883" lon="9.8046417"><ele>332.0</ele><time>2026-03-28T15:33:18.667Z</time></trkpt><trkpt lat="44.7771267" lon="9.8046117"><ele>332.75</ele><time>2026-03-28T15:33:19.665Z</time></trkpt><trkpt lat="44.7772683" lon="9.8045867"><ele>333.5</ele><time>2026-03-28T15:33:20.668Z</time></trkpt><trkpt lat="44.7774117" lon="9.8045583"><ele>334.25</ele><time>2026-03-28T15:33:21.666Z</time></trkpt><trkpt lat="44.77756" lon="9.8045317"><ele>335.0</ele><time>2026-03-28T15:33:22.667Z</time></trkpt><trkpt lat="44.7777117" lon="9.8045067"><ele>336.0</ele><time>2026-03-28T15:33:23.666Z</time></trkpt><trkpt lat="44.7778617" lon="9.8044833"><ele>337.0</ele><time>2026-03-28T15:33:24.668Z</time></trkpt><trkpt lat="44.7780117" lon="9.8044583"><ele>338.0</ele><time>2026-03-28T15:33:25.666Z</time></trkpt><trkpt lat="44.7781583" lon="9.804435"><ele>339.0</ele><time>2026-03-28T15:33:26.667Z</time></trkpt><trkpt lat="44.7783017" lon="9.804415"><ele>339.0</ele><time>2026-03-28T15:33:27.665Z</time></trkpt><trkpt lat="44.7784433" lon="9.80439"><ele>339.0</ele><time>2026-03-28T15:33:28.665Z</time></trkpt><trkpt lat="44.7785833" lon="9.8043667"><ele>339.0</ele><time>2026-03-28T15:33:29.667Z</time></trkpt><trkpt lat="44.7787233" lon="9.8043383"><ele>339.0</ele><time>2026-03-28T15:33:30.665Z</time></trkpt><trkpt lat="44.7788617" lon="9.8042983"><ele>332.25</ele><time>2026-03-28T15:33:31.666Z</time></trkpt><trkpt lat="44.7789983" lon="9.8042417"><ele>325.5</ele><time>2026-03-28T15:33:32.667Z</time></trkpt><trkpt lat="44.7791333" lon="9.8041733"><ele>318.75</ele><time>2026-03-28T15:33:33.665Z</time></trkpt><trkpt lat="44.77927" lon="9.8041"><ele>312.0</ele><time>2026-03-28T15:33:34.667Z</time></trkpt><trkpt lat="44.779405" lon="9.8040267"><ele>312.0</ele><time>2026-03-28T15:33:35.666Z</time></trkpt><trkpt lat="44.779545" lon="9.80396"><ele>312.0</ele><time>2026-03-28T15:33:36.665Z</time></trkpt><trkpt lat="44.7796867" lon="9.8039117"><ele>312.0</ele><time>2026-03-28T15:33:37.667Z</time></trkpt><trkpt lat="44.779835" lon="9.803885"><ele>312.0</ele><time>2026-03-28T15:33:38.668Z</time></trkpt><trkpt lat="44.7799833" lon="9.8038767"><ele>312.0</ele><time>2026-03-28T15:33:39.667Z</time></trkpt><trkpt lat="44.78013" lon="9.8038883"><ele>312.0</ele><time>2026-03-28T15:33:40.667Z</time></trkpt><trkpt lat="44.7802767" lon="9.8039167"><ele>312.0</ele><time>2026-03-28T15:33:41.666Z</time></trkpt><trkpt lat="44.78042" lon="9.8039533"><ele>312.0</ele><time>2026-03-28T15:33:42.665Z</time></trkpt><trkpt lat="44.7805617" lon="9.8039933"><ele>310.25</ele><time>2026-03-28T15:33:43.667Z</time></trkpt><trkpt lat="44.7807033" lon="9.8040367"><ele>308.5</ele><time>2026-03-28T15:33:44.666Z</time></trkpt><trkpt lat="44.7808467" lon="9.8040917"><ele>306.75</ele><time>2026-03-28T15:33:45.666Z</time></trkpt><trkpt lat="44.78099" lon="9.8041567"><ele>305.0</ele><time>2026-03-28T15:33:46.667Z</time></trkpt><trkpt lat="44.7811383" lon="9.80422"><ele>303.5</ele><time>2026-03-28T15:33:47.667Z</time></trkpt><trkpt lat="44.781285" lon="9.8042617"><ele>302.0</ele><time>2026-03-28T15:33:48.666Z</time></trkpt><trkpt lat="44.7814317" lon="9.8042767"><ele>300.5</ele><time>2026-03-28T15:33:49.669Z</time></trkpt><trkpt lat="44.7815817" lon="9.804275"><ele>299.0</ele><time>2026-03-28T15:33:50.666Z</time></trkpt><trkpt lat="44.7817283" lon="9.8042617"><ele>299.25</ele><time>2026-03-28T15:33:51.667Z</time></trkpt><trkpt lat="44.78187" lon="9.80424"><ele>299.5</ele><time>2026-03-28T15:33:52.666Z</time></trkpt><trkpt lat="44.7820167" lon="9.8042183"><ele>299.75</ele><time>2026-03-28T15:33:53.666Z</time></trkpt><trkpt lat="44.782155" lon="9.804175"><ele>300.0</ele><time>2026-03-28T15:33:54.666Z</time></trkpt><trkpt lat="44.78229" lon="9.8041233"><ele>300.0</ele><time>2026-03-28T15:33:55.666Z</time></trkpt><trkpt lat="44.7824217" lon="9.8040533"><ele>300.0</ele><time>2026-03-28T15:33:56.667Z</time></trkpt><trkpt lat="44.7825483" lon="9.8039717"><ele>300.0</ele><time>2026-03-28T15:33:57.666Z</time></trkpt><trkpt lat="44.7826683" lon="9.80388"><ele>300.0</ele><time>2026-03-28T15:33:58.667Z</time></trkpt><trkpt lat="44.7827817" lon="9.803775"><ele>298.5</ele><time>2026-03-28T15:33:59.665Z</time></trkpt><trkpt lat="44.782895" lon="9.8036567"><ele>297.0</ele><time>2026-03-28T15:34:00.666Z</time></trkpt><trkpt lat="44.7830117" lon="9.8035317"><ele>295.5</ele><time>2026-03-28T15:34:01.666Z</time></trkpt><trkpt lat="44.7831267" lon="9.803405"><ele>294.0</ele><time>2026-03-28T15:34:02.666Z</time></trkpt><trkpt lat="44.78324" lon="9.803275"><ele>294.0</ele><time>2026-03-28T15:34:03.666Z</time></trkpt><trkpt lat="44.7833517" lon="9.8031467"><ele>294.0</ele><time>2026-03-28T15:34:04.666Z</time></trkpt><trkpt lat="44.783455" lon="9.80302"><ele>294.0</ele><time>2026-03-28T15:34:05.667Z</time></trkpt><trkpt lat="44.783555" lon="9.8029017"><ele>294.0</ele><time>2026-03-28T15:34:06.667Z</time></trkpt><trkpt lat="44.7836517" lon="9.80279"><ele>294.0</ele><time>2026-03-28T15:34:07.667Z</time></trkpt><trkpt lat="44.783745" lon="9.8026833"><ele>294.0</ele><time>2026-03-28T15:34:08.667Z</time></trkpt><trkpt lat="44.78384" lon="9.8025767"><ele>294.0</ele><time>2026-03-28T15:34:09.666Z</time></trkpt><trkpt lat="44.78394" lon="9.8024817"><ele>294.0</ele><time>2026-03-28T15:34:10.666Z</time></trkpt><trkpt lat="44.78404" lon="9.8024033"><ele>292.2</ele><time>2026-03-28T15:34:11.665Z</time></trkpt><trkpt lat="44.7841483" lon="9.8023533"><ele>290.4</ele><time>2026-03-28T15:34:12.667Z</time></trkpt><trkpt lat="44.7842617" lon="9.8023467"><ele>288.6</ele><time>2026-03-28T15:34:13.667Z</time></trkpt><trkpt lat="44.78437" lon="9.8023667"><ele>286.8</ele><time>2026-03-28T15:34:14.667Z</time></trkpt><trkpt lat="44.784475" lon="9.80241"><ele>285.0</ele><time>2026-03-28T15:34:15.666Z</time></trkpt><trkpt lat="44.7845817" lon="9.8024833"><ele>285.25</ele><time>2026-03-28T15:34:16.665Z</time></trkpt><trkpt lat="44.784685" lon="9.8025783"><ele>285.5</ele><time>2026-03-28T15:34:17.667Z</time></trkpt><trkpt lat="44.7847833" lon="9.8026867"><ele>285.75</ele><time>2026-03-28T15:34:18.666Z</time></trkpt><trkpt lat="44.7848833" lon="9.8027983"><ele>286.0</ele><time>2026-03-28T15:34:19.667Z</time></trkpt><trkpt lat="44.784985" lon="9.80291"><ele>286.0</ele><time>2026-03-28T15:34:20.667Z</time></trkpt><trkpt lat="44.7850883" lon="9.8030233"><ele>286.0</ele><time>2026-03-28T15:34:21.667Z</time></trkpt><trkpt lat="44.7851933" lon="9.8031267"><ele>286.0</ele><time>2026-03-28T15:34:22.667Z</time></trkpt><trkpt lat="44.7853" lon="9.8032167"><ele>286.0</ele><time>2026-03-28T15:34:23.666Z</time></trkpt><trkpt lat="44.7854117" lon="9.8033033"><ele>284.75</ele><time>2026-03-28T15:34:24.666Z</time></trkpt><trkpt lat="44.7855283" lon="9.80338"><ele>283.5</ele><time>2026-03-28T15:34:25.666Z</time></trkpt><trkpt lat="44.7856533" lon="9.80345"><ele>282.25</ele><time>2026-03-28T15:34:26.667Z</time></trkpt><trkpt lat="44.7857883" lon="9.8035067"><ele>281.0</ele><time>2026-03-28T15:34:27.666Z</time></trkpt><trkpt lat="44.7859283" lon="9.8035467"><ele>284.0</ele><time>2026-03-28T15:34:28.665Z</time></trkpt><trkpt lat="44.7860717" lon="9.8035667"><ele>287.0</ele><time>2026-03-28T15:34:29.667Z</time></trkpt><trkpt lat="44.7862133" lon="9.8035667"><ele>290.0</ele><time>2026-03-28T15:34:30.666Z</time></trkpt><trkpt lat="44.7863467" lon="9.8035583"><ele>293.0</ele><time>2026-03-28T15:34:31.665Z</time></trkpt><trkpt lat="44.7864717" lon="9.8035417"><ele>293.0</ele><time>2026-03-28T15:34:32.667Z</time></trkpt><trkpt lat="44.786595" lon="9.8035233"><ele>293.0</ele><time>2026-03-28T15:34:33.665Z</time></trkpt><trkpt lat="44.7867267" lon="9.8035117"><ele>293.0</ele><time>2026-03-28T15:34:34.667Z</time></trkpt><trkpt lat="44.7868567" lon="9.803485"><ele>293.0</ele><time>2026-03-28T15:34:35.667Z</time></trkpt><trkpt lat="44.786985" lon="9.8034433"><ele>287.75</ele><time>2026-03-28T15:34:36.666Z</time></trkpt><trkpt lat="44.7871133" lon="9.803385"><ele>282.5</ele><time>2026-03-28T15:34:37.667Z</time></trkpt><trkpt lat="44.7872383" lon="9.8033217"><ele>277.25</ele><time>2026-03-28T15:34:38.667Z</time></trkpt><trkpt lat="44.78736" lon="9.8032567"><ele>272.0</ele><time>2026-03-28T15:34:39.667Z</time></trkpt><trkpt lat="44.7874783" lon="9.803195"><ele>272.0</ele><time>2026-03-28T15:34:40.666Z</time></trkpt><trkpt lat="44.787595" lon="9.803135"><ele>272.0</ele><time>2026-03-28T15:34:41.665Z</time></trkpt><trkpt lat="44.7877117" lon="9.8030883"><ele>272.0</ele><time>2026-03-28T15:34:42.667Z</time></trkpt><trkpt lat="44.7878333" lon="9.80306"><ele>272.0</ele><time>2026-03-28T15:34:43.667Z</time></trkpt><trkpt lat="44.7879617" lon="9.8030517"><ele>272.0</ele><time>2026-03-28T15:34:44.667Z</time></trkpt><trkpt lat="44.7880933" lon="9.80307"><ele>272.0</ele><time>2026-03-28T15:34:45.666Z</time></trkpt><trkpt lat="44.788235" lon="9.8031233"><ele>272.0</ele><time>2026-03-28T15:34:46.665Z</time></trkpt><trkpt lat="44.78837" lon="9.80317"><ele>272.0</ele><time>2026-03-28T15:34:47.666Z</time></trkpt><trkpt lat="44.78851" lon="9.8032233"><ele>269.75</ele><time>2026-03-28T15:34:48.667Z</time></trkpt><trkpt lat="44.788645" lon="9.80327"><ele>267.5</ele><time>2026-03-28T15:34:49.668Z</time></trkpt><trkpt lat="44.78878" lon="9.8033183"><ele>265.25</ele><time>2026-03-28T15:34:50.667Z</time></trkpt><trkpt lat="44.7889133" lon="9.8033783"><ele>263.0</ele><time>2026-03-28T15:34:51.665Z</time></trkpt><trkpt lat="44.78904" lon="9.803455"><ele>262.5</ele><time>2026-03-28T15:34:52.668Z</time></trkpt><trkpt lat="44.7891583" lon="9.8035533"><ele>262.0</ele><time>2026-03-28T15:34:53.668Z</time></trkpt><trkpt lat="44.7892633" lon="9.803675"><ele>261.5</ele><time>2026-03-28T15:34:54.666Z</time></trkpt><trkpt lat="44.7893617" lon="9.8038117"><ele>261.0</ele><time>2026-03-28T15:34:55.667Z</time></trkpt><trkpt lat="44.7894583" lon="9.8039533"><ele>261.0</ele><time>2026-03-28T15:34:56.666Z</time></trkpt><trkpt lat="44.789555" lon="9.8040967"><ele>261.0</ele><time>2026-03-28T15:34:57.671Z</time></trkpt><trkpt lat="44.78965" lon="9.8042417"><ele>261.0</ele><time>2026-03-28T15:34:58.667Z</time></trkpt><trkpt lat="44.7897417" lon="9.8043867"><ele>261.0</ele><time>2026-03-28T15:34:59.67Z</time></trkpt><trkpt lat="44.789835" lon="9.8045283"><ele>260.25</ele><time>2026-03-28T15:35:00.667Z</time></trkpt><trkpt lat="44.789925" lon="9.80467"><ele>259.5</ele><time>2026-03-28T15:35:01.666Z</time></trkpt><trkpt lat="44.7900167" lon="9.8048067"><ele>258.75</ele><time>2026-03-28T15:35:02.665Z</time></trkpt><trkpt lat="44.7901083" lon="9.8049417"><ele>258.0</ele><time>2026-03-28T15:35:03.666Z</time></trkpt><trkpt lat="44.7902" lon="9.8050767"><ele>258.75</ele><time>2026-03-28T15:35:04.666Z</time></trkpt><trkpt lat="44.7902933" lon="9.80521"><ele>259.5</ele><time>2026-03-28T15:35:05.665Z</time></trkpt><trkpt lat="44.7903883" lon="9.80534"><ele>260.25</ele><time>2026-03-28T15:35:06.666Z</time></trkpt><trkpt lat="44.7904833" lon="9.80547"><ele>261.0</ele><time>2026-03-28T15:35:07.667Z</time></trkpt><trkpt lat="44.7905783" lon="9.8055983"><ele>261.0</ele><time>2026-03-28T15:35:08.666Z</time></trkpt><trkpt lat="44.7906733" lon="9.8057267"><ele>261.0</ele><time>2026-03-28T15:35:09.665Z</time></trkpt><trkpt lat="44.790765" lon="9.8058533"><ele>261.0</ele><time>2026-03-28T15:35:10.666Z</time></trkpt><trkpt lat="44.7908583" lon="9.8059817"><ele>261.0</ele><time>2026-03-28T15:35:11.667Z</time></trkpt><trkpt lat="44.79095" lon="9.80611"><ele>259.75</ele><time>2026-03-28T15:35:12.668Z</time></trkpt><trkpt lat="44.7910433" lon="9.806235"><ele>258.5</ele><time>2026-03-28T15:35:13.666Z</time></trkpt><trkpt lat="44.7911417" lon="9.8063617"><ele>257.25</ele><time>2026-03-28T15:35:14.667Z</time></trkpt><trkpt lat="44.7912383" lon="9.8064883"><ele>256.0</ele><time>2026-03-28T15:35:15.666Z</time></trkpt><trkpt lat="44.7913333" lon="9.806615"><ele>256.0</ele><time>2026-03-28T15:35:16.666Z</time></trkpt><trkpt lat="44.7914283" lon="9.8067317"><ele>256.0</ele><time>2026-03-28T15:35:17.665Z</time></trkpt><trkpt lat="44.7915183" lon="9.8068367"><ele>256.0</ele><time>2026-03-28T15:35:18.668Z</time></trkpt><trkpt lat="44.7916083" lon="9.806925"><ele>256.0</ele><time>2026-03-28T15:35:19.666Z</time></trkpt><trkpt lat="44.7917" lon="9.807"><ele>256.2</ele><time>2026-03-28T15:35:20.668Z</time></trkpt><trkpt lat="44.7917933" lon="9.8070733"><ele>256.40000000000003</ele><time>2026-03-28T15:35:21.667Z</time></trkpt><trkpt lat="44.7918867" lon="9.8071533"><ele>256.6</ele><time>2026-03-28T15:35:22.666Z</time></trkpt><trkpt lat="44.7919817" lon="9.8072317"><ele>256.8</ele><time>2026-03-28T15:35:23.666Z</time></trkpt><trkpt lat="44.79208" lon="9.8073167"><ele>257.0</ele><time>2026-03-28T15:35:24.666Z</time></trkpt><trkpt lat="44.7921733" lon="9.8074133"><ele>257.25</ele><time>2026-03-28T15:35:25.667Z</time></trkpt><trkpt lat="44.7922583" lon="9.8075133"><ele>257.5</ele><time>2026-03-28T15:35:26.666Z</time></trkpt><trkpt lat="44.7923517" lon="9.8076133"><ele>257.75</ele><time>2026-03-28T15:35:27.666Z</time></trkpt><trkpt lat="44.7924467" lon="9.807715"><ele>258.0</ele><time>2026-03-28T15:35:28.667Z</time></trkpt><trkpt lat="44.792545" lon="9.8078217"><ele>258.0</ele><time>2026-03-28T15:35:29.667Z</time></trkpt><trkpt lat="44.792645" lon="9.80794"><ele>258.0</ele><time>2026-03-28T15:35:30.666Z</time></trkpt><trkpt lat="44.7927333" lon="9.808055"><ele>258.0</ele><time>2026-03-28T15:35:31.667Z</time></trkpt><trkpt lat="44.7928217" lon="9.8081717"><ele>258.0</ele><time>2026-03-28T15:35:32.667Z</time></trkpt><trkpt lat="44.7929083" lon="9.80829"><ele>257.5</ele><time>2026-03-28T15:35:33.666Z</time></trkpt><trkpt lat="44.7929933" lon="9.808405"><ele>257.0</ele><time>2026-03-28T15:35:34.666Z</time></trkpt><trkpt lat="44.793075" lon="9.808515"><ele>256.5</ele><time>2026-03-28T15:35:35.665Z</time></trkpt><trkpt lat="44.793155" lon="9.8086317"><ele>256.0</ele><time>2026-03-28T15:35:36.666Z</time></trkpt><trkpt lat="44.79323" lon="9.808745"><ele>256.0</ele><time>2026-03-28T15:35:37.667Z</time></trkpt><trkpt lat="44.7933017" lon="9.80885"><ele>256.0</ele><time>2026-03-28T15:35:38.667Z</time></trkpt><trkpt lat="44.7933733" lon="9.8089517"><ele>256.0</ele><time>2026-03-28T15:35:39.666Z</time></trkpt><trkpt lat="44.7934483" lon="9.8090417"><ele>256.0</ele><time>2026-03-28T15:35:40.666Z</time></trkpt><trkpt lat="44.79352" lon="9.8091267"><ele>256.0</ele><time>2026-03-28T15:35:41.667Z</time></trkpt><trkpt lat="44.793585" lon="9.8092033"><ele>251.0</ele><time>2026-03-28T15:35:42.666Z</time></trkpt><trkpt lat="44.7936433" lon="9.8092783"><ele>251.0</ele><time>2026-03-28T15:35:43.667Z</time></trkpt><trkpt lat="44.7936967" lon="9.8093567"><ele>254.0</ele><time>2026-03-28T15:35:44.667Z</time></trkpt><trkpt lat="44.7937417" lon="9.8094233"><ele>254.0</ele><time>2026-03-28T15:35:45.666Z</time></trkpt><trkpt lat="44.7938117" lon="9.8094717"><ele>254.0</ele><time>2026-03-28T15:35:47.667Z</time></trkpt></trkseg></trk></gpx>